<?xml version='1.0' encoding='UTF-8'?><gpx version="1.1" creator="JPX - https://github.com/jenetics/jpx" xmlns="http://www.topografix.com/GPX/1/1"><trk><trkseg><trkpt lat="42.73357481499033" lon="13.96218998653526"><ele>19.8</ele><time>2026-05-03T12:03:21Z</time></trkpt><trkpt lat="42.73351291386224" lon="13.96209719720547"><ele>19.6</ele><time>2026-05-03T12:03:55Z</time></trkpt><trkpt lat="42.73341376133853" lon="13.962081273946994"><ele>19.4</ele><time>2026-05-03T12:03:57Z</time></trkpt><trkpt lat="42.73333464586894" lon="13.962052129356517"><ele>19.2</ele><time>2026-05-03T12:04:00Z</time></trkpt><trkpt lat="42.73325767059136" lon="13.96188658987147"><ele>19.0</ele><time>2026-05-03T12:04:02Z</time></trkpt><trkpt lat="42.73319985534005" lon="13.961748334191464"><ele>19.666666666666664</ele><time>2026-05-03T12:04:03Z</time></trkpt><trkpt lat="42.73313273160775" lon="13.961613941906792"><ele>20.333333333333332</ele><time>2026-05-03T12:04:04Z</time></trkpt><trkpt lat="42.733061899552986" lon="13.961419731157985"><ele>21.0</ele><time>2026-05-03T12:04:05Z</time></trkpt><trkpt lat="42.73296792414046" lon="13.961216240915936"><ele>21.0</ele><time>2026-05-03T12:04:06Z</time></trkpt><trkpt lat="42.73285488684344" lon="13.960970843656973"><ele>21.0</ele><time>2026-05-03T12:04:07Z</time></trkpt><trkpt lat="42.73272649771636" lon="13.960691047031018"><ele>21.0</ele><time>2026-05-03T12:04:08Z</time></trkpt><trkpt lat="42.732571253115474" lon="13.960380116284144"><ele>21.0</ele><time>2026-05-03T12:04:09Z</time></trkpt><trkpt lat="42.732423884878855" lon="13.960030642006162"><ele>21.5</ele><time>2026-05-03T12:04:10Z</time></trkpt><trkpt lat="42.73223516882589" lon="13.95970519535695"><ele>22.0</ele><time>2026-05-03T12:04:11Z</time></trkpt><trkpt lat="42.732060891418755" lon="13.959324095306057"><ele>22.0</ele><time>2026-05-03T12:04:12Z</time></trkpt><trkpt lat="42.73189393167219" lon="13.958919157935217"><ele>22.0</ele><time>2026-05-03T12:04:13Z</time></trkpt><trkpt lat="42.731732082290165" lon="13.958531204362943"><ele>22.5</ele><time>2026-05-03T12:04:14Z</time></trkpt><trkpt lat="42.731578336124954" lon="13.958206811184317"><ele>23.0</ele><time>2026-05-03T12:04:15Z</time></trkpt><trkpt lat="42.73143467211973" lon="13.957899935728697"><ele>23.0</ele><time>2026-05-03T12:04:16Z</time></trkpt><trkpt lat="42.731289830601874" lon="13.95759058123485"><ele>23.0</ele><time>2026-05-03T12:04:17Z</time></trkpt><trkpt lat="42.73114027776773" lon="13.957270195643849"><ele>22.5</ele><time>2026-05-03T12:04:18Z</time></trkpt><trkpt lat="42.730986932225704" lon="13.956935005472818"><ele>22.0</ele><time>2026-05-03T12:04:19Z</time></trkpt><trkpt lat="42.730824002202446" lon="13.956571491438636"><ele>22.0</ele><time>2026-05-03T12:04:20Z</time></trkpt><trkpt lat="42.73065103443119" lon="13.956195348636736"><ele>22.0</ele><time>2026-05-03T12:04:21Z</time></trkpt><trkpt lat="42.73049844592631" lon="13.955798673198636"><ele>22.0</ele><time>2026-05-03T12:04:22Z</time></trkpt><trkpt lat="42.73031434762582" lon="13.955441531983098"><ele>22.0</ele><time>2026-05-03T12:04:23Z</time></trkpt><trkpt lat="42.73016457740784" lon="13.955121313431807"><ele>20.5</ele><time>2026-05-03T12:04:24Z</time></trkpt><trkpt lat="42.73002590940108" lon="13.95482687434332"><ele>19.0</ele><time>2026-05-03T12:04:25Z</time></trkpt><trkpt lat="42.72989805045129" lon="13.954544565349314"><ele>19.0</ele><time>2026-05-03T12:04:26Z</time></trkpt><trkpt lat="42.72978994112612" lon="13.954309355658534"><ele>19.0</ele><time>2026-05-03T12:04:27Z</time></trkpt><trkpt lat="42.729679462467814" lon="13.954060187940934"><ele>19.0</ele><time>2026-05-03T12:04:28Z</time></trkpt><trkpt lat="42.72955704811553" lon="13.953797722690464"><ele>18.5</ele><time>2026-05-03T12:04:29Z</time></trkpt><trkpt lat="42.72942752814136" lon="13.95351583472983"><ele>18.0</ele><time>2026-05-03T12:04:30Z</time></trkpt><trkpt lat="42.72929971805465" lon="13.953235953232065"><ele>19.333333333333332</ele><time>2026-05-03T12:04:31Z</time></trkpt><trkpt lat="42.72917226057082" lon="13.95296223244302"><ele>20.666666666666664</ele><time>2026-05-03T12:04:32Z</time></trkpt><trkpt lat="42.72905967782599" lon="13.9527199834999"><ele>22.0</ele><time>2026-05-03T12:04:33Z</time></trkpt><trkpt lat="42.728963067846806" lon="13.952506582641497"><ele>22.666666666666664</ele><time>2026-05-03T12:04:34Z</time></trkpt><trkpt lat="42.72887353140414" lon="13.952310743723698"><ele>23.333333333333332</ele><time>2026-05-03T12:04:35Z</time></trkpt><trkpt lat="42.728790956185854" lon="13.952137039387733"><ele>24.0</ele><time>2026-05-03T12:04:36Z</time></trkpt><trkpt lat="42.72871498358338" lon="13.95197121662226"><ele>24.0</ele><time>2026-05-03T12:04:37Z</time></trkpt><trkpt lat="42.72864469135261" lon="13.951817595735864"><ele>24.0</ele><time>2026-05-03T12:04:38Z</time></trkpt><trkpt lat="42.72856800268871" lon="13.95166122186783"><ele>24.0</ele><time>2026-05-03T12:04:39Z</time></trkpt><trkpt lat="42.728472149603924" lon="13.951478846194933"><ele>24.0</ele><time>2026-05-03T12:04:40Z</time></trkpt><trkpt lat="42.72836029135128" lon="13.951243723120617"><ele>24.0</ele><time>2026-05-03T12:04:40.999Z</time></trkpt><trkpt lat="42.72824600774866" lon="13.95097167308471"><ele>24.0</ele><time>2026-05-03T12:04:41.999Z</time></trkpt><trkpt lat="42.72811850324345" lon="13.95067298218094"><ele>24.0</ele><time>2026-05-03T12:04:42.999Z</time></trkpt><trkpt lat="42.72797355765961" lon="13.950353476373413"><ele>24.0</ele><time>2026-05-03T12:04:43.999Z</time></trkpt><trkpt lat="42.72781982708238" lon="13.95001594556907"><ele>24.5</ele><time>2026-05-03T12:04:44.999Z</time></trkpt><trkpt lat="42.727656803806255" lon="13.9496614775896"><ele>25.0</ele><time>2026-05-03T12:04:45.999Z</time></trkpt><trkpt lat="42.72749884999863" lon="13.949313641992822"><ele>25.0</ele><time>2026-05-03T12:04:46.999Z</time></trkpt><trkpt lat="42.727351195241575" lon="13.949000146487952"><ele>25.0</ele><time>2026-05-03T12:04:47.999Z</time></trkpt><trkpt lat="42.727200799344764" lon="13.948676504898815"><ele>24.5</ele><time>2026-05-03T12:04:48.999Z</time></trkpt><trkpt lat="42.727047236573014" lon="13.948338662397646"><ele>24.0</ele><time>2026-05-03T12:04:49.999Z</time></trkpt><trkpt lat="42.72689633533733" lon="13.948008482543896"><ele>24.5</ele><time>2026-05-03T12:04:50.999Z</time></trkpt><trkpt lat="42.72675013922033" lon="13.947684399944889"><ele>25.0</ele><time>2026-05-03T12:04:51.999Z</time></trkpt><trkpt lat="42.72660296246152" lon="13.947369883774702"><ele>25.5</ele><time>2026-05-03T12:04:52.999Z</time></trkpt><trkpt lat="42.72646502717612" lon="13.947075484713343"><ele>26.0</ele><time>2026-05-03T12:04:53.999Z</time></trkpt><trkpt lat="42.726351488562315" lon="13.946788535148332"><ele>26.0</ele><time>2026-05-03T12:04:54.999Z</time></trkpt><trkpt lat="42.72623610609336" lon="13.946537164867866"><ele>26.0</ele><time>2026-05-03T12:04:55.999Z</time></trkpt><trkpt lat="42.72612695902112" lon="13.946299750344522"><ele>26.0</ele><time>2026-05-03T12:04:56.999Z</time></trkpt><trkpt lat="42.7260085841627" lon="13.946083553053311"><ele>26.333333333333332</ele><time>2026-05-03T12:04:57.999Z</time></trkpt><trkpt lat="42.725898030529876" lon="13.945842577773393"><ele>26.666666666666664</ele><time>2026-05-03T12:04:58.999Z</time></trkpt><trkpt lat="42.725783230689565" lon="13.945593019162956"><ele>27.0</ele><time>2026-05-03T12:04:59.999Z</time></trkpt><trkpt lat="42.725665755786274" lon="13.945341357553247"><ele>27.0</ele><time>2026-05-03T12:05:00.999Z</time></trkpt><trkpt lat="42.7255487911999" lon="13.945087031155373"><ele>27.0</ele><time>2026-05-03T12:05:01.999Z</time></trkpt><trkpt lat="42.725438998008144" lon="13.944842974194165"><ele>27.0</ele><time>2026-05-03T12:05:02.999Z</time></trkpt><trkpt lat="42.72533888098137" lon="13.944620744597664"><ele>27.333333333333336</ele><time>2026-05-03T12:05:03.999Z</time></trkpt><trkpt lat="42.72524487005758" lon="13.944414343790688"><ele>27.666666666666668</ele><time>2026-05-03T12:05:04.999Z</time></trkpt><trkpt lat="42.72515537620832" lon="13.944221572863121"><ele>28.0</ele><time>2026-05-03T12:05:05.999Z</time></trkpt><trkpt lat="42.72506510622976" lon="13.944023365693122"><ele>29.333333333333336</ele><time>2026-05-03T12:05:06.999Z</time></trkpt><trkpt lat="42.72496977858238" lon="13.943813974451771"><ele>30.666666666666664</ele><time>2026-05-03T12:05:07.999Z</time></trkpt><trkpt lat="42.724866524381056" lon="13.943595530751196"><ele>32.0</ele><time>2026-05-03T12:05:08.999Z</time></trkpt><trkpt lat="42.72475957019851" lon="13.94335711857204"><ele>32.33333333333333</ele><time>2026-05-03T12:05:09.999Z</time></trkpt><trkpt lat="42.72464647455214" lon="13.943117955834339"><ele>32.666666666666664</ele><time>2026-05-03T12:05:10.999Z</time></trkpt><trkpt lat="42.724533240442014" lon="13.942863848984144"><ele>33.0</ele><time>2026-05-03T12:05:11.999Z</time></trkpt><trkpt lat="42.72440960457122" lon="13.942597564364439"><ele>33.666666666666664</ele><time>2026-05-03T12:05:12.999Z</time></trkpt><trkpt lat="42.724290678524135" lon="13.942356121731857"><ele>34.33333333333333</ele><time>2026-05-03T12:05:13.999Z</time></trkpt><trkpt lat="42.72417848095443" lon="13.942090440359417"><ele>35.0</ele><time>2026-05-03T12:05:15Z</time></trkpt><trkpt lat="42.72402345539564" lon="13.941767236981908"><ele>35.0</ele><time>2026-05-03T12:05:16Z</time></trkpt><trkpt lat="42.72389038379657" lon="13.941478049368241"><ele>35.0</ele><time>2026-05-03T12:05:17Z</time></trkpt><trkpt lat="42.723764701059885" lon="13.941207138117475"><ele>35.0</ele><time>2026-05-03T12:05:18Z</time></trkpt><trkpt lat="42.72364525474989" lon="13.940942791872171"><ele>35.0</ele><time>2026-05-03T12:05:19Z</time></trkpt><trkpt lat="42.72351526861531" lon="13.940652332044"><ele>35.0</ele><time>2026-05-03T12:05:20Z</time></trkpt><trkpt lat="42.7233784938917" lon="13.940349969930594"><ele>35.0</ele><time>2026-05-03T12:05:21Z</time></trkpt><trkpt lat="42.72323796518308" lon="13.94004105482867"><ele>35.0</ele><time>2026-05-03T12:05:22Z</time></trkpt><trkpt lat="42.72308835001301" lon="13.939716605865598"><ele>35.0</ele><time>2026-05-03T12:05:23Z</time></trkpt><trkpt lat="42.7229252244734" lon="13.939365185820423"><ele>35.0</ele><time>2026-05-03T12:05:24Z</time></trkpt><trkpt lat="42.72275511346165" lon="13.938990089397494"><ele>35.0</ele><time>2026-05-03T12:05:25Z</time></trkpt><trkpt lat="42.72258277997021" lon="13.938616043753367"><ele>35.0</ele><time>2026-05-03T12:05:26Z</time></trkpt><trkpt lat="42.72240162961433" lon="13.93822245913725"><ele>35.0</ele><time>2026-05-03T12:05:27Z</time></trkpt><trkpt lat="42.72222606954306" lon="13.93784109300575"><ele>34.5</ele><time>2026-05-03T12:05:28Z</time></trkpt><trkpt lat="42.72206851320246" lon="13.937497484981881"><ele>34.0</ele><time>2026-05-03T12:05:29Z</time></trkpt><trkpt lat="42.72192586679452" lon="13.937189250876143"><ele>36.5</ele><time>2026-05-03T12:05:30Z</time></trkpt><trkpt lat="42.72179079774046" lon="13.936899585069462"><ele>39.0</ele><time>2026-05-03T12:05:31Z</time></trkpt><trkpt lat="42.7216669631425" lon="13.93662324812694"><ele>39.0</ele><time>2026-05-03T12:05:32Z</time></trkpt><trkpt lat="42.721551793270145" lon="13.936364848200402"><ele>39.0</ele><time>2026-05-03T12:05:33Z</time></trkpt><trkpt lat="42.721434206765544" lon="13.936099765151235"><ele>39.0</ele><time>2026-05-03T12:05:34Z</time></trkpt><trkpt lat="42.721302808747176" lon="13.935813970138867"><ele>39.0</ele><time>2026-05-03T12:05:35Z</time></trkpt><trkpt lat="42.721160528615336" lon="13.935510981911913"><ele>40.0</ele><time>2026-05-03T12:05:36Z</time></trkpt><trkpt lat="42.721022854126105" lon="13.935215669044826"><ele>41.0</ele><time>2026-05-03T12:05:37Z</time></trkpt><trkpt lat="42.720901376810474" lon="13.934954589474824"><ele>41.666666666666664</ele><time>2026-05-03T12:05:38Z</time></trkpt><trkpt lat="42.72078964361223" lon="13.934713495403543"><ele>42.333333333333336</ele><time>2026-05-03T12:05:39Z</time></trkpt><trkpt lat="42.72068281714948" lon="13.93448410347928"><ele>43.0</ele><time>2026-05-03T12:05:40Z</time></trkpt><trkpt lat="42.7205784855138" lon="13.934255904512161"><ele>43.0</ele><time>2026-05-03T12:05:41Z</time></trkpt><trkpt lat="42.72046647973305" lon="13.934015304876016"><ele>43.0</ele><time>2026-05-03T12:05:42Z</time></trkpt><trkpt lat="42.72035148097076" lon="13.933765464755574"><ele>43.0</ele><time>2026-05-03T12:05:43Z</time></trkpt><trkpt lat="42.72023638970448" lon="13.933514461886507"><ele>42.333333333333336</ele><time>2026-05-03T12:05:44Z</time></trkpt><trkpt lat="42.720129889193785" lon="13.933279690351764"><ele>41.666666666666664</ele><time>2026-05-03T12:05:45Z</time></trkpt><trkpt lat="42.720017571767585" lon="13.933044475621184"><ele>41.0</ele><time>2026-05-03T12:05:46Z</time></trkpt><trkpt lat="42.719886261613176" lon="13.932787017392313"><ele>42.5</ele><time>2026-05-03T12:05:47Z</time></trkpt><trkpt lat="42.71973933923229" lon="13.932485564594113"><ele>44.0</ele><time>2026-05-03T12:05:48Z</time></trkpt><trkpt lat="42.719589350951274" lon="13.932150900342425"><ele>44.0</ele><time>2026-05-03T12:05:49Z</time></trkpt><trkpt lat="42.71942768333177" lon="13.93177621992496"><ele>44.0</ele><time>2026-05-03T12:05:50Z</time></trkpt><trkpt lat="42.719259673726114" lon="13.931396389268325"><ele>44.5</ele><time>2026-05-03T12:05:51Z</time></trkpt><trkpt lat="42.71909264744468" lon="13.93103140486506"><ele>45.0</ele><time>2026-05-03T12:05:52Z</time></trkpt><trkpt lat="42.71894046204322" lon="13.930704261921436"><ele>46.5</ele><time>2026-05-03T12:05:53Z</time></trkpt><trkpt lat="42.71880605654878" lon="13.930408340666096"><ele>48.0</ele><time>2026-05-03T12:05:54Z</time></trkpt><trkpt lat="42.718682911598556" lon="13.930131781170891"><ele>47.5</ele><time>2026-05-03T12:05:55Z</time></trkpt><trkpt lat="42.71856151371409" lon="13.92987506812779"><ele>47.0</ele><time>2026-05-03T12:05:56Z</time></trkpt><trkpt lat="42.71843950980865" lon="13.92960842435384"><ele>47.0</ele><time>2026-05-03T12:05:57Z</time></trkpt><trkpt lat="42.71831693703497" lon="13.929329957390179"><ele>47.0</ele><time>2026-05-03T12:05:58Z</time></trkpt><trkpt lat="42.71818640319514" lon="13.929048599721467"><ele>48.0</ele><time>2026-05-03T12:05:59Z</time></trkpt><trkpt lat="42.71805666919468" lon="13.928757903891094"><ele>49.0</ele><time>2026-05-03T12:06:00Z</time></trkpt><trkpt lat="42.71792928570896" lon="13.928480892997776"><ele>49.666666666666664</ele><time>2026-05-03T12:06:01Z</time></trkpt><trkpt lat="42.717811190576874" lon="13.928234540647862"><ele>50.33333333333333</ele><time>2026-05-03T12:06:02Z</time></trkpt><trkpt lat="42.71769988543318" lon="13.927999804237198"><ele>51.0</ele><time>2026-05-03T12:06:03Z</time></trkpt><trkpt lat="42.71759584252781" lon="13.927781694781713"><ele>50.0</ele><time>2026-05-03T12:06:04Z</time></trkpt><trkpt lat="42.71749919256349" lon="13.927573602681086"><ele>49.0</ele><time>2026-05-03T12:06:05Z</time></trkpt><trkpt lat="42.71739844970399" lon="13.927364424905806"><ele>48.0</ele><time>2026-05-03T12:06:06Z</time></trkpt><trkpt lat="42.717296996772774" lon="13.927147613680987"><ele>48.0</ele><time>2026-05-03T12:06:07Z</time></trkpt><trkpt lat="42.71720149476439" lon="13.926942611008084"><ele>48.0</ele><time>2026-05-03T12:06:08Z</time></trkpt><trkpt lat="42.717108400598406" lon="13.926743577565404"><ele>48.0</ele><time>2026-05-03T12:06:09Z</time></trkpt><trkpt lat="42.71701634428516" lon="13.926550476126032"><ele>48.0</ele><time>2026-05-03T12:06:10Z</time></trkpt><trkpt lat="42.71692828200301" lon="13.926367533785074"><ele>48.0</ele><time>2026-05-03T12:06:11Z</time></trkpt><trkpt lat="42.71684381142456" lon="13.926186574592199"><ele>48.0</ele><time>2026-05-03T12:06:12Z</time></trkpt><trkpt lat="42.71675120807889" lon="13.925989685946558"><ele>46.666666666666664</ele><time>2026-05-03T12:06:13Z</time></trkpt><trkpt lat="42.71665286720493" lon="13.925782608852483"><ele>45.33333333333333</ele><time>2026-05-03T12:06:14Z</time></trkpt><trkpt lat="42.71654769954022" lon="13.925569972047613"><ele>44.0</ele><time>2026-05-03T12:06:15Z</time></trkpt><trkpt lat="42.716447402447805" lon="13.925361641073183"><ele>44.0</ele><time>2026-05-03T12:06:16Z</time></trkpt><trkpt lat="42.71635014564826" lon="13.925157100186063"><ele>44.0</ele><time>2026-05-03T12:06:17Z</time></trkpt><trkpt lat="42.7162548921349" lon="13.924952545358652"><ele>44.0</ele><time>2026-05-03T12:06:18Z</time></trkpt><trkpt lat="42.71615942378082" lon="13.92474541675273"><ele>44.0</ele><time>2026-05-03T12:06:19Z</time></trkpt><trkpt lat="42.71606148479889" lon="13.924533186989898"><ele>44.0</ele><time>2026-05-03T12:06:20Z</time></trkpt><trkpt lat="42.71595757926929" lon="13.924311585679302"><ele>44.0</ele><time>2026-05-03T12:06:21Z</time></trkpt><trkpt lat="42.71585195094527" lon="13.924084066965456"><ele>44.0</ele><time>2026-05-03T12:06:22Z</time></trkpt><trkpt lat="42.71574092354931" lon="13.923846568992706"><ele>44.0</ele><time>2026-05-03T12:06:23Z</time></trkpt><trkpt lat="42.715626604213654" lon="13.923604999281723"><ele>44.0</ele><time>2026-05-03T12:06:24Z</time></trkpt><trkpt lat="42.71551281549032" lon="13.923365721935891"><ele>43.33333333333333</ele><time>2026-05-03T12:06:25Z</time></trkpt><trkpt lat="42.71540245641351" lon="13.923133695818475"><ele>42.666666666666664</ele><time>2026-05-03T12:06:26Z</time></trkpt><trkpt lat="42.715291240131336" lon="13.922898303661825"><ele>42.0</ele><time>2026-05-03T12:06:27Z</time></trkpt><trkpt lat="42.7151802733449" lon="13.922664075277167"><ele>43.0</ele><time>2026-05-03T12:06:28Z</time></trkpt><trkpt lat="42.71507147633826" lon="13.92243326288895"><ele>44.0</ele><time>2026-05-03T12:06:29Z</time></trkpt><trkpt lat="42.714960698415744" lon="13.922198122992869"><ele>45.0</ele><time>2026-05-03T12:06:30Z</time></trkpt><trkpt lat="42.71484773374716" lon="13.92195837297338"><ele>47.0</ele><time>2026-05-03T12:06:31Z</time></trkpt><trkpt lat="42.71473295637434" lon="13.921717756980994"><ele>49.0</ele><time>2026-05-03T12:06:32Z</time></trkpt><trkpt lat="42.71462812040276" lon="13.921483117540614"><ele>51.0</ele><time>2026-05-03T12:06:33Z</time></trkpt><trkpt lat="42.71452737716903" lon="13.921269757601525"><ele>51.0</ele><time>2026-05-03T12:06:34Z</time></trkpt><trkpt lat="42.71442794958161" lon="13.92105592449363"><ele>51.0</ele><time>2026-05-03T12:06:35Z</time></trkpt><trkpt lat="42.71431948706252" lon="13.920826990673168"><ele>51.0</ele><time>2026-05-03T12:06:36Z</time></trkpt><trkpt lat="42.714210814140564" lon="13.920597490795169"><ele>50.0</ele><time>2026-05-03T12:06:37Z</time></trkpt><trkpt lat="42.714113860396466" lon="13.920383756417799"><ele>49.0</ele><time>2026-05-03T12:06:38Z</time></trkpt><trkpt lat="42.71401621003342" lon="13.920181532073968"><ele>48.0</ele><time>2026-05-03T12:06:39Z</time></trkpt><trkpt lat="42.713928098689244" lon="13.919979265493577"><ele>48.0</ele><time>2026-05-03T12:06:40Z</time></trkpt><trkpt lat="42.713838808360656" lon="13.919786486224222"><ele>48.0</ele><time>2026-05-03T12:06:41Z</time></trkpt><trkpt lat="42.71375035053606" lon="13.919601033463273"><ele>48.0</ele><time>2026-05-03T12:06:42Z</time></trkpt><trkpt lat="42.71366498584974" lon="13.919426999601859"><ele>48.0</ele><time>2026-05-03T12:06:43Z</time></trkpt><trkpt lat="42.71358294473487" lon="13.919260218179174"><ele>48.0</ele><time>2026-05-03T12:06:43.999Z</time></trkpt><trkpt lat="42.713508853244306" lon="13.919103088053376"><ele>48.0</ele><time>2026-05-03T12:06:44.999Z</time></trkpt><trkpt lat="42.71343421252222" lon="13.91894846116456"><ele>48.0</ele><time>2026-05-03T12:06:45.999Z</time></trkpt><trkpt lat="42.71335498971438" lon="13.918781493827355"><ele>47.666666666666664</ele><time>2026-05-03T12:06:46.999Z</time></trkpt><trkpt lat="42.71327236055121" lon="13.918607934342884"><ele>47.33333333333333</ele><time>2026-05-03T12:06:47.999Z</time></trkpt><trkpt lat="42.71319008465009" lon="13.918425863540703"><ele>47.0</ele><time>2026-05-03T12:06:48.999Z</time></trkpt><trkpt lat="42.71310575217062" lon="13.918242321889624"><ele>48.33333333333333</ele><time>2026-05-03T12:06:49.999Z</time></trkpt><trkpt lat="42.71302131345703" lon="13.9180603017332"><ele>49.666666666666664</ele><time>2026-05-03T12:06:50.999Z</time></trkpt><trkpt lat="42.71293449739659" lon="13.917884191142338"><ele>51.0</ele><time>2026-05-03T12:06:51.999Z</time></trkpt><trkpt lat="42.71284705230444" lon="13.9177104976403"><ele>50.0</ele><time>2026-05-03T12:06:52.999Z</time></trkpt><trkpt lat="42.71276087674044" lon="13.917551267382033"><ele>49.0</ele><time>2026-05-03T12:06:53.999Z</time></trkpt><trkpt lat="42.712677828891884" lon="13.917405655783137"><ele>48.0</ele><time>2026-05-03T12:06:54.999Z</time></trkpt><trkpt lat="42.712598951283944" lon="13.917267867445167"><ele>47.0</ele><time>2026-05-03T12:06:55.999Z</time></trkpt><trkpt lat="42.71252877683705" lon="13.917132280947948"><ele>47.0</ele><time>2026-05-03T12:06:56.999Z</time></trkpt><trkpt lat="42.71246027329723" lon="13.916985036469162"><ele>47.0</ele><time>2026-05-03T12:06:57.999Z</time></trkpt><trkpt lat="42.712391579733094" lon="13.916826373823728"><ele>47.0</ele><time>2026-05-03T12:06:58.999Z</time></trkpt><trkpt lat="42.71232073351552" lon="13.916645750583484"><ele>47.0</ele><time>2026-05-03T12:06:59.999Z</time></trkpt><trkpt lat="42.712248463267365" lon="13.91644599227589"><ele>48.0</ele><time>2026-05-03T12:07:00.999Z</time></trkpt><trkpt lat="42.712175839808694" lon="13.916229008215433"><ele>49.0</ele><time>2026-05-03T12:07:01.999Z</time></trkpt><trkpt lat="42.71210326534056" lon="13.916004602613981"><ele>50.0</ele><time>2026-05-03T12:07:02.999Z</time></trkpt><trkpt lat="42.71203962334558" lon="13.915789296670733"><ele>50.0</ele><time>2026-05-03T12:07:03.999Z</time></trkpt><trkpt lat="42.71198371023892" lon="13.915574189236883"><ele>50.0</ele><time>2026-05-03T12:07:04.999Z</time></trkpt><trkpt lat="42.711937230556686" lon="13.91535553730276"><ele>50.0</ele><time>2026-05-03T12:07:05.999Z</time></trkpt><trkpt lat="42.71189596117453" lon="13.915133072701115"><ele>49.66666666666667</ele><time>2026-05-03T12:07:06.999Z</time></trkpt><trkpt lat="42.711849279119754" lon="13.914912095677858"><ele>49.33333333333333</ele><time>2026-05-03T12:07:07.999Z</time></trkpt><trkpt lat="42.711808918161395" lon="13.914690472101888"><ele>49.0</ele><time>2026-05-03T12:07:08.999Z</time></trkpt><trkpt lat="42.71176916062678" lon="13.914470219114516"><ele>49.0</ele><time>2026-05-03T12:07:09.999Z</time></trkpt><trkpt lat="42.7117295849823" lon="13.914255509083693"><ele>49.0</ele><time>2026-05-03T12:07:10.999Z</time></trkpt><trkpt lat="42.711683554352014" lon="13.91404241413162"><ele>49.0</ele><time>2026-05-03T12:07:11.999Z</time></trkpt><trkpt lat="42.711635400376544" lon="13.91382639086519"><ele>49.0</ele><time>2026-05-03T12:07:12.999Z</time></trkpt><trkpt lat="42.71159646868093" lon="13.913620935135958"><ele>49.0</ele><time>2026-05-03T12:07:13.999Z</time></trkpt><trkpt lat="42.71156583352506" lon="13.91343136688157"><ele>49.0</ele><time>2026-05-03T12:07:14.999Z</time></trkpt><trkpt lat="42.7115376534175" lon="13.913254849900506"><ele>49.0</ele><time>2026-05-03T12:07:15.999Z</time></trkpt><trkpt lat="42.711515886680274" lon="13.913089862941458"><ele>49.0</ele><time>2026-05-03T12:07:16.999Z</time></trkpt><trkpt lat="42.711502822221306" lon="13.912942909607231"><ele>49.0</ele><time>2026-05-03T12:07:17.999Z</time></trkpt><trkpt lat="42.711500048311564" lon="13.912801363691221"><ele>49.0</ele><time>2026-05-03T12:07:18.999Z</time></trkpt><trkpt lat="42.71151211178343" lon="13.912671467848742"><ele>49.0</ele><time>2026-05-03T12:07:19.999Z</time></trkpt><trkpt lat="42.711526800408826" lon="13.91254924602487"><ele>49.0</ele><time>2026-05-03T12:07:21Z</time></trkpt><trkpt lat="42.71151793665761" lon="13.912438482201448"><ele>49.2</ele><time>2026-05-03T12:07:22Z</time></trkpt><trkpt lat="42.711480315939966" lon="13.912342904337187"><ele>49.400000000000006</ele><time>2026-05-03T12:07:23Z</time></trkpt><trkpt lat="42.71142233103684" lon="13.91224954839655"><ele>49.6</ele><time>2026-05-03T12:07:24Z</time></trkpt><trkpt lat="42.71137070961727" lon="13.912141967619732"><ele>49.8</ele><time>2026-05-03T12:07:25Z</time></trkpt><trkpt lat="42.71133175452615" lon="13.912012989160626"><ele>50.0</ele><time>2026-05-03T12:07:26Z</time></trkpt><trkpt lat="42.71130462561868" lon="13.91187070672232"><ele>50.0</ele><time>2026-05-03T12:07:27Z</time></trkpt><trkpt lat="42.711280118861524" lon="13.911711865757685"><ele>50.0</ele><time>2026-05-03T12:07:28Z</time></trkpt><trkpt lat="42.711244999122414" lon="13.911534345335056"><ele>50.0</ele><time>2026-05-03T12:07:29Z</time></trkpt><trkpt lat="42.71120763538688" lon="13.911342338563392"><ele>50.0</ele><time>2026-05-03T12:07:30Z</time></trkpt><trkpt lat="42.711172977993456" lon="13.9111582043033"><ele>50.0</ele><time>2026-05-03T12:07:31Z</time></trkpt><trkpt lat="42.7111365697774" lon="13.91095770206213"><ele>50.0</ele><time>2026-05-03T12:07:32Z</time></trkpt><trkpt lat="42.711097356519524" lon="13.910747443005311"><ele>50.0</ele><time>2026-05-03T12:07:33Z</time></trkpt><trkpt lat="42.71105643201787" lon="13.910528251603344"><ele>50.66666666666667</ele><time>2026-05-03T12:07:34Z</time></trkpt><trkpt lat="42.71101412828241" lon="13.910301169268935"><ele>51.33333333333333</ele><time>2026-05-03T12:07:35Z</time></trkpt><trkpt lat="42.71097283344565" lon="13.910081375596596"><ele>52.0</ele><time>2026-05-03T12:07:36Z</time></trkpt><trkpt lat="42.71093261797695" lon="13.90986185826398"><ele>52.0</ele><time>2026-05-03T12:07:37Z</time></trkpt><trkpt lat="42.71089024221197" lon="13.90963464407789"><ele>52.0</ele><time>2026-05-03T12:07:38Z</time></trkpt><trkpt lat="42.710846658306934" lon="13.909398498747478"><ele>52.0</ele><time>2026-05-03T12:07:39Z</time></trkpt><trkpt lat="42.71079892608887" lon="13.909154427435578"><ele>52.33333333333333</ele><time>2026-05-03T12:07:40Z</time></trkpt><trkpt lat="42.71075158191766" lon="13.908921624674676"><ele>52.66666666666667</ele><time>2026-05-03T12:07:41Z</time></trkpt><trkpt lat="42.7107086420963" lon="13.908703717761634"><ele>53.0</ele><time>2026-05-03T12:07:42Z</time></trkpt><trkpt lat="42.71066581371811" lon="13.908483555717995"><ele>53.333333333333336</ele><time>2026-05-03T12:07:43Z</time></trkpt><trkpt lat="42.7106234896384" lon="13.908253883920732"><ele>53.66666666666667</ele><time>2026-05-03T12:07:44Z</time></trkpt><trkpt lat="42.71058033886629" lon="13.908021512789617"><ele>54.0</ele><time>2026-05-03T12:07:45Z</time></trkpt><trkpt lat="42.71053231469304" lon="13.907783490148923"><ele>54.66666666666667</ele><time>2026-05-03T12:07:46Z</time></trkpt><trkpt lat="42.710488312941195" lon="13.907540663492632"><ele>55.333333333333336</ele><time>2026-05-03T12:07:47Z</time></trkpt><trkpt lat="42.71044366702474" lon="13.9073147885791"><ele>56.0</ele><time>2026-05-03T12:07:48Z</time></trkpt><trkpt lat="42.71040410257426" lon="13.907100519308978"><ele>56.0</ele><time>2026-05-03T12:07:49Z</time></trkpt><trkpt lat="42.71036722905584" lon="13.906885046546693"><ele>56.0</ele><time>2026-05-03T12:07:50Z</time></trkpt><trkpt lat="42.71032454871036" lon="13.906662488137803"><ele>56.0</ele><time>2026-05-03T12:07:51Z</time></trkpt><trkpt lat="42.710280674410996" lon="13.906427860815144"><ele>55.66666666666667</ele><time>2026-05-03T12:07:52Z</time></trkpt><trkpt lat="42.7102370229933" lon="13.906204414898307"><ele>55.33333333333333</ele><time>2026-05-03T12:07:53Z</time></trkpt><trkpt lat="42.71020046292979" lon="13.906000799155404"><ele>55.0</ele><time>2026-05-03T12:07:54Z</time></trkpt><trkpt lat="42.71016690059087" lon="13.905806483775022"><ele>55.0</ele><time>2026-05-03T12:07:55Z</time></trkpt><trkpt lat="42.71012876489572" lon="13.905599691117017"><ele>55.0</ele><time>2026-05-03T12:07:56Z</time></trkpt><trkpt lat="42.710088865449556" lon="13.905363532023904"><ele>55.0</ele><time>2026-05-03T12:07:57Z</time></trkpt><trkpt lat="42.710041708548395" lon="13.905105304357175"><ele>54.5</ele><time>2026-05-03T12:07:58Z</time></trkpt><trkpt lat="42.70998765913567" lon="13.904819108203942"><ele>54.0</ele><time>2026-05-03T12:07:59Z</time></trkpt><trkpt lat="42.70992757585412" lon="13.904493052072992"><ele>54.5</ele><time>2026-05-03T12:08:00Z</time></trkpt><trkpt lat="42.70985982734201" lon="13.904126094927019"><ele>55.0</ele><time>2026-05-03T12:08:01Z</time></trkpt><trkpt lat="42.70979875904943" lon="13.90380596298375"><ele>55.0</ele><time>2026-05-03T12:08:02Z</time></trkpt><trkpt lat="42.70974411478173" lon="13.903520903365633"><ele>55.0</ele><time>2026-05-03T12:08:03Z</time></trkpt><trkpt lat="42.70969118526402" lon="13.903259612822474"><ele>55.0</ele><time>2026-05-03T12:08:04Z</time></trkpt><trkpt lat="42.70964197477751" lon="13.903013340844442"><ele>54.666666666666664</ele><time>2026-05-03T12:08:05Z</time></trkpt><trkpt lat="42.7095903599281" lon="13.90275295449311"><ele>54.33333333333333</ele><time>2026-05-03T12:08:06Z</time></trkpt><trkpt lat="42.70953494032236" lon="13.90247579064969"><ele>54.0</ele><time>2026-05-03T12:08:07Z</time></trkpt><trkpt lat="42.70948104230944" lon="13.902207936276556"><ele>54.33333333333333</ele><time>2026-05-03T12:08:08Z</time></trkpt><trkpt lat="42.70943120716879" lon="13.901947210373953"><ele>54.666666666666664</ele><time>2026-05-03T12:08:09Z</time></trkpt><trkpt lat="42.709383270572324" lon="13.901681440747238"><ele>55.0</ele><time>2026-05-03T12:08:10Z</time></trkpt><trkpt lat="42.70933656834541" lon="13.90141217700765"><ele>55.0</ele><time>2026-05-03T12:08:11Z</time></trkpt><trkpt lat="42.709291784511905" lon="13.901162752068434"><ele>55.0</ele><time>2026-05-03T12:08:12Z</time></trkpt><trkpt lat="42.70924869271816" lon="13.900928668470586"><ele>55.0</ele><time>2026-05-03T12:08:13Z</time></trkpt><trkpt lat="42.70920682806952" lon="13.900703742764168"><ele>56.0</ele><time>2026-05-03T12:08:14Z</time></trkpt><trkpt lat="42.709167932397975" lon="13.900466227150721"><ele>57.0</ele><time>2026-05-03T12:08:15Z</time></trkpt><trkpt lat="42.70912394880087" lon="13.900217282382137"><ele>58.0</ele><time>2026-05-03T12:08:16Z</time></trkpt><trkpt lat="42.70907843277136" lon="13.899957118895525"><ele>58.0</ele><time>2026-05-03T12:08:17Z</time></trkpt><trkpt lat="42.709029551151474" lon="13.89969191883914"><ele>58.0</ele><time>2026-05-03T12:08:18Z</time></trkpt><trkpt lat="42.70897870036872" lon="13.899411255820816"><ele>58.0</ele><time>2026-05-03T12:08:19Z</time></trkpt><trkpt lat="42.70892588305778" lon="13.899129520057095"><ele>58.0</ele><time>2026-05-03T12:08:20Z</time></trkpt><trkpt lat="42.70887491883482" lon="13.89886089120818"><ele>58.0</ele><time>2026-05-03T12:08:21Z</time></trkpt><trkpt lat="42.708835171571224" lon="13.898603228106337"><ele>58.0</ele><time>2026-05-03T12:08:22Z</time></trkpt><trkpt lat="42.708796267959265" lon="13.898344670389232"><ele>58.0</ele><time>2026-05-03T12:08:23Z</time></trkpt><trkpt lat="42.70875137296633" lon="13.898079649790986"><ele>58.0</ele><time>2026-05-03T12:08:24Z</time></trkpt><trkpt lat="42.70870592189529" lon="13.89781608462501"><ele>58.0</ele><time>2026-05-03T12:08:25Z</time></trkpt><trkpt lat="42.708661987092185" lon="13.897553843772062"><ele>58.0</ele><time>2026-05-03T12:08:26Z</time></trkpt><trkpt lat="42.70861616065936" lon="13.897284596115334"><ele>58.0</ele><time>2026-05-03T12:08:27Z</time></trkpt><trkpt lat="42.70856188068426" lon="13.89700734689573"><ele>58.0</ele><time>2026-05-03T12:08:28Z</time></trkpt><trkpt lat="42.70850685514679" lon="13.896735353392225"><ele>58.0</ele><time>2026-05-03T12:08:29Z</time></trkpt><trkpt lat="42.7084531102305" lon="13.896473690752071"><ele>58.0</ele><time>2026-05-03T12:08:30Z</time></trkpt><trkpt lat="42.70839579330386" lon="13.896214332789068"><ele>58.0</ele><time>2026-05-03T12:08:31Z</time></trkpt><trkpt lat="42.70834207852522" lon="13.895957598328463"><ele>57.666666666666664</ele><time>2026-05-03T12:08:32Z</time></trkpt><trkpt lat="42.70829360909568" lon="13.895716102013083"><ele>57.33333333333333</ele><time>2026-05-03T12:08:33Z</time></trkpt><trkpt lat="42.708248329865256" lon="13.895484085796696"><ele>57.0</ele><time>2026-05-03T12:08:34Z</time></trkpt><trkpt lat="42.70820693366951" lon="13.89526440866268"><ele>57.33333333333333</ele><time>2026-05-03T12:08:35Z</time></trkpt><trkpt lat="42.70816625904328" lon="13.8950498933921"><ele>57.666666666666664</ele><time>2026-05-03T12:08:36Z</time></trkpt><trkpt lat="42.70812914071021" lon="13.894830566508341"><ele>58.0</ele><time>2026-05-03T12:08:37Z</time></trkpt><trkpt lat="42.708089618408" lon="13.894607728966845"><ele>58.0</ele><time>2026-05-03T12:08:38Z</time></trkpt><trkpt lat="42.70804461125921" lon="13.894380843339334"><ele>58.0</ele><time>2026-05-03T12:08:39Z</time></trkpt><trkpt lat="42.708001910071545" lon="13.894149223339419"><ele>58.0</ele><time>2026-05-03T12:08:40Z</time></trkpt><trkpt lat="42.70795776851697" lon="13.89391832939213"><ele>58.33333333333333</ele><time>2026-05-03T12:08:41Z</time></trkpt><trkpt lat="42.707915395296766" lon="13.893700438616742"><ele>58.66666666666667</ele><time>2026-05-03T12:08:42Z</time></trkpt><trkpt lat="42.7078766448862" lon="13.89349709764989"><ele>59.0</ele><time>2026-05-03T12:08:43Z</time></trkpt><trkpt lat="42.70784464476744" lon="13.893306881964497"><ele>59.0</ele><time>2026-05-03T12:08:44Z</time></trkpt><trkpt lat="42.707813119340024" lon="13.893127089885656"><ele>59.0</ele><time>2026-05-03T12:08:44.999Z</time></trkpt><trkpt lat="42.707780640137095" lon="13.8929444539827"><ele>59.0</ele><time>2026-05-03T12:08:45.999Z</time></trkpt><trkpt lat="42.70774174193837" lon="13.892734495174604"><ele>59.0</ele><time>2026-05-03T12:08:46.999Z</time></trkpt><trkpt lat="42.70769488000743" lon="13.892499177001005"><ele>59.66666666666667</ele><time>2026-05-03T12:08:47.999Z</time></trkpt><trkpt lat="42.707642117717086" lon="13.892232484103824"><ele>60.33333333333333</ele><time>2026-05-03T12:08:48.999Z</time></trkpt><trkpt lat="42.70758800140094" lon="13.89194346364185"><ele>61.0</ele><time>2026-05-03T12:08:49.999Z</time></trkpt><trkpt lat="42.70754418849127" lon="13.891692152553023"><ele>61.0</ele><time>2026-05-03T12:08:50.999Z</time></trkpt><trkpt lat="42.70750054315906" lon="13.891455596156538"><ele>61.0</ele><time>2026-05-03T12:08:51.999Z</time></trkpt><trkpt lat="42.70745956624236" lon="13.89122603043015"><ele>61.0</ele><time>2026-05-03T12:08:52.999Z</time></trkpt><trkpt lat="42.70741563400233" lon="13.89099532126414"><ele>61.33333333333333</ele><time>2026-05-03T12:08:53.999Z</time></trkpt><trkpt lat="42.70736903582545" lon="13.890746130174014"><ele>61.66666666666667</ele><time>2026-05-03T12:08:54.999Z</time></trkpt><trkpt lat="42.70732045166884" lon="13.890497042457032"><ele>62.0</ele><time>2026-05-03T12:08:55.999Z</time></trkpt><trkpt lat="42.70728000703143" lon="13.890269222807744"><ele>62.333333333333336</ele><time>2026-05-03T12:08:56.999Z</time></trkpt><trkpt lat="42.707242158478536" lon="13.890055045321471"><ele>62.66666666666667</ele><time>2026-05-03T12:08:57.999Z</time></trkpt><trkpt lat="42.70720491548911" lon="13.889854501066052"><ele>63.0</ele><time>2026-05-03T12:08:58.999Z</time></trkpt><trkpt lat="42.70717085045155" lon="13.889666098600355"><ele>63.0</ele><time>2026-05-03T12:08:59.999Z</time></trkpt><trkpt lat="42.707131514328175" lon="13.889475901924476"><ele>63.0</ele><time>2026-05-03T12:09:00.999Z</time></trkpt><trkpt lat="42.70709604803062" lon="13.889272166792308"><ele>63.0</ele><time>2026-05-03T12:09:01.999Z</time></trkpt><trkpt lat="42.707057768054796" lon="13.889060683020608"><ele>63.33333333333333</ele><time>2026-05-03T12:09:02.999Z</time></trkpt><trkpt lat="42.707023293983184" lon="13.888837700502517"><ele>63.666666666666664</ele><time>2026-05-03T12:09:03.999Z</time></trkpt><trkpt lat="42.70699800987218" lon="13.888614901733431"><ele>64.0</ele><time>2026-05-03T12:09:04.999Z</time></trkpt><trkpt lat="42.70699150696845" lon="13.888397909810896"><ele>64.0</ele><time>2026-05-03T12:09:05.999Z</time></trkpt><trkpt lat="42.70698165626543" lon="13.888182913731312"><ele>64.0</ele><time>2026-05-03T12:09:06.999Z</time></trkpt><trkpt lat="42.706976047825705" lon="13.887968472958503"><ele>64.0</ele><time>2026-05-03T12:09:07.999Z</time></trkpt><trkpt lat="42.70697284803247" lon="13.887754316316139"><ele>64.33333333333333</ele><time>2026-05-03T12:09:08.999Z</time></trkpt><trkpt lat="42.70696930460543" lon="13.887540433589962"><ele>64.66666666666667</ele><time>2026-05-03T12:09:09.999Z</time></trkpt><trkpt lat="42.70696701887255" lon="13.88732582616984"><ele>65.0</ele><time>2026-05-03T12:09:10.999Z</time></trkpt><trkpt lat="42.706964400690424" lon="13.887107285670865"><ele>65.0</ele><time>2026-05-03T12:09:11.999Z</time></trkpt><trkpt lat="42.70696244145403" lon="13.88688760839251"><ele>65.0</ele><time>2026-05-03T12:09:12.999Z</time></trkpt><trkpt lat="42.70695830562128" lon="13.886661680243941"><ele>65.0</ele><time>2026-05-03T12:09:13.999Z</time></trkpt><trkpt lat="42.706954234883796" lon="13.886433501442063"><ele>65.33333333333334</ele><time>2026-05-03T12:09:14.999Z</time></trkpt><trkpt lat="42.706950309417834" lon="13.886201427595655"><ele>65.66666666666667</ele><time>2026-05-03T12:09:15.999Z</time></trkpt><trkpt lat="42.70694673549276" lon="13.885965915264965"><ele>66.0</ele><time>2026-05-03T12:09:16.999Z</time></trkpt><trkpt lat="42.706940139478924" lon="13.885725691925506"><ele>66.0</ele><time>2026-05-03T12:09:17.999Z</time></trkpt><trkpt lat="42.70693332067326" lon="13.885483812708271"><ele>66.0</ele><time>2026-05-03T12:09:18.999Z</time></trkpt><trkpt lat="42.70694576388233" lon="13.885206127003057"><ele>66.0</ele><time>2026-05-03T12:09:19.999Z</time></trkpt><trkpt lat="42.70694120331725" lon="13.884898733368528"><ele>66.66666666666667</ele><time>2026-05-03T12:09:20.999Z</time></trkpt><trkpt lat="42.70693661214968" lon="13.884589277048084"><ele>67.33333333333334</ele><time>2026-05-03T12:09:21.999Z</time></trkpt><trkpt lat="42.70693201759941" lon="13.88431082301275"><ele>68.0</ele><time>2026-05-03T12:09:22.999Z</time></trkpt><trkpt lat="42.70691275788665" lon="13.884049624253525"><ele>68.33333333333334</ele><time>2026-05-03T12:09:23.999Z</time></trkpt><trkpt lat="42.70691382311777" lon="13.883799419288016"><ele>68.66666666666667</ele><time>2026-05-03T12:09:24.999Z</time></trkpt><trkpt lat="42.70691366192828" lon="13.883564368292118"><ele>69.0</ele><time>2026-05-03T12:09:25.999Z</time></trkpt><trkpt lat="42.70690953260657" lon="13.883342767856014"><ele>69.33333333333333</ele><time>2026-05-03T12:09:27Z</time></trkpt><trkpt lat="42.706905702576115" lon="13.883134690441794"><ele>69.66666666666666</ele><time>2026-05-03T12:09:28Z</time></trkpt><trkpt lat="42.7069038147242" lon="13.882928168533827"><ele>70.0</ele><time>2026-05-03T12:09:29Z</time></trkpt><trkpt lat="42.70690188962235" lon="13.88271500477918"><ele>70.33333333333333</ele><time>2026-05-03T12:09:30Z</time></trkpt><trkpt lat="42.70689963254523" lon="13.882496009648687"><ele>70.66666666666667</ele><time>2026-05-03T12:09:31Z</time></trkpt><trkpt lat="42.7068980657595" lon="13.882273853700976"><ele>71.0</ele><time>2026-05-03T12:09:32Z</time></trkpt><trkpt lat="42.70689654386693" lon="13.882049638076454"><ele>71.0</ele><time>2026-05-03T12:09:33Z</time></trkpt><trkpt lat="42.70689188803643" lon="13.881824533140316"><ele>71.0</ele><time>2026-05-03T12:09:34Z</time></trkpt><trkpt lat="42.70688640963637" lon="13.881601372132065"><ele>71.0</ele><time>2026-05-03T12:09:35Z</time></trkpt><trkpt lat="42.706882623483224" lon="13.881382716928616"><ele>71.33333333333334</ele><time>2026-05-03T12:09:36Z</time></trkpt><trkpt lat="42.706878998310074" lon="13.881164605215135"><ele>71.66666666666667</ele><time>2026-05-03T12:09:37Z</time></trkpt><trkpt lat="42.706874964482886" lon="13.880946031075412"><ele>72.0</ele><time>2026-05-03T12:09:38Z</time></trkpt><trkpt lat="42.70687046892748" lon="13.880726538203543"><ele>72.66666666666667</ele><time>2026-05-03T12:09:39Z</time></trkpt><trkpt lat="42.70686750363135" lon="13.88050583514028"><ele>73.33333333333334</ele><time>2026-05-03T12:09:40Z</time></trkpt><trkpt lat="42.706864526631115" lon="13.880288322298966"><ele>74.0</ele><time>2026-05-03T12:09:41Z</time></trkpt><trkpt lat="42.70686187034834" lon="13.880073741356693"><ele>74.66666666666667</ele><time>2026-05-03T12:09:42Z</time></trkpt><trkpt lat="42.70685779771768" lon="13.879859388875927"><ele>75.33333333333333</ele><time>2026-05-03T12:09:43Z</time></trkpt><trkpt lat="42.706854709639806" lon="13.879645793434161"><ele>76.0</ele><time>2026-05-03T12:09:44Z</time></trkpt><trkpt lat="42.706850622959685" lon="13.879431851994918"><ele>76.0</ele><time>2026-05-03T12:09:45Z</time></trkpt><trkpt lat="42.706847509744584" lon="13.879218275638674"><ele>76.0</ele><time>2026-05-03T12:09:46Z</time></trkpt><trkpt lat="42.706844136762854" lon="13.879004267958951"><ele>76.0</ele><time>2026-05-03T12:09:47Z</time></trkpt><trkpt lat="42.706841201727855" lon="13.878789929966102"><ele>76.0</ele><time>2026-05-03T12:09:48Z</time></trkpt><trkpt lat="42.70683877542664" lon="13.878574642907594"><ele>76.0</ele><time>2026-05-03T12:09:49Z</time></trkpt><trkpt lat="42.706835072335764" lon="13.878359241820137"><ele>76.0</ele><time>2026-05-03T12:09:50Z</time></trkpt><trkpt lat="42.706831884219774" lon="13.878143739137943"><ele>76.66666666666666</ele><time>2026-05-03T12:09:51Z</time></trkpt><trkpt lat="42.70682874119449" lon="13.877926260693892"><ele>77.33333333333333</ele><time>2026-05-03T12:09:52Z</time></trkpt><trkpt lat="42.70682533105889" lon="13.877709066160701"><ele>78.0</ele><time>2026-05-03T12:09:53Z</time></trkpt><trkpt lat="42.706824152404494" lon="13.877489272537993"><ele>78.0</ele><time>2026-05-03T12:09:54Z</time></trkpt><trkpt lat="42.70682074582217" lon="13.877268109878072"><ele>78.0</ele><time>2026-05-03T12:09:55Z</time></trkpt><trkpt lat="42.7068159884598" lon="13.877043834517583"><ele>78.0</ele><time>2026-05-03T12:09:56Z</time></trkpt><trkpt lat="42.706812676970614" lon="13.876817607255719"><ele>78.33333333333333</ele><time>2026-05-03T12:09:57Z</time></trkpt><trkpt lat="42.70680939749301" lon="13.876599167616583"><ele>78.66666666666666</ele><time>2026-05-03T12:09:58Z</time></trkpt><trkpt lat="42.706804640581346" lon="13.876385741584523"><ele>79.0</ele><time>2026-05-03T12:09:59Z</time></trkpt><trkpt lat="42.70680066837179" lon="13.87617110754674"><ele>79.0</ele><time>2026-05-03T12:10:00Z</time></trkpt><trkpt lat="42.70679701865245" lon="13.875955586402235"><ele>79.0</ele><time>2026-05-03T12:10:01Z</time></trkpt><trkpt lat="42.70679480252861" lon="13.875747066546802"><ele>79.0</ele><time>2026-05-03T12:10:02Z</time></trkpt><trkpt lat="42.70679202639818" lon="13.875542224393989"><ele>79.0</ele><time>2026-05-03T12:10:03Z</time></trkpt><trkpt lat="42.706786161293124" lon="13.875332956176859"><ele>79.0</ele><time>2026-05-03T12:10:04Z</time></trkpt><trkpt lat="42.70678247731582" lon="13.875119363608077"><ele>79.0</ele><time>2026-05-03T12:10:05Z</time></trkpt><trkpt lat="42.70677974693184" lon="13.87490351541557"><ele>79.33333333333333</ele><time>2026-05-03T12:10:06Z</time></trkpt><trkpt lat="42.706778291957505" lon="13.874683003861131"><ele>79.66666666666667</ele><time>2026-05-03T12:10:07Z</time></trkpt><trkpt lat="42.70677761879788" lon="13.874462448375745"><ele>80.0</ele><time>2026-05-03T12:10:08Z</time></trkpt><trkpt lat="42.70677562502036" lon="13.87424210472377"><ele>80.0</ele><time>2026-05-03T12:10:09Z</time></trkpt><trkpt lat="42.706771492771615" lon="13.874031193621512"><ele>80.0</ele><time>2026-05-03T12:10:10Z</time></trkpt><trkpt lat="42.706766371953556" lon="13.873835734581977"><ele>80.0</ele><time>2026-05-03T12:10:11Z</time></trkpt><trkpt lat="42.70676197121968" lon="13.873631272182344"><ele>80.0</ele><time>2026-05-03T12:10:12Z</time></trkpt><trkpt lat="42.70675654456799" lon="13.873406154680042"><ele>80.66666666666667</ele><time>2026-05-03T12:10:13Z</time></trkpt><trkpt lat="42.70675016786885" lon="13.873173955969822"><ele>81.33333333333333</ele><time>2026-05-03T12:10:14Z</time></trkpt><trkpt lat="42.7067443302648" lon="13.872936953375847"><ele>82.0</ele><time>2026-05-03T12:10:15Z</time></trkpt><trkpt lat="42.706732880050644" lon="13.87267405611416"><ele>83.5</ele><time>2026-05-03T12:10:16Z</time></trkpt><trkpt lat="42.706741279033025" lon="13.87235094608868"><ele>85.0</ele><time>2026-05-03T12:10:17Z</time></trkpt><trkpt lat="42.70671906202319" lon="13.871976787001739"><ele>85.0</ele><time>2026-05-03T12:10:18Z</time></trkpt><trkpt lat="42.70671815546462" lon="13.871567429062312"><ele>85.0</ele><time>2026-05-03T12:10:19Z</time></trkpt><trkpt lat="42.70672239385569" lon="13.871136147408528"><ele>84.5</ele><time>2026-05-03T12:10:20Z</time></trkpt><trkpt lat="42.70671789324918" lon="13.870671509710307"><ele>84.0</ele><time>2026-05-03T12:10:21Z</time></trkpt><trkpt lat="42.70671280899739" lon="13.87024537528629"><ele>84.0</ele><time>2026-05-03T12:10:22Z</time></trkpt><trkpt lat="42.706708751182695" lon="13.869856151609197"><ele>84.0</ele><time>2026-05-03T12:10:23Z</time></trkpt><trkpt lat="42.70670411922232" lon="13.869492731862222"><ele>84.5</ele><time>2026-05-03T12:10:24Z</time></trkpt><trkpt lat="42.706700188111405" lon="13.869160945084554"><ele>85.0</ele><time>2026-05-03T12:10:25Z</time></trkpt><trkpt lat="42.70669457414091" lon="13.868833573867885"><ele>85.0</ele><time>2026-05-03T12:10:26Z</time></trkpt><trkpt lat="42.70668981669514" lon="13.868484332585506"><ele>85.0</ele><time>2026-05-03T12:10:27Z</time></trkpt><trkpt lat="42.70668130239602" lon="13.868106923028156"><ele>86.5</ele><time>2026-05-03T12:10:28Z</time></trkpt><trkpt lat="42.70667282195743" lon="13.867726673052433"><ele>88.0</ele><time>2026-05-03T12:10:29Z</time></trkpt><trkpt lat="42.70666567481259" lon="13.867341097977128"><ele>88.0</ele><time>2026-05-03T12:10:30Z</time></trkpt><trkpt lat="42.70666225026181" lon="13.866932712295842"><ele>88.0</ele><time>2026-05-03T12:10:31Z</time></trkpt><trkpt lat="42.70665767427964" lon="13.866493146208805"><ele>88.0</ele><time>2026-05-03T12:10:32Z</time></trkpt><trkpt lat="42.706650611676345" lon="13.866015149472624"><ele>88.0</ele><time>2026-05-03T12:10:33Z</time></trkpt><trkpt lat="42.7066401809461" lon="13.865523689620249"><ele>90.0</ele><time>2026-05-03T12:10:34Z</time></trkpt><trkpt lat="42.70663143508311" lon="13.865016017867585"><ele>92.0</ele><time>2026-05-03T12:10:35Z</time></trkpt><trkpt lat="42.70662575990774" lon="13.864484232996288"><ele>92.0</ele><time>2026-05-03T12:10:36Z</time></trkpt><trkpt lat="42.70661397616204" lon="13.863958846572514"><ele>92.0</ele><time>2026-05-03T12:10:37Z</time></trkpt><trkpt lat="42.7066058583962" lon="13.863493024885658"><ele>91.0</ele><time>2026-05-03T12:10:38Z</time></trkpt><trkpt lat="42.706598550136405" lon="13.86306329681319"><ele>90.0</ele><time>2026-05-03T12:10:39Z</time></trkpt><trkpt lat="42.706592497737525" lon="13.862668333629195"><ele>89.5</ele><time>2026-05-03T12:10:40Z</time></trkpt><trkpt lat="42.70658454963572" lon="13.862289828083574"><ele>89.0</ele><time>2026-05-03T12:10:41Z</time></trkpt><trkpt lat="42.706581699603746" lon="13.861914775543873"><ele>89.0</ele><time>2026-05-03T12:10:42Z</time></trkpt><trkpt lat="42.7065811074855" lon="13.861533299165146"><ele>89.0</ele><time>2026-05-03T12:10:43Z</time></trkpt><trkpt lat="42.70657636031223" lon="13.861142036947088"><ele>90.0</ele><time>2026-05-03T12:10:44Z</time></trkpt><trkpt lat="42.70657148875977" lon="13.860721338859257"><ele>91.0</ele><time>2026-05-03T12:10:45Z</time></trkpt><trkpt lat="42.70656515938021" lon="13.860274808197657"><ele>92.5</ele><time>2026-05-03T12:10:46Z</time></trkpt><trkpt lat="42.70655809808479" lon="13.85980988184641"><ele>94.0</ele><time>2026-05-03T12:10:47Z</time></trkpt><trkpt lat="42.70655083157142" lon="13.859366033711765"><ele>94.0</ele><time>2026-05-03T12:10:48Z</time></trkpt><trkpt lat="42.70654745778212" lon="13.858961060788445"><ele>94.0</ele><time>2026-05-03T12:10:49Z</time></trkpt><trkpt lat="42.70654259520692" lon="13.858574243661634"><ele>94.0</ele><time>2026-05-03T12:10:50Z</time></trkpt><trkpt lat="42.706537168285735" lon="13.858178683730817"><ele>94.0</ele><time>2026-05-03T12:10:51Z</time></trkpt><trkpt lat="42.70653117319678" lon="13.857784770870191"><ele>94.0</ele><time>2026-05-03T12:10:52Z</time></trkpt><trkpt lat="42.70652643211516" lon="13.857401593789337"><ele>94.0</ele><time>2026-05-03T12:10:52.999Z</time></trkpt><trkpt lat="42.70652116963806" lon="13.857032733514208"><ele>94.0</ele><time>2026-05-03T12:10:53.999Z</time></trkpt><trkpt lat="42.70651391273929" lon="13.856640373385265"><ele>94.0</ele><time>2026-05-03T12:10:54.999Z</time></trkpt><trkpt lat="42.706506525268026" lon="13.85621086167792"><ele>94.5</ele><time>2026-05-03T12:10:55.999Z</time></trkpt><trkpt lat="42.70649964848692" lon="13.855756779669488"><ele>95.0</ele><time>2026-05-03T12:10:56.999Z</time></trkpt><trkpt lat="42.706492232710715" lon="13.855291955427704"><ele>95.5</ele><time>2026-05-03T12:10:57.999Z</time></trkpt><trkpt lat="42.70648862929481" lon="13.854862525319463"><ele>96.0</ele><time>2026-05-03T12:10:58.999Z</time></trkpt><trkpt lat="42.70648454422201" lon="13.854471526347732"><ele>96.5</ele><time>2026-05-03T12:10:59.999Z</time></trkpt><trkpt lat="42.706481033335024" lon="13.854096968328667"><ele>97.0</ele><time>2026-05-03T12:11:00.999Z</time></trkpt><trkpt lat="42.706475410340005" lon="13.853698398872222"><ele>96.5</ele><time>2026-05-03T12:11:01.999Z</time></trkpt><trkpt lat="42.70646795169935" lon="13.853274902551485"><ele>96.0</ele><time>2026-05-03T12:11:02.999Z</time></trkpt><trkpt lat="42.70646054570003" lon="13.852848758159054"><ele>95.0</ele><time>2026-05-03T12:11:03.999Z</time></trkpt><trkpt lat="42.70645484917498" lon="13.85242498198431"><ele>94.0</ele><time>2026-05-03T12:11:04.999Z</time></trkpt><trkpt lat="42.706459711540404" lon="13.852036356499791"><ele>94.5</ele><time>2026-05-03T12:11:05.999Z</time></trkpt><trkpt lat="42.70646654410741" lon="13.85167824818357"><ele>95.0</ele><time>2026-05-03T12:11:06.999Z</time></trkpt><trkpt lat="42.706461268874854" lon="13.851340378542865"><ele>95.0</ele><time>2026-05-03T12:11:07.999Z</time></trkpt><trkpt lat="42.706452173080166" lon="13.85101695620791"><ele>95.0</ele><time>2026-05-03T12:11:08.999Z</time></trkpt><trkpt lat="42.70644580540896" lon="13.850669150976232"><ele>95.0</ele><time>2026-05-03T12:11:09.999Z</time></trkpt><trkpt lat="42.70643686638439" lon="13.85030265731418"><ele>95.0</ele><time>2026-05-03T12:11:10.999Z</time></trkpt><trkpt lat="42.70642216343106" lon="13.849902187717662"><ele>95.0</ele><time>2026-05-03T12:11:11.999Z</time></trkpt><trkpt lat="42.70640296513554" lon="13.84947438174214"><ele>95.0</ele><time>2026-05-03T12:11:12.999Z</time></trkpt><trkpt lat="42.706395063966966" lon="13.849023062588286"><ele>95.5</ele><time>2026-05-03T12:11:13.999Z</time></trkpt><trkpt lat="42.70639383871981" lon="13.848580710389884"><ele>96.0</ele><time>2026-05-03T12:11:14.999Z</time></trkpt><trkpt lat="42.706398680436685" lon="13.848183019015977"><ele>96.0</ele><time>2026-05-03T12:11:15.999Z</time></trkpt><trkpt lat="42.706402267524304" lon="13.84781441069131"><ele>96.0</ele><time>2026-05-03T12:11:16.999Z</time></trkpt><trkpt lat="42.70640610160807" lon="13.847444164498983"><ele>96.0</ele><time>2026-05-03T12:11:17.999Z</time></trkpt><trkpt lat="42.70641133760027" lon="13.84706939948309"><ele>96.0</ele><time>2026-05-03T12:11:18.999Z</time></trkpt><trkpt lat="42.7064178396936" lon="13.846724183665756"><ele>97.5</ele><time>2026-05-03T12:11:19.999Z</time></trkpt><trkpt lat="42.706423464402434" lon="13.846403182733837"><ele>99.0</ele><time>2026-05-03T12:11:20.999Z</time></trkpt><trkpt lat="42.70642885323388" lon="13.846106969785062"><ele>99.0</ele><time>2026-05-03T12:11:21.999Z</time></trkpt><trkpt lat="42.70643288464564" lon="13.845826284068746"><ele>99.0</ele><time>2026-05-03T12:11:22.999Z</time></trkpt><trkpt lat="42.70643643447292" lon="13.845561669873918"><ele>99.0</ele><time>2026-05-03T12:11:23.999Z</time></trkpt><trkpt lat="42.70644041947534" lon="13.845308478072688"><ele>99.66666666666666</ele><time>2026-05-03T12:11:24.999Z</time></trkpt><trkpt lat="42.70644368661959" lon="13.84504739865681"><ele>100.33333333333333</ele><time>2026-05-03T12:11:25.999Z</time></trkpt><trkpt lat="42.706446606468866" lon="13.844779932981105"><ele>101.0</ele><time>2026-05-03T12:11:26.999Z</time></trkpt><trkpt lat="42.70645108049294" lon="13.844513432569974"><ele>101.0</ele><time>2026-05-03T12:11:27.999Z</time></trkpt><trkpt lat="42.70645387112329" lon="13.844267087678318"><ele>101.0</ele><time>2026-05-03T12:11:28.999Z</time></trkpt><trkpt lat="42.70646048452997" lon="13.844034402643747"><ele>101.0</ele><time>2026-05-03T12:11:29.999Z</time></trkpt><trkpt lat="42.70646062677961" lon="13.84382976527744"><ele>101.0</ele><time>2026-05-03T12:11:30.999Z</time></trkpt><trkpt lat="42.70646099234322" lon="13.8436530835295"><ele>101.0</ele><time>2026-05-03T12:11:32Z</time></trkpt><trkpt lat="42.70646135087414" lon="13.843494809084543"><ele>101.0</ele><time>2026-05-03T12:11:33Z</time></trkpt><trkpt lat="42.70646707893213" lon="13.843354008437371"><ele>101.0</ele><time>2026-05-03T12:11:34Z</time></trkpt><trkpt lat="42.7064767521445" lon="13.8432360350391"><ele>101.0</ele><time>2026-05-03T12:11:35Z</time></trkpt><trkpt lat="42.70648212663129" lon="13.843117826199556"><ele>101.75</ele><time>2026-05-03T12:11:36Z</time></trkpt><trkpt lat="42.70647285054282" lon="13.842980362294933"><ele>102.5</ele><time>2026-05-03T12:11:37Z</time></trkpt><trkpt lat="42.70646816958052" lon="13.842819527465444"><ele>103.25</ele><time>2026-05-03T12:11:38Z</time></trkpt><trkpt lat="42.70647528856122" lon="13.842607800114989"><ele>104.0</ele><time>2026-05-03T12:11:39Z</time></trkpt><trkpt lat="42.70648191447342" lon="13.842375137849062"><ele>105.0</ele><time>2026-05-03T12:11:40Z</time></trkpt><trkpt lat="42.70648741607407" lon="13.842147021093588"><ele>106.0</ele><time>2026-05-03T12:11:41Z</time></trkpt><trkpt lat="42.70649212207171" lon="13.841881345374073"><ele>107.0</ele><time>2026-05-03T12:11:42Z</time></trkpt><trkpt lat="42.70649545954147" lon="13.841597155683939"><ele>108.0</ele><time>2026-05-03T12:11:43Z</time></trkpt><trkpt lat="42.706498047992845" lon="13.84130089649076"><ele>109.0</ele><time>2026-05-03T12:11:44Z</time></trkpt><trkpt lat="42.70650169707181" lon="13.841002931615723"><ele>110.0</ele><time>2026-05-03T12:11:45Z</time></trkpt><trkpt lat="42.7065059223934" lon="13.840701732111173"><ele>111.0</ele><time>2026-05-03T12:11:46Z</time></trkpt><trkpt lat="42.706509594234916" lon="13.84039867759523"><ele>112.0</ele><time>2026-05-03T12:11:47Z</time></trkpt><trkpt lat="42.70651399967763" lon="13.840090068933902"><ele>113.5</ele><time>2026-05-03T12:11:48Z</time></trkpt><trkpt lat="42.7065193327517" lon="13.839766672814815"><ele>115.0</ele><time>2026-05-03T12:11:49Z</time></trkpt><trkpt lat="42.70653005126367" lon="13.839402572161386"><ele>115.0</ele><time>2026-05-03T12:11:50Z</time></trkpt><trkpt lat="42.70653791657885" lon="13.839054014022011"><ele>115.0</ele><time>2026-05-03T12:11:51Z</time></trkpt><trkpt lat="42.706547345547634" lon="13.83875030036574"><ele>115.0</ele><time>2026-05-03T12:11:52Z</time></trkpt><trkpt lat="42.70655804445561" lon="13.838470635629067"><ele>115.0</ele><time>2026-05-03T12:11:53Z</time></trkpt><trkpt lat="42.706564680451045" lon="13.83821062810111"><ele>115.0</ele><time>2026-05-03T12:11:54Z</time></trkpt><trkpt lat="42.706570888526315" lon="13.837966313254025"><ele>115.0</ele><time>2026-05-03T12:11:55Z</time></trkpt><trkpt lat="42.70657426445576" lon="13.837742006746348"><ele>115.0</ele><time>2026-05-03T12:11:56Z</time></trkpt><trkpt lat="42.70658108221311" lon="13.837540523965252"><ele>115.0</ele><time>2026-05-03T12:11:57Z</time></trkpt><trkpt lat="42.70658606347757" lon="13.837368017200868"><ele>115.0</ele><time>2026-05-03T12:11:58Z</time></trkpt><trkpt lat="42.70659169353753" lon="13.837215468043519"><ele>114.66666666666667</ele><time>2026-05-03T12:11:59Z</time></trkpt><trkpt lat="42.706596097301315" lon="13.837068823620996"><ele>114.33333333333334</ele><time>2026-05-03T12:12:00Z</time></trkpt><trkpt lat="42.70660109502658" lon="13.836941592532833"><ele>114.0</ele><time>2026-05-03T12:12:01Z</time></trkpt><trkpt lat="42.70660556753714" lon="13.836827269752549"><ele>113.66666666666666</ele><time>2026-05-03T12:12:02Z</time></trkpt><trkpt lat="42.70661050254707" lon="13.836719311524652"><ele>113.33333333333333</ele><time>2026-05-03T12:12:03Z</time></trkpt><trkpt lat="42.70661349230193" lon="13.836620385974328"><ele>113.0</ele><time>2026-05-03T12:12:04Z</time></trkpt><trkpt lat="42.7066143544145" lon="13.836529794562342"><ele>113.0</ele><time>2026-05-03T12:12:05Z</time></trkpt><trkpt lat="42.70662057061405" lon="13.836367321230128"><ele>113.0</ele><time>2026-05-03T12:12:07Z</time></trkpt><trkpt lat="42.706633752908026" lon="13.836218470214993"><ele>113.0</ele><time>2026-05-03T12:12:09Z</time></trkpt><trkpt lat="42.70666712033552" lon="13.836057181731375"><ele>113.0</ele><time>2026-05-03T12:12:11Z</time></trkpt><trkpt lat="42.70666293555526" lon="13.835925358381848"><ele>113.0</ele><time>2026-05-03T12:12:13Z</time></trkpt><trkpt lat="42.70655678077357" lon="13.83586941466803"><ele>113.00000000000001</ele><time>2026-05-03T12:12:15Z</time></trkpt><trkpt lat="42.706471931190805" lon="13.83584806612737"><ele>113.00000000000001</ele><time>2026-05-03T12:12:16Z</time></trkpt><trkpt lat="42.706362715175025" lon="13.835919230141418"><ele>113.0</ele><time>2026-05-03T12:12:17Z</time></trkpt><trkpt lat="42.70626142478552" lon="13.83591948037987"><ele>113.0</ele><time>2026-05-03T12:12:18Z</time></trkpt><trkpt lat="42.70613585152159" lon="13.83589908261143"><ele>111.0</ele><time>2026-05-03T12:12:19Z</time></trkpt><trkpt lat="42.70600057090747" lon="13.835879397492105"><ele>109.0</ele><time>2026-05-03T12:12:20Z</time></trkpt><trkpt lat="42.705851623543964" lon="13.835857497436118"><ele>107.0</ele><time>2026-05-03T12:12:21Z</time></trkpt><trkpt lat="42.70569948929973" lon="13.83583887315798"><ele>105.0</ele><time>2026-05-03T12:12:22Z</time></trkpt><trkpt lat="42.70554783353261" lon="13.835817421222094"><ele>105.0</ele><time>2026-05-03T12:12:23Z</time></trkpt><trkpt lat="42.70536706128501" lon="13.835788419735144"><ele>105.0</ele><time>2026-05-03T12:12:24Z</time></trkpt><trkpt lat="42.70516173190086" lon="13.835748131172982"><ele>105.0</ele><time>2026-05-03T12:12:25Z</time></trkpt><trkpt lat="42.70494088270501" lon="13.835696928109867"><ele>103.5</ele><time>2026-05-03T12:12:26Z</time></trkpt><trkpt lat="42.70470691776852" lon="13.835630472889315"><ele>102.0</ele><time>2026-05-03T12:12:27Z</time></trkpt><trkpt lat="42.70443221152757" lon="13.83554656116094"><ele>101.5</ele><time>2026-05-03T12:12:28Z</time></trkpt><trkpt lat="42.704168085495866" lon="13.835443156647187"><ele>101.0</ele><time>2026-05-03T12:12:29Z</time></trkpt><trkpt lat="42.70391882710258" lon="13.835378562029655"><ele>101.0</ele><time>2026-05-03T12:12:30Z</time></trkpt><trkpt lat="42.70369271299992" lon="13.835309467730916"><ele>101.0</ele><time>2026-05-03T12:12:31Z</time></trkpt><trkpt lat="42.70347972866429" lon="13.83525274829048"><ele>101.0</ele><time>2026-05-03T12:12:32Z</time></trkpt><trkpt lat="42.703276320147076" lon="13.835200385078089"><ele>100.0</ele><time>2026-05-03T12:12:33Z</time></trkpt><trkpt lat="42.703082117300674" lon="13.835161440497258"><ele>99.0</ele><time>2026-05-03T12:12:34Z</time></trkpt><trkpt lat="42.70289700576113" lon="13.835129155770808"><ele>98.0</ele><time>2026-05-03T12:12:35Z</time></trkpt><trkpt lat="42.70272272526827" lon="13.835104563599486"><ele>97.0</ele><time>2026-05-03T12:12:36Z</time></trkpt><trkpt lat="42.70255233701261" lon="13.835076465714117"><ele>96.0</ele><time>2026-05-03T12:12:37Z</time></trkpt><trkpt lat="42.702392655845635" lon="13.835059768334007"><ele>95.0</ele><time>2026-05-03T12:12:38Z</time></trkpt><trkpt lat="42.70223859787311" lon="13.835039324461135"><ele>95.0</ele><time>2026-05-03T12:12:39Z</time></trkpt><trkpt lat="42.70209976657534" lon="13.835021316642083"><ele>95.0</ele><time>2026-05-03T12:12:40Z</time></trkpt><trkpt lat="42.70196714278664" lon="13.835004100368847"><ele>95.0</ele><time>2026-05-03T12:12:41Z</time></trkpt><trkpt lat="42.70185521838795" lon="13.834984441205826"><ele>95.0</ele><time>2026-05-03T12:12:42Z</time></trkpt><trkpt lat="42.70176293142422" lon="13.834970448302156"><ele>95.16666666666667</ele><time>2026-05-03T12:12:43Z</time></trkpt><trkpt lat="42.70167265553608" lon="13.83494358820484"><ele>95.33333333333334</ele><time>2026-05-03T12:12:44Z</time></trkpt><trkpt lat="42.70159231727527" lon="13.834894968097663"><ele>95.5</ele><time>2026-05-03T12:12:45Z</time></trkpt><trkpt lat="42.70153206768043" lon="13.834815057443095"><ele>95.66666666666667</ele><time>2026-05-03T12:12:46Z</time></trkpt><trkpt lat="42.70149369937548" lon="13.834722372527308"><ele>95.83333333333333</ele><time>2026-05-03T12:12:47Z</time></trkpt><trkpt lat="42.701467247833136" lon="13.834616434663403"><ele>96.0</ele><time>2026-05-03T12:12:48Z</time></trkpt><trkpt lat="42.701458000494945" lon="13.834480381800088"><ele>96.0</ele><time>2026-05-03T12:12:49Z</time></trkpt><trkpt lat="42.701465853077615" lon="13.83431633958836"><ele>96.0</ele><time>2026-05-03T12:12:50Z</time></trkpt><trkpt lat="42.7014718098418" lon="13.8341227671202"><ele>96.0</ele><time>2026-05-03T12:12:51Z</time></trkpt><trkpt lat="42.70147030889126" lon="13.833896191850037"><ele>96.0</ele><time>2026-05-03T12:12:52Z</time></trkpt><trkpt lat="42.701463381166434" lon="13.833641586252778"><ele>96.66666666666666</ele><time>2026-05-03T12:12:53Z</time></trkpt><trkpt lat="42.701456246556134" lon="13.833375858044686"><ele>97.33333333333333</ele><time>2026-05-03T12:12:53.999Z</time></trkpt><trkpt lat="42.70144409415571" lon="13.83306632911012"><ele>98.0</ele><time>2026-05-03T12:12:54.999Z</time></trkpt><trkpt lat="42.70142967108332" lon="13.832719515295281"><ele>98.0</ele><time>2026-05-03T12:12:55.999Z</time></trkpt><trkpt lat="42.70141561339389" lon="13.832351598656603"><ele>98.0</ele><time>2026-05-03T12:12:56.999Z</time></trkpt><trkpt lat="42.70140451251249" lon="13.831973270436414"><ele>98.0</ele><time>2026-05-03T12:12:57.999Z</time></trkpt><trkpt lat="42.70139427751216" lon="13.831592512115725"><ele>98.0</ele><time>2026-05-03T12:12:58.999Z</time></trkpt><trkpt lat="42.70138649163535" lon="13.831213199666706"><ele>98.5</ele><time>2026-05-03T12:12:59.999Z</time></trkpt><trkpt lat="42.701376933864104" lon="13.830837208419346"><ele>99.0</ele><time>2026-05-03T12:13:00.999Z</time></trkpt><trkpt lat="42.701366090974176" lon="13.830473419607236"><ele>100.0</ele><time>2026-05-03T12:13:01.999Z</time></trkpt><trkpt lat="42.701351068194086" lon="13.83009866843123"><ele>101.0</ele><time>2026-05-03T12:13:02.999Z</time></trkpt><trkpt lat="42.701329228174096" lon="13.829669319067774"><ele>101.0</ele><time>2026-05-03T12:13:03.999Z</time></trkpt><trkpt lat="42.701305531514976" lon="13.829192895240745"><ele>101.0</ele><time>2026-05-03T12:13:04.999Z</time></trkpt><trkpt lat="42.70129345846414" lon="13.828686161585434"><ele>101.0</ele><time>2026-05-03T12:13:05.999Z</time></trkpt><trkpt lat="42.70129372520437" lon="13.828151859896257"><ele>101.0</ele><time>2026-05-03T12:13:06.999Z</time></trkpt><trkpt lat="42.70128296779091" lon="13.827607759623847"><ele>101.0</ele><time>2026-05-03T12:13:07.999Z</time></trkpt><trkpt lat="42.70124891400367" lon="13.827051808239606"><ele>101.0</ele><time>2026-05-03T12:13:08.999Z</time></trkpt><trkpt lat="42.701187727764605" lon="13.826479359785063"><ele>101.5</ele><time>2026-05-03T12:13:09.999Z</time></trkpt><trkpt lat="42.70111249133074" lon="13.825894658217466"><ele>102.0</ele><time>2026-05-03T12:13:10.999Z</time></trkpt><trkpt lat="42.70102132402923" lon="13.825315772337378"><ele>102.0</ele><time>2026-05-03T12:13:11.999Z</time></trkpt><trkpt lat="42.70091147578037" lon="13.824737254612646"><ele>102.0</ele><time>2026-05-03T12:13:12.999Z</time></trkpt><trkpt lat="42.700783562164" lon="13.824211087259224"><ele>103.0</ele><time>2026-05-03T12:13:13.999Z</time></trkpt><trkpt lat="42.700648528889566" lon="13.8237109269343"><ele>104.0</ele><time>2026-05-03T12:13:14.999Z</time></trkpt><trkpt lat="42.70050088871464" lon="13.823216451582434"><ele>105.0</ele><time>2026-05-03T12:13:15.999Z</time></trkpt><trkpt lat="42.700343505830745" lon="13.822747542613325"><ele>106.0</ele><time>2026-05-03T12:13:16.999Z</time></trkpt><trkpt lat="42.70018732262269" lon="13.822323460591358"><ele>106.0</ele><time>2026-05-03T12:13:17.999Z</time></trkpt><trkpt lat="42.700021475864155" lon="13.821901706094215"><ele>106.0</ele><time>2026-05-03T12:13:18.999Z</time></trkpt><trkpt lat="42.69984392264434" lon="13.821454899825174"><ele>106.0</ele><time>2026-05-03T12:13:19.999Z</time></trkpt><trkpt lat="42.69966021086343" lon="13.820993417538368"><ele>106.0</ele><time>2026-05-03T12:13:20.999Z</time></trkpt><trkpt lat="42.69949158196742" lon="13.820566843780407"><ele>106.5</ele><time>2026-05-03T12:13:21.999Z</time></trkpt><trkpt lat="42.699333092817355" lon="13.820172969888539"><ele>107.0</ele><time>2026-05-03T12:13:22.999Z</time></trkpt><trkpt lat="42.69917707119058" lon="13.819774211242107"><ele>107.0</ele><time>2026-05-03T12:13:23.999Z</time></trkpt><trkpt lat="42.69902404595956" lon="13.819376570305934"><ele>107.0</ele><time>2026-05-03T12:13:24.999Z</time></trkpt><trkpt lat="42.698870991761154" lon="13.818983955715574"><ele>108.0</ele><time>2026-05-03T12:13:25.999Z</time></trkpt><trkpt lat="42.69871513818398" lon="13.81859111740621"><ele>109.0</ele><time>2026-05-03T12:13:26.999Z</time></trkpt><trkpt lat="42.698562315846374" lon="13.818201139514189"><ele>109.0</ele><time>2026-05-03T12:13:27.999Z</time></trkpt><trkpt lat="42.69840845857791" lon="13.817811940889033"><ele>109.0</ele><time>2026-05-03T12:13:28.999Z</time></trkpt><trkpt lat="42.69825849304934" lon="13.817428806341129"><ele>110.0</ele><time>2026-05-03T12:13:29.999Z</time></trkpt><trkpt lat="42.69810756915457" lon="13.817046595674206"><ele>111.0</ele><time>2026-05-03T12:13:30.999Z</time></trkpt><trkpt lat="42.69795996786618" lon="13.81666468728117"><ele>112.0</ele><time>2026-05-03T12:13:31.999Z</time></trkpt><trkpt lat="42.69781162903749" lon="13.816276417103447"><ele>113.0</ele><time>2026-05-03T12:13:32.999Z</time></trkpt><trkpt lat="42.69766184322711" lon="13.815885462943884"><ele>113.0</ele><time>2026-05-03T12:13:33.999Z</time></trkpt><trkpt lat="42.697513534096785" lon="13.815491216648033"><ele>113.0</ele><time>2026-05-03T12:13:34.999Z</time></trkpt><trkpt lat="42.697367846565626" lon="13.81509667763997"><ele>113.0</ele><time>2026-05-03T12:13:35.999Z</time></trkpt><trkpt lat="42.697224608351455" lon="13.814696627237497"><ele>113.0</ele><time>2026-05-03T12:13:37Z</time></trkpt><trkpt lat="42.697084530353415" lon="13.814296406059968"><ele>113.0</ele><time>2026-05-03T12:13:38Z</time></trkpt><trkpt lat="42.696950641814226" lon="13.813896192251498"><ele>113.0</ele><time>2026-05-03T12:13:39Z</time></trkpt><trkpt lat="42.69682554986061" lon="13.813495716057057"><ele>112.5</ele><time>2026-05-03T12:13:40Z</time></trkpt><trkpt lat="42.69670253592393" lon="13.813097085857649"><ele>112.0</ele><time>2026-05-03T12:13:41Z</time></trkpt><trkpt lat="42.69657968761142" lon="13.812736400693073"><ele>113.5</ele><time>2026-05-03T12:13:42Z</time></trkpt><trkpt lat="42.69646037112843" lon="13.812392610655717"><ele>115.0</ele><time>2026-05-03T12:13:43Z</time></trkpt><trkpt lat="42.69634855622491" lon="13.812069155929825"><ele>116.0</ele><time>2026-05-03T12:13:44Z</time></trkpt><trkpt lat="42.69624203143137" lon="13.81174288450135"><ele>117.0</ele><time>2026-05-03T12:13:45Z</time></trkpt><trkpt lat="42.696130251320376" lon="13.811406587925608"><ele>116.5</ele><time>2026-05-03T12:13:46Z</time></trkpt><trkpt lat="42.696017506847646" lon="13.811065398778242"><ele>116.0</ele><time>2026-05-03T12:13:47Z</time></trkpt><trkpt lat="42.69590730913781" lon="13.81072438154488"><ele>116.0</ele><time>2026-05-03T12:13:48Z</time></trkpt><trkpt lat="42.69579977164914" lon="13.810383677475096"><ele>116.0</ele><time>2026-05-03T12:13:49Z</time></trkpt><trkpt lat="42.69569019501012" lon="13.810044411028528"><ele>118.5</ele><time>2026-05-03T12:13:50Z</time></trkpt><trkpt lat="42.69558430129664" lon="13.809711449001208"><ele>121.0</ele><time>2026-05-03T12:13:51Z</time></trkpt><trkpt lat="42.69547710638111" lon="13.809379187528224"><ele>122.5</ele><time>2026-05-03T12:13:52Z</time></trkpt><trkpt lat="42.69537248581952" lon="13.809044559285491"><ele>124.0</ele><time>2026-05-03T12:13:53Z</time></trkpt><trkpt lat="42.69526769604727" lon="13.808706063455494"><ele>122.0</ele><time>2026-05-03T12:13:54Z</time></trkpt><trkpt lat="42.69516255808459" lon="13.80836570463015"><ele>120.0</ele><time>2026-05-03T12:13:55Z</time></trkpt><trkpt lat="42.695057953612604" lon="13.808022573547877"><ele>120.0</ele><time>2026-05-03T12:13:56Z</time></trkpt><trkpt lat="42.69495431611396" lon="13.807675646124"><ele>120.0</ele><time>2026-05-03T12:13:57Z</time></trkpt><trkpt lat="42.6948537266784" lon="13.80732741194194"><ele>120.0</ele><time>2026-05-03T12:13:58Z</time></trkpt><trkpt lat="42.69475333710764" lon="13.806976373735349"><ele>120.0</ele><time>2026-05-03T12:13:59Z</time></trkpt><trkpt lat="42.694651914749635" lon="13.806623330057471"><ele>120.0</ele><time>2026-05-03T12:14:00Z</time></trkpt><trkpt lat="42.69454682590372" lon="13.806271563920657"><ele>120.0</ele><time>2026-05-03T12:14:01Z</time></trkpt><trkpt lat="42.69444561734726" lon="13.80591618671696"><ele>119.0</ele><time>2026-05-03T12:14:02Z</time></trkpt><trkpt lat="42.69434464210063" lon="13.805561400338075"><ele>118.0</ele><time>2026-05-03T12:14:03Z</time></trkpt><trkpt lat="42.694240088492876" lon="13.805208396617484"><ele>119.0</ele><time>2026-05-03T12:14:04Z</time></trkpt><trkpt lat="42.69414804156328" lon="13.80485407039993"><ele>120.0</ele><time>2026-05-03T12:14:05Z</time></trkpt><trkpt lat="42.694033523720314" lon="13.804504184171153"><ele>121.0</ele><time>2026-05-03T12:14:06Z</time></trkpt><trkpt lat="42.69390758685939" lon="13.804153512307243"><ele>122.0</ele><time>2026-05-03T12:14:07Z</time></trkpt><trkpt lat="42.69379557249164" lon="13.803819240358976"><ele>122.0</ele><time>2026-05-03T12:14:08Z</time></trkpt><trkpt lat="42.69371647697899" lon="13.803467763071088"><ele>122.0</ele><time>2026-05-03T12:14:09Z</time></trkpt><trkpt lat="42.69361973873085" lon="13.803128067152057"><ele>122.0</ele><time>2026-05-03T12:14:10Z</time></trkpt><trkpt lat="42.693525389253146" lon="13.802788931139188"><ele>122.0</ele><time>2026-05-03T12:14:11Z</time></trkpt><trkpt lat="42.69343360650755" lon="13.8024431563334"><ele>122.0</ele><time>2026-05-03T12:14:12Z</time></trkpt><trkpt lat="42.69334887423066" lon="13.80209696521177"><ele>122.0</ele><time>2026-05-03T12:14:13Z</time></trkpt><trkpt lat="42.693266852054265" lon="13.801749922051064"><ele>123.5</ele><time>2026-05-03T12:14:14Z</time></trkpt><trkpt lat="42.69319101137303" lon="13.80140040291444"><ele>125.0</ele><time>2026-05-03T12:14:15Z</time></trkpt><trkpt lat="42.693118321079034" lon="13.801050755892886"><ele>125.5</ele><time>2026-05-03T12:14:16Z</time></trkpt><trkpt lat="42.69304588737205" lon="13.800700460183974"><ele>126.0</ele><time>2026-05-03T12:14:17Z</time></trkpt><trkpt lat="42.692979801064624" lon="13.800349222411558"><ele>127.5</ele><time>2026-05-03T12:14:18Z</time></trkpt><trkpt lat="42.692916951036764" lon="13.799995175678179"><ele>129.0</ele><time>2026-05-03T12:14:19Z</time></trkpt><trkpt lat="42.692853513371674" lon="13.799642780478079"><ele>130.0</ele><time>2026-05-03T12:14:20Z</time></trkpt><trkpt lat="42.692797861980004" lon="13.799287104702408"><ele>131.0</ele><time>2026-05-03T12:14:21Z</time></trkpt><trkpt lat="42.69274349264426" lon="13.798927334111951"><ele>128.0</ele><time>2026-05-03T12:14:22Z</time></trkpt><trkpt lat="42.692692051621364" lon="13.798566072404093"><ele>125.0</ele><time>2026-05-03T12:14:23Z</time></trkpt><trkpt lat="42.69264486302364" lon="13.798202875843343"><ele>125.0</ele><time>2026-05-03T12:14:24Z</time></trkpt><trkpt lat="42.69260047330179" lon="13.797838060048234"><ele>125.0</ele><time>2026-05-03T12:14:25Z</time></trkpt><trkpt lat="42.69255948604272" lon="13.797473527228396"><ele>125.0</ele><time>2026-05-03T12:14:26Z</time></trkpt><trkpt lat="42.69252027671591" lon="13.797110929578148"><ele>125.0</ele><time>2026-05-03T12:14:27Z</time></trkpt><trkpt lat="42.692486219606316" lon="13.796748601696928"><ele>125.5</ele><time>2026-05-03T12:14:28Z</time></trkpt><trkpt lat="42.69244991272021" lon="13.796394980250566"><ele>126.0</ele><time>2026-05-03T12:14:29Z</time></trkpt><trkpt lat="42.69241580459051" lon="13.796046267431695"><ele>125.5</ele><time>2026-05-03T12:14:30Z</time></trkpt><trkpt lat="42.69237881833314" lon="13.795695426695959"><ele>125.0</ele><time>2026-05-03T12:14:31Z</time></trkpt><trkpt lat="42.692348346603794" lon="13.795336651729427"><ele>124.0</ele><time>2026-05-03T12:14:32Z</time></trkpt><trkpt lat="42.692313208260344" lon="13.794982143093304"><ele>123.0</ele><time>2026-05-03T12:14:33Z</time></trkpt><trkpt lat="42.692256316419765" lon="13.794612183412399"><ele>123.5</ele><time>2026-05-03T12:14:34Z</time></trkpt><trkpt lat="42.692217706875276" lon="13.794246672805736"><ele>124.0</ele><time>2026-05-03T12:14:35Z</time></trkpt><trkpt lat="42.69216548141981" lon="13.793882837246027"><ele>124.0</ele><time>2026-05-03T12:14:36Z</time></trkpt><trkpt lat="42.692127997052964" lon="13.793514732504276"><ele>124.0</ele><time>2026-05-03T12:14:37Z</time></trkpt><trkpt lat="42.692093708579364" lon="13.793147829344168"><ele>125.0</ele><time>2026-05-03T12:14:38Z</time></trkpt><trkpt lat="42.69206144064532" lon="13.792777170773542"><ele>126.0</ele><time>2026-05-03T12:14:39Z</time></trkpt><trkpt lat="42.692020770830204" lon="13.792405931783062"><ele>127.0</ele><time>2026-05-03T12:14:40Z</time></trkpt><trkpt lat="42.69198151328096" lon="13.7920311105864"><ele>128.0</ele><time>2026-05-03T12:14:41Z</time></trkpt><trkpt lat="42.69193226833717" lon="13.791659371855761"><ele>128.5</ele><time>2026-05-03T12:14:42Z</time></trkpt><trkpt lat="42.69187632964052" lon="13.791280424760282"><ele>129.0</ele><time>2026-05-03T12:14:43Z</time></trkpt><trkpt lat="42.69181608701351" lon="13.790897453621708"><ele>129.0</ele><time>2026-05-03T12:14:44Z</time></trkpt><trkpt lat="42.691749398635494" lon="13.790519303035705"><ele>129.0</ele><time>2026-05-03T12:14:45Z</time></trkpt><trkpt lat="42.69167348742528" lon="13.790146105007093"><ele>130.0</ele><time>2026-05-03T12:14:46Z</time></trkpt><trkpt lat="42.69159174186998" lon="13.78977219536788"><ele>131.0</ele><time>2026-05-03T12:14:47Z</time></trkpt><trkpt lat="42.69150231171512" lon="13.789399745297986"><ele>133.5</ele><time>2026-05-03T12:14:48Z</time></trkpt><trkpt lat="42.6913973221035" lon="13.78903425842114"><ele>136.0</ele><time>2026-05-03T12:14:49Z</time></trkpt><trkpt lat="42.69127643881072" lon="13.78867864581063"><ele>136.0</ele><time>2026-05-03T12:14:50Z</time></trkpt><trkpt lat="42.69114744541325" lon="13.788329054296915"><ele>136.0</ele><time>2026-05-03T12:14:51Z</time></trkpt><trkpt lat="42.6910131928281" lon="13.787980412994479"><ele>134.0</ele><time>2026-05-03T12:14:52Z</time></trkpt><trkpt lat="42.69087114495966" lon="13.787644425653781"><ele>132.0</ele><time>2026-05-03T12:14:53Z</time></trkpt><trkpt lat="42.690725499033725" lon="13.78731547402699"><ele>132.0</ele><time>2026-05-03T12:14:54Z</time></trkpt><trkpt lat="42.69057543895986" lon="13.786995033318808"><ele>132.0</ele><time>2026-05-03T12:14:55Z</time></trkpt><trkpt lat="42.690423927472594" lon="13.786673194142164"><ele>132.5</ele><time>2026-05-03T12:14:56Z</time></trkpt><trkpt lat="42.690273211385026" lon="13.786360844941198"><ele>133.0</ele><time>2026-05-03T12:14:57Z</time></trkpt><trkpt lat="42.690125818954904" lon="13.78604379146679"><ele>132.5</ele><time>2026-05-03T12:14:57.999Z</time></trkpt><trkpt lat="42.68997909022774" lon="13.785720604143275"><ele>132.0</ele><time>2026-05-03T12:14:58.999Z</time></trkpt><trkpt lat="42.6898320800588" lon="13.785392257397206"><ele>133.5</ele><time>2026-05-03T12:14:59.999Z</time></trkpt><trkpt lat="42.68968563214454" lon="13.785065205428554"><ele>135.0</ele><time>2026-05-03T12:15:00.999Z</time></trkpt><trkpt lat="42.68954185612923" lon="13.784753306079628"><ele>135.0</ele><time>2026-05-03T12:15:01.999Z</time></trkpt><trkpt lat="42.68940168950902" lon="13.784459160484804"><ele>135.0</ele><time>2026-05-03T12:15:02.999Z</time></trkpt><trkpt lat="42.68926554639095" lon="13.78416664890227"><ele>135.0</ele><time>2026-05-03T12:15:03.999Z</time></trkpt><trkpt lat="42.68913009952902" lon="13.783864148418392"><ele>135.0</ele><time>2026-05-03T12:15:04.999Z</time></trkpt><trkpt lat="42.68899421983147" lon="13.783559193143928"><ele>135.5</ele><time>2026-05-03T12:15:05.999Z</time></trkpt><trkpt lat="42.688852427982155" lon="13.783256167051393"><ele>136.0</ele><time>2026-05-03T12:15:06.999Z</time></trkpt><trkpt lat="42.68871217247865" lon="13.782950572316972"><ele>138.0</ele><time>2026-05-03T12:15:07.999Z</time></trkpt><trkpt lat="42.68857058786" lon="13.782644127870865"><ele>140.0</ele><time>2026-05-03T12:15:08.999Z</time></trkpt><trkpt lat="42.68842815161341" lon="13.782335476092292"><ele>140.0</ele><time>2026-05-03T12:15:09.999Z</time></trkpt><trkpt lat="42.688285506137014" lon="13.782026516411173"><ele>140.0</ele><time>2026-05-03T12:15:10.999Z</time></trkpt><trkpt lat="42.68814070520042" lon="13.781717239259327"><ele>140.0</ele><time>2026-05-03T12:15:11.999Z</time></trkpt><trkpt lat="42.6879942078453" lon="13.781407745108337"><ele>140.0</ele><time>2026-05-03T12:15:12.999Z</time></trkpt><trkpt lat="42.68784424985483" lon="13.781098269026844"><ele>139.0</ele><time>2026-05-03T12:15:13.999Z</time></trkpt><trkpt lat="42.6876898709834" lon="13.780788063959196"><ele>138.0</ele><time>2026-05-03T12:15:14.999Z</time></trkpt><trkpt lat="42.68753358129162" lon="13.780472923227078"><ele>138.5</ele><time>2026-05-03T12:15:15.999Z</time></trkpt><trkpt lat="42.6873772223353" lon="13.780161995625061"><ele>139.0</ele><time>2026-05-03T12:15:16.999Z</time></trkpt><trkpt lat="42.68721992235154" lon="13.77985310664574"><ele>139.0</ele><time>2026-05-03T12:15:17.999Z</time></trkpt><trkpt lat="42.68706351016315" lon="13.779553389426708"><ele>139.0</ele><time>2026-05-03T12:15:18.999Z</time></trkpt><trkpt lat="42.68691219646218" lon="13.779267720175723"><ele>139.0</ele><time>2026-05-03T12:15:19.999Z</time></trkpt><trkpt lat="42.68676474810489" lon="13.778994786758727"><ele>139.0</ele><time>2026-05-03T12:15:20.999Z</time></trkpt><trkpt lat="42.686614264895624" lon="13.778713819321874"><ele>140.0</ele><time>2026-05-03T12:15:21.999Z</time></trkpt><trkpt lat="42.68646293965124" lon="13.77843359580469"><ele>141.0</ele><time>2026-05-03T12:15:22.999Z</time></trkpt><trkpt lat="42.68630569300913" lon="13.778153514979383"><ele>141.0</ele><time>2026-05-03T12:15:23.999Z</time></trkpt><trkpt lat="42.68614780979837" lon="13.777870326821876"><ele>141.0</ele><time>2026-05-03T12:15:24.999Z</time></trkpt><trkpt lat="42.68598699852259" lon="13.777585333863797"><ele>142.0</ele><time>2026-05-03T12:15:25.999Z</time></trkpt><trkpt lat="42.68582473643341" lon="13.777294035574938"><ele>143.0</ele><time>2026-05-03T12:15:26.999Z</time></trkpt><trkpt lat="42.68566359693257" lon="13.776999005232465"><ele>142.5</ele><time>2026-05-03T12:15:27.999Z</time></trkpt><trkpt lat="42.68549813806571" lon="13.776702616657715"><ele>142.0</ele><time>2026-05-03T12:15:28.999Z</time></trkpt><trkpt lat="42.68532992249829" lon="13.77640444008441"><ele>143.0</ele><time>2026-05-03T12:15:29.999Z</time></trkpt><trkpt lat="42.68516751365526" lon="13.77610248487681"><ele>144.0</ele><time>2026-05-03T12:15:30.999Z</time></trkpt><trkpt lat="42.68500605899931" lon="13.775803235861257"><ele>144.0</ele><time>2026-05-03T12:15:31.999Z</time></trkpt><trkpt lat="42.68484542650498" lon="13.775499716434943"><ele>144.0</ele><time>2026-05-03T12:15:32.999Z</time></trkpt><trkpt lat="42.68468561020141" lon="13.775192786583007"><ele>144.0</ele><time>2026-05-03T12:15:33.999Z</time></trkpt><trkpt lat="42.68452978023673" lon="13.774871409010045"><ele>144.0</ele><time>2026-05-03T12:15:34.999Z</time></trkpt><trkpt lat="42.684388185353534" lon="13.77453730209208"><ele>145.5</ele><time>2026-05-03T12:15:35.999Z</time></trkpt><trkpt lat="42.684258941800834" lon="13.774191948537052"><ele>147.0</ele><time>2026-05-03T12:15:36.999Z</time></trkpt><trkpt lat="42.684148396863236" lon="13.773844864281132"><ele>147.0</ele><time>2026-05-03T12:15:37.999Z</time></trkpt><trkpt lat="42.684046561636485" lon="13.773499154691889"><ele>147.0</ele><time>2026-05-03T12:15:38.999Z</time></trkpt><trkpt lat="42.683957697048605" lon="13.773146656356136"><ele>147.0</ele><time>2026-05-03T12:15:39.999Z</time></trkpt><trkpt lat="42.68388082087718" lon="13.77278792549856"><ele>147.0</ele><time>2026-05-03T12:15:40.999Z</time></trkpt><trkpt lat="42.68381057860314" lon="13.772422722411822"><ele>147.5</ele><time>2026-05-03T12:15:41.999Z</time></trkpt><trkpt lat="42.683756581396665" lon="13.772052573868887"><ele>148.0</ele><time>2026-05-03T12:15:43Z</time></trkpt><trkpt lat="42.68370917271768" lon="13.771681500215337"><ele>152.0</ele><time>2026-05-03T12:15:44Z</time></trkpt><trkpt lat="42.68367147437474" lon="13.771305456807413"><ele>156.0</ele><time>2026-05-03T12:15:45Z</time></trkpt><trkpt lat="42.68363773454109" lon="13.7709309995053"><ele>157.0</ele><time>2026-05-03T12:15:46Z</time></trkpt><trkpt lat="42.68360225074596" lon="13.770553374417341"><ele>158.0</ele><time>2026-05-03T12:15:47Z</time></trkpt><trkpt lat="42.683565155060684" lon="13.770177162560435"><ele>154.5</ele><time>2026-05-03T12:15:48Z</time></trkpt><trkpt lat="42.68353052322656" lon="13.769795201404328"><ele>151.0</ele><time>2026-05-03T12:15:49Z</time></trkpt><trkpt lat="42.68348901856489" lon="13.769414549537697"><ele>150.5</ele><time>2026-05-03T12:15:50Z</time></trkpt><trkpt lat="42.68343803066695" lon="13.76903507230345"><ele>150.0</ele><time>2026-05-03T12:15:51Z</time></trkpt><trkpt lat="42.683376667524655" lon="13.768656230683307"><ele>149.5</ele><time>2026-05-03T12:15:52Z</time></trkpt><trkpt lat="42.683308666575876" lon="13.768306008864945"><ele>149.0</ele><time>2026-05-03T12:15:53Z</time></trkpt><trkpt lat="42.68323948747086" lon="13.767983633164325"><ele>150.5</ele><time>2026-05-03T12:15:54Z</time></trkpt><trkpt lat="42.68316821154277" lon="13.767656277027124"><ele>152.0</ele><time>2026-05-03T12:15:55Z</time></trkpt><trkpt lat="42.68308627090642" lon="13.76732339205021"><ele>152.0</ele><time>2026-05-03T12:15:56Z</time></trkpt><trkpt lat="42.68298888532411" lon="13.766985522821965"><ele>152.0</ele><time>2026-05-03T12:15:57Z</time></trkpt><trkpt lat="42.68289036872215" lon="13.766648872238369"><ele>153.0</ele><time>2026-05-03T12:15:58Z</time></trkpt><trkpt lat="42.682782236945506" lon="13.76631165049132"><ele>154.0</ele><time>2026-05-03T12:15:59Z</time></trkpt><trkpt lat="42.68266585901072" lon="13.76597310276209"><ele>154.0</ele><time>2026-05-03T12:16:00Z</time></trkpt><trkpt lat="42.68254646197482" lon="13.765633125958907"><ele>154.0</ele><time>2026-05-03T12:16:01Z</time></trkpt><trkpt lat="42.68241793405956" lon="13.765297321560197"><ele>153.5</ele><time>2026-05-03T12:16:02Z</time></trkpt><trkpt lat="42.6822758198696" lon="13.764964891050674"><ele>153.0</ele><time>2026-05-03T12:16:03Z</time></trkpt><trkpt lat="42.682123829597295" lon="13.7646388994538"><ele>152.5</ele><time>2026-05-03T12:16:04Z</time></trkpt><trkpt lat="42.681967056942575" lon="13.764313915444358"><ele>152.0</ele><time>2026-05-03T12:16:05Z</time></trkpt><trkpt lat="42.68180510686133" lon="13.763994504969572"><ele>152.0</ele><time>2026-05-03T12:16:06Z</time></trkpt><trkpt lat="42.68163473370829" lon="13.763676295928438"><ele>152.0</ele><time>2026-05-03T12:16:07Z</time></trkpt><trkpt lat="42.681457575267615" lon="13.76336938802593"><ele>153.5</ele><time>2026-05-03T12:16:08Z</time></trkpt><trkpt lat="42.68127654282156" lon="13.76306163769171"><ele>155.0</ele><time>2026-05-03T12:16:09Z</time></trkpt><trkpt lat="42.681090514352405" lon="13.76276333847675"><ele>156.5</ele><time>2026-05-03T12:16:10Z</time></trkpt><trkpt lat="42.68089070532908" lon="13.762475595266707"><ele>158.0</ele><time>2026-05-03T12:16:11Z</time></trkpt><trkpt lat="42.680688332317246" lon="13.762188361474765"><ele>158.0</ele><time>2026-05-03T12:16:12Z</time></trkpt><trkpt lat="42.6804868020426" lon="13.7618957408749"><ele>158.0</ele><time>2026-05-03T12:16:13Z</time></trkpt><trkpt lat="42.68028730973958" lon="13.761596918829303"><ele>157.5</ele><time>2026-05-03T12:16:14Z</time></trkpt><trkpt lat="42.680087881629014" lon="13.761300934679086"><ele>157.0</ele><time>2026-05-03T12:16:15Z</time></trkpt><trkpt lat="42.67988830924882" lon="13.761008026405674"><ele>156.5</ele><time>2026-05-03T12:16:16Z</time></trkpt><trkpt lat="42.67969089570497" lon="13.760714514364512"><ele>156.0</ele><time>2026-05-03T12:16:17Z</time></trkpt><trkpt lat="42.67949262330479" lon="13.760421294511264"><ele>157.0</ele><time>2026-05-03T12:16:18Z</time></trkpt><trkpt lat="42.679296986955244" lon="13.760129572483448"><ele>158.0</ele><time>2026-05-03T12:16:19Z</time></trkpt><trkpt lat="42.67910963331153" lon="13.759853062426782"><ele>158.0</ele><time>2026-05-03T12:16:20Z</time></trkpt><trkpt lat="42.678932016226874" lon="13.759587217049619"><ele>158.0</ele><time>2026-05-03T12:16:21Z</time></trkpt><trkpt lat="42.678757190184875" lon="13.759327179608816"><ele>159.0</ele><time>2026-05-03T12:16:22Z</time></trkpt><trkpt lat="42.67857063594081" lon="13.759064891643996"><ele>160.0</ele><time>2026-05-03T12:16:23Z</time></trkpt><trkpt lat="42.67836894480444" lon="13.758790914211998"><ele>160.5</ele><time>2026-05-03T12:16:24Z</time></trkpt><trkpt lat="42.67816459678475" lon="13.75850458103367"><ele>161.0</ele><time>2026-05-03T12:16:25Z</time></trkpt><trkpt lat="42.67796117732667" lon="13.758201135601341"><ele>161.5</ele><time>2026-05-03T12:16:26Z</time></trkpt><trkpt lat="42.677762713799794" lon="13.757900828280478"><ele>162.0</ele><time>2026-05-03T12:16:27Z</time></trkpt><trkpt lat="42.677567094287674" lon="13.757602636515903"><ele>164.0</ele><time>2026-05-03T12:16:28Z</time></trkpt><trkpt lat="42.677370919929466" lon="13.75730940363959"><ele>166.0</ele><time>2026-05-03T12:16:29Z</time></trkpt><trkpt lat="42.677175713818734" lon="13.757021205386863"><ele>166.0</ele><time>2026-05-03T12:16:30Z</time></trkpt><trkpt lat="42.676981553140244" lon="13.756735731617022"><ele>166.0</ele><time>2026-05-03T12:16:31Z</time></trkpt><trkpt lat="42.67678896588459" lon="13.756449229580323"><ele>166.0</ele><time>2026-05-03T12:16:32Z</time></trkpt><trkpt lat="42.676595923842825" lon="13.75616906805635"><ele>166.0</ele><time>2026-05-03T12:16:33Z</time></trkpt><trkpt lat="42.676404896807014" lon="13.75588829280523"><ele>166.0</ele><time>2026-05-03T12:16:34Z</time></trkpt><trkpt lat="42.676215954179604" lon="13.75560614096181"><ele>166.0</ele><time>2026-05-03T12:16:35Z</time></trkpt><trkpt lat="42.67602984005775" lon="13.755324393979263"><ele>166.5</ele><time>2026-05-03T12:16:36Z</time></trkpt><trkpt lat="42.67584808933738" lon="13.755037008175286"><ele>167.0</ele><time>2026-05-03T12:16:37Z</time></trkpt><trkpt lat="42.67566813430153" lon="13.754745711113657"><ele>167.0</ele><time>2026-05-03T12:16:38Z</time></trkpt><trkpt lat="42.675484480041334" lon="13.754456293415805"><ele>167.0</ele><time>2026-05-03T12:16:39Z</time></trkpt><trkpt lat="42.675297592913694" lon="13.754179654501227"><ele>168.5</ele><time>2026-05-03T12:16:40Z</time></trkpt><trkpt lat="42.67511213829709" lon="13.753909789953703"><ele>170.0</ele><time>2026-05-03T12:16:41Z</time></trkpt><trkpt lat="42.67492873473488" lon="13.753643372414329"><ele>170.0</ele><time>2026-05-03T12:16:42Z</time></trkpt><trkpt lat="42.67474888803324" lon="13.753378431753127"><ele>170.0</ele><time>2026-05-03T12:16:43Z</time></trkpt><trkpt lat="42.674573142455294" lon="13.753118993594835"><ele>175.0</ele><time>2026-05-03T12:16:44Z</time></trkpt><trkpt lat="42.674400291175644" lon="13.752859437139074"><ele>180.0</ele><time>2026-05-03T12:16:45Z</time></trkpt><trkpt lat="42.67422871623386" lon="13.752602107896179"><ele>180.0</ele><time>2026-05-03T12:16:46Z</time></trkpt><trkpt lat="42.674059567562864" lon="13.752338706723355"><ele>180.0</ele><time>2026-05-03T12:16:47Z</time></trkpt><trkpt lat="42.67388740989992" lon="13.752076076564393"><ele>180.5</ele><time>2026-05-03T12:16:48Z</time></trkpt><trkpt lat="42.67370998981251" lon="13.751821870797999"><ele>181.0</ele><time>2026-05-03T12:16:49Z</time></trkpt><trkpt lat="42.67353244441261" lon="13.751563970884312"><ele>184.5</ele><time>2026-05-03T12:16:50Z</time></trkpt><trkpt lat="42.67335511304209" lon="13.751304815183003"><ele>188.0</ele><time>2026-05-03T12:16:51Z</time></trkpt><trkpt lat="42.6731783587889" lon="13.75104394865601"><ele>187.0</ele><time>2026-05-03T12:16:52Z</time></trkpt><trkpt lat="42.67300270671512" lon="13.750784560349556"><ele>186.0</ele><time>2026-05-03T12:16:53Z</time></trkpt><trkpt lat="42.67282654764228" lon="13.750523481506136"><ele>186.5</ele><time>2026-05-03T12:16:54Z</time></trkpt><trkpt lat="42.672650865185496" lon="13.75026267448262"><ele>187.0</ele><time>2026-05-03T12:16:55Z</time></trkpt><trkpt lat="42.67246999493326" lon="13.750000026923942"><ele>187.0</ele><time>2026-05-03T12:16:56Z</time></trkpt><trkpt lat="42.6722902125902" lon="13.74972627349021"><ele>187.0</ele><time>2026-05-03T12:16:57Z</time></trkpt><trkpt lat="42.67211097675652" lon="13.74946398811261"><ele>186.0</ele><time>2026-05-03T12:16:58Z</time></trkpt><trkpt lat="42.67192827561207" lon="13.749195993554418"><ele>185.0</ele><time>2026-05-03T12:16:59Z</time></trkpt><trkpt lat="42.671747682715306" lon="13.74892547593796"><ele>185.0</ele><time>2026-05-03T12:17:00Z</time></trkpt><trkpt lat="42.671566201584994" lon="13.748659282008436"><ele>185.0</ele><time>2026-05-03T12:17:01Z</time></trkpt><trkpt lat="42.671384140110206" lon="13.748387404886776"><ele>182.5</ele><time>2026-05-03T12:17:02Z</time></trkpt><trkpt lat="42.671195809430834" lon="13.748117180609334"><ele>180.0</ele><time>2026-05-03T12:17:02.999Z</time></trkpt><trkpt lat="42.67100885254928" lon="13.74784618113864"><ele>180.5</ele><time>2026-05-03T12:17:03.999Z</time></trkpt><trkpt lat="42.6708226505559" lon="13.74757200059569"><ele>181.0</ele><time>2026-05-03T12:17:04.999Z</time></trkpt><trkpt lat="42.67063689664504" lon="13.74729632809167"><ele>181.0</ele><time>2026-05-03T12:17:05.999Z</time></trkpt><trkpt lat="42.67045509228841" lon="13.747018069570744"><ele>181.0</ele><time>2026-05-03T12:17:06.999Z</time></trkpt><trkpt lat="42.670276979252414" lon="13.746735151720893"><ele>181.5</ele><time>2026-05-03T12:17:07.999Z</time></trkpt><trkpt lat="42.67010096006083" lon="13.746437253303982"><ele>182.0</ele><time>2026-05-03T12:17:08.999Z</time></trkpt><trkpt lat="42.66992806794796" lon="13.746132322894217"><ele>183.5</ele><time>2026-05-03T12:17:09.999Z</time></trkpt><trkpt lat="42.66975982196971" lon="13.745818194498504"><ele>185.0</ele><time>2026-05-03T12:17:10.999Z</time></trkpt><trkpt lat="42.66959721320957" lon="13.745496518383648"><ele>185.0</ele><time>2026-05-03T12:17:11.999Z</time></trkpt><trkpt lat="42.669443218451875" lon="13.745166673840112"><ele>185.0</ele><time>2026-05-03T12:17:12.999Z</time></trkpt><trkpt lat="42.66929623033268" lon="13.744829739028582"><ele>185.0</ele><time>2026-05-03T12:17:13.999Z</time></trkpt><trkpt lat="42.66915413334749" lon="13.744490392065865"><ele>185.0</ele><time>2026-05-03T12:17:14.999Z</time></trkpt><trkpt lat="42.66901663841171" lon="13.744151424739636"><ele>185.5</ele><time>2026-05-03T12:17:15.999Z</time></trkpt><trkpt lat="42.66888309834365" lon="13.743807233529218"><ele>186.0</ele><time>2026-05-03T12:17:16.999Z</time></trkpt><trkpt lat="42.66875537728421" lon="13.743461650148884"><ele>186.0</ele><time>2026-05-03T12:17:17.999Z</time></trkpt><trkpt lat="42.668633417151966" lon="13.7431099385028"><ele>186.0</ele><time>2026-05-03T12:17:18.999Z</time></trkpt><trkpt lat="42.668521421333054" lon="13.742754897926563"><ele>187.5</ele><time>2026-05-03T12:17:19.999Z</time></trkpt><trkpt lat="42.66841905211362" lon="13.742401911967459"><ele>189.0</ele><time>2026-05-03T12:17:20.999Z</time></trkpt><trkpt lat="42.66832277462576" lon="13.742049210117298"><ele>193.0</ele><time>2026-05-03T12:17:21.999Z</time></trkpt><trkpt lat="42.668233427256474" lon="13.74169855299893"><ele>197.0</ele><time>2026-05-03T12:17:22.999Z</time></trkpt><trkpt lat="42.668151526974235" lon="13.741346050297901"><ele>199.0</ele><time>2026-05-03T12:17:23.999Z</time></trkpt><trkpt lat="42.66807460430244" lon="13.740997275442503"><ele>201.0</ele><time>2026-05-03T12:17:24.999Z</time></trkpt><trkpt lat="42.66800181729469" lon="13.740652270029514"><ele>201.0</ele><time>2026-05-03T12:17:25.999Z</time></trkpt><trkpt lat="42.66793367222979" lon="13.740310100561645"><ele>201.0</ele><time>2026-05-03T12:17:26.999Z</time></trkpt><trkpt lat="42.667867146811375" lon="13.739966661092774"><ele>203.0</ele><time>2026-05-03T12:17:27.999Z</time></trkpt><trkpt lat="42.66780619370604" lon="13.739619993134951"><ele>205.0</ele><time>2026-05-03T12:17:28.999Z</time></trkpt><trkpt lat="42.66775167173692" lon="13.739264543992704"><ele>201.5</ele><time>2026-05-03T12:17:29.999Z</time></trkpt><trkpt lat="42.667709471345916" lon="13.738904421540127"><ele>198.0</ele><time>2026-05-03T12:17:30.999Z</time></trkpt><trkpt lat="42.66767890249329" lon="13.738541713138451"><ele>198.0</ele><time>2026-05-03T12:17:31.999Z</time></trkpt><trkpt lat="42.66765555955452" lon="13.73817176037425"><ele>198.0</ele><time>2026-05-03T12:17:32.999Z</time></trkpt><trkpt lat="42.66763583271999" lon="13.737801806885495"><ele>198.0</ele><time>2026-05-03T12:17:33.999Z</time></trkpt><trkpt lat="42.66762203736959" lon="13.737427720236822"><ele>198.0</ele><time>2026-05-03T12:17:34.999Z</time></trkpt><trkpt lat="42.66761772573789" lon="13.737051950936936"><ele>200.5</ele><time>2026-05-03T12:17:35.999Z</time></trkpt><trkpt lat="42.6676275983123" lon="13.736674394195976"><ele>203.0</ele><time>2026-05-03T12:17:36.999Z</time></trkpt><trkpt lat="42.667648508462854" lon="13.736294938887763"><ele>202.5</ele><time>2026-05-03T12:17:37.999Z</time></trkpt><trkpt lat="42.667665591733765" lon="13.735919644388517"><ele>202.0</ele><time>2026-05-03T12:17:38.999Z</time></trkpt><trkpt lat="42.66767472291116" lon="13.735544087507485"><ele>202.0</ele><time>2026-05-03T12:17:39.999Z</time></trkpt><trkpt lat="42.66768023796163" lon="13.735174309786254"><ele>202.0</ele><time>2026-05-03T12:17:40.999Z</time></trkpt><trkpt lat="42.66768073228336" lon="13.73480419591594"><ele>202.0</ele><time>2026-05-03T12:17:41.999Z</time></trkpt><trkpt lat="42.667679976005644" lon="13.734433146523724"><ele>202.0</ele><time>2026-05-03T12:17:42.999Z</time></trkpt><trkpt lat="42.66767534569592" lon="13.734064757543225"><ele>202.0</ele><time>2026-05-03T12:17:43.999Z</time></trkpt><trkpt lat="42.66766011201" lon="13.733694205499585"><ele>202.0</ele><time>2026-05-03T12:17:44.999Z</time></trkpt><trkpt lat="42.6676257096419" lon="13.733322594078803"><ele>202.0</ele><time>2026-05-03T12:17:45.999Z</time></trkpt><trkpt lat="42.6675756167345" lon="13.732950311755996"><ele>202.0</ele><time>2026-05-03T12:17:46.999Z</time></trkpt><trkpt lat="42.66750790837583" lon="13.7325814496243"><ele>202.5</ele><time>2026-05-03T12:17:47.999Z</time></trkpt><trkpt lat="42.66742655207929" lon="13.732215230959545"><ele>203.0</ele><time>2026-05-03T12:17:49Z</time></trkpt><trkpt lat="42.66732067377807" lon="13.731858733046874"><ele>203.5</ele><time>2026-05-03T12:17:50Z</time></trkpt><trkpt lat="42.667201185576666" lon="13.731510102855992"><ele>204.0</ele><time>2026-05-03T12:17:51Z</time></trkpt><trkpt lat="42.66705878791783" lon="13.731173524572162"><ele>205.5</ele><time>2026-05-03T12:17:52Z</time></trkpt><trkpt lat="42.66690820165641" lon="13.730848785569718"><ele>207.0</ele><time>2026-05-03T12:17:53Z</time></trkpt><trkpt lat="42.666743682507175" lon="13.730532109351618"><ele>207.0</ele><time>2026-05-03T12:17:54Z</time></trkpt><trkpt lat="42.66656718635447" lon="13.730231782722612"><ele>207.0</ele><time>2026-05-03T12:17:55Z</time></trkpt><trkpt lat="42.666372206826885" lon="13.729950595361526"><ele>206.0</ele><time>2026-05-03T12:17:56Z</time></trkpt><trkpt lat="42.66616400965761" lon="13.729690442329453"><ele>205.0</ele><time>2026-05-03T12:17:57Z</time></trkpt><trkpt lat="42.665946360284515" lon="13.729443914508039"><ele>206.5</ele><time>2026-05-03T12:17:58Z</time></trkpt><trkpt lat="42.66571514144703" lon="13.729219404139668"><ele>208.0</ele><time>2026-05-03T12:17:59Z</time></trkpt><trkpt lat="42.665478370010646" lon="13.729010398886603"><ele>207.0</ele><time>2026-05-03T12:18:00Z</time></trkpt><trkpt lat="42.6652246512876" lon="13.72882931293044"><ele>206.0</ele><time>2026-05-03T12:18:01Z</time></trkpt><trkpt lat="42.66496995552578" lon="13.728653494591832"><ele>208.0</ele><time>2026-05-03T12:18:02Z</time></trkpt><trkpt lat="42.66470991482365" lon="13.728485899198473"><ele>210.0</ele><time>2026-05-03T12:18:03Z</time></trkpt><trkpt lat="42.66445144175178" lon="13.728315130417371"><ele>209.5</ele><time>2026-05-03T12:18:04Z</time></trkpt><trkpt lat="42.66420169874949" lon="13.72814495393534"><ele>209.0</ele><time>2026-05-03T12:18:05Z</time></trkpt><trkpt lat="42.663958070454214" lon="13.727979111242785"><ele>209.0</ele><time>2026-05-03T12:18:06Z</time></trkpt><trkpt lat="42.663715236384355" lon="13.727803169357278"><ele>209.0</ele><time>2026-05-03T12:18:07Z</time></trkpt><trkpt lat="42.66347725903664" lon="13.727615006703918"><ele>211.0</ele><time>2026-05-03T12:18:08Z</time></trkpt><trkpt lat="42.6632445240538" lon="13.727415764688578"><ele>213.0</ele><time>2026-05-03T12:18:09Z</time></trkpt><trkpt lat="42.663017661287086" lon="13.727203936098405"><ele>213.0</ele><time>2026-05-03T12:18:10Z</time></trkpt><trkpt lat="42.662797075543345" lon="13.726980930314875"><ele>213.0</ele><time>2026-05-03T12:18:11Z</time></trkpt><trkpt lat="42.66258502357168" lon="13.726740039918276"><ele>212.5</ele><time>2026-05-03T12:18:12Z</time></trkpt><trkpt lat="42.662377211123555" lon="13.726491025195159"><ele>212.0</ele><time>2026-05-03T12:18:13Z</time></trkpt><trkpt lat="42.662174346284395" lon="13.72623605111674"><ele>213.5</ele><time>2026-05-03T12:18:14Z</time></trkpt><trkpt lat="42.66197608085412" lon="13.725970719334196"><ele>215.0</ele><time>2026-05-03T12:18:15Z</time></trkpt><trkpt lat="42.66177921460447" lon="13.725705508698855"><ele>212.0</ele><time>2026-05-03T12:18:16Z</time></trkpt><trkpt lat="42.66158215598693" lon="13.7254423012758"><ele>209.0</ele><time>2026-05-03T12:18:17Z</time></trkpt><trkpt lat="42.661394601191695" lon="13.725193203886652"><ele>208.5</ele><time>2026-05-03T12:18:18Z</time></trkpt><trkpt lat="42.66121757230435" lon="13.724955731530958"><ele>208.0</ele><time>2026-05-03T12:18:19Z</time></trkpt><trkpt lat="42.66104688586529" lon="13.724738781132425"><ele>209.0</ele><time>2026-05-03T12:18:20Z</time></trkpt><trkpt lat="42.660878878539194" lon="13.724538416184979"><ele>210.0</ele><time>2026-05-03T12:18:21Z</time></trkpt><trkpt lat="42.660715858664084" lon="13.72435178870844"><ele>211.0</ele><time>2026-05-03T12:18:22Z</time></trkpt><trkpt lat="42.66055686323747" lon="13.724185244409606"><ele>211.0</ele><time>2026-05-03T12:18:23Z</time></trkpt><trkpt lat="42.66039976258168" lon="13.72403291651296"><ele>211.0</ele><time>2026-05-03T12:18:24Z</time></trkpt><trkpt lat="42.66024928078326" lon="13.723891845202619"><ele>211.0</ele><time>2026-05-03T12:18:25Z</time></trkpt><trkpt lat="42.660106247520645" lon="13.723756951553572"><ele>211.33333333333331</ele><time>2026-05-03T12:18:26Z</time></trkpt><trkpt lat="42.65996931296534" lon="13.723635084372185"><ele>211.66666666666669</ele><time>2026-05-03T12:18:27Z</time></trkpt><trkpt lat="42.65983470927859" lon="13.723524093128752"><ele>212.0</ele><time>2026-05-03T12:18:28Z</time></trkpt><trkpt lat="42.65969206461624" lon="13.723416598727187"><ele>212.33333333333334</ele><time>2026-05-03T12:18:29Z</time></trkpt><trkpt lat="42.65955489371043" lon="13.723323900775416"><ele>212.66666666666669</ele><time>2026-05-03T12:18:30Z</time></trkpt><trkpt lat="42.65941054625029" lon="13.723241253951405"><ele>213.0</ele><time>2026-05-03T12:18:31Z</time></trkpt><trkpt lat="42.659259562680475" lon="13.72316176084627"><ele>213.33333333333331</ele><time>2026-05-03T12:18:32Z</time></trkpt><trkpt lat="42.65911703908094" lon="13.723085572889811"><ele>213.66666666666666</ele><time>2026-05-03T12:18:33Z</time></trkpt><trkpt lat="42.65897984207872" lon="13.723002066398754"><ele>214.0</ele><time>2026-05-03T12:18:34Z</time></trkpt><trkpt lat="42.658850177548295" lon="13.722908116838102"><ele>214.0</ele><time>2026-05-03T12:18:35Z</time></trkpt><trkpt lat="42.658731420523914" lon="13.722804393295954"><ele>214.0</ele><time>2026-05-03T12:18:36Z</time></trkpt><trkpt lat="42.65862307792765" lon="13.722695645918018"><ele>214.0</ele><time>2026-05-03T12:18:37Z</time></trkpt><trkpt lat="42.65852344538723" lon="13.722589013743422"><ele>214.0</ele><time>2026-05-03T12:18:38Z</time></trkpt><trkpt lat="42.65845178442143" lon="13.722485788333097"><ele>214.0</ele><time>2026-05-03T12:18:39Z</time></trkpt><trkpt lat="42.65842150412903" lon="13.722405498629184"><ele>213.99999999999997</ele><time>2026-05-03T12:18:40Z</time></trkpt><trkpt lat="42.658405817212525" lon="13.722257307166633"><ele>213.99999999999997</ele><time>2026-05-03T12:18:42Z</time></trkpt><trkpt lat="42.6584081772305" lon="13.722132722526416"><ele>214.0</ele><time>2026-05-03T12:18:43Z</time></trkpt><trkpt lat="42.65838849152865" lon="13.721995473500298"><ele>214.0</ele><time>2026-05-03T12:18:44Z</time></trkpt><trkpt lat="42.65833146275461" lon="13.72189603132283"><ele>214.0</ele><time>2026-05-03T12:18:45Z</time></trkpt><trkpt lat="42.65824497651814" lon="13.721822607822048"><ele>213.99999999999997</ele><time>2026-05-03T12:18:46Z</time></trkpt><trkpt lat="42.65814446100574" lon="13.721783354674798"><ele>213.99999999999997</ele><time>2026-05-03T12:18:47Z</time></trkpt><trkpt lat="42.65804154867564" lon="13.721782585520556"><ele>214.0</ele><time>2026-05-03T12:18:48Z</time></trkpt><trkpt lat="42.65792651929305" lon="13.721846846302364"><ele>214.0</ele><time>2026-05-03T12:18:49Z</time></trkpt><trkpt lat="42.65783142414663" lon="13.721900213039087"><ele>214.66666666666666</ele><time>2026-05-03T12:18:50Z</time></trkpt><trkpt lat="42.65767022405718" lon="13.72170054591615"><ele>215.33333333333331</ele><time>2026-05-03T12:18:51Z</time></trkpt><trkpt lat="42.65751425541941" lon="13.721604144160088"><ele>216.0</ele><time>2026-05-03T12:18:52Z</time></trkpt><trkpt lat="42.657351944803395" lon="13.721519407580109"><ele>216.0</ele><time>2026-05-03T12:18:53Z</time></trkpt><trkpt lat="42.657172671813896" lon="13.721401001029792"><ele>216.0</ele><time>2026-05-03T12:18:54Z</time></trkpt><trkpt lat="42.65698159755009" lon="13.72127228435529"><ele>216.0</ele><time>2026-05-03T12:18:55Z</time></trkpt><trkpt lat="42.6567862241608" lon="13.721127645279541"><ele>216.5</ele><time>2026-05-03T12:18:56Z</time></trkpt><trkpt lat="42.65658668962588" lon="13.720965607247196"><ele>217.0</ele><time>2026-05-03T12:18:57Z</time></trkpt><trkpt lat="42.65638133397581" lon="13.720780300089533"><ele>217.0</ele><time>2026-05-03T12:18:58Z</time></trkpt><trkpt lat="42.65617747105173" lon="13.720569104887183"><ele>217.0</ele><time>2026-05-03T12:18:59Z</time></trkpt><trkpt lat="42.65598785346027" lon="13.72035932624166"><ele>217.0</ele><time>2026-05-03T12:19:00Z</time></trkpt><trkpt lat="42.655815337402956" lon="13.720118302080524"><ele>217.0</ele><time>2026-05-03T12:19:01Z</time></trkpt><trkpt lat="42.655625197625824" lon="13.719901226053404"><ele>217.0</ele><time>2026-05-03T12:19:02Z</time></trkpt><trkpt lat="42.65544702268994" lon="13.719662160702702"><ele>217.0</ele><time>2026-05-03T12:19:03Z</time></trkpt><trkpt lat="42.655263245818226" lon="13.719423374409885"><ele>217.0</ele><time>2026-05-03T12:19:04Z</time></trkpt><trkpt lat="42.65507407925282" lon="13.719183748623186"><ele>217.0</ele><time>2026-05-03T12:19:05Z</time></trkpt><trkpt lat="42.654883838755815" lon="13.718941175478735"><ele>217.0</ele><time>2026-05-03T12:19:06Z</time></trkpt><trkpt lat="42.65468342833846" lon="13.718683148371632"><ele>217.0</ele><time>2026-05-03T12:19:06.999Z</time></trkpt><trkpt lat="42.65449227353126" lon="13.718433918640484"><ele>225.0</ele><time>2026-05-03T12:19:07.999Z</time></trkpt><trkpt lat="42.6543155352951" lon="13.718201042597133"><ele>233.0</ele><time>2026-05-03T12:19:08.999Z</time></trkpt><trkpt lat="42.654151192228" lon="13.717985876527642"><ele>233.0</ele><time>2026-05-03T12:19:09.999Z</time></trkpt><trkpt lat="42.653997024347056" lon="13.717783146121322"><ele>233.0</ele><time>2026-05-03T12:19:10.999Z</time></trkpt><trkpt lat="42.65384858448393" lon="13.717585945764867"><ele>233.0</ele><time>2026-05-03T12:19:11.999Z</time></trkpt><trkpt lat="42.653708029496606" lon="13.717379658165793"><ele>234.0</ele><time>2026-05-03T12:19:12.999Z</time></trkpt><trkpt lat="42.653589696572425" lon="13.717171730901462"><ele>235.0</ele><time>2026-05-03T12:19:13.999Z</time></trkpt><trkpt lat="42.65351807751327" lon="13.716952780410935"><ele>236.0</ele><time>2026-05-03T12:19:14.999Z</time></trkpt><trkpt lat="42.653452144794024" lon="13.716702826394824"><ele>232.66666666666669</ele><time>2026-05-03T12:19:15.999Z</time></trkpt><trkpt lat="42.65340895249128" lon="13.716420697654137"><ele>229.33333333333331</ele><time>2026-05-03T12:19:16.999Z</time></trkpt><trkpt lat="42.653387831191544" lon="13.716100693570837"><ele>226.0</ele><time>2026-05-03T12:19:17.999Z</time></trkpt><trkpt lat="42.65338436217648" lon="13.715750931421272"><ele>225.0</ele><time>2026-05-03T12:19:18.999Z</time></trkpt><trkpt lat="42.65338050554139" lon="13.7153710872079"><ele>224.0</ele><time>2026-05-03T12:19:19.999Z</time></trkpt><trkpt lat="42.65337282977807" lon="13.714976592766407"><ele>226.0</ele><time>2026-05-03T12:19:20.999Z</time></trkpt><trkpt lat="42.65336126129027" lon="13.714561790242426"><ele>228.0</ele><time>2026-05-03T12:19:21.999Z</time></trkpt><trkpt lat="42.6533538072631" lon="13.714117220131676"><ele>228.5</ele><time>2026-05-03T12:19:22.999Z</time></trkpt><trkpt lat="42.65334585283287" lon="13.71367396384801"><ele>229.0</ele><time>2026-05-03T12:19:23.999Z</time></trkpt><trkpt lat="42.653334505802235" lon="13.713274446531901"><ele>229.5</ele><time>2026-05-03T12:19:24.999Z</time></trkpt><trkpt lat="42.65332761236847" lon="13.712885557342707"><ele>230.0</ele><time>2026-05-03T12:19:25.999Z</time></trkpt><trkpt lat="42.653323339735756" lon="13.712492657428449"><ele>230.0</ele><time>2026-05-03T12:19:26.999Z</time></trkpt><trkpt lat="42.653314940204474" lon="13.712104319163098"><ele>230.0</ele><time>2026-05-03T12:19:27.999Z</time></trkpt><trkpt lat="42.65330924799321" lon="13.711724618069756"><ele>232.0</ele><time>2026-05-03T12:19:28.999Z</time></trkpt><trkpt lat="42.65330295863538" lon="13.711355634255305"><ele>234.0</ele><time>2026-05-03T12:19:29.999Z</time></trkpt><trkpt lat="42.65329609359985" lon="13.710989004698732"><ele>234.0</ele><time>2026-05-03T12:19:30.999Z</time></trkpt><trkpt lat="42.653290902341816" lon="13.710614463563088"><ele>234.0</ele><time>2026-05-03T12:19:31.999Z</time></trkpt><trkpt lat="42.653283132216494" lon="13.710238926629707"><ele>234.0</ele><time>2026-05-03T12:19:32.999Z</time></trkpt><trkpt lat="42.65327181901836" lon="13.709867526116316"><ele>234.0</ele><time>2026-05-03T12:19:33.999Z</time></trkpt><trkpt lat="42.65326643425875" lon="13.709488270226402"><ele>234.0</ele><time>2026-05-03T12:19:34.999Z</time></trkpt><trkpt lat="42.653260005507065" lon="13.709111336081593"><ele>234.0</ele><time>2026-05-03T12:19:35.999Z</time></trkpt><trkpt lat="42.65325106525737" lon="13.708738456064932"><ele>234.5</ele><time>2026-05-03T12:19:36.999Z</time></trkpt><trkpt lat="42.653244948256884" lon="13.70839125291671"><ele>235.0</ele><time>2026-05-03T12:19:37.999Z</time></trkpt><trkpt lat="42.653239005689585" lon="13.708059597176348"><ele>240.5</ele><time>2026-05-03T12:19:38.999Z</time></trkpt><trkpt lat="42.65323145551833" lon="13.707728637616318"><ele>246.0</ele><time>2026-05-03T12:19:39.999Z</time></trkpt><trkpt lat="42.653226703036665" lon="13.707392958996236"><ele>246.0</ele><time>2026-05-03T12:19:40.999Z</time></trkpt><trkpt lat="42.65322139031045" lon="13.70705889678971"><ele>246.0</ele><time>2026-05-03T12:19:41.999Z</time></trkpt><trkpt lat="42.65321644162666" lon="13.706722804969766"><ele>249.0</ele><time>2026-05-03T12:19:42.999Z</time></trkpt><trkpt lat="42.65321565594646" lon="13.706390539805318"><ele>252.0</ele><time>2026-05-03T12:19:43.999Z</time></trkpt><trkpt lat="42.653215824423974" lon="13.706057661892421"><ele>257.5</ele><time>2026-05-03T12:19:44.999Z</time></trkpt><trkpt lat="42.65320997401739" lon="13.705697126576208"><ele>263.0</ele><time>2026-05-03T12:19:46.077Z</time></trkpt><trkpt lat="42.653202241365776" lon="13.70537277907051"><ele>267.5</ele><time>2026-05-03T12:19:47.069Z</time></trkpt><trkpt lat="42.65320277700635" lon="13.705034947372317"><ele>272.0</ele><time>2026-05-03T12:19:48.065Z</time></trkpt><trkpt lat="42.653186346193834" lon="13.704691592076877"><ele>270.0</ele><time>2026-05-03T12:19:49.061Z</time></trkpt><trkpt lat="42.65315832909257" lon="13.704355832814729"><ele>268.0</ele><time>2026-05-03T12:19:50.062Z</time></trkpt><trkpt lat="42.65414486786878" lon="13.701932988284002"><ele>258.0</ele><time>2026-05-03T12:19:57.999Z</time></trkpt><trkpt lat="42.65427079228303" lon="13.701618310275354"><ele>248.0</ele><time>2026-05-03T12:19:58.999Z</time></trkpt><trkpt lat="42.654411835948345" lon="13.70122342423473"><ele>244.5</ele><time>2026-05-03T12:19:59.999Z</time></trkpt><trkpt lat="42.65458801244222" lon="13.70090064397051"><ele>241.0</ele><time>2026-05-03T12:20:00.999Z</time></trkpt><trkpt lat="42.654715390573195" lon="13.700627396705155"><ele>241.0</ele><time>2026-05-03T12:20:01.999Z</time></trkpt><trkpt lat="42.65481631070518" lon="13.700374933805094"><ele>241.0</ele><time>2026-05-03T12:20:02.999Z</time></trkpt><trkpt lat="42.654928218133506" lon="13.70012975177705"><ele>241.0</ele><time>2026-05-03T12:20:04Z</time></trkpt><trkpt lat="42.65504234571147" lon="13.699904255542974"><ele>241.0</ele><time>2026-05-03T12:20:05Z</time></trkpt><trkpt lat="42.65515607305248" lon="13.699693431323022"><ele>241.0</ele><time>2026-05-03T12:20:06Z</time></trkpt><trkpt lat="42.65527506911842" lon="13.699504157992928"><ele>241.0</ele><time>2026-05-03T12:20:07Z</time></trkpt><trkpt lat="42.65541521134662" lon="13.699332208519937"><ele>241.66666666666666</ele><time>2026-05-03T12:20:08Z</time></trkpt><trkpt lat="42.65556380740643" lon="13.699194713004449"><ele>242.33333333333331</ele><time>2026-05-03T12:20:09Z</time></trkpt><trkpt lat="42.65571494968951" lon="13.69907326332844"><ele>243.0</ele><time>2026-05-03T12:20:10Z</time></trkpt><trkpt lat="42.65588580949291" lon="13.698937428222056"><ele>243.0</ele><time>2026-05-03T12:20:11Z</time></trkpt><trkpt lat="42.6560647917666" lon="13.698793306461862"><ele>243.0</ele><time>2026-05-03T12:20:12Z</time></trkpt><trkpt lat="42.65624590427271" lon="13.69864492547753"><ele>243.0</ele><time>2026-05-03T12:20:13Z</time></trkpt><trkpt lat="42.65642254826344" lon="13.698480223667548"><ele>249.5</ele><time>2026-05-03T12:20:14Z</time></trkpt><trkpt lat="42.65658005703999" lon="13.698285132414329"><ele>256.0</ele><time>2026-05-03T12:20:15Z</time></trkpt><trkpt lat="42.65674061211282" lon="13.698047062109996"><ele>256.0</ele><time>2026-05-03T12:20:16Z</time></trkpt><trkpt lat="42.65689807187289" lon="13.697769224640949"><ele>256.0</ele><time>2026-05-03T12:20:17Z</time></trkpt><trkpt lat="42.65703210278179" lon="13.697468241163634"><ele>260.0</ele><time>2026-05-03T12:20:18Z</time></trkpt><trkpt lat="42.65713783754614" lon="13.69715043633072"><ele>264.0</ele><time>2026-05-03T12:20:19Z</time></trkpt><trkpt lat="42.65722881676193" lon="13.696794985418919"><ele>265.0</ele><time>2026-05-03T12:20:20.081Z</time></trkpt><trkpt lat="42.65728529657706" lon="13.696465726912281"><ele>266.0</ele><time>2026-05-03T12:20:21.069Z</time></trkpt><trkpt lat="42.65731416960703" lon="13.696128099735935"><ele>266.5</ele><time>2026-05-03T12:20:22.068Z</time></trkpt><trkpt lat="42.65732701980996" lon="13.695780659664692"><ele>267.0</ele><time>2026-05-03T12:20:23.068Z</time></trkpt><trkpt lat="42.657313410686605" lon="13.695420752997105"><ele>266.5</ele><time>2026-05-03T12:20:24.068Z</time></trkpt><trkpt lat="42.65729815549234" lon="13.695061207260204"><ele>266.0</ele><time>2026-05-03T12:20:25.06Z</time></trkpt><trkpt lat="42.65667857305723" lon="13.693099435721363"><ele>263.0</ele><time>2026-05-03T12:20:35Z</time></trkpt><trkpt lat="42.65656267176918" lon="13.692969419667387"><ele>260.0</ele><time>2026-05-03T12:20:36Z</time></trkpt><trkpt lat="42.65581570742751" lon="13.692761541873383"><ele>242.0</ele><time>2026-05-03T12:20:37Z</time></trkpt><trkpt lat="42.655087801143885" lon="13.692256674678413"><ele>242.0</ele><time>2026-05-03T12:20:38Z</time></trkpt><trkpt lat="42.654874483375345" lon="13.69208307000917"><ele>242.0</ele><time>2026-05-03T12:20:39Z</time></trkpt><trkpt lat="42.654612258137774" lon="13.691863365321908"><ele>254.0</ele><time>2026-05-03T12:20:40Z</time></trkpt><trkpt lat="42.65442169987256" lon="13.691671167066508"><ele>266.0</ele><time>2026-05-03T12:20:41Z</time></trkpt><trkpt lat="42.654244075299985" lon="13.691470033336683"><ele>266.0</ele><time>2026-05-03T12:20:42Z</time></trkpt><trkpt lat="42.654069574567686" lon="13.691248314296615"><ele>266.0</ele><time>2026-05-03T12:20:43Z</time></trkpt><trkpt lat="42.65390385244125" lon="13.691008310547238"><ele>265.5</ele><time>2026-05-03T12:20:44Z</time></trkpt><trkpt lat="42.65375432254549" lon="13.690751668981653"><ele>265.0</ele><time>2026-05-03T12:20:45Z</time></trkpt><trkpt lat="42.65361737619494" lon="13.690476561629746"><ele>268.0</ele><time>2026-05-03T12:20:46Z</time></trkpt><trkpt lat="42.65349575631742" lon="13.690183429591894"><ele>271.0</ele><time>2026-05-03T12:20:47Z</time></trkpt><trkpt lat="42.65338046101358" lon="13.689857126182131"><ele>271.0</ele><time>2026-05-03T12:20:48.07Z</time></trkpt><trkpt lat="42.65327893480478" lon="13.689553612517942"><ele>271.0</ele><time>2026-05-03T12:20:49.059Z</time></trkpt><trkpt lat="42.65318088615019" lon="13.68925503358517"><ele>278.5</ele><time>2026-05-03T12:20:50.057Z</time></trkpt><trkpt lat="42.65278015554284" lon="13.688988912917226"><ele>286.0</ele><time>2026-05-03T12:20:52Z</time></trkpt><trkpt lat="42.65267290013571" lon="13.688737762060661"><ele>282.0</ele><time>2026-05-03T12:20:53Z</time></trkpt><trkpt lat="42.65277851861553" lon="13.688259957953177"><ele>278.0</ele><time>2026-05-03T12:20:54Z</time></trkpt><trkpt lat="42.652620160433415" lon="13.687954025931223"><ele>276.5</ele><time>2026-05-03T12:20:55Z</time></trkpt><trkpt lat="42.65245448579803" lon="13.687690900547565"><ele>275.0</ele><time>2026-05-03T12:20:56Z</time></trkpt><trkpt lat="42.65228703429767" lon="13.68748062886904"><ele>275.0</ele><time>2026-05-03T12:20:57Z</time></trkpt><trkpt lat="42.652094623862354" lon="13.687287378944626"><ele>275.0</ele><time>2026-05-03T12:20:58Z</time></trkpt><trkpt lat="42.65187526097761" lon="13.68710373832246"><ele>278.0</ele><time>2026-05-03T12:20:59Z</time></trkpt><trkpt lat="42.65164289120184" lon="13.68695970276495"><ele>281.0</ele><time>2026-05-03T12:21:00Z</time></trkpt><trkpt lat="42.651415436673524" lon="13.686802076239985"><ele>277.5</ele><time>2026-05-03T12:21:01Z</time></trkpt><trkpt lat="42.65118103066776" lon="13.686649648589418"><ele>274.0</ele><time>2026-05-03T12:21:02Z</time></trkpt><trkpt lat="42.65095443628478" lon="13.686473555075018"><ele>274.0</ele><time>2026-05-03T12:21:03Z</time></trkpt><trkpt lat="42.65073673494112" lon="13.68625320843454"><ele>274.0</ele><time>2026-05-03T12:21:04Z</time></trkpt><trkpt lat="42.65053706270763" lon="13.685998853702005"><ele>275.0</ele><time>2026-05-03T12:21:05Z</time></trkpt><trkpt lat="42.65034569436948" lon="13.685721919136396"><ele>276.0</ele><time>2026-05-03T12:21:06Z</time></trkpt><trkpt lat="42.650158106797264" lon="13.685424480854735"><ele>272.0</ele><time>2026-05-03T12:21:07Z</time></trkpt><trkpt lat="42.649966057442256" lon="13.685119657821973"><ele>268.0</ele><time>2026-05-03T12:21:08Z</time></trkpt><trkpt lat="42.649777166412115" lon="13.684785416931119"><ele>268.0</ele><time>2026-05-03T12:21:09Z</time></trkpt><trkpt lat="42.649565333410905" lon="13.684433886909577"><ele>268.0</ele><time>2026-05-03T12:21:10Z</time></trkpt><trkpt lat="42.64934400150688" lon="13.684066593764696"><ele>270.5</ele><time>2026-05-03T12:21:11Z</time></trkpt><trkpt lat="42.64911311188918" lon="13.683683439907462"><ele>273.0</ele><time>2026-05-03T12:21:12Z</time></trkpt><trkpt lat="42.648860880298706" lon="13.683299216821226"><ele>275.5</ele><time>2026-05-03T12:21:13Z</time></trkpt><trkpt lat="42.648615845892024" lon="13.682887801942092"><ele>278.0</ele><time>2026-05-03T12:21:14Z</time></trkpt><trkpt lat="42.648356643181785" lon="13.682468436903562"><ele>270.5</ele><time>2026-05-03T12:21:15Z</time></trkpt><trkpt lat="42.648085453543274" lon="13.682042978056373"><ele>263.0</ele><time>2026-05-03T12:21:16Z</time></trkpt><trkpt lat="42.64783213836764" lon="13.681637358998179"><ele>264.5</ele><time>2026-05-03T12:21:17Z</time></trkpt><trkpt lat="42.647601016366856" lon="13.681267978811903"><ele>266.0</ele><time>2026-05-03T12:21:18Z</time></trkpt><trkpt lat="42.647385266518285" lon="13.680915181219593"><ele>266.0</ele><time>2026-05-03T12:21:19Z</time></trkpt><trkpt lat="42.647185134122154" lon="13.680576154403179"><ele>266.0</ele><time>2026-05-03T12:21:20Z</time></trkpt><trkpt lat="42.646994238611406" lon="13.680259034921287"><ele>261.5</ele><time>2026-05-03T12:21:20.999Z</time></trkpt><trkpt lat="42.64681460628802" lon="13.679958990964762"><ele>257.0</ele><time>2026-05-03T12:21:21.999Z</time></trkpt><trkpt lat="42.646642024944555" lon="13.679687053887578"><ele>259.5</ele><time>2026-05-03T12:21:22.999Z</time></trkpt><trkpt lat="42.64646774751278" lon="13.67938386997171"><ele>262.0</ele><time>2026-05-03T12:21:23.999Z</time></trkpt><trkpt lat="42.646302222157" lon="13.67906081712154"><ele>262.0</ele><time>2026-05-03T12:21:24.999Z</time></trkpt><trkpt lat="42.646154842264515" lon="13.678710251314236"><ele>262.0</ele><time>2026-05-03T12:21:25.999Z</time></trkpt><trkpt lat="42.646020071391256" lon="13.678340357881426"><ele>262.0</ele><time>2026-05-03T12:21:26.999Z</time></trkpt><trkpt lat="42.645908415235375" lon="13.677946280526507"><ele>262.0</ele><time>2026-05-03T12:21:27.999Z</time></trkpt><trkpt lat="42.6458106080472" lon="13.677528089384921"><ele>265.0</ele><time>2026-05-03T12:21:28.999Z</time></trkpt><trkpt lat="42.64573491956159" lon="13.677077915784093"><ele>268.0</ele><time>2026-05-03T12:21:29.999Z</time></trkpt><trkpt lat="42.645671689066546" lon="13.676603544962639"><ele>272.0</ele><time>2026-05-03T12:21:30.999Z</time></trkpt><trkpt lat="42.645612964204965" lon="13.676113846320627"><ele>276.0</ele><time>2026-05-03T12:21:31.999Z</time></trkpt><trkpt lat="42.64555780645997" lon="13.675671797534157"><ele>281.0</ele><time>2026-05-03T12:21:32.999Z</time></trkpt><trkpt lat="42.64550582973569" lon="13.675266556566184"><ele>286.0</ele><time>2026-05-03T12:21:33.999Z</time></trkpt><trkpt lat="42.645461513453554" lon="13.674896964472785"><ele>286.0</ele><time>2026-05-03T12:21:34.999Z</time></trkpt><trkpt lat="42.64541825571811" lon="13.67455988704832"><ele>286.0</ele><time>2026-05-03T12:21:35.999Z</time></trkpt><trkpt lat="42.64536932119435" lon="13.674249632456734"><ele>286.5</ele><time>2026-05-03T12:21:36.999Z</time></trkpt><trkpt lat="42.645285125006964" lon="13.673948312757766"><ele>287.0</ele><time>2026-05-03T12:21:37.999Z</time></trkpt><trkpt lat="42.64517013377441" lon="13.67366899504169"><ele>289.33333333333337</ele><time>2026-05-03T12:21:38.999Z</time></trkpt><trkpt lat="42.64507236786172" lon="13.673421694930632"><ele>291.6666666666667</ele><time>2026-05-03T12:21:39.999Z</time></trkpt><trkpt lat="42.644975709375046" lon="13.673194579953629"><ele>294.0</ele><time>2026-05-03T12:21:40.999Z</time></trkpt><trkpt lat="42.64489198473126" lon="13.672992355709335"><ele>294.0</ele><time>2026-05-03T12:21:41.999Z</time></trkpt><trkpt lat="42.644819398206636" lon="13.6728078588567"><ele>294.0</ele><time>2026-05-03T12:21:42.999Z</time></trkpt><trkpt lat="42.644754669072704" lon="13.672640517850239"><ele>294.0</ele><time>2026-05-03T12:21:43.999Z</time></trkpt><trkpt lat="42.644704352510445" lon="13.672484417074601"><ele>294.0</ele><time>2026-05-03T12:21:44.999Z</time></trkpt><trkpt lat="42.6446728805867" lon="13.67234628317921"><ele>294.6666666666667</ele><time>2026-05-03T12:21:45.999Z</time></trkpt><trkpt lat="42.644658987903526" lon="13.672224352901322"><ele>295.3333333333333</ele><time>2026-05-03T12:21:46.999Z</time></trkpt><trkpt lat="42.64466687956808" lon="13.672116980077297"><ele>296.0</ele><time>2026-05-03T12:21:47.999Z</time></trkpt><trkpt lat="42.644695352489386" lon="13.672024681062114"><ele>296.66666666666663</ele><time>2026-05-03T12:21:48.999Z</time></trkpt><trkpt lat="42.64473554884302" lon="13.671924985990717"><ele>297.3333333333333</ele><time>2026-05-03T12:21:49.999Z</time></trkpt><trkpt lat="42.644756591606495" lon="13.671807200257712"><ele>298.0</ele><time>2026-05-03T12:21:50.999Z</time></trkpt><trkpt lat="42.64473828191578" lon="13.671683807220843"><ele>297.0</ele><time>2026-05-03T12:21:51.999Z</time></trkpt><trkpt lat="42.64468393176942" lon="13.671578385904867"><ele>296.0</ele><time>2026-05-03T12:21:52.999Z</time></trkpt><trkpt lat="42.64460631328032" lon="13.67148868026397"><ele>295.0</ele><time>2026-05-03T12:21:53.999Z</time></trkpt><trkpt lat="42.64451469359396" lon="13.671405373100301"><ele>294.0</ele><time>2026-05-03T12:21:54.999Z</time></trkpt><trkpt lat="42.64442715300704" lon="13.67130629565438"><ele>293.0</ele><time>2026-05-03T12:21:55.999Z</time></trkpt><trkpt lat="42.64434566286647" lon="13.671179532335067"><ele>292.25</ele><time>2026-05-03T12:21:56.999Z</time></trkpt><trkpt lat="42.64426672349384" lon="13.671067533848746"><ele>291.5</ele><time>2026-05-03T12:21:57.999Z</time></trkpt><trkpt lat="42.64417385075013" lon="13.67096388835046"><ele>290.75</ele><time>2026-05-03T12:21:58.999Z</time></trkpt><trkpt lat="42.64407682893599" lon="13.670847255192575"><ele>290.0</ele><time>2026-05-03T12:21:59.999Z</time></trkpt><trkpt lat="42.6439758918231" lon="13.670728477800328"><ele>290.0</ele><time>2026-05-03T12:22:00.999Z</time></trkpt><trkpt lat="42.64387651495701" lon="13.67061363694989"><ele>290.0</ele><time>2026-05-03T12:22:01.999Z</time></trkpt><trkpt lat="42.64377156208645" lon="13.670491005962571"><ele>290.0</ele><time>2026-05-03T12:22:02.999Z</time></trkpt><trkpt lat="42.64366555121365" lon="13.670367542450833"><ele>290.0</ele><time>2026-05-03T12:22:03.999Z</time></trkpt><trkpt lat="42.64355755845409" lon="13.670236721160832"><ele>291.6666666666667</ele><time>2026-05-03T12:22:04.999Z</time></trkpt><trkpt lat="42.643444909036006" lon="13.670100437579363"><ele>293.3333333333333</ele><time>2026-05-03T12:22:05.999Z</time></trkpt><trkpt lat="42.643328462415084" lon="13.669963921897676"><ele>295.0</ele><time>2026-05-03T12:22:06.999Z</time></trkpt><trkpt lat="42.643210216665295" lon="13.669828237888161"><ele>295.0</ele><time>2026-05-03T12:22:07.999Z</time></trkpt><trkpt lat="42.6430953102111" lon="13.669694767837216"><ele>295.0</ele><time>2026-05-03T12:22:09Z</time></trkpt><trkpt lat="42.64298214114803" lon="13.669566269105522"><ele>295.0</ele><time>2026-05-03T12:22:10Z</time></trkpt><trkpt lat="42.642865516560946" lon="13.669444515560283"><ele>295.0</ele><time>2026-05-03T12:22:11Z</time></trkpt><trkpt lat="42.642748773790785" lon="13.669332080016773"><ele>297.0</ele><time>2026-05-03T12:22:12Z</time></trkpt><trkpt lat="42.64262454488293" lon="13.6692327747422"><ele>299.0</ele><time>2026-05-03T12:22:13Z</time></trkpt><trkpt lat="42.64249412626827" lon="13.669147212694497"><ele>301.0</ele><time>2026-05-03T12:22:14Z</time></trkpt><trkpt lat="42.64235749897621" lon="13.669077051165583"><ele>303.0</ele><time>2026-05-03T12:22:15Z</time></trkpt><trkpt lat="42.64220956774573" lon="13.66901475055774"><ele>303.0</ele><time>2026-05-03T12:22:16Z</time></trkpt><trkpt lat="42.64205879721684" lon="13.66895972580992"><ele>303.0</ele><time>2026-05-03T12:22:17Z</time></trkpt><trkpt lat="42.64191189936273" lon="13.66890961207479"><ele>303.0</ele><time>2026-05-03T12:22:18Z</time></trkpt><trkpt lat="42.64177498414854" lon="13.66885362233949"><ele>299.0</ele><time>2026-05-03T12:22:19Z</time></trkpt><trkpt lat="42.64165100584622" lon="13.66873885358045"><ele>295.0</ele><time>2026-05-03T12:22:20Z</time></trkpt><trkpt lat="42.64152484744096" lon="13.668599763338909"><ele>291.0</ele><time>2026-05-03T12:22:21Z</time></trkpt><trkpt lat="42.64138214969409" lon="13.668451807209454"><ele>294.3333333333333</ele><time>2026-05-03T12:22:22Z</time></trkpt><trkpt lat="42.64122280858119" lon="13.6682964707905"><ele>297.66666666666663</ele><time>2026-05-03T12:22:23Z</time></trkpt><trkpt lat="42.64104678307616" lon="13.668127511946835"><ele>301.0</ele><time>2026-05-03T12:22:24Z</time></trkpt><trkpt lat="42.64085232067904" lon="13.667942486822282"><ele>315.0</ele><time>2026-05-03T12:22:25Z</time></trkpt><trkpt lat="42.64063349011203" lon="13.667755421851233"><ele>329.0</ele><time>2026-05-03T12:22:26Z</time></trkpt><trkpt lat="42.64039918163406" lon="13.66759305501373"><ele>324.6666666666667</ele><time>2026-05-03T12:22:27Z</time></trkpt><trkpt lat="42.640178905201935" lon="13.667468728137079"><ele>320.3333333333333</ele><time>2026-05-03T12:22:28Z</time></trkpt><trkpt lat="42.639980073837876" lon="13.667399770884307"><ele>316.0</ele><time>2026-05-03T12:22:29Z</time></trkpt><trkpt lat="42.6397944141804" lon="13.66737204217187"><ele>316.0</ele><time>2026-05-03T12:22:30Z</time></trkpt><trkpt lat="42.639614565290316" lon="13.667342770080987"><ele>316.0</ele><time>2026-05-03T12:22:31Z</time></trkpt><trkpt lat="42.639412255660204" lon="13.667262837062893"><ele>316.0</ele><time>2026-05-03T12:22:32Z</time></trkpt><trkpt lat="42.639198336889464" lon="13.667111176673243"><ele>325.0</ele><time>2026-05-03T12:22:33Z</time></trkpt><trkpt lat="42.63895278783545" lon="13.666935875542054"><ele>334.0</ele><time>2026-05-03T12:22:34Z</time></trkpt><trkpt lat="42.63872924535086" lon="13.666794166148506"><ele>330.66666666666663</ele><time>2026-05-03T12:22:35Z</time></trkpt><trkpt lat="42.63852799294245" lon="13.666657933549223"><ele>327.3333333333333</ele><time>2026-05-03T12:22:36Z</time></trkpt><trkpt lat="42.63834072692316" lon="13.666531272499341"><ele>324.0</ele><time>2026-05-03T12:22:37Z</time></trkpt><trkpt lat="42.638153982220516" lon="13.666392283180087"><ele>324.0</ele><time>2026-05-03T12:22:38Z</time></trkpt><trkpt lat="42.63799044541232" lon="13.666252349357153"><ele>324.0</ele><time>2026-05-03T12:22:39Z</time></trkpt><trkpt lat="42.63784771796383" lon="13.66612120144617"><ele>324.0</ele><time>2026-05-03T12:22:40Z</time></trkpt><trkpt lat="42.63774077311759" lon="13.665995780226988"><ele>324.3333333333333</ele><time>2026-05-03T12:22:41Z</time></trkpt><trkpt lat="42.63765738913952" lon="13.665856998310229"><ele>324.66666666666663</ele><time>2026-05-03T12:22:42Z</time></trkpt><trkpt lat="42.637606754698766" lon="13.665628588462301"><ele>325.0</ele><time>2026-05-03T12:22:43Z</time></trkpt><trkpt lat="42.63751858365854" lon="13.66540057816234"><ele>328.66666666666663</ele><time>2026-05-03T12:22:44Z</time></trkpt><trkpt lat="42.637433245403486" lon="13.665189853411194"><ele>332.3333333333333</ele><time>2026-05-03T12:22:45Z</time></trkpt><trkpt lat="42.63741023974924" lon="13.664987798639363"><ele>336.0</ele><time>2026-05-03T12:22:46Z</time></trkpt><trkpt lat="42.63737629618502" lon="13.664786667286934"><ele>336.0</ele><time>2026-05-03T12:22:47Z</time></trkpt><trkpt lat="42.63732341598072" lon="13.664598840651667"><ele>336.0</ele><time>2026-05-03T12:22:48Z</time></trkpt><trkpt lat="42.637262833626735" lon="13.664428142096828"><ele>336.0</ele><time>2026-05-03T12:22:49Z</time></trkpt><trkpt lat="42.637183611995646" lon="13.664287235186084"><ele>336.0</ele><time>2026-05-03T12:22:50Z</time></trkpt><trkpt lat="42.63709485816501" lon="13.66415700060294"><ele>339.6666666666667</ele><time>2026-05-03T12:22:51Z</time></trkpt><trkpt lat="42.636986528918335" lon="13.664040602537652"><ele>343.33333333333337</ele><time>2026-05-03T12:22:52Z</time></trkpt><trkpt lat="42.63685819177373" lon="13.663933010560603"><ele>347.0</ele><time>2026-05-03T12:22:53Z</time></trkpt><trkpt lat="42.636714439212376" lon="13.66382747632221"><ele>343.40000000000003</ele><time>2026-05-03T12:22:54Z</time></trkpt><trkpt lat="42.6365918623357" lon="13.663737653966667"><ele>339.8</ele><time>2026-05-03T12:22:55Z</time></trkpt><trkpt lat="42.636495612502436" lon="13.663668384510697"><ele>336.2</ele><time>2026-05-03T12:22:56Z</time></trkpt><trkpt lat="42.63642728951209" lon="13.663615154529328"><ele>332.6</ele><time>2026-05-03T12:22:57Z</time></trkpt><trkpt lat="42.63637672323236" lon="13.663552666105117"><ele>329.0</ele><time>2026-05-03T12:22:58Z</time></trkpt><trkpt lat="42.636300360812434" lon="13.663422975051736"><ele>329.0</ele><time>2026-05-03T12:23:00Z</time></trkpt><trkpt lat="42.63623255955982" lon="13.663396141460185"><ele>329.0</ele><time>2026-05-03T12:23:01Z</time></trkpt><trkpt lat="42.636131591068796" lon="13.66338669366963"><ele>329.0</ele><time>2026-05-03T12:23:02Z</time></trkpt><trkpt lat="42.636016444931435" lon="13.663331343306105"><ele>329.0</ele><time>2026-05-03T12:23:03Z</time></trkpt><trkpt lat="42.635902025013884" lon="13.663242878467674"><ele>329.0</ele><time>2026-05-03T12:23:04Z</time></trkpt><trkpt lat="42.635760895074256" lon="13.663139248310035"><ele>327.33333333333337</ele><time>2026-05-03T12:23:05Z</time></trkpt><trkpt lat="42.635612462473645" lon="13.663015475425668"><ele>325.6666666666667</ele><time>2026-05-03T12:23:06Z</time></trkpt><trkpt lat="42.63544097741481" lon="13.662887138003574"><ele>324.0</ele><time>2026-05-03T12:23:07Z</time></trkpt><trkpt lat="42.63523098262465" lon="13.662731605310325"><ele>322.0</ele><time>2026-05-03T12:23:08Z</time></trkpt><trkpt lat="42.63499417922848" lon="13.662556449522397"><ele>320.0</ele><time>2026-05-03T12:23:09Z</time></trkpt><trkpt lat="42.63475180735376" lon="13.662377174907256"><ele>320.0</ele><time>2026-05-03T12:23:10Z</time></trkpt><trkpt lat="42.63453044334796" lon="13.662217279906095"><ele>320.0</ele><time>2026-05-03T12:23:11Z</time></trkpt><trkpt lat="42.6343391271304" lon="13.662078877542855"><ele>319.0</ele><time>2026-05-03T12:23:12Z</time></trkpt><trkpt lat="42.634163901070295" lon="13.661953559977006"><ele>318.0</ele><time>2026-05-03T12:23:13Z</time></trkpt><trkpt lat="42.63399606546224" lon="13.661858863268147"><ele>317.0</ele><time>2026-05-03T12:23:14Z</time></trkpt><trkpt lat="42.633875368431575" lon="13.661734748562973"><ele>317.0</ele><time>2026-05-03T12:23:15Z</time></trkpt><trkpt lat="42.63376376806012" lon="13.661610301330033"><ele>317.0</ele><time>2026-05-03T12:23:16Z</time></trkpt><trkpt lat="42.63366292343323" lon="13.661444866235081"><ele>317.0</ele><time>2026-05-03T12:23:17Z</time></trkpt><trkpt lat="42.63357957946469" lon="13.661250182914337"><ele>318.6666666666667</ele><time>2026-05-03T12:23:18Z</time></trkpt><trkpt lat="42.63349742119774" lon="13.661021202344173"><ele>320.3333333333333</ele><time>2026-05-03T12:23:19Z</time></trkpt><trkpt lat="42.633409806495365" lon="13.66080666436216"><ele>322.0</ele><time>2026-05-03T12:23:20Z</time></trkpt><trkpt lat="42.633337599525035" lon="13.66060500205129"><ele>322.0</ele><time>2026-05-03T12:23:21Z</time></trkpt><trkpt lat="42.63325911788993" lon="13.660435123823927"><ele>322.0</ele><time>2026-05-03T12:23:22Z</time></trkpt><trkpt lat="42.63316507525476" lon="13.660293975928079"><ele>322.0</ele><time>2026-05-03T12:23:22.999Z</time></trkpt><trkpt lat="42.63303477610527" lon="13.66017174062389"><ele>322.0</ele><time>2026-05-03T12:23:23.999Z</time></trkpt><trkpt lat="42.63286641735523" lon="13.660046999478698"><ele>323.5</ele><time>2026-05-03T12:23:24.999Z</time></trkpt><trkpt lat="42.63265530550977" lon="13.659915520171838"><ele>325.0</ele><time>2026-05-03T12:23:25.999Z</time></trkpt><trkpt lat="42.63243216601756" lon="13.65977163196145"><ele>325.0</ele><time>2026-05-03T12:23:26.999Z</time></trkpt><trkpt lat="42.632185698630515" lon="13.659604598086043"><ele>325.0</ele><time>2026-05-03T12:23:27.999Z</time></trkpt><trkpt lat="42.63196115853947" lon="13.65945621345327"><ele>326.0</ele><time>2026-05-03T12:23:28.999Z</time></trkpt><trkpt lat="42.63176528864515" lon="13.659319314604504"><ele>327.0</ele><time>2026-05-03T12:23:29.999Z</time></trkpt><trkpt lat="42.63158396900157" lon="13.659200847735098"><ele>328.0</ele><time>2026-05-03T12:23:30.999Z</time></trkpt><trkpt lat="42.63141565554229" lon="13.659061544425516"><ele>328.0</ele><time>2026-05-03T12:23:31.999Z</time></trkpt><trkpt lat="42.63122215387603" lon="13.658949998939736"><ele>328.0</ele><time>2026-05-03T12:23:32.999Z</time></trkpt><trkpt lat="42.631044342647755" lon="13.65882214527486"><ele>328.0</ele><time>2026-05-03T12:23:33.999Z</time></trkpt><trkpt lat="42.63088223403711" lon="13.658709620526553"><ele>327.3333333333333</ele><time>2026-05-03T12:23:34.999Z</time></trkpt><trkpt lat="42.63073020008051" lon="13.658602640648269"><ele>326.6666666666667</ele><time>2026-05-03T12:23:35.999Z</time></trkpt><trkpt lat="42.630586244050264" lon="13.658508327081897"><ele>326.0</ele><time>2026-05-03T12:23:36.999Z</time></trkpt><trkpt lat="42.6304360362468" lon="13.658434345543554"><ele>320.6666666666667</ele><time>2026-05-03T12:23:37.999Z</time></trkpt><trkpt lat="42.63023753645178" lon="13.658402191414853"><ele>315.3333333333333</ele><time>2026-05-03T12:23:38.999Z</time></trkpt><trkpt lat="42.629995390142525" lon="13.658418266527594"><ele>310.0</ele><time>2026-05-03T12:23:39.999Z</time></trkpt><trkpt lat="42.62976835018256" lon="13.65845167135603"><ele>310.0</ele><time>2026-05-03T12:23:40.999Z</time></trkpt><trkpt lat="42.62958021192685" lon="13.658461547545363"><ele>310.0</ele><time>2026-05-03T12:23:41.999Z</time></trkpt><trkpt lat="42.62941686210274" lon="13.65845521711951"><ele>310.0</ele><time>2026-05-03T12:23:42.999Z</time></trkpt><trkpt lat="42.62926704909275" lon="13.658419960844059"><ele>315.3333333333333</ele><time>2026-05-03T12:23:43.999Z</time></trkpt><trkpt lat="42.62909918496354" lon="13.658324402425096"><ele>320.6666666666667</ele><time>2026-05-03T12:23:44.999Z</time></trkpt><trkpt lat="42.62892814317409" lon="13.658176271257249"><ele>326.0</ele><time>2026-05-03T12:23:45.999Z</time></trkpt><trkpt lat="42.62877522600981" lon="13.658007434473182"><ele>327.5</ele><time>2026-05-03T12:23:46.999Z</time></trkpt><trkpt lat="42.62865112503112" lon="13.657768807013001"><ele>329.0</ele><time>2026-05-03T12:23:47.999Z</time></trkpt><trkpt lat="42.62847758132798" lon="13.657510216489861"><ele>333.0</ele><time>2026-05-03T12:23:48.999Z</time></trkpt><trkpt lat="42.628289661646036" lon="13.657194087418345"><ele>337.0</ele><time>2026-05-03T12:23:49.999Z</time></trkpt><trkpt lat="42.62809658817604" lon="13.656873995438701"><ele>337.0</ele><time>2026-05-03T12:23:50.999Z</time></trkpt><trkpt lat="42.6279277890987" lon="13.656595679290744"><ele>337.0</ele><time>2026-05-03T12:23:51.999Z</time></trkpt><trkpt lat="42.627777434864484" lon="13.656349841753526"><ele>339.0</ele><time>2026-05-03T12:23:52.999Z</time></trkpt><trkpt lat="42.62763927591326" lon="13.656111992889299"><ele>341.0</ele><time>2026-05-03T12:23:53.999Z</time></trkpt><trkpt lat="42.62752508564656" lon="13.655845981855615"><ele>341.0</ele><time>2026-05-03T12:23:54.999Z</time></trkpt><trkpt lat="42.62740148889519" lon="13.655572930347665"><ele>341.0</ele><time>2026-05-03T12:23:55.999Z</time></trkpt><trkpt lat="42.62730919428888" lon="13.655290083172003"><ele>341.0</ele><time>2026-05-03T12:23:56.999Z</time></trkpt><trkpt lat="42.627230457583714" lon="13.655024736868697"><ele>341.0</ele><time>2026-05-03T12:23:57.999Z</time></trkpt><trkpt lat="42.62715209362134" lon="13.654759694710673"><ele>341.0</ele><time>2026-05-03T12:23:58.999Z</time></trkpt><trkpt lat="42.627059617041674" lon="13.654485748079583"><ele>348.0</ele><time>2026-05-03T12:23:59.999Z</time></trkpt><trkpt lat="42.62695350192306" lon="13.654210759377351"><ele>355.0</ele><time>2026-05-03T12:24:00.999Z</time></trkpt><trkpt lat="42.62685198263493" lon="13.653936508347458"><ele>355.0</ele><time>2026-05-03T12:24:01.999Z</time></trkpt><trkpt lat="42.626757515457484" lon="13.653660647453426"><ele>355.0</ele><time>2026-05-03T12:24:02.999Z</time></trkpt><trkpt lat="42.62667485501028" lon="13.653386908049347"><ele>355.0</ele><time>2026-05-03T12:24:03.999Z</time></trkpt><trkpt lat="42.62659902226254" lon="13.653119447022329"><ele>355.3333333333333</ele><time>2026-05-03T12:24:04.999Z</time></trkpt><trkpt lat="42.6265356805193" lon="13.652869136674191"><ele>355.6666666666667</ele><time>2026-05-03T12:24:05.999Z</time></trkpt><trkpt lat="42.626478826730036" lon="13.652633652219471"><ele>356.0</ele><time>2026-05-03T12:24:06.999Z</time></trkpt><trkpt lat="42.626430135030006" lon="13.65241559900756"><ele>356.0</ele><time>2026-05-03T12:24:07.999Z</time></trkpt><trkpt lat="42.626387857718605" lon="13.652212202370634"><ele>356.0</ele><time>2026-05-03T12:24:08.999Z</time></trkpt><trkpt lat="42.626338842143475" lon="13.652031178325165"><ele>356.0</ele><time>2026-05-03T12:24:09.999Z</time></trkpt><trkpt lat="42.62631573202944" lon="13.651861911162628"><ele>356.0</ele><time>2026-05-03T12:24:10.999Z</time></trkpt><trkpt lat="42.626285965827094" lon="13.651715494341966"><ele>355.6</ele><time>2026-05-03T12:24:11.999Z</time></trkpt><trkpt lat="42.62625189167257" lon="13.651589790267508"><ele>355.20000000000005</ele><time>2026-05-03T12:24:12.999Z</time></trkpt><trkpt lat="42.626211512891224" lon="13.651489928247592"><ele>354.79999999999995</ele><time>2026-05-03T12:24:14Z</time></trkpt><trkpt lat="42.6261688955268" lon="13.651392764974018"><ele>354.4</ele><time>2026-05-03T12:24:15Z</time></trkpt><trkpt lat="42.62612390818243" lon="13.651271618459662"><ele>354.0</ele><time>2026-05-03T12:24:16Z</time></trkpt><trkpt lat="42.626084573131905" lon="13.651111928377658"><ele>358.6666666666667</ele><time>2026-05-03T12:24:17Z</time></trkpt><trkpt lat="42.62602175754029" lon="13.650920889573412"><ele>363.33333333333337</ele><time>2026-05-03T12:24:18Z</time></trkpt><trkpt lat="42.62592240782446" lon="13.650708972686676"><ele>368.0</ele><time>2026-05-03T12:24:19Z</time></trkpt><trkpt lat="42.62584462600303" lon="13.650488068605409"><ele>368.0</ele><time>2026-05-03T12:24:20Z</time></trkpt><trkpt lat="42.62572425805277" lon="13.650294674353196"><ele>368.0</ele><time>2026-05-03T12:24:21Z</time></trkpt><trkpt lat="42.625564952359106" lon="13.650128292569436"><ele>368.0</ele><time>2026-05-03T12:24:22Z</time></trkpt><trkpt lat="42.62535804747467" lon="13.649970454997076"><ele>370.0</ele><time>2026-05-03T12:24:23Z</time></trkpt><trkpt lat="42.62511778996108" lon="13.649828235799882"><ele>372.0</ele><time>2026-05-03T12:24:24Z</time></trkpt><trkpt lat="42.62487266583483" lon="13.649661487481369"><ele>372.0</ele><time>2026-05-03T12:24:25Z</time></trkpt><trkpt lat="42.62460380494506" lon="13.64949246302146"><ele>372.0</ele><time>2026-05-03T12:24:26Z</time></trkpt><trkpt lat="42.62432024322997" lon="13.649310075902498"><ele>375.0</ele><time>2026-05-03T12:24:27Z</time></trkpt><trkpt lat="42.62402693971053" lon="13.64912608756566"><ele>378.0</ele><time>2026-05-03T12:24:28Z</time></trkpt><trkpt lat="42.623729476563234" lon="13.648993409034142"><ele>386.5</ele><time>2026-05-03T12:24:29Z</time></trkpt><trkpt lat="42.623481022431925" lon="13.64883069934982"><ele>395.0</ele><time>2026-05-03T12:24:30Z</time></trkpt><trkpt lat="42.62324794791905" lon="13.648667897224959"><ele>391.5</ele><time>2026-05-03T12:24:31Z</time></trkpt><trkpt lat="42.62299128356122" lon="13.648506368920756"><ele>388.0</ele><time>2026-05-03T12:24:32Z</time></trkpt><trkpt lat="42.62272325290537" lon="13.648341950716173"><ele>399.5</ele><time>2026-05-03T12:24:33Z</time></trkpt><trkpt lat="42.62244828257096" lon="13.648174385400987"><ele>411.0</ele><time>2026-05-03T12:24:34Z</time></trkpt><trkpt lat="42.62218409491062" lon="13.647986981214224"><ele>418.0</ele><time>2026-05-03T12:24:35Z</time></trkpt><trkpt lat="42.62191031991659" lon="13.647810485324912"><ele>425.0</ele><time>2026-05-03T12:24:36Z</time></trkpt><trkpt lat="42.621634132258585" lon="13.647632434162006"><ele>425.0</ele><time>2026-05-03T12:24:37Z</time></trkpt><trkpt lat="42.621327909914456" lon="13.647434963706795"><ele>425.0</ele><time>2026-05-03T12:24:38Z</time></trkpt><trkpt lat="42.621044599197106" lon="13.64725167658741"><ele>427.0</ele><time>2026-05-03T12:24:39Z</time></trkpt><trkpt lat="42.62074659192786" lon="13.647058577427378"><ele>429.0</ele><time>2026-05-03T12:24:40.068Z</time></trkpt><trkpt lat="42.620492472686415" lon="13.646887297986742"><ele>418.0</ele><time>2026-05-03T12:24:41.065Z</time></trkpt><trkpt lat="42.620229057615404" lon="13.646717790619059"><ele>407.0</ele><time>2026-05-03T12:24:42.068Z</time></trkpt><trkpt lat="42.61996097572169" lon="13.646549691347587"><ele>407.0</ele><time>2026-05-03T12:24:43.057Z</time></trkpt><trkpt lat="42.61970565382935" lon="13.646399335588066"><ele>407.0</ele><time>2026-05-03T12:24:44.039Z</time></trkpt><trkpt lat="42.61943740257718" lon="13.646255261693538"><ele>396.0</ele><time>2026-05-03T12:24:45.036Z</time></trkpt><trkpt lat="42.61886051863094" lon="13.646532187578716"><ele>393.0</ele><time>2026-05-03T12:24:48Z</time></trkpt><trkpt lat="42.618613219929045" lon="13.646490522584076"><ele>390.0</ele><time>2026-05-03T12:24:49Z</time></trkpt><trkpt lat="42.6183524130487" lon="13.646350576767476"><ele>390.0</ele><time>2026-05-03T12:24:50Z</time></trkpt><trkpt lat="42.61807375380178" lon="13.646199347376596"><ele>390.0</ele><time>2026-05-03T12:24:51Z</time></trkpt><trkpt lat="42.61776209574028" lon="13.646016254159033"><ele>391.5</ele><time>2026-05-03T12:24:52Z</time></trkpt><trkpt lat="42.61745103121202" lon="13.645914174453896"><ele>393.0</ele><time>2026-05-03T12:24:53Z</time></trkpt><trkpt lat="42.61716772070493" lon="13.64586417949099"><ele>386.5</ele><time>2026-05-03T12:24:54Z</time></trkpt><trkpt lat="42.61692231749758" lon="13.645821646325988"><ele>380.0</ele><time>2026-05-03T12:24:55Z</time></trkpt><trkpt lat="42.616697443168285" lon="13.645772534855405"><ele>380.0</ele><time>2026-05-03T12:24:56Z</time></trkpt><trkpt lat="42.616480490528524" lon="13.645731696585784"><ele>380.0</ele><time>2026-05-03T12:24:57Z</time></trkpt><trkpt lat="42.616267676994475" lon="13.645686006288567"><ele>380.0</ele><time>2026-05-03T12:24:58Z</time></trkpt><trkpt lat="42.616075966470326" lon="13.645644310365498"><ele>376.0</ele><time>2026-05-03T12:24:59Z</time></trkpt><trkpt lat="42.61585941048829" lon="13.645620548684217"><ele>372.0</ele><time>2026-05-03T12:25:00Z</time></trkpt><trkpt lat="42.615614911564194" lon="13.64563218409771"><ele>372.0</ele><time>2026-05-03T12:25:01Z</time></trkpt><trkpt lat="42.615351386005976" lon="13.645675149240471"><ele>372.0</ele><time>2026-05-03T12:25:02Z</time></trkpt><trkpt lat="42.61509975116426" lon="13.64573509963997"><ele>366.0</ele><time>2026-05-03T12:25:03Z</time></trkpt><trkpt lat="42.61486963676109" lon="13.645801240440104"><ele>360.0</ele><time>2026-05-03T12:25:04Z</time></trkpt><trkpt lat="42.61465293403491" lon="13.645859734506555"><ele>360.3333333333333</ele><time>2026-05-03T12:25:05Z</time></trkpt><trkpt lat="42.61445163654518" lon="13.64590387077484"><ele>360.66666666666663</ele><time>2026-05-03T12:25:06Z</time></trkpt><trkpt lat="42.61426675916313" lon="13.645947787171162"><ele>361.0</ele><time>2026-05-03T12:25:07Z</time></trkpt><trkpt lat="42.61409700181935" lon="13.64598985860105"><ele>361.0</ele><time>2026-05-03T12:25:08Z</time></trkpt><trkpt lat="42.61393932386475" lon="13.646029872689379"><ele>361.0</ele><time>2026-05-03T12:25:09Z</time></trkpt><trkpt lat="42.61379366393763" lon="13.646069440460876"><ele>361.0</ele><time>2026-05-03T12:25:10Z</time></trkpt><trkpt lat="42.6136567567085" lon="13.646114740989717"><ele>360.0</ele><time>2026-05-03T12:25:11Z</time></trkpt><trkpt lat="42.61352515169054" lon="13.64617270956999"><ele>359.0</ele><time>2026-05-03T12:25:12Z</time></trkpt><trkpt lat="42.61341153794898" lon="13.646233984445765"><ele>358.0</ele><time>2026-05-03T12:25:13Z</time></trkpt><trkpt lat="42.61331194397501" lon="13.646291436371715"><ele>357.0</ele><time>2026-05-03T12:25:14Z</time></trkpt><trkpt lat="42.61321428507247" lon="13.646333629972423"><ele>357.0</ele><time>2026-05-03T12:25:15Z</time></trkpt><trkpt lat="42.61311542191547" lon="13.64635692308765"><ele>357.0</ele><time>2026-05-03T12:25:16Z</time></trkpt><trkpt lat="42.613032949647796" lon="13.646363221802892"><ele>357.0</ele><time>2026-05-03T12:25:17Z</time></trkpt><trkpt lat="42.61296709221064" lon="13.646352027985305"><ele>357.0</ele><time>2026-05-03T12:25:18Z</time></trkpt><trkpt lat="42.61290306127694" lon="13.646340964983724"><ele>357.0</ele><time>2026-05-03T12:25:19Z</time></trkpt><trkpt lat="42.612848983099866" lon="13.64638618872685"><ele>357.0</ele><time>2026-05-03T12:25:20Z</time></trkpt><trkpt lat="42.61280701420082" lon="13.646497353950851"><ele>358.0</ele><time>2026-05-03T12:25:21Z</time></trkpt><trkpt lat="42.61279259998264" lon="13.646662825697533"><ele>359.0</ele><time>2026-05-03T12:25:22Z</time></trkpt><trkpt lat="42.61276596348105" lon="13.64687143782102"><ele>360.0</ele><time>2026-05-03T12:25:23Z</time></trkpt><trkpt lat="42.612562082346386" lon="13.64723039972603"><ele>357.0</ele><time>2026-05-03T12:25:25Z</time></trkpt><trkpt lat="42.612401356900996" lon="13.647433550361947"><ele>354.0</ele><time>2026-05-03T12:25:26Z</time></trkpt><trkpt lat="42.61221113259159" lon="13.647664184169269"><ele>351.5</ele><time>2026-05-03T12:25:26.999Z</time></trkpt><trkpt lat="42.61201334627741" lon="13.647924970044505"><ele>349.0</ele><time>2026-05-03T12:25:27.999Z</time></trkpt><trkpt lat="42.611804638501084" lon="13.648214139924217"><ele>349.0</ele><time>2026-05-03T12:25:28.999Z</time></trkpt><trkpt lat="42.611585147348315" lon="13.648519133823378"><ele>349.0</ele><time>2026-05-03T12:25:29.999Z</time></trkpt><trkpt lat="42.61138232003225" lon="13.648802990841974"><ele>350.0</ele><time>2026-05-03T12:25:30.999Z</time></trkpt><trkpt lat="42.611194819293054" lon="13.649055972441664"><ele>351.0</ele><time>2026-05-03T12:25:31.999Z</time></trkpt><trkpt lat="42.611016658305246" lon="13.649287520183949"><ele>359.0</ele><time>2026-05-03T12:25:32.999Z</time></trkpt><trkpt lat="42.6108364810829" lon="13.649531797468791"><ele>367.0</ele><time>2026-05-03T12:25:33.999Z</time></trkpt><trkpt lat="42.610651863246225" lon="13.64978742331357"><ele>367.0</ele><time>2026-05-03T12:25:34.999Z</time></trkpt><trkpt lat="42.610461355727246" lon="13.650055750506683"><ele>367.0</ele><time>2026-05-03T12:25:35.999Z</time></trkpt><trkpt lat="42.610251236429264" lon="13.650357703528304"><ele>368.0</ele><time>2026-05-03T12:25:36.999Z</time></trkpt><trkpt lat="42.610019635188834" lon="13.650679089433792"><ele>369.0</ele><time>2026-05-03T12:25:37.999Z</time></trkpt><trkpt lat="42.60976556932975" lon="13.651013244958607"><ele>365.0</ele><time>2026-05-03T12:25:38.999Z</time></trkpt><trkpt lat="42.60950508808796" lon="13.651354276994827"><ele>361.0</ele><time>2026-05-03T12:25:39.999Z</time></trkpt><trkpt lat="42.60925786776197" lon="13.651674046591271"><ele>354.5</ele><time>2026-05-03T12:25:40.999Z</time></trkpt><trkpt lat="42.60904353611647" lon="13.65197136739677"><ele>348.0</ele><time>2026-05-03T12:25:41.999Z</time></trkpt><trkpt lat="42.60884220258146" lon="13.652240347430668"><ele>356.5</ele><time>2026-05-03T12:25:42.999Z</time></trkpt><trkpt lat="42.60865242439987" lon="13.652506575645829"><ele>365.0</ele><time>2026-05-03T12:25:43.999Z</time></trkpt><trkpt lat="42.60845789967057" lon="13.652772302120269"><ele>357.5</ele><time>2026-05-03T12:25:44.999Z</time></trkpt><trkpt lat="42.60826330570483" lon="13.65303365311962"><ele>350.0</ele><time>2026-05-03T12:25:45.999Z</time></trkpt><trkpt lat="42.60807874975942" lon="13.653283311617297"><ele>350.0</ele><time>2026-05-03T12:25:46.999Z</time></trkpt><trkpt lat="42.60790538782891" lon="13.65351691770726"><ele>350.0</ele><time>2026-05-03T12:25:47.999Z</time></trkpt><trkpt lat="42.607742697610526" lon="13.653736903854268"><ele>350.6666666666667</ele><time>2026-05-03T12:25:48.999Z</time></trkpt><trkpt lat="42.607584201925924" lon="13.65394696205691"><ele>351.3333333333333</ele><time>2026-05-03T12:25:49.999Z</time></trkpt><trkpt lat="42.60742366865366" lon="13.654159460971572"><ele>352.0</ele><time>2026-05-03T12:25:50.999Z</time></trkpt><trkpt lat="42.607270587432055" lon="13.654368248473276"><ele>349.3333333333333</ele><time>2026-05-03T12:25:51.999Z</time></trkpt><trkpt lat="42.607128696660716" lon="13.65455851925084"><ele>346.6666666666667</ele><time>2026-05-03T12:25:52.999Z</time></trkpt><trkpt lat="42.60699539924946" lon="13.654730833879588"><ele>344.0</ele><time>2026-05-03T12:25:53.999Z</time></trkpt><trkpt lat="42.60686494239844" lon="13.65488418388058"><ele>350.0</ele><time>2026-05-03T12:25:54.999Z</time></trkpt><trkpt lat="42.60672273754763" lon="13.655004801280706"><ele>356.0</ele><time>2026-05-03T12:25:55.999Z</time></trkpt><trkpt lat="42.606563363327076" lon="13.655110113792501"><ele>362.0</ele><time>2026-05-03T12:25:56.999Z</time></trkpt><trkpt lat="42.60639969909133" lon="13.655195509279526"><ele>362.0</ele><time>2026-05-03T12:25:57.999Z</time></trkpt><trkpt lat="42.60623150259634" lon="13.655258522405578"><ele>362.0</ele><time>2026-05-03T12:25:58.999Z</time></trkpt><trkpt lat="42.606048663962916" lon="13.655295073802204"><ele>362.0</ele><time>2026-05-03T12:25:59.999Z</time></trkpt><trkpt lat="42.605865111289056" lon="13.655290555484962"><ele>364.6666666666667</ele><time>2026-05-03T12:26:00.999Z</time></trkpt><trkpt lat="42.60567388884082" lon="13.655279334178534"><ele>367.3333333333333</ele><time>2026-05-03T12:26:01.999Z</time></trkpt><trkpt lat="42.60547651467383" lon="13.6552325389398"><ele>370.0</ele><time>2026-05-03T12:26:02.999Z</time></trkpt><trkpt lat="42.60525913964298" lon="13.65514813862759"><ele>370.0</ele><time>2026-05-03T12:26:03.999Z</time></trkpt><trkpt lat="42.60500539117444" lon="13.655033278962248"><ele>370.0</ele><time>2026-05-03T12:26:04.999Z</time></trkpt><trkpt lat="42.60473537263357" lon="13.654924367566716"><ele>368.0</ele><time>2026-05-03T12:26:05.999Z</time></trkpt><trkpt lat="42.60447584686229" lon="13.654794443090562"><ele>366.0</ele><time>2026-05-03T12:26:06.999Z</time></trkpt><trkpt lat="42.60422660660798" lon="13.654671950136013"><ele>366.0</ele><time>2026-05-03T12:26:07.999Z</time></trkpt><trkpt lat="42.60398213633435" lon="13.654552638922668"><ele>366.0</ele><time>2026-05-03T12:26:08.999Z</time></trkpt><trkpt lat="42.60374241249447" lon="13.654442133198543"><ele>369.0</ele><time>2026-05-03T12:26:09.999Z</time></trkpt><trkpt lat="42.603512568659916" lon="13.654332114259052"><ele>372.0</ele><time>2026-05-03T12:26:10.999Z</time></trkpt><trkpt lat="42.60328753110815" lon="13.654224193307847"><ele>372.0</ele><time>2026-05-03T12:26:11.999Z</time></trkpt><trkpt lat="42.603071741735704" lon="13.65412447548859"><ele>372.0</ele><time>2026-05-03T12:26:12.999Z</time></trkpt><trkpt lat="42.60286309225976" lon="13.654031991087718"><ele>372.0</ele><time>2026-05-03T12:26:13.999Z</time></trkpt><trkpt lat="42.60265534145641" lon="13.653957601979183"><ele>370.6666666666667</ele><time>2026-05-03T12:26:14.999Z</time></trkpt><trkpt lat="42.602461279899146" lon="13.653893589492144"><ele>369.33333333333337</ele><time>2026-05-03T12:26:15.999Z</time></trkpt><trkpt lat="42.602270487286134" lon="13.6538430380451"><ele>368.0</ele><time>2026-05-03T12:26:16.999Z</time></trkpt><trkpt lat="42.60208601275619" lon="13.653812482969672"><ele>366.6666666666667</ele><time>2026-05-03T12:26:17.999Z</time></trkpt><trkpt lat="42.601895630087874" lon="13.653795054444446"><ele>365.3333333333333</ele><time>2026-05-03T12:26:18.999Z</time></trkpt><trkpt lat="42.6016986079569" lon="13.653783838237498"><ele>364.0</ele><time>2026-05-03T12:26:20Z</time></trkpt><trkpt lat="42.60149555748121" lon="13.653785648395928"><ele>364.0</ele><time>2026-05-03T12:26:21Z</time></trkpt><trkpt lat="42.60128876692101" lon="13.65380408174895"><ele>364.0</ele><time>2026-05-03T12:26:22Z</time></trkpt><trkpt lat="42.60107797044779" lon="13.653833391384255"><ele>364.0</ele><time>2026-05-03T12:26:23Z</time></trkpt><trkpt lat="42.60086474464719" lon="13.653878035847624"><ele>362.5</ele><time>2026-05-03T12:26:24Z</time></trkpt><trkpt lat="42.60064418266533" lon="13.65393964185801"><ele>361.0</ele><time>2026-05-03T12:26:25Z</time></trkpt><trkpt lat="42.6004034158674" lon="13.654023641636284"><ele>361.5</ele><time>2026-05-03T12:26:26Z</time></trkpt><trkpt lat="42.60017467921043" lon="13.654105950060694"><ele>362.0</ele><time>2026-05-03T12:26:27Z</time></trkpt><trkpt lat="42.59996674704682" lon="13.654178942730091"><ele>362.0</ele><time>2026-05-03T12:26:28Z</time></trkpt><trkpt lat="42.59977346478914" lon="13.654239951042587"><ele>362.0</ele><time>2026-05-03T12:26:29Z</time></trkpt><trkpt lat="42.599605958538355" lon="13.654298036110857"><ele>362.0</ele><time>2026-05-03T12:26:30Z</time></trkpt><trkpt lat="42.599444741980555" lon="13.65432880790444"><ele>361.25</ele><time>2026-05-03T12:26:31Z</time></trkpt><trkpt lat="42.599285124573704" lon="13.654335359087735"><ele>360.5</ele><time>2026-05-03T12:26:32Z</time></trkpt><trkpt lat="42.599138239719956" lon="13.654339139095367"><ele>359.75</ele><time>2026-05-03T12:26:33Z</time></trkpt><trkpt lat="42.5990096428406" lon="13.654328941306979"><ele>359.0</ele><time>2026-05-03T12:26:34Z</time></trkpt><trkpt lat="42.59888426055863" lon="13.654309586244871"><ele>359.0</ele><time>2026-05-03T12:26:35Z</time></trkpt><trkpt lat="42.59877887215942" lon="13.654294476552783"><ele>359.0</ele><time>2026-05-03T12:26:36Z</time></trkpt><trkpt lat="42.59867035420779" lon="13.65426994624248"><ele>359.0</ele><time>2026-05-03T12:26:37Z</time></trkpt><trkpt lat="42.59853643106127" lon="13.654246943899043"><ele>359.0</ele><time>2026-05-03T12:26:38Z</time></trkpt><trkpt lat="42.59836096056524" lon="13.654218527030704"><ele>355.6666666666667</ele><time>2026-05-03T12:26:39Z</time></trkpt><trkpt lat="42.598163943183366" lon="13.654186086113425"><ele>352.3333333333333</ele><time>2026-05-03T12:26:40Z</time></trkpt><trkpt lat="42.597945803742164" lon="13.65414860623631"><ele>349.0</ele><time>2026-05-03T12:26:41Z</time></trkpt><trkpt lat="42.59774191172083" lon="13.654114870456707"><ele>345.66666666666663</ele><time>2026-05-03T12:26:42Z</time></trkpt><trkpt lat="42.59756609453767" lon="13.654083736894147"><ele>342.3333333333333</ele><time>2026-05-03T12:26:43Z</time></trkpt><trkpt lat="42.59739822794238" lon="13.654053709715624"><ele>339.0</ele><time>2026-05-03T12:26:44Z</time></trkpt><trkpt lat="42.59723406740998" lon="13.654028920125894"><ele>339.0</ele><time>2026-05-03T12:26:45Z</time></trkpt><trkpt lat="42.59707170016363" lon="13.653989055293536"><ele>339.0</ele><time>2026-05-03T12:26:46Z</time></trkpt><trkpt lat="42.59689056171431" lon="13.653939619258075"><ele>339.0</ele><time>2026-05-03T12:26:47Z</time></trkpt><trkpt lat="42.59669705309205" lon="13.653877636638338"><ele>337.0</ele><time>2026-05-03T12:26:48Z</time></trkpt><trkpt lat="42.59648910906965" lon="13.653777325625905"><ele>335.0</ele><time>2026-05-03T12:26:49Z</time></trkpt><trkpt lat="42.5962600685062" lon="13.65365680973911"><ele>333.0</ele><time>2026-05-03T12:26:50Z</time></trkpt><trkpt lat="42.596029244829815" lon="13.653515458137276"><ele>331.0</ele><time>2026-05-03T12:26:51Z</time></trkpt><trkpt lat="42.595820744721465" lon="13.653386961383367"><ele>331.0</ele><time>2026-05-03T12:26:52Z</time></trkpt><trkpt lat="42.595614118635154" lon="13.653257519824447"><ele>331.0</ele><time>2026-05-03T12:26:53Z</time></trkpt><trkpt lat="42.595422820117044" lon="13.653144106934462"><ele>331.0</ele><time>2026-05-03T12:26:54Z</time></trkpt><trkpt lat="42.59523699429187" lon="13.653031185037602"><ele>330.0</ele><time>2026-05-03T12:26:55Z</time></trkpt><trkpt lat="42.595060272802144" lon="13.652922450118604"><ele>329.0</ele><time>2026-05-03T12:26:56Z</time></trkpt><trkpt lat="42.59488920633713" lon="13.652818299999884"><ele>328.0</ele><time>2026-05-03T12:26:57Z</time></trkpt><trkpt lat="42.59473114750672" lon="13.652710554504"><ele>328.0</ele><time>2026-05-03T12:26:58Z</time></trkpt><trkpt lat="42.594581632364616" lon="13.652593908001316"><ele>328.0</ele><time>2026-05-03T12:26:59Z</time></trkpt><trkpt lat="42.59443989901557" lon="13.652465396273943"><ele>328.0</ele><time>2026-05-03T12:27:00Z</time></trkpt><trkpt lat="42.59428469262987" lon="13.65232069734077"><ele>327.3333333333333</ele><time>2026-05-03T12:27:01Z</time></trkpt><trkpt lat="42.59412474312805" lon="13.6521510731822"><ele>326.6666666666667</ele><time>2026-05-03T12:27:02Z</time></trkpt><trkpt lat="42.593972662258" lon="13.651967822331926"><ele>326.0</ele><time>2026-05-03T12:27:03Z</time></trkpt><trkpt lat="42.59382677318204" lon="13.651790113941063"><ele>326.0</ele><time>2026-05-03T12:27:04Z</time></trkpt><trkpt lat="42.593694938135926" lon="13.651620433478755"><ele>326.0</ele><time>2026-05-03T12:27:05Z</time></trkpt><trkpt lat="42.59356697416677" lon="13.65146317845011"><ele>326.0</ele><time>2026-05-03T12:27:06Z</time></trkpt><trkpt lat="42.59343848131389" lon="13.651305398418616"><ele>323.33333333333337</ele><time>2026-05-03T12:27:07Z</time></trkpt><trkpt lat="42.5933169033535" lon="13.651154462237276"><ele>320.6666666666667</ele><time>2026-05-03T12:27:08Z</time></trkpt><trkpt lat="42.593199785893276" lon="13.651006857047728"><ele>318.0</ele><time>2026-05-03T12:27:09Z</time></trkpt><trkpt lat="42.59308508392261" lon="13.650869008629183"><ele>318.0</ele><time>2026-05-03T12:27:10Z</time></trkpt><trkpt lat="42.59297620768645" lon="13.650732128588908"><ele>318.0</ele><time>2026-05-03T12:27:11Z</time></trkpt><trkpt lat="42.59288028133794" lon="13.650614415861028"><ele>318.0</ele><time>2026-05-03T12:27:12Z</time></trkpt><trkpt lat="42.59280473141832" lon="13.650492395687678"><ele>318.0</ele><time>2026-05-03T12:27:13Z</time></trkpt><trkpt lat="42.592729819190346" lon="13.650397918431073"><ele>314.25</ele><time>2026-05-03T12:27:14Z</time></trkpt><trkpt lat="42.59265243888241" lon="13.650300328594932"><ele>310.5</ele><time>2026-05-03T12:27:15Z</time></trkpt><trkpt lat="42.59254679698309" lon="13.65016709356439"><ele>306.75</ele><time>2026-05-03T12:27:16Z</time></trkpt><trkpt lat="42.592418318760494" lon="13.650008888028438"><ele>303.0</ele><time>2026-05-03T12:27:17Z</time></trkpt><trkpt lat="42.59225831346612" lon="13.649827648124099"><ele>302.6666666666667</ele><time>2026-05-03T12:27:18Z</time></trkpt><trkpt lat="42.59208715968237" lon="13.649665181120884"><ele>302.33333333333337</ele><time>2026-05-03T12:27:19Z</time></trkpt><trkpt lat="42.591895783800055" lon="13.649503069326254"><ele>302.0</ele><time>2026-05-03T12:27:20Z</time></trkpt><trkpt lat="42.59166910783806" lon="13.649374554492118"><ele>297.5</ele><time>2026-05-03T12:27:21Z</time></trkpt><trkpt lat="42.59142999521275" lon="13.649289053261889"><ele>293.0</ele><time>2026-05-03T12:27:22Z</time></trkpt><trkpt lat="42.591189874850514" lon="13.649225093255737"><ele>290.5</ele><time>2026-05-03T12:27:23Z</time></trkpt><trkpt lat="42.59095948926081" lon="13.649192165315354"><ele>288.0</ele><time>2026-05-03T12:27:24Z</time></trkpt><trkpt lat="42.590735401606366" lon="13.649190590041307"><ele>288.0</ele><time>2026-05-03T12:27:25Z</time></trkpt><trkpt lat="42.590514865587814" lon="13.649225983186897"><ele>288.0</ele><time>2026-05-03T12:27:26Z</time></trkpt><trkpt lat="42.590293739402576" lon="13.649287607769818"><ele>288.0</ele><time>2026-05-03T12:27:27Z</time></trkpt><trkpt lat="42.59007567795207" lon="13.649378443603707"><ele>285.5</ele><time>2026-05-03T12:27:28Z</time></trkpt><trkpt lat="42.5898632819284" lon="13.649501217010389"><ele>283.0</ele><time>2026-05-03T12:27:29Z</time></trkpt><trkpt lat="42.58964083794605" lon="13.649663782333329"><ele>280.5</ele><time>2026-05-03T12:27:30Z</time></trkpt><trkpt lat="42.589403128164726" lon="13.6498792351056"><ele>278.0</ele><time>2026-05-03T12:27:31Z</time></trkpt><trkpt lat="42.58915329236894" lon="13.650111629556129"><ele>276.5</ele><time>2026-05-03T12:27:31.999Z</time></trkpt><trkpt lat="42.588938976814674" lon="13.650306129417384"><ele>275.0</ele><time>2026-05-03T12:27:32.999Z</time></trkpt><trkpt lat="42.58873194608964" lon="13.650486777611944"><ele>275.6666666666667</ele><time>2026-05-03T12:27:33.999Z</time></trkpt><trkpt lat="42.588540113212645" lon="13.65065912043929"><ele>276.3333333333333</ele><time>2026-05-03T12:27:34.999Z</time></trkpt><trkpt lat="42.58835987124288" lon="13.650817699833057"><ele>277.0</ele><time>2026-05-03T12:27:35.999Z</time></trkpt><trkpt lat="42.58818793182056" lon="13.650959644512822"><ele>277.0</ele><time>2026-05-03T12:27:36.999Z</time></trkpt><trkpt lat="42.588036722049395" lon="13.651067809207431"><ele>277.0</ele><time>2026-05-03T12:27:37.999Z</time></trkpt><trkpt lat="42.587882597394945" lon="13.651148805640647"><ele>277.0</ele><time>2026-05-03T12:27:38.999Z</time></trkpt><trkpt lat="42.58772813493084" lon="13.65121021527757"><ele>275.0</ele><time>2026-05-03T12:27:39.999Z</time></trkpt><trkpt lat="42.58756439526851" lon="13.65125562173369"><ele>273.0</ele><time>2026-05-03T12:27:40.999Z</time></trkpt><trkpt lat="42.58740188401134" lon="13.651283124256706"><ele>271.0</ele><time>2026-05-03T12:27:41.999Z</time></trkpt><trkpt lat="42.58723660636277" lon="13.651286772854851"><ele>271.0</ele><time>2026-05-03T12:27:42.999Z</time></trkpt><trkpt lat="42.58708000201421" lon="13.651266247458649"><ele>271.0</ele><time>2026-05-03T12:27:43.999Z</time></trkpt><trkpt lat="42.586913914162885" lon="13.65122861214054"><ele>271.0</ele><time>2026-05-03T12:27:44.999Z</time></trkpt><trkpt lat="42.58674185992904" lon="13.651167207440457"><ele>275.0</ele><time>2026-05-03T12:27:45.999Z</time></trkpt><trkpt lat="42.58658105653419" lon="13.651091853145997"><ele>279.0</ele><time>2026-05-03T12:27:46.999Z</time></trkpt><trkpt lat="42.58643366146207" lon="13.650995785156931"><ele>283.0</ele><time>2026-05-03T12:27:47.999Z</time></trkpt><trkpt lat="42.58629002184448" lon="13.650878266728657"><ele>280.3333333333333</ele><time>2026-05-03T12:27:48.999Z</time></trkpt><trkpt lat="42.58615137836174" lon="13.650739275480662"><ele>277.6666666666667</ele><time>2026-05-03T12:27:49.999Z</time></trkpt><trkpt lat="42.58601932505423" lon="13.650574912079094"><ele>275.0</ele><time>2026-05-03T12:27:50.999Z</time></trkpt><trkpt lat="42.585903304867294" lon="13.650396284309902"><ele>277.33333333333337</ele><time>2026-05-03T12:27:51.999Z</time></trkpt><trkpt lat="42.58579781781666" lon="13.6502025268099"><ele>279.6666666666667</ele><time>2026-05-03T12:27:52.999Z</time></trkpt><trkpt lat="42.585707003748716" lon="13.649994382586138"><ele>282.0</ele><time>2026-05-03T12:27:53.999Z</time></trkpt><trkpt lat="42.58563542073725" lon="13.649747899547636"><ele>282.0</ele><time>2026-05-03T12:27:54.999Z</time></trkpt><trkpt lat="42.585570405881114" lon="13.649475799883751"><ele>282.0</ele><time>2026-05-03T12:27:55.999Z</time></trkpt><trkpt lat="42.585528570725515" lon="13.649197752303762"><ele>282.0</ele><time>2026-05-03T12:27:56.999Z</time></trkpt><trkpt lat="42.585488967251756" lon="13.648939986933275"><ele>282.6666666666667</ele><time>2026-05-03T12:27:57.999Z</time></trkpt><trkpt lat="42.58544640017515" lon="13.648696242957937"><ele>283.33333333333337</ele><time>2026-05-03T12:27:58.999Z</time></trkpt><trkpt lat="42.585405824631465" lon="13.648465544777482"><ele>284.0</ele><time>2026-05-03T12:27:59.999Z</time></trkpt><trkpt lat="42.58536590183003" lon="13.648245385627055"><ele>277.33333333333337</ele><time>2026-05-03T12:28:00.999Z</time></trkpt><trkpt lat="42.58532781043261" lon="13.64803309503986"><ele>270.6666666666667</ele><time>2026-05-03T12:28:01.999Z</time></trkpt><trkpt lat="42.58529049704342" lon="13.647823379077783"><ele>264.0</ele><time>2026-05-03T12:28:02.999Z</time></trkpt><trkpt lat="42.58525124469073" lon="13.647603716434148"><ele>264.0</ele><time>2026-05-03T12:28:03.999Z</time></trkpt><trkpt lat="42.585211611731566" lon="13.647367182181632"><ele>264.0</ele><time>2026-05-03T12:28:04.999Z</time></trkpt><trkpt lat="42.58516894889561" lon="13.647124419456826"><ele>264.0</ele><time>2026-05-03T12:28:05.999Z</time></trkpt><trkpt lat="42.5851254929595" lon="13.646871209068873"><ele>263.6666666666667</ele><time>2026-05-03T12:28:06.999Z</time></trkpt><trkpt lat="42.58508298188789" lon="13.646620285545952"><ele>263.33333333333337</ele><time>2026-05-03T12:28:07.999Z</time></trkpt><trkpt lat="42.5850423134948" lon="13.64638469060286"><ele>263.0</ele><time>2026-05-03T12:28:08.999Z</time></trkpt><trkpt lat="42.585004369950646" lon="13.646154691506117"><ele>264.6666666666667</ele><time>2026-05-03T12:28:09.999Z</time></trkpt><trkpt lat="42.584966130249036" lon="13.645930688446096"><ele>266.3333333333333</ele><time>2026-05-03T12:28:10.999Z</time></trkpt><trkpt lat="42.58492902738615" lon="13.645717773827442"><ele>268.0</ele><time>2026-05-03T12:28:11.999Z</time></trkpt><trkpt lat="42.58489134097004" lon="13.645510016909043"><ele>268.0</ele><time>2026-05-03T12:28:12.999Z</time></trkpt><trkpt lat="42.5848537752211" lon="13.645307170094913"><ele>268.0</ele><time>2026-05-03T12:28:13.999Z</time></trkpt><trkpt lat="42.5848044079821" lon="13.64510722150119"><ele>268.0</ele><time>2026-05-03T12:28:14.999Z</time></trkpt><trkpt lat="42.58475778924241" lon="13.644891881529814"><ele>270.0</ele><time>2026-05-03T12:28:15.999Z</time></trkpt><trkpt lat="42.58470171125349" lon="13.64466820219905"><ele>272.0</ele><time>2026-05-03T12:28:16.999Z</time></trkpt><trkpt lat="42.584642219940314" lon="13.644435991378154"><ele>274.0</ele><time>2026-05-03T12:28:17.999Z</time></trkpt><trkpt lat="42.584581470174335" lon="13.644196941626948"><ele>276.0</ele><time>2026-05-03T12:28:18.999Z</time></trkpt><trkpt lat="42.58451906738295" lon="13.643967444941508"><ele>278.0</ele><time>2026-05-03T12:28:19.999Z</time></trkpt><trkpt lat="42.58445758067289" lon="13.643753180264136"><ele>280.0</ele><time>2026-05-03T12:28:20.999Z</time></trkpt><trkpt lat="42.584397622998075" lon="13.643548687193503"><ele>273.0</ele><time>2026-05-03T12:28:21.999Z</time></trkpt><trkpt lat="42.58434163790855" lon="13.643340401234218"><ele>266.0</ele><time>2026-05-03T12:28:22.999Z</time></trkpt><trkpt lat="42.58429013005686" lon="13.643129269166344"><ele>259.0</ele><time>2026-05-03T12:28:23.999Z</time></trkpt><trkpt lat="42.584240906540764" lon="13.642913419594088"><ele>262.0</ele><time>2026-05-03T12:28:24.999Z</time></trkpt><trkpt lat="42.58419406106145" lon="13.642695506008849"><ele>265.0</ele><time>2026-05-03T12:28:26Z</time></trkpt><trkpt lat="42.58415499512428" lon="13.642491308994456"><ele>268.0</ele><time>2026-05-03T12:28:27Z</time></trkpt><trkpt lat="42.58412073027435" lon="13.642297160916655"><ele>268.0</ele><time>2026-05-03T12:28:28Z</time></trkpt><trkpt lat="42.5840919159342" lon="13.642111239663992"><ele>268.0</ele><time>2026-05-03T12:28:29Z</time></trkpt><trkpt lat="42.584069486917286" lon="13.64193697217053"><ele>268.0</ele><time>2026-05-03T12:28:30Z</time></trkpt><trkpt lat="42.58405854805946" lon="13.641777760598524"><ele>268.0</ele><time>2026-05-03T12:28:31Z</time></trkpt><trkpt lat="42.584058148466404" lon="13.641636751046782"><ele>267.8</ele><time>2026-05-03T12:28:32Z</time></trkpt><trkpt lat="42.58405167026719" lon="13.641510744735339"><ele>267.6</ele><time>2026-05-03T12:28:33Z</time></trkpt><trkpt lat="42.584006402501686" lon="13.641399937480505"><ele>267.4</ele><time>2026-05-03T12:28:34Z</time></trkpt><trkpt lat="42.58392597054133" lon="13.64128259450518"><ele>267.2</ele><time>2026-05-03T12:28:35Z</time></trkpt><trkpt lat="42.58384169716253" lon="13.641124844031651"><ele>267.0</ele><time>2026-05-03T12:28:36Z</time></trkpt><trkpt lat="42.583764310029515" lon="13.640896190146284"><ele>267.0</ele><time>2026-05-03T12:28:37Z</time></trkpt><trkpt lat="42.58368778842219" lon="13.640649611940676"><ele>267.0</ele><time>2026-05-03T12:28:38Z</time></trkpt><trkpt lat="42.583616886862224" lon="13.640437571315088"><ele>267.0</ele><time>2026-05-03T12:28:39Z</time></trkpt><trkpt lat="42.58355244449621" lon="13.640233446069882"><ele>261.6666666666667</ele><time>2026-05-03T12:28:40Z</time></trkpt><trkpt lat="42.583488898263525" lon="13.64001950757815"><ele>256.33333333333337</ele><time>2026-05-03T12:28:41Z</time></trkpt><trkpt lat="42.583423222861526" lon="13.639814307498032"><ele>251.0</ele><time>2026-05-03T12:28:42Z</time></trkpt><trkpt lat="42.583357184347406" lon="13.639606302268959"><ele>251.33333333333334</ele><time>2026-05-03T12:28:43Z</time></trkpt><trkpt lat="42.583295744279425" lon="13.639407335098634"><ele>251.66666666666669</ele><time>2026-05-03T12:28:44Z</time></trkpt><trkpt lat="42.58323225230326" lon="13.639210408415392"><ele>252.0</ele><time>2026-05-03T12:28:45Z</time></trkpt><trkpt lat="42.58316951936777" lon="13.639023794847725"><ele>252.0</ele><time>2026-05-03T12:28:46Z</time></trkpt><trkpt lat="42.58311261409055" lon="13.638847480234288"><ele>252.0</ele><time>2026-05-03T12:28:47Z</time></trkpt><trkpt lat="42.5830608857738" lon="13.638680228421826"><ele>252.0</ele><time>2026-05-03T12:28:48Z</time></trkpt><trkpt lat="42.58301271882258" lon="13.63852046392951"><ele>252.0</ele><time>2026-05-03T12:28:49Z</time></trkpt><trkpt lat="42.58296732414422" lon="13.638372338702696"><ele>252.0</ele><time>2026-05-03T12:28:50Z</time></trkpt><trkpt lat="42.58292073840597" lon="13.638233759448713"><ele>252.0</ele><time>2026-05-03T12:28:51Z</time></trkpt><trkpt lat="42.582871737616884" lon="13.6381066319497"><ele>252.0</ele><time>2026-05-03T12:28:52Z</time></trkpt><trkpt lat="42.58282327177842" lon="13.63799008912349"><ele>252.0</ele><time>2026-05-03T12:28:53Z</time></trkpt><trkpt lat="42.58277683162556" lon="13.637879041255212"><ele>252.0</ele><time>2026-05-03T12:28:54Z</time></trkpt><trkpt lat="42.58273518532817" lon="13.637764958366786"><ele>252.0</ele><time>2026-05-03T12:28:55Z</time></trkpt><trkpt lat="42.58269277054795" lon="13.637629627566758"><ele>252.0</ele><time>2026-05-03T12:28:56Z</time></trkpt><trkpt lat="42.582650446646326" lon="13.637466946752598"><ele>252.0</ele><time>2026-05-03T12:28:57Z</time></trkpt><trkpt lat="42.58260152236796" lon="13.637258773181747"><ele>252.0</ele><time>2026-05-03T12:28:58Z</time></trkpt><trkpt lat="42.58254257679421" lon="13.637049123227623"><ele>253.33333333333331</ele><time>2026-05-03T12:28:59Z</time></trkpt><trkpt lat="42.58246694049838" lon="13.636826641347318"><ele>254.66666666666666</ele><time>2026-05-03T12:29:00Z</time></trkpt><trkpt lat="42.582392090359214" lon="13.636592579263912"><ele>256.0</ele><time>2026-05-03T12:29:01Z</time></trkpt><trkpt lat="42.58231982317209" lon="13.636369536517618"><ele>256.3333333333333</ele><time>2026-05-03T12:29:02Z</time></trkpt><trkpt lat="42.5822432884718" lon="13.636132677283024"><ele>256.6666666666667</ele><time>2026-05-03T12:29:03Z</time></trkpt><trkpt lat="42.58216788172414" lon="13.635887674128755"><ele>257.0</ele><time>2026-05-03T12:29:04Z</time></trkpt><trkpt lat="42.582085949074006" lon="13.635634432716575"><ele>255.66666666666669</ele><time>2026-05-03T12:29:05Z</time></trkpt><trkpt lat="42.58199989523096" lon="13.635373067833434"><ele>254.33333333333331</ele><time>2026-05-03T12:29:06Z</time></trkpt><trkpt lat="42.58191469074402" lon="13.63511460392818"><ele>253.0</ele><time>2026-05-03T12:29:07Z</time></trkpt><trkpt lat="42.58183875972006" lon="13.63487699303323"><ele>253.0</ele><time>2026-05-03T12:29:08Z</time></trkpt><trkpt lat="42.581767405223204" lon="13.634648158199509"><ele>253.0</ele><time>2026-05-03T12:29:09Z</time></trkpt><trkpt lat="42.58169669024258" lon="13.634434541633695"><ele>253.0</ele><time>2026-05-03T12:29:10Z</time></trkpt><trkpt lat="42.58162861951542" lon="13.634231908804669"><ele>252.75</ele><time>2026-05-03T12:29:11Z</time></trkpt><trkpt lat="42.58156868214525" lon="13.634035885414551"><ele>252.5</ele><time>2026-05-03T12:29:12Z</time></trkpt><trkpt lat="42.581514238497206" lon="13.633856761165534"><ele>252.25</ele><time>2026-05-03T12:29:13Z</time></trkpt><trkpt lat="42.58146481439023" lon="13.633697073220269"><ele>252.0</ele><time>2026-05-03T12:29:14Z</time></trkpt><trkpt lat="42.581423038973156" lon="13.633557628252362"><ele>252.66666666666666</ele><time>2026-05-03T12:29:15Z</time></trkpt><trkpt lat="42.58139181096441" lon="13.633431314506831"><ele>253.33333333333331</ele><time>2026-05-03T12:29:16Z</time></trkpt><trkpt lat="42.581371471564445" lon="13.633311752427778"><ele>254.0</ele><time>2026-05-03T12:29:17Z</time></trkpt><trkpt lat="42.581361739614984" lon="13.633200804491297"><ele>254.66666666666666</ele><time>2026-05-03T12:29:18Z</time></trkpt><trkpt lat="42.581355376199255" lon="13.633100343510405"><ele>255.33333333333331</ele><time>2026-05-03T12:29:19Z</time></trkpt><trkpt lat="42.58132327690749" lon="13.633008743229299"><ele>256.0</ele><time>2026-05-03T12:29:20Z</time></trkpt><trkpt lat="42.58125487685862" lon="13.632915773250181"><ele>255.5</ele><time>2026-05-03T12:29:21Z</time></trkpt><trkpt lat="42.58118250252609" lon="13.632802310663454"><ele>255.0</ele><time>2026-05-03T12:29:22Z</time></trkpt><trkpt lat="42.58112041359004" lon="13.632632901610648"><ele>254.5</ele><time>2026-05-03T12:29:23Z</time></trkpt><trkpt lat="42.58105094994717" lon="13.632384546991588"><ele>254.0</ele><time>2026-05-03T12:29:24Z</time></trkpt><trkpt lat="42.5809647019893" lon="13.632126342813672"><ele>252.33333333333334</ele><time>2026-05-03T12:29:25Z</time></trkpt><trkpt lat="42.58089271491034" lon="13.63189261053234"><ele>250.66666666666669</ele><time>2026-05-03T12:29:26Z</time></trkpt><trkpt lat="42.580820946129116" lon="13.63167145042172"><ele>249.0</ele><time>2026-05-03T12:29:27Z</time></trkpt><trkpt lat="42.58075392981418" lon="13.631462310912319"><ele>249.0</ele><time>2026-05-03T12:29:28Z</time></trkpt><trkpt lat="42.580692170549426" lon="13.631268648033101"><ele>249.0</ele><time>2026-05-03T12:29:29Z</time></trkpt><trkpt lat="42.58063338994618" lon="13.631086547525763"><ele>249.0</ele><time>2026-05-03T12:29:30Z</time></trkpt><trkpt lat="42.58058040068537" lon="13.630922606344102"><ele>249.0</ele><time>2026-05-03T12:29:31Z</time></trkpt><trkpt lat="42.580531698025915" lon="13.630784500842074"><ele>249.39999999999998</ele><time>2026-05-03T12:29:32Z</time></trkpt><trkpt lat="42.58048109840196" lon="13.630662728868904"><ele>249.79999999999998</ele><time>2026-05-03T12:29:33Z</time></trkpt><trkpt lat="42.5804328622757" lon="13.630543471649185"><ele>250.20000000000002</ele><time>2026-05-03T12:29:34Z</time></trkpt><trkpt lat="42.5803882495391" lon="13.63040260262764"><ele>250.60000000000002</ele><time>2026-05-03T12:29:35Z</time></trkpt><trkpt lat="42.5803432565012" lon="13.630234718716876"><ele>251.0</ele><time>2026-05-03T12:29:35.999Z</time></trkpt><trkpt lat="42.58029369900579" lon="13.630042856165185"><ele>254.0</ele><time>2026-05-03T12:29:36.999Z</time></trkpt><trkpt lat="42.58023633049072" lon="13.629830453605008"><ele>257.0</ele><time>2026-05-03T12:29:37.999Z</time></trkpt><trkpt lat="42.58016360204041" lon="13.629595034005787"><ele>260.0</ele><time>2026-05-03T12:29:38.999Z</time></trkpt><trkpt lat="42.58008276977018" lon="13.629333339453474"><ele>260.5</ele><time>2026-05-03T12:29:39.999Z</time></trkpt><trkpt lat="42.57998892055099" lon="13.629030588998038"><ele>261.0</ele><time>2026-05-03T12:29:40.999Z</time></trkpt><trkpt lat="42.57987826562617" lon="13.628690655846926"><ele>262.5</ele><time>2026-05-03T12:29:41.999Z</time></trkpt><trkpt lat="42.5797784401629" lon="13.62838833829253"><ele>264.0</ele><time>2026-05-03T12:29:42.999Z</time></trkpt><trkpt lat="42.57968951110251" lon="13.628112559664789"><ele>264.0</ele><time>2026-05-03T12:29:43.999Z</time></trkpt><trkpt lat="42.57960697639587" lon="13.627852972491187"><ele>264.0</ele><time>2026-05-03T12:29:44.999Z</time></trkpt><trkpt lat="42.57953050840451" lon="13.62760855582433"><ele>264.0</ele><time>2026-05-03T12:29:45.999Z</time></trkpt><trkpt lat="42.57944875994907" lon="13.627355935386364"><ele>265.0</ele><time>2026-05-03T12:29:46.999Z</time></trkpt><trkpt lat="42.57935708457486" lon="13.62709667230499"><ele>266.0</ele><time>2026-05-03T12:29:47.999Z</time></trkpt><trkpt lat="42.57924638275805" lon="13.626832503556125"><ele>267.0</ele><time>2026-05-03T12:29:48.999Z</time></trkpt><trkpt lat="42.579098324854925" lon="13.626556174227089"><ele>267.0</ele><time>2026-05-03T12:29:49.999Z</time></trkpt><trkpt lat="42.57895559475872" lon="13.626316384800994"><ele>267.0</ele><time>2026-05-03T12:29:50.999Z</time></trkpt><trkpt lat="42.57881992675635" lon="13.626095108171704"><ele>267.0</ele><time>2026-05-03T12:29:51.999Z</time></trkpt><trkpt lat="42.578699720684" lon="13.625891497746784"><ele>268.6666666666667</ele><time>2026-05-03T12:29:52.999Z</time></trkpt><trkpt lat="42.5785880730391" lon="13.625705219518789"><ele>270.33333333333337</ele><time>2026-05-03T12:29:53.999Z</time></trkpt><trkpt lat="42.578479253968425" lon="13.625533616610921"><ele>272.0</ele><time>2026-05-03T12:29:54.999Z</time></trkpt><trkpt lat="42.57836570145152" lon="13.625390643292807"><ele>269.25</ele><time>2026-05-03T12:29:55.999Z</time></trkpt><trkpt lat="42.57823916459959" lon="13.625284816049717"><ele>266.5</ele><time>2026-05-03T12:29:56.999Z</time></trkpt><trkpt lat="42.578111271628394" lon="13.625206461303941"><ele>263.75</ele><time>2026-05-03T12:29:57.999Z</time></trkpt><trkpt lat="42.578001906680385" lon="13.62513648253108"><ele>261.0</ele><time>2026-05-03T12:29:58.999Z</time></trkpt><trkpt lat="42.5779170390595" lon="13.625054935364494"><ele>261.0</ele><time>2026-05-03T12:29:59.999Z</time></trkpt><trkpt lat="42.57786534068664" lon="13.624952879776217"><ele>261.0</ele><time>2026-05-03T12:30:00.999Z</time></trkpt><trkpt lat="42.57784577309294" lon="13.624829768529668"><ele>261.0</ele><time>2026-05-03T12:30:01.999Z</time></trkpt><trkpt lat="42.577876704817776" lon="13.62469820297217"><ele>261.0</ele><time>2026-05-03T12:30:02.999Z</time></trkpt><trkpt lat="42.57792894917158" lon="13.624541288986435"><ele>261.0</ele><time>2026-05-03T12:30:03.999Z</time></trkpt><trkpt lat="42.57797348925048" lon="13.62434631990267"><ele>260.75</ele><time>2026-05-03T12:30:04.999Z</time></trkpt><trkpt lat="42.57801068642279" lon="13.624154876651643"><ele>260.5</ele><time>2026-05-03T12:30:05.999Z</time></trkpt><trkpt lat="42.578038666400936" lon="13.62397057285396"><ele>260.25</ele><time>2026-05-03T12:30:06.999Z</time></trkpt><trkpt lat="42.57804754052688" lon="13.62377234710886"><ele>260.0</ele><time>2026-05-03T12:30:07.999Z</time></trkpt><trkpt lat="42.5780376327686" lon="13.623561310669974"><ele>262.0</ele><time>2026-05-03T12:30:08.999Z</time></trkpt><trkpt lat="42.57801211097359" lon="13.623347528454069"><ele>264.0</ele><time>2026-05-03T12:30:09.999Z</time></trkpt><trkpt lat="42.57797559569804" lon="13.62313210329461"><ele>266.0</ele><time>2026-05-03T12:30:10.999Z</time></trkpt><trkpt lat="42.57793573899913" lon="13.622893638155713"><ele>266.33333333333337</ele><time>2026-05-03T12:30:11.999Z</time></trkpt><trkpt lat="42.57789243174824" lon="13.622643561666257"><ele>266.6666666666667</ele><time>2026-05-03T12:30:12.999Z</time></trkpt><trkpt lat="42.57785041158554" lon="13.622402557120207"><ele>267.0</ele><time>2026-05-03T12:30:13.999Z</time></trkpt><trkpt lat="42.57781213891604" lon="13.622183531397955"><ele>270.75</ele><time>2026-05-03T12:30:14.999Z</time></trkpt><trkpt lat="42.57777725675156" lon="13.621981475481277"><ele>274.5</ele><time>2026-05-03T12:30:15.999Z</time></trkpt><trkpt lat="42.57775037129448" lon="13.621792160406661"><ele>278.25</ele><time>2026-05-03T12:30:16.999Z</time></trkpt><trkpt lat="42.577730533573316" lon="13.621587527064143"><ele>282.0</ele><time>2026-05-03T12:30:17.999Z</time></trkpt><trkpt lat="42.57772467507088" lon="13.621365206458153"><ele>282.6666666666667</ele><time>2026-05-03T12:30:18.999Z</time></trkpt><trkpt lat="42.57773624350116" lon="13.621128870729247"><ele>283.33333333333337</ele><time>2026-05-03T12:30:19.999Z</time></trkpt><trkpt lat="42.57776110711576" lon="13.620879708061688"><ele>284.0</ele><time>2026-05-03T12:30:20.999Z</time></trkpt><trkpt lat="42.57782206604266" lon="13.620598065965172"><ele>280.0</ele><time>2026-05-03T12:30:21.999Z</time></trkpt><trkpt lat="42.577899796409426" lon="13.62032397869991"><ele>276.0</ele><time>2026-05-03T12:30:22.999Z</time></trkpt><trkpt lat="42.57795848717" lon="13.620095954112285"><ele>272.0</ele><time>2026-05-03T12:30:23.999Z</time></trkpt><trkpt lat="42.578016214126876" lon="13.619883216126889"><ele>272.0</ele><time>2026-05-03T12:30:24.999Z</time></trkpt><trkpt lat="42.57807194697136" lon="13.619684428830375"><ele>272.0</ele><time>2026-05-03T12:30:25.999Z</time></trkpt><trkpt lat="42.578123066382034" lon="13.619462704689"><ele>272.0</ele><time>2026-05-03T12:30:26.999Z</time></trkpt><trkpt lat="42.57814036253165" lon="13.61922110993958"><ele>273.33333333333337</ele><time>2026-05-03T12:30:27.999Z</time></trkpt><trkpt lat="42.578131080114396" lon="13.618972565393989"><ele>274.6666666666667</ele><time>2026-05-03T12:30:28.999Z</time></trkpt><trkpt lat="42.57812772976579" lon="13.618742438645768"><ele>276.0</ele><time>2026-05-03T12:30:29.999Z</time></trkpt><trkpt lat="42.578123356063436" lon="13.618529498365417"><ele>279.3333333333333</ele><time>2026-05-03T12:30:30.999Z</time></trkpt><trkpt lat="42.578143839212046" lon="13.618333980579536"><ele>282.66666666666663</ele><time>2026-05-03T12:30:32Z</time></trkpt><trkpt lat="42.57816622610863" lon="13.61813893610775"><ele>286.0</ele><time>2026-05-03T12:30:33Z</time></trkpt><trkpt lat="42.57820559668547" lon="13.617926213096096"><ele>287.66666666666663</ele><time>2026-05-03T12:30:34Z</time></trkpt><trkpt lat="42.578255873136214" lon="13.617708359551557"><ele>289.3333333333333</ele><time>2026-05-03T12:30:35Z</time></trkpt><trkpt lat="42.57830422877877" lon="13.617489024843827"><ele>291.0</ele><time>2026-05-03T12:30:36Z</time></trkpt><trkpt lat="42.578359274179405" lon="13.61728285812777"><ele>291.0</ele><time>2026-05-03T12:30:37Z</time></trkpt><trkpt lat="42.57839740895181" lon="13.617074988179617"><ele>291.0</ele><time>2026-05-03T12:30:38Z</time></trkpt><trkpt lat="42.578400125452504" lon="13.616845078783525"><ele>291.0</ele><time>2026-05-03T12:30:39Z</time></trkpt><trkpt lat="42.57840439071959" lon="13.616607172049322"><ele>292.0</ele><time>2026-05-03T12:30:40Z</time></trkpt><trkpt lat="42.57843031751484" lon="13.616374510841293"><ele>293.0</ele><time>2026-05-03T12:30:41Z</time></trkpt><trkpt lat="42.57846191586023" lon="13.6161668646291"><ele>294.0</ele><time>2026-05-03T12:30:42Z</time></trkpt><trkpt lat="42.57849934953326" lon="13.615972600908009"><ele>294.0</ele><time>2026-05-03T12:30:43Z</time></trkpt><trkpt lat="42.57854418952491" lon="13.615778706395012"><ele>294.0</ele><time>2026-05-03T12:30:44Z</time></trkpt><trkpt lat="42.578603969115754" lon="13.615583253887536"><ele>294.0</ele><time>2026-05-03T12:30:45Z</time></trkpt><trkpt lat="42.57867827205005" lon="13.615387057540715"><ele>290.3333333333333</ele><time>2026-05-03T12:30:46Z</time></trkpt><trkpt lat="42.578777571024546" lon="13.615191479167322"><ele>286.66666666666663</ele><time>2026-05-03T12:30:47Z</time></trkpt><trkpt lat="42.578879946184614" lon="13.615008466868442"><ele>283.0</ele><time>2026-05-03T12:30:48Z</time></trkpt><trkpt lat="42.5789671127128" lon="13.614844376500857"><ele>283.0</ele><time>2026-05-03T12:30:49Z</time></trkpt><trkpt lat="42.57904995579972" lon="13.614688292568001"><ele>283.0</ele><time>2026-05-03T12:30:50Z</time></trkpt><trkpt lat="42.57912374690287" lon="13.614547291911753"><ele>283.0</ele><time>2026-05-03T12:30:51Z</time></trkpt><trkpt lat="42.57917744890673" lon="13.614401809459434"><ele>283.0</ele><time>2026-05-03T12:30:52Z</time></trkpt><trkpt lat="42.579189705763305" lon="13.614237818556763"><ele>284.0</ele><time>2026-05-03T12:30:53Z</time></trkpt><trkpt lat="42.5791611218009" lon="13.61405533631684"><ele>285.0</ele><time>2026-05-03T12:30:54Z</time></trkpt><trkpt lat="42.57908843098135" lon="13.61386456563814"><ele>286.0</ele><time>2026-05-03T12:30:55Z</time></trkpt><trkpt lat="42.57897854347002" lon="13.613681385972287"><ele>283.66666666666663</ele><time>2026-05-03T12:30:56Z</time></trkpt><trkpt lat="42.578841439881145" lon="13.613453746491658"><ele>281.3333333333333</ele><time>2026-05-03T12:30:57Z</time></trkpt><trkpt lat="42.57868855081247" lon="13.613234454498823"><ele>279.0</ele><time>2026-05-03T12:30:58Z</time></trkpt><trkpt lat="42.57856713589176" lon="13.613050094897403"><ele>285.3333333333333</ele><time>2026-05-03T12:30:59Z</time></trkpt><trkpt lat="42.57846591635971" lon="13.61288144496662"><ele>291.66666666666663</ele><time>2026-05-03T12:31:00Z</time></trkpt><trkpt lat="42.578398914720104" lon="13.612595259822523"><ele>298.0</ele><time>2026-05-03T12:31:01Z</time></trkpt><trkpt lat="42.5783527385707" lon="13.612328362510326"><ele>298.0</ele><time>2026-05-03T12:31:02Z</time></trkpt><trkpt lat="42.578299872237835" lon="13.612094042872496"><ele>298.0</ele><time>2026-05-03T12:31:03Z</time></trkpt><trkpt lat="42.57826129230749" lon="13.611888601983905"><ele>298.0</ele><time>2026-05-03T12:31:04Z</time></trkpt><trkpt lat="42.57825234698135" lon="13.611679859200892"><ele>298.3333333333333</ele><time>2026-05-03T12:31:05Z</time></trkpt><trkpt lat="42.578284691678576" lon="13.61147354320628"><ele>298.6666666666667</ele><time>2026-05-03T12:31:06Z</time></trkpt><trkpt lat="42.57834748342139" lon="13.611254059239101"><ele>299.0</ele><time>2026-05-03T12:31:07Z</time></trkpt><trkpt lat="42.57846368219316" lon="13.610993442170502"><ele>305.5</ele><time>2026-05-03T12:31:08Z</time></trkpt><trkpt lat="42.57858871879452" lon="13.610694795709039"><ele>312.0</ele><time>2026-05-03T12:31:09Z</time></trkpt><trkpt lat="42.5787083757391" lon="13.610439472093327"><ele>308.6666666666667</ele><time>2026-05-03T12:31:10Z</time></trkpt><trkpt lat="42.57883299700378" lon="13.61021142346706"><ele>305.33333333333337</ele><time>2026-05-03T12:31:11Z</time></trkpt><trkpt lat="42.57894827564113" lon="13.610003553847303"><ele>302.0</ele><time>2026-05-03T12:31:12Z</time></trkpt><trkpt lat="42.57905041377867" lon="13.609813232214423"><ele>302.0</ele><time>2026-05-03T12:31:13Z</time></trkpt><trkpt lat="42.57915780214756" lon="13.609634369936185"><ele>302.0</ele><time>2026-05-03T12:31:14Z</time></trkpt><trkpt lat="42.57928917558072" lon="13.609476642355002"><ele>302.0</ele><time>2026-05-03T12:31:15Z</time></trkpt><trkpt lat="42.57943501660512" lon="13.609340510474851"><ele>297.33333333333337</ele><time>2026-05-03T12:31:16Z</time></trkpt><trkpt lat="42.57956216340323" lon="13.609201823033938"><ele>292.6666666666667</ele><time>2026-05-03T12:31:17Z</time></trkpt><trkpt lat="42.57967191764894" lon="13.609029370662348"><ele>288.0</ele><time>2026-05-03T12:31:18Z</time></trkpt><trkpt lat="42.57976305394697" lon="13.608822751624478"><ele>291.3333333333333</ele><time>2026-05-03T12:31:19Z</time></trkpt><trkpt lat="42.57982970203256" lon="13.608597404548174"><ele>294.66666666666663</ele><time>2026-05-03T12:31:20Z</time></trkpt><trkpt lat="42.57986193994611" lon="13.608365013154431"><ele>298.0</ele><time>2026-05-03T12:31:21Z</time></trkpt><trkpt lat="42.57985998673596" lon="13.608122329168747"><ele>298.0</ele><time>2026-05-03T12:31:22Z</time></trkpt><trkpt lat="42.57984347875214" lon="13.607884916971024"><ele>298.0</ele><time>2026-05-03T12:31:23Z</time></trkpt><trkpt lat="42.579831898045526" lon="13.607671723745945"><ele>298.0</ele><time>2026-05-03T12:31:24Z</time></trkpt><trkpt lat="42.57985041844363" lon="13.607480401899942"><ele>300.0</ele><time>2026-05-03T12:31:25Z</time></trkpt><trkpt lat="42.579906310766845" lon="13.607265189357916"><ele>302.0</ele><time>2026-05-03T12:31:26Z</time></trkpt><trkpt lat="42.57997493620201" lon="13.607062864206512"><ele>304.0</ele><time>2026-05-03T12:31:27Z</time></trkpt><trkpt lat="42.58002519292812" lon="13.606866617048984"><ele>305.3333333333333</ele><time>2026-05-03T12:31:28Z</time></trkpt><trkpt lat="42.580043879717536" lon="13.606672222666289"><ele>306.6666666666667</ele><time>2026-05-03T12:31:29Z</time></trkpt><trkpt lat="42.58002425384892" lon="13.606444955067923"><ele>308.0</ele><time>2026-05-03T12:31:30Z</time></trkpt><trkpt lat="42.57996409212631" lon="13.606192787526712"><ele>306.0</ele><time>2026-05-03T12:31:31Z</time></trkpt><trkpt lat="42.579867940838085" lon="13.605906770438306"><ele>304.0</ele><time>2026-05-03T12:31:32Z</time></trkpt><trkpt lat="42.57978322925435" lon="13.605650384854815"><ele>302.0</ele><time>2026-05-03T12:31:33Z</time></trkpt><trkpt lat="42.579721537695285" lon="13.605387857999752"><ele>304.5</ele><time>2026-05-03T12:31:34Z</time></trkpt><trkpt lat="42.57965951898098" lon="13.605082280357776"><ele>307.0</ele><time>2026-05-03T12:31:35Z</time></trkpt><trkpt lat="42.5796398191954" lon="13.604773111528482"><ele>304.5</ele><time>2026-05-03T12:31:36Z</time></trkpt><trkpt lat="42.579612857620496" lon="13.604450164511402"><ele>302.0</ele><time>2026-05-03T12:31:37Z</time></trkpt><trkpt lat="42.57960265089354" lon="13.60410444748575"><ele>302.0</ele><time>2026-05-03T12:31:38Z</time></trkpt><trkpt lat="42.5796075531602" lon="13.603782873429408"><ele>302.0</ele><time>2026-05-03T12:31:38.999Z</time></trkpt><trkpt lat="42.57959611307761" lon="13.603489775059046"><ele>301.6666666666667</ele><time>2026-05-03T12:31:39.999Z</time></trkpt><trkpt lat="42.5795743918821" lon="13.603205029954198"><ele>301.3333333333333</ele><time>2026-05-03T12:31:40.999Z</time></trkpt><trkpt lat="42.57953202587648" lon="13.602906443660123"><ele>301.0</ele><time>2026-05-03T12:31:41.999Z</time></trkpt><trkpt lat="42.579484461129766" lon="13.602616971510441"><ele>305.3333333333333</ele><time>2026-05-03T12:31:42.999Z</time></trkpt><trkpt lat="42.57942259609272" lon="13.602345874650046"><ele>309.6666666666667</ele><time>2026-05-03T12:31:43.999Z</time></trkpt><trkpt lat="42.579333228171535" lon="13.602082705668039"><ele>314.0</ele><time>2026-05-03T12:31:44.999Z</time></trkpt><trkpt lat="42.57920332803979" lon="13.60180123993616"><ele>314.0</ele><time>2026-05-03T12:31:45.999Z</time></trkpt><trkpt lat="42.579041051045664" lon="13.60149924300751"><ele>314.0</ele><time>2026-05-03T12:31:46.999Z</time></trkpt><trkpt lat="42.578870688211424" lon="13.60120282675097"><ele>309.6666666666667</ele><time>2026-05-03T12:31:47.999Z</time></trkpt><trkpt lat="42.57873980214744" lon="13.600950363994107"><ele>305.3333333333333</ele><time>2026-05-03T12:31:48.999Z</time></trkpt><trkpt lat="42.57861238495187" lon="13.600732979337332"><ele>301.0</ele><time>2026-05-03T12:31:49.999Z</time></trkpt><trkpt lat="42.57849608143838" lon="13.600527768243644"><ele>305.3333333333333</ele><time>2026-05-03T12:31:50.999Z</time></trkpt><trkpt lat="42.578389676594114" lon="13.60033666953247"><ele>309.6666666666667</ele><time>2026-05-03T12:31:51.999Z</time></trkpt><trkpt lat="42.57829849151038" lon="13.600150818531198"><ele>314.0</ele><time>2026-05-03T12:31:52.999Z</time></trkpt><trkpt lat="42.57822912781812" lon="13.59997243294799"><ele>314.0</ele><time>2026-05-03T12:31:53.999Z</time></trkpt><trkpt lat="42.578173694635446" lon="13.599774041932887"><ele>314.0</ele><time>2026-05-03T12:31:54.999Z</time></trkpt><trkpt lat="42.57813458733774" lon="13.599524057232383"><ele>314.0</ele><time>2026-05-03T12:31:55.999Z</time></trkpt><trkpt lat="42.5781183327188" lon="13.599257239857808"><ele>313.6666666666667</ele><time>2026-05-03T12:31:56.999Z</time></trkpt><trkpt lat="42.578118410752246" lon="13.598993434473092"><ele>313.3333333333333</ele><time>2026-05-03T12:31:57.999Z</time></trkpt><trkpt lat="42.57813804238443" lon="13.598729677657627"><ele>313.0</ele><time>2026-05-03T12:31:58.999Z</time></trkpt><trkpt lat="42.5781971825584" lon="13.598415510424696"><ele>313.0</ele><time>2026-05-03T12:31:59.999Z</time></trkpt><trkpt lat="42.57825940527243" lon="13.59809208716989"><ele>313.0</ele><time>2026-05-03T12:32:00.999Z</time></trkpt><trkpt lat="42.57830945340119" lon="13.59783664907521"><ele>313.0</ele><time>2026-05-03T12:32:01.999Z</time></trkpt><trkpt lat="42.57835259286733" lon="13.597613994722598"><ele>312.75</ele><time>2026-05-03T12:32:02.999Z</time></trkpt><trkpt lat="42.578386729885004" lon="13.597411859293203"><ele>312.5</ele><time>2026-05-03T12:32:03.999Z</time></trkpt><trkpt lat="42.578409006415235" lon="13.597228634663034"><ele>312.25</ele><time>2026-05-03T12:32:04.999Z</time></trkpt><trkpt lat="42.57839724205643" lon="13.597058498769329"><ele>312.0</ele><time>2026-05-03T12:32:05.999Z</time></trkpt><trkpt lat="42.57834585930293" lon="13.596910865991495"><ele>312.0</ele><time>2026-05-03T12:32:06.999Z</time></trkpt><trkpt lat="42.578254866217854" lon="13.596799499683437"><ele>312.0</ele><time>2026-05-03T12:32:07.999Z</time></trkpt><trkpt lat="42.57812866979038" lon="13.59671465932474"><ele>312.0</ele><time>2026-05-03T12:32:08.999Z</time></trkpt><trkpt lat="42.57798933508067" lon="13.596615092812081"><ele>312.0</ele><time>2026-05-03T12:32:09.999Z</time></trkpt><trkpt lat="42.577862131247606" lon="13.59641683554864"><ele>320.3333333333333</ele><time>2026-05-03T12:32:10.999Z</time></trkpt><trkpt lat="42.577692345806526" lon="13.596203703620434"><ele>328.66666666666663</ele><time>2026-05-03T12:32:11.999Z</time></trkpt><trkpt lat="42.57755611904578" lon="13.595990893747636"><ele>337.0</ele><time>2026-05-03T12:32:12.999Z</time></trkpt><trkpt lat="42.577457286168546" lon="13.595767199466305"><ele>337.0</ele><time>2026-05-03T12:32:13.999Z</time></trkpt><trkpt lat="42.577375998284985" lon="13.595546213619487"><ele>337.0</ele><time>2026-05-03T12:32:14.999Z</time></trkpt><trkpt lat="42.57731545695284" lon="13.595351830204448"><ele>337.0</ele><time>2026-05-03T12:32:15.999Z</time></trkpt><trkpt lat="42.57729251422093" lon="13.595135709936278"><ele>332.0</ele><time>2026-05-03T12:32:16.999Z</time></trkpt><trkpt lat="42.57729524067828" lon="13.594867346685437"><ele>327.0</ele><time>2026-05-03T12:32:17.999Z</time></trkpt><trkpt lat="42.577294453127976" lon="13.594537242818545"><ele>322.0</ele><time>2026-05-03T12:32:18.999Z</time></trkpt><trkpt lat="42.57729497124604" lon="13.594173818069132"><ele>322.0</ele><time>2026-05-03T12:32:19.999Z</time></trkpt><trkpt lat="42.57729795791532" lon="13.593858351041547"><ele>322.0</ele><time>2026-05-03T12:32:20.999Z</time></trkpt><trkpt lat="42.5772855192105" lon="13.593563835986194"><ele>322.0</ele><time>2026-05-03T12:32:21.999Z</time></trkpt><trkpt lat="42.577295675071184" lon="13.593290028743638"><ele>322.0</ele><time>2026-05-03T12:32:22.999Z</time></trkpt><trkpt lat="42.57730745748946" lon="13.593041821899595"><ele>322.0</ele><time>2026-05-03T12:32:23.999Z</time></trkpt><trkpt lat="42.57731379393233" lon="13.592809167814574"><ele>322.3333333333333</ele><time>2026-05-03T12:32:24.999Z</time></trkpt><trkpt lat="42.57730546861051" lon="13.592582634894057"><ele>322.6666666666667</ele><time>2026-05-03T12:32:25.999Z</time></trkpt><trkpt lat="42.57727175693748" lon="13.592356528460511"><ele>323.0</ele><time>2026-05-03T12:32:26.999Z</time></trkpt><trkpt lat="42.57719603156037" lon="13.592124013900165"><ele>321.0</ele><time>2026-05-03T12:32:27.999Z</time></trkpt><trkpt lat="42.57708021457717" lon="13.591871781160005"><ele>319.0</ele><time>2026-05-03T12:32:28.999Z</time></trkpt><trkpt lat="42.576956329525714" lon="13.59164095185686"><ele>317.0</ele><time>2026-05-03T12:32:29.999Z</time></trkpt><trkpt lat="42.57686716243741" lon="13.59146018738503"><ele>326.0</ele><time>2026-05-03T12:32:30.999Z</time></trkpt><trkpt lat="42.576787585276726" lon="13.591290121709072"><ele>335.0</ele><time>2026-05-03T12:32:31.999Z</time></trkpt><trkpt lat="42.57676520783811" lon="13.591080143299202"><ele>344.0</ele><time>2026-05-03T12:32:32.999Z</time></trkpt><trkpt lat="42.57674739163715" lon="13.590812358771796"><ele>344.0</ele><time>2026-05-03T12:32:33.999Z</time></trkpt><trkpt lat="42.57673474734476" lon="13.59050379154931"><ele>344.0</ele><time>2026-05-03T12:32:34.999Z</time></trkpt><trkpt lat="42.57669774933981" lon="13.59018997438224"><ele>341.33333333333337</ele><time>2026-05-03T12:32:35.999Z</time></trkpt><trkpt lat="42.57666344440414" lon="13.589928235806118"><ele>338.6666666666667</ele><time>2026-05-03T12:32:36.999Z</time></trkpt><trkpt lat="42.57661177458534" lon="13.589656916428149"><ele>336.0</ele><time>2026-05-03T12:32:38Z</time></trkpt><trkpt lat="42.57651481818315" lon="13.589336195198152"><ele>332.0</ele><time>2026-05-03T12:32:39Z</time></trkpt><trkpt lat="42.57639499154471" lon="13.589019289741607"><ele>328.0</ele><time>2026-05-03T12:32:40Z</time></trkpt><trkpt lat="42.57628478431014" lon="13.58873355454223"><ele>337.0</ele><time>2026-05-03T12:32:41Z</time></trkpt><trkpt lat="42.57618267895624" lon="13.588471277310102"><ele>346.0</ele><time>2026-05-03T12:32:42Z</time></trkpt><trkpt lat="42.57607050799448" lon="13.588237702297842"><ele>355.0</ele><time>2026-05-03T12:32:43Z</time></trkpt><trkpt lat="42.57595474261489" lon="13.58803883370282"><ele>355.0</ele><time>2026-05-03T12:32:44Z</time></trkpt><trkpt lat="42.57584412547281" lon="13.587851607112718"><ele>355.0</ele><time>2026-05-03T12:32:45Z</time></trkpt><trkpt lat="42.57575736907154" lon="13.587658521485265"><ele>355.0</ele><time>2026-05-03T12:32:46Z</time></trkpt><trkpt lat="42.57569231222961" lon="13.58739731117424"><ele>346.0</ele><time>2026-05-03T12:32:47Z</time></trkpt><trkpt lat="42.57564638522862" lon="13.587085788362705"><ele>337.0</ele><time>2026-05-03T12:32:48Z</time></trkpt><trkpt lat="42.57561487039478" lon="13.586722205637999"><ele>333.0</ele><time>2026-05-03T12:32:49Z</time></trkpt><trkpt lat="42.57558848612619" lon="13.586348405099152"><ele>329.0</ele><time>2026-05-03T12:32:50Z</time></trkpt><trkpt lat="42.57557245207012" lon="13.58602391245953"><ele>328.33333333333337</ele><time>2026-05-03T12:32:51Z</time></trkpt><trkpt lat="42.57555371561301" lon="13.585735286367473"><ele>327.6666666666667</ele><time>2026-05-03T12:32:52Z</time></trkpt><trkpt lat="42.57552124894703" lon="13.585470079101423"><ele>327.0</ele><time>2026-05-03T12:32:53Z</time></trkpt><trkpt lat="42.57548291882721" lon="13.585230962366019"><ele>326.5</ele><time>2026-05-03T12:32:54Z</time></trkpt><trkpt lat="42.57542955359352" lon="13.585015637307313"><ele>326.0</ele><time>2026-05-03T12:32:55Z</time></trkpt><trkpt lat="42.57537722276827" lon="13.58484241807221"><ele>325.5</ele><time>2026-05-03T12:32:56Z</time></trkpt><trkpt lat="42.57537147451111" lon="13.58466338929832"><ele>325.0</ele><time>2026-05-03T12:32:57Z</time></trkpt><trkpt lat="42.57540296259248" lon="13.584461587269999"><ele>324.0</ele><time>2026-05-03T12:32:58Z</time></trkpt><trkpt lat="42.57545474884336" lon="13.58431031155244"><ele>323.0</ele><time>2026-05-03T12:32:59Z</time></trkpt><trkpt lat="42.57546723157348" lon="13.5841764736007"><ele>322.0</ele><time>2026-05-03T12:33:00Z</time></trkpt><trkpt lat="42.57540853919209" lon="13.58403161810398"><ele>321.0</ele><time>2026-05-03T12:33:01Z</time></trkpt><trkpt lat="42.575284577722094" lon="13.583854920036817"><ele>330.6666666666667</ele><time>2026-05-03T12:33:02Z</time></trkpt><trkpt lat="42.57514180096524" lon="13.583670352943988"><ele>340.33333333333337</ele><time>2026-05-03T12:33:03Z</time></trkpt><trkpt lat="42.57503781711437" lon="13.58351326682545"><ele>350.0</ele><time>2026-05-03T12:33:04Z</time></trkpt><trkpt lat="42.57494499381714" lon="13.583359344166647"><ele>350.0</ele><time>2026-05-03T12:33:05Z</time></trkpt><trkpt lat="42.57488370032409" lon="13.583164517522063"><ele>350.0</ele><time>2026-05-03T12:33:06Z</time></trkpt><trkpt lat="42.57485565934248" lon="13.582926313023078"><ele>350.0</ele><time>2026-05-03T12:33:07Z</time></trkpt><trkpt lat="42.57485630404372" lon="13.582668340694427"><ele>347.0</ele><time>2026-05-03T12:33:08Z</time></trkpt><trkpt lat="42.57482741177558" lon="13.582453642781559"><ele>344.0</ele><time>2026-05-03T12:33:09Z</time></trkpt><trkpt lat="42.57476815640129" lon="13.58223554097696"><ele>341.0</ele><time>2026-05-03T12:33:10Z</time></trkpt><trkpt lat="42.57466534469761" lon="13.582032398306668"><ele>341.25</ele><time>2026-05-03T12:33:11Z</time></trkpt><trkpt lat="42.57457916101292" lon="13.581867248387546"><ele>341.5</ele><time>2026-05-03T12:33:12Z</time></trkpt><trkpt lat="42.57452197488137" lon="13.58172662265688"><ele>341.75</ele><time>2026-05-03T12:33:13Z</time></trkpt><trkpt lat="42.57449327349084" lon="13.581588942064828"><ele>342.0</ele><time>2026-05-03T12:33:14Z</time></trkpt><trkpt lat="42.57450715982867" lon="13.581460354370021"><ele>342.0</ele><time>2026-05-03T12:33:15Z</time></trkpt><trkpt lat="42.57456840979681" lon="13.581365441893697"><ele>342.0</ele><time>2026-05-03T12:33:16Z</time></trkpt><trkpt lat="42.57467955591002" lon="13.581288987013378"><ele>342.0</ele><time>2026-05-03T12:33:17Z</time></trkpt><trkpt lat="42.57481534606627" lon="13.581255444123162"><ele>342.0</ele><time>2026-05-03T12:33:18Z</time></trkpt><trkpt lat="42.57493771994007" lon="13.581251646548228"><ele>342.0</ele><time>2026-05-03T12:33:19Z</time></trkpt><trkpt lat="42.57503574812291" lon="13.581182724869715"><ele>342.0</ele><time>2026-05-03T12:33:20Z</time></trkpt><trkpt lat="42.57510794352037" lon="13.581069658219217"><ele>342.0</ele><time>2026-05-03T12:33:21Z</time></trkpt><trkpt lat="42.57514464796064" lon="13.580921709071049"><ele>342.0</ele><time>2026-05-03T12:33:22Z</time></trkpt><trkpt lat="42.57513863442015" lon="13.580758111718003"><ele>345.0</ele><time>2026-05-03T12:33:23Z</time></trkpt><trkpt lat="42.57507423058169" lon="13.580606434054502"><ele>348.0</ele><time>2026-05-03T12:33:24Z</time></trkpt><trkpt lat="42.57496347446103" lon="13.580497151035877"><ele>351.0</ele><time>2026-05-03T12:33:25Z</time></trkpt><trkpt lat="42.57479807901664" lon="13.580385595722124"><ele>347.6666666666667</ele><time>2026-05-03T12:33:26Z</time></trkpt><trkpt lat="42.57461207327265" lon="13.58028265301152"><ele>344.33333333333337</ele><time>2026-05-03T12:33:27Z</time></trkpt><trkpt lat="42.57445807113748" lon="13.58021634387161"><ele>341.0</ele><time>2026-05-03T12:33:28Z</time></trkpt><trkpt lat="42.57430786502947" lon="13.58022309422699"><ele>341.0</ele><time>2026-05-03T12:33:29Z</time></trkpt><trkpt lat="42.57412516614264" lon="13.58028060801233"><ele>341.0</ele><time>2026-05-03T12:33:30Z</time></trkpt><trkpt lat="42.57392497486908" lon="13.580329023198535"><ele>341.0</ele><time>2026-05-03T12:33:31Z</time></trkpt><trkpt lat="42.573752957956025" lon="13.58034754419285"><ele>344.6666666666667</ele><time>2026-05-03T12:33:32Z</time></trkpt><trkpt lat="42.57359837028741" lon="13.580331484903274"><ele>348.3333333333333</ele><time>2026-05-03T12:33:33Z</time></trkpt><trkpt lat="42.573428752602084" lon="13.580270115745192"><ele>352.0</ele><time>2026-05-03T12:33:34Z</time></trkpt><trkpt lat="42.57325227087833" lon="13.580145804593387"><ele>352.0</ele><time>2026-05-03T12:33:35Z</time></trkpt><trkpt lat="42.573095544355304" lon="13.58004602197266"><ele>352.0</ele><time>2026-05-03T12:33:36Z</time></trkpt><trkpt lat="42.572952149414355" lon="13.580000533755662"><ele>352.0</ele><time>2026-05-03T12:33:37Z</time></trkpt><trkpt lat="42.572819981281924" lon="13.57994279927634"><ele>358.0</ele><time>2026-05-03T12:33:38Z</time></trkpt><trkpt lat="42.5727094361478" lon="13.579826429591431"><ele>364.0</ele><time>2026-05-03T12:33:39Z</time></trkpt><trkpt lat="42.57261514757445" lon="13.579634672012583"><ele>370.0</ele><time>2026-05-03T12:33:40Z</time></trkpt><trkpt lat="42.572534580082014" lon="13.57940027721033"><ele>370.0</ele><time>2026-05-03T12:33:40.999Z</time></trkpt><trkpt lat="42.57246331142582" lon="13.579197970636454"><ele>370.0</ele><time>2026-05-03T12:33:41.999Z</time></trkpt><trkpt lat="42.57242027467969" lon="13.57895976607879"><ele>370.0</ele><time>2026-05-03T12:33:42.999Z</time></trkpt><trkpt lat="42.572382872164674" lon="13.578651538508572"><ele>362.5</ele><time>2026-05-03T12:33:43.999Z</time></trkpt><trkpt lat="42.57234630542449" lon="13.578324828293917"><ele>355.0</ele><time>2026-05-03T12:33:44.999Z</time></trkpt><trkpt lat="42.57228463683805" lon="13.578028633201308"><ele>352.3333333333333</ele><time>2026-05-03T12:33:45.999Z</time></trkpt><trkpt lat="42.57225143830653" lon="13.577766130112922"><ele>349.6666666666667</ele><time>2026-05-03T12:33:46.999Z</time></trkpt><trkpt lat="42.57220727517931" lon="13.577526692969355"><ele>347.0</ele><time>2026-05-03T12:33:47.999Z</time></trkpt><trkpt lat="42.5721273943955" lon="13.577288185766239"><ele>355.33333333333337</ele><time>2026-05-03T12:33:48.999Z</time></trkpt><trkpt lat="42.57200558282943" lon="13.57704554880801"><ele>363.6666666666667</ele><time>2026-05-03T12:33:49.999Z</time></trkpt><trkpt lat="42.57187878819399" lon="13.576833051939072"><ele>372.0</ele><time>2026-05-03T12:33:50.999Z</time></trkpt><trkpt lat="42.571763861938386" lon="13.576648655860248"><ele>372.0</ele><time>2026-05-03T12:33:51.999Z</time></trkpt><trkpt lat="42.571652510483084" lon="13.576494224236306"><ele>372.0</ele><time>2026-05-03T12:33:52.999Z</time></trkpt><trkpt lat="42.57151155920707" lon="13.576385720998157"><ele>372.0</ele><time>2026-05-03T12:33:53.999Z</time></trkpt><trkpt lat="42.57134228207675" lon="13.576297695098454"><ele>370.0</ele><time>2026-05-03T12:33:54.999Z</time></trkpt><trkpt lat="42.57118102328229" lon="13.576225601122825"><ele>368.0</ele><time>2026-05-03T12:33:55.999Z</time></trkpt><trkpt lat="42.57104315609891" lon="13.576164915335939"><ele>366.0</ele><time>2026-05-03T12:33:56.999Z</time></trkpt><trkpt lat="42.57093341787771" lon="13.576106140378837"><ele>364.0</ele><time>2026-05-03T12:33:57.999Z</time></trkpt><trkpt lat="42.57084609642183" lon="13.576035660036442"><ele>364.0</ele><time>2026-05-03T12:33:58.999Z</time></trkpt><trkpt lat="42.57078137876532" lon="13.575925615655615"><ele>364.0</ele><time>2026-05-03T12:33:59.999Z</time></trkpt><trkpt lat="42.57077780573943" lon="13.575759735051513"><ele>364.0</ele><time>2026-05-03T12:34:00.999Z</time></trkpt><trkpt lat="42.57072335776836" lon="13.575554673796216"><ele>364.0</ele><time>2026-05-03T12:34:01.999Z</time></trkpt><trkpt lat="42.570677428264354" lon="13.575306968668878"><ele>364.75</ele><time>2026-05-03T12:34:02.999Z</time></trkpt><trkpt lat="42.570608474685095" lon="13.57512073615841"><ele>365.5</ele><time>2026-05-03T12:34:03.999Z</time></trkpt><trkpt lat="42.57053017689065" lon="13.574968743702401"><ele>366.25</ele><time>2026-05-03T12:34:04.999Z</time></trkpt><trkpt lat="42.570410247165434" lon="13.574842474687804"><ele>367.0</ele><time>2026-05-03T12:34:05.999Z</time></trkpt><trkpt lat="42.57025741031312" lon="13.574742516098535"><ele>367.0</ele><time>2026-05-03T12:34:06.999Z</time></trkpt><trkpt lat="42.57007771490014" lon="13.57463792401057"><ele>367.0</ele><time>2026-05-03T12:34:07.999Z</time></trkpt><trkpt lat="42.56989081780557" lon="13.574538732863774"><ele>367.0</ele><time>2026-05-03T12:34:08.999Z</time></trkpt><trkpt lat="42.56967350515664" lon="13.574465461635004"><ele>363.5</ele><time>2026-05-03T12:34:09.999Z</time></trkpt><trkpt lat="42.569448873292075" lon="13.57442185995464"><ele>360.0</ele><time>2026-05-03T12:34:10.999Z</time></trkpt><trkpt lat="42.56922283942602" lon="13.574392590964532"><ele>360.0</ele><time>2026-05-03T12:34:11.999Z</time></trkpt><trkpt lat="42.56896533870993" lon="13.574417871034557"><ele>360.0</ele><time>2026-05-03T12:34:12.999Z</time></trkpt><trkpt lat="42.5687050795099" lon="13.574465267893828"><ele>360.0</ele><time>2026-05-03T12:34:13.999Z</time></trkpt><trkpt lat="42.56848094561152" lon="13.574516142904235"><ele>360.0</ele><time>2026-05-03T12:34:14.999Z</time></trkpt><trkpt lat="42.56827038922079" lon="13.574571726951918"><ele>360.0</ele><time>2026-05-03T12:34:15.999Z</time></trkpt><trkpt lat="42.56807419952953" lon="13.574672917313386"><ele>369.33333333333337</ele><time>2026-05-03T12:34:16.999Z</time></trkpt><trkpt lat="42.56787747381305" lon="13.57477817962596"><ele>378.6666666666667</ele><time>2026-05-03T12:34:17.999Z</time></trkpt><trkpt lat="42.56768885899466" lon="13.574852800948618"><ele>388.0</ele><time>2026-05-03T12:34:18.999Z</time></trkpt><trkpt lat="42.56750516163747" lon="13.574894265223044"><ele>388.0</ele><time>2026-05-03T12:34:19.999Z</time></trkpt><trkpt lat="42.56730582183422" lon="13.574889782813731"><ele>388.0</ele><time>2026-05-03T12:34:20.999Z</time></trkpt><trkpt lat="42.56707994246762" lon="13.574837513653124"><ele>388.0</ele><time>2026-05-03T12:34:21.999Z</time></trkpt><trkpt lat="42.56683573992743" lon="13.574726246355908"><ele>396.0</ele><time>2026-05-03T12:34:22.999Z</time></trkpt><trkpt lat="42.5666274449634" lon="13.574651844638112"><ele>404.0</ele><time>2026-05-03T12:34:23.999Z</time></trkpt><trkpt lat="42.56643215119427" lon="13.574616584623074"><ele>412.0</ele><time>2026-05-03T12:34:24.999Z</time></trkpt><trkpt lat="42.56624971224188" lon="13.574598485102378"><ele>400.33333333333337</ele><time>2026-05-03T12:34:25.999Z</time></trkpt><trkpt lat="42.566078767479794" lon="13.574573639346582"><ele>388.6666666666667</ele><time>2026-05-03T12:34:26.999Z</time></trkpt><trkpt lat="42.56592589134359" lon="13.574541908986621"><ele>377.0</ele><time>2026-05-03T12:34:27.999Z</time></trkpt><trkpt lat="42.56577600579592" lon="13.574452398160048"><ele>377.0</ele><time>2026-05-03T12:34:28.999Z</time></trkpt><trkpt lat="42.56560661547581" lon="13.574275317840453"><ele>377.0</ele><time>2026-05-03T12:34:29.999Z</time></trkpt><trkpt lat="42.565431418904765" lon="13.574045663914621"><ele>382.33333333333337</ele><time>2026-05-03T12:34:30.999Z</time></trkpt><trkpt lat="42.56527414985229" lon="13.573844005681964"><ele>387.6666666666667</ele><time>2026-05-03T12:34:31.999Z</time></trkpt><trkpt lat="42.565134144828235" lon="13.57364855350822"><ele>393.0</ele><time>2026-05-03T12:34:32.999Z</time></trkpt><trkpt lat="42.56501030285993" lon="13.57345231716971"><ele>393.0</ele><time>2026-05-03T12:34:33.999Z</time></trkpt><trkpt lat="42.56490651604339" lon="13.573274148497486"><ele>393.0</ele><time>2026-05-03T12:34:34.999Z</time></trkpt><trkpt lat="42.564821849227506" lon="13.573085915701638"><ele>393.0</ele><time>2026-05-03T12:34:35.999Z</time></trkpt><trkpt lat="42.56476295497424" lon="13.572852307754564"><ele>387.0</ele><time>2026-05-03T12:34:36.999Z</time></trkpt><trkpt lat="42.564750715602905" lon="13.57256261679895"><ele>381.0</ele><time>2026-05-03T12:34:37.999Z</time></trkpt><trkpt lat="42.56474922777834" lon="13.572273160287423"><ele>375.0</ele><time>2026-05-03T12:34:38.999Z</time></trkpt><trkpt lat="42.564770138872696" lon="13.572045708337777"><ele>374.25</ele><time>2026-05-03T12:34:39.999Z</time></trkpt><trkpt lat="42.56479066302331" lon="13.571863619712454"><ele>373.5</ele><time>2026-05-03T12:34:40.999Z</time></trkpt><trkpt lat="42.564784409637014" lon="13.57170331753366"><ele>372.75</ele><time>2026-05-03T12:34:41.999Z</time></trkpt><trkpt lat="42.564733390660955" lon="13.571545772700938"><ele>372.0</ele><time>2026-05-03T12:34:43Z</time></trkpt><trkpt lat="42.5646273514636" lon="13.571414782228619"><ele>376.33333333333337</ele><time>2026-05-03T12:34:44Z</time></trkpt><trkpt lat="42.564455051529926" lon="13.571271673195719"><ele>380.6666666666667</ele><time>2026-05-03T12:34:45Z</time></trkpt><trkpt lat="42.56426950201019" lon="13.57111941498091"><ele>385.0</ele><time>2026-05-03T12:34:46Z</time></trkpt><trkpt lat="42.564120108621154" lon="13.570975156699987"><ele>385.0</ele><time>2026-05-03T12:34:47Z</time></trkpt><trkpt lat="42.56398162653251" lon="13.570804136004547"><ele>385.0</ele><time>2026-05-03T12:34:48Z</time></trkpt><trkpt lat="42.56386763335834" lon="13.570577848124382"><ele>385.0</ele><time>2026-05-03T12:34:49Z</time></trkpt><trkpt lat="42.563770070515524" lon="13.570367819432253"><ele>380.33333333333337</ele><time>2026-05-03T12:34:50Z</time></trkpt><trkpt lat="42.563698380954214" lon="13.570156908966604"><ele>375.6666666666667</ele><time>2026-05-03T12:34:51Z</time></trkpt><trkpt lat="42.563652717914096" lon="13.56991750999358"><ele>371.0</ele><time>2026-05-03T12:34:52Z</time></trkpt><trkpt lat="42.56364852928719" lon="13.569664075466193"><ele>381.33333333333337</ele><time>2026-05-03T12:34:53Z</time></trkpt><trkpt lat="42.56367029552427" lon="13.569388972806479"><ele>391.6666666666667</ele><time>2026-05-03T12:34:54Z</time></trkpt><trkpt lat="42.563647643050956" lon="13.569127865168676"><ele>402.0</ele><time>2026-05-03T12:34:55Z</time></trkpt><trkpt lat="42.563564286835714" lon="13.568867485989106"><ele>399.66666666666663</ele><time>2026-05-03T12:34:56Z</time></trkpt><trkpt lat="42.56347088397561" lon="13.56860893010897"><ele>397.3333333333333</ele><time>2026-05-03T12:34:57Z</time></trkpt><trkpt lat="42.56342141060004" lon="13.568307791100331"><ele>395.0</ele><time>2026-05-03T12:34:58Z</time></trkpt><trkpt lat="42.56340197949659" lon="13.567953598010925"><ele>392.5</ele><time>2026-05-03T12:34:59Z</time></trkpt><trkpt lat="42.56341857775368" lon="13.567604129541264"><ele>390.0</ele><time>2026-05-03T12:35:00Z</time></trkpt><trkpt lat="42.56342819987544" lon="13.567315718109741"><ele>390.0</ele><time>2026-05-03T12:35:01Z</time></trkpt><trkpt lat="42.56343925240003" lon="13.567039325926705"><ele>390.0</ele><time>2026-05-03T12:35:02Z</time></trkpt><trkpt lat="42.5634473681991" lon="13.566781965790383"><ele>390.0</ele><time>2026-05-03T12:35:03Z</time></trkpt><trkpt lat="42.56345389488544" lon="13.566543035105536"><ele>390.66666666666663</ele><time>2026-05-03T12:35:04Z</time></trkpt><trkpt lat="42.56344555301978" lon="13.566321574124167"><ele>391.3333333333333</ele><time>2026-05-03T12:35:05Z</time></trkpt><trkpt lat="42.56339657670864" lon="13.566117963306153"><ele>392.0</ele><time>2026-05-03T12:35:06Z</time></trkpt><trkpt lat="42.56330986766681" lon="13.565915828515866"><ele>390.3333333333333</ele><time>2026-05-03T12:35:07Z</time></trkpt><trkpt lat="42.56318480706588" lon="13.56571862740823"><ele>388.66666666666663</ele><time>2026-05-03T12:35:08Z</time></trkpt><trkpt lat="42.56303166415319" lon="13.565511270742977"><ele>387.0</ele><time>2026-05-03T12:35:09Z</time></trkpt><trkpt lat="42.56284374056376" lon="13.565334944118677"><ele>387.0</ele><time>2026-05-03T12:35:10Z</time></trkpt><trkpt lat="42.56262813870659" lon="13.565172776074487"><ele>387.0</ele><time>2026-05-03T12:35:11Z</time></trkpt><trkpt lat="42.56240828524148" lon="13.565062550219638"><ele>387.0</ele><time>2026-05-03T12:35:12Z</time></trkpt><trkpt lat="42.562200358356236" lon="13.564980163342364"><ele>387.0</ele><time>2026-05-03T12:35:13Z</time></trkpt><trkpt lat="42.56200569215383" lon="13.564919304616444"><ele>387.0</ele><time>2026-05-03T12:35:14Z</time></trkpt><trkpt lat="42.561822760881945" lon="13.564867049812392"><ele>395.33333333333337</ele><time>2026-05-03T12:35:15Z</time></trkpt><trkpt lat="42.5616517295717" lon="13.564816648826172"><ele>403.6666666666667</ele><time>2026-05-03T12:35:16Z</time></trkpt><trkpt lat="42.561484437103445" lon="13.564763513341367"><ele>412.0</ele><time>2026-05-03T12:35:17Z</time></trkpt><trkpt lat="42.56130822334396" lon="13.564698401734358"><ele>411.0</ele><time>2026-05-03T12:35:18Z</time></trkpt><trkpt lat="42.56113080259059" lon="13.564597131776921"><ele>410.0</ele><time>2026-05-03T12:35:19Z</time></trkpt><trkpt lat="42.560962872735" lon="13.564453064226841"><ele>409.0</ele><time>2026-05-03T12:35:20Z</time></trkpt><trkpt lat="42.560814970410746" lon="13.564280861029943"><ele>409.0</ele><time>2026-05-03T12:35:21Z</time></trkpt><trkpt lat="42.56066425500624" lon="13.56404710723105"><ele>409.0</ele><time>2026-05-03T12:35:22Z</time></trkpt><trkpt lat="42.560488919226145" lon="13.563744278409382"><ele>435.0</ele><time>2026-05-03T12:35:23.074Z</time></trkpt><trkpt lat="42.560303489335865" lon="13.563440032544632"><ele>461.0</ele><time>2026-05-03T12:35:24.059Z</time></trkpt><trkpt lat="42.560104623255135" lon="13.56311738527682"><ele>440.5</ele><time>2026-05-03T12:35:25.052Z</time></trkpt><trkpt lat="42.55991003940483" lon="13.562798321326706"><ele>420.0</ele><time>2026-05-03T12:35:26.048Z</time></trkpt><trkpt lat="42.559736956285484" lon="13.562516317846459"><ele>420.0</ele><time>2026-05-03T12:35:27.044Z</time></trkpt><trkpt lat="42.55956893295624" lon="13.562247646375926"><ele>420.0</ele><time>2026-05-03T12:35:28.035Z</time></trkpt><trkpt lat="42.558494483679134" lon="13.561424324593093"><ele>422.0</ele><time>2026-05-03T12:35:37Z</time></trkpt><trkpt lat="42.55832496678223" lon="13.56131604587249"><ele>424.0</ele><time>2026-05-03T12:35:38Z</time></trkpt><trkpt lat="42.55811795074074" lon="13.56099615902941"><ele>438.0</ele><time>2026-05-03T12:35:39Z</time></trkpt><trkpt lat="42.55778435671807" lon="13.560370686402768"><ele>438.0</ele><time>2026-05-03T12:35:40Z</time></trkpt><trkpt lat="42.55761117323231" lon="13.560374568515332"><ele>438.0</ele><time>2026-05-03T12:35:41Z</time></trkpt><trkpt lat="42.55741660778453" lon="13.560420959406937"><ele>438.0</ele><time>2026-05-03T12:35:42Z</time></trkpt><trkpt lat="42.55727263723928" lon="13.560451502771313"><ele>438.0</ele><time>2026-05-03T12:35:42.999Z</time></trkpt><trkpt lat="42.55713234390736" lon="13.560392707683945"><ele>438.0</ele><time>2026-05-03T12:35:43.999Z</time></trkpt><trkpt lat="42.55699131880455" lon="13.560284341008016"><ele>438.0</ele><time>2026-05-03T12:35:44.999Z</time></trkpt><trkpt lat="42.55680874650025" lon="13.560130696599654"><ele>428.5</ele><time>2026-05-03T12:35:45.999Z</time></trkpt><trkpt lat="42.556609644331985" lon="13.559950446087493"><ele>419.0</ele><time>2026-05-03T12:35:46.999Z</time></trkpt><trkpt lat="42.55643724275256" lon="13.559763985394095"><ele>419.0</ele><time>2026-05-03T12:35:47.999Z</time></trkpt><trkpt lat="42.556313871133455" lon="13.55962917536884"><ele>419.0</ele><time>2026-05-03T12:35:48.999Z</time></trkpt><trkpt lat="42.55618049418749" lon="13.559431228626783"><ele>419.0</ele><time>2026-05-03T12:35:49.999Z</time></trkpt><trkpt lat="42.55607797447481" lon="13.559249835703032"><ele>419.3333333333333</ele><time>2026-05-03T12:35:50.999Z</time></trkpt><trkpt lat="42.55599433609695" lon="13.559065006521665"><ele>419.66666666666663</ele><time>2026-05-03T12:35:51.999Z</time></trkpt><trkpt lat="42.55588711763728" lon="13.558906708315032"><ele>420.0</ele><time>2026-05-03T12:35:52.999Z</time></trkpt><trkpt lat="42.55571936603829" lon="13.55880765921612"><ele>420.0</ele><time>2026-05-03T12:35:53.999Z</time></trkpt><trkpt lat="42.55550252480974" lon="13.558713546436644"><ele>420.0</ele><time>2026-05-03T12:35:54.999Z</time></trkpt><trkpt lat="42.55527426716759" lon="13.558629234635713"><ele>416.0</ele><time>2026-05-03T12:35:55.999Z</time></trkpt><trkpt lat="42.55506966091136" lon="13.558589801701272"><ele>412.0</ele><time>2026-05-03T12:35:56.999Z</time></trkpt><trkpt lat="42.55489197513582" lon="13.558583038269106"><ele>408.0</ele><time>2026-05-03T12:35:57.999Z</time></trkpt><trkpt lat="42.55472552362997" lon="13.55856067796126"><ele>413.33333333333337</ele><time>2026-05-03T12:35:58.999Z</time></trkpt><trkpt lat="42.55453751580276" lon="13.558473442623612"><ele>418.6666666666667</ele><time>2026-05-03T12:35:59.999Z</time></trkpt><trkpt lat="42.55433211017794" lon="13.558336741488857"><ele>424.0</ele><time>2026-05-03T12:36:00.999Z</time></trkpt><trkpt lat="42.55415467760914" lon="13.558190891668321"><ele>424.0</ele><time>2026-05-03T12:36:01.999Z</time></trkpt><trkpt lat="42.55399703440854" lon="13.558047577754506"><ele>424.0</ele><time>2026-05-03T12:36:02.999Z</time></trkpt><trkpt lat="42.5538589146344" lon="13.55788301395528"><ele>424.0</ele><time>2026-05-03T12:36:03.999Z</time></trkpt><trkpt lat="42.55374218919492" lon="13.55772973700398"><ele>423.75</ele><time>2026-05-03T12:36:04.999Z</time></trkpt><trkpt lat="42.55363797340325" lon="13.557571480842592"><ele>423.5</ele><time>2026-05-03T12:36:05.999Z</time></trkpt><trkpt lat="42.553554014567375" lon="13.5574186831862"><ele>423.25</ele><time>2026-05-03T12:36:06.999Z</time></trkpt><trkpt lat="42.55349589042956" lon="13.557280364381464"><ele>423.0</ele><time>2026-05-03T12:36:07.999Z</time></trkpt><trkpt lat="42.55342227426478" lon="13.557170804054676"><ele>423.0</ele><time>2026-05-03T12:36:08.999Z</time></trkpt><trkpt lat="42.553325507686004" lon="13.557119287002665"><ele>423.0</ele><time>2026-05-03T12:36:09.999Z</time></trkpt><trkpt lat="42.55323971981069" lon="13.557111118788677"><ele>423.0</ele><time>2026-05-03T12:36:10.999Z</time></trkpt><trkpt lat="42.553159781202076" lon="13.55710716457999"><ele>423.0</ele><time>2026-05-03T12:36:11.999Z</time></trkpt><trkpt lat="42.55308619202636" lon="13.557085043818695"><ele>423.0</ele><time>2026-05-03T12:36:12.999Z</time></trkpt><trkpt lat="42.55302419384958" lon="13.557030683520647"><ele>423.0</ele><time>2026-05-03T12:36:13.999Z</time></trkpt><trkpt lat="42.55297132567703" lon="13.556946737447177"><ele>416.0</ele><time>2026-05-03T12:36:14.999Z</time></trkpt><trkpt lat="42.55297288645033" lon="13.556709052192518"><ele>409.0</ele><time>2026-05-03T12:36:16.999Z</time></trkpt><trkpt lat="42.55298753347787" lon="13.556533476611047"><ele>402.0</ele><time>2026-05-03T12:36:17.999Z</time></trkpt><trkpt lat="42.55301073201412" lon="13.556298395673783"><ele>405.0</ele><time>2026-05-03T12:36:18.999Z</time></trkpt><trkpt lat="42.55305572802668" lon="13.556027929409687"><ele>408.0</ele><time>2026-05-03T12:36:19.999Z</time></trkpt><trkpt lat="42.55310601981825" lon="13.555800754268597"><ele>411.0</ele><time>2026-05-03T12:36:20.999Z</time></trkpt><trkpt lat="42.55315160520507" lon="13.555591653927372"><ele>411.0</ele><time>2026-05-03T12:36:21.999Z</time></trkpt><trkpt lat="42.55321916869336" lon="13.55540539358655"><ele>411.0</ele><time>2026-05-03T12:36:22.999Z</time></trkpt><trkpt lat="42.5533047486498" lon="13.555237846071474"><ele>411.0</ele><time>2026-05-03T12:36:23.999Z</time></trkpt><trkpt lat="42.55340761336337" lon="13.555070987733915"><ele>411.25</ele><time>2026-05-03T12:36:24.999Z</time></trkpt><trkpt lat="42.55351596499908" lon="13.55492172132407"><ele>411.5</ele><time>2026-05-03T12:36:25.999Z</time></trkpt><trkpt lat="42.553611152375936" lon="13.554786605260338"><ele>411.75</ele><time>2026-05-03T12:36:26.999Z</time></trkpt><trkpt lat="42.55370528163914" lon="13.554663137008244"><ele>412.0</ele><time>2026-05-03T12:36:27.999Z</time></trkpt><trkpt lat="42.55379534892749" lon="13.554549594940159"><ele>414.5</ele><time>2026-05-03T12:36:28.999Z</time></trkpt><trkpt lat="42.55389284606603" lon="13.554456108264791"><ele>417.0</ele><time>2026-05-03T12:36:29.999Z</time></trkpt><trkpt lat="42.55399233989821" lon="13.5543601408626"><ele>419.5</ele><time>2026-05-03T12:36:30.999Z</time></trkpt><trkpt lat="42.5540855030001" lon="13.554236594802106"><ele>422.0</ele><time>2026-05-03T12:36:31.999Z</time></trkpt><trkpt lat="42.55415264809861" lon="13.554061383364495"><ele>422.0</ele><time>2026-05-03T12:36:32.999Z</time></trkpt><trkpt lat="42.55418833311926" lon="13.553875177226612"><ele>422.0</ele><time>2026-05-03T12:36:33.999Z</time></trkpt><trkpt lat="42.55426103386628" lon="13.553718843477668"><ele>422.0</ele><time>2026-05-03T12:36:34.999Z</time></trkpt><trkpt lat="42.55433736080427" lon="13.553581351394907"><ele>422.0</ele><time>2026-05-03T12:36:35.999Z</time></trkpt><trkpt lat="42.554421820222466" lon="13.55346591792739"><ele>419.0</ele><time>2026-05-03T12:36:36.999Z</time></trkpt><trkpt lat="42.55450064112899" lon="13.553351187949556"><ele>416.0</ele><time>2026-05-03T12:36:37.999Z</time></trkpt><trkpt lat="42.55457397973303" lon="13.55322007129673"><ele>413.0</ele><time>2026-05-03T12:36:38.999Z</time></trkpt><trkpt lat="42.554627861474536" lon="13.553083572213712"><ele>410.0</ele><time>2026-05-03T12:36:39.999Z</time></trkpt><trkpt lat="42.55467851129053" lon="13.552953407363422"><ele>410.0</ele><time>2026-05-03T12:36:40.999Z</time></trkpt><trkpt lat="42.55471216421409" lon="13.5527959204418"><ele>410.0</ele><time>2026-05-03T12:36:41.999Z</time></trkpt><trkpt lat="42.554740568134726" lon="13.552644496478356"><ele>410.0</ele><time>2026-05-03T12:36:42.999Z</time></trkpt><trkpt lat="42.554764012559644" lon="13.552506414769011"><ele>410.0</ele><time>2026-05-03T12:36:43.999Z</time></trkpt><trkpt lat="42.55477644099239" lon="13.552374506139346"><ele>410.0</ele><time>2026-05-03T12:36:44.999Z</time></trkpt><trkpt lat="42.554783718770615" lon="13.552254273515686"><ele>410.0</ele><time>2026-05-03T12:36:45.999Z</time></trkpt><trkpt lat="42.55476434472624" lon="13.552129288609962"><ele>410.0</ele><time>2026-05-03T12:36:46.999Z</time></trkpt><trkpt lat="42.55470320112724" lon="13.552002289491043"><ele>410.0</ele><time>2026-05-03T12:36:47.999Z</time></trkpt><trkpt lat="42.55460458650098" lon="13.551920021737141"><ele>410.0</ele><time>2026-05-03T12:36:49Z</time></trkpt><trkpt lat="42.55452696810715" lon="13.551856051422577"><ele>410.0</ele><time>2026-05-03T12:36:50Z</time></trkpt><trkpt lat="42.55449543003561" lon="13.55173668174066"><ele>420.75</ele><time>2026-05-03T12:36:51Z</time></trkpt><trkpt lat="42.55444305762488" lon="13.551601182418354"><ele>431.5</ele><time>2026-05-03T12:36:52Z</time></trkpt><trkpt lat="42.55441323068572" lon="13.551460799847609"><ele>442.25</ele><time>2026-05-03T12:36:53Z</time></trkpt><trkpt lat="42.55439047787579" lon="13.551315841011963"><ele>453.0</ele><time>2026-05-03T12:36:54Z</time></trkpt><trkpt lat="42.554398151695366" lon="13.551147198614904"><ele>453.0</ele><time>2026-05-03T12:36:55Z</time></trkpt><trkpt lat="42.55440936483865" lon="13.550923358297968"><ele>453.0</ele><time>2026-05-03T12:36:56Z</time></trkpt><trkpt lat="42.554428858821886" lon="13.550609318699252"><ele>453.0</ele><time>2026-05-03T12:36:57Z</time></trkpt><trkpt lat="42.5544325888608" lon="13.550299749884523"><ele>453.0</ele><time>2026-05-03T12:36:58Z</time></trkpt><trkpt lat="42.55446380478114" lon="13.550049501687102"><ele>453.0</ele><time>2026-05-03T12:36:59Z</time></trkpt><trkpt lat="42.55448141004304" lon="13.549827168381473"><ele>453.0</ele><time>2026-05-03T12:37:00Z</time></trkpt><trkpt lat="42.55451081432784" lon="13.549632420920023"><ele>451.25</ele><time>2026-05-03T12:37:01Z</time></trkpt><trkpt lat="42.55455674745623" lon="13.549478219557747"><ele>449.5</ele><time>2026-05-03T12:37:02Z</time></trkpt><trkpt lat="42.55456089261887" lon="13.549318630816483"><ele>447.75</ele><time>2026-05-03T12:37:03Z</time></trkpt><trkpt lat="42.55451529554006" lon="13.54913919324874"><ele>446.0</ele><time>2026-05-03T12:37:04Z</time></trkpt><trkpt lat="42.5544358638803" lon="13.548953156279746"><ele>446.0</ele><time>2026-05-03T12:37:05Z</time></trkpt><trkpt lat="42.55436987088876" lon="13.548734593484784"><ele>446.0</ele><time>2026-05-03T12:37:06Z</time></trkpt><trkpt lat="42.55431836264531" lon="13.548545419948478"><ele>446.0</ele><time>2026-05-03T12:37:07Z</time></trkpt><trkpt lat="42.55427142287706" lon="13.548394010152045"><ele>446.0</ele><time>2026-05-03T12:37:08Z</time></trkpt><trkpt lat="42.5541877720132" lon="13.548286501498087"><ele>442.25</ele><time>2026-05-03T12:37:09Z</time></trkpt><trkpt lat="42.55414214901481" lon="13.548160829691593"><ele>438.5</ele><time>2026-05-03T12:37:10Z</time></trkpt><trkpt lat="42.55415134547844" lon="13.547992973048276"><ele>434.75</ele><time>2026-05-03T12:37:11Z</time></trkpt><trkpt lat="42.554209838264704" lon="13.547804015509321"><ele>431.0</ele><time>2026-05-03T12:37:12Z</time></trkpt><trkpt lat="42.55426119745955" lon="13.547648308725961"><ele>431.0</ele><time>2026-05-03T12:37:13Z</time></trkpt><trkpt lat="42.55430646709923" lon="13.547541881526904"><ele>431.0</ele><time>2026-05-03T12:37:14Z</time></trkpt><trkpt lat="42.55440998217883" lon="13.547474845460957"><ele>431.0</ele><time>2026-05-03T12:37:15Z</time></trkpt><trkpt lat="42.5545116538289" lon="13.547424335176638"><ele>431.0</ele><time>2026-05-03T12:37:16Z</time></trkpt><trkpt lat="42.55457429984703" lon="13.547281956800395"><ele>431.0</ele><time>2026-05-03T12:37:17Z</time></trkpt><trkpt lat="42.55463840460071" lon="13.54708231722949"><ele>426.5</ele><time>2026-05-03T12:37:18Z</time></trkpt><trkpt lat="42.55471464982128" lon="13.546797836424789"><ele>422.0</ele><time>2026-05-03T12:37:19Z</time></trkpt><trkpt lat="42.554812357624485" lon="13.546478397663382"><ele>428.5</ele><time>2026-05-03T12:37:20Z</time></trkpt><trkpt lat="42.554913845269624" lon="13.54613843208197"><ele>435.0</ele><time>2026-05-03T12:37:21Z</time></trkpt><trkpt lat="42.55500172625748" lon="13.545852831205186"><ele>435.0</ele><time>2026-05-03T12:37:22Z</time></trkpt><trkpt lat="42.555080225405156" lon="13.545601974940217"><ele>435.0</ele><time>2026-05-03T12:37:23Z</time></trkpt><trkpt lat="42.55515111642376" lon="13.545371530688422"><ele>435.0</ele><time>2026-05-03T12:37:24Z</time></trkpt><trkpt lat="42.555225687563315" lon="13.545128860743594"><ele>432.0</ele><time>2026-05-03T12:37:25Z</time></trkpt><trkpt lat="42.55532494070991" lon="13.544879077417857"><ele>429.0</ele><time>2026-05-03T12:37:26Z</time></trkpt><trkpt lat="42.555433682829815" lon="13.544660411279077"><ele>426.0</ele><time>2026-05-03T12:37:27Z</time></trkpt><trkpt lat="42.55556914727138" lon="13.544446810286766"><ele>440.5</ele><time>2026-05-03T12:37:28Z</time></trkpt><trkpt lat="42.555748575165445" lon="13.544210012158834"><ele>455.0</ele><time>2026-05-03T12:37:29Z</time></trkpt><trkpt lat="42.555964080022015" lon="13.54401040826896"><ele>455.0</ele><time>2026-05-03T12:37:30Z</time></trkpt><trkpt lat="42.55612643739667" lon="13.543819659251941"><ele>455.0</ele><time>2026-05-03T12:37:31Z</time></trkpt><trkpt lat="42.5562733387174" lon="13.543664058778074"><ele>455.0</ele><time>2026-05-03T12:37:32Z</time></trkpt><trkpt lat="42.55642251460953" lon="13.543519826402754"><ele>456.0</ele><time>2026-05-03T12:37:33Z</time></trkpt><trkpt lat="42.556606543855494" lon="13.543373709948522"><ele>457.0</ele><time>2026-05-03T12:37:34Z</time></trkpt><trkpt lat="42.55681011823593" lon="13.543266848643386"><ele>458.0</ele><time>2026-05-03T12:37:35Z</time></trkpt><trkpt lat="42.5569915960341" lon="13.543140956616442"><ele>456.0</ele><time>2026-05-03T12:37:36Z</time></trkpt><trkpt lat="42.55718163350352" lon="13.54294089508457"><ele>454.0</ele><time>2026-05-03T12:37:37Z</time></trkpt><trkpt lat="42.55736697775322" lon="13.542731407703037"><ele>454.0</ele><time>2026-05-03T12:37:38Z</time></trkpt><trkpt lat="42.557525725822615" lon="13.542539720364141"><ele>454.0</ele><time>2026-05-03T12:37:39Z</time></trkpt><trkpt lat="42.557669614195504" lon="13.54230526613488"><ele>454.0</ele><time>2026-05-03T12:37:40Z</time></trkpt><trkpt lat="42.55784127010799" lon="13.542090373091387"><ele>453.6666666666667</ele><time>2026-05-03T12:37:41Z</time></trkpt><trkpt lat="42.55802238869671" lon="13.541946268971463"><ele>453.33333333333337</ele><time>2026-05-03T12:37:42Z</time></trkpt><trkpt lat="42.55816867085955" lon="13.54180441337615"><ele>453.0</ele><time>2026-05-03T12:37:43Z</time></trkpt><trkpt lat="42.55830559815348" lon="13.541721561646446"><ele>453.0</ele><time>2026-05-03T12:37:44Z</time></trkpt><trkpt lat="42.55842371306835" lon="13.541585664075837"><ele>453.0</ele><time>2026-05-03T12:37:44.999Z</time></trkpt><trkpt lat="42.55851800252769" lon="13.541481555922998"><ele>453.0</ele><time>2026-05-03T12:37:45.999Z</time></trkpt><trkpt lat="42.5585729410553" lon="13.541330229742728"><ele>453.0</ele><time>2026-05-03T12:37:46.999Z</time></trkpt><trkpt lat="42.558598776102436" lon="13.541097571150827"><ele>456.66666666666663</ele><time>2026-05-03T12:37:47.999Z</time></trkpt><trkpt lat="42.558630266258" lon="13.540827838799958"><ele>460.3333333333333</ele><time>2026-05-03T12:37:48.999Z</time></trkpt><trkpt lat="42.55870392150843" lon="13.540551958478838"><ele>464.0</ele><time>2026-05-03T12:37:49.999Z</time></trkpt><trkpt lat="42.558798518582286" lon="13.540329900325892"><ele>464.0</ele><time>2026-05-03T12:37:50.999Z</time></trkpt><trkpt lat="42.55883739079841" lon="13.540133084341463"><ele>464.0</ele><time>2026-05-03T12:37:51.999Z</time></trkpt><trkpt lat="42.558888707185524" lon="13.539989775305452"><ele>464.0</ele><time>2026-05-03T12:37:52.999Z</time></trkpt><trkpt lat="42.55894578715972" lon="13.539872347178658"><ele>464.0</ele><time>2026-05-03T12:37:53.999Z</time></trkpt><trkpt lat="42.55901245155301" lon="13.539772470279352"><ele>464.0</ele><time>2026-05-03T12:37:54.999Z</time></trkpt><trkpt lat="42.55913388082129" lon="13.539757669833222"><ele>464.0</ele><time>2026-05-03T12:37:55.999Z</time></trkpt><trkpt lat="42.55930019259368" lon="13.539719441109629"><ele>464.0</ele><time>2026-05-03T12:37:56.999Z</time></trkpt><trkpt lat="42.55946503004486" lon="13.539689981847244"><ele>458.66666666666663</ele><time>2026-05-03T12:37:57.999Z</time></trkpt><trkpt lat="42.55962696220928" lon="13.539715166069795"><ele>453.33333333333337</ele><time>2026-05-03T12:37:58.999Z</time></trkpt><trkpt lat="42.55976324688936" lon="13.53970207790736"><ele>448.0</ele><time>2026-05-03T12:37:59.999Z</time></trkpt><trkpt lat="42.559894641941256" lon="13.539566444709655"><ele>462.0</ele><time>2026-05-03T12:38:00.999Z</time></trkpt><trkpt lat="42.56005026039958" lon="13.539354669621376"><ele>476.0</ele><time>2026-05-03T12:38:01.999Z</time></trkpt><trkpt lat="42.560214535432884" lon="13.539126284626843"><ele>476.0</ele><time>2026-05-03T12:38:02.999Z</time></trkpt><trkpt lat="42.56033728791709" lon="13.538939744153948"><ele>476.0</ele><time>2026-05-03T12:38:03.999Z</time></trkpt><trkpt lat="42.560437277841565" lon="13.538787040073766"><ele>476.0</ele><time>2026-05-03T12:38:04.999Z</time></trkpt><trkpt lat="42.56054212884861" lon="13.538692302568219"><ele>472.0</ele><time>2026-05-03T12:38:05.999Z</time></trkpt><trkpt lat="42.56064812943852" lon="13.538584271721763"><ele>468.0</ele><time>2026-05-03T12:38:06.999Z</time></trkpt><trkpt lat="42.56074814626124" lon="13.538424128202635"><ele>464.0</ele><time>2026-05-03T12:38:07.999Z</time></trkpt><trkpt lat="42.560838461346265" lon="13.538222549628372"><ele>464.0</ele><time>2026-05-03T12:38:08.999Z</time></trkpt><trkpt lat="42.56091615884837" lon="13.537965627481586"><ele>464.0</ele><time>2026-05-03T12:38:09.999Z</time></trkpt><trkpt lat="42.56091338698978" lon="13.537703472186118"><ele>464.0</ele><time>2026-05-03T12:38:10.999Z</time></trkpt><trkpt lat="42.56099265961316" lon="13.537524221382515"><ele>465.66666666666663</ele><time>2026-05-03T12:38:11.999Z</time></trkpt><trkpt lat="42.56108512449275" lon="13.537343326780606"><ele>467.33333333333337</ele><time>2026-05-03T12:38:12.999Z</time></trkpt><trkpt lat="42.56120378509931" lon="13.537160657367183"><ele>469.0</ele><time>2026-05-03T12:38:13.999Z</time></trkpt><trkpt lat="42.56131185568228" lon="13.536931551603722"><ele>469.0</ele><time>2026-05-03T12:38:14.999Z</time></trkpt><trkpt lat="42.56145087913843" lon="13.536679344388457"><ele>469.0</ele><time>2026-05-03T12:38:15.999Z</time></trkpt><trkpt lat="42.56153065397123" lon="13.536443492137463"><ele>469.0</ele><time>2026-05-03T12:38:16.999Z</time></trkpt><trkpt lat="42.56164722621824" lon="13.536278706249183"><ele>468.33333333333337</ele><time>2026-05-03T12:38:17.999Z</time></trkpt><trkpt lat="42.5618094431011" lon="13.536106507518655"><ele>467.66666666666663</ele><time>2026-05-03T12:38:18.999Z</time></trkpt><trkpt lat="42.56196661678487" lon="13.535990050623049"><ele>467.0</ele><time>2026-05-03T12:38:19.999Z</time></trkpt><trkpt lat="42.562094062572285" lon="13.535861485426096"><ele>467.0</ele><time>2026-05-03T12:38:20.999Z</time></trkpt><trkpt lat="42.562172338219746" lon="13.535697314590351"><ele>467.0</ele><time>2026-05-03T12:38:21.999Z</time></trkpt><trkpt lat="42.562207957638456" lon="13.535460596561412"><ele>467.0</ele><time>2026-05-03T12:38:22.999Z</time></trkpt><trkpt lat="42.5622256323912" lon="13.535142585976251"><ele>471.0</ele><time>2026-05-03T12:38:23.999Z</time></trkpt><trkpt lat="42.56227813224906" lon="13.534781006432086"><ele>475.0</ele><time>2026-05-03T12:38:24.999Z</time></trkpt><trkpt lat="42.56232373184986" lon="13.534385285647936"><ele>478.0</ele><time>2026-05-03T12:38:25.999Z</time></trkpt><trkpt lat="42.56238700393306" lon="13.533965136403884"><ele>481.0</ele><time>2026-05-03T12:38:26.999Z</time></trkpt><trkpt lat="42.56244575180536" lon="13.533592985651614"><ele>482.5</ele><time>2026-05-03T12:38:27.999Z</time></trkpt><trkpt lat="42.56248926141903" lon="13.533271389968196"><ele>484.0</ele><time>2026-05-03T12:38:28.999Z</time></trkpt><trkpt lat="42.562531420095794" lon="13.532976262239929"><ele>486.33333333333337</ele><time>2026-05-03T12:38:29.999Z</time></trkpt><trkpt lat="42.56257318259801" lon="13.532690416551082"><ele>488.66666666666663</ele><time>2026-05-03T12:38:30.999Z</time></trkpt><trkpt lat="42.5626203244978" lon="13.532393448516505"><ele>491.0</ele><time>2026-05-03T12:38:31.999Z</time></trkpt><trkpt lat="42.562655903234166" lon="13.53211929336624"><ele>493.3333333333333</ele><time>2026-05-03T12:38:32.999Z</time></trkpt><trkpt lat="42.562703742206445" lon="13.531871668976933"><ele>495.66666666666663</ele><time>2026-05-03T12:38:33.999Z</time></trkpt><trkpt lat="42.562789205984195" lon="13.531665998983637"><ele>498.0</ele><time>2026-05-03T12:38:34.999Z</time></trkpt><trkpt lat="42.5628623709911" lon="13.531463384574472"><ele>495.66666666666663</ele><time>2026-05-03T12:38:35.999Z</time></trkpt><trkpt lat="42.56291861531395" lon="13.53126867230262"><ele>493.3333333333333</ele><time>2026-05-03T12:38:36.999Z</time></trkpt><trkpt lat="42.56295589905565" lon="13.53107730169899"><ele>491.0</ele><time>2026-05-03T12:38:37.999Z</time></trkpt><trkpt lat="42.562929685870024" lon="13.530847088828823"><ele>493.3333333333333</ele><time>2026-05-03T12:38:38.999Z</time></trkpt><trkpt lat="42.56286059321474" lon="13.530638796466961"><ele>495.66666666666663</ele><time>2026-05-03T12:38:39.999Z</time></trkpt><trkpt lat="42.562764290448925" lon="13.530481869692222"><ele>498.0</ele><time>2026-05-03T12:38:40.999Z</time></trkpt><trkpt lat="42.56260583843404" lon="13.530344871425715"><ele>498.0</ele><time>2026-05-03T12:38:41.999Z</time></trkpt><trkpt lat="42.56241271285106" lon="13.530153460702119"><ele>498.0</ele><time>2026-05-03T12:38:42.999Z</time></trkpt><trkpt lat="42.56222088956009" lon="13.529941935800604"><ele>496.0</ele><time>2026-05-03T12:38:43.999Z</time></trkpt><trkpt lat="42.56201751050274" lon="13.52972562435361"><ele>494.0</ele><time>2026-05-03T12:38:44.999Z</time></trkpt><trkpt lat="42.56175980607319" lon="13.529542927433228"><ele>494.0</ele><time>2026-05-03T12:38:45.999Z</time></trkpt><trkpt lat="42.56152077573421" lon="13.529382022220513"><ele>494.0</ele><time>2026-05-03T12:38:46.999Z</time></trkpt><trkpt lat="42.561310229818154" lon="13.529255701377094"><ele>498.66666666666663</ele><time>2026-05-03T12:38:47.999Z</time></trkpt><trkpt lat="42.56111594905309" lon="13.529149185199236"><ele>503.33333333333337</ele><time>2026-05-03T12:38:48.999Z</time></trkpt><trkpt lat="42.56093247021624" lon="13.529052654075704"><ele>508.0</ele><time>2026-05-03T12:38:49.999Z</time></trkpt><trkpt lat="42.56077744575315" lon="13.528967334960198"><ele>508.0</ele><time>2026-05-03T12:38:50.999Z</time></trkpt><trkpt lat="42.56063529292619" lon="13.528844158329582"><ele>508.0</ele><time>2026-05-03T12:38:51.999Z</time></trkpt><trkpt lat="42.560500036265964" lon="13.528708776448234"><ele>508.0</ele><time>2026-05-03T12:38:52.999Z</time></trkpt><trkpt lat="42.560392677941586" lon="13.528541430413872"><ele>507.6666666666667</ele><time>2026-05-03T12:38:53.999Z</time></trkpt><trkpt lat="42.56026347189862" lon="13.528326120742017"><ele>507.33333333333337</ele><time>2026-05-03T12:38:55Z</time></trkpt><trkpt lat="42.56016098735048" lon="13.528075376382313"><ele>507.0</ele><time>2026-05-03T12:38:56Z</time></trkpt><trkpt lat="42.56002342281562" lon="13.527858349759144"><ele>507.0</ele><time>2026-05-03T12:38:57Z</time></trkpt><trkpt lat="42.5598425469582" lon="13.527675747549518"><ele>507.0</ele><time>2026-05-03T12:38:58Z</time></trkpt><trkpt lat="42.55961712841096" lon="13.527502645522345"><ele>512.0</ele><time>2026-05-03T12:38:59Z</time></trkpt><trkpt lat="42.559394803835325" lon="13.527378433017956"><ele>517.0</ele><time>2026-05-03T12:39:00Z</time></trkpt><trkpt lat="42.55921170336742" lon="13.527251633740493"><ele>522.0</ele><time>2026-05-03T12:39:01Z</time></trkpt><trkpt lat="42.5590450482736" lon="13.527104859969597"><ele>523.0</ele><time>2026-05-03T12:39:02Z</time></trkpt><trkpt lat="42.558890437631035" lon="13.52693650287087"><ele>524.0</ele><time>2026-05-03T12:39:03Z</time></trkpt><trkpt lat="42.55876545553627" lon="13.526772262456667"><ele>525.0</ele><time>2026-05-03T12:39:04Z</time></trkpt><trkpt lat="42.558666820185316" lon="13.52660735913097"><ele>525.0</ele><time>2026-05-03T12:39:05Z</time></trkpt><trkpt lat="42.55859262653359" lon="13.526447730501909"><ele>525.0</ele><time>2026-05-03T12:39:06Z</time></trkpt><trkpt lat="42.558523882380214" lon="13.526297467457947"><ele>525.0</ele><time>2026-05-03T12:39:07Z</time></trkpt><trkpt lat="42.558403195438615" lon="13.52621619527392"><ele>525.0</ele><time>2026-05-03T12:39:08Z</time></trkpt><trkpt lat="42.55822611329727" lon="13.526188537612267"><ele>529.3333333333334</ele><time>2026-05-03T12:39:09Z</time></trkpt><trkpt lat="42.55802824825845" lon="13.52619931910529"><ele>533.6666666666667</ele><time>2026-05-03T12:39:10Z</time></trkpt><trkpt lat="42.55785372069105" lon="13.526422060736184"><ele>538.0</ele><time>2026-05-03T12:39:11Z</time></trkpt><trkpt lat="42.55769070418899" lon="13.52637937937429"><ele>538.0</ele><time>2026-05-03T12:39:12Z</time></trkpt><trkpt lat="42.55755048491047" lon="13.526304139381445"><ele>538.0</ele><time>2026-05-03T12:39:13Z</time></trkpt><trkpt lat="42.55759791298882" lon="13.525983564948389"><ele>538.0</ele><time>2026-05-03T12:39:14Z</time></trkpt><trkpt lat="42.55755252630565" lon="13.525722675233094"><ele>530.5</ele><time>2026-05-03T12:39:15Z</time></trkpt><trkpt lat="42.55749437564909" lon="13.525443557906886"><ele>523.0</ele><time>2026-05-03T12:39:16Z</time></trkpt><trkpt lat="42.556837591734435" lon="13.52531226812199"><ele>523.0</ele><time>2026-05-03T12:39:17Z</time></trkpt><trkpt lat="42.556682432191664" lon="13.525141959739482"><ele>523.0</ele><time>2026-05-03T12:39:18Z</time></trkpt><trkpt lat="42.55655478593218" lon="13.525001981220106"><ele>523.0</ele><time>2026-05-03T12:39:19Z</time></trkpt><trkpt lat="42.55643324798454" lon="13.524883291647848"><ele>523.0</ele><time>2026-05-03T12:39:20Z</time></trkpt><trkpt lat="42.55634262673" lon="13.524720217738889"><ele>523.0</ele><time>2026-05-03T12:39:21Z</time></trkpt><trkpt lat="42.55628926932126" lon="13.52449234457129"><ele>523.0</ele><time>2026-05-03T12:39:22Z</time></trkpt><trkpt lat="42.556225057947664" lon="13.524291795118454"><ele>524.25</ele><time>2026-05-03T12:39:23Z</time></trkpt><trkpt lat="42.55619243895876" lon="13.524095689115441"><ele>525.5</ele><time>2026-05-03T12:39:24Z</time></trkpt><trkpt lat="42.55618742481007" lon="13.523913253451521"><ele>526.75</ele><time>2026-05-03T12:39:25Z</time></trkpt><trkpt lat="42.55619354886942" lon="13.523772763991207"><ele>528.0</ele><time>2026-05-03T12:39:26Z</time></trkpt><trkpt lat="42.5561579874304" lon="13.523639223544158"><ele>528.0</ele><time>2026-05-03T12:39:27Z</time></trkpt><trkpt lat="42.55605396956555" lon="13.523534050420428"><ele>528.0</ele><time>2026-05-03T12:39:28Z</time></trkpt><trkpt lat="42.555867122629564" lon="13.523443835738501"><ele>528.0</ele><time>2026-05-03T12:39:29Z</time></trkpt><trkpt lat="42.555652316740996" lon="13.523341266773018"><ele>528.0</ele><time>2026-05-03T12:39:30Z</time></trkpt><trkpt lat="42.555469286933516" lon="13.523233679763848"><ele>528.0</ele><time>2026-05-03T12:39:31Z</time></trkpt><trkpt lat="42.5553439026364" lon="13.523166907095417"><ele>528.0</ele><time>2026-05-03T12:39:32Z</time></trkpt><trkpt lat="42.55518236124327" lon="13.52315828156946"><ele>529.0</ele><time>2026-05-03T12:39:33Z</time></trkpt><trkpt lat="42.554960161573106" lon="13.52322465938212"><ele>530.0</ele><time>2026-05-03T12:39:34Z</time></trkpt><trkpt lat="42.55471929253551" lon="13.523296911992635"><ele>531.0</ele><time>2026-05-03T12:39:35Z</time></trkpt><trkpt lat="42.55449300164442" lon="13.523359386926693"><ele>532.0</ele><time>2026-05-03T12:39:36Z</time></trkpt><trkpt lat="42.55431218908969" lon="13.523386989719429"><ele>533.0</ele><time>2026-05-03T12:39:37Z</time></trkpt><trkpt lat="42.55415376790152" lon="13.523413188480907"><ele>533.0</ele><time>2026-05-03T12:39:38Z</time></trkpt><trkpt lat="42.55400463508856" lon="13.523421592475644"><ele>533.0</ele><time>2026-05-03T12:39:39Z</time></trkpt><trkpt lat="42.55384592103739" lon="13.52340896627583"><ele>533.0</ele><time>2026-05-03T12:39:40Z</time></trkpt><trkpt lat="42.55367600786085" lon="13.523336565063437"><ele>536.3333333333333</ele><time>2026-05-03T12:39:41Z</time></trkpt><trkpt lat="42.55349063420897" lon="13.523213431919514"><ele>539.6666666666666</ele><time>2026-05-03T12:39:42Z</time></trkpt><trkpt lat="42.55332726516619" lon="13.523119510608582"><ele>543.0</ele><time>2026-05-03T12:39:43Z</time></trkpt><trkpt lat="42.553181106555186" lon="13.523067720744864"><ele>543.0</ele><time>2026-05-03T12:39:44Z</time></trkpt><trkpt lat="42.55305629737639" lon="13.523018186383199"><ele>543.0</ele><time>2026-05-03T12:39:45Z</time></trkpt><trkpt lat="42.55293508443705" lon="13.522959381719637"><ele>543.0</ele><time>2026-05-03T12:39:46Z</time></trkpt><trkpt lat="42.55283283097267" lon="13.522842338293598"><ele>543.0</ele><time>2026-05-03T12:39:47Z</time></trkpt><trkpt lat="42.55277512811804" lon="13.522679994698168"><ele>547.3333333333334</ele><time>2026-05-03T12:39:47.999Z</time></trkpt><trkpt lat="42.55274816352453" lon="13.522496419382914"><ele>551.6666666666667</ele><time>2026-05-03T12:39:48.999Z</time></trkpt><trkpt lat="42.552773587499146" lon="13.522246985585454"><ele>556.0</ele><time>2026-05-03T12:39:49.999Z</time></trkpt><trkpt lat="42.5528101193433" lon="13.521977344123286"><ele>556.0</ele><time>2026-05-03T12:39:50.999Z</time></trkpt><trkpt lat="42.5528384023381" lon="13.521746079455655"><ele>556.0</ele><time>2026-05-03T12:39:51.999Z</time></trkpt><trkpt lat="42.55287520923377" lon="13.52154390426456"><ele>556.0</ele><time>2026-05-03T12:39:52.999Z</time></trkpt><trkpt lat="42.55292270433365" lon="13.521353401192664"><ele>551.25</ele><time>2026-05-03T12:39:53.999Z</time></trkpt><trkpt lat="42.55291998004543" lon="13.521216174372496"><ele>546.5</ele><time>2026-05-03T12:39:54.999Z</time></trkpt><trkpt lat="42.552866520220896" lon="13.521100606782243"><ele>541.75</ele><time>2026-05-03T12:39:55.999Z</time></trkpt><trkpt lat="42.552757828805326" lon="13.521022067350533"><ele>537.0</ele><time>2026-05-03T12:39:56.999Z</time></trkpt><trkpt lat="42.55259867116603" lon="13.5209765309542"><ele>537.0</ele><time>2026-05-03T12:39:57.999Z</time></trkpt><trkpt lat="42.55241014093387" lon="13.520978382389512"><ele>537.0</ele><time>2026-05-03T12:39:58.999Z</time></trkpt><trkpt lat="42.552166228301" lon="13.52103940042234"><ele>537.0</ele><time>2026-05-03T12:39:59.999Z</time></trkpt><trkpt lat="42.551936963040475" lon="13.52111269183572"><ele>535.5</ele><time>2026-05-03T12:40:00.999Z</time></trkpt><trkpt lat="42.55176110157032" lon="13.521167120821506"><ele>534.0</ele><time>2026-05-03T12:40:01.999Z</time></trkpt><trkpt lat="42.551630935702455" lon="13.52119555641939"><ele>532.5</ele><time>2026-05-03T12:40:02.999Z</time></trkpt><trkpt lat="42.55151729979616" lon="13.52124749087299"><ele>531.0</ele><time>2026-05-03T12:40:03.999Z</time></trkpt><trkpt lat="42.55140752887339" lon="13.521381435891296"><ele>538.0</ele><time>2026-05-03T12:40:04.999Z</time></trkpt><trkpt lat="42.55132352389223" lon="13.521606476998485"><ele>545.0</ele><time>2026-05-03T12:40:05.999Z</time></trkpt><trkpt lat="42.55123526360097" lon="13.521880770846751"><ele>552.0</ele><time>2026-05-03T12:40:06.999Z</time></trkpt><trkpt lat="42.55112678602916" lon="13.522105360959134"><ele>552.0</ele><time>2026-05-03T12:40:07.999Z</time></trkpt><trkpt lat="42.55101210872429" lon="13.522261726679076"><ele>552.0</ele><time>2026-05-03T12:40:08.999Z</time></trkpt><trkpt lat="42.550920484503095" lon="13.522419248783944"><ele>552.0</ele><time>2026-05-03T12:40:09.999Z</time></trkpt><trkpt lat="42.55084690252098" lon="13.522573579824996"><ele>552.0</ele><time>2026-05-03T12:40:10.999Z</time></trkpt><trkpt lat="42.55075167770712" lon="13.52268298487223"><ele>552.0</ele><time>2026-05-03T12:40:11.999Z</time></trkpt><trkpt lat="42.550619948351944" lon="13.522746230172006"><ele>552.0</ele><time>2026-05-03T12:40:12.999Z</time></trkpt><trkpt lat="42.55047402127312" lon="13.522884530373272"><ele>552.0</ele><time>2026-05-03T12:40:13.999Z</time></trkpt><trkpt lat="42.55032514689151" lon="13.523079935672905"><ele>553.5</ele><time>2026-05-03T12:40:14.999Z</time></trkpt><trkpt lat="42.550170810045735" lon="13.523170255315415"><ele>555.0</ele><time>2026-05-03T12:40:15.999Z</time></trkpt><trkpt lat="42.55006835640759" lon="13.523257710295821"><ele>556.5</ele><time>2026-05-03T12:40:16.999Z</time></trkpt><trkpt lat="42.54993913383887" lon="13.523333171786348"><ele>558.0</ele><time>2026-05-03T12:40:17.999Z</time></trkpt><trkpt lat="42.54976973910751" lon="13.523352151720045"><ele>558.0</ele><time>2026-05-03T12:40:18.999Z</time></trkpt><trkpt lat="42.549560878202655" lon="13.52336205438404"><ele>558.0</ele><time>2026-05-03T12:40:19.999Z</time></trkpt><trkpt lat="42.54936323634357" lon="13.523377502440674"><ele>558.0</ele><time>2026-05-03T12:40:20.999Z</time></trkpt><trkpt lat="42.54920346496851" lon="13.523395773547378"><ele>557.25</ele><time>2026-05-03T12:40:21.999Z</time></trkpt><trkpt lat="42.549054212798566" lon="13.523429247625804"><ele>556.5</ele><time>2026-05-03T12:40:22.999Z</time></trkpt><trkpt lat="42.5489189211521" lon="13.523519314574607"><ele>555.75</ele><time>2026-05-03T12:40:23.999Z</time></trkpt><trkpt lat="42.54881761539372" lon="13.523639180343539"><ele>555.0</ele><time>2026-05-03T12:40:24.999Z</time></trkpt><trkpt lat="42.548730681949024" lon="13.523718326721271"><ele>554.25</ele><time>2026-05-03T12:40:25.999Z</time></trkpt><trkpt lat="42.54863202124011" lon="13.5237344915534"><ele>553.5</ele><time>2026-05-03T12:40:26.999Z</time></trkpt><trkpt lat="42.54849160445401" lon="13.523647558989396"><ele>552.75</ele><time>2026-05-03T12:40:27.999Z</time></trkpt><trkpt lat="42.548367082414586" lon="13.523527157484592"><ele>552.0</ele><time>2026-05-03T12:40:28.999Z</time></trkpt><trkpt lat="42.5482610565735" lon="13.523395930311654"><ele>552.0</ele><time>2026-05-03T12:40:29.999Z</time></trkpt><trkpt lat="42.54814658763981" lon="13.523315421533377"><ele>552.0</ele><time>2026-05-03T12:40:30.999Z</time></trkpt><trkpt lat="42.54802925688944" lon="13.523355926952357"><ele>552.0</ele><time>2026-05-03T12:40:31.999Z</time></trkpt><trkpt lat="42.547802119105775" lon="13.523581243669165"><ele>556.3333333333334</ele><time>2026-05-03T12:40:32.999Z</time></trkpt><trkpt lat="42.54759413434256" lon="13.52362628396993"><ele>560.6666666666667</ele><time>2026-05-03T12:40:33.999Z</time></trkpt><trkpt lat="42.547451091675875" lon="13.523640581413142"><ele>565.0</ele><time>2026-05-03T12:40:34.999Z</time></trkpt><trkpt lat="42.54729717338773" lon="13.523628991829163"><ele>565.0</ele><time>2026-05-03T12:40:35.999Z</time></trkpt><trkpt lat="42.54714697364084" lon="13.52355829111204"><ele>565.0</ele><time>2026-05-03T12:40:36.999Z</time></trkpt><trkpt lat="42.54699253608251" lon="13.5234492431835"><ele>565.0</ele><time>2026-05-03T12:40:37.999Z</time></trkpt><trkpt lat="42.54678008280535" lon="13.52329200471213"><ele>570.6666666666667</ele><time>2026-05-03T12:40:38.999Z</time></trkpt><trkpt lat="42.54657672537645" lon="13.52315788097419"><ele>576.3333333333334</ele><time>2026-05-03T12:40:39.999Z</time></trkpt><trkpt lat="42.546391668123285" lon="13.523039313026322"><ele>582.0</ele><time>2026-05-03T12:40:40.999Z</time></trkpt><trkpt lat="42.54627008686409" lon="13.522993612810218"><ele>586.2</ele><time>2026-05-03T12:40:41.999Z</time></trkpt><trkpt lat="42.54618862880653" lon="13.522970064252707"><ele>590.4000000000001</ele><time>2026-05-03T12:40:42.999Z</time></trkpt><trkpt lat="42.546126146201196" lon="13.522858245646846"><ele>594.5999999999999</ele><time>2026-05-03T12:40:43.999Z</time></trkpt><trkpt lat="42.546099093934636" lon="13.522720874300852"><ele>598.8</ele><time>2026-05-03T12:40:44.999Z</time></trkpt><trkpt lat="42.546088259421516" lon="13.522551654057358"><ele>603.0</ele><time>2026-05-03T12:40:45.999Z</time></trkpt><trkpt lat="42.54611836102653" lon="13.522422800045865"><ele>603.0</ele><time>2026-05-03T12:40:46.999Z</time></trkpt><trkpt lat="42.54616390546771" lon="13.522294367177869"><ele>603.0</ele><time>2026-05-03T12:40:47.999Z</time></trkpt><trkpt lat="42.54622962456652" lon="13.522085197239788"><ele>603.0</ele><time>2026-05-03T12:40:48.999Z</time></trkpt><trkpt lat="42.54631286678965" lon="13.52182371677796"><ele>585.5</ele><time>2026-05-03T12:40:49.999Z</time></trkpt><trkpt lat="42.54639938121175" lon="13.52155195796157"><ele>568.0</ele><time>2026-05-03T12:40:50.999Z</time></trkpt><trkpt lat="42.54649799871021" lon="13.52124218107927"><ele>574.5</ele><time>2026-05-03T12:40:51.999Z</time></trkpt><trkpt lat="42.54658801572253" lon="13.520952763020551"><ele>581.0</ele><time>2026-05-03T12:40:52.999Z</time></trkpt><trkpt lat="42.54666996847477" lon="13.5206644002916"><ele>581.25</ele><time>2026-05-03T12:40:53.999Z</time></trkpt><trkpt lat="42.546695797981535" lon="13.52039168280088"><ele>581.5</ele><time>2026-05-03T12:40:54.999Z</time></trkpt><trkpt lat="42.54671089346687" lon="13.520277403642988"><ele>581.75</ele><time>2026-05-03T12:40:55.999Z</time></trkpt><trkpt lat="42.54667889253027" lon="13.520130347180075"><ele>582.0</ele><time>2026-05-03T12:40:56.999Z</time></trkpt><trkpt lat="42.546593346134784" lon="13.519998787175426"><ele>582.0</ele><time>2026-05-03T12:40:57.999Z</time></trkpt><trkpt lat="42.546503622064115" lon="13.519860754917618"><ele>582.0</ele><time>2026-05-03T12:40:58.999Z</time></trkpt><trkpt lat="42.54648956353638" lon="13.519726978141374"><ele>582.0</ele><time>2026-05-03T12:40:59.999Z</time></trkpt><trkpt lat="42.54654448385583" lon="13.519559815575002"><ele>582.0</ele><time>2026-05-03T12:41:01Z</time></trkpt><trkpt lat="42.546583426248034" lon="13.51932605646403"><ele>582.6666666666666</ele><time>2026-05-03T12:41:02Z</time></trkpt><trkpt lat="42.546659930881496" lon="13.519006618255846"><ele>583.3333333333333</ele><time>2026-05-03T12:41:03Z</time></trkpt><trkpt lat="42.546679614733065" lon="13.51874841657728"><ele>584.0</ele><time>2026-05-03T12:41:04Z</time></trkpt><trkpt lat="42.54670984047201" lon="13.518551760043977"><ele>588.6666666666666</ele><time>2026-05-03T12:41:05Z</time></trkpt><trkpt lat="42.54678913897193" lon="13.518362566313595"><ele>593.3333333333334</ele><time>2026-05-03T12:41:06Z</time></trkpt><trkpt lat="42.54689351580631" lon="13.518170542676504"><ele>598.0</ele><time>2026-05-03T12:41:07Z</time></trkpt><trkpt lat="42.5469840153707" lon="13.517968658817582"><ele>598.0</ele><time>2026-05-03T12:41:08Z</time></trkpt><trkpt lat="42.547016295092405" lon="13.517765381298092"><ele>598.0</ele><time>2026-05-03T12:41:09Z</time></trkpt><trkpt lat="42.547011362957036" lon="13.517578765703247"><ele>598.0</ele><time>2026-05-03T12:41:10Z</time></trkpt><trkpt lat="42.54697147631498" lon="13.517413449306018"><ele>598.0</ele><time>2026-05-03T12:41:11Z</time></trkpt><trkpt lat="42.54688653072855" lon="13.517293034159618"><ele>598.0</ele><time>2026-05-03T12:41:12Z</time></trkpt><trkpt lat="42.5467678611497" lon="13.517201951643651"><ele>598.0</ele><time>2026-05-03T12:41:13Z</time></trkpt><trkpt lat="42.54659155520075" lon="13.517137454451353"><ele>598.0</ele><time>2026-05-03T12:41:14Z</time></trkpt><trkpt lat="42.54638288053533" lon="13.517044070884584"><ele>595.3333333333334</ele><time>2026-05-03T12:41:15Z</time></trkpt><trkpt lat="42.5461846258856" lon="13.516938864571479"><ele>592.6666666666666</ele><time>2026-05-03T12:41:16Z</time></trkpt><trkpt lat="42.54599270463074" lon="13.516846769109415"><ele>590.0</ele><time>2026-05-03T12:41:17Z</time></trkpt><trkpt lat="42.5458214981851" lon="13.516817002248477"><ele>590.0</ele><time>2026-05-03T12:41:18Z</time></trkpt><trkpt lat="42.545683857964505" lon="13.516755370134241"><ele>590.0</ele><time>2026-05-03T12:41:19Z</time></trkpt><trkpt lat="42.545566434456816" lon="13.516712409357401"><ele>590.0</ele><time>2026-05-03T12:41:20Z</time></trkpt><trkpt lat="42.54547567182563" lon="13.51659272436031"><ele>590.0</ele><time>2026-05-03T12:41:21Z</time></trkpt><trkpt lat="42.54540965219435" lon="13.516454505276144"><ele>590.0</ele><time>2026-05-03T12:41:22Z</time></trkpt><trkpt lat="42.54538305421144" lon="13.516289387146374"><ele>590.0</ele><time>2026-05-03T12:41:23Z</time></trkpt><trkpt lat="42.54526559645063" lon="13.516095364613163"><ele>590.0</ele><time>2026-05-03T12:41:24Z</time></trkpt><trkpt lat="42.545151571317206" lon="13.515950637213692"><ele>597.25</ele><time>2026-05-03T12:41:25Z</time></trkpt><trkpt lat="42.54508126180246" lon="13.515791965333852"><ele>604.5</ele><time>2026-05-03T12:41:26Z</time></trkpt><trkpt lat="42.54504687412064" lon="13.515665716562873"><ele>611.75</ele><time>2026-05-03T12:41:27Z</time></trkpt><trkpt lat="42.545073395510585" lon="13.51550922032423"><ele>619.0</ele><time>2026-05-03T12:41:28Z</time></trkpt><trkpt lat="42.54510448511478" lon="13.515328097799507"><ele>619.0</ele><time>2026-05-03T12:41:29Z</time></trkpt><trkpt lat="42.54515588003944" lon="13.515018246955389"><ele>619.0</ele><time>2026-05-03T12:41:30Z</time></trkpt><trkpt lat="42.54522553732966" lon="13.514660888690333"><ele>621.3333333333334</ele><time>2026-05-03T12:41:31Z</time></trkpt><trkpt lat="42.545298644224765" lon="13.51436200222789"><ele>623.6666666666666</ele><time>2026-05-03T12:41:32Z</time></trkpt><trkpt lat="42.54532966877279" lon="13.514072197788101"><ele>626.0</ele><time>2026-05-03T12:41:33Z</time></trkpt><trkpt lat="42.54533702630844" lon="13.513804005200893"><ele>626.6666666666666</ele><time>2026-05-03T12:41:34Z</time></trkpt><trkpt lat="42.54530403723659" lon="13.513564617604043"><ele>627.3333333333334</ele><time>2026-05-03T12:41:35Z</time></trkpt><trkpt lat="42.545253511241576" lon="13.513309689543956"><ele>628.0</ele><time>2026-05-03T12:41:36Z</time></trkpt><trkpt lat="42.54517670983722" lon="13.513045077588691"><ele>625.5</ele><time>2026-05-03T12:41:37Z</time></trkpt><trkpt lat="42.54509378921429" lon="13.51282826676634"><ele>623.0</ele><time>2026-05-03T12:41:38Z</time></trkpt><trkpt lat="42.54503742770611" lon="13.512680589068044"><ele>620.5</ele><time>2026-05-03T12:41:39Z</time></trkpt><trkpt lat="42.54502164667693" lon="13.51255336618685"><ele>618.0</ele><time>2026-05-03T12:41:40Z</time></trkpt><trkpt lat="42.54502306904147" lon="13.512419991330965"><ele>618.0</ele><time>2026-05-03T12:41:41Z</time></trkpt><trkpt lat="42.54509492772981" lon="13.512301429836214"><ele>618.0</ele><time>2026-05-03T12:41:42Z</time></trkpt><trkpt lat="42.54515863468795" lon="13.512087646874097"><ele>618.0</ele><time>2026-05-03T12:41:43Z</time></trkpt><trkpt lat="42.545214183763946" lon="13.5119333945841"><ele>618.0</ele><time>2026-05-03T12:41:44Z</time></trkpt><trkpt lat="42.54525718583547" lon="13.5117594165862"><ele>618.3333333333334</ele><time>2026-05-03T12:41:45Z</time></trkpt><trkpt lat="42.54535750456691" lon="13.51151197712748"><ele>618.6666666666667</ele><time>2026-05-03T12:41:46Z</time></trkpt><trkpt lat="42.54545797630484" lon="13.511273426295565"><ele>619.0</ele><time>2026-05-03T12:41:47Z</time></trkpt><trkpt lat="42.54554067695129" lon="13.511071394577543"><ele>619.0</ele><time>2026-05-03T12:41:48Z</time></trkpt><trkpt lat="42.545625545787765" lon="13.510916810496171"><ele>619.0</ele><time>2026-05-03T12:41:49Z</time></trkpt><trkpt lat="42.5457566805244" lon="13.510810702801372"><ele>619.0</ele><time>2026-05-03T12:41:50Z</time></trkpt><trkpt lat="42.54593455426786" lon="13.510650646063683"><ele>619.0</ele><time>2026-05-03T12:41:51Z</time></trkpt><trkpt lat="42.54615048421135" lon="13.510500558941342"><ele>619.0</ele><time>2026-05-03T12:41:51.999Z</time></trkpt><trkpt lat="42.546319711328934" lon="13.510376140373438"><ele>619.0</ele><time>2026-05-03T12:41:52.999Z</time></trkpt><trkpt lat="42.5464599913582" lon="13.510272084397425"><ele>618.6666666666667</ele><time>2026-05-03T12:41:53.999Z</time></trkpt><trkpt lat="42.54659525410928" lon="13.510204395657832"><ele>618.3333333333334</ele><time>2026-05-03T12:41:54.999Z</time></trkpt><trkpt lat="42.5467175048286" lon="13.510091150557002"><ele>618.0</ele><time>2026-05-03T12:41:55.999Z</time></trkpt><trkpt lat="42.54679443745447" lon="13.509884635647184"><ele>618.0</ele><time>2026-05-03T12:41:56.999Z</time></trkpt><trkpt lat="42.5468643430392" lon="13.509604737313337"><ele>618.0</ele><time>2026-05-03T12:41:57.999Z</time></trkpt><trkpt lat="42.54692186260091" lon="13.50927641445622"><ele>626.0</ele><time>2026-05-03T12:41:58.999Z</time></trkpt><trkpt lat="42.546956110255195" lon="13.50893289904209"><ele>634.0</ele><time>2026-05-03T12:41:59.999Z</time></trkpt><trkpt lat="42.54696184516415" lon="13.508557072807264"><ele>637.0</ele><time>2026-05-03T12:42:00.999Z</time></trkpt><trkpt lat="42.54694244438825" lon="13.508103259881448"><ele>640.0</ele><time>2026-05-03T12:42:01.999Z</time></trkpt><trkpt lat="42.546923968124545" lon="13.507655870505918"><ele>637.5</ele><time>2026-05-03T12:42:02.999Z</time></trkpt><trkpt lat="42.546902608355126" lon="13.507183077216448"><ele>635.0</ele><time>2026-05-03T12:42:03.999Z</time></trkpt><trkpt lat="42.5468801819458" lon="13.506726208002094"><ele>635.0</ele><time>2026-05-03T12:42:04.999Z</time></trkpt><trkpt lat="42.54684700359351" lon="13.506326116764216"><ele>635.0</ele><time>2026-05-03T12:42:05.999Z</time></trkpt><trkpt lat="42.54681731278396" lon="13.50596709067381"><ele>635.0</ele><time>2026-05-03T12:42:06.999Z</time></trkpt><trkpt lat="42.546790206872956" lon="13.505628857492226"><ele>635.0</ele><time>2026-05-03T12:42:07.999Z</time></trkpt><trkpt lat="42.54676042536927" lon="13.505292312919757"><ele>635.0</ele><time>2026-05-03T12:42:08.999Z</time></trkpt><trkpt lat="42.546716666906235" lon="13.504924202272507"><ele>635.0</ele><time>2026-05-03T12:42:09.999Z</time></trkpt><trkpt lat="42.546647847808586" lon="13.504553248206683"><ele>631.5</ele><time>2026-05-03T12:42:10.999Z</time></trkpt><trkpt lat="42.5465816697517" lon="13.504231670445137"><ele>628.0</ele><time>2026-05-03T12:42:11.999Z</time></trkpt><trkpt lat="42.5465225531894" lon="13.50394569915479"><ele>624.6666666666667</ele><time>2026-05-03T12:42:12.999Z</time></trkpt><trkpt lat="42.546461731074906" lon="13.503691720822433"><ele>621.3333333333334</ele><time>2026-05-03T12:42:13.999Z</time></trkpt><trkpt lat="42.54639763499933" lon="13.503459513172743"><ele>618.0</ele><time>2026-05-03T12:42:14.999Z</time></trkpt><trkpt lat="42.546343986790106" lon="13.503236552891684"><ele>618.0</ele><time>2026-05-03T12:42:15.999Z</time></trkpt><trkpt lat="42.54627221918465" lon="13.503044568917199"><ele>618.0</ele><time>2026-05-03T12:42:16.999Z</time></trkpt><trkpt lat="42.54619644209357" lon="13.502827902323551"><ele>618.0</ele><time>2026-05-03T12:42:17.999Z</time></trkpt><trkpt lat="42.54606945944991" lon="13.502602888685669"><ele>625.6666666666666</ele><time>2026-05-03T12:42:18.999Z</time></trkpt><trkpt lat="42.54594657923245" lon="13.502411507342707"><ele>633.3333333333333</ele><time>2026-05-03T12:42:19.999Z</time></trkpt><trkpt lat="42.545830518911075" lon="13.502246946340293"><ele>641.0</ele><time>2026-05-03T12:42:20.999Z</time></trkpt><trkpt lat="42.545710698235084" lon="13.502104926872338"><ele>645.3333333333333</ele><time>2026-05-03T12:42:21.999Z</time></trkpt><trkpt lat="42.5455844380045" lon="13.501977951878972"><ele>649.6666666666666</ele><time>2026-05-03T12:42:22.999Z</time></trkpt><trkpt lat="42.545464988896114" lon="13.501846531565121"><ele>654.0</ele><time>2026-05-03T12:42:23.999Z</time></trkpt><trkpt lat="42.545362789852426" lon="13.501709906957304"><ele>654.0</ele><time>2026-05-03T12:42:24.999Z</time></trkpt><trkpt lat="42.54527017802567" lon="13.501541183213758"><ele>654.0</ele><time>2026-05-03T12:42:25.999Z</time></trkpt><trkpt lat="42.545175716329055" lon="13.50133191197616"><ele>654.0</ele><time>2026-05-03T12:42:26.999Z</time></trkpt><trkpt lat="42.545064244945706" lon="13.501101384257348"><ele>649.0</ele><time>2026-05-03T12:42:27.999Z</time></trkpt><trkpt lat="42.54495788858977" lon="13.500900932872028"><ele>644.0</ele><time>2026-05-03T12:42:28.999Z</time></trkpt><trkpt lat="42.54486944175329" lon="13.500736075514746"><ele>639.0</ele><time>2026-05-03T12:42:29.999Z</time></trkpt><trkpt lat="42.544784600177024" lon="13.500589354299787"><ele>639.0</ele><time>2026-05-03T12:42:30.999Z</time></trkpt><trkpt lat="42.54469167941059" lon="13.500446130003976"><ele>639.0</ele><time>2026-05-03T12:42:31.999Z</time></trkpt><trkpt lat="42.54460174273887" lon="13.500287604515586"><ele>639.0</ele><time>2026-05-03T12:42:32.999Z</time></trkpt><trkpt lat="42.54454151342334" lon="13.500064857275264"><ele>646.0</ele><time>2026-05-03T12:42:33.999Z</time></trkpt><trkpt lat="42.54448963126316" lon="13.499793652275129"><ele>653.0</ele><time>2026-05-03T12:42:34.999Z</time></trkpt><trkpt lat="42.54447249392055" lon="13.49954483695434"><ele>660.0</ele><time>2026-05-03T12:42:35.999Z</time></trkpt><trkpt lat="42.54443187203808" lon="13.499326031951465"><ele>660.0</ele><time>2026-05-03T12:42:36.999Z</time></trkpt><trkpt lat="42.54438310557649" lon="13.49909624943276"><ele>660.0</ele><time>2026-05-03T12:42:37.999Z</time></trkpt><trkpt lat="42.544345267884786" lon="13.49886799440847"><ele>660.0</ele><time>2026-05-03T12:42:38.999Z</time></trkpt><trkpt lat="42.5443351232881" lon="13.498643204180535"><ele>660.6666666666666</ele><time>2026-05-03T12:42:39.999Z</time></trkpt><trkpt lat="42.54434874627754" lon="13.498397374483257"><ele>661.3333333333333</ele><time>2026-05-03T12:42:40.999Z</time></trkpt><trkpt lat="42.54439831991373" lon="13.498171278712638"><ele>662.0</ele><time>2026-05-03T12:42:41.999Z</time></trkpt><trkpt lat="42.54446081371432" lon="13.497994915930928"><ele>659.6666666666666</ele><time>2026-05-03T12:42:42.999Z</time></trkpt><trkpt lat="42.54454752313914" lon="13.497823597834625"><ele>657.3333333333334</ele><time>2026-05-03T12:42:43.999Z</time></trkpt><trkpt lat="42.54465108104446" lon="13.497661491581548"><ele>655.0</ele><time>2026-05-03T12:42:44.999Z</time></trkpt><trkpt lat="42.54477042184166" lon="13.497527790649418"><ele>655.0</ele><time>2026-05-03T12:42:45.999Z</time></trkpt><trkpt lat="42.54489633963091" lon="13.49739403411924"><ele>655.0</ele><time>2026-05-03T12:42:46.999Z</time></trkpt><trkpt lat="42.54503266082102" lon="13.497307881796026"><ele>655.0</ele><time>2026-05-03T12:42:47.999Z</time></trkpt><trkpt lat="42.54519257215718" lon="13.497267171986534"><ele>659.0</ele><time>2026-05-03T12:42:48.999Z</time></trkpt><trkpt lat="42.545406119555075" lon="13.497209624272939"><ele>663.0</ele><time>2026-05-03T12:42:49.999Z</time></trkpt><trkpt lat="42.54561344321502" lon="13.49709475568951"><ele>667.0</ele><time>2026-05-03T12:42:50.999Z</time></trkpt><trkpt lat="42.54578814689668" lon="13.496991916546737"><ele>667.0</ele><time>2026-05-03T12:42:51.999Z</time></trkpt><trkpt lat="42.54593161299133" lon="13.496915056581987"><ele>667.0</ele><time>2026-05-03T12:42:52.999Z</time></trkpt><trkpt lat="42.5460626579743" lon="13.496810856539733"><ele>667.0</ele><time>2026-05-03T12:42:53.999Z</time></trkpt><trkpt lat="42.54618257919912" lon="13.496654237965595"><ele>661.0</ele><time>2026-05-03T12:42:54.999Z</time></trkpt><trkpt lat="42.54627835988644" lon="13.496460591702956"><ele>655.0</ele><time>2026-05-03T12:42:55.999Z</time></trkpt><trkpt lat="42.546331268873274" lon="13.496260436889543"><ele>649.0</ele><time>2026-05-03T12:42:56.999Z</time></trkpt><trkpt lat="42.546340278602294" lon="13.496025542888326"><ele>649.0</ele><time>2026-05-03T12:42:57.999Z</time></trkpt><trkpt lat="42.54633106427414" lon="13.495729676896948"><ele>649.0</ele><time>2026-05-03T12:42:58.999Z</time></trkpt><trkpt lat="42.54638247447579" lon="13.49541466452042"><ele>652.3333333333334</ele><time>2026-05-03T12:42:59.999Z</time></trkpt><trkpt lat="42.546428517835736" lon="13.495129394625911"><ele>655.6666666666666</ele><time>2026-05-03T12:43:00.999Z</time></trkpt><trkpt lat="42.5464631691433" lon="13.494912539108306"><ele>659.0</ele><time>2026-05-03T12:43:01.999Z</time></trkpt><trkpt lat="42.54650081056877" lon="13.494735470908491"><ele>665.6666666666666</ele><time>2026-05-03T12:43:02.999Z</time></trkpt><trkpt lat="42.546565900813604" lon="13.494586357636992"><ele>672.3333333333334</ele><time>2026-05-03T12:43:03.999Z</time></trkpt><trkpt lat="42.54669017593856" lon="13.494469610578545"><ele>679.0</ele><time>2026-05-03T12:43:04.999Z</time></trkpt><trkpt lat="42.54687795161969" lon="13.494360588203376"><ele>671.0</ele><time>2026-05-03T12:43:05.999Z</time></trkpt><trkpt lat="42.547104138825695" lon="13.494225547324563"><ele>663.0</ele><time>2026-05-03T12:43:07Z</time></trkpt><trkpt lat="42.54732364005374" lon="13.494082180448578"><ele>663.0</ele><time>2026-05-03T12:43:08Z</time></trkpt><trkpt lat="42.54751218886374" lon="13.493915739364738"><ele>663.0</ele><time>2026-05-03T12:43:09Z</time></trkpt><trkpt lat="42.54768861563275" lon="13.493696858296337"><ele>664.0</ele><time>2026-05-03T12:43:10Z</time></trkpt><trkpt lat="42.547878939392135" lon="13.493418430964809"><ele>665.0</ele><time>2026-05-03T12:43:11Z</time></trkpt><trkpt lat="42.5480751804454" lon="13.493167673650444"><ele>665.0</ele><time>2026-05-03T12:43:12Z</time></trkpt><trkpt lat="42.54826284985908" lon="13.492943420341147"><ele>665.0</ele><time>2026-05-03T12:43:13Z</time></trkpt><trkpt lat="42.54844204087491" lon="13.492736570106645"><ele>663.3333333333333</ele><time>2026-05-03T12:43:14Z</time></trkpt><trkpt lat="42.54858487782535" lon="13.492500495616516"><ele>661.6666666666666</ele><time>2026-05-03T12:43:15Z</time></trkpt><trkpt lat="42.54872825860044" lon="13.492310850292096"><ele>660.0</ele><time>2026-05-03T12:43:16Z</time></trkpt><trkpt lat="42.548869494221414" lon="13.49213183224336"><ele>667.3333333333334</ele><time>2026-05-03T12:43:17Z</time></trkpt><trkpt lat="42.549008055022554" lon="13.491967970159065"><ele>674.6666666666667</ele><time>2026-05-03T12:43:18Z</time></trkpt><trkpt lat="42.549115938545114" lon="13.491796170644893"><ele>682.0</ele><time>2026-05-03T12:43:19Z</time></trkpt><trkpt lat="42.54923470008527" lon="13.491596642592926"><ele>682.0</ele><time>2026-05-03T12:43:20Z</time></trkpt><trkpt lat="42.54930765647416" lon="13.491337133244908"><ele>682.0</ele><time>2026-05-03T12:43:21Z</time></trkpt><trkpt lat="42.549349540648706" lon="13.491064533433224"><ele>682.0</ele><time>2026-05-03T12:43:22Z</time></trkpt><trkpt lat="42.549367112978295" lon="13.490746587111536"><ele>687.0</ele><time>2026-05-03T12:43:23Z</time></trkpt><trkpt lat="42.54936759030916" lon="13.49044076436604"><ele>692.0</ele><time>2026-05-03T12:43:24Z</time></trkpt><trkpt lat="42.549376364254265" lon="13.490204231778419"><ele>697.0</ele><time>2026-05-03T12:43:25Z</time></trkpt><trkpt lat="42.549389285580645" lon="13.489996522817991"><ele>701.3333333333334</ele><time>2026-05-03T12:43:26Z</time></trkpt><trkpt lat="42.549446254369904" lon="13.48977089119644"><ele>705.6666666666666</ele><time>2026-05-03T12:43:27Z</time></trkpt><trkpt lat="42.54955115506769" lon="13.489533366255031"><ele>710.0</ele><time>2026-05-03T12:43:28Z</time></trkpt><trkpt lat="42.549672419392714" lon="13.489262744449942"><ele>702.6666666666666</ele><time>2026-05-03T12:43:29Z</time></trkpt><trkpt lat="42.5497735396837" lon="13.489019349757735"><ele>695.3333333333334</ele><time>2026-05-03T12:43:30Z</time></trkpt><trkpt lat="42.54984594135207" lon="13.488833261841743"><ele>688.0</ele><time>2026-05-03T12:43:31Z</time></trkpt><trkpt lat="42.549886904410265" lon="13.48862660650165"><ele>688.0</ele><time>2026-05-03T12:43:32Z</time></trkpt><trkpt lat="42.5499514173606" lon="13.488420424757159"><ele>688.0</ele><time>2026-05-03T12:43:33Z</time></trkpt><trkpt lat="42.54996962898694" lon="13.48815724817506"><ele>688.0</ele><time>2026-05-03T12:43:34Z</time></trkpt><trkpt lat="42.549929886647796" lon="13.487872059106333"><ele>686.6666666666667</ele><time>2026-05-03T12:43:35Z</time></trkpt><trkpt lat="42.54981703161444" lon="13.487602880604758"><ele>685.3333333333334</ele><time>2026-05-03T12:43:36Z</time></trkpt><trkpt lat="42.54974854776416" lon="13.487376171554843"><ele>684.0</ele><time>2026-05-03T12:43:37Z</time></trkpt><trkpt lat="42.54967107057875" lon="13.487163175157947"><ele>696.0</ele><time>2026-05-03T12:43:38Z</time></trkpt><trkpt lat="42.549511846138344" lon="13.4869483409142"><ele>708.0</ele><time>2026-05-03T12:43:39Z</time></trkpt><trkpt lat="42.54938084431491" lon="13.486722738235088"><ele>720.0</ele><time>2026-05-03T12:43:40Z</time></trkpt><trkpt lat="42.549305858948955" lon="13.48645175321865"><ele>713.6666666666666</ele><time>2026-05-03T12:43:41Z</time></trkpt><trkpt lat="42.54923944126258" lon="13.48620936909134"><ele>707.3333333333333</ele><time>2026-05-03T12:43:42Z</time></trkpt><trkpt lat="42.54919169583746" lon="13.485999478241876"><ele>701.0</ele><time>2026-05-03T12:43:43Z</time></trkpt><trkpt lat="42.549177542469046" lon="13.485782702725455"><ele>701.0</ele><time>2026-05-03T12:43:44Z</time></trkpt><trkpt lat="42.54917909066376" lon="13.48557780483259"><ele>701.0</ele><time>2026-05-03T12:43:45Z</time></trkpt><trkpt lat="42.54910640983001" lon="13.485353385637763"><ele>701.0</ele><time>2026-05-03T12:43:46Z</time></trkpt><trkpt lat="42.549008284328806" lon="13.485099509608274"><ele>700.5</ele><time>2026-05-03T12:43:47Z</time></trkpt><trkpt lat="42.54891584097791" lon="13.484898835629547"><ele>700.0</ele><time>2026-05-03T12:43:48Z</time></trkpt><trkpt lat="42.54884569431107" lon="13.484726982562005"><ele>699.5</ele><time>2026-05-03T12:43:49Z</time></trkpt><trkpt lat="42.548785697748656" lon="13.484584983383998"><ele>699.0</ele><time>2026-05-03T12:43:50Z</time></trkpt><trkpt lat="42.548689230239845" lon="13.484445423635744"><ele>699.0</ele><time>2026-05-03T12:43:51Z</time></trkpt><trkpt lat="42.548516929694834" lon="13.484291966200924"><ele>699.0</ele><time>2026-05-03T12:43:52Z</time></trkpt><trkpt lat="42.54836576161008" lon="13.484171912259114"><ele>699.0</ele><time>2026-05-03T12:43:53Z</time></trkpt><trkpt lat="42.54826789099267" lon="13.484073164392544"><ele>699.0</ele><time>2026-05-03T12:43:54Z</time></trkpt><trkpt lat="42.548173575318124" lon="13.484002004551206"><ele>699.0</ele><time>2026-05-03T12:43:55Z</time></trkpt><trkpt lat="42.548079374550845" lon="13.483939131368787"><ele>699.0</ele><time>2026-05-03T12:43:56Z</time></trkpt><trkpt lat="42.54801176408748" lon="13.483878493470367"><ele>699.0</ele><time>2026-05-03T12:43:56.999Z</time></trkpt><trkpt lat="42.54794976453757" lon="13.483800885381598"><ele>699.0</ele><time>2026-05-03T12:43:57.999Z</time></trkpt><trkpt lat="42.54790407974735" lon="13.483728466990579"><ele>699.0</ele><time>2026-05-03T12:43:58.999Z</time></trkpt><trkpt lat="42.5478822473689" lon="13.483634713921223"><ele>699.5</ele><time>2026-05-03T12:43:59.999Z</time></trkpt><trkpt lat="42.547885293285724" lon="13.483535428834939"><ele>700.0</ele><time>2026-05-03T12:44:00.999Z</time></trkpt><trkpt lat="42.54792830108828" lon="13.483434039652629"><ele>700.5</ele><time>2026-05-03T12:44:01.999Z</time></trkpt><trkpt lat="42.548008980859834" lon="13.483355218321103"><ele>701.0</ele><time>2026-05-03T12:44:02.999Z</time></trkpt><trkpt lat="42.548075686542234" lon="13.483294733197276"><ele>701.5</ele><time>2026-05-03T12:44:03.999Z</time></trkpt><trkpt lat="42.5481251283456" lon="13.48322308365316"><ele>702.0</ele><time>2026-05-03T12:44:04.999Z</time></trkpt><trkpt lat="42.54820013867485" lon="13.483180493524534"><ele>702.0</ele><time>2026-05-03T12:44:05.999Z</time></trkpt><trkpt lat="42.548288242987596" lon="13.483226993958514"><ele>702.0</ele><time>2026-05-03T12:44:06.999Z</time></trkpt><trkpt lat="42.54838439460821" lon="13.483263330953072"><ele>702.0</ele><time>2026-05-03T12:44:07.999Z</time></trkpt><trkpt lat="42.54848094264053" lon="13.483286923370397"><ele>702.0</ele><time>2026-05-03T12:44:08.999Z</time></trkpt><trkpt lat="42.548582199954794" lon="13.48333565348631"><ele>702.0</ele><time>2026-05-03T12:44:09.999Z</time></trkpt><trkpt lat="42.548694941971625" lon="13.483389581933217"><ele>708.25</ele><time>2026-05-03T12:44:10.999Z</time></trkpt><trkpt lat="42.54881407334736" lon="13.483463860138627"><ele>714.5</ele><time>2026-05-03T12:44:11.999Z</time></trkpt><trkpt lat="42.54894110034654" lon="13.483555492627447"><ele>720.75</ele><time>2026-05-03T12:44:12.999Z</time></trkpt><trkpt lat="42.549078888232984" lon="13.483643228737202"><ele>727.0</ele><time>2026-05-03T12:44:13.999Z</time></trkpt><trkpt lat="42.54922817647818" lon="13.483696502219901"><ele>727.0</ele><time>2026-05-03T12:44:14.999Z</time></trkpt><trkpt lat="42.54937185429728" lon="13.483721326243447"><ele>727.0</ele><time>2026-05-03T12:44:15.999Z</time></trkpt><trkpt lat="42.54950423537804" lon="13.483741709904235"><ele>727.0</ele><time>2026-05-03T12:44:16.999Z</time></trkpt><trkpt lat="42.5496237501564" lon="13.483747887072814"><ele>727.0</ele><time>2026-05-03T12:44:17.999Z</time></trkpt><trkpt lat="42.549746622348366" lon="13.483734304916078"><ele>724.0</ele><time>2026-05-03T12:44:18.999Z</time></trkpt><trkpt lat="42.549867521986066" lon="13.483682901335577"><ele>721.0</ele><time>2026-05-03T12:44:19.999Z</time></trkpt><trkpt lat="42.549984002504" lon="13.483582733853643"><ele>718.0</ele><time>2026-05-03T12:44:20.999Z</time></trkpt><trkpt lat="42.550097703665216" lon="13.48342631915648"><ele>715.0</ele><time>2026-05-03T12:44:21.999Z</time></trkpt><trkpt lat="42.55021844574732" lon="13.483246986953262"><ele>710.6666666666667</ele><time>2026-05-03T12:44:22.999Z</time></trkpt><trkpt lat="42.55037486659212" lon="13.483063189160848"><ele>706.3333333333334</ele><time>2026-05-03T12:44:23.999Z</time></trkpt><trkpt lat="42.550507042723964" lon="13.482839756126"><ele>702.0</ele><time>2026-05-03T12:44:24.999Z</time></trkpt><trkpt lat="42.550650050491264" lon="13.482624332985873"><ele>702.0</ele><time>2026-05-03T12:44:25.999Z</time></trkpt><trkpt lat="42.55078058193129" lon="13.482424331931643"><ele>702.0</ele><time>2026-05-03T12:44:26.999Z</time></trkpt><trkpt lat="42.55090291856184" lon="13.482250423502489"><ele>702.0</ele><time>2026-05-03T12:44:27.999Z</time></trkpt><trkpt lat="42.551026943779156" lon="13.482088904591496"><ele>702.3333333333334</ele><time>2026-05-03T12:44:28.999Z</time></trkpt><trkpt lat="42.55117503866343" lon="13.481945581759891"><ele>702.6666666666667</ele><time>2026-05-03T12:44:29.999Z</time></trkpt><trkpt lat="42.551358489084144" lon="13.481824704556537"><ele>703.0</ele><time>2026-05-03T12:44:30.999Z</time></trkpt><trkpt lat="42.55153829282147" lon="13.481717089463217"><ele>703.0</ele><time>2026-05-03T12:44:31.999Z</time></trkpt><trkpt lat="42.55168339151551" lon="13.48160279884769"><ele>703.0</ele><time>2026-05-03T12:44:32.999Z</time></trkpt><trkpt lat="42.55180611795225" lon="13.481491779563967"><ele>703.0</ele><time>2026-05-03T12:44:33.999Z</time></trkpt><trkpt lat="42.55190788971534" lon="13.481390812053899"><ele>703.0</ele><time>2026-05-03T12:44:34.999Z</time></trkpt><trkpt lat="42.551977680887575" lon="13.48127612043588"><ele>709.5</ele><time>2026-05-03T12:44:35.999Z</time></trkpt><trkpt lat="42.55200884162545" lon="13.481135308183406"><ele>716.0</ele><time>2026-05-03T12:44:36.999Z</time></trkpt><trkpt lat="42.55199018621707" lon="13.480957648765594"><ele>722.5</ele><time>2026-05-03T12:44:37.999Z</time></trkpt><trkpt lat="42.551938383170885" lon="13.480740192005653"><ele>729.0</ele><time>2026-05-03T12:44:38.999Z</time></trkpt><trkpt lat="42.55190174660321" lon="13.480503312988835"><ele>733.0</ele><time>2026-05-03T12:44:39.999Z</time></trkpt><trkpt lat="42.55188770606711" lon="13.480273609722895"><ele>737.0</ele><time>2026-05-03T12:44:40.999Z</time></trkpt><trkpt lat="42.55189240984757" lon="13.480065517471665"><ele>741.0</ele><time>2026-05-03T12:44:41.999Z</time></trkpt><trkpt lat="42.5519255488293" lon="13.479846452587964"><ele>741.0</ele><time>2026-05-03T12:44:42.999Z</time></trkpt><trkpt lat="42.551975988293385" lon="13.479619950468043"><ele>741.0</ele><time>2026-05-03T12:44:43.999Z</time></trkpt><trkpt lat="42.55207467966448" lon="13.479393690722738"><ele>741.0</ele><time>2026-05-03T12:44:44.999Z</time></trkpt><trkpt lat="42.552160450974576" lon="13.47920003923609"><ele>738.25</ele><time>2026-05-03T12:44:45.999Z</time></trkpt><trkpt lat="42.552242974127616" lon="13.47905266653972"><ele>735.5</ele><time>2026-05-03T12:44:46.999Z</time></trkpt><trkpt lat="42.55235092286649" lon="13.47892019579444"><ele>732.75</ele><time>2026-05-03T12:44:47.999Z</time></trkpt><trkpt lat="42.55246992544395" lon="13.478830152238855"><ele>730.0</ele><time>2026-05-03T12:44:48.999Z</time></trkpt><trkpt lat="42.55258094987962" lon="13.478736959312485"><ele>730.0</ele><time>2026-05-03T12:44:49.999Z</time></trkpt><trkpt lat="42.55267777192224" lon="13.478632722699073"><ele>730.0</ele><time>2026-05-03T12:44:50.999Z</time></trkpt><trkpt lat="42.55276903601393" lon="13.478495107636633"><ele>730.0</ele><time>2026-05-03T12:44:51.999Z</time></trkpt><trkpt lat="42.552820298322295" lon="13.478342143937194"><ele>730.0</ele><time>2026-05-03T12:44:52.999Z</time></trkpt><trkpt lat="42.552835764373356" lon="13.47818780045659"><ele>730.0</ele><time>2026-05-03T12:44:53.999Z</time></trkpt><trkpt lat="42.55282485562119" lon="13.478034652118575"><ele>730.0</ele><time>2026-05-03T12:44:54.999Z</time></trkpt><trkpt lat="42.5528086014338" lon="13.47789797160657"><ele>736.0</ele><time>2026-05-03T12:44:55.999Z</time></trkpt><trkpt lat="42.55280040285118" lon="13.477803756534083"><ele>736.0</ele><time>2026-05-03T12:44:56.999Z</time></trkpt><trkpt lat="42.55278093741719" lon="13.4776787194747"><ele>736.0</ele><time>2026-05-03T12:44:58.999Z</time></trkpt></trkseg><trkseg><trkpt lat="42.55267751230101" lon="13.477658171381753"><ele>736.0</ele><time>2026-05-03T12:59:36.999Z</time></trkpt><trkpt lat="42.55268770423213" lon="13.47751563481344"><ele>736.0</ele><time>2026-05-03T13:00:18.999Z</time></trkpt><trkpt lat="42.552694654976364" lon="13.477399892567833"><ele>736.0</ele><time>2026-05-03T13:00:19.999Z</time></trkpt><trkpt lat="42.552695930129296" lon="13.477258446886811"><ele>736.0</ele><time>2026-05-03T13:00:20.999Z</time></trkpt><trkpt lat="42.552706769949744" lon="13.477123801436875"><ele>736.0</ele><time>2026-05-03T13:00:21.999Z</time></trkpt><trkpt lat="42.55273339566643" lon="13.476984257745011"><ele>735.0</ele><time>2026-05-03T13:00:22.999Z</time></trkpt><trkpt lat="42.552705048768274" lon="13.476842365702964"><ele>734.0</ele><time>2026-05-03T13:00:23.998Z</time></trkpt><trkpt lat="42.5526429034884" lon="13.476695597259567"><ele>733.0</ele><time>2026-05-03T13:00:24.998Z</time></trkpt><trkpt lat="42.55257249154124" lon="13.476539839373338"><ele>732.0</ele><time>2026-05-03T13:00:25.998Z</time></trkpt><trkpt lat="42.55249164366025" lon="13.47637468382017"><ele>727.75</ele><time>2026-05-03T13:00:26.998Z</time></trkpt><trkpt lat="42.5523883957718" lon="13.476240471074405"><ele>723.5</ele><time>2026-05-03T13:00:27.998Z</time></trkpt><trkpt lat="42.55229239389489" lon="13.47610674388533"><ele>719.25</ele><time>2026-05-03T13:00:28.998Z</time></trkpt><trkpt lat="42.5521994030735" lon="13.47599240891389"><ele>715.0</ele><time>2026-05-03T13:00:29.998Z</time></trkpt><trkpt lat="42.552110907626435" lon="13.475892365879824"><ele>725.75</ele><time>2026-05-03T13:00:30.998Z</time></trkpt><trkpt lat="42.552014942417955" lon="13.475792696983056"><ele>736.5</ele><time>2026-05-03T13:00:31.998Z</time></trkpt><trkpt lat="42.5519473680839" lon="13.475643036933544"><ele>747.25</ele><time>2026-05-03T13:00:32.998Z</time></trkpt><trkpt lat="42.551874467307364" lon="13.47549166467228"><ele>758.0</ele><time>2026-05-03T13:00:33.998Z</time></trkpt><trkpt lat="42.551815036463445" lon="13.47534135804557"><ele>758.0</ele><time>2026-05-03T13:00:34.998Z</time></trkpt><trkpt lat="42.55179369381692" lon="13.475187922620666"><ele>758.0</ele><time>2026-05-03T13:00:35.998Z</time></trkpt><trkpt lat="42.55182008626682" lon="13.475010188300942"><ele>758.0</ele><time>2026-05-03T13:00:37Z</time></trkpt><trkpt lat="42.5518322969484" lon="13.4747695559125"><ele>758.0</ele><time>2026-05-03T13:00:38Z</time></trkpt><trkpt lat="42.55183952404705" lon="13.47450934584457"><ele>754.5</ele><time>2026-05-03T13:00:39Z</time></trkpt><trkpt lat="42.55182891910383" lon="13.474195888092925"><ele>751.0</ele><time>2026-05-03T13:00:40Z</time></trkpt><trkpt lat="42.551801525721956" lon="13.47385223746167"><ele>750.0</ele><time>2026-05-03T13:00:41Z</time></trkpt><trkpt lat="42.55180461770617" lon="13.473496710378834"><ele>749.0</ele><time>2026-05-03T13:00:42Z</time></trkpt><trkpt lat="42.55182665770411" lon="13.473149673730212"><ele>750.3333333333333</ele><time>2026-05-03T13:00:43Z</time></trkpt><trkpt lat="42.55184508141823" lon="13.47284664187279"><ele>751.6666666666666</ele><time>2026-05-03T13:00:44Z</time></trkpt><trkpt lat="42.55185881800235" lon="13.472567981694388"><ele>753.0</ele><time>2026-05-03T13:00:45Z</time></trkpt><trkpt lat="42.55184220955778" lon="13.472312330056454"><ele>753.3333333333334</ele><time>2026-05-03T13:00:46Z</time></trkpt><trkpt lat="42.551839266329786" lon="13.472046164127132"><ele>753.6666666666667</ele><time>2026-05-03T13:00:47Z</time></trkpt><trkpt lat="42.55178157861504" lon="13.471768110954146"><ele>754.0</ele><time>2026-05-03T13:00:48Z</time></trkpt><trkpt lat="42.55171672627153" lon="13.47149953091337"><ele>751.3333333333334</ele><time>2026-05-03T13:00:49Z</time></trkpt><trkpt lat="42.55163646952037" lon="13.471228121773693"><ele>748.6666666666666</ele><time>2026-05-03T13:00:50Z</time></trkpt><trkpt lat="42.55151177373163" lon="13.470973936533216"><ele>746.0</ele><time>2026-05-03T13:00:51Z</time></trkpt><trkpt lat="42.551376535767176" lon="13.47068753599431"><ele>751.5</ele><time>2026-05-03T13:00:52Z</time></trkpt><trkpt lat="42.55127738776387" lon="13.470384808093163"><ele>757.0</ele><time>2026-05-03T13:00:53Z</time></trkpt><trkpt lat="42.55117836540162" lon="13.470099345950977"><ele>754.0</ele><time>2026-05-03T13:00:54Z</time></trkpt><trkpt lat="42.55104573249786" lon="13.469816584778576"><ele>751.0</ele><time>2026-05-03T13:00:55Z</time></trkpt><trkpt lat="42.5509020442452" lon="13.469514809221584"><ele>751.0</ele><time>2026-05-03T13:00:56Z</time></trkpt><trkpt lat="42.55073806285036" lon="13.469218181245083"><ele>751.0</ele><time>2026-05-03T13:00:57Z</time></trkpt><trkpt lat="42.55056660283825" lon="13.468950863935348"><ele>756.0</ele><time>2026-05-03T13:00:58Z</time></trkpt><trkpt lat="42.55040632314164" lon="13.468703481942057"><ele>761.0</ele><time>2026-05-03T13:00:59Z</time></trkpt><trkpt lat="42.5502549829862" lon="13.468452486183434"><ele>761.0</ele><time>2026-05-03T13:00:59.999Z</time></trkpt><trkpt lat="42.5500845843737" lon="13.468216657020813"><ele>761.0</ele><time>2026-05-03T13:01:00.999Z</time></trkpt><trkpt lat="42.549908175721924" lon="13.468014949357906"><ele>760.3333333333333</ele><time>2026-05-03T13:01:01.999Z</time></trkpt><trkpt lat="42.549752137802486" lon="13.467834831984684"><ele>759.6666666666666</ele><time>2026-05-03T13:01:02.999Z</time></trkpt><trkpt lat="42.54955971611946" lon="13.467684600342356"><ele>759.0</ele><time>2026-05-03T13:01:03.999Z</time></trkpt><trkpt lat="42.54937203477567" lon="13.467533810064168"><ele>762.0</ele><time>2026-05-03T13:01:04.999Z</time></trkpt><trkpt lat="42.54920491710799" lon="13.467422611967416"><ele>765.0</ele><time>2026-05-03T13:01:05.999Z</time></trkpt><trkpt lat="42.54902996788953" lon="13.46732817340881"><ele>768.0</ele><time>2026-05-03T13:01:06.999Z</time></trkpt><trkpt lat="42.548838231793106" lon="13.46728029732989"><ele>767.3333333333334</ele><time>2026-05-03T13:01:07.999Z</time></trkpt><trkpt lat="42.54862187108341" lon="13.46720974333051"><ele>766.6666666666667</ele><time>2026-05-03T13:01:08.999Z</time></trkpt><trkpt lat="42.548421737720105" lon="13.467112184031336"><ele>766.0</ele><time>2026-05-03T13:01:09.999Z</time></trkpt><trkpt lat="42.54822680065107" lon="13.46695646767329"><ele>766.0</ele><time>2026-05-03T13:01:10.999Z</time></trkpt><trkpt lat="42.548027213329924" lon="13.466828833438688"><ele>766.0</ele><time>2026-05-03T13:01:11.999Z</time></trkpt><trkpt lat="42.54782636801911" lon="13.466665519815724"><ele>776.0</ele><time>2026-05-03T13:01:12.999Z</time></trkpt><trkpt lat="42.54764206964786" lon="13.466465666931766"><ele>786.0</ele><time>2026-05-03T13:01:13.999Z</time></trkpt><trkpt lat="42.54745830187391" lon="13.46628774384464"><ele>788.0</ele><time>2026-05-03T13:01:14.999Z</time></trkpt><trkpt lat="42.54730084235653" lon="13.466125819806559"><ele>790.0</ele><time>2026-05-03T13:01:15.999Z</time></trkpt><trkpt lat="42.54716401897653" lon="13.465970165655728"><ele>792.0</ele><time>2026-05-03T13:01:16.999Z</time></trkpt><trkpt lat="42.54703724793661" lon="13.465849843798539"><ele>792.0</ele><time>2026-05-03T13:01:17.999Z</time></trkpt><trkpt lat="42.546907563418024" lon="13.465773972203941"><ele>792.0</ele><time>2026-05-03T13:01:18.999Z</time></trkpt><trkpt lat="42.54678378309116" lon="13.465660500587033"><ele>792.0</ele><time>2026-05-03T13:01:19.999Z</time></trkpt><trkpt lat="42.546665508478625" lon="13.465532629536757"><ele>792.0</ele><time>2026-05-03T13:01:20.999Z</time></trkpt><trkpt lat="42.546532871224116" lon="13.465402064224016"><ele>793.6666666666667</ele><time>2026-05-03T13:01:21.999Z</time></trkpt><trkpt lat="42.54640218084618" lon="13.465234346066373"><ele>795.3333333333334</ele><time>2026-05-03T13:01:22.999Z</time></trkpt><trkpt lat="42.54622684375468" lon="13.464973192102013"><ele>797.0</ele><time>2026-05-03T13:01:23.999Z</time></trkpt><trkpt lat="42.54605511633051" lon="13.464729730370873"><ele>792.3333333333334</ele><time>2026-05-03T13:01:24.999Z</time></trkpt><trkpt lat="42.54589909112496" lon="13.46452586260436"><ele>787.6666666666667</ele><time>2026-05-03T13:01:25.999Z</time></trkpt><trkpt lat="42.54575403921466" lon="13.464341061784253"><ele>783.0</ele><time>2026-05-03T13:01:26.999Z</time></trkpt><trkpt lat="42.545621975208" lon="13.464173347796367"><ele>783.0</ele><time>2026-05-03T13:01:27.999Z</time></trkpt><trkpt lat="42.54550842740718" lon="13.464016634757622"><ele>783.0</ele><time>2026-05-03T13:01:28.999Z</time></trkpt><trkpt lat="42.54537607573243" lon="13.46393608346073"><ele>783.0</ele><time>2026-05-03T13:01:29.999Z</time></trkpt><trkpt lat="42.54519008521662" lon="13.463900028320829"><ele>786.0</ele><time>2026-05-03T13:01:30.999Z</time></trkpt><trkpt lat="42.54502909980282" lon="13.463774369035884"><ele>789.0</ele><time>2026-05-03T13:01:31.999Z</time></trkpt><trkpt lat="42.54490241107765" lon="13.463638408208663"><ele>792.0</ele><time>2026-05-03T13:01:32.999Z</time></trkpt><trkpt lat="42.544769584933356" lon="13.463465785446163"><ele>792.0</ele><time>2026-05-03T13:01:33.999Z</time></trkpt><trkpt lat="42.544600646334736" lon="13.463283607155736"><ele>792.0</ele><time>2026-05-03T13:01:34.999Z</time></trkpt><trkpt lat="42.54440507251742" lon="13.463064053718089"><ele>794.5</ele><time>2026-05-03T13:01:35.999Z</time></trkpt><trkpt lat="42.54418477011145" lon="13.462860339975592"><ele>797.0</ele><time>2026-05-03T13:01:36.999Z</time></trkpt><trkpt lat="42.54396946570908" lon="13.462591799765736"><ele>797.0</ele><time>2026-05-03T13:01:37.999Z</time></trkpt><trkpt lat="42.54376927211644" lon="13.462334746244817"><ele>797.0</ele><time>2026-05-03T13:01:38.999Z</time></trkpt><trkpt lat="42.54355023537755" lon="13.462074998344775"><ele>801.5</ele><time>2026-05-03T13:01:39.999Z</time></trkpt><trkpt lat="42.54337754533849" lon="13.461833395267577"><ele>806.0</ele><time>2026-05-03T13:01:40.999Z</time></trkpt><trkpt lat="42.54320783438246" lon="13.461636739795129"><ele>806.0</ele><time>2026-05-03T13:01:41.999Z</time></trkpt><trkpt lat="42.543049675485584" lon="13.461459578065023"><ele>806.0</ele><time>2026-05-03T13:01:42.999Z</time></trkpt><trkpt lat="42.542901147042436" lon="13.46129705730264"><ele>806.0</ele><time>2026-05-03T13:01:43.999Z</time></trkpt><trkpt lat="42.54278197542294" lon="13.461147184803156"><ele>806.25</ele><time>2026-05-03T13:01:44.999Z</time></trkpt><trkpt lat="42.542672864666116" lon="13.461018181728031"><ele>806.5</ele><time>2026-05-03T13:01:45.999Z</time></trkpt><trkpt lat="42.54258267547978" lon="13.460867419979094"><ele>806.75</ele><time>2026-05-03T13:01:46.999Z</time></trkpt><trkpt lat="42.54250999713683" lon="13.460753425555378"><ele>807.0</ele><time>2026-05-03T13:01:47.999Z</time></trkpt><trkpt lat="42.542442598104245" lon="13.460633777900819"><ele>807.0</ele><time>2026-05-03T13:01:48.999Z</time></trkpt><trkpt lat="42.54241927146695" lon="13.460502937549409"><ele>807.0</ele><time>2026-05-03T13:01:49.999Z</time></trkpt><trkpt lat="42.5423955444859" lon="13.460383268467622"><ele>807.0</ele><time>2026-05-03T13:01:50.999Z</time></trkpt><trkpt lat="42.54237201429504" lon="13.460246787771135"><ele>807.0</ele><time>2026-05-03T13:01:51.999Z</time></trkpt><trkpt lat="42.54234974601189" lon="13.460094602942142"><ele>807.0</ele><time>2026-05-03T13:01:52.999Z</time></trkpt><trkpt lat="42.54232254586838" lon="13.45992685024147"><ele>812.5</ele><time>2026-05-03T13:01:53.999Z</time></trkpt><trkpt lat="42.54230037418528" lon="13.459759899684514"><ele>818.0</ele><time>2026-05-03T13:01:54.999Z</time></trkpt><trkpt lat="42.542287350618075" lon="13.459536729527239"><ele>823.5</ele><time>2026-05-03T13:01:55.999Z</time></trkpt><trkpt lat="42.54224092091665" lon="13.459343201238221"><ele>829.0</ele><time>2026-05-03T13:01:56.999Z</time></trkpt><trkpt lat="42.542191829951236" lon="13.459141899975586"><ele>850.6666666666666</ele><time>2026-05-03T13:01:57.999Z</time></trkpt><trkpt lat="42.54214071524961" lon="13.458943859019865"><ele>872.3333333333333</ele><time>2026-05-03T13:01:58.999Z</time></trkpt><trkpt lat="42.54209247543761" lon="13.45874892751014"><ele>894.0</ele><time>2026-05-03T13:01:59.999Z</time></trkpt><trkpt lat="42.54204167089138" lon="13.4585352148579"><ele>894.0</ele><time>2026-05-03T13:02:01.054Z</time></trkpt><trkpt lat="42.54199238962853" lon="13.45833455742429"><ele>894.0</ele><time>2026-05-03T13:02:02.052Z</time></trkpt><trkpt lat="42.54193735083935" lon="13.458132394090246"><ele>894.0</ele><time>2026-05-03T13:02:03.052Z</time></trkpt><trkpt lat="42.54188172033839" lon="13.457930765134709"><ele>891.0</ele><time>2026-05-03T13:02:04.051Z</time></trkpt><trkpt lat="42.541829228489014" lon="13.457732572229782"><ele>888.0</ele><time>2026-05-03T13:02:05.05Z</time></trkpt><trkpt lat="42.5372820830656" lon="13.454488959325097"><ele>888.0</ele><time>2026-05-03T13:02:44.998Z</time></trkpt><trkpt lat="42.537213606993625" lon="13.454405172494027"><ele>888.0</ele><time>2026-05-03T13:02:45.998Z</time></trkpt><trkpt lat="42.53705099659843" lon="13.45464020484424"><ele>888.0</ele><time>2026-05-03T13:02:46.998Z</time></trkpt><trkpt lat="42.53700009574826" lon="13.45455967016922"><ele>888.0</ele><time>2026-05-03T13:02:47.998Z</time></trkpt><trkpt lat="42.53693553043836" lon="13.454582862022301"><ele>884.5</ele><time>2026-05-03T13:03:33.999Z</time></trkpt><trkpt lat="42.5368631094867" lon="13.454532794470415"><ele>881.0</ele><time>2026-05-03T13:03:36.999Z</time></trkpt><trkpt lat="42.53681451052473" lon="13.454473994108042"><ele>877.5</ele><time>2026-05-03T13:03:38.999Z</time></trkpt><trkpt lat="42.53673456729052" lon="13.454451663424686"><ele>874.0</ele><time>2026-05-03T13:04:08.999Z</time></trkpt><trkpt lat="42.536620045211144" lon="13.454376540331372"><ele>870.5</ele><time>2026-05-03T13:04:10.999Z</time></trkpt><trkpt lat="42.53656116572827" lon="13.454335369510618"><ele>867.0</ele><time>2026-05-03T13:04:11.999Z</time></trkpt><trkpt lat="42.536502128713174" lon="13.454187820286197"><ele>867.0</ele><time>2026-05-03T13:04:13.999Z</time></trkpt><trkpt lat="42.536427438693366" lon="13.454071890877398"><ele>867.0</ele><time>2026-05-03T13:04:15.999Z</time></trkpt><trkpt lat="42.5363875548728" lon="13.45400321021087"><ele>867.0</ele><time>2026-05-03T13:04:16.999Z</time></trkpt><trkpt lat="42.53634625714805" lon="13.453929578244889"><ele>867.0</ele><time>2026-05-03T13:04:17.999Z</time></trkpt><trkpt lat="42.536301703062996" lon="13.453851971637077"><ele>867.0</ele><time>2026-05-03T13:04:18.999Z</time></trkpt><trkpt lat="42.53624770594771" lon="13.45376937963428"><ele>867.0</ele><time>2026-05-03T13:04:19.999Z</time></trkpt><trkpt lat="42.536188544237376" lon="13.453692629148591"><ele>870.8</ele><time>2026-05-03T13:04:20.999Z</time></trkpt><trkpt lat="42.536120418948315" lon="13.45361596645791"><ele>874.6</ele><time>2026-05-03T13:04:21.999Z</time></trkpt><trkpt lat="42.536026105042836" lon="13.453542333270763"><ele>878.3999999999999</ele><time>2026-05-03T13:04:22.999Z</time></trkpt><trkpt lat="42.53590806259785" lon="13.453495468299218"><ele>882.1999999999999</ele><time>2026-05-03T13:04:23.999Z</time></trkpt><trkpt lat="42.53578781487511" lon="13.453465735319696"><ele>886.0</ele><time>2026-05-03T13:04:24.999Z</time></trkpt><trkpt lat="42.5356694059457" lon="13.453424635424044"><ele>886.0</ele><time>2026-05-03T13:04:25.999Z</time></trkpt><trkpt lat="42.535548802224454" lon="13.453369861159151"><ele>886.0</ele><time>2026-05-03T13:04:26.999Z</time></trkpt><trkpt lat="42.535436288838184" lon="13.453309244348219"><ele>886.0</ele><time>2026-05-03T13:04:27.999Z</time></trkpt><trkpt lat="42.5353287304798" lon="13.453242850142932"><ele>886.0</ele><time>2026-05-03T13:04:28.999Z</time></trkpt><trkpt lat="42.535228863944724" lon="13.453174696558733"><ele>886.1999999999999</ele><time>2026-05-03T13:04:29.999Z</time></trkpt><trkpt lat="42.53513045703077" lon="13.453103414571084"><ele>886.3999999999999</ele><time>2026-05-03T13:04:30.999Z</time></trkpt><trkpt lat="42.53503563305789" lon="13.453027215011625"><ele>886.6</ele><time>2026-05-03T13:04:31.999Z</time></trkpt><trkpt lat="42.5349410990002" lon="13.452939843988013"><ele>886.8</ele><time>2026-05-03T13:04:32.999Z</time></trkpt><trkpt lat="42.53486999201343" lon="13.452844355821773"><ele>887.0</ele><time>2026-05-03T13:04:33.999Z</time></trkpt><trkpt lat="42.53480240469756" lon="13.452716897618306"><ele>887.0</ele><time>2026-05-03T13:04:34.999Z</time></trkpt><trkpt lat="42.5346922982543" lon="13.452527621916612"><ele>887.0</ele><time>2026-05-03T13:04:35.999Z</time></trkpt><trkpt lat="42.534516801022434" lon="13.452323775094"><ele>887.0</ele><time>2026-05-03T13:04:36.999Z</time></trkpt><trkpt lat="42.534323498518" lon="13.452154859226017"><ele>885.0</ele><time>2026-05-03T13:04:37.999Z</time></trkpt><trkpt lat="42.53410477735405" lon="13.45198653779541"><ele>883.0</ele><time>2026-05-03T13:04:38.999Z</time></trkpt><trkpt lat="42.53396254289126" lon="13.451879482895357"><ele>881.0</ele><time>2026-05-03T13:04:39.999Z</time></trkpt><trkpt lat="42.53383650830373" lon="13.451749117768712"><ele>881.0</ele><time>2026-05-03T13:04:40.999Z</time></trkpt><trkpt lat="42.53379194736761" lon="13.451530092913387"><ele>881.0</ele><time>2026-05-03T13:04:41.998Z</time></trkpt><trkpt lat="42.53373891988662" lon="13.451278598075135"><ele>881.0</ele><time>2026-05-03T13:04:42.998Z</time></trkpt><trkpt lat="42.53369970833679" lon="13.450986395637129"><ele>880.6666666666667</ele><time>2026-05-03T13:04:43.998Z</time></trkpt><trkpt lat="42.53362391141406" lon="13.450720494753613"><ele>880.3333333333333</ele><time>2026-05-03T13:04:44.998Z</time></trkpt><trkpt lat="42.533487327212384" lon="13.450529452174969"><ele>880.0</ele><time>2026-05-03T13:04:45.998Z</time></trkpt><trkpt lat="42.5333569331067" lon="13.450375328545748"><ele>886.0</ele><time>2026-05-03T13:04:46.998Z</time></trkpt><trkpt lat="42.53326826869254" lon="13.450166368770534"><ele>892.0</ele><time>2026-05-03T13:04:47.998Z</time></trkpt><trkpt lat="42.5332289831426" lon="13.44990873526156"><ele>898.0</ele><time>2026-05-03T13:04:48.998Z</time></trkpt><trkpt lat="42.53317984441082" lon="13.449662052512359"><ele>894.0</ele><time>2026-05-03T13:04:49.998Z</time></trkpt><trkpt lat="42.533072135888546" lon="13.44945478116597"><ele>890.0</ele><time>2026-05-03T13:04:50.998Z</time></trkpt><trkpt lat="42.53289094608885" lon="13.449248884572606"><ele>886.0</ele><time>2026-05-03T13:04:51.998Z</time></trkpt><trkpt lat="42.532670795484265" lon="13.449050074854762"><ele>886.0</ele><time>2026-05-03T13:04:52.998Z</time></trkpt><trkpt lat="42.53246405984802" lon="13.448850724481838"><ele>886.0</ele><time>2026-05-03T13:04:53.998Z</time></trkpt><trkpt lat="42.53228198372746" lon="13.448645678148514"><ele>889.0</ele><time>2026-05-03T13:04:54.998Z</time></trkpt><trkpt lat="42.53210616724344" lon="13.448440596784142"><ele>892.0</ele><time>2026-05-03T13:04:55.998Z</time></trkpt><trkpt lat="42.53192903589911" lon="13.44824571552748"><ele>892.0</ele><time>2026-05-03T13:04:57Z</time></trkpt><trkpt lat="42.53178213689141" lon="13.448046243801157"><ele>892.0</ele><time>2026-05-03T13:04:58Z</time></trkpt><trkpt lat="42.53166098887975" lon="13.447772002550066"><ele>892.0</ele><time>2026-05-03T13:04:59.07Z</time></trkpt><trkpt lat="42.53154862331199" lon="13.447497843666268"><ele>904.5</ele><time>2026-05-03T13:05:00.051Z</time></trkpt><trkpt lat="42.53139492292102" lon="13.447201811518958"><ele>917.0</ele><time>2026-05-03T13:05:01.051Z</time></trkpt><trkpt lat="42.531234743799715" lon="13.446936999290573"><ele>910.0</ele><time>2026-05-03T13:05:02.049Z</time></trkpt><trkpt lat="42.53105614057842" lon="13.446645824336237"><ele>903.0</ele><time>2026-05-03T13:05:03.05Z</time></trkpt><trkpt lat="42.53087711721205" lon="13.446354308919634"><ele>903.5</ele><time>2026-05-03T13:05:04.041Z</time></trkpt><trkpt lat="42.53075269305355" lon="13.44611034195909"><ele>904.0</ele><time>2026-05-03T13:05:05.034Z</time></trkpt><trkpt lat="42.52958122899381" lon="13.44540140082061"><ele>904.0</ele><time>2026-05-03T13:05:09.982Z</time></trkpt><trkpt lat="42.52991012760621" lon="13.444875460623699"><ele>925.5</ele><time>2026-05-03T13:05:11.029Z</time></trkpt><trkpt lat="42.52975842068907" lon="13.444429018655772"><ele>947.0</ele><time>2026-05-03T13:05:12.034Z</time></trkpt><trkpt lat="42.52959937059278" lon="13.444315226360626"><ele>939.75</ele><time>2026-05-03T13:05:12.999Z</time></trkpt><trkpt lat="42.52944859696072" lon="13.44419800882208"><ele>932.5</ele><time>2026-05-03T13:05:13.999Z</time></trkpt><trkpt lat="42.52935924381109" lon="13.444088520124051"><ele>925.25</ele><time>2026-05-03T13:05:14.999Z</time></trkpt><trkpt lat="42.52931392588309" lon="13.443979887269458"><ele>918.0</ele><time>2026-05-03T13:05:15.999Z</time></trkpt><trkpt lat="42.5292602012718" lon="13.443851246034269"><ele>927.5</ele><time>2026-05-03T13:05:16.999Z</time></trkpt><trkpt lat="42.52915603733743" lon="13.44350238063357"><ele>937.0</ele><time>2026-05-03T13:05:17.999Z</time></trkpt><trkpt lat="42.52907270703851" lon="13.443209389830573"><ele>937.0</ele><time>2026-05-03T13:05:18.999Z</time></trkpt><trkpt lat="42.529010155999195" lon="13.442970459483538"><ele>937.0</ele><time>2026-05-03T13:05:19.999Z</time></trkpt><trkpt lat="42.52886330361192" lon="13.442876997017583"><ele>937.0</ele><time>2026-05-03T13:05:20.999Z</time></trkpt><trkpt lat="42.52871012849416" lon="13.442768264272493"><ele>933.0</ele><time>2026-05-03T13:05:21.999Z</time></trkpt><trkpt lat="42.528528020225394" lon="13.442647947040362"><ele>929.0</ele><time>2026-05-03T13:05:22.999Z</time></trkpt><trkpt lat="42.52839268724019" lon="13.442490223384207"><ele>925.0</ele><time>2026-05-03T13:05:23.999Z</time></trkpt><trkpt lat="42.528310783959334" lon="13.442231066283485"><ele>933.0</ele><time>2026-05-03T13:05:24.999Z</time></trkpt><trkpt lat="42.52824281910426" lon="13.441951159137531"><ele>941.0</ele><time>2026-05-03T13:05:25.999Z</time></trkpt><trkpt lat="42.52821391176938" lon="13.441663418900724"><ele>949.0</ele><time>2026-05-03T13:05:26.999Z</time></trkpt><trkpt lat="42.52817942371313" lon="13.441336731567915"><ele>951.3333333333333</ele><time>2026-05-03T13:05:27.999Z</time></trkpt><trkpt lat="42.528155186247304" lon="13.441080529641251"><ele>953.6666666666667</ele><time>2026-05-03T13:05:28.999Z</time></trkpt><trkpt lat="42.52809895526738" lon="13.44090166543782"><ele>956.0</ele><time>2026-05-03T13:05:29.999Z</time></trkpt><trkpt lat="42.527992515378386" lon="13.440794506135347"><ele>959.3333333333334</ele><time>2026-05-03T13:05:30.999Z</time></trkpt><trkpt lat="42.527865286540546" lon="13.440675339906045"><ele>962.6666666666667</ele><time>2026-05-03T13:05:31.999Z</time></trkpt><trkpt lat="42.527690676772245" lon="13.440535349750341"><ele>966.0</ele><time>2026-05-03T13:05:32.999Z</time></trkpt><trkpt lat="42.527450063254086" lon="13.440369222937012"><ele>966.0</ele><time>2026-05-03T13:05:33.999Z</time></trkpt><trkpt lat="42.5272427880455" lon="13.440287277844284"><ele>966.0</ele><time>2026-05-03T13:05:34.999Z</time></trkpt><trkpt lat="42.52708121288695" lon="13.4402190186909"><ele>966.0</ele><time>2026-05-03T13:05:35.999Z</time></trkpt><trkpt lat="42.52695934061129" lon="13.44017062322198"><ele>963.5</ele><time>2026-05-03T13:05:36.999Z</time></trkpt><trkpt lat="42.52685725481745" lon="13.440098202924853"><ele>961.0</ele><time>2026-05-03T13:05:37.999Z</time></trkpt><trkpt lat="42.526783986215754" lon="13.4399348336223"><ele>958.5</ele><time>2026-05-03T13:05:38.999Z</time></trkpt><trkpt lat="42.526731083459204" lon="13.439726387335382"><ele>956.0</ele><time>2026-05-03T13:05:39.999Z</time></trkpt><trkpt lat="42.52667478570799" lon="13.439472835050772"><ele>956.0</ele><time>2026-05-03T13:05:40.999Z</time></trkpt><trkpt lat="42.52662707004641" lon="13.439273859380647"><ele>956.0</ele><time>2026-05-03T13:05:41.999Z</time></trkpt><trkpt lat="42.52654991850651" lon="13.43911471933214"><ele>956.0</ele><time>2026-05-03T13:05:42.999Z</time></trkpt><trkpt lat="42.526384362659236" lon="13.438988505427686"><ele>950.3333333333334</ele><time>2026-05-03T13:05:43.999Z</time></trkpt><trkpt lat="42.52617215088643" lon="13.438840014639123"><ele>944.6666666666667</ele><time>2026-05-03T13:05:44.999Z</time></trkpt><trkpt lat="42.52599071749197" lon="13.43871971781552"><ele>939.0</ele><time>2026-05-03T13:05:45.999Z</time></trkpt><trkpt lat="42.52578789633536" lon="13.438566473104238"><ele>950.5</ele><time>2026-05-03T13:05:46.999Z</time></trkpt><trkpt lat="42.525587362226084" lon="13.438427939421098"><ele>962.0</ele><time>2026-05-03T13:05:47.999Z</time></trkpt><trkpt lat="42.52531869025187" lon="13.438336836847427"><ele>962.0</ele><time>2026-05-03T13:05:48.999Z</time></trkpt><trkpt lat="42.525039120833775" lon="13.438269007668149"><ele>962.0</ele><time>2026-05-03T13:05:49.999Z</time></trkpt><trkpt lat="42.520493864323555" lon="13.43711736781719"><ele>995.0</ele><time>2026-05-03T13:06:09.175Z</time></trkpt><trkpt lat="42.52021191811208" lon="13.430174143503908"><ele>1027.0</ele><time>2026-05-03T13:06:21.999Z</time></trkpt><trkpt lat="42.51970539886984" lon="13.425258527027792"><ele>1027.0</ele><time>2026-05-03T13:06:39.998Z</time></trkpt><trkpt lat="42.51970905511704" lon="13.425076233652751"><ele>1027.0</ele><time>2026-05-03T13:06:40.998Z</time></trkpt><trkpt lat="42.5196574853526" lon="13.424857596293519"><ele>1027.0</ele><time>2026-05-03T13:06:41.998Z</time></trkpt><trkpt lat="42.51960740484344" lon="13.424645388134898"><ele>1021.0</ele><time>2026-05-03T13:06:42.998Z</time></trkpt><trkpt lat="42.51953826269382" lon="13.424443201967508"><ele>1015.0</ele><time>2026-05-03T13:06:43.998Z</time></trkpt><trkpt lat="42.519451604786525" lon="13.42425379746827"><ele>1009.0</ele><time>2026-05-03T13:06:44.998Z</time></trkpt><trkpt lat="42.519362659259315" lon="13.424089852973443"><ele>1009.0</ele><time>2026-05-03T13:06:45.998Z</time></trkpt><trkpt lat="42.51929025171128" lon="13.423952292597408"><ele>1009.0</ele><time>2026-05-03T13:06:46.998Z</time></trkpt><trkpt lat="42.519241486073156" lon="13.423804718997308"><ele>1009.0</ele><time>2026-05-03T13:06:47.998Z</time></trkpt><trkpt lat="42.51920859316688" lon="13.423646781758986"><ele>1009.0</ele><time>2026-05-03T13:06:48.998Z</time></trkpt><trkpt lat="42.519236914679915" lon="13.423453980684608"><ele>1010.5</ele><time>2026-05-03T13:06:49.998Z</time></trkpt><trkpt lat="42.51927947181729" lon="13.423214644932546"><ele>1012.0</ele><time>2026-05-03T13:06:50.998Z</time></trkpt><trkpt lat="42.51965674991346" lon="13.422709655794636"><ele>1020.0</ele><time>2026-05-03T13:06:51.998Z</time></trkpt><trkpt lat="42.51973713489015" lon="13.422494691320518"><ele>1028.0</ele><time>2026-05-03T13:06:52.998Z</time></trkpt><trkpt lat="42.519798513095175" lon="13.422261664837707"><ele>1036.0</ele><time>2026-05-03T13:06:53.998Z</time></trkpt><trkpt lat="42.51986163805497" lon="13.422113647797076"><ele>1037.2</ele><time>2026-05-03T13:06:54.998Z</time></trkpt><trkpt lat="42.5199086142667" lon="13.421936138762161"><ele>1038.3999999999999</ele><time>2026-05-03T13:06:56.998Z</time></trkpt><trkpt lat="42.51983529043149" lon="13.42187741940749"><ele>1039.6</ele><time>2026-05-03T13:06:57.998Z</time></trkpt><trkpt lat="42.519756057070055" lon="13.421836637067683"><ele>1040.8</ele><time>2026-05-03T13:06:58.998Z</time></trkpt><trkpt lat="42.51964115163363" lon="13.421845438066944"><ele>1042.0</ele><time>2026-05-03T13:06:59.998Z</time></trkpt><trkpt lat="42.51949551958683" lon="13.421908132214169"><ele>1043.3333333333333</ele><time>2026-05-03T13:07:00.998Z</time></trkpt><trkpt lat="42.51933697877679" lon="13.42203313503617"><ele>1044.6666666666667</ele><time>2026-05-03T13:07:01.998Z</time></trkpt><trkpt lat="42.5192284847247" lon="13.42224615287091"><ele>1046.0</ele><time>2026-05-03T13:07:03Z</time></trkpt><trkpt lat="42.51906282522442" lon="13.422385544723658"><ele>1040.25</ele><time>2026-05-03T13:07:04Z</time></trkpt><trkpt lat="42.51892501816448" lon="13.422419997159201"><ele>1034.5</ele><time>2026-05-03T13:07:05Z</time></trkpt><trkpt lat="42.518819118105455" lon="13.422372438321368"><ele>1028.75</ele><time>2026-05-03T13:07:06Z</time></trkpt><trkpt lat="42.518716795466716" lon="13.422259872026792"><ele>1023.0</ele><time>2026-05-03T13:07:07.001Z</time></trkpt><trkpt lat="42.51862103362605" lon="13.42214055449204"><ele>1023.0</ele><time>2026-05-03T13:07:08.001Z</time></trkpt><trkpt lat="42.51856326631339" lon="13.421982795842819"><ele>1023.0</ele><time>2026-05-03T13:07:09.001Z</time></trkpt><trkpt lat="42.518534489448335" lon="13.421748034679462"><ele>1023.0</ele><time>2026-05-03T13:07:10.001Z</time></trkpt><trkpt lat="42.518510961868465" lon="13.421516051326673"><ele>1031.0</ele><time>2026-05-03T13:07:11.001Z</time></trkpt><trkpt lat="42.51841208429732" lon="13.42125423048005"><ele>1039.0</ele><time>2026-05-03T13:07:12.001Z</time></trkpt><trkpt lat="42.51831935551223" lon="13.42097581427282"><ele>1047.0</ele><time>2026-05-03T13:07:13.001Z</time></trkpt><trkpt lat="42.51822640865897" lon="13.42058956820476"><ele>1057.5</ele><time>2026-05-03T13:07:14.001Z</time></trkpt><trkpt lat="42.51812870159383" lon="13.420240683454754"><ele>1068.0</ele><time>2026-05-03T13:07:15.001Z</time></trkpt><trkpt lat="42.51807294564063" lon="13.419971580205814"><ele>1068.0</ele><time>2026-05-03T13:07:16.001Z</time></trkpt><trkpt lat="42.518019150962516" lon="13.41974064844223"><ele>1068.0</ele><time>2026-05-03T13:07:17.001Z</time></trkpt><trkpt lat="42.51792770137634" lon="13.419555769296888"><ele>1068.0</ele><time>2026-05-03T13:07:18.001Z</time></trkpt><trkpt lat="42.51776808861124" lon="13.419326372184793"><ele>1056.5</ele><time>2026-05-03T13:07:19.001Z</time></trkpt><trkpt lat="42.51758326183306" lon="13.419100118870603"><ele>1045.0</ele><time>2026-05-03T13:07:20.001Z</time></trkpt><trkpt lat="42.51732408393966" lon="13.419023093695483"><ele>1045.0</ele><time>2026-05-03T13:07:21.001Z</time></trkpt><trkpt lat="42.51708090366913" lon="13.418866699504926"><ele>1045.0</ele><time>2026-05-03T13:07:22Z</time></trkpt><trkpt lat="42.51684963203994" lon="13.41871069490474"><ele>1046.5</ele><time>2026-05-03T13:07:23Z</time></trkpt><trkpt lat="42.51668754218662" lon="13.41855262761374"><ele>1048.0</ele><time>2026-05-03T13:07:24Z</time></trkpt><trkpt lat="42.516481111845664" lon="13.41833106985225"><ele>1048.0</ele><time>2026-05-03T13:07:25Z</time></trkpt><trkpt lat="42.51635356135077" lon="13.418070698115967"><ele>1048.0</ele><time>2026-05-03T13:07:26Z</time></trkpt><trkpt lat="42.516162203011476" lon="13.417715411032155"><ele>1041.5</ele><time>2026-05-03T13:07:27Z</time></trkpt><trkpt lat="42.51599098880247" lon="13.41740636488573"><ele>1035.0</ele><time>2026-05-03T13:07:28Z</time></trkpt><trkpt lat="42.515840074871555" lon="13.417138740025958"><ele>1046.0</ele><time>2026-05-03T13:07:29Z</time></trkpt><trkpt lat="42.515745510560976" lon="13.416846599707654"><ele>1057.0</ele><time>2026-05-03T13:07:30Z</time></trkpt><trkpt lat="42.51566424196342" lon="13.416608060166567"><ele>1068.0</ele><time>2026-05-03T13:07:31Z</time></trkpt><trkpt lat="42.51553551700955" lon="13.41641199727463"><ele>1066.6666666666667</ele><time>2026-05-03T13:07:32Z</time></trkpt><trkpt lat="42.51538101131083" lon="13.416266212854362"><ele>1065.3333333333335</ele><time>2026-05-03T13:07:33Z</time></trkpt><trkpt lat="42.515176049910885" lon="13.416112595579866"><ele>1064.0</ele><time>2026-05-03T13:07:34Z</time></trkpt><trkpt lat="42.51494488974848" lon="13.416020311340738"><ele>1064.0</ele><time>2026-05-03T13:07:35Z</time></trkpt><trkpt lat="42.51475791543635" lon="13.41595553240245"><ele>1064.0</ele><time>2026-05-03T13:07:36Z</time></trkpt><trkpt lat="42.51460720771091" lon="13.415889560193888"><ele>1064.0</ele><time>2026-05-03T13:07:37Z</time></trkpt><trkpt lat="42.514484837081206" lon="13.41574404236258"><ele>1057.5</ele><time>2026-05-03T13:07:38Z</time></trkpt><trkpt lat="42.51434153102148" lon="13.415467114582745"><ele>1051.0</ele><time>2026-05-03T13:07:39Z</time></trkpt><trkpt lat="42.51421922537606" lon="13.41517634887355"><ele>1051.0</ele><time>2026-05-03T13:07:40Z</time></trkpt><trkpt lat="42.51407545933123" lon="13.414840190584862"><ele>1051.0</ele><time>2026-05-03T13:07:41Z</time></trkpt><trkpt lat="42.51390594833362" lon="13.414489034307133"><ele>1049.0</ele><time>2026-05-03T13:07:42Z</time></trkpt><trkpt lat="42.51376038714589" lon="13.41420112967641"><ele>1047.0</ele><time>2026-05-03T13:07:43Z</time></trkpt><trkpt lat="42.513673810623" lon="13.413989725396327"><ele>1045.0</ele><time>2026-05-03T13:07:44Z</time></trkpt><trkpt lat="42.513601810657505" lon="13.413699818558168"><ele>1045.0</ele><time>2026-05-03T13:07:45Z</time></trkpt><trkpt lat="42.513573971637626" lon="13.413409272017873"><ele>1045.0</ele><time>2026-05-03T13:07:46Z</time></trkpt><trkpt lat="42.51354782134698" lon="13.413063342404532"><ele>1051.6666666666665</ele><time>2026-05-03T13:07:47Z</time></trkpt><trkpt lat="42.513478217795736" lon="13.412755847462416"><ele>1058.3333333333333</ele><time>2026-05-03T13:07:48Z</time></trkpt><trkpt lat="42.513417605654055" lon="13.412515428829508"><ele>1065.0</ele><time>2026-05-03T13:07:49Z</time></trkpt><trkpt lat="42.513327642842924" lon="13.41228402494735"><ele>1069.6666666666667</ele><time>2026-05-03T13:07:50Z</time></trkpt><trkpt lat="42.513222956148084" lon="13.412137943161488"><ele>1074.3333333333335</ele><time>2026-05-03T13:07:51Z</time></trkpt><trkpt lat="42.51307905186299" lon="13.41203565603902"><ele>1079.0</ele><time>2026-05-03T13:07:52Z</time></trkpt><trkpt lat="42.512897073244396" lon="13.411963689092374"><ele>1079.0</ele><time>2026-05-03T13:07:53Z</time></trkpt><trkpt lat="42.51264137550944" lon="13.411916477077199"><ele>1079.0</ele><time>2026-05-03T13:07:54Z</time></trkpt><trkpt lat="42.51238246918346" lon="13.411954276039253"><ele>1079.0</ele><time>2026-05-03T13:07:55Z</time></trkpt><trkpt lat="42.51216944899405" lon="13.411999799642858"><ele>1079.0</ele><time>2026-05-03T13:07:56Z</time></trkpt><trkpt lat="42.51197807560961" lon="13.412042599541012"><ele>1079.0</ele><time>2026-05-03T13:07:57Z</time></trkpt><trkpt lat="42.511862396307954" lon="13.412079817379984"><ele>1076.4</ele><time>2026-05-03T13:07:58Z</time></trkpt><trkpt lat="42.51179529689881" lon="13.412112441228949"><ele>1073.8000000000002</ele><time>2026-05-03T13:07:59Z</time></trkpt><trkpt lat="42.51167777320045" lon="13.412103376375933"><ele>1071.1999999999998</ele><time>2026-05-03T13:08:00Z</time></trkpt><trkpt lat="42.511606575332415" lon="13.411989813969655"><ele>1068.6</ele><time>2026-05-03T13:08:01Z</time></trkpt><trkpt lat="42.51158917892099" lon="13.41184915598169"><ele>1066.0</ele><time>2026-05-03T13:08:02Z</time></trkpt><trkpt lat="42.51154492172236" lon="13.411663622859454"><ele>1066.0</ele><time>2026-05-03T13:08:03Z</time></trkpt><trkpt lat="42.511449850908214" lon="13.411343893816268"><ele>1066.0</ele><time>2026-05-03T13:08:04Z</time></trkpt><trkpt lat="42.51131835381614" lon="13.411116412319641"><ele>1065.3333333333333</ele><time>2026-05-03T13:08:05Z</time></trkpt><trkpt lat="42.51121140279247" lon="13.410896218222403"><ele>1064.6666666666667</ele><time>2026-05-03T13:08:06Z</time></trkpt><trkpt lat="42.51113534493037" lon="13.410688861005081"><ele>1064.0</ele><time>2026-05-03T13:08:07Z</time></trkpt><trkpt lat="42.511012395323846" lon="13.410545598423155"><ele>1072.6666666666667</ele><time>2026-05-03T13:08:08Z</time></trkpt><trkpt lat="42.51086510770082" lon="13.410436824434958"><ele>1081.3333333333333</ele><time>2026-05-03T13:08:09Z</time></trkpt><trkpt lat="42.51068675583903" lon="13.410306494788323"><ele>1090.0</ele><time>2026-05-03T13:08:10Z</time></trkpt><trkpt lat="42.51051987521653" lon="13.410176680238003"><ele>1083.75</ele><time>2026-05-03T13:08:11Z</time></trkpt><trkpt lat="42.51034832697815" lon="13.410098590218025"><ele>1077.5</ele><time>2026-05-03T13:08:12Z</time></trkpt><trkpt lat="42.51019174113307" lon="13.410024487930842"><ele>1071.25</ele><time>2026-05-03T13:08:13Z</time></trkpt><trkpt lat="42.510142580763954" lon="13.409933219167835"><ele>1065.0</ele><time>2026-05-03T13:08:14Z</time></trkpt><trkpt lat="42.51006616841979" lon="13.409812101312596"><ele>1071.3333333333333</ele><time>2026-05-03T13:08:15Z</time></trkpt><trkpt lat="42.51004981695206" lon="13.409628997770755"><ele>1077.6666666666665</ele><time>2026-05-03T13:08:16Z</time></trkpt><trkpt lat="42.51003202979689" lon="13.409371686841824"><ele>1084.0</ele><time>2026-05-03T13:08:17Z</time></trkpt><trkpt lat="42.51000601649108" lon="13.40905582821221"><ele>1084.0</ele><time>2026-05-03T13:08:18Z</time></trkpt><trkpt lat="42.50998490327359" lon="13.408826336619196"><ele>1084.0</ele><time>2026-05-03T13:08:19Z</time></trkpt><trkpt lat="42.5099066499953" lon="13.408621415915308"><ele>1084.0</ele><time>2026-05-03T13:08:20Z</time></trkpt><trkpt lat="42.50982803230013" lon="13.408389360762751"><ele>1084.0</ele><time>2026-05-03T13:08:21Z</time></trkpt><trkpt lat="42.509680532681784" lon="13.408206891506845"><ele>1084.0</ele><time>2026-05-03T13:08:22Z</time></trkpt><trkpt lat="42.50951930364709" lon="13.408047741843484"><ele>1084.0</ele><time>2026-05-03T13:08:23Z</time></trkpt><trkpt lat="42.50931104141141" lon="13.407846014418107"><ele>1084.0</ele><time>2026-05-03T13:08:24Z</time></trkpt><trkpt lat="42.509105729510736" lon="13.40771953828347"><ele>1084.0</ele><time>2026-05-03T13:08:25Z</time></trkpt><trkpt lat="42.50890079909308" lon="13.407575542173184"><ele>1079.3333333333333</ele><time>2026-05-03T13:08:26Z</time></trkpt><trkpt lat="42.5087234209555" lon="13.407485646328167"><ele>1074.6666666666667</ele><time>2026-05-03T13:08:27Z</time></trkpt><trkpt lat="42.50859914123328" lon="13.407380597616726"><ele>1070.0</ele><time>2026-05-03T13:08:28Z</time></trkpt><trkpt lat="42.5085058986563" lon="13.40721131188841"><ele>1075.0</ele><time>2026-05-03T13:08:29Z</time></trkpt><trkpt lat="42.50845494476864" lon="13.406938360047151"><ele>1080.0</ele><time>2026-05-03T13:08:30Z</time></trkpt><trkpt lat="42.508401876066536" lon="13.406664576966692"><ele>1085.0</ele><time>2026-05-03T13:08:31Z</time></trkpt><trkpt lat="42.50831540299804" lon="13.406367018263824"><ele>1088.0</ele><time>2026-05-03T13:08:32Z</time></trkpt><trkpt lat="42.50823790532421" lon="13.406120885152642"><ele>1091.0</ele><time>2026-05-03T13:08:33Z</time></trkpt><trkpt lat="42.50821368680077" lon="13.405909245744024"><ele>1094.0</ele><time>2026-05-03T13:08:34Z</time></trkpt><trkpt lat="42.50824269689206" lon="13.40562551212269"><ele>1098.6666666666667</ele><time>2026-05-03T13:08:35Z</time></trkpt><trkpt lat="42.50828665185492" lon="13.40539109483394"><ele>1103.3333333333333</ele><time>2026-05-03T13:08:36Z</time></trkpt><trkpt lat="42.508276527954024" lon="13.405151540782919"><ele>1108.0</ele><time>2026-05-03T13:08:37Z</time></trkpt><trkpt lat="42.50818689606097" lon="13.40490736676489"><ele>1118.5</ele><time>2026-05-03T13:08:38Z</time></trkpt><trkpt lat="42.50803944026594" lon="13.404620448701177"><ele>1129.0</ele><time>2026-05-03T13:08:39Z</time></trkpt><trkpt lat="42.507890630973996" lon="13.40440320113058"><ele>1115.0</ele><time>2026-05-03T13:08:40Z</time></trkpt><trkpt lat="42.507767439116265" lon="13.40419329891383"><ele>1101.0</ele><time>2026-05-03T13:08:41Z</time></trkpt><trkpt lat="42.50771355336575" lon="13.403956955187732"><ele>1087.0</ele><time>2026-05-03T13:08:42Z</time></trkpt><trkpt lat="42.50769804464318" lon="13.403649092122773"><ele>1087.0</ele><time>2026-05-03T13:08:43Z</time></trkpt><trkpt lat="42.50767533725876" lon="13.403346134854733"><ele>1087.0</ele><time>2026-05-03T13:08:44Z</time></trkpt><trkpt lat="42.507655058623115" lon="13.403077060168584"><ele>1087.0</ele><time>2026-05-03T13:08:45Z</time></trkpt><trkpt lat="42.507632683766865" lon="13.402868946479385"><ele>1091.6666666666665</ele><time>2026-05-03T13:08:45.999Z</time></trkpt><trkpt lat="42.50757257393448" lon="13.402700638723108"><ele>1096.3333333333333</ele><time>2026-05-03T13:08:46.999Z</time></trkpt><trkpt lat="42.50746675653593" lon="13.402568037793397"><ele>1101.0</ele><time>2026-05-03T13:08:47.999Z</time></trkpt><trkpt lat="42.507295135843606" lon="13.402441885501656"><ele>1093.0</ele><time>2026-05-03T13:08:48.999Z</time></trkpt><trkpt lat="42.507069383053" lon="13.402317621259412"><ele>1085.0</ele><time>2026-05-03T13:08:49.999Z</time></trkpt><trkpt lat="42.50686491822339" lon="13.40217022790569"><ele>1108.0</ele><time>2026-05-03T13:08:50.999Z</time></trkpt><trkpt lat="42.50665976321689" lon="13.40202070382093"><ele>1131.0</ele><time>2026-05-03T13:08:51.999Z</time></trkpt><trkpt lat="42.506424527559304" lon="13.401849193563164"><ele>1113.5</ele><time>2026-05-03T13:08:52.999Z</time></trkpt><trkpt lat="42.50621894267893" lon="13.401698694664969"><ele>1096.0</ele><time>2026-05-03T13:08:53.999Z</time></trkpt><trkpt lat="42.5060077065784" lon="13.401525208422266"><ele>1096.0</ele><time>2026-05-03T13:08:54.999Z</time></trkpt><trkpt lat="42.50579082322272" lon="13.401384573089885"><ele>1096.0</ele><time>2026-05-03T13:08:55.999Z</time></trkpt><trkpt lat="42.50560641268313" lon="13.401255978135708"><ele>1096.0</ele><time>2026-05-03T13:08:56.999Z</time></trkpt><trkpt lat="42.505432549206404" lon="13.401169232274176"><ele>1098.3333333333333</ele><time>2026-05-03T13:08:57.999Z</time></trkpt><trkpt lat="42.505278347062365" lon="13.40104633323342"><ele>1100.6666666666667</ele><time>2026-05-03T13:08:58.999Z</time></trkpt><trkpt lat="42.50510488090385" lon="13.400920654859576"><ele>1103.0</ele><time>2026-05-03T13:08:59.999Z</time></trkpt><trkpt lat="42.504950801705704" lon="13.400804909519504"><ele>1103.0</ele><time>2026-05-03T13:09:00.999Z</time></trkpt><trkpt lat="42.50479765482562" lon="13.400709297902129"><ele>1103.0</ele><time>2026-05-03T13:09:01.999Z</time></trkpt><trkpt lat="42.50465921933607" lon="13.400598056925109"><ele>1103.0</ele><time>2026-05-03T13:09:02.999Z</time></trkpt><trkpt lat="42.50457749037338" lon="13.40041845217407"><ele>1100.0</ele><time>2026-05-03T13:09:03.999Z</time></trkpt><trkpt lat="42.50451244950335" lon="13.400160870072208"><ele>1097.0</ele><time>2026-05-03T13:09:04.999Z</time></trkpt><trkpt lat="42.504438407805615" lon="13.399897830523583"><ele>1094.0</ele><time>2026-05-03T13:09:05.999Z</time></trkpt><trkpt lat="42.50433313922675" lon="13.399542938301737"><ele>1105.0</ele><time>2026-05-03T13:09:06.999Z</time></trkpt><trkpt lat="42.50421545103581" lon="13.399230666061312"><ele>1116.0</ele><time>2026-05-03T13:09:08.001Z</time></trkpt><trkpt lat="42.504032229044135" lon="13.3989449131052"><ele>1115.0</ele><time>2026-05-03T13:09:09.001Z</time></trkpt><trkpt lat="42.5038051919516" lon="13.398691358982425"><ele>1114.0</ele><time>2026-05-03T13:09:10.001Z</time></trkpt><trkpt lat="42.50358808860692" lon="13.398475736293433"><ele>1114.0</ele><time>2026-05-03T13:09:11.001Z</time></trkpt><trkpt lat="42.50337962206412" lon="13.398267211983134"><ele>1114.0</ele><time>2026-05-03T13:09:12.001Z</time></trkpt><trkpt lat="42.50316244595889" lon="13.398091083629097"><ele>1112.6666666666665</ele><time>2026-05-03T13:09:13.001Z</time></trkpt><trkpt lat="42.502998589540866" lon="13.397901696711926"><ele>1111.3333333333333</ele><time>2026-05-03T13:09:14.001Z</time></trkpt><trkpt lat="42.50285897577295" lon="13.397774701406046"><ele>1110.0</ele><time>2026-05-03T13:09:15.001Z</time></trkpt><trkpt lat="42.502696354278726" lon="13.397630665252752"><ele>1110.0</ele><time>2026-05-03T13:09:16.001Z</time></trkpt><trkpt lat="42.502645033685575" lon="13.397487229254292"><ele>1110.0</ele><time>2026-05-03T13:09:17.001Z</time></trkpt><trkpt lat="42.502610574538" lon="13.397280146174172"><ele>1110.0</ele><time>2026-05-03T13:09:18.001Z</time></trkpt><trkpt lat="42.50256481683047" lon="13.396981423785968"><ele>1113.0</ele><time>2026-05-03T13:09:19.001Z</time></trkpt><trkpt lat="42.502522934077604" lon="13.396687741723813"><ele>1116.0</ele><time>2026-05-03T13:09:20.001Z</time></trkpt><trkpt lat="42.502454119937426" lon="13.396329001861533"><ele>1120.3333333333333</ele><time>2026-05-03T13:09:21.001Z</time></trkpt><trkpt lat="42.50245906094395" lon="13.39607927766748"><ele>1124.6666666666665</ele><time>2026-05-03T13:09:22.001Z</time></trkpt><trkpt lat="42.502440088379586" lon="13.395776181118043"><ele>1129.0</ele><time>2026-05-03T13:09:23Z</time></trkpt><trkpt lat="42.50240180866581" lon="13.395489280315932"><ele>1132.5</ele><time>2026-05-03T13:09:24Z</time></trkpt><trkpt lat="42.502319728133386" lon="13.39520367435693"><ele>1136.0</ele><time>2026-05-03T13:09:25Z</time></trkpt><trkpt lat="42.50220120374841" lon="13.394925956453234"><ele>1138.6666666666667</ele><time>2026-05-03T13:09:26Z</time></trkpt><trkpt lat="42.50211248320766" lon="13.394618401047051"><ele>1141.3333333333333</ele><time>2026-05-03T13:09:27Z</time></trkpt><trkpt lat="42.50208507022229" lon="13.394379569651626"><ele>1144.0</ele><time>2026-05-03T13:09:28Z</time></trkpt><trkpt lat="42.50203929836839" lon="13.394193946173335"><ele>1139.6666666666665</ele><time>2026-05-03T13:09:29Z</time></trkpt><trkpt lat="42.501944058115726" lon="13.394002367242537"><ele>1135.3333333333333</ele><time>2026-05-03T13:09:30Z</time></trkpt><trkpt lat="42.50181991768132" lon="13.393786145279417"><ele>1131.0</ele><time>2026-05-03T13:09:31Z</time></trkpt><trkpt lat="42.50165505501142" lon="13.39358737938681"><ele>1131.0</ele><time>2026-05-03T13:09:32Z</time></trkpt><trkpt lat="42.501508970203" lon="13.393407746159339"><ele>1131.0</ele><time>2026-05-03T13:09:33Z</time></trkpt><trkpt lat="42.50133278610431" lon="13.39332448523664"><ele>1131.0</ele><time>2026-05-03T13:09:34Z</time></trkpt><trkpt lat="42.50115230610331" lon="13.393240555982336"><ele>1126.3999999999999</ele><time>2026-05-03T13:09:35Z</time></trkpt><trkpt lat="42.50102479184049" lon="13.393134571663404"><ele>1121.8</ele><time>2026-05-03T13:09:36Z</time></trkpt><trkpt lat="42.500982827824245" lon="13.393052105511364"><ele>1117.1999999999998</ele><time>2026-05-03T13:09:37Z</time></trkpt><trkpt lat="42.5009741435637" lon="13.392889472009944"><ele>1112.6</ele><time>2026-05-03T13:09:38Z</time></trkpt><trkpt lat="42.50100169754205" lon="13.392773116773789"><ele>1108.0</ele><time>2026-05-03T13:09:39Z</time></trkpt><trkpt lat="42.50099642651235" lon="13.392662381614695"><ele>1108.0</ele><time>2026-05-03T13:09:40Z</time></trkpt><trkpt lat="42.50097659679791" lon="13.392561891276031"><ele>1108.0</ele><time>2026-05-03T13:09:43Z</time></trkpt><trkpt lat="42.50091993859592" lon="13.392486872059992"><ele>1108.0</ele><time>2026-05-03T13:10:10Z</time></trkpt><trkpt lat="42.50091016658073" lon="13.39237223264053"><ele>1108.0</ele><time>2026-05-03T13:10:11Z</time></trkpt><trkpt lat="42.50089216497268" lon="13.39225691825124"><ele>1108.0</ele><time>2026-05-03T13:10:12Z</time></trkpt><trkpt lat="42.50090035502772" lon="13.392121287094376"><ele>1108.0</ele><time>2026-05-03T13:10:13Z</time></trkpt><trkpt lat="42.50088945039876" lon="13.392004897627626"><ele>1108.2</ele><time>2026-05-03T13:10:14Z</time></trkpt><trkpt lat="42.50087876745231" lon="13.39189087426412"><ele>1108.4</ele><time>2026-05-03T13:10:15Z</time></trkpt><trkpt lat="42.50086866011657" lon="13.391782994618982"><ele>1108.6000000000001</ele><time>2026-05-03T13:10:16Z</time></trkpt><trkpt lat="42.50074553181751" lon="13.391694582919088"><ele>1108.8</ele><time>2026-05-03T13:10:17Z</time></trkpt><trkpt lat="42.50069253086555" lon="13.391596110333841"><ele>1109.0</ele><time>2026-05-03T13:10:18Z</time></trkpt><trkpt lat="42.500629056317315" lon="13.391500439340177"><ele>1109.0</ele><time>2026-05-03T13:10:19Z</time></trkpt><trkpt lat="42.50055296895683" lon="13.391414451638028"><ele>1109.0</ele><time>2026-05-03T13:10:20Z</time></trkpt><trkpt lat="42.50046635310253" lon="13.39133555673159"><ele>1109.0</ele><time>2026-05-03T13:10:21Z</time></trkpt><trkpt lat="42.50036985009205" lon="13.39125358247129"><ele>1109.0</ele><time>2026-05-03T13:10:22Z</time></trkpt><trkpt lat="42.5002680596743" lon="13.39115806290891"><ele>1109.0</ele><time>2026-05-03T13:10:23Z</time></trkpt><trkpt lat="42.500155996478256" lon="13.39106680839833"><ele>1111.25</ele><time>2026-05-03T13:10:24Z</time></trkpt><trkpt lat="42.50001528692355" lon="13.391013305393296"><ele>1113.5</ele><time>2026-05-03T13:10:25Z</time></trkpt><trkpt lat="42.49988029944118" lon="13.390941809590352"><ele>1115.75</ele><time>2026-05-03T13:10:26Z</time></trkpt><trkpt lat="42.499759937790245" lon="13.390843307135512"><ele>1118.0</ele><time>2026-05-03T13:10:27Z</time></trkpt><trkpt lat="42.499639558476225" lon="13.390751376783994"><ele>1117.5</ele><time>2026-05-03T13:10:28Z</time></trkpt><trkpt lat="42.49954501102368" lon="13.390623072250005"><ele>1117.0</ele><time>2026-05-03T13:10:29Z</time></trkpt><trkpt lat="42.499451708278386" lon="13.390498202723844"><ele>1116.5</ele><time>2026-05-03T13:10:30Z</time></trkpt><trkpt lat="42.499370505587706" lon="13.390349984897714"><ele>1116.0</ele><time>2026-05-03T13:10:31Z</time></trkpt><trkpt lat="42.49929615049657" lon="13.390189968372349"><ele>1116.0</ele><time>2026-05-03T13:10:32Z</time></trkpt><trkpt lat="42.49921174789178" lon="13.390048499449758"><ele>1116.0</ele><time>2026-05-03T13:10:33Z</time></trkpt><trkpt lat="42.49913585149132" lon="13.389878635934103"><ele>1116.0</ele><time>2026-05-03T13:10:34Z</time></trkpt><trkpt lat="42.4990579807569" lon="13.38971283431071"><ele>1116.0</ele><time>2026-05-03T13:10:35Z</time></trkpt><trkpt lat="42.49898378221211" lon="13.389539111042644"><ele>1118.75</ele><time>2026-05-03T13:10:36Z</time></trkpt><trkpt lat="42.49890377006698" lon="13.389372596870924"><ele>1121.5</ele><time>2026-05-03T13:10:37Z</time></trkpt><trkpt lat="42.498834639874374" lon="13.389204713593621"><ele>1124.25</ele><time>2026-05-03T13:10:38Z</time></trkpt><trkpt lat="42.498786056819434" lon="13.389045025245347"><ele>1127.0</ele><time>2026-05-03T13:10:39Z</time></trkpt><trkpt lat="42.49876469470923" lon="13.388873180185197"><ele>1122.5</ele><time>2026-05-03T13:10:40Z</time></trkpt><trkpt lat="42.49874688882953" lon="13.388695739522777"><ele>1118.0</ele><time>2026-05-03T13:10:41Z</time></trkpt><trkpt lat="42.498746432422486" lon="13.388506922924119"><ele>1113.5</ele><time>2026-05-03T13:10:42Z</time></trkpt><trkpt lat="42.49874610942472" lon="13.388317377551768"><ele>1109.0</ele><time>2026-05-03T13:10:43Z</time></trkpt><trkpt lat="42.49871922306274" lon="13.38813140116351"><ele>1111.6666666666667</ele><time>2026-05-03T13:10:44Z</time></trkpt><trkpt lat="42.49866662009851" lon="13.387939518543732"><ele>1114.3333333333333</ele><time>2026-05-03T13:10:44.999Z</time></trkpt><trkpt lat="42.49860194709667" lon="13.387749414344787"><ele>1117.0</ele><time>2026-05-03T13:10:45.999Z</time></trkpt><trkpt lat="42.498537682249534" lon="13.387561251342015"><ele>1117.0</ele><time>2026-05-03T13:10:46.999Z</time></trkpt><trkpt lat="42.498440886390476" lon="13.387395308181368"><ele>1117.0</ele><time>2026-05-03T13:10:47.999Z</time></trkpt><trkpt lat="42.49834162981693" lon="13.387235720955632"><ele>1117.0</ele><time>2026-05-03T13:10:48.999Z</time></trkpt><trkpt lat="42.49822118014463" lon="13.387074184016303"><ele>1116.0</ele><time>2026-05-03T13:10:49.999Z</time></trkpt><trkpt lat="42.49805649131194" lon="13.38689896647185"><ele>1115.0</ele><time>2026-05-03T13:10:50.999Z</time></trkpt><trkpt lat="42.49784534310918" lon="13.386694336549114"><ele>1115.0</ele><time>2026-05-03T13:10:51.999Z</time></trkpt><trkpt lat="42.49761745875428" lon="13.38645109320937"><ele>1115.0</ele><time>2026-05-03T13:10:52.999Z</time></trkpt><trkpt lat="42.49737138074145" lon="13.386175589235721"><ele>1117.0</ele><time>2026-05-03T13:10:53.999Z</time></trkpt><trkpt lat="42.49710577394573" lon="13.385911806086764"><ele>1119.0</ele><time>2026-05-03T13:10:54.999Z</time></trkpt><trkpt lat="42.49684693444597" lon="13.385692220633715"><ele>1131.5</ele><time>2026-05-03T13:10:55.999Z</time></trkpt><trkpt lat="42.496625762394864" lon="13.385495057638686"><ele>1144.0</ele><time>2026-05-03T13:10:56.999Z</time></trkpt><trkpt lat="42.49642616382105" lon="13.385329167592753"><ele>1139.0</ele><time>2026-05-03T13:10:57.999Z</time></trkpt><trkpt lat="42.49623170364092" lon="13.385210841113665"><ele>1134.0</ele><time>2026-05-03T13:10:58.999Z</time></trkpt><trkpt lat="42.495997889561515" lon="13.385128512852333"><ele>1134.0</ele><time>2026-05-03T13:10:59.999Z</time></trkpt><trkpt lat="42.49572816788169" lon="13.385087362755636"><ele>1134.0</ele><time>2026-05-03T13:11:00.999Z</time></trkpt><trkpt lat="42.49545551413799" lon="13.385095561348626"><ele>1133.0</ele><time>2026-05-03T13:11:01.999Z</time></trkpt><trkpt lat="42.49524084217043" lon="13.385099262496556"><ele>1132.0</ele><time>2026-05-03T13:11:02.999Z</time></trkpt><trkpt lat="42.4950873912203" lon="13.385140515778572"><ele>1131.0</ele><time>2026-05-03T13:11:03.999Z</time></trkpt><trkpt lat="42.49493224216168" lon="13.385126856239047"><ele>1131.0</ele><time>2026-05-03T13:11:04.999Z</time></trkpt><trkpt lat="42.49479776916849" lon="13.385050275990706"><ele>1131.0</ele><time>2026-05-03T13:11:05.999Z</time></trkpt><trkpt lat="42.494693066544635" lon="13.384895598452905"><ele>1131.0</ele><time>2026-05-03T13:11:06.999Z</time></trkpt><trkpt lat="42.494628073017815" lon="13.384705634856385"><ele>1134.0</ele><time>2026-05-03T13:11:07.999Z</time></trkpt><trkpt lat="42.49461061588251" lon="13.384468430445875"><ele>1137.0</ele><time>2026-05-03T13:11:08.999Z</time></trkpt><trkpt lat="42.4946174933003" lon="13.38418442739258"><ele>1140.0</ele><time>2026-05-03T13:11:09.999Z</time></trkpt><trkpt lat="42.49468954002694" lon="13.383856602698229"><ele>1141.0</ele><time>2026-05-03T13:11:10.999Z</time></trkpt><trkpt lat="42.494775815058034" lon="13.383497775226623"><ele>1142.0</ele><time>2026-05-03T13:11:11.999Z</time></trkpt><trkpt lat="42.494834747397135" lon="13.383141769712037"><ele>1143.0</ele><time>2026-05-03T13:11:13Z</time></trkpt><trkpt lat="42.49486531807068" lon="13.3828019860139"><ele>1144.0</ele><time>2026-05-03T13:11:14Z</time></trkpt><trkpt lat="42.49485379783577" lon="13.38251914708736"><ele>1144.0</ele><time>2026-05-03T13:11:15Z</time></trkpt><trkpt lat="42.494829410641586" lon="13.382230929440897"><ele>1144.0</ele><time>2026-05-03T13:11:16Z</time></trkpt><trkpt lat="42.4947556598091" lon="13.381932672762247"><ele>1144.0</ele><time>2026-05-03T13:11:17Z</time></trkpt><trkpt lat="42.49461531344854" lon="13.381581969364577"><ele>1140.5</ele><time>2026-05-03T13:11:18Z</time></trkpt><trkpt lat="42.494482471249874" lon="13.381224576767664"><ele>1137.0</ele><time>2026-05-03T13:11:19Z</time></trkpt><trkpt lat="42.494360286342946" lon="13.3809214530452"><ele>1137.0</ele><time>2026-05-03T13:11:20Z</time></trkpt><trkpt lat="42.49420549051034" lon="13.380675032948087"><ele>1137.0</ele><time>2026-05-03T13:11:21Z</time></trkpt><trkpt lat="42.494065201275184" lon="13.380391493308046"><ele>1140.0</ele><time>2026-05-03T13:11:22Z</time></trkpt><trkpt lat="42.49395166395852" lon="13.380028103155409"><ele>1143.0</ele><time>2026-05-03T13:11:23Z</time></trkpt><trkpt lat="42.493844020359695" lon="13.379608671293644"><ele>1140.5</ele><time>2026-05-03T13:11:24Z</time></trkpt><trkpt lat="42.4937446158225" lon="13.379167638402956"><ele>1138.0</ele><time>2026-05-03T13:11:25Z</time></trkpt><trkpt lat="42.493666109889354" lon="13.378696962595479"><ele>1138.0</ele><time>2026-05-03T13:11:26Z</time></trkpt><trkpt lat="42.49359508850329" lon="13.378249906518667"><ele>1138.0</ele><time>2026-05-03T13:11:27Z</time></trkpt><trkpt lat="42.49352719721082" lon="13.37782746197664"><ele>1139.0</ele><time>2026-05-03T13:11:28Z</time></trkpt><trkpt lat="42.493493718379064" lon="13.377426373433172"><ele>1140.0</ele><time>2026-05-03T13:11:29Z</time></trkpt><trkpt lat="42.493413588063206" lon="13.377067870114448"><ele>1143.0</ele><time>2026-05-03T13:11:30Z</time></trkpt><trkpt lat="42.49332056499074" lon="13.376739789904166"><ele>1146.0</ele><time>2026-05-03T13:11:31Z</time></trkpt><trkpt lat="42.493211221030556" lon="13.376468146696814"><ele>1146.6666666666667</ele><time>2026-05-03T13:11:32Z</time></trkpt><trkpt lat="42.493119851428425" lon="13.376199237922192"><ele>1147.3333333333335</ele><time>2026-05-03T13:11:33Z</time></trkpt><trkpt lat="42.49306005371771" lon="13.37590078305127"><ele>1148.0</ele><time>2026-05-03T13:11:34Z</time></trkpt><trkpt lat="42.49303572792112" lon="13.375531178120173"><ele>1146.0</ele><time>2026-05-03T13:11:35Z</time></trkpt><trkpt lat="42.493059299212284" lon="13.375112317112265"><ele>1144.0</ele><time>2026-05-03T13:11:36Z</time></trkpt><trkpt lat="42.493073705102276" lon="13.374733206181046"><ele>1143.5</ele><time>2026-05-03T13:11:37Z</time></trkpt><trkpt lat="42.49307572821059" lon="13.374413341738686"><ele>1143.0</ele><time>2026-05-03T13:11:38Z</time></trkpt><trkpt lat="42.493092852682686" lon="13.37410238970295"><ele>1142.0</ele><time>2026-05-03T13:11:39Z</time></trkpt><trkpt lat="42.49316017922643" lon="13.37376829389034"><ele>1141.0</ele><time>2026-05-03T13:11:40Z</time></trkpt><trkpt lat="42.49327839434691" lon="13.373399205086324"><ele>1141.5</ele><time>2026-05-03T13:11:41Z</time></trkpt><trkpt lat="42.4934176826786" lon="13.373017046462996"><ele>1142.0</ele><time>2026-05-03T13:11:42Z</time></trkpt><trkpt lat="42.49353846747971" lon="13.372648346150918"><ele>1142.0</ele><time>2026-05-03T13:11:43Z</time></trkpt><trkpt lat="42.49365237012801" lon="13.372289035421439"><ele>1142.0</ele><time>2026-05-03T13:11:44Z</time></trkpt><trkpt lat="42.493756089048276" lon="13.37196953311845"><ele>1144.0</ele><time>2026-05-03T13:11:45Z</time></trkpt><trkpt lat="42.493847540377594" lon="13.371668249381644"><ele>1146.0</ele><time>2026-05-03T13:11:46Z</time></trkpt><trkpt lat="42.49393146028264" lon="13.371393531157352"><ele>1145.6666666666667</ele><time>2026-05-03T13:11:47Z</time></trkpt><trkpt lat="42.49399191810694" lon="13.371115170008188"><ele>1145.3333333333335</ele><time>2026-05-03T13:11:48Z</time></trkpt><trkpt lat="42.49400277238836" lon="13.370834955387277"><ele>1145.0</ele><time>2026-05-03T13:11:49Z</time></trkpt><trkpt lat="42.493956066026236" lon="13.370582792848557"><ele>1145.0</ele><time>2026-05-03T13:11:50Z</time></trkpt><trkpt lat="42.49386206789889" lon="13.37033783101036"><ele>1145.0</ele><time>2026-05-03T13:11:51Z</time></trkpt><trkpt lat="42.49371077870318" lon="13.370068992729921"><ele>1145.0</ele><time>2026-05-03T13:11:52Z</time></trkpt><trkpt lat="42.49352100078893" lon="13.36978323055622"><ele>1145.0</ele><time>2026-05-03T13:11:53Z</time></trkpt><trkpt lat="42.49331130358246" lon="13.369478271073039"><ele>1145.0</ele><time>2026-05-03T13:11:54Z</time></trkpt><trkpt lat="42.49308571915762" lon="13.369165691651752"><ele>1145.0</ele><time>2026-05-03T13:11:55Z</time></trkpt><trkpt lat="42.492848185275236" lon="13.368845622719993"><ele>1145.0</ele><time>2026-05-03T13:11:56Z</time></trkpt><trkpt lat="42.49262383587746" lon="13.368562202858532"><ele>1145.0</ele><time>2026-05-03T13:11:57Z</time></trkpt><trkpt lat="42.4924037061399" lon="13.368323652755581"><ele>1145.0</ele><time>2026-05-03T13:11:58Z</time></trkpt><trkpt lat="42.49217213776906" lon="13.36811305544184"><ele>1145.0</ele><time>2026-05-03T13:11:59Z</time></trkpt><trkpt lat="42.491900616040006" lon="13.367945233050426"><ele>1145.0</ele><time>2026-05-03T13:12:00Z</time></trkpt><trkpt lat="42.49158206476877" lon="13.3678053488371"><ele>1145.0</ele><time>2026-05-03T13:12:01Z</time></trkpt><trkpt lat="42.491234544138806" lon="13.367685116319775"><ele>1145.5</ele><time>2026-05-03T13:12:02Z</time></trkpt><trkpt lat="42.49089145576058" lon="13.367562161859444"><ele>1146.0</ele><time>2026-05-03T13:12:03Z</time></trkpt><trkpt lat="42.490597463298414" lon="13.367448911004777"><ele>1148.0</ele><time>2026-05-03T13:12:04Z</time></trkpt><trkpt lat="42.49033721676459" lon="13.367339443511783"><ele>1150.0</ele><time>2026-05-03T13:12:05Z</time></trkpt><trkpt lat="42.490101917603475" lon="13.367224254447054"><ele>1154.0</ele><time>2026-05-03T13:12:06Z</time></trkpt><trkpt lat="42.489881304865875" lon="13.367095681164955"><ele>1158.0</ele><time>2026-05-03T13:12:07Z</time></trkpt><trkpt lat="42.48966347544037" lon="13.366913934689114"><ele>1157.5</ele><time>2026-05-03T13:12:08Z</time></trkpt><trkpt lat="42.48942865019259" lon="13.366660589511874"><ele>1157.0</ele><time>2026-05-03T13:12:09Z</time></trkpt><trkpt lat="42.48918765884453" lon="13.366359497836765"><ele>1157.0</ele><time>2026-05-03T13:12:10Z</time></trkpt><trkpt lat="42.488945680957094" lon="13.366034331977431"><ele>1157.0</ele><time>2026-05-03T13:12:11Z</time></trkpt><trkpt lat="42.488698186759244" lon="13.36570381181296"><ele>1156.5</ele><time>2026-05-03T13:12:12Z</time></trkpt><trkpt lat="42.48843228594886" lon="13.365380706789905"><ele>1156.0</ele><time>2026-05-03T13:12:13Z</time></trkpt><trkpt lat="42.488200245801195" lon="13.365094934196435"><ele>1156.0</ele><time>2026-05-03T13:12:14Z</time></trkpt><trkpt lat="42.488002438400216" lon="13.364835528653922"><ele>1156.0</ele><time>2026-05-03T13:12:15Z</time></trkpt><trkpt lat="42.48779001146914" lon="13.36459044674976"><ele>1156.5</ele><time>2026-05-03T13:12:16Z</time></trkpt><trkpt lat="42.487670992328" lon="13.364426673594162"><ele>1157.0</ele><time>2026-05-03T13:12:17Z</time></trkpt><trkpt lat="42.48745640827892" lon="13.364127817802453"><ele>1157.0</ele><time>2026-05-03T13:12:18Z</time></trkpt><trkpt lat="42.48731281060017" lon="13.364187047252814"><ele>1157.0</ele><time>2026-05-03T13:12:19Z</time></trkpt><trkpt lat="42.487046586751156" lon="13.36413517592585"><ele>1157.0</ele><time>2026-05-03T13:12:20Z</time></trkpt><trkpt lat="42.48678601305912" lon="13.364088899655307"><ele>1159.0</ele><time>2026-05-03T13:12:21Z</time></trkpt><trkpt lat="42.486548864953086" lon="13.364079304037075"><ele>1161.0</ele><time>2026-05-03T13:12:22Z</time></trkpt><trkpt lat="42.4863651337109" lon="13.364120325608747"><ele>1163.0</ele><time>2026-05-03T13:12:23Z</time></trkpt><trkpt lat="42.48614635340224" lon="13.364186187007789"><ele>1167.0</ele><time>2026-05-03T13:12:24Z</time></trkpt><trkpt lat="42.48586818267612" lon="13.364292927384634"><ele>1171.0</ele><time>2026-05-03T13:12:25Z</time></trkpt><trkpt lat="42.485604159625034" lon="13.364388869375736"><ele>1173.5</ele><time>2026-05-03T13:12:26Z</time></trkpt><trkpt lat="42.48533463886198" lon="13.364455612024885"><ele>1176.0</ele><time>2026-05-03T13:12:27Z</time></trkpt><trkpt lat="42.485107005846444" lon="13.364517055471916"><ele>1176.0</ele><time>2026-05-03T13:12:28Z</time></trkpt><trkpt lat="42.48494860278939" lon="13.364572504195838"><ele>1176.0</ele><time>2026-05-03T13:12:29Z</time></trkpt><trkpt lat="42.484751938177176" lon="13.364593749486538"><ele>1176.0</ele><time>2026-05-03T13:12:30Z</time></trkpt><trkpt lat="42.484559371326405" lon="13.364570349234434"><ele>1179.0</ele><time>2026-05-03T13:12:31Z</time></trkpt><trkpt lat="42.484374550058334" lon="13.364521996428252"><ele>1182.0</ele><time>2026-05-03T13:12:32Z</time></trkpt><trkpt lat="42.48419955340694" lon="13.364447345620173"><ele>1185.0</ele><time>2026-05-03T13:12:33Z</time></trkpt><trkpt lat="42.48407026163561" lon="13.364375547728978"><ele>1185.0</ele><time>2026-05-03T13:12:34Z</time></trkpt><trkpt lat="42.483919420264975" lon="13.364296145968146"><ele>1185.0</ele><time>2026-05-03T13:12:35Z</time></trkpt><trkpt lat="42.483769758967604" lon="13.364197850223942"><ele>1185.0</ele><time>2026-05-03T13:12:36Z</time></trkpt><trkpt lat="42.483620752570864" lon="13.364088220566689"><ele>1184.0</ele><time>2026-05-03T13:12:37Z</time></trkpt><trkpt lat="42.483491615785674" lon="13.36396185558004"><ele>1183.0</ele><time>2026-05-03T13:12:38Z</time></trkpt><trkpt lat="42.48339993896785" lon="13.363818483866035"><ele>1182.0</ele><time>2026-05-03T13:12:39Z</time></trkpt><trkpt lat="42.483321502540655" lon="13.363683835693362"><ele>1181.0</ele><time>2026-05-03T13:12:40Z</time></trkpt><trkpt lat="42.48324235589438" lon="13.36354629098472"><ele>1184.3333333333335</ele><time>2026-05-03T13:12:41Z</time></trkpt><trkpt lat="42.4831506133397" lon="13.363378370613157"><ele>1187.6666666666667</ele><time>2026-05-03T13:12:42Z</time></trkpt><trkpt lat="42.483055523191865" lon="13.363157084530071"><ele>1191.0</ele><time>2026-05-03T13:12:43Z</time></trkpt><trkpt lat="42.48297709255187" lon="13.362886418292776"><ele>1192.0</ele><time>2026-05-03T13:12:44Z</time></trkpt><trkpt lat="42.4829272554248" lon="13.362558338745504"><ele>1193.0</ele><time>2026-05-03T13:12:45Z</time></trkpt><trkpt lat="42.48289802203536" lon="13.362193189886987"><ele>1196.0</ele><time>2026-05-03T13:12:46Z</time></trkpt><trkpt lat="42.482847742840384" lon="13.361810272667137"><ele>1199.0</ele><time>2026-05-03T13:12:47Z</time></trkpt><trkpt lat="42.48278219663442" lon="13.361519291440581"><ele>1202.0</ele><time>2026-05-03T13:12:48Z</time></trkpt><trkpt lat="42.48273512107525" lon="13.361277334891078"><ele>1205.0</ele><time>2026-05-03T13:12:48.999Z</time></trkpt><trkpt lat="42.48269473553428" lon="13.361070173548235"><ele>1208.0</ele><time>2026-05-03T13:12:49.999Z</time></trkpt><trkpt lat="42.48263382252737" lon="13.36088652181158"><ele>1208.0</ele><time>2026-05-03T13:12:50.999Z</time></trkpt><trkpt lat="42.48253535354876" lon="13.360760758615385"><ele>1208.0</ele><time>2026-05-03T13:12:51.999Z</time></trkpt><trkpt lat="42.482411131345835" lon="13.360683857927627"><ele>1208.0</ele><time>2026-05-03T13:12:52.999Z</time></trkpt><trkpt lat="42.48227725948685" lon="13.36067810263283"><ele>1208.0</ele><time>2026-05-03T13:12:53.999Z</time></trkpt><trkpt lat="42.482164416225885" lon="13.360745921054411"><ele>1211.6666666666667</ele><time>2026-05-03T13:12:54.999Z</time></trkpt><trkpt lat="42.4820760551123" lon="13.360884480774052"><ele>1215.3333333333333</ele><time>2026-05-03T13:12:55.999Z</time></trkpt><trkpt lat="42.48202558637287" lon="13.361083133633901"><ele>1219.0</ele><time>2026-05-03T13:12:56.999Z</time></trkpt><trkpt lat="42.48200689401492" lon="13.36135225537011"><ele>1219.5</ele><time>2026-05-03T13:12:57.999Z</time></trkpt><trkpt lat="42.48200726596323" lon="13.361680386825745"><ele>1220.0</ele><time>2026-05-03T13:12:58.999Z</time></trkpt><trkpt lat="42.481981950807885" lon="13.36202389522951"><ele>1218.5</ele><time>2026-05-03T13:12:59.999Z</time></trkpt><trkpt lat="42.481927713472594" lon="13.362345195227098"><ele>1217.0</ele><time>2026-05-03T13:13:00.999Z</time></trkpt><trkpt lat="42.48182179045156" lon="13.362632176841768"><ele>1217.0</ele><time>2026-05-03T13:13:01.999Z</time></trkpt><trkpt lat="42.48169227924605" lon="13.36294959560635"><ele>1217.0</ele><time>2026-05-03T13:13:02.999Z</time></trkpt><trkpt lat="42.481573811842985" lon="13.36322871272945"><ele>1214.6666666666667</ele><time>2026-05-03T13:13:03.999Z</time></trkpt><trkpt lat="42.48146121108499" lon="13.36349214282136"><ele>1212.3333333333333</ele><time>2026-05-03T13:13:04.999Z</time></trkpt><trkpt lat="42.48136341695271" lon="13.363709589602218"><ele>1210.0</ele><time>2026-05-03T13:13:05.999Z</time></trkpt><trkpt lat="42.481265962181794" lon="13.363880273069917"><ele>1210.25</ele><time>2026-05-03T13:13:06.999Z</time></trkpt><trkpt lat="42.48116559418331" lon="13.363989177618263"><ele>1210.5</ele><time>2026-05-03T13:13:07.999Z</time></trkpt><trkpt lat="42.48106330769591" lon="13.364018188828544"><ele>1210.75</ele><time>2026-05-03T13:13:08.999Z</time></trkpt><trkpt lat="42.48092848330467" lon="13.363965618795604"><ele>1211.0</ele><time>2026-05-03T13:13:09.999Z</time></trkpt><trkpt lat="42.48080656583145" lon="13.3638719019166"><ele>1213.3333333333335</ele><time>2026-05-03T13:13:10.999Z</time></trkpt><trkpt lat="42.480649025266125" lon="13.363747378450658"><ele>1215.6666666666667</ele><time>2026-05-03T13:13:11.999Z</time></trkpt><trkpt lat="42.480436781443345" lon="13.363595050345483"><ele>1218.0</ele><time>2026-05-03T13:13:12.999Z</time></trkpt><trkpt lat="42.48019761036445" lon="13.363350229004245"><ele>1218.0</ele><time>2026-05-03T13:13:13.999Z</time></trkpt><trkpt lat="42.47999148999701" lon="13.363081318678399"><ele>1218.0</ele><time>2026-05-03T13:13:14.999Z</time></trkpt><trkpt lat="42.47977267663682" lon="13.3628113793225"><ele>1221.5</ele><time>2026-05-03T13:13:15.999Z</time></trkpt><trkpt lat="42.47957077651943" lon="13.362555158554764"><ele>1225.0</ele><time>2026-05-03T13:13:16.999Z</time></trkpt><trkpt lat="42.479379138810856" lon="13.362345589341832"><ele>1233.0</ele><time>2026-05-03T13:13:17.999Z</time></trkpt><trkpt lat="42.4791448084437" lon="13.36217555045973"><ele>1241.0</ele><time>2026-05-03T13:13:19Z</time></trkpt><trkpt lat="42.478863594741476" lon="13.362064752939844"><ele>1236.5</ele><time>2026-05-03T13:13:20Z</time></trkpt><trkpt lat="42.478608178352225" lon="13.36193117981873"><ele>1232.0</ele><time>2026-05-03T13:13:21Z</time></trkpt><trkpt lat="42.478375073714666" lon="13.36171450458286"><ele>1232.0</ele><time>2026-05-03T13:13:22Z</time></trkpt><trkpt lat="42.47811391818653" lon="13.361465371997673"><ele>1232.0</ele><time>2026-05-03T13:13:23Z</time></trkpt><trkpt lat="42.47785759920388" lon="13.36118141737487"><ele>1234.5</ele><time>2026-05-03T13:13:24Z</time></trkpt><trkpt lat="42.47759455944906" lon="13.36090377063032"><ele>1237.0</ele><time>2026-05-03T13:13:25Z</time></trkpt><trkpt lat="42.477304296072894" lon="13.360602875878214"><ele>1241.5</ele><time>2026-05-03T13:13:26Z</time></trkpt><trkpt lat="42.477002800680644" lon="13.360299932441695"><ele>1246.0</ele><time>2026-05-03T13:13:27Z</time></trkpt><trkpt lat="42.47670469377365" lon="13.359992459319264"><ele>1249.5</ele><time>2026-05-03T13:13:28Z</time></trkpt><trkpt lat="42.476407165921145" lon="13.359680592575488"><ele>1253.0</ele><time>2026-05-03T13:13:29Z</time></trkpt><trkpt lat="42.476129016873934" lon="13.359392264464075"><ele>1253.0</ele><time>2026-05-03T13:13:30Z</time></trkpt><trkpt lat="42.47588458087066" lon="13.359149089548037"><ele>1253.0</ele><time>2026-05-03T13:13:31Z</time></trkpt><trkpt lat="42.47563295660788" lon="13.358880345840998"><ele>1257.5</ele><time>2026-05-03T13:13:32Z</time></trkpt><trkpt lat="42.475391918234706" lon="13.35862180015662"><ele>1262.0</ele><time>2026-05-03T13:13:33Z</time></trkpt><trkpt lat="42.47519168487978" lon="13.358407654434581"><ele>1262.0</ele><time>2026-05-03T13:13:34Z</time></trkpt><trkpt lat="42.47500516886238" lon="13.358215372935025"><ele>1262.0</ele><time>2026-05-03T13:13:35Z</time></trkpt><trkpt lat="42.4748453605066" lon="13.358012759889968"><ele>1261.0</ele><time>2026-05-03T13:13:36Z</time></trkpt><trkpt lat="42.474690852368035" lon="13.357710322377693"><ele>1260.0</ele><time>2026-05-03T13:13:37Z</time></trkpt><trkpt lat="42.47452978795899" lon="13.357462115505196"><ele>1260.0</ele><time>2026-05-03T13:13:38Z</time></trkpt><trkpt lat="42.47440625483153" lon="13.357230468202376"><ele>1260.0</ele><time>2026-05-03T13:13:39Z</time></trkpt><trkpt lat="42.47426842673004" lon="13.357050039384989"><ele>1260.0</ele><time>2026-05-03T13:13:40Z</time></trkpt><trkpt lat="42.47408607604782" lon="13.35691485798763"><ele>1265.5</ele><time>2026-05-03T13:13:41Z</time></trkpt><trkpt lat="42.473856477678495" lon="13.356827392424163"><ele>1271.0</ele><time>2026-05-03T13:13:42Z</time></trkpt><trkpt lat="42.47359264381836" lon="13.35675021814024"><ele>1271.0</ele><time>2026-05-03T13:13:43Z</time></trkpt><trkpt lat="42.47332354034026" lon="13.356641359250704"><ele>1271.0</ele><time>2026-05-03T13:13:44Z</time></trkpt><trkpt lat="42.473054685283714" lon="13.356497273953611"><ele>1274.5</ele><time>2026-05-03T13:13:45Z</time></trkpt><trkpt lat="42.47279162504316" lon="13.356265995232048"><ele>1278.0</ele><time>2026-05-03T13:13:46Z</time></trkpt><trkpt lat="42.472540379606166" lon="13.35597888525318"><ele>1278.0</ele><time>2026-05-03T13:13:47Z</time></trkpt><trkpt lat="42.47227797984198" lon="13.355675929993476"><ele>1278.0</ele><time>2026-05-03T13:13:48Z</time></trkpt><trkpt lat="42.47200405068529" lon="13.35536605116256"><ele>1278.5</ele><time>2026-05-03T13:13:49Z</time></trkpt><trkpt lat="42.47172072913533" lon="13.355049825158149"><ele>1279.0</ele><time>2026-05-03T13:13:50Z</time></trkpt><trkpt lat="42.47144086702947" lon="13.354740695488827"><ele>1280.5</ele><time>2026-05-03T13:13:51Z</time></trkpt><trkpt lat="42.471197189312335" lon="13.354463990480092"><ele>1282.0</ele><time>2026-05-03T13:13:52Z</time></trkpt><trkpt lat="42.47096402488014" lon="13.354205878249369"><ele>1282.0</ele><time>2026-05-03T13:13:53Z</time></trkpt><trkpt lat="42.47075377404472" lon="13.353970288777013"><ele>1282.0</ele><time>2026-05-03T13:13:54Z</time></trkpt><trkpt lat="42.470557080356116" lon="13.353760114885434"><ele>1280.6666666666665</ele><time>2026-05-03T13:13:55Z</time></trkpt><trkpt lat="42.47037624851278" lon="13.353586650683358"><ele>1279.3333333333333</ele><time>2026-05-03T13:13:56Z</time></trkpt><trkpt lat="42.4701820878869" lon="13.353445985490788"><ele>1278.0</ele><time>2026-05-03T13:13:57Z</time></trkpt><trkpt lat="42.46995669285679" lon="13.353360380583002"><ele>1278.0</ele><time>2026-05-03T13:13:58Z</time></trkpt><trkpt lat="42.469699406587665" lon="13.353347852744605"><ele>1278.0</ele><time>2026-05-03T13:13:59Z</time></trkpt><trkpt lat="42.46945624771029" lon="13.353365908468577"><ele>1281.0</ele><time>2026-05-03T13:14:00Z</time></trkpt><trkpt lat="42.46921716747611" lon="13.353409872722969"><ele>1284.0</ele><time>2026-05-03T13:14:01Z</time></trkpt><trkpt lat="42.46899915012152" lon="13.353487660443136"><ele>1284.0</ele><time>2026-05-03T13:14:02Z</time></trkpt><trkpt lat="42.46879854025155" lon="13.353560608444122"><ele>1284.0</ele><time>2026-05-03T13:14:03Z</time></trkpt><trkpt lat="42.46861984735246" lon="13.353623272396725"><ele>1284.0</ele><time>2026-05-03T13:14:04Z</time></trkpt><trkpt lat="42.46846421439955" lon="13.353731025968562"><ele>1284.6666666666667</ele><time>2026-05-03T13:14:05Z</time></trkpt><trkpt lat="42.46832344120054" lon="13.353914087682103"><ele>1285.3333333333335</ele><time>2026-05-03T13:14:06Z</time></trkpt><trkpt lat="42.46818823061333" lon="13.354171649973043"><ele>1286.0</ele><time>2026-05-03T13:14:07Z</time></trkpt><trkpt lat="42.468044942022324" lon="13.354447712874746"><ele>1288.0</ele><time>2026-05-03T13:14:08Z</time></trkpt><trkpt lat="42.46790056679102" lon="13.354687001618661"><ele>1290.0</ele><time>2026-05-03T13:14:09Z</time></trkpt><trkpt lat="42.467857013577806" lon="13.354887862285555"><ele>1292.0</ele><time>2026-05-03T13:14:10Z</time></trkpt><trkpt lat="42.46776433585342" lon="13.354962992317187"><ele>1292.0</ele><time>2026-05-03T13:14:11Z</time></trkpt><trkpt lat="42.46767726605943" lon="13.354973750767561"><ele>1292.0</ele><time>2026-05-03T13:14:12Z</time></trkpt><trkpt lat="42.46753478638379" lon="13.354973146244847"><ele>1292.0</ele><time>2026-05-03T13:14:13Z</time></trkpt><trkpt lat="42.46739167599429" lon="13.354903674747899"><ele>1292.0</ele><time>2026-05-03T13:14:14Z</time></trkpt><trkpt lat="42.46719712851079" lon="13.354803466412177"><ele>1292.0</ele><time>2026-05-03T13:14:15Z</time></trkpt><trkpt lat="42.46697091435443" lon="13.354713484525641"><ele>1292.0</ele><time>2026-05-03T13:14:16Z</time></trkpt><trkpt lat="42.46672012233662" lon="13.35470515219436"><ele>1292.0</ele><time>2026-05-03T13:14:17Z</time></trkpt><trkpt lat="42.46648724588828" lon="13.354713977391786"><ele>1292.0</ele><time>2026-05-03T13:14:18Z</time></trkpt><trkpt lat="42.46626681680743" lon="13.354798941273323"><ele>1286.5</ele><time>2026-05-03T13:14:19Z</time></trkpt><trkpt lat="42.4660403872761" lon="13.354962314614516"><ele>1281.0</ele><time>2026-05-03T13:14:20Z</time></trkpt><trkpt lat="42.46576801729395" lon="13.355174509925222"><ele>1281.0</ele><time>2026-05-03T13:14:21Z</time></trkpt><trkpt lat="42.46550992308155" lon="13.35539971342056"><ele>1281.0</ele><time>2026-05-03T13:14:22Z</time></trkpt><trkpt lat="42.46530044766612" lon="13.355601744337424"><ele>1285.6666666666667</ele><time>2026-05-03T13:14:23Z</time></trkpt><trkpt lat="42.465133050562706" lon="13.355766001460275"><ele>1290.3333333333335</ele><time>2026-05-03T13:14:24Z</time></trkpt><trkpt lat="42.46499197080406" lon="13.355884085291612"><ele>1295.0</ele><time>2026-05-03T13:14:25Z</time></trkpt><trkpt lat="42.464865061794434" lon="13.355973035493228"><ele>1295.0</ele><time>2026-05-03T13:14:26Z</time></trkpt><trkpt lat="42.46473284558687" lon="13.35602686918742"><ele>1295.0</ele><time>2026-05-03T13:14:27Z</time></trkpt><trkpt lat="42.46456275772693" lon="13.35603190456506"><ele>1295.0</ele><time>2026-05-03T13:14:28Z</time></trkpt><trkpt lat="42.46437513300033" lon="13.355988762726858"><ele>1292.3333333333335</ele><time>2026-05-03T13:14:29Z</time></trkpt><trkpt lat="42.464143297107306" lon="13.355897966522631"><ele>1289.6666666666667</ele><time>2026-05-03T13:14:30Z</time></trkpt><trkpt lat="42.463952299066484" lon="13.355857988602757"><ele>1287.0</ele><time>2026-05-03T13:14:31Z</time></trkpt><trkpt lat="42.46378964235296" lon="13.355927926176722"><ele>1283.6666666666667</ele><time>2026-05-03T13:14:32Z</time></trkpt><trkpt lat="42.46361340305419" lon="13.356095343576863"><ele>1280.3333333333335</ele><time>2026-05-03T13:14:33Z</time></trkpt><trkpt lat="42.463431274576344" lon="13.356257103840331"><ele>1277.0</ele><time>2026-05-03T13:14:34Z</time></trkpt><trkpt lat="42.46317761850575" lon="13.356391678792892"><ele>1277.6666666666667</ele><time>2026-05-03T13:14:35Z</time></trkpt><trkpt lat="42.46298008014513" lon="13.35649207632831"><ele>1278.3333333333333</ele><time>2026-05-03T13:14:36Z</time></trkpt><trkpt lat="42.462841034865804" lon="13.35661213342028"><ele>1279.0</ele><time>2026-05-03T13:14:37Z</time></trkpt><trkpt lat="42.46271434994107" lon="13.356794357816677"><ele>1279.0</ele><time>2026-05-03T13:14:38Z</time></trkpt><trkpt lat="42.46262564580573" lon="13.357035107667594"><ele>1279.0</ele><time>2026-05-03T13:14:39Z</time></trkpt><trkpt lat="42.462555849782525" lon="13.357270738705719"><ele>1279.0</ele><time>2026-05-03T13:14:40Z</time></trkpt><trkpt lat="42.46248491355654" lon="13.357477566556218"><ele>1283.75</ele><time>2026-05-03T13:14:41Z</time></trkpt><trkpt lat="42.462432156129225" lon="13.357607673783171"><ele>1288.5</ele><time>2026-05-03T13:14:42Z</time></trkpt><trkpt lat="42.462352578034924" lon="13.357758625124246"><ele>1293.25</ele><time>2026-05-03T13:14:43Z</time></trkpt><trkpt lat="42.46225168912919" lon="13.357837771117847"><ele>1298.0</ele><time>2026-05-03T13:14:44Z</time></trkpt><trkpt lat="42.46213946300881" lon="13.357844574434495"><ele>1298.25</ele><time>2026-05-03T13:14:45Z</time></trkpt><trkpt lat="42.462030453090954" lon="13.357784522660934"><ele>1298.5</ele><time>2026-05-03T13:14:46Z</time></trkpt><trkpt lat="42.46195453013915" lon="13.357635527186002"><ele>1298.75</ele><time>2026-05-03T13:14:47Z</time></trkpt><trkpt lat="42.46187416663421" lon="13.357411407105019"><ele>1299.0</ele><time>2026-05-03T13:14:48Z</time></trkpt><trkpt lat="42.46179027030759" lon="13.35723905515553"><ele>1299.0</ele><time>2026-05-03T13:14:49Z</time></trkpt><trkpt lat="42.46168674806234" lon="13.357109912412744"><ele>1299.0</ele><time>2026-05-03T13:14:50Z</time></trkpt><trkpt lat="42.46156334535665" lon="13.357081486739977"><ele>1299.0</ele><time>2026-05-03T13:14:51Z</time></trkpt><trkpt lat="42.461446905545685" lon="13.35708209723193"><ele>1299.0</ele><time>2026-05-03T13:14:51.999Z</time></trkpt><trkpt lat="42.46131697394256" lon="13.357235587458824"><ele>1299.6666666666667</ele><time>2026-05-03T13:14:52.999Z</time></trkpt><trkpt lat="42.46120581216547" lon="13.357376287281092"><ele>1300.3333333333335</ele><time>2026-05-03T13:14:53.999Z</time></trkpt><trkpt lat="42.461036854002195" lon="13.357562781654604"><ele>1301.0</ele><time>2026-05-03T13:14:54.999Z</time></trkpt><trkpt lat="42.460870155435714" lon="13.357739098977884"><ele>1301.0</ele><time>2026-05-03T13:14:55.999Z</time></trkpt><trkpt lat="42.46071346774704" lon="13.357858702447249"><ele>1301.0</ele><time>2026-05-03T13:14:56.999Z</time></trkpt><trkpt lat="42.4605637939763" lon="13.357938211378302"><ele>1301.0</ele><time>2026-05-03T13:14:57.999Z</time></trkpt><trkpt lat="42.46044633989028" lon="13.35797073246754"><ele>1306.0</ele><time>2026-05-03T13:14:58.999Z</time></trkpt><trkpt lat="42.460351787760445" lon="13.357965612180198"><ele>1311.0</ele><time>2026-05-03T13:14:59.999Z</time></trkpt><trkpt lat="42.46026283194641" lon="13.357884336919867"><ele>1316.0</ele><time>2026-05-03T13:15:00.999Z</time></trkpt><trkpt lat="42.46018041096264" lon="13.35773672429837"><ele>1321.0</ele><time>2026-05-03T13:15:01.999Z</time></trkpt><trkpt lat="42.46021061070805" lon="13.357549609780209"><ele>1321.0</ele><time>2026-05-03T13:15:02.999Z</time></trkpt><trkpt lat="42.460288460564676" lon="13.357420389084993"><ele>1321.0</ele><time>2026-05-03T13:15:03.999Z</time></trkpt><trkpt lat="42.460390652008265" lon="13.3572286220922"><ele>1321.0</ele><time>2026-05-03T13:15:04.999Z</time></trkpt><trkpt lat="42.460532786834996" lon="13.356963097942586"><ele>1309.5</ele><time>2026-05-03T13:15:05.999Z</time></trkpt><trkpt lat="42.460709267008696" lon="13.356660972286967"><ele>1298.0</ele><time>2026-05-03T13:15:06.999Z</time></trkpt><trkpt lat="42.4608224150812" lon="13.35642561631093"><ele>1299.3333333333335</ele><time>2026-05-03T13:15:07.999Z</time></trkpt><trkpt lat="42.460891729965844" lon="13.356201936281535"><ele>1300.6666666666667</ele><time>2026-05-03T13:15:08.999Z</time></trkpt><trkpt lat="42.460920681110956" lon="13.35594217602297"><ele>1302.0</ele><time>2026-05-03T13:15:09.999Z</time></trkpt><trkpt lat="42.46089624636349" lon="13.355664554593229"><ele>1300.5</ele><time>2026-05-03T13:15:10.999Z</time></trkpt><trkpt lat="42.46081694254014" lon="13.355296439271745"><ele>1299.0</ele><time>2026-05-03T13:15:11.999Z</time></trkpt><trkpt lat="42.46075899290589" lon="13.35493345415847"><ele>1296.5</ele><time>2026-05-03T13:15:12.999Z</time></trkpt><trkpt lat="42.46068406172898" lon="13.354592278939249"><ele>1294.0</ele><time>2026-05-03T13:15:13.999Z</time></trkpt><trkpt lat="42.46062492821706" lon="13.354233548804912"><ele>1294.0</ele><time>2026-05-03T13:15:14.999Z</time></trkpt><trkpt lat="42.46055263834116" lon="13.353904310086286"><ele>1294.0</ele><time>2026-05-03T13:15:15.999Z</time></trkpt><trkpt lat="42.460450342089864" lon="13.353620202828479"><ele>1298.5</ele><time>2026-05-03T13:15:16.999Z</time></trkpt><trkpt lat="42.46029668538817" lon="13.353347927338787"><ele>1303.0</ele><time>2026-05-03T13:15:17.999Z</time></trkpt><trkpt lat="42.460122194449085" lon="13.353084248471761"><ele>1303.5</ele><time>2026-05-03T13:15:18.999Z</time></trkpt><trkpt lat="42.459947218130274" lon="13.352795398098257"><ele>1304.0</ele><time>2026-05-03T13:15:19.999Z</time></trkpt><trkpt lat="42.45980003281247" lon="13.352521216171159"><ele>1304.0</ele><time>2026-05-03T13:15:20.999Z</time></trkpt><trkpt lat="42.45968210584898" lon="13.3522732132443"><ele>1304.0</ele><time>2026-05-03T13:15:21.999Z</time></trkpt><trkpt lat="42.45955817698275" lon="13.351975163223557"><ele>1301.5</ele><time>2026-05-03T13:15:22.999Z</time></trkpt><trkpt lat="42.459438728834606" lon="13.351668218125289"><ele>1299.0</ele><time>2026-05-03T13:15:23.999Z</time></trkpt><trkpt lat="42.45931078865214" lon="13.351310074925001"><ele>1299.5</ele><time>2026-05-03T13:15:25Z</time></trkpt><trkpt lat="42.45920195297638" lon="13.350901117458417"><ele>1300.0</ele><time>2026-05-03T13:15:26Z</time></trkpt><trkpt lat="42.459086893163885" lon="13.350467114429746"><ele>1300.0</ele><time>2026-05-03T13:15:27Z</time></trkpt><trkpt lat="42.45898972043291" lon="13.350083016107183"><ele>1300.0</ele><time>2026-05-03T13:15:28Z</time></trkpt><trkpt lat="42.458903359215284" lon="13.349741651610069"><ele>1302.0</ele><time>2026-05-03T13:15:29Z</time></trkpt><trkpt lat="42.458822055282404" lon="13.349420277306484"><ele>1304.0</ele><time>2026-05-03T13:15:30Z</time></trkpt><trkpt lat="42.45874903345582" lon="13.349144379339972"><ele>1300.0</ele><time>2026-05-03T13:15:31Z</time></trkpt><trkpt lat="42.45855754915815" lon="13.34893382139896"><ele>1296.0</ele><time>2026-05-03T13:15:32Z</time></trkpt><trkpt lat="42.458369157718444" lon="13.348744904582233"><ele>1296.0</ele><time>2026-05-03T13:15:33Z</time></trkpt><trkpt lat="42.45817447163033" lon="13.348582060915648"><ele>1296.0</ele><time>2026-05-03T13:15:34Z</time></trkpt><trkpt lat="42.45800557194033" lon="13.348379986096642"><ele>1290.5</ele><time>2026-05-03T13:15:35Z</time></trkpt><trkpt lat="42.457871164637325" lon="13.348075246230588"><ele>1285.0</ele><time>2026-05-03T13:15:36Z</time></trkpt><trkpt lat="42.45777140590405" lon="13.34773920006893"><ele>1285.0</ele><time>2026-05-03T13:15:37Z</time></trkpt><trkpt lat="42.457677977141145" lon="13.34745444999293"><ele>1285.0</ele><time>2026-05-03T13:15:38Z</time></trkpt><trkpt lat="42.45755366869962" lon="13.34721518021254"><ele>1285.0</ele><time>2026-05-03T13:15:39Z</time></trkpt><trkpt lat="42.457366354538436" lon="13.347019682434727"><ele>1285.5</ele><time>2026-05-03T13:15:40Z</time></trkpt><trkpt lat="42.457206619575885" lon="13.346794218785192"><ele>1286.0</ele><time>2026-05-03T13:15:41Z</time></trkpt><trkpt lat="42.45680019793427" lon="13.346780163181007"><ele>1286.0</ele><time>2026-05-03T13:15:42Z</time></trkpt><trkpt lat="42.45657241896503" lon="13.34666433928301"><ele>1286.0</ele><time>2026-05-03T13:15:43Z</time></trkpt><trkpt lat="42.45639692016257" lon="13.346565980971512"><ele>1286.0</ele><time>2026-05-03T13:15:44Z</time></trkpt><trkpt lat="42.456216886427086" lon="13.346423730760742"><ele>1283.6666666666667</ele><time>2026-05-03T13:15:45Z</time></trkpt><trkpt lat="42.45605278131301" lon="13.346239375699174"><ele>1281.3333333333333</ele><time>2026-05-03T13:15:46Z</time></trkpt><trkpt lat="42.45593676101525" lon="13.346027961045305"><ele>1279.0</ele><time>2026-05-03T13:15:47Z</time></trkpt><trkpt lat="42.45591246835096" lon="13.345857537360311"><ele>1279.0</ele><time>2026-05-03T13:15:48Z</time></trkpt><trkpt lat="42.4559004247013" lon="13.345621144874935"><ele>1279.0</ele><time>2026-05-03T13:15:49Z</time></trkpt><trkpt lat="42.45590359025535" lon="13.345274808048016"><ele>1279.0</ele><time>2026-05-03T13:15:50Z</time></trkpt><trkpt lat="42.45590076293748" lon="13.344949575969832"><ele>1276.0</ele><time>2026-05-03T13:15:51Z</time></trkpt><trkpt lat="42.455909048490454" lon="13.344635810784075"><ele>1273.0</ele><time>2026-05-03T13:15:52Z</time></trkpt><trkpt lat="42.455910487414705" lon="13.34435320553528"><ele>1270.0</ele><time>2026-05-03T13:15:53Z</time></trkpt><trkpt lat="42.4558827741576" lon="13.34408603016995"><ele>1273.0</ele><time>2026-05-03T13:15:54Z</time></trkpt><trkpt lat="42.45582703280918" lon="13.343802729460052"><ele>1276.0</ele><time>2026-05-03T13:15:55Z</time></trkpt><trkpt lat="42.455733116039596" lon="13.34354624344841"><ele>1279.0</ele><time>2026-05-03T13:15:56Z</time></trkpt><trkpt lat="42.45559415427136" lon="13.343356865518931"><ele>1273.5</ele><time>2026-05-03T13:15:57Z</time></trkpt><trkpt lat="42.45541406767775" lon="13.343228977322685"><ele>1268.0</ele><time>2026-05-03T13:15:58Z</time></trkpt><trkpt lat="42.45518184585845" lon="13.343063901175912"><ele>1277.0</ele><time>2026-05-03T13:15:59Z</time></trkpt><trkpt lat="42.45491585539893" lon="13.342886167451327"><ele>1286.0</ele><time>2026-05-03T13:16:00Z</time></trkpt><trkpt lat="42.4546359637992" lon="13.342769525265883"><ele>1279.5</ele><time>2026-05-03T13:16:01Z</time></trkpt><trkpt lat="42.454293643691685" lon="13.342665038317115"><ele>1273.0</ele><time>2026-05-03T13:16:02Z</time></trkpt><trkpt lat="42.4539743385252" lon="13.342561446843378"><ele>1267.5</ele><time>2026-05-03T13:16:03Z</time></trkpt><trkpt lat="42.453691271639315" lon="13.342460151181402"><ele>1262.0</ele><time>2026-05-03T13:16:04Z</time></trkpt><trkpt lat="42.453409415710695" lon="13.342363177089334"><ele>1262.0</ele><time>2026-05-03T13:16:05Z</time></trkpt><trkpt lat="42.45313644732238" lon="13.34228776781427"><ele>1262.0</ele><time>2026-05-03T13:16:06Z</time></trkpt><trkpt lat="42.452845157060004" lon="13.342195448145276"><ele>1263.5</ele><time>2026-05-03T13:16:07Z</time></trkpt><trkpt lat="42.45257795480023" lon="13.342105876378804"><ele>1265.0</ele><time>2026-05-03T13:16:08Z</time></trkpt><trkpt lat="42.45238982359748" lon="13.341979980909608"><ele>1265.0</ele><time>2026-05-03T13:16:09Z</time></trkpt><trkpt lat="42.45213398507601" lon="13.341920403689752"><ele>1265.0</ele><time>2026-05-03T13:16:10Z</time></trkpt><trkpt lat="42.451909075799676" lon="13.341846912241223"><ele>1261.3333333333335</ele><time>2026-05-03T13:16:11Z</time></trkpt><trkpt lat="42.45168811013784" lon="13.341805919138523"><ele>1257.6666666666667</ele><time>2026-05-03T13:16:12Z</time></trkpt><trkpt lat="42.4514765120731" lon="13.341797320914543"><ele>1254.0</ele><time>2026-05-03T13:16:13Z</time></trkpt><trkpt lat="42.45126974895611" lon="13.341831259557232"><ele>1249.6666666666667</ele><time>2026-05-03T13:16:14Z</time></trkpt><trkpt lat="42.45107316577796" lon="13.341915100799554"><ele>1245.3333333333335</ele><time>2026-05-03T13:16:15Z</time></trkpt><trkpt lat="42.45089788037939" lon="13.342023887807041"><ele>1241.0</ele><time>2026-05-03T13:16:16Z</time></trkpt><trkpt lat="42.45075434235437" lon="13.342168877147172"><ele>1241.0</ele><time>2026-05-03T13:16:17Z</time></trkpt><trkpt lat="42.45062464111744" lon="13.342333843646033"><ele>1241.0</ele><time>2026-05-03T13:16:18Z</time></trkpt><trkpt lat="42.450474662024035" lon="13.34250287299414"><ele>1241.0</ele><time>2026-05-03T13:16:19Z</time></trkpt><trkpt lat="42.450275739215314" lon="13.342615398161678"><ele>1241.0</ele><time>2026-05-03T13:16:20Z</time></trkpt><trkpt lat="42.45005400401412" lon="13.342707859135183"><ele>1241.0</ele><time>2026-05-03T13:16:21Z</time></trkpt><trkpt lat="42.44986674433084" lon="13.34279380960717"><ele>1241.0</ele><time>2026-05-03T13:16:22Z</time></trkpt><trkpt lat="42.44965805712991" lon="13.342872585933975"><ele>1236.6666666666667</ele><time>2026-05-03T13:16:23Z</time></trkpt><trkpt lat="42.44947013101197" lon="13.342954249129866"><ele>1232.3333333333333</ele><time>2026-05-03T13:16:24Z</time></trkpt><trkpt lat="42.44925155518749" lon="13.342989633852419"><ele>1228.0</ele><time>2026-05-03T13:16:25Z</time></trkpt><trkpt lat="42.449002951007145" lon="13.342991193845858"><ele>1226.0</ele><time>2026-05-03T13:16:26Z</time></trkpt><trkpt lat="42.44873648353341" lon="13.342944030363281"><ele>1224.0</ele><time>2026-05-03T13:16:27Z</time></trkpt><trkpt lat="42.448469156670306" lon="13.34290533967754"><ele>1224.0</ele><time>2026-05-03T13:16:28Z</time></trkpt><trkpt lat="42.44821950169421" lon="13.342905052808495"><ele>1224.0</ele><time>2026-05-03T13:16:29Z</time></trkpt><trkpt lat="42.44799274875692" lon="13.342857508289761"><ele>1225.6666666666667</ele><time>2026-05-03T13:16:30Z</time></trkpt><trkpt lat="42.44779201726953" lon="13.342839299678214"><ele>1227.3333333333335</ele><time>2026-05-03T13:16:31Z</time></trkpt><trkpt lat="42.44756093855571" lon="13.342800596904006"><ele>1229.0</ele><time>2026-05-03T13:16:32Z</time></trkpt><trkpt lat="42.447319981789434" lon="13.342635912220846"><ele>1233.0</ele><time>2026-05-03T13:16:33Z</time></trkpt><trkpt lat="42.44709746378321" lon="13.34248804499127"><ele>1237.0</ele><time>2026-05-03T13:16:34Z</time></trkpt><trkpt lat="42.44691722017268" lon="13.342352524463893"><ele>1237.0</ele><time>2026-05-03T13:16:35Z</time></trkpt><trkpt lat="42.44675413184712" lon="13.342221044389227"><ele>1237.0</ele><time>2026-05-03T13:16:36Z</time></trkpt><trkpt lat="42.44660394419323" lon="13.342100711578931"><ele>1237.0</ele><time>2026-05-03T13:16:37Z</time></trkpt><trkpt lat="42.44646969314748" lon="13.342001790974205"><ele>1231.25</ele><time>2026-05-03T13:16:38Z</time></trkpt><trkpt lat="42.44634308097028" lon="13.341938063207257"><ele>1225.5</ele><time>2026-05-03T13:16:39Z</time></trkpt><trkpt lat="42.446202123576285" lon="13.341912425943708"><ele>1219.75</ele><time>2026-05-03T13:16:40Z</time></trkpt><trkpt lat="42.44605663211814" lon="13.341990785148315"><ele>1214.0</ele><time>2026-05-03T13:16:41Z</time></trkpt><trkpt lat="42.44590169063564" lon="13.342157802753688"><ele>1216.6666666666667</ele><time>2026-05-03T13:16:42Z</time></trkpt><trkpt lat="42.44573658693589" lon="13.342357118668488"><ele>1219.3333333333333</ele><time>2026-05-03T13:16:43Z</time></trkpt><trkpt lat="42.44559597350375" lon="13.34253327566498"><ele>1222.0</ele><time>2026-05-03T13:16:44Z</time></trkpt><trkpt lat="42.44549292876976" lon="13.34272270939743"><ele>1211.6666666666665</ele><time>2026-05-03T13:16:45Z</time></trkpt><trkpt lat="42.44542156668592" lon="13.342971327565863"><ele>1201.3333333333333</ele><time>2026-05-03T13:16:46Z</time></trkpt><trkpt lat="42.4453744312844" lon="13.343272281730396"><ele>1191.0</ele><time>2026-05-03T13:16:47Z</time></trkpt><trkpt lat="42.44533051160333" lon="13.34363162174364"><ele>1195.0</ele><time>2026-05-03T13:16:48Z</time></trkpt><trkpt lat="42.44527394702582" lon="13.343968029779054"><ele>1199.0</ele><time>2026-05-03T13:16:49Z</time></trkpt><trkpt lat="42.445223235036224" lon="13.344248377125359"><ele>1199.0</ele><time>2026-05-03T13:16:50Z</time></trkpt><trkpt lat="42.44517461573057" lon="13.344511189663447"><ele>1199.0</ele><time>2026-05-03T13:16:51Z</time></trkpt><trkpt lat="42.445141200817076" lon="13.34476172386032"><ele>1199.0</ele><time>2026-05-03T13:16:52Z</time></trkpt><trkpt lat="42.44512578001424" lon="13.345001759175377"><ele>1199.75</ele><time>2026-05-03T13:16:53Z</time></trkpt><trkpt lat="42.44513540327874" lon="13.345212822346985"><ele>1200.5</ele><time>2026-05-03T13:16:54Z</time></trkpt><trkpt lat="42.44514335016253" lon="13.34540434577266"><ele>1201.25</ele><time>2026-05-03T13:16:54.999Z</time></trkpt><trkpt lat="42.44511926140455" lon="13.345559496363922"><ele>1202.0</ele><time>2026-05-03T13:16:55.999Z</time></trkpt><trkpt lat="42.44505949696762" lon="13.345691374054622"><ele>1202.3333333333335</ele><time>2026-05-03T13:16:56.999Z</time></trkpt><trkpt lat="42.444946725818845" lon="13.345786680347667"><ele>1202.6666666666667</ele><time>2026-05-03T13:16:57.999Z</time></trkpt><trkpt lat="42.444791744371194" lon="13.345813231278457"><ele>1203.0</ele><time>2026-05-03T13:16:58.999Z</time></trkpt><trkpt lat="42.44461493764818" lon="13.345821196878552"><ele>1203.0</ele><time>2026-05-03T13:16:59.999Z</time></trkpt><trkpt lat="42.444432537681976" lon="13.345834127419032"><ele>1203.0</ele><time>2026-05-03T13:17:00.999Z</time></trkpt><trkpt lat="42.444255343938586" lon="13.345820795692784"><ele>1203.0</ele><time>2026-05-03T13:17:01.999Z</time></trkpt><trkpt lat="42.444066808522884" lon="13.345754151757555"><ele>1203.0</ele><time>2026-05-03T13:17:02.999Z</time></trkpt><trkpt lat="42.443877070330345" lon="13.345634316454712"><ele>1203.0</ele><time>2026-05-03T13:17:03.999Z</time></trkpt><trkpt lat="42.443710734040465" lon="13.345520905763749"><ele>1203.0</ele><time>2026-05-03T13:17:04.999Z</time></trkpt><trkpt lat="42.44355160880062" lon="13.345427305338385"><ele>1195.0</ele><time>2026-05-03T13:17:05.999Z</time></trkpt><trkpt lat="42.44339564675944" lon="13.345351356065011"><ele>1187.0</ele><time>2026-05-03T13:17:06.999Z</time></trkpt><trkpt lat="42.443240369978795" lon="13.345314712874227"><ele>1179.0</ele><time>2026-05-03T13:17:07.999Z</time></trkpt><trkpt lat="42.4430738724194" lon="13.345332651392763"><ele>1183.0</ele><time>2026-05-03T13:17:08.999Z</time></trkpt><trkpt lat="42.44292708967915" lon="13.345390785120522"><ele>1187.0</ele><time>2026-05-03T13:17:09.999Z</time></trkpt><trkpt lat="42.44280956685221" lon="13.345437510834081"><ele>1191.0</ele><time>2026-05-03T13:17:10.999Z</time></trkpt><trkpt lat="42.44270132311559" lon="13.345448829195755"><ele>1195.0</ele><time>2026-05-03T13:17:11.999Z</time></trkpt><trkpt lat="42.44259824349989" lon="13.345387509526134"><ele>1195.0</ele><time>2026-05-03T13:17:12.999Z</time></trkpt><trkpt lat="42.44250901709001" lon="13.345243141335434"><ele>1195.0</ele><time>2026-05-03T13:17:13.999Z</time></trkpt><trkpt lat="42.44246597484239" lon="13.34504571146965"><ele>1195.0</ele><time>2026-05-03T13:17:14.999Z</time></trkpt><trkpt lat="42.44244266950172" lon="13.344782731601324"><ele>1192.3333333333333</ele><time>2026-05-03T13:17:15.999Z</time></trkpt><trkpt lat="42.44240178921658" lon="13.34450212361891"><ele>1189.6666666666667</ele><time>2026-05-03T13:17:16.999Z</time></trkpt><trkpt lat="42.4423644320115" lon="13.34423316993301"><ele>1187.0</ele><time>2026-05-03T13:17:17.999Z</time></trkpt><trkpt lat="42.44236200168" lon="13.344002212625158"><ele>1182.3333333333335</ele><time>2026-05-03T13:17:18.999Z</time></trkpt><trkpt lat="42.44239250688276" lon="13.343759880293284"><ele>1177.6666666666667</ele><time>2026-05-03T13:17:19.999Z</time></trkpt><trkpt lat="42.44238282951076" lon="13.343528082746912"><ele>1173.0</ele><time>2026-05-03T13:17:20.999Z</time></trkpt><trkpt lat="42.442330534635175" lon="13.343328616032181"><ele>1173.0</ele><time>2026-05-03T13:17:21.999Z</time></trkpt><trkpt lat="42.4422361469748" lon="13.343146195044357"><ele>1173.0</ele><time>2026-05-03T13:17:22.999Z</time></trkpt><trkpt lat="42.442102685268644" lon="13.342993591293059"><ele>1173.0</ele><time>2026-05-03T13:17:23.999Z</time></trkpt><trkpt lat="42.44196393190089" lon="13.342877405654596"><ele>1181.3333333333333</ele><time>2026-05-03T13:17:24.999Z</time></trkpt><trkpt lat="42.44184500438759" lon="13.342752973919412"><ele>1189.6666666666665</ele><time>2026-05-03T13:17:25.999Z</time></trkpt><trkpt lat="42.44179084089202" lon="13.342547791587743"><ele>1198.0</ele><time>2026-05-03T13:17:26.999Z</time></trkpt><trkpt lat="42.44174888337582" lon="13.34228370158391"><ele>1189.6666666666665</ele><time>2026-05-03T13:17:27.999Z</time></trkpt><trkpt lat="42.441682015144224" lon="13.342019066633162"><ele>1181.3333333333333</ele><time>2026-05-03T13:17:28.999Z</time></trkpt><trkpt lat="42.441614667132065" lon="13.341787316719412"><ele>1173.0</ele><time>2026-05-03T13:17:29.999Z</time></trkpt><trkpt lat="42.44155329675381" lon="13.341594321414926"><ele>1173.0</ele><time>2026-05-03T13:17:31Z</time></trkpt><trkpt lat="42.441503202903604" lon="13.341410648571761"><ele>1173.0</ele><time>2026-05-03T13:17:32Z</time></trkpt><trkpt lat="42.441407556568194" lon="13.34128599256029"><ele>1173.0</ele><time>2026-05-03T13:17:33Z</time></trkpt><trkpt lat="42.44127640260525" lon="13.341201793109867"><ele>1173.0</ele><time>2026-05-03T13:17:34Z</time></trkpt><trkpt lat="42.44110091081384" lon="13.341167403764954"><ele>1170.6666666666667</ele><time>2026-05-03T13:17:35Z</time></trkpt><trkpt lat="42.440933858434654" lon="13.341108220671444"><ele>1168.3333333333335</ele><time>2026-05-03T13:17:36Z</time></trkpt><trkpt lat="42.44078307746438" lon="13.34100927163047"><ele>1166.0</ele><time>2026-05-03T13:17:37Z</time></trkpt><trkpt lat="42.440639452539635" lon="13.340813911010452"><ele>1166.0</ele><time>2026-05-03T13:17:38Z</time></trkpt><trkpt lat="42.44048449387938" lon="13.34055542143414"><ele>1166.0</ele><time>2026-05-03T13:17:39Z</time></trkpt><trkpt lat="42.44034245850405" lon="13.340263485682282"><ele>1166.0</ele><time>2026-05-03T13:17:40Z</time></trkpt><trkpt lat="42.44021340999686" lon="13.340058992515232"><ele>1166.0</ele><time>2026-05-03T13:17:41Z</time></trkpt><trkpt lat="42.44010728357383" lon="13.3398653364554"><ele>1166.0</ele><time>2026-05-03T13:17:42Z</time></trkpt><trkpt lat="42.43999611777109" lon="13.33967704179271"><ele>1159.3333333333335</ele><time>2026-05-03T13:17:43Z</time></trkpt><trkpt lat="42.439865254044335" lon="13.339538863662757"><ele>1152.6666666666667</ele><time>2026-05-03T13:17:44Z</time></trkpt><trkpt lat="42.43972739429032" lon="13.339443956422"><ele>1146.0</ele><time>2026-05-03T13:17:45Z</time></trkpt><trkpt lat="42.4395885624347" lon="13.339375649514976"><ele>1147.0</ele><time>2026-05-03T13:17:46Z</time></trkpt><trkpt lat="42.439467460412686" lon="13.339356472812241"><ele>1148.0</ele><time>2026-05-03T13:17:47Z</time></trkpt><trkpt lat="42.43936472582838" lon="13.339444973968977"><ele>1149.0</ele><time>2026-05-03T13:17:48Z</time></trkpt><trkpt lat="42.43928132718789" lon="13.339585067646508"><ele>1150.0</ele><time>2026-05-03T13:17:49Z</time></trkpt><trkpt lat="42.43923199830483" lon="13.339773627307904"><ele>1150.0</ele><time>2026-05-03T13:17:50Z</time></trkpt><trkpt lat="42.439239461769276" lon="13.340003391996282"><ele>1150.0</ele><time>2026-05-03T13:17:51Z</time></trkpt><trkpt lat="42.4392445451272" lon="13.340221644714264"><ele>1150.0</ele><time>2026-05-03T13:17:52Z</time></trkpt><trkpt lat="42.43926663219914" lon="13.340427340142462"><ele>1153.0</ele><time>2026-05-03T13:17:53Z</time></trkpt><trkpt lat="42.43927762386042" lon="13.340641908024843"><ele>1156.0</ele><time>2026-05-03T13:17:54Z</time></trkpt><trkpt lat="42.439236218319564" lon="13.340746947684602"><ele>1159.0</ele><time>2026-05-03T13:17:55Z</time></trkpt><trkpt lat="42.43918171519395" lon="13.340835789933966"><ele>1162.0</ele><time>2026-05-03T13:17:56Z</time></trkpt><trkpt lat="42.43909931564683" lon="13.340773923321304"><ele>1165.0</ele><time>2026-05-03T13:17:57Z</time></trkpt><trkpt lat="42.438982133691006" lon="13.340691488186234"><ele>1165.0</ele><time>2026-05-03T13:17:59Z</time></trkpt><trkpt lat="42.43883766066203" lon="13.340614109108945"><ele>1165.0</ele><time>2026-05-03T13:18:00Z</time></trkpt><trkpt lat="42.43858530255193" lon="13.340490491649316"><ele>1165.0</ele><time>2026-05-03T13:18:01Z</time></trkpt><trkpt lat="42.43841586981846" lon="13.340355728566665"><ele>1156.6666666666665</ele><time>2026-05-03T13:18:02Z</time></trkpt><trkpt lat="42.43825291874413" lon="13.34018929407115"><ele>1148.3333333333333</ele><time>2026-05-03T13:18:03Z</time></trkpt><trkpt lat="42.43810667072707" lon="13.34000894614321"><ele>1140.0</ele><time>2026-05-03T13:18:04Z</time></trkpt><trkpt lat="42.437961149600305" lon="13.339861437809665"><ele>1138.75</ele><time>2026-05-03T13:18:05Z</time></trkpt><trkpt lat="42.43784013842738" lon="13.33977802336751"><ele>1137.5</ele><time>2026-05-03T13:18:06Z</time></trkpt><trkpt lat="42.43775259430026" lon="13.339796465432856"><ele>1136.25</ele><time>2026-05-03T13:18:07Z</time></trkpt><trkpt lat="42.43764837066197" lon="13.339903638215407"><ele>1135.0</ele><time>2026-05-03T13:18:08Z</time></trkpt><trkpt lat="42.437570552565376" lon="13.340054211530619"><ele>1135.0</ele><time>2026-05-03T13:18:09Z</time></trkpt><trkpt lat="42.43747572795905" lon="13.34025582141436"><ele>1135.0</ele><time>2026-05-03T13:18:10Z</time></trkpt><trkpt lat="42.437485955358376" lon="13.340463411314879"><ele>1135.0</ele><time>2026-05-03T13:18:11Z</time></trkpt><trkpt lat="42.437528422641634" lon="13.340645463034821"><ele>1133.0</ele><time>2026-05-03T13:18:12Z</time></trkpt><trkpt lat="42.437657125716854" lon="13.340856864530018"><ele>1131.0</ele><time>2026-05-03T13:18:13Z</time></trkpt><trkpt lat="42.43776947313902" lon="13.341068874151198"><ele>1129.0</ele><time>2026-05-03T13:18:14Z</time></trkpt><trkpt lat="42.43790333493895" lon="13.341265635966636"><ele>1138.6666666666665</ele><time>2026-05-03T13:18:15Z</time></trkpt><trkpt lat="42.43801261993119" lon="13.341467858381108"><ele>1148.3333333333333</ele><time>2026-05-03T13:18:16Z</time></trkpt><trkpt lat="42.43807361565057" lon="13.341647666063633"><ele>1158.0</ele><time>2026-05-03T13:18:17Z</time></trkpt><trkpt lat="42.4380992030234" lon="13.341841904780598"><ele>1158.0</ele><time>2026-05-03T13:18:18Z</time></trkpt><trkpt lat="42.43810333492051" lon="13.342002069631507"><ele>1158.0</ele><time>2026-05-03T13:18:19Z</time></trkpt><trkpt lat="42.43808140096041" lon="13.342151232524051"><ele>1158.0</ele><time>2026-05-03T13:18:20Z</time></trkpt><trkpt lat="42.43803746425574" lon="13.342281718528458"><ele>1158.0</ele><time>2026-05-03T13:18:21Z</time></trkpt><trkpt lat="42.437940199009184" lon="13.342379262773472"><ele>1145.75</ele><time>2026-05-03T13:18:22Z</time></trkpt><trkpt lat="42.437785601700085" lon="13.34240772855056"><ele>1133.5</ele><time>2026-05-03T13:18:23Z</time></trkpt><trkpt lat="42.4376791467475" lon="13.342499079974193"><ele>1121.25</ele><time>2026-05-03T13:18:24Z</time></trkpt><trkpt lat="42.4375591757392" lon="13.342605631409718"><ele>1109.0</ele><time>2026-05-03T13:18:25Z</time></trkpt><trkpt lat="42.437512881871676" lon="13.342745255731746"><ele>1109.0</ele><time>2026-05-03T13:18:26Z</time></trkpt><trkpt lat="42.43752424840509" lon="13.342945405586887"><ele>1109.0</ele><time>2026-05-03T13:18:27Z</time></trkpt><trkpt lat="42.437578083207384" lon="13.343203792178944"><ele>1109.0</ele><time>2026-05-03T13:18:28Z</time></trkpt><trkpt lat="42.437629342645586" lon="13.343481385387557"><ele>1111.3333333333335</ele><time>2026-05-03T13:18:29Z</time></trkpt><trkpt lat="42.437597133063186" lon="13.34374156563262"><ele>1113.6666666666667</ele><time>2026-05-03T13:18:30Z</time></trkpt><trkpt lat="42.43756391066637" lon="13.343978508216127"><ele>1116.0</ele><time>2026-05-03T13:18:31Z</time></trkpt><trkpt lat="42.43755927377481" lon="13.34420673163048"><ele>1116.0</ele><time>2026-05-03T13:18:32Z</time></trkpt><trkpt lat="42.43758741546624" lon="13.344442174760443"><ele>1116.0</ele><time>2026-05-03T13:18:33Z</time></trkpt><trkpt lat="42.43764255820574" lon="13.34466659582031"><ele>1116.0</ele><time>2026-05-03T13:18:34Z</time></trkpt><trkpt lat="42.43768843365978" lon="13.344895072517847"><ele>1114.0</ele><time>2026-05-03T13:18:35Z</time></trkpt><trkpt lat="42.43775130375681" lon="13.345133250159652"><ele>1112.0</ele><time>2026-05-03T13:18:36Z</time></trkpt><trkpt lat="42.43782440394522" lon="13.345337940622153"><ele>1110.0</ele><time>2026-05-03T13:18:37Z</time></trkpt><trkpt lat="42.43790139323692" lon="13.345551662556472"><ele>1117.6</ele><time>2026-05-03T13:18:38Z</time></trkpt><trkpt lat="42.4379791699634" lon="13.345734416777697"><ele>1125.2</ele><time>2026-05-03T13:18:39Z</time></trkpt><trkpt lat="42.43802428943869" lon="13.345870957272792"><ele>1132.8</ele><time>2026-05-03T13:18:40Z</time></trkpt><trkpt lat="42.43806318440569" lon="13.345990145140172"><ele>1140.4</ele><time>2026-05-03T13:18:41Z</time></trkpt><trkpt lat="42.43805843696289" lon="13.346091890943676"><ele>1148.0</ele><time>2026-05-03T13:18:42Z</time></trkpt><trkpt lat="42.438011708518" lon="13.346229019681118"><ele>1143.25</ele><time>2026-05-03T13:18:43Z</time></trkpt><trkpt lat="42.43791549695458" lon="13.346330192105196"><ele>1138.5</ele><time>2026-05-03T13:18:44Z</time></trkpt><trkpt lat="42.43780902709099" lon="13.346418760680585"><ele>1133.75</ele><time>2026-05-03T13:18:45Z</time></trkpt><trkpt lat="42.43768467036814" lon="13.346510394540609"><ele>1129.0</ele><time>2026-05-03T13:18:46Z</time></trkpt><trkpt lat="42.437539871204145" lon="13.346548123481636"><ele>1129.0</ele><time>2026-05-03T13:18:47Z</time></trkpt><trkpt lat="42.43739225869982" lon="13.346502556424046"><ele>1129.0</ele><time>2026-05-03T13:18:48Z</time></trkpt><trkpt lat="42.437189100938085" lon="13.346427843108374"><ele>1129.0</ele><time>2026-05-03T13:18:49Z</time></trkpt><trkpt lat="42.436947621451075" lon="13.34634193870468"><ele>1124.3333333333333</ele><time>2026-05-03T13:18:50Z</time></trkpt><trkpt lat="42.43679866174462" lon="13.346320150482235"><ele>1119.6666666666667</ele><time>2026-05-03T13:18:51Z</time></trkpt><trkpt lat="42.436669203358356" lon="13.346297465277697"><ele>1115.0</ele><time>2026-05-03T13:18:52Z</time></trkpt><trkpt lat="42.43651373247369" lon="13.346392538968356"><ele>1115.0</ele><time>2026-05-03T13:18:53Z</time></trkpt><trkpt lat="42.43635315712081" lon="13.346534662786604"><ele>1115.0</ele><time>2026-05-03T13:18:54Z</time></trkpt><trkpt lat="42.436140076347286" lon="13.346765697394096"><ele>1108.0</ele><time>2026-05-03T13:18:55Z</time></trkpt><trkpt lat="42.43593514135849" lon="13.34690159891799"><ele>1101.0</ele><time>2026-05-03T13:18:56Z</time></trkpt><trkpt lat="42.435778783574136" lon="13.346993972811873"><ele>1094.0</ele><time>2026-05-03T13:18:57Z</time></trkpt><trkpt lat="42.43562142456512" lon="13.347107754836049"><ele>1094.0</ele><time>2026-05-03T13:18:58Z</time></trkpt><trkpt lat="42.43550551940857" lon="13.347202664305078"><ele>1094.0</ele><time>2026-05-03T13:18:59Z</time></trkpt><trkpt lat="42.43540082887876" lon="13.34727435270082"><ele>1094.0</ele><time>2026-05-03T13:19:00Z</time></trkpt><trkpt lat="42.435290817293115" lon="13.347293746200792"><ele>1094.0</ele><time>2026-05-03T13:19:01Z</time></trkpt><trkpt lat="42.43521428548995" lon="13.347230611501523"><ele>1099.5</ele><time>2026-05-03T13:19:01.999Z</time></trkpt><trkpt lat="42.43514312917647" lon="13.347137574091933"><ele>1105.0</ele><time>2026-05-03T13:19:02.999Z</time></trkpt><trkpt lat="42.4351595225613" lon="13.346978283360263"><ele>1110.5</ele><time>2026-05-03T13:19:03.999Z</time></trkpt><trkpt lat="42.43514781821625" lon="13.346793254889873"><ele>1116.0</ele><time>2026-05-03T13:19:04.999Z</time></trkpt><trkpt lat="42.43513721827534" lon="13.34649016949034"><ele>1112.0</ele><time>2026-05-03T13:19:05.999Z</time></trkpt><trkpt lat="42.43512508681773" lon="13.346131923851726"><ele>1108.0</ele><time>2026-05-03T13:19:06.999Z</time></trkpt><trkpt lat="42.4351181217502" lon="13.345859681772202"><ele>1108.0</ele><time>2026-05-03T13:19:07.999Z</time></trkpt><trkpt lat="42.43511634852617" lon="13.345589002690218"><ele>1108.0</ele><time>2026-05-03T13:19:08.999Z</time></trkpt><trkpt lat="42.435109952270274" lon="13.345335588028355"><ele>1108.0</ele><time>2026-05-03T13:19:09.999Z</time></trkpt><trkpt lat="42.43512253097332" lon="13.345069296505493"><ele>1105.25</ele><time>2026-05-03T13:19:10.999Z</time></trkpt><trkpt lat="42.43510652951908" lon="13.344893186596693"><ele>1102.5</ele><time>2026-05-03T13:19:11.999Z</time></trkpt><trkpt lat="42.43506173660642" lon="13.344708460311686"><ele>1099.75</ele><time>2026-05-03T13:19:12.999Z</time></trkpt><trkpt lat="42.43498482294006" lon="13.344495707629854"><ele>1097.0</ele><time>2026-05-03T13:19:13.999Z</time></trkpt><trkpt lat="42.43485556783285" lon="13.34433226596567"><ele>1099.0</ele><time>2026-05-03T13:19:14.999Z</time></trkpt><trkpt lat="42.434672457607064" lon="13.344174072262193"><ele>1101.0</ele><time>2026-05-03T13:19:15.999Z</time></trkpt><trkpt lat="42.4344099419938" lon="13.34394039894606"><ele>1086.0</ele><time>2026-05-03T13:19:16.999Z</time></trkpt><trkpt lat="42.43412383631023" lon="13.343689283913678"><ele>1071.0</ele><time>2026-05-03T13:19:17.999Z</time></trkpt><trkpt lat="42.43385814119871" lon="13.343446165942197"><ele>1069.5</ele><time>2026-05-03T13:19:18.999Z</time></trkpt><trkpt lat="42.433584694573575" lon="13.343184578813135"><ele>1068.0</ele><time>2026-05-03T13:19:19.999Z</time></trkpt><trkpt lat="42.433349158549554" lon="13.342957963863995"><ele>1068.0</ele><time>2026-05-03T13:19:20.999Z</time></trkpt><trkpt lat="42.433143510091" lon="13.342749984137958"><ele>1068.0</ele><time>2026-05-03T13:19:21.999Z</time></trkpt><trkpt lat="42.432934772308336" lon="13.342550584956724"><ele>1066.0</ele><time>2026-05-03T13:19:22.999Z</time></trkpt><trkpt lat="42.43281478851774" lon="13.342451376138328"><ele>1064.0</ele><time>2026-05-03T13:19:23.999Z</time></trkpt><trkpt lat="42.43262441242098" lon="13.342286962799502"><ele>1062.0</ele><time>2026-05-03T13:19:24.999Z</time></trkpt><trkpt lat="42.43243259239352" lon="13.342136357169041"><ele>1062.0</ele><time>2026-05-03T13:19:25.999Z</time></trkpt><trkpt lat="42.4322669875133" lon="13.341981735092059"><ele>1062.0</ele><time>2026-05-03T13:19:26.999Z</time></trkpt><trkpt lat="42.43210453278886" lon="13.341859215647832"><ele>1062.0</ele><time>2026-05-03T13:19:27.999Z</time></trkpt><trkpt lat="42.43195294432908" lon="13.341748919334671"><ele>1064.6666666666667</ele><time>2026-05-03T13:19:28.999Z</time></trkpt><trkpt lat="42.43180533027763" lon="13.341654727946322"><ele>1067.3333333333335</ele><time>2026-05-03T13:19:29.999Z</time></trkpt><trkpt lat="42.431621086225945" lon="13.341586732911859"><ele>1070.0</ele><time>2026-05-03T13:19:30.999Z</time></trkpt><trkpt lat="42.431427033308935" lon="13.341591326949848"><ele>1071.5</ele><time>2026-05-03T13:19:31.999Z</time></trkpt><trkpt lat="42.43121355881464" lon="13.34159821185959"><ele>1073.0</ele><time>2026-05-03T13:19:32.999Z</time></trkpt><trkpt lat="42.43096138157208" lon="13.341534694464922"><ele>1073.0</ele><time>2026-05-03T13:19:33.999Z</time></trkpt><trkpt lat="42.43075209272381" lon="13.341471567833445"><ele>1073.0</ele><time>2026-05-03T13:19:34.999Z</time></trkpt><trkpt lat="42.43058887565701" lon="13.34138794202922"><ele>1073.0</ele><time>2026-05-03T13:19:35.999Z</time></trkpt><trkpt lat="42.4304217351987" lon="13.341321925427083"><ele>1065.3333333333335</ele><time>2026-05-03T13:19:37Z</time></trkpt><trkpt lat="42.43026046926253" lon="13.34125691649062"><ele>1057.6666666666667</ele><time>2026-05-03T13:19:38Z</time></trkpt><trkpt lat="42.430088976719794" lon="13.341114653167677"><ele>1050.0</ele><time>2026-05-03T13:19:39Z</time></trkpt><trkpt lat="42.429899435610515" lon="13.340999006632547"><ele>1050.0</ele><time>2026-05-03T13:19:40Z</time></trkpt><trkpt lat="42.42973499780303" lon="13.340906748149385"><ele>1050.0</ele><time>2026-05-03T13:19:41Z</time></trkpt><trkpt lat="42.42957874998089" lon="13.340851442451417"><ele>1050.0</ele><time>2026-05-03T13:19:42Z</time></trkpt><trkpt lat="42.429457019176034" lon="13.340806540521319"><ele>1047.0</ele><time>2026-05-03T13:19:43Z</time></trkpt><trkpt lat="42.429321109982865" lon="13.340825936551607"><ele>1044.0</ele><time>2026-05-03T13:19:44Z</time></trkpt><trkpt lat="42.42920438985351" lon="13.340956852006425"><ele>1041.0</ele><time>2026-05-03T13:19:45Z</time></trkpt><trkpt lat="42.42905256299311" lon="13.341089208950436"><ele>1041.0</ele><time>2026-05-03T13:19:46Z</time></trkpt><trkpt lat="42.42888521481594" lon="13.34117292917255"><ele>1041.0</ele><time>2026-05-03T13:19:47Z</time></trkpt><trkpt lat="42.42872955157276" lon="13.341170117050304"><ele>1041.0</ele><time>2026-05-03T13:19:48Z</time></trkpt><trkpt lat="42.42862166872817" lon="13.341235531569845"><ele>1037.25</ele><time>2026-05-03T13:19:49Z</time></trkpt><trkpt lat="42.428559381282135" lon="13.341375905708732"><ele>1033.5</ele><time>2026-05-03T13:19:50Z</time></trkpt><trkpt lat="42.428547923133834" lon="13.341566153117077"><ele>1029.75</ele><time>2026-05-03T13:19:51Z</time></trkpt><trkpt lat="42.42857205715627" lon="13.341752454064903"><ele>1026.0</ele><time>2026-05-03T13:19:52Z</time></trkpt><trkpt lat="42.42855838944421" lon="13.341919850963016"><ele>1026.0</ele><time>2026-05-03T13:19:53Z</time></trkpt><trkpt lat="42.428530020613024" lon="13.342070545495963"><ele>1026.0</ele><time>2026-05-03T13:19:54Z</time></trkpt><trkpt lat="42.42853201110199" lon="13.342239712047677"><ele>1026.0</ele><time>2026-05-03T13:19:55Z</time></trkpt><trkpt lat="42.42860987002352" lon="13.342454104386867"><ele>1026.0</ele><time>2026-05-03T13:19:56Z</time></trkpt><trkpt lat="42.42861555344772" lon="13.342654817640895"><ele>1025.75</ele><time>2026-05-03T13:19:57Z</time></trkpt><trkpt lat="42.42864837646383" lon="13.34282706490416"><ele>1025.5</ele><time>2026-05-03T13:19:58Z</time></trkpt><trkpt lat="42.42866100173291" lon="13.343017076291526"><ele>1025.25</ele><time>2026-05-03T13:19:59Z</time></trkpt><trkpt lat="42.4286844665371" lon="13.343238528119757"><ele>1025.0</ele><time>2026-05-03T13:20:00Z</time></trkpt><trkpt lat="42.42861175459719" lon="13.34347238197505"><ele>1025.0</ele><time>2026-05-03T13:20:01Z</time></trkpt><trkpt lat="42.42860317294477" lon="13.343708679411625"><ele>1025.0</ele><time>2026-05-03T13:20:02Z</time></trkpt><trkpt lat="42.428601615621" lon="13.343944686804623"><ele>1025.0</ele><time>2026-05-03T13:20:03Z</time></trkpt><trkpt lat="42.42865039949652" lon="13.344209161171657"><ele>1024.6666666666667</ele><time>2026-05-03T13:20:04Z</time></trkpt><trkpt lat="42.42869665674729" lon="13.344482267292472"><ele>1024.3333333333333</ele><time>2026-05-03T13:20:05Z</time></trkpt><trkpt lat="42.42869595319253" lon="13.344731877602388"><ele>1024.0</ele><time>2026-05-03T13:20:06Z</time></trkpt><trkpt lat="42.428701924726084" lon="13.344968671766267"><ele>1024.75</ele><time>2026-05-03T13:20:07Z</time></trkpt><trkpt lat="42.428736247794525" lon="13.345186825613073"><ele>1025.5</ele><time>2026-05-03T13:20:08Z</time></trkpt><trkpt lat="42.4287613564291" lon="13.345388539131976"><ele>1026.25</ele><time>2026-05-03T13:20:09Z</time></trkpt><trkpt lat="42.42877920359631" lon="13.345563722267293"><ele>1027.0</ele><time>2026-05-03T13:20:10Z</time></trkpt><trkpt lat="42.428778358152556" lon="13.345668323449384"><ele>1027.0</ele><time>2026-05-03T13:20:11Z</time></trkpt><trkpt lat="42.42872911531334" lon="13.345806267070468"><ele>1027.0</ele><time>2026-05-03T13:20:12Z</time></trkpt><trkpt lat="42.428650880714535" lon="13.345887278742476"><ele>1027.0</ele><time>2026-05-03T13:20:13Z</time></trkpt><trkpt lat="42.42854250350665" lon="13.345947568132235"><ele>1027.0</ele><time>2026-05-03T13:20:14Z</time></trkpt><trkpt lat="42.42840314690965" lon="13.345960791888194"><ele>1027.0</ele><time>2026-05-03T13:20:15Z</time></trkpt><trkpt lat="42.42820138043461" lon="13.345966178991537"><ele>1027.0</ele><time>2026-05-03T13:20:16Z</time></trkpt><trkpt lat="42.428032031270675" lon="13.345957963641357"><ele>1027.0</ele><time>2026-05-03T13:20:17Z</time></trkpt><trkpt lat="42.42789613290032" lon="13.345931999561092"><ele>1025.25</ele><time>2026-05-03T13:20:18Z</time></trkpt><trkpt lat="42.42781687366768" lon="13.345962716485671"><ele>1023.5</ele><time>2026-05-03T13:20:19Z</time></trkpt><trkpt lat="42.42773081471414" lon="13.34607957323734"><ele>1021.75</ele><time>2026-05-03T13:20:20Z</time></trkpt><trkpt lat="42.42764393067404" lon="13.34632698223653"><ele>1020.0</ele><time>2026-05-03T13:20:21Z</time></trkpt><trkpt lat="42.427592720154365" lon="13.346603706555353"><ele>1020.0</ele><time>2026-05-03T13:20:22Z</time></trkpt><trkpt lat="42.42753826401627" lon="13.346803039011228"><ele>1020.0</ele><time>2026-05-03T13:20:23Z</time></trkpt><trkpt lat="42.42752579509205" lon="13.346970912538705"><ele>1020.0</ele><time>2026-05-03T13:20:24Z</time></trkpt><trkpt lat="42.42756348388943" lon="13.34713328219626"><ele>1020.0</ele><time>2026-05-03T13:20:25Z</time></trkpt><trkpt lat="42.427669709483254" lon="13.347230829894178"><ele>1021.2</ele><time>2026-05-03T13:20:26Z</time></trkpt><trkpt lat="42.42772052446929" lon="13.34735241646922"><ele>1022.4</ele><time>2026-05-03T13:20:27Z</time></trkpt><trkpt lat="42.42768745369413" lon="13.347428907756733"><ele>1023.5999999999999</ele><time>2026-05-03T13:20:28Z</time></trkpt><trkpt lat="42.42759078372249" lon="13.347498866773488"><ele>1024.8</ele><time>2026-05-03T13:20:29Z</time></trkpt><trkpt lat="42.42751848395849" lon="13.347599756295267"><ele>1026.0</ele><time>2026-05-03T13:20:30Z</time></trkpt><trkpt lat="42.42745047583161" lon="13.347702793043066"><ele>1026.0</ele><time>2026-05-03T13:20:31Z</time></trkpt><trkpt lat="42.42738798045928" lon="13.347775284677619"><ele>1026.0</ele><time>2026-05-03T13:20:32Z</time></trkpt><trkpt lat="42.42728643669395" lon="13.347752673040354"><ele>1026.0</ele><time>2026-05-03T13:20:33Z</time></trkpt><trkpt lat="42.427208570051235" lon="13.347694488318611"><ele>1026.0</ele><time>2026-05-03T13:20:34Z</time></trkpt><trkpt lat="42.42708340177362" lon="13.347615968976989"><ele>1026.0</ele><time>2026-05-03T13:20:35Z</time></trkpt><trkpt lat="42.426994293583" lon="13.347486922239355"><ele>1026.0</ele><time>2026-05-03T13:20:36Z</time></trkpt><trkpt lat="42.42690879213291" lon="13.3473454286296"><ele>1026.0</ele><time>2026-05-03T13:20:37Z</time></trkpt><trkpt lat="42.426844071971075" lon="13.347212010374328"><ele>1026.0</ele><time>2026-05-03T13:20:38Z</time></trkpt><trkpt lat="42.42679470349" lon="13.347077164468685"><ele>1026.0</ele><time>2026-05-03T13:20:39Z</time></trkpt><trkpt lat="42.42674921790731" lon="13.346939105048339"><ele>1026.0</ele><time>2026-05-03T13:20:40Z</time></trkpt><trkpt lat="42.42671495713161" lon="13.346814317014625"><ele>1026.0</ele><time>2026-05-03T13:20:41Z</time></trkpt><trkpt lat="42.426671290799376" lon="13.346687978286914"><ele>1026.0</ele><time>2026-05-03T13:20:42Z</time></trkpt><trkpt lat="42.42663706307798" lon="13.346557959663997"><ele>1026.0</ele><time>2026-05-03T13:20:43Z</time></trkpt><trkpt lat="42.42660851661448" lon="13.346416792754262"><ele>1026.0</ele><time>2026-05-03T13:20:44Z</time></trkpt><trkpt lat="42.42655889292754" lon="13.346271274170956"><ele>1022.5</ele><time>2026-05-03T13:20:45Z</time></trkpt><trkpt lat="42.426502449014265" lon="13.346117634266296"><ele>1019.0</ele><time>2026-05-03T13:20:46Z</time></trkpt><trkpt lat="42.4264581403275" lon="13.345950647008598"><ele>1015.5</ele><time>2026-05-03T13:20:47Z</time></trkpt><trkpt lat="42.42639302845215" lon="13.34576205271418"><ele>1012.0</ele><time>2026-05-03T13:20:48Z</time></trkpt><trkpt lat="42.42630789875415" lon="13.345592717735954"><ele>1013.25</ele><time>2026-05-03T13:20:49Z</time></trkpt><trkpt lat="42.42624269635435" lon="13.3454259220188"><ele>1014.5</ele><time>2026-05-03T13:20:50Z</time></trkpt><trkpt lat="42.42613449755011" lon="13.345290798923392"><ele>1015.75</ele><time>2026-05-03T13:20:51Z</time></trkpt><trkpt lat="42.42601683359173" lon="13.345196153170438"><ele>1017.0</ele><time>2026-05-03T13:20:52Z</time></trkpt><trkpt lat="42.42588972835804" lon="13.345112547556196"><ele>1017.0</ele><time>2026-05-03T13:20:53Z</time></trkpt><trkpt lat="42.42577996545048" lon="13.345055852504911"><ele>1017.0</ele><time>2026-05-03T13:20:54Z</time></trkpt><trkpt lat="42.42570244678047" lon="13.344921929446246"><ele>1017.0</ele><time>2026-05-03T13:20:55Z</time></trkpt><trkpt lat="42.42560927066424" lon="13.344737498723447"><ele>1017.0</ele><time>2026-05-03T13:20:56Z</time></trkpt><trkpt lat="42.425530490050576" lon="13.344563332055543"><ele>1013.75</ele><time>2026-05-03T13:20:57Z</time></trkpt><trkpt lat="42.42544240184326" lon="13.344416038657254"><ele>1010.5</ele><time>2026-05-03T13:20:58Z</time></trkpt><trkpt lat="42.4253291739756" lon="13.344307972016312"><ele>1007.25</ele><time>2026-05-03T13:20:59Z</time></trkpt><trkpt lat="42.4251768446043" lon="13.344267666493735"><ele>1004.0</ele><time>2026-05-03T13:21:00Z</time></trkpt><trkpt lat="42.425030978826626" lon="13.344218171602288"><ele>1004.0</ele><time>2026-05-03T13:21:01Z</time></trkpt><trkpt lat="42.42489045801634" lon="13.344193104111278"><ele>1004.0</ele><time>2026-05-03T13:21:02Z</time></trkpt><trkpt lat="42.42473893465603" lon="13.344196203350446"><ele>1004.0</ele><time>2026-05-03T13:21:02.999Z</time></trkpt><trkpt lat="42.42458737936934" lon="13.34422334237885"><ele>1004.0</ele><time>2026-05-03T13:21:03.999Z</time></trkpt><trkpt lat="42.424448380286655" lon="13.344289632139331"><ele>1004.75</ele><time>2026-05-03T13:21:04.999Z</time></trkpt><trkpt lat="42.42432681470517" lon="13.344370562446677"><ele>1005.5</ele><time>2026-05-03T13:21:05.999Z</time></trkpt><trkpt lat="42.42421366567634" lon="13.344459494585776"><ele>1006.25</ele><time>2026-05-03T13:21:06.999Z</time></trkpt><trkpt lat="42.424120644486166" lon="13.344571257281272"><ele>1007.0</ele><time>2026-05-03T13:21:07.999Z</time></trkpt><trkpt lat="42.42405214411728" lon="13.34471929928155"><ele>1007.0</ele><time>2026-05-03T13:21:08.999Z</time></trkpt><trkpt lat="42.42401971782099" lon="13.34487695138911"><ele>1007.0</ele><time>2026-05-03T13:21:09.999Z</time></trkpt><trkpt lat="42.42398731005901" lon="13.345027345915964"><ele>1007.0</ele><time>2026-05-03T13:21:10.999Z</time></trkpt><trkpt lat="42.42393407553869" lon="13.34514871285639"><ele>1007.0</ele><time>2026-05-03T13:21:11.999Z</time></trkpt><trkpt lat="42.42384147091997" lon="13.345203874052087"><ele>1007.0</ele><time>2026-05-03T13:21:12.999Z</time></trkpt><trkpt lat="42.42371916526137" lon="13.345222220643155"><ele>1001.2</ele><time>2026-05-03T13:21:13.999Z</time></trkpt><trkpt lat="42.4236046084629" lon="13.345218986256619"><ele>995.4000000000001</ele><time>2026-05-03T13:21:14.999Z</time></trkpt><trkpt lat="42.42349221586099" lon="13.345177558001591"><ele>989.5999999999999</ele><time>2026-05-03T13:21:15.999Z</time></trkpt><trkpt lat="42.4234051029914" lon="13.345169853475912"><ele>983.8</ele><time>2026-05-03T13:21:16.999Z</time></trkpt><trkpt lat="42.42332094290319" lon="13.345219164769553"><ele>978.0</ele><time>2026-05-03T13:21:17.999Z</time></trkpt><trkpt lat="42.423257363842865" lon="13.34532314076209"><ele>978.0</ele><time>2026-05-03T13:21:18.999Z</time></trkpt><trkpt lat="42.4232327491223" lon="13.345469249087053"><ele>978.0</ele><time>2026-05-03T13:21:19.999Z</time></trkpt><trkpt lat="42.42323763303462" lon="13.345626358612181"><ele>978.0</ele><time>2026-05-03T13:21:20.999Z</time></trkpt><trkpt lat="42.42324680751378" lon="13.345782739497396"><ele>978.0</ele><time>2026-05-03T13:21:21.999Z</time></trkpt><trkpt lat="42.42322613939954" lon="13.345929615446863"><ele>981.2</ele><time>2026-05-03T13:21:22.999Z</time></trkpt><trkpt lat="42.42319647200909" lon="13.346075583987941"><ele>984.4</ele><time>2026-05-03T13:21:23.999Z</time></trkpt><trkpt lat="42.42317352410455" lon="13.346215869060805"><ele>987.6000000000001</ele><time>2026-05-03T13:21:24.999Z</time></trkpt><trkpt lat="42.42315956055292" lon="13.346347162747847"><ele>990.8000000000001</ele><time>2026-05-03T13:21:25.999Z</time></trkpt><trkpt lat="42.42314377285651" lon="13.346482521058723"><ele>994.0</ele><time>2026-05-03T13:21:26.999Z</time></trkpt><trkpt lat="42.423133459708474" lon="13.346606107028768"><ele>994.0</ele><time>2026-05-03T13:21:27.999Z</time></trkpt><trkpt lat="42.4231718431263" lon="13.346720999408577"><ele>994.0</ele><time>2026-05-03T13:21:28.999Z</time></trkpt><trkpt lat="42.42324988257988" lon="13.346851144059002"><ele>994.0</ele><time>2026-05-03T13:21:29.999Z</time></trkpt><trkpt lat="42.42340013532295" lon="13.347000472826894"><ele>994.0</ele><time>2026-05-03T13:21:30.999Z</time></trkpt><trkpt lat="42.42352329990975" lon="13.347160330035164"><ele>996.5</ele><time>2026-05-03T13:21:31.999Z</time></trkpt><trkpt lat="42.42363441334377" lon="13.347309148527419"><ele>999.0</ele><time>2026-05-03T13:21:32.999Z</time></trkpt><trkpt lat="42.423741293260555" lon="13.34744225931082"><ele>1001.5</ele><time>2026-05-03T13:21:33.999Z</time></trkpt><trkpt lat="42.42384654303801" lon="13.347571887896253"><ele>1004.0</ele><time>2026-05-03T13:21:34.999Z</time></trkpt><trkpt lat="42.42394132768597" lon="13.34773306043845"><ele>1004.0</ele><time>2026-05-03T13:21:35.999Z</time></trkpt><trkpt lat="42.424026418664305" lon="13.347957646371851"><ele>1004.0</ele><time>2026-05-03T13:21:36.999Z</time></trkpt><trkpt lat="42.424078960650874" lon="13.348181463336747"><ele>1004.0</ele><time>2026-05-03T13:21:37.999Z</time></trkpt><trkpt lat="42.42412079802317" lon="13.348362289228216"><ele>999.25</ele><time>2026-05-03T13:21:38.999Z</time></trkpt><trkpt lat="42.42419303435994" lon="13.348532118970214"><ele>994.5</ele><time>2026-05-03T13:21:39.999Z</time></trkpt><trkpt lat="42.424250134109414" lon="13.348687531740453"><ele>989.75</ele><time>2026-05-03T13:21:40.999Z</time></trkpt><trkpt lat="42.42431437149605" lon="13.348807518823694"><ele>985.0</ele><time>2026-05-03T13:21:41.999Z</time></trkpt><trkpt lat="42.42437885662921" lon="13.348926376019826"><ele>984.2</ele><time>2026-05-03T13:21:43Z</time></trkpt><trkpt lat="42.424423235208806" lon="13.3490362904862"><ele>983.4</ele><time>2026-05-03T13:21:44Z</time></trkpt><trkpt lat="42.424460727268205" lon="13.34915164403513"><ele>982.5999999999999</ele><time>2026-05-03T13:21:45Z</time></trkpt><trkpt lat="42.42443974655676" lon="13.349288526683699"><ele>981.8</ele><time>2026-05-03T13:21:46Z</time></trkpt><trkpt lat="42.42436742844935" lon="13.349398630694632"><ele>981.0</ele><time>2026-05-03T13:21:47Z</time></trkpt><trkpt lat="42.42426700816281" lon="13.349450947717523"><ele>981.0</ele><time>2026-05-03T13:21:48Z</time></trkpt><trkpt lat="42.424142930945855" lon="13.349424538994414"><ele>981.0</ele><time>2026-05-03T13:21:49Z</time></trkpt><trkpt lat="42.42402506842665" lon="13.3493697899921"><ele>981.0</ele><time>2026-05-03T13:21:50Z</time></trkpt><trkpt lat="42.42386859692613" lon="13.34931515230268"><ele>981.0</ele><time>2026-05-03T13:21:51Z</time></trkpt><trkpt lat="42.423641283822846" lon="13.349238000437234"><ele>977.0</ele><time>2026-05-03T13:21:52Z</time></trkpt><trkpt lat="42.423453940984665" lon="13.349146597024667"><ele>973.0</ele><time>2026-05-03T13:21:53Z</time></trkpt><trkpt lat="42.42329543869834" lon="13.349079941938545"><ele>969.0</ele><time>2026-05-03T13:21:54Z</time></trkpt><trkpt lat="42.42314958039108" lon="13.349022319555651"><ele>969.0</ele><time>2026-05-03T13:21:55Z</time></trkpt><trkpt lat="42.4229994179854" lon="13.349029280552147"><ele>969.0</ele><time>2026-05-03T13:21:56Z</time></trkpt><trkpt lat="42.42284628064975" lon="13.349114901623436"><ele>969.0</ele><time>2026-05-03T13:21:57Z</time></trkpt><trkpt lat="42.42272489518056" lon="13.349246273542104"><ele>970.25</ele><time>2026-05-03T13:21:58Z</time></trkpt><trkpt lat="42.422631350500225" lon="13.349297156085276"><ele>971.5</ele><time>2026-05-03T13:21:59Z</time></trkpt><trkpt lat="42.42253182386616" lon="13.349377112489806"><ele>972.75</ele><time>2026-05-03T13:22:00Z</time></trkpt><trkpt lat="42.42245026957288" lon="13.349117459433595"><ele>974.0</ele><time>2026-05-03T13:22:01Z</time></trkpt><trkpt lat="42.422367225696526" lon="13.348971717790244"><ele>968.0</ele><time>2026-05-03T13:22:02Z</time></trkpt><trkpt lat="42.42221300827826" lon="13.348733972897412"><ele>962.0</ele><time>2026-05-03T13:22:03Z</time></trkpt><trkpt lat="42.42199344528356" lon="13.348492556303906"><ele>962.0</ele><time>2026-05-03T13:22:04Z</time></trkpt><trkpt lat="42.42180387371912" lon="13.348274219090474"><ele>962.0</ele><time>2026-05-03T13:22:05Z</time></trkpt><trkpt lat="42.42162821676541" lon="13.348099545813001"><ele>952.6666666666667</ele><time>2026-05-03T13:22:06Z</time></trkpt><trkpt lat="42.42146873019428" lon="13.34794485496643"><ele>943.3333333333333</ele><time>2026-05-03T13:22:07Z</time></trkpt><trkpt lat="42.42128991088723" lon="13.347870904179466"><ele>934.0</ele><time>2026-05-03T13:22:08Z</time></trkpt><trkpt lat="42.42114543024463" lon="13.347834205976472"><ele>933.0</ele><time>2026-05-03T13:22:09Z</time></trkpt><trkpt lat="42.4209844413778" lon="13.347834021100839"><ele>932.0</ele><time>2026-05-03T13:22:10Z</time></trkpt><trkpt lat="42.420849771420535" lon="13.347873736302194"><ele>931.0</ele><time>2026-05-03T13:22:11Z</time></trkpt><trkpt lat="42.42068508893257" lon="13.347992752653745"><ele>933.0</ele><time>2026-05-03T13:22:12Z</time></trkpt><trkpt lat="42.42051939109062" lon="13.34822020897991"><ele>935.0</ele><time>2026-05-03T13:22:13Z</time></trkpt><trkpt lat="42.42037978973764" lon="13.348514963655646"><ele>935.0</ele><time>2026-05-03T13:22:14Z</time></trkpt><trkpt lat="42.42024550602214" lon="13.348743696505093"><ele>935.0</ele><time>2026-05-03T13:22:15Z</time></trkpt><trkpt lat="42.42010238533856" lon="13.348904720860146"><ele>935.0</ele><time>2026-05-03T13:22:16Z</time></trkpt><trkpt lat="42.419924072080505" lon="13.349033374320584"><ele>931.3333333333334</ele><time>2026-05-03T13:22:17Z</time></trkpt><trkpt lat="42.41973195939803" lon="13.349196970765732"><ele>927.6666666666667</ele><time>2026-05-03T13:22:18Z</time></trkpt><trkpt lat="42.4195520646207" lon="13.349334495563385"><ele>924.0</ele><time>2026-05-03T13:22:19Z</time></trkpt><trkpt lat="42.41937843858197" lon="13.349507077583711"><ele>933.0</ele><time>2026-05-03T13:22:20Z</time></trkpt><trkpt lat="42.41922795751227" lon="13.349742016852447"><ele>942.0</ele><time>2026-05-03T13:22:21Z</time></trkpt><trkpt lat="42.41905582448034" lon="13.350076822057485"><ele>942.0</ele><time>2026-05-03T13:22:22Z</time></trkpt><trkpt lat="42.41889106341904" lon="13.35039062981853"><ele>942.0</ele><time>2026-05-03T13:22:23Z</time></trkpt><trkpt lat="42.41876409904469" lon="13.3506524537978"><ele>936.3333333333333</ele><time>2026-05-03T13:22:24Z</time></trkpt><trkpt lat="42.41864517217069" lon="13.350890944145567"><ele>930.6666666666666</ele><time>2026-05-03T13:22:25Z</time></trkpt><trkpt lat="42.41854366190687" lon="13.351099328632872"><ele>925.0</ele><time>2026-05-03T13:22:26Z</time></trkpt><trkpt lat="42.4184231570439" lon="13.351262937138596"><ele>925.0</ele><time>2026-05-03T13:22:27Z</time></trkpt><trkpt lat="42.41828266120086" lon="13.351365150030446"><ele>925.0</ele><time>2026-05-03T13:22:28Z</time></trkpt><trkpt lat="42.41815770492828" lon="13.351455679473197"><ele>925.0</ele><time>2026-05-03T13:22:29Z</time></trkpt><trkpt lat="42.41805705580087" lon="13.351574493347252"><ele>925.0</ele><time>2026-05-03T13:22:30Z</time></trkpt><trkpt lat="42.418030682191876" lon="13.351753367728758"><ele>928.3333333333333</ele><time>2026-05-03T13:22:31Z</time></trkpt><trkpt lat="42.418041224204195" lon="13.351959938256845"><ele>931.6666666666667</ele><time>2026-05-03T13:22:32Z</time></trkpt><trkpt lat="42.41809383705716" lon="13.352247960975484"><ele>935.0</ele><time>2026-05-03T13:22:33Z</time></trkpt><trkpt lat="42.41818648175667" lon="13.35261285918731"><ele>935.5</ele><time>2026-05-03T13:22:34Z</time></trkpt><trkpt lat="42.418238884099324" lon="13.352878113695638"><ele>936.0</ele><time>2026-05-03T13:22:35Z</time></trkpt><trkpt lat="42.41822328252361" lon="13.353016259620134"><ele>936.5</ele><time>2026-05-03T13:22:36Z</time></trkpt><trkpt lat="42.418203158814826" lon="13.353191449007731"><ele>937.0</ele><time>2026-05-03T13:22:37Z</time></trkpt><trkpt lat="42.418205260999784" lon="13.353361937814535"><ele>933.6666666666666</ele><time>2026-05-03T13:22:38Z</time></trkpt><trkpt lat="42.418264126789225" lon="13.353499740061874"><ele>930.3333333333333</ele><time>2026-05-03T13:22:39Z</time></trkpt><trkpt lat="42.41840791385252" lon="13.35360318927993"><ele>927.0</ele><time>2026-05-03T13:22:40Z</time></trkpt><trkpt lat="42.418602584836485" lon="13.353683095602744"><ele>927.0</ele><time>2026-05-03T13:22:41Z</time></trkpt><trkpt lat="42.41876319856122" lon="13.353838974428934"><ele>927.0</ele><time>2026-05-03T13:22:42Z</time></trkpt><trkpt lat="42.41890988616183" lon="13.354023998664113"><ele>927.0</ele><time>2026-05-03T13:22:43Z</time></trkpt><trkpt lat="42.41904788754359" lon="13.35422245047622"><ele>928.6666666666667</ele><time>2026-05-03T13:22:44Z</time></trkpt><trkpt lat="42.41916385618818" lon="13.354437775556736"><ele>930.3333333333334</ele><time>2026-05-03T13:22:45Z</time></trkpt><trkpt lat="42.41928246150524" lon="13.354692655333386"><ele>932.0</ele><time>2026-05-03T13:22:46Z</time></trkpt><trkpt lat="42.41941537607171" lon="13.354996832194711"><ele>928.5</ele><time>2026-05-03T13:22:47Z</time></trkpt><trkpt lat="42.419553573341666" lon="13.355325519920074"><ele>925.0</ele><time>2026-05-03T13:22:48Z</time></trkpt><trkpt lat="42.419676498649544" lon="13.355617920050857"><ele>925.0</ele><time>2026-05-03T13:22:49Z</time></trkpt><trkpt lat="42.41979664411997" lon="13.355903274227218"><ele>925.0</ele><time>2026-05-03T13:22:50Z</time></trkpt><trkpt lat="42.41990608007139" lon="13.356167709232762"><ele>920.0</ele><time>2026-05-03T13:22:51Z</time></trkpt><trkpt lat="42.42002911760748" lon="13.356415844847769"><ele>915.0</ele><time>2026-05-03T13:22:52Z</time></trkpt><trkpt lat="42.42012950008753" lon="13.356658329134962"><ele>910.0</ele><time>2026-05-03T13:22:53Z</time></trkpt><trkpt lat="42.42025018069855" lon="13.356887352719891"><ele>910.0</ele><time>2026-05-03T13:22:54Z</time></trkpt><trkpt lat="42.42038784360712" lon="13.357092549718626"><ele>910.0</ele><time>2026-05-03T13:22:55Z</time></trkpt><trkpt lat="42.420500574477956" lon="13.357288071912382"><ele>910.0</ele><time>2026-05-03T13:22:56Z</time></trkpt><trkpt lat="42.420606986740964" lon="13.357460893644793"><ele>911.25</ele><time>2026-05-03T13:22:57Z</time></trkpt><trkpt lat="42.42069752418586" lon="13.35762416788624"><ele>912.5</ele><time>2026-05-03T13:22:58Z</time></trkpt><trkpt lat="42.42076143036593" lon="13.35777522922195"><ele>913.75</ele><time>2026-05-03T13:22:59Z</time></trkpt><trkpt lat="42.42079260223857" lon="13.357914194127076"><ele>915.0</ele><time>2026-05-03T13:23:00Z</time></trkpt><trkpt lat="42.42080003409598" lon="13.358051130202687"><ele>912.0</ele><time>2026-05-03T13:23:01Z</time></trkpt><trkpt lat="42.42074982455091" lon="13.358185012181766"><ele>909.0</ele><time>2026-05-03T13:23:02Z</time></trkpt><trkpt lat="42.420648891565" lon="13.358285235875776"><ele>906.0</ele><time>2026-05-03T13:23:03Z</time></trkpt><trkpt lat="42.42052505648609" lon="13.358313144635703"><ele>903.0</ele><time>2026-05-03T13:23:03.999Z</time></trkpt><trkpt lat="42.42039293842028" lon="13.3582538566287"><ele>900.6666666666667</ele><time>2026-05-03T13:23:04.999Z</time></trkpt><trkpt lat="42.420278988166125" lon="13.358087199620034"><ele>898.3333333333334</ele><time>2026-05-03T13:23:05.999Z</time></trkpt><trkpt lat="42.42013616129037" lon="13.357854440699604"><ele>896.0</ele><time>2026-05-03T13:23:06.999Z</time></trkpt><trkpt lat="42.419965343780895" lon="13.357583868074226"><ele>896.0</ele><time>2026-05-03T13:23:07.999Z</time></trkpt><trkpt lat="42.419792725808875" lon="13.357277003165844"><ele>896.0</ele><time>2026-05-03T13:23:08.999Z</time></trkpt><trkpt lat="42.4195907181365" lon="13.356949149624231"><ele>896.5</ele><time>2026-05-03T13:23:09.999Z</time></trkpt><trkpt lat="42.41937113661986" lon="13.356603589515544"><ele>897.0</ele><time>2026-05-03T13:23:10.999Z</time></trkpt><trkpt lat="42.4191598104404" lon="13.356291588902218"><ele>897.0</ele><time>2026-05-03T13:23:11.999Z</time></trkpt><trkpt lat="42.41896310750671" lon="13.35600745944343"><ele>897.0</ele><time>2026-05-03T13:23:12.999Z</time></trkpt><trkpt lat="42.41878319440305" lon="13.355737047372953"><ele>892.5</ele><time>2026-05-03T13:23:13.999Z</time></trkpt><trkpt lat="42.41862225759914" lon="13.355473418000221"><ele>888.0</ele><time>2026-05-03T13:23:14.999Z</time></trkpt><trkpt lat="42.418468766096574" lon="13.355212675682841"><ele>888.0</ele><time>2026-05-03T13:23:15.999Z</time></trkpt><trkpt lat="42.418330067467494" lon="13.354967162238186"><ele>888.0</ele><time>2026-05-03T13:23:16.999Z</time></trkpt><trkpt lat="42.418189318874646" lon="13.354739629586481"><ele>888.0</ele><time>2026-05-03T13:23:17.999Z</time></trkpt><trkpt lat="42.41802793802983" lon="13.354524015905294"><ele>884.6666666666667</ele><time>2026-05-03T13:23:18.999Z</time></trkpt><trkpt lat="42.41786061341013" lon="13.35432866702133"><ele>881.3333333333334</ele><time>2026-05-03T13:23:19.999Z</time></trkpt><trkpt lat="42.417687175002925" lon="13.35417011839827"><ele>878.0</ele><time>2026-05-03T13:23:20.999Z</time></trkpt><trkpt lat="42.41751249414356" lon="13.354038180112607"><ele>878.0</ele><time>2026-05-03T13:23:21.999Z</time></trkpt><trkpt lat="42.41736536562529" lon="13.353885305116505"><ele>878.0</ele><time>2026-05-03T13:23:22.999Z</time></trkpt><trkpt lat="42.41722817932381" lon="13.353701543158843"><ele>878.0</ele><time>2026-05-03T13:23:23.999Z</time></trkpt><trkpt lat="42.41710474693201" lon="13.353449597058622"><ele>874.6666666666667</ele><time>2026-05-03T13:23:24.999Z</time></trkpt><trkpt lat="42.41701108849338" lon="13.35316001723867"><ele>871.3333333333333</ele><time>2026-05-03T13:23:25.999Z</time></trkpt><trkpt lat="42.416917080853985" lon="13.352902881918675"><ele>868.0</ele><time>2026-05-03T13:23:26.999Z</time></trkpt><trkpt lat="42.41685712946819" lon="13.352612162174044"><ele>868.0</ele><time>2026-05-03T13:23:27.999Z</time></trkpt><trkpt lat="42.41680284818356" lon="13.352283954057675"><ele>868.0</ele><time>2026-05-03T13:23:28.999Z</time></trkpt><trkpt lat="42.41674158477519" lon="13.352008100946447"><ele>868.3333333333333</ele><time>2026-05-03T13:23:29.999Z</time></trkpt><trkpt lat="42.416704175798614" lon="13.351749343990088"><ele>868.6666666666667</ele><time>2026-05-03T13:23:30.999Z</time></trkpt><trkpt lat="42.416669792649806" lon="13.351515658771387"><ele>869.0</ele><time>2026-05-03T13:23:31.999Z</time></trkpt><trkpt lat="42.4166685066059" lon="13.351254713272006"><ele>867.0</ele><time>2026-05-03T13:23:32.999Z</time></trkpt><trkpt lat="42.416695075477925" lon="13.35100403050446"><ele>865.0</ele><time>2026-05-03T13:23:33.999Z</time></trkpt><trkpt lat="42.41675312481665" lon="13.35070051431797"><ele>863.0</ele><time>2026-05-03T13:23:34.999Z</time></trkpt><trkpt lat="42.41685172822982" lon="13.35031873703892"><ele>858.3333333333334</ele><time>2026-05-03T13:23:35.999Z</time></trkpt><trkpt lat="42.41693868542029" lon="13.350012899520971"><ele>853.6666666666667</ele><time>2026-05-03T13:23:36.999Z</time></trkpt><trkpt lat="42.417013800676315" lon="13.349762738897239"><ele>849.0</ele><time>2026-05-03T13:23:37.999Z</time></trkpt><trkpt lat="42.41707125880696" lon="13.349578458044249"><ele>848.0</ele><time>2026-05-03T13:23:38.999Z</time></trkpt><trkpt lat="42.41712832713458" lon="13.349360966717233"><ele>847.0</ele><time>2026-05-03T13:23:39.999Z</time></trkpt><trkpt lat="42.41715726269465" lon="13.34917632123196"><ele>846.0</ele><time>2026-05-03T13:23:40.999Z</time></trkpt><trkpt lat="42.4171618454285" lon="13.34902078385394"><ele>845.0</ele><time>2026-05-03T13:23:41.999Z</time></trkpt><trkpt lat="42.41711829181801" lon="13.348823197659613"><ele>845.0</ele><time>2026-05-03T13:23:42.999Z</time></trkpt><trkpt lat="42.416976452062954" lon="13.348584527604904"><ele>845.0</ele><time>2026-05-03T13:23:43.999Z</time></trkpt><trkpt lat="42.4168402390923" lon="13.348355625595193"><ele>845.0</ele><time>2026-05-03T13:23:44.999Z</time></trkpt><trkpt lat="42.416749175708084" lon="13.348141640440518"><ele>845.0</ele><time>2026-05-03T13:23:45.999Z</time></trkpt><trkpt lat="42.41671443761967" lon="13.347901711097267"><ele>845.0</ele><time>2026-05-03T13:23:46.999Z</time></trkpt><trkpt lat="42.41670845222286" lon="13.347714585961796"><ele>845.0</ele><time>2026-05-03T13:23:47.999Z</time></trkpt><trkpt lat="42.41672010686338" lon="13.347471138557546"><ele>845.0</ele><time>2026-05-03T13:23:49Z</time></trkpt><trkpt lat="42.416773856006515" lon="13.347256702638441"><ele>845.0</ele><time>2026-05-03T13:23:50Z</time></trkpt><trkpt lat="42.41686026348182" lon="13.347047010308357"><ele>845.0</ele><time>2026-05-03T13:23:51Z</time></trkpt><trkpt lat="42.41696728614653" lon="13.346804272706988"><ele>842.5</ele><time>2026-05-03T13:23:52Z</time></trkpt><trkpt lat="42.41704088663549" lon="13.346617402286931"><ele>840.0</ele><time>2026-05-03T13:23:53Z</time></trkpt><trkpt lat="42.417089440240076" lon="13.346410623108735"><ele>837.5</ele><time>2026-05-03T13:23:54Z</time></trkpt><trkpt lat="42.417080621719656" lon="13.346250050748885"><ele>835.0</ele><time>2026-05-03T13:23:55Z</time></trkpt><trkpt lat="42.416992363534874" lon="13.346087554772096"><ele>835.0</ele><time>2026-05-03T13:23:56Z</time></trkpt><trkpt lat="42.416882853802576" lon="13.345869019256396"><ele>835.0</ele><time>2026-05-03T13:23:57Z</time></trkpt><trkpt lat="42.416807291019964" lon="13.345677289218216"><ele>835.0</ele><time>2026-05-03T13:23:58Z</time></trkpt><trkpt lat="42.41682442734234" lon="13.345472397706581"><ele>834.0</ele><time>2026-05-03T13:23:59Z</time></trkpt><trkpt lat="42.41688079983448" lon="13.34530328022841"><ele>833.0</ele><time>2026-05-03T13:24:00Z</time></trkpt><trkpt lat="42.41697225794749" lon="13.345120692165072"><ele>832.0</ele><time>2026-05-03T13:24:01Z</time></trkpt><trkpt lat="42.41707130651124" lon="13.344853502014427"><ele>836.25</ele><time>2026-05-03T13:24:02Z</time></trkpt><trkpt lat="42.4171643144445" lon="13.344651861581632"><ele>840.5</ele><time>2026-05-03T13:24:03Z</time></trkpt><trkpt lat="42.417211990195824" lon="13.344498059533052"><ele>844.75</ele><time>2026-05-03T13:24:04Z</time></trkpt><trkpt lat="42.41721013609811" lon="13.344354859284445"><ele>849.0</ele><time>2026-05-03T13:24:05Z</time></trkpt><trkpt lat="42.417156022389065" lon="13.344213292858093"><ele>844.75</ele><time>2026-05-03T13:24:06Z</time></trkpt><trkpt lat="42.417070319676945" lon="13.344052061856894"><ele>840.5</ele><time>2026-05-03T13:24:07Z</time></trkpt><trkpt lat="42.41697621099843" lon="13.34391085876777"><ele>836.25</ele><time>2026-05-03T13:24:08Z</time></trkpt><trkpt lat="42.416933593009354" lon="13.343757423315006"><ele>832.0</ele><time>2026-05-03T13:24:09Z</time></trkpt><trkpt lat="42.41687549579395" lon="13.34359424724371"><ele>832.0</ele><time>2026-05-03T13:24:10Z</time></trkpt><trkpt lat="42.41684282544881" lon="13.34341815513366"><ele>832.0</ele><time>2026-05-03T13:24:11Z</time></trkpt><trkpt lat="42.416817420785236" lon="13.343228160412929"><ele>832.0</ele><time>2026-05-03T13:24:12Z</time></trkpt><trkpt lat="42.41683473083173" lon="13.343011874586747"><ele>832.0</ele><time>2026-05-03T13:24:13Z</time></trkpt><trkpt lat="42.41686703874051" lon="13.342790745247006"><ele>830.6666666666666</ele><time>2026-05-03T13:24:14Z</time></trkpt><trkpt lat="42.41690604331755" lon="13.34256237156289"><ele>829.3333333333333</ele><time>2026-05-03T13:24:15Z</time></trkpt><trkpt lat="42.41694590010485" lon="13.34234795307652"><ele>828.0</ele><time>2026-05-03T13:24:16Z</time></trkpt><trkpt lat="42.41696764656473" lon="13.342135234707214"><ele>828.0</ele><time>2026-05-03T13:24:17Z</time></trkpt><trkpt lat="42.41700031031154" lon="13.341940418135113"><ele>828.0</ele><time>2026-05-03T13:24:18Z</time></trkpt><trkpt lat="42.41701384161472" lon="13.341751572902428"><ele>828.0</ele><time>2026-05-03T13:24:19Z</time></trkpt><trkpt lat="42.41698011704667" lon="13.34157235276778"><ele>828.0</ele><time>2026-05-03T13:24:20Z</time></trkpt><trkpt lat="42.41689777834504" lon="13.341397271777417"><ele>830.6666666666667</ele><time>2026-05-03T13:24:21Z</time></trkpt><trkpt lat="42.416774244265966" lon="13.341240407542063"><ele>833.3333333333334</ele><time>2026-05-03T13:24:22Z</time></trkpt><trkpt lat="42.41662522694219" lon="13.341079494145344"><ele>836.0</ele><time>2026-05-03T13:24:23Z</time></trkpt><trkpt lat="42.416445294439086" lon="13.340936220639138"><ele>831.6666666666667</ele><time>2026-05-03T13:24:24Z</time></trkpt><trkpt lat="42.416248579138404" lon="13.340811638848676"><ele>827.3333333333333</ele><time>2026-05-03T13:24:25Z</time></trkpt><trkpt lat="42.41605378098437" lon="13.340698017463144"><ele>823.0</ele><time>2026-05-03T13:24:26Z</time></trkpt><trkpt lat="42.41587865246473" lon="13.340573509089847"><ele>828.0</ele><time>2026-05-03T13:24:27Z</time></trkpt><trkpt lat="42.41567947196334" lon="13.340409115867288"><ele>833.0</ele><time>2026-05-03T13:24:28Z</time></trkpt><trkpt lat="42.415497927698645" lon="13.34023647115772"><ele>827.6666666666667</ele><time>2026-05-03T13:24:29Z</time></trkpt><trkpt lat="42.41533305557384" lon="13.340081824126624"><ele>822.3333333333333</ele><time>2026-05-03T13:24:30Z</time></trkpt><trkpt lat="42.41515654476155" lon="13.339950779896949"><ele>817.0</ele><time>2026-05-03T13:24:31Z</time></trkpt><trkpt lat="42.41500745731046" lon="13.33983783041814"><ele>817.0</ele><time>2026-05-03T13:24:32Z</time></trkpt><trkpt lat="42.414856065492366" lon="13.339747975635943"><ele>817.0</ele><time>2026-05-03T13:24:33Z</time></trkpt><trkpt lat="42.414701171741804" lon="13.339679293180499"><ele>817.0</ele><time>2026-05-03T13:24:34Z</time></trkpt><trkpt lat="42.41454616807549" lon="13.339625919508869"><ele>817.25</ele><time>2026-05-03T13:24:35Z</time></trkpt><trkpt lat="42.414403829368396" lon="13.33958445104061"><ele>817.5</ele><time>2026-05-03T13:24:36Z</time></trkpt><trkpt lat="42.41427012738311" lon="13.339526706678694"><ele>817.75</ele><time>2026-05-03T13:24:37Z</time></trkpt><trkpt lat="42.414150423702665" lon="13.33945212400528"><ele>818.0</ele><time>2026-05-03T13:24:38Z</time></trkpt><trkpt lat="42.41403359140712" lon="13.339331201577588"><ele>818.0</ele><time>2026-05-03T13:24:39Z</time></trkpt><trkpt lat="42.41393509306326" lon="13.33913868231443"><ele>818.0</ele><time>2026-05-03T13:24:40Z</time></trkpt><trkpt lat="42.41384254509436" lon="13.338917042692403"><ele>818.0</ele><time>2026-05-03T13:24:41Z</time></trkpt><trkpt lat="42.41375418124126" lon="13.338658552652399"><ele>808.5</ele><time>2026-05-03T13:24:42Z</time></trkpt><trkpt lat="42.41365068824637" lon="13.338369441369418"><ele>799.0</ele><time>2026-05-03T13:24:43Z</time></trkpt><trkpt lat="42.4135581489681" lon="13.338066167808886"><ele>800.3333333333333</ele><time>2026-05-03T13:24:44Z</time></trkpt><trkpt lat="42.413469528525496" lon="13.337822227795039"><ele>801.6666666666667</ele><time>2026-05-03T13:24:45Z</time></trkpt><trkpt lat="42.41340149756909" lon="13.337581024259944"><ele>803.0</ele><time>2026-05-03T13:24:46Z</time></trkpt><trkpt lat="42.413332635196774" lon="13.337357033020366"><ele>805.6666666666667</ele><time>2026-05-03T13:24:47Z</time></trkpt><trkpt lat="42.41325864784475" lon="13.337150535981309"><ele>808.3333333333333</ele><time>2026-05-03T13:24:48Z</time></trkpt><trkpt lat="42.41314242424848" lon="13.336985489418414"><ele>811.0</ele><time>2026-05-03T13:24:49Z</time></trkpt><trkpt lat="42.412990730194075" lon="13.336861478065368"><ele>805.6666666666666</ele><time>2026-05-03T13:24:50Z</time></trkpt><trkpt lat="42.4128330769861" lon="13.336755571135603"><ele>800.3333333333333</ele><time>2026-05-03T13:24:51Z</time></trkpt><trkpt lat="42.412695443631556" lon="13.336681007279424"><ele>795.0</ele><time>2026-05-03T13:24:52Z</time></trkpt><trkpt lat="42.412580033374894" lon="13.336607079115876"><ele>795.0</ele><time>2026-05-03T13:24:53Z</time></trkpt><trkpt lat="42.4124884927027" lon="13.336530632600436"><ele>795.0</ele><time>2026-05-03T13:24:54Z</time></trkpt><trkpt lat="42.41242998998931" lon="13.336394335830708"><ele>795.0</ele><time>2026-05-03T13:24:55Z</time></trkpt><trkpt lat="42.41241416272266" lon="13.336224928488384"><ele>795.0</ele><time>2026-05-03T13:24:56Z</time></trkpt><trkpt lat="42.41243398274148" lon="13.335996147903128"><ele>796.5</ele><time>2026-05-03T13:24:57Z</time></trkpt><trkpt lat="42.412437400023855" lon="13.335708523370357"><ele>798.0</ele><time>2026-05-03T13:24:58Z</time></trkpt><trkpt lat="42.4124628707731" lon="13.33538259744882"><ele>799.0</ele><time>2026-05-03T13:24:59Z</time></trkpt><trkpt lat="42.412426818111626" lon="13.335041696399355"><ele>800.0</ele><time>2026-05-03T13:25:00Z</time></trkpt><trkpt lat="42.412383628164605" lon="13.334763244525222"><ele>799.3333333333334</ele><time>2026-05-03T13:25:01Z</time></trkpt><trkpt lat="42.41233829491305" lon="13.33452265687981"><ele>798.6666666666667</ele><time>2026-05-03T13:25:02Z</time></trkpt><trkpt lat="42.41230282997682" lon="13.334301512266347"><ele>798.0</ele><time>2026-05-03T13:25:03Z</time></trkpt><trkpt lat="42.412290565980385" lon="13.334081009456606"><ele>794.0</ele><time>2026-05-03T13:25:04Z</time></trkpt><trkpt lat="42.41229234546064" lon="13.333888384435495"><ele>790.0</ele><time>2026-05-03T13:25:05Z</time></trkpt><trkpt lat="42.412337567775886" lon="13.333697328921371"><ele>786.0</ele><time>2026-05-03T13:25:06Z</time></trkpt><trkpt lat="42.4124333716006" lon="13.33347601641952"><ele>786.0</ele><time>2026-05-03T13:25:07Z</time></trkpt><trkpt lat="42.412580957710325" lon="13.333205043062728"><ele>786.0</ele><time>2026-05-03T13:25:08Z</time></trkpt><trkpt lat="42.41271169350367" lon="13.332929579625848"><ele>787.0</ele><time>2026-05-03T13:25:09Z</time></trkpt><trkpt lat="42.41283508688268" lon="13.332706441769432"><ele>788.0</ele><time>2026-05-03T13:25:09.999Z</time></trkpt><trkpt lat="42.41295344733946" lon="13.332513682885429"><ele>789.0</ele><time>2026-05-03T13:25:10.999Z</time></trkpt><trkpt lat="42.41306439437012" lon="13.33232514605404"><ele>784.3333333333333</ele><time>2026-05-03T13:25:11.999Z</time></trkpt><trkpt lat="42.413204529000915" lon="13.332147199461438"><ele>779.6666666666666</ele><time>2026-05-03T13:25:12.999Z</time></trkpt><trkpt lat="42.413374897141765" lon="13.331967277044214"><ele>775.0</ele><time>2026-05-03T13:25:13.999Z</time></trkpt><trkpt lat="42.41353143925896" lon="13.331804733588566"><ele>775.0</ele><time>2026-05-03T13:25:14.999Z</time></trkpt><trkpt lat="42.4136534121357" lon="13.331637732935942"><ele>775.0</ele><time>2026-05-03T13:25:15.999Z</time></trkpt><trkpt lat="42.41377242028325" lon="13.331488491334374"><ele>775.0</ele><time>2026-05-03T13:25:16.999Z</time></trkpt><trkpt lat="42.41389850907405" lon="13.331290505794566"><ele>776.3333333333333</ele><time>2026-05-03T13:25:17.999Z</time></trkpt><trkpt lat="42.41400515032137" lon="13.331086289405489"><ele>777.6666666666667</ele><time>2026-05-03T13:25:18.999Z</time></trkpt><trkpt lat="42.41411708450719" lon="13.330809723432074"><ele>779.0</ele><time>2026-05-03T13:25:19.999Z</time></trkpt><trkpt lat="42.414212741049326" lon="13.330606926390455"><ele>774.0</ele><time>2026-05-03T13:25:20.999Z</time></trkpt><trkpt lat="42.414292885846386" lon="13.3303962445917"><ele>769.0</ele><time>2026-05-03T13:25:21.999Z</time></trkpt><trkpt lat="42.41439018531336" lon="13.330200434539055"><ele>764.0</ele><time>2026-05-03T13:25:22.999Z</time></trkpt><trkpt lat="42.414496614280566" lon="13.329976018979684"><ele>759.6666666666666</ele><time>2026-05-03T13:25:23.999Z</time></trkpt><trkpt lat="42.41458791546422" lon="13.329718440987957"><ele>755.3333333333334</ele><time>2026-05-03T13:25:24.999Z</time></trkpt><trkpt lat="42.41465982344908" lon="13.329424420824608"><ele>751.0</ele><time>2026-05-03T13:25:25.999Z</time></trkpt><trkpt lat="42.41471281089337" lon="13.329151717022025"><ele>757.0</ele><time>2026-05-03T13:25:26.999Z</time></trkpt><trkpt lat="42.41476213358429" lon="13.32889849897448"><ele>763.0</ele><time>2026-05-03T13:25:27.999Z</time></trkpt><trkpt lat="42.414829060284674" lon="13.328668827365368"><ele>769.0</ele><time>2026-05-03T13:25:28.999Z</time></trkpt><trkpt lat="42.41487626564369" lon="13.328443975120825"><ele>769.0</ele><time>2026-05-03T13:25:29.999Z</time></trkpt><trkpt lat="42.41490572818106" lon="13.328218473475218"><ele>769.0</ele><time>2026-05-03T13:25:30.999Z</time></trkpt><trkpt lat="42.414942290368494" lon="13.32799462639395"><ele>769.0</ele><time>2026-05-03T13:25:31.999Z</time></trkpt><trkpt lat="42.414951139342186" lon="13.327739550155767"><ele>768.3333333333333</ele><time>2026-05-03T13:25:32.999Z</time></trkpt><trkpt lat="42.41491911685388" lon="13.32745328598039"><ele>767.6666666666666</ele><time>2026-05-03T13:25:33.999Z</time></trkpt><trkpt lat="42.41486044391027" lon="13.327177515306312"><ele>767.0</ele><time>2026-05-03T13:25:34.999Z</time></trkpt><trkpt lat="42.414804642855174" lon="13.326928422978117"><ele>767.0</ele><time>2026-05-03T13:25:35.999Z</time></trkpt><trkpt lat="42.41473607579581" lon="13.326702430457411"><ele>767.0</ele><time>2026-05-03T13:25:36.999Z</time></trkpt><trkpt lat="42.41465095023158" lon="13.326481924249194"><ele>767.0</ele><time>2026-05-03T13:25:37.999Z</time></trkpt><trkpt lat="42.41452590951729" lon="13.326272751472128"><ele>765.0</ele><time>2026-05-03T13:25:38.999Z</time></trkpt><trkpt lat="42.414373131965995" lon="13.326081700876045"><ele>763.0</ele><time>2026-05-03T13:25:39.999Z</time></trkpt><trkpt lat="42.41420649239362" lon="13.325928859432457"><ele>761.0</ele><time>2026-05-03T13:25:40.999Z</time></trkpt><trkpt lat="42.41402936600964" lon="13.325810690057008"><ele>761.0</ele><time>2026-05-03T13:25:41.999Z</time></trkpt><trkpt lat="42.41383953928972" lon="13.325710541421508"><ele>761.0</ele><time>2026-05-03T13:25:42.999Z</time></trkpt><trkpt lat="42.41366098380283" lon="13.32562038818235"><ele>761.0</ele><time>2026-05-03T13:25:43.999Z</time></trkpt><trkpt lat="42.41350785592579" lon="13.325523133144095"><ele>760.25</ele><time>2026-05-03T13:25:44.999Z</time></trkpt><trkpt lat="42.413392283588394" lon="13.32541148013498"><ele>759.5</ele><time>2026-05-03T13:25:45.999Z</time></trkpt><trkpt lat="42.413281103823856" lon="13.325304356961702"><ele>758.75</ele><time>2026-05-03T13:25:46.999Z</time></trkpt><trkpt lat="42.41317792180944" lon="13.325174534180823"><ele>758.0</ele><time>2026-05-03T13:25:47.999Z</time></trkpt><trkpt lat="42.41308817127757" lon="13.324979890879069"><ele>758.0</ele><time>2026-05-03T13:25:48.999Z</time></trkpt><trkpt lat="42.41304718309754" lon="13.324739800431587"><ele>758.0</ele><time>2026-05-03T13:25:49.999Z</time></trkpt><trkpt lat="42.41302658118909" lon="13.32446871968871"><ele>758.0</ele><time>2026-05-03T13:25:50.999Z</time></trkpt><trkpt lat="42.4130011533552" lon="13.32417538476749"><ele>749.6666666666666</ele><time>2026-05-03T13:25:51.999Z</time></trkpt><trkpt lat="42.41298884143375" lon="13.323865942074574"><ele>741.3333333333334</ele><time>2026-05-03T13:25:52.999Z</time></trkpt><trkpt lat="42.412960903388715" lon="13.323576343126465"><ele>733.0</ele><time>2026-05-03T13:25:53.999Z</time></trkpt><trkpt lat="42.412937794571704" lon="13.323319274742047"><ele>733.0</ele><time>2026-05-03T13:25:55Z</time></trkpt><trkpt lat="42.41290439173113" lon="13.323069843786808"><ele>733.0</ele><time>2026-05-03T13:25:56Z</time></trkpt><trkpt lat="42.41285817066703" lon="13.322844723496447"><ele>733.0</ele><time>2026-05-03T13:25:57Z</time></trkpt><trkpt lat="42.412799032144356" lon="13.3226327848812"><ele>733.3333333333334</ele><time>2026-05-03T13:25:58Z</time></trkpt><trkpt lat="42.412742785495" lon="13.322416706395385"><ele>733.6666666666666</ele><time>2026-05-03T13:25:59Z</time></trkpt><trkpt lat="42.412709459707074" lon="13.322179434251156"><ele>734.0</ele><time>2026-05-03T13:26:00Z</time></trkpt><trkpt lat="42.412697695604784" lon="13.321902280152399"><ele>732.0</ele><time>2026-05-03T13:26:01Z</time></trkpt><trkpt lat="42.41270659240314" lon="13.32159357751918"><ele>730.0</ele><time>2026-05-03T13:26:02Z</time></trkpt><trkpt lat="42.41272778745512" lon="13.321270294827208"><ele>729.5</ele><time>2026-05-03T13:26:03Z</time></trkpt><trkpt lat="42.41272306275123" lon="13.320921223774622"><ele>729.0</ele><time>2026-05-03T13:26:04Z</time></trkpt><trkpt lat="42.412683732858774" lon="13.320594863137183"><ele>728.3333333333334</ele><time>2026-05-03T13:26:05Z</time></trkpt><trkpt lat="42.41262908809199" lon="13.320315817169332"><ele>727.6666666666667</ele><time>2026-05-03T13:26:06Z</time></trkpt><trkpt lat="42.41258114538736" lon="13.320069492556"><ele>727.0</ele><time>2026-05-03T13:26:07Z</time></trkpt><trkpt lat="42.412571445829215" lon="13.319819486689848"><ele>726.3333333333334</ele><time>2026-05-03T13:26:08Z</time></trkpt><trkpt lat="42.41258421174522" lon="13.319562824208912"><ele>725.6666666666666</ele><time>2026-05-03T13:26:09Z</time></trkpt><trkpt lat="42.412631775982575" lon="13.319305410893504"><ele>725.0</ele><time>2026-05-03T13:26:10Z</time></trkpt><trkpt lat="42.41265792997198" lon="13.319062043349593"><ele>723.0</ele><time>2026-05-03T13:26:11Z</time></trkpt><trkpt lat="42.412664455203796" lon="13.318819845640508"><ele>721.0</ele><time>2026-05-03T13:26:12Z</time></trkpt><trkpt lat="42.41262775517134" lon="13.318547958759645"><ele>719.0</ele><time>2026-05-03T13:26:13Z</time></trkpt><trkpt lat="42.41262377176939" lon="13.318266499921428"><ele>717.6666666666666</ele><time>2026-05-03T13:26:14Z</time></trkpt><trkpt lat="42.412648190838894" lon="13.317994423947393"><ele>716.3333333333334</ele><time>2026-05-03T13:26:15Z</time></trkpt><trkpt lat="42.412667131352634" lon="13.31773209122345"><ele>715.0</ele><time>2026-05-03T13:26:16Z</time></trkpt><trkpt lat="42.4127153974209" lon="13.317513398306067"><ele>715.0</ele><time>2026-05-03T13:26:17Z</time></trkpt><trkpt lat="42.412747491540294" lon="13.317321065492143"><ele>715.0</ele><time>2026-05-03T13:26:18Z</time></trkpt><trkpt lat="42.412779351644836" lon="13.3171550924191"><ele>715.0</ele><time>2026-05-03T13:26:19Z</time></trkpt><trkpt lat="42.41280987877544" lon="13.317009757789695"><ele>715.0</ele><time>2026-05-03T13:26:20Z</time></trkpt><trkpt lat="42.41284307376241" lon="13.316877845543349"><ele>714.6666666666667</ele><time>2026-05-03T13:26:21Z</time></trkpt><trkpt lat="42.41287523389321" lon="13.316772911821213"><ele>714.3333333333334</ele><time>2026-05-03T13:26:22Z</time></trkpt><trkpt lat="42.412902173399374" lon="13.31667700889449"><ele>714.0</ele><time>2026-05-03T13:26:23Z</time></trkpt><trkpt lat="42.41298926039117" lon="13.316654261401714"><ele>713.6666666666666</ele><time>2026-05-03T13:26:24Z</time></trkpt><trkpt lat="42.41303594376385" lon="13.316592422231437"><ele>713.3333333333333</ele><time>2026-05-03T13:26:25Z</time></trkpt><trkpt lat="42.41304743114137" lon="13.316430100635982"><ele>713.0</ele><time>2026-05-03T13:26:27Z</time></trkpt><trkpt lat="42.41301186809492" lon="13.316295172776918"><ele>712.0</ele><time>2026-05-03T13:26:28Z</time></trkpt><trkpt lat="42.412993983249905" lon="13.316142975338462"><ele>711.0</ele><time>2026-05-03T13:26:29Z</time></trkpt><trkpt lat="42.41299214390131" lon="13.315950923348272"><ele>710.0</ele><time>2026-05-03T13:26:30Z</time></trkpt><trkpt lat="42.412979883148196" lon="13.31571259313223"><ele>709.0</ele><time>2026-05-03T13:26:31Z</time></trkpt><trkpt lat="42.412956499813426" lon="13.31545577600652"><ele>708.6666666666667</ele><time>2026-05-03T13:26:32Z</time></trkpt><trkpt lat="42.41291893919246" lon="13.315201903483834"><ele>708.3333333333334</ele><time>2026-05-03T13:26:33Z</time></trkpt><trkpt lat="42.41287361565183" lon="13.314964824333622"><ele>708.0</ele><time>2026-05-03T13:26:34Z</time></trkpt><trkpt lat="42.41281277622422" lon="13.314713566634808"><ele>708.0</ele><time>2026-05-03T13:26:35Z</time></trkpt><trkpt lat="42.412739746912685" lon="13.314461650411822"><ele>708.0</ele><time>2026-05-03T13:26:36Z</time></trkpt><trkpt lat="42.412665774167344" lon="13.314230513753493"><ele>708.0</ele><time>2026-05-03T13:26:37Z</time></trkpt><trkpt lat="42.41260879971444" lon="13.314006179035694"><ele>708.0</ele><time>2026-05-03T13:26:38Z</time></trkpt><trkpt lat="42.41259111828278" lon="13.313746484149162"><ele>708.0</ele><time>2026-05-03T13:26:39Z</time></trkpt><trkpt lat="42.4125748007646" lon="13.313458358738243"><ele>708.0</ele><time>2026-05-03T13:26:40Z</time></trkpt><trkpt lat="42.41254785107293" lon="13.313178459081897"><ele>708.0</ele><time>2026-05-03T13:26:41Z</time></trkpt><trkpt lat="42.41252298783902" lon="13.312920661206197"><ele>708.0</ele><time>2026-05-03T13:26:42Z</time></trkpt><trkpt lat="42.41247038719256" lon="13.312673075177257"><ele>708.0</ele><time>2026-05-03T13:26:43Z</time></trkpt><trkpt lat="42.41240272655986" lon="13.312409062388054"><ele>710.3333333333334</ele><time>2026-05-03T13:26:44Z</time></trkpt><trkpt lat="42.412320525550705" lon="13.312140289726523"><ele>712.6666666666667</ele><time>2026-05-03T13:26:45Z</time></trkpt><trkpt lat="42.41221698857838" lon="13.311881290268817"><ele>715.0</ele><time>2026-05-03T13:26:46Z</time></trkpt><trkpt lat="42.412089439561925" lon="13.311639957776238"><ele>710.0</ele><time>2026-05-03T13:26:47Z</time></trkpt><trkpt lat="42.41193228282574" lon="13.311407053349841"><ele>705.0</ele><time>2026-05-03T13:26:48Z</time></trkpt><trkpt lat="42.411769183039176" lon="13.311178208897005"><ele>705.0</ele><time>2026-05-03T13:26:49Z</time></trkpt><trkpt lat="42.41161855193021" lon="13.310959683088107"><ele>705.0</ele><time>2026-05-03T13:26:50Z</time></trkpt><trkpt lat="42.41148274225999" lon="13.3107488162737"><ele>705.0</ele><time>2026-05-03T13:26:51Z</time></trkpt><trkpt lat="42.41134896625689" lon="13.310533318173707"><ele>700.0</ele><time>2026-05-03T13:26:52Z</time></trkpt><trkpt lat="42.411198261429355" lon="13.310262386043856"><ele>695.0</ele><time>2026-05-03T13:26:53Z</time></trkpt><trkpt lat="42.4110419210061" lon="13.30995072326411"><ele>697.5</ele><time>2026-05-03T13:26:54Z</time></trkpt><trkpt lat="42.4108778397221" lon="13.309596802090882"><ele>700.0</ele><time>2026-05-03T13:26:55Z</time></trkpt><trkpt lat="42.410690879255306" lon="13.309248931201322"><ele>700.0</ele><time>2026-05-03T13:26:56Z</time></trkpt><trkpt lat="42.41050438779968" lon="13.308956248599747"><ele>700.0</ele><time>2026-05-03T13:26:57Z</time></trkpt><trkpt lat="42.41033238984797" lon="13.308692505999453"><ele>698.0</ele><time>2026-05-03T13:26:58Z</time></trkpt><trkpt lat="42.41017836857205" lon="13.308451256079763"><ele>696.0</ele><time>2026-05-03T13:26:59Z</time></trkpt><trkpt lat="42.41004060749989" lon="13.308236806728074"><ele>694.0</ele><time>2026-05-03T13:27:00Z</time></trkpt><trkpt lat="42.409913139766566" lon="13.308035060811557"><ele>694.0</ele><time>2026-05-03T13:27:01Z</time></trkpt><trkpt lat="42.40979293394471" lon="13.307849417579325"><ele>694.0</ele><time>2026-05-03T13:27:02Z</time></trkpt><trkpt lat="42.40968017429478" lon="13.307673611365441"><ele>694.0</ele><time>2026-05-03T13:27:03Z</time></trkpt><trkpt lat="42.409573333227314" lon="13.30751135776408"><ele>692.25</ele><time>2026-05-03T13:27:04Z</time></trkpt><trkpt lat="42.40947453899287" lon="13.3073590855767"><ele>690.5</ele><time>2026-05-03T13:27:05Z</time></trkpt><trkpt lat="42.40938224276544" lon="13.307214783166515"><ele>688.75</ele><time>2026-05-03T13:27:06Z</time></trkpt><trkpt lat="42.409294066979044" lon="13.30708463740108"><ele>687.0</ele><time>2026-05-03T13:27:07Z</time></trkpt><trkpt lat="42.40921138145996" lon="13.306968789807566"><ele>687.0</ele><time>2026-05-03T13:27:08Z</time></trkpt><trkpt lat="42.409132217647276" lon="13.306870543599953"><ele>687.0</ele><time>2026-05-03T13:27:09Z</time></trkpt><trkpt lat="42.409057570997824" lon="13.3067866365842"><ele>687.0</ele><time>2026-05-03T13:27:10Z</time></trkpt><trkpt lat="42.4090042984633" lon="13.306710166651056"><ele>687.0</ele><time>2026-05-03T13:27:11Z</time></trkpt><trkpt lat="42.40898051253654" lon="13.306617622659445"><ele>687.0</ele><time>2026-05-03T13:27:12Z</time></trkpt><trkpt lat="42.40897139282418" lon="13.306519514368345"><ele>687.0</ele><time>2026-05-03T13:27:13Z</time></trkpt><trkpt lat="42.40885488011786" lon="13.306468845708942"><ele>686.0</ele><time>2026-05-03T13:27:14.999Z</time></trkpt><trkpt lat="42.40878554238269" lon="13.30642190678242"><ele>685.0</ele><time>2026-05-03T13:27:15.999Z</time></trkpt><trkpt lat="42.4086903388802" lon="13.306433984041508"><ele>684.0</ele><time>2026-05-03T13:27:16.999Z</time></trkpt><trkpt lat="42.40860074206775" lon="13.306408686170528"><ele>683.0</ele><time>2026-05-03T13:27:17.999Z</time></trkpt><trkpt lat="42.40850790291844" lon="13.306371284346692"><ele>682.0</ele><time>2026-05-03T13:27:18.999Z</time></trkpt><trkpt lat="42.408404304355294" lon="13.30634344096815"><ele>681.0</ele><time>2026-05-03T13:27:19.999Z</time></trkpt><trkpt lat="42.40829639158496" lon="13.306315156818052"><ele>680.0</ele><time>2026-05-03T13:27:20.999Z</time></trkpt><trkpt lat="42.408180862420295" lon="13.306282576082944"><ele>679.0</ele><time>2026-05-03T13:27:21.999Z</time></trkpt><trkpt lat="42.40806482839868" lon="13.306251119998658"><ele>678.0</ele><time>2026-05-03T13:27:22.999Z</time></trkpt><trkpt lat="42.407949320708" lon="13.306229379390773"><ele>678.0</ele><time>2026-05-03T13:27:23.999Z</time></trkpt><trkpt lat="42.407837008878374" lon="13.306210315754674"><ele>678.0</ele><time>2026-05-03T13:27:24.999Z</time></trkpt><trkpt lat="42.40773008813026" lon="13.306189457663544"><ele>678.0</ele><time>2026-05-03T13:27:25.999Z</time></trkpt><trkpt lat="42.40759880458554" lon="13.306171158371479"><ele>678.0</ele><time>2026-05-03T13:27:26.999Z</time></trkpt><trkpt lat="42.40745961320275" lon="13.306147686729952"><ele>678.0</ele><time>2026-05-03T13:27:27.999Z</time></trkpt><trkpt lat="42.407329162535945" lon="13.306126893961398"><ele>678.0</ele><time>2026-05-03T13:27:28.999Z</time></trkpt><trkpt lat="42.407207247254824" lon="13.306108404888464"><ele>678.0</ele><time>2026-05-03T13:27:29.999Z</time></trkpt><trkpt lat="42.40709296529705" lon="13.306089813778268"><ele>678.0</ele><time>2026-05-03T13:27:30.999Z</time></trkpt><trkpt lat="42.406983210096605" lon="13.306068523179883"><ele>678.0</ele><time>2026-05-03T13:27:31.999Z</time></trkpt><trkpt lat="42.4068775136813" lon="13.306050984554838"><ele>678.0</ele><time>2026-05-03T13:27:32.999Z</time></trkpt><trkpt lat="42.406775883569566" lon="13.306035280187384"><ele>678.0</ele><time>2026-05-03T13:27:33.999Z</time></trkpt><trkpt lat="42.40667738258329" lon="13.3060212502506"><ele>678.0</ele><time>2026-05-03T13:27:34.999Z</time></trkpt><trkpt lat="42.40657394908428" lon="13.306007188756755"><ele>678.0</ele><time>2026-05-03T13:27:35.999Z</time></trkpt><trkpt lat="42.40646891811993" lon="13.305996653107687"><ele>678.0</ele><time>2026-05-03T13:27:36.999Z</time></trkpt><trkpt lat="42.40636918769633" lon="13.305983276728918"><ele>678.0</ele><time>2026-05-03T13:27:37.999Z</time></trkpt><trkpt lat="42.40627030947241" lon="13.30597702864406"><ele>678.0</ele><time>2026-05-03T13:27:38.999Z</time></trkpt><trkpt lat="42.40617388668904" lon="13.305982627692696"><ele>678.0</ele><time>2026-05-03T13:27:39.999Z</time></trkpt><trkpt lat="42.40608470520123" lon="13.305988877522275"><ele>678.0</ele><time>2026-05-03T13:27:40.999Z</time></trkpt><trkpt lat="42.405998932995665" lon="13.306000246168058"><ele>678.0</ele><time>2026-05-03T13:27:41.999Z</time></trkpt><trkpt lat="42.40591948895343" lon="13.306009145599381"><ele>678.0</ele><time>2026-05-03T13:27:42.999Z</time></trkpt><trkpt lat="42.40583764633589" lon="13.306001230141336"><ele>678.0</ele><time>2026-05-03T13:27:48.999Z</time></trkpt><trkpt lat="42.40571853173791" lon="13.306020627382864"><ele>678.0</ele><time>2026-05-03T13:27:50.999Z</time></trkpt><trkpt lat="42.405654270087744" lon="13.306082305163985"><ele>678.0</ele><time>2026-05-03T13:27:51.999Z</time></trkpt><trkpt lat="42.40562280567628" lon="13.306168976587943"><ele>678.0</ele><time>2026-05-03T13:27:52.999Z</time></trkpt><trkpt lat="42.405615662994435" lon="13.306265548192092"><ele>678.0</ele><time>2026-05-03T13:27:53.999Z</time></trkpt><trkpt lat="42.40558752187027" lon="13.306357198673993"><ele>678.0</ele><time>2026-05-03T13:27:54.999Z</time></trkpt><trkpt lat="42.40551843267197" lon="13.30645216188482"><ele>678.0</ele><time>2026-05-03T13:27:55.999Z</time></trkpt><trkpt lat="42.40542872637732" lon="13.306546311841895"><ele>678.0</ele><time>2026-05-03T13:27:56.999Z</time></trkpt><trkpt lat="42.40529746947694" lon="13.306675075990283"><ele>678.0</ele><time>2026-05-03T13:27:57.999Z</time></trkpt><trkpt lat="42.40511509842068" lon="13.306839121503932"><ele>677.0</ele><time>2026-05-03T13:27:58.999Z</time></trkpt><trkpt lat="42.40489850875205" lon="13.307028814499441"><ele>676.0</ele><time>2026-05-03T13:27:59.999Z</time></trkpt><trkpt lat="42.404662997565616" lon="13.307240364673952"><ele>675.0</ele><time>2026-05-03T13:28:01Z</time></trkpt><trkpt lat="42.40441052888473" lon="13.307462676100617"><ele>674.0</ele><time>2026-05-03T13:28:02Z</time></trkpt><trkpt lat="42.404177415313065" lon="13.307667911172329"><ele>674.0</ele><time>2026-05-03T13:28:03Z</time></trkpt><trkpt lat="42.40397511348173" lon="13.30784888708877"><ele>674.0</ele><time>2026-05-03T13:28:04Z</time></trkpt><trkpt lat="42.403784161958065" lon="13.308018000297702"><ele>674.3333333333333</ele><time>2026-05-03T13:28:05Z</time></trkpt><trkpt lat="42.4036057814404" lon="13.308178443537825"><ele>674.6666666666666</ele><time>2026-05-03T13:28:06Z</time></trkpt><trkpt lat="42.40343137723242" lon="13.30833508971415"><ele>675.0</ele><time>2026-05-03T13:28:07Z</time></trkpt><trkpt lat="42.403253545419425" lon="13.308494199889347"><ele>675.0</ele><time>2026-05-03T13:28:08Z</time></trkpt><trkpt lat="42.40306517337053" lon="13.308667386807828"><ele>675.0</ele><time>2026-05-03T13:28:09Z</time></trkpt><trkpt lat="42.402862497862586" lon="13.30886713444337"><ele>673.5</ele><time>2026-05-03T13:28:10Z</time></trkpt><trkpt lat="42.40265091400995" lon="13.3090661944996"><ele>672.0</ele><time>2026-05-03T13:28:11Z</time></trkpt><trkpt lat="42.40244990407873" lon="13.309236064289177"><ele>672.0</ele><time>2026-05-03T13:28:12Z</time></trkpt><trkpt lat="42.402266903838154" lon="13.309378705943995"><ele>672.0</ele><time>2026-05-03T13:28:13Z</time></trkpt><trkpt lat="42.40209682624486" lon="13.309512746264053"><ele>672.0</ele><time>2026-05-03T13:28:14Z</time></trkpt><trkpt lat="42.401939749494254" lon="13.30964703283903"><ele>671.3333333333334</ele><time>2026-05-03T13:28:15Z</time></trkpt><trkpt lat="42.4017969554259" lon="13.30977894034146"><ele>670.6666666666667</ele><time>2026-05-03T13:28:16Z</time></trkpt><trkpt lat="42.40164852955365" lon="13.309913373186122"><ele>670.0</ele><time>2026-05-03T13:28:17Z</time></trkpt><trkpt lat="42.40149609940262" lon="13.310049968650292"><ele>670.0</ele><time>2026-05-03T13:28:18Z</time></trkpt><trkpt lat="42.40135370972917" lon="13.310182912139119"><ele>670.0</ele><time>2026-05-03T13:28:19Z</time></trkpt><trkpt lat="42.401228927786875" lon="13.310301800722497"><ele>670.0</ele><time>2026-05-03T13:28:20Z</time></trkpt><trkpt lat="42.401105288932484" lon="13.310421075957894"><ele>669.75</ele><time>2026-05-03T13:28:21Z</time></trkpt><trkpt lat="42.40098968475857" lon="13.310534631089753"><ele>669.5</ele><time>2026-05-03T13:28:22Z</time></trkpt><trkpt lat="42.400881639407906" lon="13.3106360004404"><ele>669.25</ele><time>2026-05-03T13:28:23Z</time></trkpt><trkpt lat="42.40078416896075" lon="13.310730636118313"><ele>669.0</ele><time>2026-05-03T13:28:24Z</time></trkpt><trkpt lat="42.40068820602479" lon="13.310811409729922"><ele>668.8000000000001</ele><time>2026-05-03T13:28:25Z</time></trkpt><trkpt lat="42.400596478738194" lon="13.310871263463895"><ele>668.6</ele><time>2026-05-03T13:28:26Z</time></trkpt><trkpt lat="42.40049535650139" lon="13.310903869167914"><ele>668.4</ele><time>2026-05-03T13:28:27Z</time></trkpt><trkpt lat="42.4003986306888" lon="13.31095487156551"><ele>668.2</ele><time>2026-05-03T13:28:28Z</time></trkpt><trkpt lat="42.40032632960044" lon="13.311081159043542"><ele>668.0</ele><time>2026-05-03T13:28:29Z</time></trkpt><trkpt lat="42.40025197875216" lon="13.311212901695688"><ele>668.3333333333333</ele><time>2026-05-03T13:28:30Z</time></trkpt><trkpt lat="42.40013758396719" lon="13.311327573171123"><ele>668.6666666666666</ele><time>2026-05-03T13:28:31Z</time></trkpt><trkpt lat="42.39996566955995" lon="13.311424853008551"><ele>669.0</ele><time>2026-05-03T13:28:32Z</time></trkpt><trkpt lat="42.39973170653207" lon="13.311523335239793"><ele>669.0</ele><time>2026-05-03T13:28:33Z</time></trkpt><trkpt lat="42.39947573058986" lon="13.311644892749312"><ele>669.0</ele><time>2026-05-03T13:28:34Z</time></trkpt><trkpt lat="42.399197732189535" lon="13.311785410534073"><ele>669.0</ele><time>2026-05-03T13:28:35Z</time></trkpt><trkpt lat="42.39894051584025" lon="13.311915074030292"><ele>669.0</ele><time>2026-05-03T13:28:36Z</time></trkpt><trkpt lat="42.398714416387435" lon="13.31202921806581"><ele>669.3333333333334</ele><time>2026-05-03T13:28:37Z</time></trkpt><trkpt lat="42.39850501251185" lon="13.31213660620677"><ele>669.6666666666667</ele><time>2026-05-03T13:28:38Z</time></trkpt><trkpt lat="42.398306819295506" lon="13.312237722040392"><ele>670.0</ele><time>2026-05-03T13:28:39Z</time></trkpt><trkpt lat="42.398126127866576" lon="13.312329804616962"><ele>670.6666666666667</ele><time>2026-05-03T13:28:40Z</time></trkpt><trkpt lat="42.39795565139361" lon="13.31241309141084"><ele>671.3333333333334</ele><time>2026-05-03T13:28:41Z</time></trkpt><trkpt lat="42.39779061687784" lon="13.312480212012137"><ele>672.0</ele><time>2026-05-03T13:28:42Z</time></trkpt><trkpt lat="42.397625786724085" lon="13.312503945602774"><ele>672.0</ele><time>2026-05-03T13:28:43Z</time></trkpt><trkpt lat="42.39744555144064" lon="13.312481255355788"><ele>672.0</ele><time>2026-05-03T13:28:44Z</time></trkpt><trkpt lat="42.39726616701928" lon="13.3124076362825"><ele>672.0</ele><time>2026-05-03T13:28:45Z</time></trkpt><trkpt lat="42.39707429813471" lon="13.312274857931335"><ele>670.0</ele><time>2026-05-03T13:28:46Z</time></trkpt><trkpt lat="42.39685390704292" lon="13.312107064974711"><ele>668.0</ele><time>2026-05-03T13:28:47Z</time></trkpt><trkpt lat="42.39666792250687" lon="13.311967120229864"><ele>668.0</ele><time>2026-05-03T13:28:48Z</time></trkpt><trkpt lat="42.39647599649297" lon="13.311872983958395"><ele>668.0</ele><time>2026-05-03T13:28:49Z</time></trkpt><trkpt lat="42.39629044917392" lon="13.311821343217526"><ele>668.0</ele><time>2026-05-03T13:28:50Z</time></trkpt><trkpt lat="42.39611525177444" lon="13.31180130468369"><ele>667.3333333333333</ele><time>2026-05-03T13:28:51Z</time></trkpt><trkpt lat="42.39594990460341" lon="13.311808997562784"><ele>666.6666666666666</ele><time>2026-05-03T13:28:52Z</time></trkpt><trkpt lat="42.39578330844417" lon="13.311861377354232"><ele>666.0</ele><time>2026-05-03T13:28:53Z</time></trkpt><trkpt lat="42.39560509170187" lon="13.311978203533258"><ele>665.3333333333334</ele><time>2026-05-03T13:28:54Z</time></trkpt><trkpt lat="42.3954155764443" lon="13.31212329441959"><ele>664.6666666666667</ele><time>2026-05-03T13:28:55Z</time></trkpt><trkpt lat="42.395240113759826" lon="13.312304254278503"><ele>664.0</ele><time>2026-05-03T13:28:56Z</time></trkpt><trkpt lat="42.395091903288126" lon="13.31247512351982"><ele>665.3333333333334</ele><time>2026-05-03T13:28:57Z</time></trkpt><trkpt lat="42.39497027583854" lon="13.312644129632952"><ele>666.6666666666666</ele><time>2026-05-03T13:28:58Z</time></trkpt><trkpt lat="42.394875052815365" lon="13.312802685398378"><ele>668.0</ele><time>2026-05-03T13:28:59Z</time></trkpt><trkpt lat="42.39479312221881" lon="13.312965044079156"><ele>669.0</ele><time>2026-05-03T13:29:00Z</time></trkpt><trkpt lat="42.39473755426154" lon="13.313171616827546"><ele>670.0</ele><time>2026-05-03T13:29:01Z</time></trkpt><trkpt lat="42.39471084630234" lon="13.313440075033968"><ele>671.0</ele><time>2026-05-03T13:29:02Z</time></trkpt><trkpt lat="42.39472150265861" lon="13.313743907337509"><ele>671.3333333333333</ele><time>2026-05-03T13:29:03Z</time></trkpt><trkpt lat="42.39472267697485" lon="13.314032703331275"><ele>671.6666666666666</ele><time>2026-05-03T13:29:04Z</time></trkpt><trkpt lat="42.39470532373127" lon="13.31432039069857"><ele>672.0</ele><time>2026-05-03T13:29:05Z</time></trkpt><trkpt lat="42.39467352423485" lon="13.314660449670221"><ele>666.5</ele><time>2026-05-03T13:29:06Z</time></trkpt><trkpt lat="42.3946436325418" lon="13.315065465946518"><ele>661.0</ele><time>2026-05-03T13:29:07Z</time></trkpt><trkpt lat="42.39457933660622" lon="13.315475270407168"><ele>661.5</ele><time>2026-05-03T13:29:08Z</time></trkpt><trkpt lat="42.394520387950855" lon="13.315917603593064"><ele>662.0</ele><time>2026-05-03T13:29:09Z</time></trkpt><trkpt lat="42.39447261207373" lon="13.316373410956592"><ele>661.5</ele><time>2026-05-03T13:29:10Z</time></trkpt><trkpt lat="42.394417023235285" lon="13.316819929644726"><ele>661.0</ele><time>2026-05-03T13:29:11Z</time></trkpt><trkpt lat="42.39436962972358" lon="13.317227641127765"><ele>662.0</ele><time>2026-05-03T13:29:12Z</time></trkpt><trkpt lat="42.39432536904668" lon="13.317604891139284"><ele>663.0</ele><time>2026-05-03T13:29:13Z</time></trkpt><trkpt lat="42.39428276868864" lon="13.31796038782122"><ele>663.0</ele><time>2026-05-03T13:29:14Z</time></trkpt><trkpt lat="42.39424231031944" lon="13.318296358158218"><ele>663.0</ele><time>2026-05-03T13:29:15Z</time></trkpt><trkpt lat="42.39420466380256" lon="13.318609436855569"><ele>662.3333333333334</ele><time>2026-05-03T13:29:15.999Z</time></trkpt><trkpt lat="42.39417013877944" lon="13.318905524527622"><ele>661.6666666666667</ele><time>2026-05-03T13:29:16.999Z</time></trkpt><trkpt lat="42.39413630819574" lon="13.31918808356233"><ele>661.0</ele><time>2026-05-03T13:29:17.999Z</time></trkpt><trkpt lat="42.39410535469904" lon="13.31945326389415"><ele>661.0</ele><time>2026-05-03T13:29:18.999Z</time></trkpt><trkpt lat="42.39407456062773" lon="13.319725884838714"><ele>661.0</ele><time>2026-05-03T13:29:19.999Z</time></trkpt><trkpt lat="42.39404382005915" lon="13.320017913100285"><ele>661.0</ele><time>2026-05-03T13:29:20.999Z</time></trkpt><trkpt lat="42.39399976561633" lon="13.32035402168906"><ele>665.5</ele><time>2026-05-03T13:29:21.999Z</time></trkpt><trkpt lat="42.393956714532074" lon="13.320716050806183"><ele>670.0</ele><time>2026-05-03T13:29:22.999Z</time></trkpt><trkpt lat="42.39392241509519" lon="13.321037467239528"><ele>670.0</ele><time>2026-05-03T13:29:23.999Z</time></trkpt><trkpt lat="42.39387971070823" lon="13.32132819553824"><ele>670.0</ele><time>2026-05-03T13:29:24.999Z</time></trkpt><trkpt lat="42.393846030322976" lon="13.321620259531842"><ele>670.0</ele><time>2026-05-03T13:29:25.999Z</time></trkpt><trkpt lat="42.39380794819082" lon="13.321933532102777"><ele>667.6666666666667</ele><time>2026-05-03T13:29:26.999Z</time></trkpt><trkpt lat="42.39377041584611" lon="13.322233261594404"><ele>665.3333333333334</ele><time>2026-05-03T13:29:27.999Z</time></trkpt><trkpt lat="42.39372641989244" lon="13.32251350137058"><ele>663.0</ele><time>2026-05-03T13:29:28.999Z</time></trkpt><trkpt lat="42.3936756701415" lon="13.322796756017304"><ele>663.5</ele><time>2026-05-03T13:29:29.999Z</time></trkpt><trkpt lat="42.39362029424852" lon="13.32309851135368"><ele>664.0</ele><time>2026-05-03T13:29:30.999Z</time></trkpt><trkpt lat="42.39356740090838" lon="13.32339437497681"><ele>664.0</ele><time>2026-05-03T13:29:31.999Z</time></trkpt><trkpt lat="42.39351852446784" lon="13.323668904265396"><ele>664.0</ele><time>2026-05-03T13:29:32.999Z</time></trkpt><trkpt lat="42.39347359418431" lon="13.323928061266566"><ele>664.0</ele><time>2026-05-03T13:29:33.999Z</time></trkpt><trkpt lat="42.39342916104642" lon="13.324180662323622"><ele>664.0</ele><time>2026-05-03T13:29:34.999Z</time></trkpt><trkpt lat="42.393385260886944" lon="13.324440711335606"><ele>664.0</ele><time>2026-05-03T13:29:35.999Z</time></trkpt><trkpt lat="42.393336688597365" lon="13.324706936323809"><ele>664.0</ele><time>2026-05-03T13:29:36.999Z</time></trkpt><trkpt lat="42.39328895058163" lon="13.324972750707683"><ele>665.5</ele><time>2026-05-03T13:29:37.999Z</time></trkpt><trkpt lat="42.39324504745831" lon="13.325249527936398"><ele>667.0</ele><time>2026-05-03T13:29:38.999Z</time></trkpt><trkpt lat="42.39320620153202" lon="13.32558042300378"><ele>668.5</ele><time>2026-05-03T13:29:39.999Z</time></trkpt><trkpt lat="42.393148873323675" lon="13.325922842714894"><ele>670.0</ele><time>2026-05-03T13:29:40.999Z</time></trkpt><trkpt lat="42.393076454516034" lon="13.326225522838595"><ele>671.6666666666667</ele><time>2026-05-03T13:29:41.999Z</time></trkpt><trkpt lat="42.3930129294497" lon="13.326506060454141"><ele>673.3333333333334</ele><time>2026-05-03T13:29:42.999Z</time></trkpt><trkpt lat="42.392933922818244" lon="13.32679070237932"><ele>675.0</ele><time>2026-05-03T13:29:43.999Z</time></trkpt><trkpt lat="42.39281991716188" lon="13.327051235376855"><ele>668.5</ele><time>2026-05-03T13:29:44.999Z</time></trkpt><trkpt lat="42.392702468495976" lon="13.327318350250422"><ele>662.0</ele><time>2026-05-03T13:29:45.999Z</time></trkpt><trkpt lat="42.39258001176471" lon="13.327611874582173"><ele>662.0</ele><time>2026-05-03T13:29:46.999Z</time></trkpt><trkpt lat="42.392465966479755" lon="13.327873845633892"><ele>662.0</ele><time>2026-05-03T13:29:47.999Z</time></trkpt><trkpt lat="42.392365204318835" lon="13.328109151676337"><ele>662.0</ele><time>2026-05-03T13:29:48.999Z</time></trkpt><trkpt lat="42.39226913164425" lon="13.328328188357814"><ele>661.3333333333333</ele><time>2026-05-03T13:29:49.999Z</time></trkpt><trkpt lat="42.39216960116049" lon="13.328535483362588"><ele>660.6666666666666</ele><time>2026-05-03T13:29:50.999Z</time></trkpt><trkpt lat="42.392049052382255" lon="13.328735265752604"><ele>660.0</ele><time>2026-05-03T13:29:51.999Z</time></trkpt><trkpt lat="42.39189675302163" lon="13.328950002007486"><ele>660.0</ele><time>2026-05-03T13:29:52.999Z</time></trkpt><trkpt lat="42.39171782617615" lon="13.32917442130663"><ele>660.0</ele><time>2026-05-03T13:29:53.999Z</time></trkpt><trkpt lat="42.391507969366295" lon="13.329418406330403"><ele>660.0</ele><time>2026-05-03T13:29:54.999Z</time></trkpt><trkpt lat="42.39127959707674" lon="13.329665522683717"><ele>660.0</ele><time>2026-05-03T13:29:55.999Z</time></trkpt><trkpt lat="42.39102778053398" lon="13.329921401007963"><ele>660.0</ele><time>2026-05-03T13:29:56.999Z</time></trkpt><trkpt lat="42.39076369110772" lon="13.330183405995742"><ele>660.0</ele><time>2026-05-03T13:29:57.999Z</time></trkpt><trkpt lat="42.39049327967288" lon="13.330456741767742"><ele>659.5</ele><time>2026-05-03T13:29:58.999Z</time></trkpt><trkpt lat="42.39023966632851" lon="13.330717325880187"><ele>659.0</ele><time>2026-05-03T13:29:59.999Z</time></trkpt><trkpt lat="42.39000780833642" lon="13.330958343524438"><ele>659.0</ele><time>2026-05-03T13:30:00.999Z</time></trkpt><trkpt lat="42.38975496631914" lon="13.331213352035082"><ele>659.0</ele><time>2026-05-03T13:30:01.999Z</time></trkpt><trkpt lat="42.3895024096123" lon="13.331465464087682"><ele>657.5</ele><time>2026-05-03T13:30:02.999Z</time></trkpt><trkpt lat="42.38927673979985" lon="13.3316954118533"><ele>656.0</ele><time>2026-05-03T13:30:03.999Z</time></trkpt><trkpt lat="42.38905863852697" lon="13.331920809350304"><ele>656.0</ele><time>2026-05-03T13:30:04.999Z</time></trkpt><trkpt lat="42.38882359949631" lon="13.332167362286325"><ele>656.0</ele><time>2026-05-03T13:30:05.999Z</time></trkpt><trkpt lat="42.38859802952892" lon="13.332407290356556"><ele>656.5</ele><time>2026-05-03T13:30:07Z</time></trkpt><trkpt lat="42.38839170658754" lon="13.332628907292575"><ele>657.0</ele><time>2026-05-03T13:30:08Z</time></trkpt><trkpt lat="42.38819290956971" lon="13.332849555147636"><ele>655.5</ele><time>2026-05-03T13:30:09Z</time></trkpt><trkpt lat="42.38797459445364" lon="13.333101246006267"><ele>654.0</ele><time>2026-05-03T13:30:10Z</time></trkpt><trkpt lat="42.38774401697523" lon="13.333365037348148"><ele>654.0</ele><time>2026-05-03T13:30:11Z</time></trkpt><trkpt lat="42.38752013105906" lon="13.333622302505127"><ele>654.0</ele><time>2026-05-03T13:30:12Z</time></trkpt><trkpt lat="42.38731342647154" lon="13.333872983572611"><ele>652.0</ele><time>2026-05-03T13:30:13Z</time></trkpt><trkpt lat="42.38709970527505" lon="13.33414342479974"><ele>650.0</ele><time>2026-05-03T13:30:14Z</time></trkpt><trkpt lat="42.3868963082812" lon="13.334406950525466"><ele>650.0</ele><time>2026-05-03T13:30:15Z</time></trkpt><trkpt lat="42.38670095948935" lon="13.334672423212128"><ele>650.0</ele><time>2026-05-03T13:30:16Z</time></trkpt><trkpt lat="42.38650234381717" lon="13.334989219215894"><ele>650.0</ele><time>2026-05-03T13:30:17Z</time></trkpt><trkpt lat="42.386300672880026" lon="13.335339217086636"><ele>650.0</ele><time>2026-05-03T13:30:18Z</time></trkpt><trkpt lat="42.38609371089298" lon="13.335714364036347"><ele>650.5</ele><time>2026-05-03T13:30:19Z</time></trkpt><trkpt lat="42.38588767361902" lon="13.33611059591864"><ele>651.0</ele><time>2026-05-03T13:30:20Z</time></trkpt><trkpt lat="42.38569377833341" lon="13.3365231462167"><ele>650.5</ele><time>2026-05-03T13:30:21Z</time></trkpt><trkpt lat="42.38552619184282" lon="13.336900282538654"><ele>650.0</ele><time>2026-05-03T13:30:22Z</time></trkpt><trkpt lat="42.38536475977026" lon="13.337244978632556"><ele>650.0</ele><time>2026-05-03T13:30:23Z</time></trkpt><trkpt lat="42.385212973433475" lon="13.337562379832251"><ele>650.0</ele><time>2026-05-03T13:30:24Z</time></trkpt><trkpt lat="42.38506417696932" lon="13.337873027520493"><ele>651.0</ele><time>2026-05-03T13:30:25Z</time></trkpt><trkpt lat="42.384906879355945" lon="13.338215865186434"><ele>652.0</ele><time>2026-05-03T13:30:26Z</time></trkpt><trkpt lat="42.384755578787036" lon="13.338543926814124"><ele>650.0</ele><time>2026-05-03T13:30:27Z</time></trkpt><trkpt lat="42.38461548930369" lon="13.338843052703417"><ele>648.0</ele><time>2026-05-03T13:30:28Z</time></trkpt><trkpt lat="42.38447293592757" lon="13.339151586204858"><ele>648.0</ele><time>2026-05-03T13:30:29Z</time></trkpt><trkpt lat="42.38433794608931" lon="13.339444624759931"><ele>648.0</ele><time>2026-05-03T13:30:30Z</time></trkpt><trkpt lat="42.38421314721926" lon="13.339713874187598"><ele>648.3333333333334</ele><time>2026-05-03T13:30:31Z</time></trkpt><trkpt lat="42.38409647816151" lon="13.339959564831087"><ele>648.6666666666667</ele><time>2026-05-03T13:30:32Z</time></trkpt><trkpt lat="42.38398799407788" lon="13.340185843349651"><ele>649.0</ele><time>2026-05-03T13:30:33Z</time></trkpt><trkpt lat="42.38388513046974" lon="13.340401828671185"><ele>648.0</ele><time>2026-05-03T13:30:34Z</time></trkpt><trkpt lat="42.38379061199433" lon="13.340605257430605"><ele>647.0</ele><time>2026-05-03T13:30:35Z</time></trkpt><trkpt lat="42.383702976875654" lon="13.340794079398433"><ele>646.0</ele><time>2026-05-03T13:30:36Z</time></trkpt><trkpt lat="42.383622245098856" lon="13.340962040686033"><ele>646.0</ele><time>2026-05-03T13:30:37Z</time></trkpt><trkpt lat="42.38354800090941" lon="13.341111848291789"><ele>646.0</ele><time>2026-05-03T13:30:38Z</time></trkpt><trkpt lat="42.38348358690045" lon="13.34124971859581"><ele>646.0</ele><time>2026-05-03T13:30:39Z</time></trkpt><trkpt lat="42.38341722592794" lon="13.34137965561176"><ele>646.0</ele><time>2026-05-03T13:30:40Z</time></trkpt><trkpt lat="42.383310265376636" lon="13.341506893288177"><ele>645.6666666666667</ele><time>2026-05-03T13:30:41Z</time></trkpt><trkpt lat="42.38312902105517" lon="13.341650692779675"><ele>645.3333333333334</ele><time>2026-05-03T13:30:42Z</time></trkpt><trkpt lat="42.38292598906025" lon="13.341794413601342"><ele>645.0</ele><time>2026-05-03T13:30:43Z</time></trkpt><trkpt lat="42.38275355017374" lon="13.341935707696056"><ele>645.0</ele><time>2026-05-03T13:30:44Z</time></trkpt><trkpt lat="42.38260274178146" lon="13.342077902581282"><ele>645.0</ele><time>2026-05-03T13:30:45Z</time></trkpt><trkpt lat="42.38244732489409" lon="13.342220533463015"><ele>645.0</ele><time>2026-05-03T13:30:46Z</time></trkpt><trkpt lat="42.38226458293541" lon="13.342410853124386"><ele>644.5</ele><time>2026-05-03T13:30:47Z</time></trkpt><trkpt lat="42.38209744935956" lon="13.342677778640727"><ele>644.0</ele><time>2026-05-03T13:30:48Z</time></trkpt><trkpt lat="42.381962090116836" lon="13.342954734437212"><ele>645.3333333333333</ele><time>2026-05-03T13:30:49Z</time></trkpt><trkpt lat="42.38182353970695" lon="13.34319719314641"><ele>646.6666666666666</ele><time>2026-05-03T13:30:50Z</time></trkpt><trkpt lat="42.38169788759592" lon="13.34341313770887"><ele>648.0</ele><time>2026-05-03T13:30:51Z</time></trkpt><trkpt lat="42.381552158811594" lon="13.34359221574139"><ele>648.0</ele><time>2026-05-03T13:30:52Z</time></trkpt><trkpt lat="42.38136623912778" lon="13.343754091664668"><ele>648.0</ele><time>2026-05-03T13:30:53Z</time></trkpt><trkpt lat="42.381141337839" lon="13.343916259787443"><ele>648.5</ele><time>2026-05-03T13:30:54Z</time></trkpt><trkpt lat="42.38091086391745" lon="13.344099792784652"><ele>649.0</ele><time>2026-05-03T13:30:55Z</time></trkpt><trkpt lat="42.380690909926116" lon="13.34433305452829"><ele>647.0</ele><time>2026-05-03T13:30:56Z</time></trkpt><trkpt lat="42.380495770488594" lon="13.34457395136481"><ele>645.0</ele><time>2026-05-03T13:30:57Z</time></trkpt><trkpt lat="42.380314839594284" lon="13.344784144564848"><ele>645.0</ele><time>2026-05-03T13:30:58Z</time></trkpt><trkpt lat="42.38015274025408" lon="13.344967361467857"><ele>645.0</ele><time>2026-05-03T13:30:59Z</time></trkpt><trkpt lat="42.379996139931436" lon="13.345142312584139"><ele>645.0</ele><time>2026-05-03T13:31:00Z</time></trkpt><trkpt lat="42.379845303131354" lon="13.345307336722556"><ele>645.0</ele><time>2026-05-03T13:31:01Z</time></trkpt><trkpt lat="42.37970357677097" lon="13.345462091307276"><ele>645.0</ele><time>2026-05-03T13:31:02Z</time></trkpt><trkpt lat="42.37956946634219" lon="13.345607580492283"><ele>645.0</ele><time>2026-05-03T13:31:03Z</time></trkpt><trkpt lat="42.379439647835525" lon="13.345745303456967"><ele>645.6666666666666</ele><time>2026-05-03T13:31:04Z</time></trkpt><trkpt lat="42.37930659939116" lon="13.345885296969042"><ele>646.3333333333333</ele><time>2026-05-03T13:31:05Z</time></trkpt><trkpt lat="42.379154231682975" lon="13.34601463725727"><ele>647.0</ele><time>2026-05-03T13:31:06Z</time></trkpt><trkpt lat="42.378988861128626" lon="13.346114405913363"><ele>646.0</ele><time>2026-05-03T13:31:07Z</time></trkpt><trkpt lat="42.37881797736452" lon="13.346170652463817"><ele>645.0</ele><time>2026-05-03T13:31:08Z</time></trkpt><trkpt lat="42.37865562216411" lon="13.346199144318955"><ele>644.0</ele><time>2026-05-03T13:31:09Z</time></trkpt><trkpt lat="42.37848675194348" lon="13.346223109722848"><ele>644.0</ele><time>2026-05-03T13:31:10Z</time></trkpt><trkpt lat="42.37831607614124" lon="13.346236562569278"><ele>644.0</ele><time>2026-05-03T13:31:11Z</time></trkpt><trkpt lat="42.37814426375052" lon="13.346254654121315"><ele>644.0</ele><time>2026-05-03T13:31:12Z</time></trkpt><trkpt lat="42.37797218732612" lon="13.346276728971775"><ele>643.6666666666666</ele><time>2026-05-03T13:31:13Z</time></trkpt><trkpt lat="42.37780073733938" lon="13.346304718942156"><ele>643.3333333333334</ele><time>2026-05-03T13:31:14Z</time></trkpt><trkpt lat="42.377629589782146" lon="13.346350844946986"><ele>643.0</ele><time>2026-05-03T13:31:15Z</time></trkpt><trkpt lat="42.377458892740776" lon="13.346423453490901"><ele>643.0</ele><time>2026-05-03T13:31:16Z</time></trkpt><trkpt lat="42.377299373252285" lon="13.34652132644297"><ele>643.0</ele><time>2026-05-03T13:31:17Z</time></trkpt><trkpt lat="42.377144748113636" lon="13.346616079696464"><ele>643.0</ele><time>2026-05-03T13:31:18Z</time></trkpt><trkpt lat="42.37698910452794" lon="13.346728247929725"><ele>643.0</ele><time>2026-05-03T13:31:18.999Z</time></trkpt><trkpt lat="42.376832821442086" lon="13.346844594529399"><ele>643.0</ele><time>2026-05-03T13:31:19.999Z</time></trkpt><trkpt lat="42.37667573580449" lon="13.346957258025032"><ele>643.0</ele><time>2026-05-03T13:31:20.999Z</time></trkpt><trkpt lat="42.37651927262861" lon="13.347074924066773"><ele>643.3333333333334</ele><time>2026-05-03T13:31:21.999Z</time></trkpt><trkpt lat="42.37634506010771" lon="13.347231935369292"><ele>643.6666666666666</ele><time>2026-05-03T13:31:22.999Z</time></trkpt><trkpt lat="42.37614158017639" lon="13.347362845158086"><ele>644.0</ele><time>2026-05-03T13:31:23.999Z</time></trkpt><trkpt lat="42.37594225332089" lon="13.347526985862823"><ele>644.0</ele><time>2026-05-03T13:31:24.999Z</time></trkpt><trkpt lat="42.37571501508308" lon="13.347667325249862"><ele>644.0</ele><time>2026-05-03T13:31:25.999Z</time></trkpt><trkpt lat="42.37550602341689" lon="13.347813028311332"><ele>643.6666666666666</ele><time>2026-05-03T13:31:26.999Z</time></trkpt><trkpt lat="42.375316469829585" lon="13.347956391068655"><ele>643.3333333333334</ele><time>2026-05-03T13:31:27.999Z</time></trkpt><trkpt lat="42.37514327662552" lon="13.348096239526337"><ele>643.0</ele><time>2026-05-03T13:31:28.999Z</time></trkpt><trkpt lat="42.3749793540328" lon="13.348239118104004"><ele>643.0</ele><time>2026-05-03T13:31:29.999Z</time></trkpt><trkpt lat="42.37483194445058" lon="13.348388436021347"><ele>643.0</ele><time>2026-05-03T13:31:30.999Z</time></trkpt><trkpt lat="42.37469461076115" lon="13.348536258516669"><ele>643.0</ele><time>2026-05-03T13:31:31.999Z</time></trkpt><trkpt lat="42.37456367810367" lon="13.348674749868083"><ele>642.3333333333334</ele><time>2026-05-03T13:31:32.999Z</time></trkpt><trkpt lat="42.37443776203078" lon="13.348806813121229"><ele>641.6666666666666</ele><time>2026-05-03T13:31:33.999Z</time></trkpt><trkpt lat="42.37431453829207" lon="13.34893948297615"><ele>641.0</ele><time>2026-05-03T13:31:34.999Z</time></trkpt><trkpt lat="42.37419304864516" lon="13.349075275928078"><ele>642.0</ele><time>2026-05-03T13:31:35.999Z</time></trkpt><trkpt lat="42.37408332525376" lon="13.349203745698468"><ele>643.0</ele><time>2026-05-03T13:31:36.999Z</time></trkpt><trkpt lat="42.37398199523904" lon="13.349323608275489"><ele>644.0</ele><time>2026-05-03T13:31:37.999Z</time></trkpt><trkpt lat="42.3738910210068" lon="13.349436835038617"><ele>645.0</ele><time>2026-05-03T13:31:38.999Z</time></trkpt><trkpt lat="42.373810737698754" lon="13.349537165446844"><ele>645.1666666666666</ele><time>2026-05-03T13:31:39.999Z</time></trkpt><trkpt lat="42.3737379438957" lon="13.349626042414325"><ele>645.3333333333334</ele><time>2026-05-03T13:31:40.999Z</time></trkpt><trkpt lat="42.37367094832874" lon="13.349703717958663"><ele>645.5</ele><time>2026-05-03T13:31:41.999Z</time></trkpt><trkpt lat="42.373608815287305" lon="13.349771451270682"><ele>645.6666666666667</ele><time>2026-05-03T13:31:42.999Z</time></trkpt><trkpt lat="42.37355281065222" lon="13.349831233167848"><ele>645.8333333333334</ele><time>2026-05-03T13:31:43.999Z</time></trkpt><trkpt lat="42.373502827302" lon="13.349889328068128"><ele>646.0</ele><time>2026-05-03T13:31:44.999Z</time></trkpt><trkpt lat="42.3734127032999" lon="13.349956012920925"><ele>646.0</ele><time>2026-05-03T13:31:46.999Z</time></trkpt><trkpt lat="42.37328641570329" lon="13.350002893265922"><ele>646.0</ele><time>2026-05-03T13:31:48.999Z</time></trkpt><trkpt lat="42.37322281984889" lon="13.35006106266623"><ele>646.0</ele><time>2026-05-03T13:31:49.999Z</time></trkpt><trkpt lat="42.37317499306792" lon="13.350155372831688"><ele>646.0</ele><time>2026-05-03T13:31:50.999Z</time></trkpt><trkpt lat="42.37313513432162" lon="13.35025318693352"><ele>646.0</ele><time>2026-05-03T13:31:51.999Z</time></trkpt><trkpt lat="42.37310286723786" lon="13.350346785844605"><ele>646.0</ele><time>2026-05-03T13:31:52.999Z</time></trkpt><trkpt lat="42.3730603769862" lon="13.350443360623448"><ele>646.0</ele><time>2026-05-03T13:31:53.999Z</time></trkpt><trkpt lat="42.37300752725372" lon="13.35054237170572"><ele>646.0</ele><time>2026-05-03T13:31:54.999Z</time></trkpt><trkpt lat="42.37295313168639" lon="13.35064146604544"><ele>646.0</ele><time>2026-05-03T13:31:55.999Z</time></trkpt><trkpt lat="42.372892664335495" lon="13.35074183217712"><ele>646.0</ele><time>2026-05-03T13:31:56.999Z</time></trkpt><trkpt lat="42.372822606798984" lon="13.350851495569454"><ele>646.5</ele><time>2026-05-03T13:31:57.999Z</time></trkpt><trkpt lat="42.37275335684358" lon="13.3509761840653"><ele>647.0</ele><time>2026-05-03T13:31:58.999Z</time></trkpt><trkpt lat="42.37268422765256" lon="13.351118712076536"><ele>647.5</ele><time>2026-05-03T13:31:59.999Z</time></trkpt><trkpt lat="42.37261233554296" lon="13.351277307483759"><ele>648.0</ele><time>2026-05-03T13:32:00.999Z</time></trkpt><trkpt lat="42.37254149172612" lon="13.351431430289047"><ele>648.0</ele><time>2026-05-03T13:32:01.999Z</time></trkpt><trkpt lat="42.37247317708695" lon="13.351575685485557"><ele>648.0</ele><time>2026-05-03T13:32:02.999Z</time></trkpt><trkpt lat="42.37240409701894" lon="13.351722940484516"><ele>648.0</ele><time>2026-05-03T13:32:03.999Z</time></trkpt><trkpt lat="42.372334929098834" lon="13.351872660200872"><ele>648.0</ele><time>2026-05-03T13:32:04.999Z</time></trkpt><trkpt lat="42.37226171854012" lon="13.35202343327705"><ele>648.0</ele><time>2026-05-03T13:32:05.999Z</time></trkpt><trkpt lat="42.372187938000565" lon="13.352175145974785"><ele>648.0</ele><time>2026-05-03T13:32:06.999Z</time></trkpt><trkpt lat="42.372115791067095" lon="13.352330814964397"><ele>648.0</ele><time>2026-05-03T13:32:07.999Z</time></trkpt><trkpt lat="42.37203871033685" lon="13.352500041831153"><ele>648.0</ele><time>2026-05-03T13:32:08.999Z</time></trkpt><trkpt lat="42.37195437559615" lon="13.35267929364724"><ele>648.0</ele><time>2026-05-03T13:32:09.999Z</time></trkpt><trkpt lat="42.37187059834069" lon="13.352851427226762"><ele>648.0</ele><time>2026-05-03T13:32:10.999Z</time></trkpt><trkpt lat="42.37180318276677" lon="13.352998611827871"><ele>648.0</ele><time>2026-05-03T13:32:11.999Z</time></trkpt><trkpt lat="42.37174834211146" lon="13.353117727388927"><ele>648.0</ele><time>2026-05-03T13:32:13Z</time></trkpt><trkpt lat="42.37169764811593" lon="13.353225454621496"><ele>648.2</ele><time>2026-05-03T13:32:14Z</time></trkpt><trkpt lat="42.37164654710139" lon="13.353332642391548"><ele>648.4</ele><time>2026-05-03T13:32:15Z</time></trkpt><trkpt lat="42.37159680143587" lon="13.35343603494865"><ele>648.6</ele><time>2026-05-03T13:32:16Z</time></trkpt><trkpt lat="42.37153511540244" lon="13.353555897815797"><ele>648.8000000000001</ele><time>2026-05-03T13:32:17Z</time></trkpt><trkpt lat="42.37146357133146" lon="13.353699467902956"><ele>649.0</ele><time>2026-05-03T13:32:18Z</time></trkpt><trkpt lat="42.3713840771133" lon="13.353866256855026"><ele>649.3333333333334</ele><time>2026-05-03T13:32:19Z</time></trkpt><trkpt lat="42.37130474356503" lon="13.354036974298296"><ele>649.6666666666666</ele><time>2026-05-03T13:32:20Z</time></trkpt><trkpt lat="42.37122755665502" lon="13.354199281167018"><ele>650.0</ele><time>2026-05-03T13:32:21Z</time></trkpt><trkpt lat="42.37114157770206" lon="13.354379157734815"><ele>645.0</ele><time>2026-05-03T13:32:22Z</time></trkpt><trkpt lat="42.36451340264458" lon="13.366595392063191"><ele>645.0</ele><time>2026-05-03T13:33:56.999Z</time></trkpt><trkpt lat="42.36445220779179" lon="13.366732474771673"><ele>645.0</ele><time>2026-05-03T13:33:57.999Z</time></trkpt><trkpt lat="42.36436445527227" lon="13.367029872630365"><ele>645.0</ele><time>2026-05-03T13:33:59.999Z</time></trkpt><trkpt lat="42.36430934492862" lon="13.367184921787612"><ele>645.0</ele><time>2026-05-03T13:34:00.999Z</time></trkpt><trkpt lat="42.364253359581284" lon="13.367344319997946"><ele>645.0</ele><time>2026-05-03T13:34:01.999Z</time></trkpt><trkpt lat="42.364200156467994" lon="13.367496421890117"><ele>645.0</ele><time>2026-05-03T13:34:02.999Z</time></trkpt><trkpt lat="42.36414556776732" lon="13.367642553770258"><ele>645.0</ele><time>2026-05-03T13:34:03.999Z</time></trkpt><trkpt lat="42.364092753058706" lon="13.367780074727529"><ele>645.0</ele><time>2026-05-03T13:34:04.999Z</time></trkpt><trkpt lat="42.364044468440405" lon="13.36792231638379"><ele>645.0</ele><time>2026-05-03T13:34:05.999Z</time></trkpt><trkpt lat="42.36399068704883" lon="13.368073173093725"><ele>645.0</ele><time>2026-05-03T13:34:06.999Z</time></trkpt><trkpt lat="42.36393454096801" lon="13.368235524736852"><ele>645.0</ele><time>2026-05-03T13:34:07.999Z</time></trkpt><trkpt lat="42.36387611110978" lon="13.36839251956398"><ele>644.2</ele><time>2026-05-03T13:34:08.999Z</time></trkpt><trkpt lat="42.3638246554994" lon="13.368542945410168"><ele>643.4</ele><time>2026-05-03T13:34:09.999Z</time></trkpt><trkpt lat="42.36377720315628" lon="13.368683217127177"><ele>642.5999999999999</ele><time>2026-05-03T13:34:10.999Z</time></trkpt><trkpt lat="42.36373274715663" lon="13.368813538855225"><ele>641.8</ele><time>2026-05-03T13:34:11.999Z</time></trkpt><trkpt lat="42.36368995852852" lon="13.3689357297559"><ele>641.0</ele><time>2026-05-03T13:34:12.999Z</time></trkpt><trkpt lat="42.36364873648612" lon="13.369053676781997"><ele>641.0</ele><time>2026-05-03T13:34:13.999Z</time></trkpt><trkpt lat="42.363612758963455" lon="13.369161818591516"><ele>641.0</ele><time>2026-05-03T13:34:14.999Z</time></trkpt><trkpt lat="42.36358195103916" lon="13.369254147663323"><ele>641.0</ele><time>2026-05-03T13:34:15.999Z</time></trkpt><trkpt lat="42.363547791550054" lon="13.36939422016099"><ele>641.0</ele><time>2026-05-03T13:34:17.999Z</time></trkpt><trkpt lat="42.36363436134429" lon="13.369497927129377"><ele>641.0</ele><time>2026-05-03T13:34:21Z</time></trkpt></trkseg><trkseg><trkpt lat="42.36380633514389" lon="13.369120843682511"><ele>641.0</ele><time>2026-05-03T14:18:07Z</time></trkpt><trkpt lat="42.363736240440325" lon="13.369077194341031"><ele>641.0</ele><time>2026-05-03T14:18:10Z</time></trkpt><trkpt lat="42.36358794312252" lon="13.36918938301114"><ele>641.0</ele><time>2026-05-03T14:18:25Z</time></trkpt><trkpt lat="42.36354819893382" lon="13.36930198894567"><ele>641.0</ele><time>2026-05-03T14:18:26Z</time></trkpt><trkpt lat="42.36351440952008" lon="13.36941904905526"><ele>641.0</ele><time>2026-05-03T14:18:27Z</time></trkpt><trkpt lat="42.363471682173795" lon="13.369544112030669"><ele>641.25</ele><time>2026-05-03T14:18:28Z</time></trkpt><trkpt lat="42.36342154497153" lon="13.369696801807182"><ele>641.5</ele><time>2026-05-03T14:18:29Z</time></trkpt><trkpt lat="42.3633635535845" lon="13.36983564484631"><ele>641.75</ele><time>2026-05-03T14:18:30Z</time></trkpt><trkpt lat="42.363305169795886" lon="13.370017983135185"><ele>642.0</ele><time>2026-05-03T14:18:31Z</time></trkpt><trkpt lat="42.363248932553" lon="13.370181333586387"><ele>642.0</ele><time>2026-05-03T14:18:32Z</time></trkpt><trkpt lat="42.363195405018296" lon="13.370335937502466"><ele>642.0</ele><time>2026-05-03T14:18:33Z</time></trkpt><trkpt lat="42.36314403444995" lon="13.370498230868543"><ele>642.0</ele><time>2026-05-03T14:18:34Z</time></trkpt><trkpt lat="42.36309625532801" lon="13.370641783295778"><ele>642.0</ele><time>2026-05-03T14:18:35Z</time></trkpt><trkpt lat="42.36305038826372" lon="13.37077757555"><ele>642.25</ele><time>2026-05-03T14:18:36Z</time></trkpt><trkpt lat="42.362998946362225" lon="13.370924296064528"><ele>642.5</ele><time>2026-05-03T14:18:37Z</time></trkpt><trkpt lat="42.36294003325454" lon="13.37106921101873"><ele>642.75</ele><time>2026-05-03T14:18:38Z</time></trkpt><trkpt lat="42.36287959433749" lon="13.371218791803125"><ele>643.0</ele><time>2026-05-03T14:18:39Z</time></trkpt><trkpt lat="42.36281672053628" lon="13.371375509083792"><ele>643.5</ele><time>2026-05-03T14:18:40Z</time></trkpt><trkpt lat="42.362749811736784" lon="13.371536891367494"><ele>644.0</ele><time>2026-05-03T14:18:41Z</time></trkpt><trkpt lat="42.36269108504411" lon="13.37169828785607"><ele>644.5</ele><time>2026-05-03T14:18:42Z</time></trkpt><trkpt lat="42.362633747885866" lon="13.371852815143258"><ele>645.0</ele><time>2026-05-03T14:18:43Z</time></trkpt><trkpt lat="42.36258047331904" lon="13.371995122915237"><ele>645.0</ele><time>2026-05-03T14:18:44Z</time></trkpt><trkpt lat="42.36252464481362" lon="13.372117748122326"><ele>645.0</ele><time>2026-05-03T14:18:45Z</time></trkpt><trkpt lat="42.362451424586894" lon="13.372230613516196"><ele>645.0</ele><time>2026-05-03T14:18:46Z</time></trkpt><trkpt lat="42.36236093177998" lon="13.37231442978133"><ele>645.0</ele><time>2026-05-03T14:18:47Z</time></trkpt><trkpt lat="42.362264593824335" lon="13.372365050900788"><ele>645.0</ele><time>2026-05-03T14:18:48Z</time></trkpt><trkpt lat="42.36217273706433" lon="13.372388095505274"><ele>644.3333333333334</ele><time>2026-05-03T14:18:49Z</time></trkpt><trkpt lat="42.36209360847977" lon="13.372397538504018"><ele>643.6666666666666</ele><time>2026-05-03T14:18:50Z</time></trkpt><trkpt lat="42.362022268587374" lon="13.372383992150153"><ele>643.0</ele><time>2026-05-03T14:18:51Z</time></trkpt><trkpt lat="42.36195945389453" lon="13.372358917808398"><ele>642.3333333333333</ele><time>2026-05-03T14:18:52Z</time></trkpt><trkpt lat="42.361897274230905" lon="13.37234115935923"><ele>641.6666666666666</ele><time>2026-05-03T14:18:53Z</time></trkpt><trkpt lat="42.361818508396965" lon="13.372311718983294"><ele>641.0</ele><time>2026-05-03T14:18:54Z</time></trkpt><trkpt lat="42.361723433357916" lon="13.3722832764584"><ele>641.0</ele><time>2026-05-03T14:18:55Z</time></trkpt><trkpt lat="42.361618343353925" lon="13.372263685963786"><ele>641.0</ele><time>2026-05-03T14:18:56Z</time></trkpt><trkpt lat="42.361513943474506" lon="13.372240740424859"><ele>641.0</ele><time>2026-05-03T14:18:57Z</time></trkpt><trkpt lat="42.361408386997454" lon="13.372225511022142"><ele>641.0</ele><time>2026-05-03T14:18:58Z</time></trkpt><trkpt lat="42.36128805863288" lon="13.372217867541247"><ele>641.0</ele><time>2026-05-03T14:18:59Z</time></trkpt><trkpt lat="42.36117229317971" lon="13.372224600758733"><ele>641.5</ele><time>2026-05-03T14:19:00Z</time></trkpt><trkpt lat="42.361043346943205" lon="13.372254468075774"><ele>642.0</ele><time>2026-05-03T14:19:01Z</time></trkpt><trkpt lat="42.36089706451409" lon="13.372296357940364"><ele>642.5</ele><time>2026-05-03T14:19:02Z</time></trkpt><trkpt lat="42.3607391796095" lon="13.372332489959708"><ele>643.0</ele><time>2026-05-03T14:19:03Z</time></trkpt><trkpt lat="42.36061099778426" lon="13.372376813934919"><ele>642.5</ele><time>2026-05-03T14:19:04Z</time></trkpt><trkpt lat="42.36049270933915" lon="13.372450499823382"><ele>642.0</ele><time>2026-05-03T14:19:05Z</time></trkpt><trkpt lat="42.36037611104911" lon="13.372498637257591"><ele>641.5</ele><time>2026-05-03T14:19:06Z</time></trkpt><trkpt lat="42.36026550049193" lon="13.372553643787365"><ele>641.0</ele><time>2026-05-03T14:19:07Z</time></trkpt><trkpt lat="42.360162352800025" lon="13.372605366401672"><ele>641.0</ele><time>2026-05-03T14:19:08Z</time></trkpt><trkpt lat="42.36007835689096" lon="13.372654728714867"><ele>641.0</ele><time>2026-05-03T14:19:09Z</time></trkpt><trkpt lat="42.36000362489534" lon="13.372690569459506"><ele>641.0</ele><time>2026-05-03T14:19:10Z</time></trkpt><trkpt lat="42.35993389097894" lon="13.372699829809639"><ele>641.0</ele><time>2026-05-03T14:19:11Z</time></trkpt><trkpt lat="42.35986556554643" lon="13.372678415310055"><ele>641.0</ele><time>2026-05-03T14:19:12Z</time></trkpt><trkpt lat="42.359812067962686" lon="13.37261955603868"><ele>641.0</ele><time>2026-05-03T14:19:13Z</time></trkpt><trkpt lat="42.35976642834531" lon="13.372528102842214"><ele>641.0</ele><time>2026-05-03T14:19:14Z</time></trkpt><trkpt lat="42.35973391753122" lon="13.372418426812233"><ele>641.0</ele><time>2026-05-03T14:19:15Z</time></trkpt><trkpt lat="42.35971293050903" lon="13.372296108500999"><ele>641.0</ele><time>2026-05-03T14:19:16Z</time></trkpt><trkpt lat="42.35969897655251" lon="13.372163190783814"><ele>641.0</ele><time>2026-05-03T14:19:17Z</time></trkpt><trkpt lat="42.35968236150387" lon="13.372002954037429"><ele>641.0</ele><time>2026-05-03T14:19:18Z</time></trkpt><trkpt lat="42.359653843140244" lon="13.371837612337357"><ele>640.4</ele><time>2026-05-03T14:19:19Z</time></trkpt><trkpt lat="42.35962993408449" lon="13.371686917493985"><ele>639.8</ele><time>2026-05-03T14:19:20Z</time></trkpt><trkpt lat="42.35960554131003" lon="13.37153927593823"><ele>639.1999999999999</ele><time>2026-05-03T14:19:21Z</time></trkpt><trkpt lat="42.359585243206425" lon="13.371398110694544"><ele>638.5999999999999</ele><time>2026-05-03T14:19:22Z</time></trkpt><trkpt lat="42.35956056982222" lon="13.371258631855016"><ele>638.0</ele><time>2026-05-03T14:19:23Z</time></trkpt><trkpt lat="42.359538730360526" lon="13.371114593028212"><ele>637.75</ele><time>2026-05-03T14:19:24Z</time></trkpt><trkpt lat="42.359515189745565" lon="13.37095917543539"><ele>637.5</ele><time>2026-05-03T14:19:25Z</time></trkpt><trkpt lat="42.359491588533494" lon="13.37079795891621"><ele>637.25</ele><time>2026-05-03T14:19:26Z</time></trkpt><trkpt lat="42.35946537018257" lon="13.370629026519122"><ele>637.0</ele><time>2026-05-03T14:19:27Z</time></trkpt><trkpt lat="42.35943647816493" lon="13.370454805375571"><ele>635.75</ele><time>2026-05-03T14:19:28Z</time></trkpt><trkpt lat="42.359411018501014" lon="13.370287972576232"><ele>634.5</ele><time>2026-05-03T14:19:29Z</time></trkpt><trkpt lat="42.359386927826655" lon="13.370131872891461"><ele>633.25</ele><time>2026-05-03T14:19:30Z</time></trkpt><trkpt lat="42.359383220144345" lon="13.369979736273743"><ele>632.0</ele><time>2026-05-03T14:19:31Z</time></trkpt><trkpt lat="42.359359482519835" lon="13.369834747295585"><ele>632.0</ele><time>2026-05-03T14:19:32Z</time></trkpt><trkpt lat="42.35932044178331" lon="13.369698435182583"><ele>632.0</ele><time>2026-05-03T14:19:33Z</time></trkpt><trkpt lat="42.359297729193756" lon="13.369572468954928"><ele>632.0</ele><time>2026-05-03T14:19:34Z</time></trkpt><trkpt lat="42.35927566402577" lon="13.369441694920269"><ele>632.0</ele><time>2026-05-03T14:19:35Z</time></trkpt><trkpt lat="42.359254914882584" lon="13.369310896142776"><ele>632.0</ele><time>2026-05-03T14:19:36Z</time></trkpt><trkpt lat="42.35923623774304" lon="13.369177180511176"><ele>631.6</ele><time>2026-05-03T14:19:37Z</time></trkpt><trkpt lat="42.3592163729446" lon="13.369041567005556"><ele>631.2</ele><time>2026-05-03T14:19:38Z</time></trkpt><trkpt lat="42.359196857830256" lon="13.368913195968394"><ele>630.8</ele><time>2026-05-03T14:19:39Z</time></trkpt><trkpt lat="42.35917918428073" lon="13.36879509898049"><ele>630.4</ele><time>2026-05-03T14:19:40Z</time></trkpt><trkpt lat="42.359161928289346" lon="13.368675317787618"><ele>630.0</ele><time>2026-05-03T14:19:41Z</time></trkpt><trkpt lat="42.35914558082143" lon="13.368568455933055"><ele>630.0</ele><time>2026-05-03T14:19:42Z</time></trkpt><trkpt lat="42.35913155123029" lon="13.36846082334159"><ele>630.0</ele><time>2026-05-03T14:19:43Z</time></trkpt><trkpt lat="42.35912442611167" lon="13.368363495545774"><ele>630.0</ele><time>2026-05-03T14:19:44Z</time></trkpt><trkpt lat="42.3591259221988" lon="13.368269190514678"><ele>630.0</ele><time>2026-05-03T14:19:45Z</time></trkpt><trkpt lat="42.35913620113395" lon="13.368182799827538"><ele>630.0</ele><time>2026-05-03T14:19:46Z</time></trkpt><trkpt lat="42.359184339038435" lon="13.3680405010438"><ele>630.0</ele><time>2026-05-03T14:19:48Z</time></trkpt><trkpt lat="42.359164045657" lon="13.367877968866281"><ele>630.0</ele><time>2026-05-03T14:19:50Z</time></trkpt><trkpt lat="42.35911082644446" lon="13.367822016253362"><ele>630.0</ele><time>2026-05-03T14:19:51Z</time></trkpt><trkpt lat="42.35903654833007" lon="13.36775996799902"><ele>630.0</ele><time>2026-05-03T14:19:52Z</time></trkpt><trkpt lat="42.35896824525798" lon="13.367670018811763"><ele>630.0</ele><time>2026-05-03T14:19:53Z</time></trkpt><trkpt lat="42.3589138286399" lon="13.367536634052874"><ele>630.0</ele><time>2026-05-03T14:19:54Z</time></trkpt><trkpt lat="42.358860616901154" lon="13.367386515798401"><ele>629.75</ele><time>2026-05-03T14:19:55Z</time></trkpt><trkpt lat="42.35880973697783" lon="13.367203170173827"><ele>629.5</ele><time>2026-05-03T14:19:56Z</time></trkpt><trkpt lat="42.358750751809936" lon="13.367052601381836"><ele>629.25</ele><time>2026-05-03T14:19:57Z</time></trkpt><trkpt lat="42.358672458518846" lon="13.366910899355867"><ele>629.0</ele><time>2026-05-03T14:19:58Z</time></trkpt><trkpt lat="42.35860323947251" lon="13.36676019801765"><ele>628.8</ele><time>2026-05-03T14:19:59Z</time></trkpt><trkpt lat="42.358540004044734" lon="13.366625447499684"><ele>628.5999999999999</ele><time>2026-05-03T14:20:00Z</time></trkpt><trkpt lat="42.35848887214517" lon="13.36651954984673"><ele>628.4</ele><time>2026-05-03T14:20:01Z</time></trkpt><trkpt lat="42.35845498606754" lon="13.366447713228201"><ele>628.1999999999999</ele><time>2026-05-03T14:20:02Z</time></trkpt><trkpt lat="42.35841992657623" lon="13.366372663490164"><ele>628.0</ele><time>2026-05-03T14:20:03Z</time></trkpt><trkpt lat="42.35836039196223" lon="13.366217155993313"><ele>627.8333333333334</ele><time>2026-05-03T14:20:05Z</time></trkpt><trkpt lat="42.35832735314248" lon="13.366113103300997"><ele>627.6666666666667</ele><time>2026-05-03T14:20:06Z</time></trkpt><trkpt lat="42.358298460723304" lon="13.36601101777584"><ele>627.5</ele><time>2026-05-03T14:20:07Z</time></trkpt><trkpt lat="42.35827612602035" lon="13.365903770978234"><ele>627.3333333333334</ele><time>2026-05-03T14:20:08Z</time></trkpt><trkpt lat="42.358256220510796" lon="13.365806938317952"><ele>627.1666666666666</ele><time>2026-05-03T14:20:09Z</time></trkpt><trkpt lat="42.35823785158618" lon="13.36570526532889"><ele>627.0</ele><time>2026-05-03T14:20:10Z</time></trkpt><trkpt lat="42.35822449002059" lon="13.365597270438366"><ele>627.4</ele><time>2026-05-03T14:20:11Z</time></trkpt><trkpt lat="42.358210515931" lon="13.365466033441031"><ele>627.8000000000001</ele><time>2026-05-03T14:20:12Z</time></trkpt><trkpt lat="42.35820780924932" lon="13.365336058012272"><ele>628.2</ele><time>2026-05-03T14:20:13Z</time></trkpt><trkpt lat="42.35820646355053" lon="13.365193837710077"><ele>628.6</ele><time>2026-05-03T14:20:14Z</time></trkpt><trkpt lat="42.358211225497314" lon="13.365047202617307"><ele>629.0</ele><time>2026-05-03T14:20:15Z</time></trkpt><trkpt lat="42.358224961689864" lon="13.364877184640099"><ele>629.0</ele><time>2026-05-03T14:20:16Z</time></trkpt><trkpt lat="42.35824467698723" lon="13.364707939319086"><ele>629.0</ele><time>2026-05-03T14:20:17Z</time></trkpt><trkpt lat="42.35827093769897" lon="13.364542940061844"><ele>629.0</ele><time>2026-05-03T14:20:18Z</time></trkpt><trkpt lat="42.35830160451936" lon="13.36436846451425"><ele>629.0</ele><time>2026-05-03T14:20:19Z</time></trkpt><trkpt lat="42.35833992932239" lon="13.364191534057005"><ele>629.25</ele><time>2026-05-03T14:20:20Z</time></trkpt><trkpt lat="42.35838540486054" lon="13.3640101993795"><ele>629.5</ele><time>2026-05-03T14:20:21Z</time></trkpt><trkpt lat="42.358441428379955" lon="13.363827203015177"><ele>629.75</ele><time>2026-05-03T14:20:22Z</time></trkpt><trkpt lat="42.35849929530766" lon="13.36363783405671"><ele>630.0</ele><time>2026-05-03T14:20:23Z</time></trkpt><trkpt lat="42.35856074401328" lon="13.363444761814243"><ele>629.3333333333334</ele><time>2026-05-03T14:20:24Z</time></trkpt><trkpt lat="42.35861660699898" lon="13.36324879633042"><ele>628.6666666666667</ele><time>2026-05-03T14:20:25Z</time></trkpt><trkpt lat="42.358672335576166" lon="13.363050058724616"><ele>628.0</ele><time>2026-05-03T14:20:26Z</time></trkpt><trkpt lat="42.35872690155332" lon="13.362855308999471"><ele>627.5</ele><time>2026-05-03T14:20:27Z</time></trkpt><trkpt lat="42.35878071054997" lon="13.362674782879713"><ele>627.0</ele><time>2026-05-03T14:20:28Z</time></trkpt><trkpt lat="42.35883388549158" lon="13.362487714869454"><ele>626.5</ele><time>2026-05-03T14:20:29Z</time></trkpt><trkpt lat="42.358891282290415" lon="13.36229429361535"><ele>626.0</ele><time>2026-05-03T14:20:30Z</time></trkpt><trkpt lat="42.35895127390439" lon="13.362099683499904"><ele>628.6666666666666</ele><time>2026-05-03T14:20:31Z</time></trkpt><trkpt lat="42.359005769471004" lon="13.361892206469232"><ele>631.3333333333334</ele><time>2026-05-03T14:20:32Z</time></trkpt><trkpt lat="42.35906584341243" lon="13.361673123631029"><ele>634.0</ele><time>2026-05-03T14:20:33Z</time></trkpt><trkpt lat="42.35913383865895" lon="13.361460789035212"><ele>632.0</ele><time>2026-05-03T14:20:34Z</time></trkpt><trkpt lat="42.359198286091576" lon="13.361241100190034"><ele>630.0</ele><time>2026-05-03T14:20:35Z</time></trkpt><trkpt lat="42.35926253292362" lon="13.361016407327256"><ele>628.0</ele><time>2026-05-03T14:20:36Z</time></trkpt><trkpt lat="42.3593290915809" lon="13.360784752779313"><ele>628.0</ele><time>2026-05-03T14:20:37Z</time></trkpt><trkpt lat="42.3593954998902" lon="13.360551149821763"><ele>628.0</ele><time>2026-05-03T14:20:38Z</time></trkpt><trkpt lat="42.35946128400488" lon="13.360330074530717"><ele>628.0</ele><time>2026-05-03T14:20:39Z</time></trkpt><trkpt lat="42.359523464236275" lon="13.360126026143224"><ele>627.6666666666667</ele><time>2026-05-03T14:20:40Z</time></trkpt><trkpt lat="42.35958323155404" lon="13.359932066228836"><ele>627.3333333333334</ele><time>2026-05-03T14:20:41Z</time></trkpt><trkpt lat="42.359643617646846" lon="13.359735536828733"><ele>627.0</ele><time>2026-05-03T14:20:42Z</time></trkpt><trkpt lat="42.35970444249714" lon="13.359531547135546"><ele>625.3333333333334</ele><time>2026-05-03T14:20:43Z</time></trkpt><trkpt lat="42.359765438857515" lon="13.359322389583486"><ele>623.6666666666667</ele><time>2026-05-03T14:20:44Z</time></trkpt><trkpt lat="42.359828125387125" lon="13.359102639523986"><ele>622.0</ele><time>2026-05-03T14:20:45Z</time></trkpt><trkpt lat="42.35989019148688" lon="13.35887233285565"><ele>623.3333333333334</ele><time>2026-05-03T14:20:46Z</time></trkpt><trkpt lat="42.359951188098705" lon="13.358636856228346"><ele>624.6666666666666</ele><time>2026-05-03T14:20:47Z</time></trkpt><trkpt lat="42.36000396570019" lon="13.358404418225055"><ele>626.0</ele><time>2026-05-03T14:20:48Z</time></trkpt><trkpt lat="42.36003912913426" lon="13.358177729787831"><ele>626.3333333333333</ele><time>2026-05-03T14:20:49Z</time></trkpt><trkpt lat="42.3600612319293" lon="13.357954195464272"><ele>626.6666666666666</ele><time>2026-05-03T14:20:50Z</time></trkpt><trkpt lat="42.36007762512447" lon="13.357717363681127"><ele>627.0</ele><time>2026-05-03T14:20:51Z</time></trkpt><trkpt lat="42.36009045299937" lon="13.357463350749331"><ele>626.6666666666666</ele><time>2026-05-03T14:20:52Z</time></trkpt><trkpt lat="42.36008482586789" lon="13.357191578823382"><ele>626.3333333333333</ele><time>2026-05-03T14:20:53Z</time></trkpt><trkpt lat="42.360045488517294" lon="13.356889834892993"><ele>626.0</ele><time>2026-05-03T14:20:54Z</time></trkpt><trkpt lat="42.35998076849601" lon="13.356597041748886"><ele>626.0</ele><time>2026-05-03T14:20:55Z</time></trkpt><trkpt lat="42.35990137935867" lon="13.356332439351887"><ele>626.0</ele><time>2026-05-03T14:20:56Z</time></trkpt><trkpt lat="42.3598208444174" lon="13.356079753130356"><ele>626.0</ele><time>2026-05-03T14:20:57Z</time></trkpt><trkpt lat="42.359729106502286" lon="13.355802073722009"><ele>627.0</ele><time>2026-05-03T14:20:58Z</time></trkpt><trkpt lat="42.35964260832167" lon="13.355473286944822"><ele>628.0</ele><time>2026-05-03T14:20:59Z</time></trkpt><trkpt lat="42.359544310732865" lon="13.355110539855728"><ele>628.0</ele><time>2026-05-03T14:21:00Z</time></trkpt><trkpt lat="42.359447682228335" lon="13.354756170859144"><ele>628.0</ele><time>2026-05-03T14:21:01Z</time></trkpt><trkpt lat="42.35935850848061" lon="13.354447232540508"><ele>628.0</ele><time>2026-05-03T14:21:02Z</time></trkpt><trkpt lat="42.35928683345246" lon="13.35416014793016"><ele>628.0</ele><time>2026-05-03T14:21:03Z</time></trkpt><trkpt lat="42.35921703680555" lon="13.353902746722577"><ele>628.0</ele><time>2026-05-03T14:21:04Z</time></trkpt><trkpt lat="42.35915098447126" lon="13.353663685251096"><ele>628.5</ele><time>2026-05-03T14:21:05Z</time></trkpt><trkpt lat="42.35909800868415" lon="13.353476053353447"><ele>629.0</ele><time>2026-05-03T14:21:06Z</time></trkpt><trkpt lat="42.35905192928988" lon="13.353313129253593"><ele>629.5</ele><time>2026-05-03T14:21:07Z</time></trkpt><trkpt lat="42.359013358498245" lon="13.353162142215282"><ele>630.0</ele><time>2026-05-03T14:21:08Z</time></trkpt><trkpt lat="42.35898458650648" lon="13.353033640713106"><ele>630.2</ele><time>2026-05-03T14:21:09Z</time></trkpt><trkpt lat="42.35897550380819" lon="13.352908279590801"><ele>630.4</ele><time>2026-05-03T14:21:10Z</time></trkpt><trkpt lat="42.359001052508425" lon="13.35278033138387"><ele>630.6</ele><time>2026-05-03T14:21:11Z</time></trkpt><trkpt lat="42.35905562356546" lon="13.352647598188097"><ele>630.8</ele><time>2026-05-03T14:21:12Z</time></trkpt><trkpt lat="42.359120103784264" lon="13.352523349956629"><ele>631.0</ele><time>2026-05-03T14:21:13Z</time></trkpt><trkpt lat="42.35914508286382" lon="13.352397537219712"><ele>631.0</ele><time>2026-05-03T14:21:14Z</time></trkpt><trkpt lat="42.359115322073336" lon="13.352267351386528"><ele>631.0</ele><time>2026-05-03T14:21:15Z</time></trkpt><trkpt lat="42.35908764089249" lon="13.352147296029397"><ele>631.0</ele><time>2026-05-03T14:21:16Z</time></trkpt><trkpt lat="42.358958901399376" lon="13.352093988109523"><ele>631.0</ele><time>2026-05-03T14:21:17Z</time></trkpt><trkpt lat="42.358851710728814" lon="13.35206051844059"><ele>631.0</ele><time>2026-05-03T14:21:18Z</time></trkpt><trkpt lat="42.358748410919134" lon="13.352000930141775"><ele>630.0</ele><time>2026-05-03T14:21:19Z</time></trkpt><trkpt lat="42.35865270633621" lon="13.351888240187922"><ele>629.0</ele><time>2026-05-03T14:21:20Z</time></trkpt><trkpt lat="42.35856693164727" lon="13.351715965682839"><ele>628.0</ele><time>2026-05-03T14:21:21Z</time></trkpt><trkpt lat="42.358462155847306" lon="13.351477126170675"><ele>628.5</ele><time>2026-05-03T14:21:22Z</time></trkpt><trkpt lat="42.35833410616091" lon="13.351217644618703"><ele>629.0</ele><time>2026-05-03T14:21:23Z</time></trkpt><trkpt lat="42.35817416861028" lon="13.35095974026266"><ele>629.6666666666666</ele><time>2026-05-03T14:21:24Z</time></trkpt><trkpt lat="42.35801950347078" lon="13.350742371480175"><ele>630.3333333333334</ele><time>2026-05-03T14:21:25Z</time></trkpt><trkpt lat="42.35789666305007" lon="13.350569096625346"><ele>631.0</ele><time>2026-05-03T14:21:26Z</time></trkpt><trkpt lat="42.357790901778486" lon="13.350420125821486"><ele>631.6</ele><time>2026-05-03T14:21:27Z</time></trkpt><trkpt lat="42.35770380368595" lon="13.350293219248844"><ele>632.2</ele><time>2026-05-03T14:21:28Z</time></trkpt><trkpt lat="42.35762697206269" lon="13.350177141491052"><ele>632.8</ele><time>2026-05-03T14:21:29Z</time></trkpt><trkpt lat="42.35756207042005" lon="13.350065348154478"><ele>633.4</ele><time>2026-05-03T14:21:30Z</time></trkpt><trkpt lat="42.357530773816045" lon="13.349984446635494"><ele>634.0</ele><time>2026-05-03T14:21:31Z</time></trkpt><trkpt lat="42.35752951114358" lon="13.349898896770695"><ele>634.0</ele><time>2026-05-03T14:21:43Z</time></trkpt><trkpt lat="42.35752274186433" lon="13.349805609891384"><ele>634.0</ele><time>2026-05-03T14:21:44Z</time></trkpt><trkpt lat="42.35749771596041" lon="13.349686883683537"><ele>634.0</ele><time>2026-05-03T14:21:45Z</time></trkpt><trkpt lat="42.357453443782994" lon="13.349579901878142"><ele>634.0</ele><time>2026-05-03T14:21:46Z</time></trkpt><trkpt lat="42.357380837363145" lon="13.349487765034265"><ele>634.0</ele><time>2026-05-03T14:21:47Z</time></trkpt><trkpt lat="42.357297345460445" lon="13.349402662134377"><ele>633.75</ele><time>2026-05-03T14:21:48Z</time></trkpt><trkpt lat="42.35720267573521" lon="13.349322716258394"><ele>633.5</ele><time>2026-05-03T14:21:49Z</time></trkpt><trkpt lat="42.35711006883817" lon="13.349218534510317"><ele>633.25</ele><time>2026-05-03T14:21:50Z</time></trkpt><trkpt lat="42.357032668636315" lon="13.3490777884527"><ele>633.0</ele><time>2026-05-03T14:21:51Z</time></trkpt><trkpt lat="42.35697317067174" lon="13.348916251862718"><ele>633.3333333333334</ele><time>2026-05-03T14:21:52Z</time></trkpt><trkpt lat="42.35692481412625" lon="13.348721629912179"><ele>633.6666666666667</ele><time>2026-05-03T14:21:53Z</time></trkpt><trkpt lat="42.35687075777266" lon="13.34851408336835"><ele>634.0</ele><time>2026-05-03T14:21:54Z</time></trkpt><trkpt lat="42.356812284639815" lon="13.348300747094425"><ele>634.0</ele><time>2026-05-03T14:21:55Z</time></trkpt><trkpt lat="42.356751684130664" lon="13.348073509636006"><ele>634.0</ele><time>2026-05-03T14:21:56Z</time></trkpt><trkpt lat="42.356691700028755" lon="13.347831409904144"><ele>634.0</ele><time>2026-05-03T14:21:57Z</time></trkpt><trkpt lat="42.356627060582866" lon="13.347577653564228"><ele>635.0</ele><time>2026-05-03T14:21:58Z</time></trkpt><trkpt lat="42.3565633273899" lon="13.347320387270084"><ele>636.0</ele><time>2026-05-03T14:21:59Z</time></trkpt><trkpt lat="42.3565010828819" lon="13.347064222706218"><ele>637.0</ele><time>2026-05-03T14:22:00Z</time></trkpt><trkpt lat="42.35643929219416" lon="13.346802937256342"><ele>638.0</ele><time>2026-05-03T14:22:01Z</time></trkpt><trkpt lat="42.356372712439686" lon="13.34651710036769"><ele>639.0</ele><time>2026-05-03T14:22:02Z</time></trkpt><trkpt lat="42.35631036068314" lon="13.346248539709606"><ele>640.0</ele><time>2026-05-03T14:22:03Z</time></trkpt><trkpt lat="42.35625069602147" lon="13.34598100207588"><ele>637.3333333333334</ele><time>2026-05-03T14:22:04Z</time></trkpt><trkpt lat="42.35619270758373" lon="13.345725924906084"><ele>634.6666666666666</ele><time>2026-05-03T14:22:05Z</time></trkpt><trkpt lat="42.356134360150996" lon="13.345479524140158"><ele>632.0</ele><time>2026-05-03T14:22:06Z</time></trkpt><trkpt lat="42.35607718718113" lon="13.345235225999263"><ele>632.0</ele><time>2026-05-03T14:22:07Z</time></trkpt><trkpt lat="42.35601977762346" lon="13.344988785422471"><ele>632.0</ele><time>2026-05-03T14:22:08Z</time></trkpt><trkpt lat="42.355964264095164" lon="13.344749229698966"><ele>632.0</ele><time>2026-05-03T14:22:09Z</time></trkpt><trkpt lat="42.35590953724292" lon="13.344509555153426"><ele>633.0</ele><time>2026-05-03T14:22:10Z</time></trkpt><trkpt lat="42.35585756282284" lon="13.344265180259708"><ele>634.0</ele><time>2026-05-03T14:22:11Z</time></trkpt><trkpt lat="42.355811698363645" lon="13.344018549637873"><ele>635.0</ele><time>2026-05-03T14:22:12Z</time></trkpt><trkpt lat="42.355784473763045" lon="13.343774068978123"><ele>635.6666666666666</ele><time>2026-05-03T14:22:13Z</time></trkpt><trkpt lat="42.355776658565055" lon="13.343528474184394"><ele>636.3333333333334</ele><time>2026-05-03T14:22:14Z</time></trkpt><trkpt lat="42.35579398270249" lon="13.343280688749592"><ele>637.0</ele><time>2026-05-03T14:22:15Z</time></trkpt><trkpt lat="42.35582366673956" lon="13.343028851899033"><ele>637.0</ele><time>2026-05-03T14:22:16Z</time></trkpt><trkpt lat="42.35587157935787" lon="13.342774129881088"><ele>637.0</ele><time>2026-05-03T14:22:17Z</time></trkpt><trkpt lat="42.35592808620479" lon="13.342515552472411"><ele>637.0</ele><time>2026-05-03T14:22:18Z</time></trkpt><trkpt lat="42.35598196536019" lon="13.34224730628834"><ele>637.6666666666667</ele><time>2026-05-03T14:22:19Z</time></trkpt><trkpt lat="42.35603393489273" lon="13.341978376891978"><ele>638.3333333333334</ele><time>2026-05-03T14:22:20Z</time></trkpt><trkpt lat="42.35608667532194" lon="13.341704327037407"><ele>639.0</ele><time>2026-05-03T14:22:21Z</time></trkpt><trkpt lat="42.356137005038995" lon="13.341427299658172"><ele>639.0</ele><time>2026-05-03T14:22:22Z</time></trkpt><trkpt lat="42.356187300659094" lon="13.341151190439195"><ele>639.0</ele><time>2026-05-03T14:22:23Z</time></trkpt><trkpt lat="42.35623954949983" lon="13.340878717349666"><ele>639.0</ele><time>2026-05-03T14:22:24Z</time></trkpt><trkpt lat="42.356291411205646" lon="13.34060574930948"><ele>638.6666666666666</ele><time>2026-05-03T14:22:25Z</time></trkpt><trkpt lat="42.356346611667036" lon="13.34032424672644"><ele>638.3333333333333</ele><time>2026-05-03T14:22:26Z</time></trkpt><trkpt lat="42.35640187069153" lon="13.340038396344264"><ele>638.0</ele><time>2026-05-03T14:22:27Z</time></trkpt><trkpt lat="42.35645815468931" lon="13.339748571528625"><ele>639.6666666666666</ele><time>2026-05-03T14:22:28Z</time></trkpt><trkpt lat="42.35651837189674" lon="13.33946169626286"><ele>641.3333333333334</ele><time>2026-05-03T14:22:29Z</time></trkpt><trkpt lat="42.35658715167569" lon="13.339182180404478"><ele>643.0</ele><time>2026-05-03T14:22:30Z</time></trkpt><trkpt lat="42.356658598882326" lon="13.338907875676242"><ele>643.3333333333334</ele><time>2026-05-03T14:22:31Z</time></trkpt><trkpt lat="42.35672701950908" lon="13.338632624855988"><ele>643.6666666666666</ele><time>2026-05-03T14:22:32Z</time></trkpt><trkpt lat="42.356792875648104" lon="13.338372880715212"><ele>644.0</ele><time>2026-05-03T14:22:33Z</time></trkpt><trkpt lat="42.35685227026911" lon="13.338133084571568"><ele>643.3333333333333</ele><time>2026-05-03T14:22:34Z</time></trkpt><trkpt lat="42.35690587899174" lon="13.33790772062279"><ele>642.6666666666666</ele><time>2026-05-03T14:22:35Z</time></trkpt><trkpt lat="42.35695229283945" lon="13.337699151262939"><ele>642.0</ele><time>2026-05-03T14:22:36Z</time></trkpt><trkpt lat="42.35699646946695" lon="13.337499842257335"><ele>642.0</ele><time>2026-05-03T14:22:37Z</time></trkpt><trkpt lat="42.35704187409834" lon="13.337296008594697"><ele>642.0</ele><time>2026-05-03T14:22:38Z</time></trkpt><trkpt lat="42.35708803285299" lon="13.337094114671793"><ele>642.0</ele><time>2026-05-03T14:22:39Z</time></trkpt><trkpt lat="42.35713770490406" lon="13.336894677378055"><ele>641.6666666666666</ele><time>2026-05-03T14:22:40Z</time></trkpt><trkpt lat="42.357194013151506" lon="13.336698405494982"><ele>641.3333333333333</ele><time>2026-05-03T14:22:41Z</time></trkpt><trkpt lat="42.35725327273292" lon="13.336515318090063"><ele>641.0</ele><time>2026-05-03T14:22:42Z</time></trkpt><trkpt lat="42.35731417439312" lon="13.336333877524485"><ele>642.6666666666666</ele><time>2026-05-03T14:22:43Z</time></trkpt><trkpt lat="42.35738372981315" lon="13.336157694359109"><ele>644.3333333333334</ele><time>2026-05-03T14:22:44Z</time></trkpt><trkpt lat="42.35746873285293" lon="13.335981150017924"><ele>646.0</ele><time>2026-05-03T14:22:45Z</time></trkpt><trkpt lat="42.357563623231584" lon="13.335801737805216"><ele>646.0</ele><time>2026-05-03T14:22:46Z</time></trkpt><trkpt lat="42.35765825051452" lon="13.335651084335522"><ele>646.0</ele><time>2026-05-03T14:22:47Z</time></trkpt><trkpt lat="42.357745012096096" lon="13.335522153934207"><ele>646.0</ele><time>2026-05-03T14:22:48Z</time></trkpt><trkpt lat="42.35782551980122" lon="13.335394296836377"><ele>646.0</ele><time>2026-05-03T14:22:49Z</time></trkpt><trkpt lat="42.35789950495778" lon="13.33528140040762"><ele>646.1999999999999</ele><time>2026-05-03T14:22:50Z</time></trkpt><trkpt lat="42.35796824887406" lon="13.335197779438971"><ele>646.4</ele><time>2026-05-03T14:22:51Z</time></trkpt><trkpt lat="42.3580328227618" lon="13.335138322301088"><ele>646.6</ele><time>2026-05-03T14:22:52Z</time></trkpt><trkpt lat="42.35811140087224" lon="13.33507222844712"><ele>646.8</ele><time>2026-05-03T14:22:54Z</time></trkpt><trkpt lat="42.35799819983199" lon="13.33506853213355"><ele>647.0</ele><time>2026-05-03T14:23:04Z</time></trkpt><trkpt lat="42.35791252697058" lon="13.335152693967366"><ele>644.3333333333333</ele><time>2026-05-03T14:23:05Z</time></trkpt><trkpt lat="42.35781340910268" lon="13.335244458159005"><ele>641.6666666666666</ele><time>2026-05-03T14:23:06Z</time></trkpt><trkpt lat="42.35768247778812" lon="13.335374178861587"><ele>639.0</ele><time>2026-05-03T14:23:07Z</time></trkpt><trkpt lat="42.35754199381205" lon="13.335528896781907"><ele>641.3333333333334</ele><time>2026-05-03T14:23:08Z</time></trkpt><trkpt lat="42.35742521378903" lon="13.335692297057012"><ele>643.6666666666667</ele><time>2026-05-03T14:23:09Z</time></trkpt><trkpt lat="42.35733763525645" lon="13.335853753891367"><ele>646.0</ele><time>2026-05-03T14:23:10Z</time></trkpt><trkpt lat="42.35726282029994" lon="13.336009384258416"><ele>644.4</ele><time>2026-05-03T14:23:11Z</time></trkpt><trkpt lat="42.35720021994371" lon="13.336151216049556"><ele>642.8</ele><time>2026-05-03T14:23:12Z</time></trkpt><trkpt lat="42.35715336085778" lon="13.33624989519849"><ele>641.1999999999999</ele><time>2026-05-03T14:23:13Z</time></trkpt><trkpt lat="42.35705823540943" lon="13.336339830622038"><ele>639.5999999999999</ele><time>2026-05-03T14:23:15Z</time></trkpt><trkpt lat="42.35694465829358" lon="13.336292875250589"><ele>638.0</ele><time>2026-05-03T14:23:17Z</time></trkpt><trkpt lat="42.35688963532395" lon="13.336205747556079"><ele>638.0</ele><time>2026-05-03T14:23:18Z</time></trkpt><trkpt lat="42.3567935632024" lon="13.336133256916291"><ele>638.0</ele><time>2026-05-03T14:23:19Z</time></trkpt><trkpt lat="42.35668097483052" lon="13.336005457468463"><ele>638.0</ele><time>2026-05-03T14:23:20Z</time></trkpt><trkpt lat="42.35653707762478" lon="13.335867918110367"><ele>638.0</ele><time>2026-05-03T14:23:21Z</time></trkpt><trkpt lat="42.35639345831788" lon="13.33573934709576"><ele>638.4</ele><time>2026-05-03T14:23:22Z</time></trkpt><trkpt lat="42.35627559493564" lon="13.335637019973502"><ele>638.8</ele><time>2026-05-03T14:23:23Z</time></trkpt><trkpt lat="42.35617391543419" lon="13.335545414219231"><ele>639.2</ele><time>2026-05-03T14:23:24Z</time></trkpt><trkpt lat="42.3560909688326" lon="13.335468197546481"><ele>639.6</ele><time>2026-05-03T14:23:25Z</time></trkpt><trkpt lat="42.35602382185356" lon="13.33540946791824"><ele>640.0</ele><time>2026-05-03T14:23:26Z</time></trkpt><trkpt lat="42.35596528642672" lon="13.33533781094793"><ele>640.5</ele><time>2026-05-03T14:23:27Z</time></trkpt><trkpt lat="42.35590130624267" lon="13.335206128513827"><ele>641.0</ele><time>2026-05-03T14:23:28Z</time></trkpt><trkpt lat="42.35581089706751" lon="13.335023129899769"><ele>641.5</ele><time>2026-05-03T14:23:29Z</time></trkpt><trkpt lat="42.35574768212605" lon="13.334817495270014"><ele>642.0</ele><time>2026-05-03T14:23:30Z</time></trkpt><trkpt lat="42.35570413422476" lon="13.334604539413455"><ele>643.3333333333334</ele><time>2026-05-03T14:23:31Z</time></trkpt><trkpt lat="42.35568930750803" lon="13.334403847610089"><ele>644.6666666666667</ele><time>2026-05-03T14:23:32Z</time></trkpt><trkpt lat="42.35569940078612" lon="13.334170493113994"><ele>646.0</ele><time>2026-05-03T14:23:33Z</time></trkpt><trkpt lat="42.35570867986968" lon="13.333824973193629"><ele>646.5</ele><time>2026-05-03T14:23:34Z</time></trkpt><trkpt lat="42.35575968704399" lon="13.333467831307605"><ele>647.0</ele><time>2026-05-03T14:23:35Z</time></trkpt><trkpt lat="42.355777458836016" lon="13.333124007892229"><ele>647.5</ele><time>2026-05-03T14:23:36Z</time></trkpt><trkpt lat="42.35580127635553" lon="13.332722284989028"><ele>648.0</ele><time>2026-05-03T14:23:37Z</time></trkpt><trkpt lat="42.355820890755936" lon="13.33230876073579"><ele>650.0</ele><time>2026-05-03T14:23:38Z</time></trkpt><trkpt lat="42.35585367682509" lon="13.331949712830177"><ele>652.0</ele><time>2026-05-03T14:23:39Z</time></trkpt><trkpt lat="42.35586831703369" lon="13.33161405422675"><ele>652.3333333333334</ele><time>2026-05-03T14:23:40Z</time></trkpt><trkpt lat="42.35588408946662" lon="13.331315135207971"><ele>652.6666666666666</ele><time>2026-05-03T14:23:41Z</time></trkpt><trkpt lat="42.35589891774449" lon="13.3310493554911"><ele>653.0</ele><time>2026-05-03T14:23:42Z</time></trkpt><trkpt lat="42.35593115914011" lon="13.330777007428983"><ele>652.5</ele><time>2026-05-03T14:23:43Z</time></trkpt><trkpt lat="42.35599154225927" lon="13.330460165529523"><ele>652.0</ele><time>2026-05-03T14:23:44Z</time></trkpt><trkpt lat="42.35607472178242" lon="13.33012946933332"><ele>652.0</ele><time>2026-05-03T14:23:45Z</time></trkpt><trkpt lat="42.35613846989823" lon="13.329835792809199"><ele>652.0</ele><time>2026-05-03T14:23:46Z</time></trkpt><trkpt lat="42.356192593990635" lon="13.329572038141805"><ele>652.0</ele><time>2026-05-03T14:23:47Z</time></trkpt><trkpt lat="42.356240524972335" lon="13.329332542024444"><ele>652.0</ele><time>2026-05-03T14:23:48Z</time></trkpt><trkpt lat="42.35628368166762" lon="13.32910866928961"><ele>652.0</ele><time>2026-05-03T14:23:49Z</time></trkpt><trkpt lat="42.35630761330348" lon="13.328882454306598"><ele>652.0</ele><time>2026-05-03T14:23:50Z</time></trkpt><trkpt lat="42.35627252412961" lon="13.328653106460544"><ele>652.0</ele><time>2026-05-03T14:23:51Z</time></trkpt><trkpt lat="42.35616470368958" lon="13.328412526806854"><ele>652.0</ele><time>2026-05-03T14:23:52Z</time></trkpt><trkpt lat="42.35601791414898" lon="13.328154994474936"><ele>652.0</ele><time>2026-05-03T14:23:53Z</time></trkpt><trkpt lat="42.35584584433257" lon="13.327868940833113"><ele>652.5</ele><time>2026-05-03T14:23:54Z</time></trkpt><trkpt lat="42.355684898725876" lon="13.327571398997794"><ele>653.0</ele><time>2026-05-03T14:23:55Z</time></trkpt><trkpt lat="42.355545994695305" lon="13.327316273544307"><ele>653.6666666666666</ele><time>2026-05-03T14:23:56Z</time></trkpt><trkpt lat="42.35541877791047" lon="13.327086611233975"><ele>654.3333333333334</ele><time>2026-05-03T14:23:57Z</time></trkpt><trkpt lat="42.35529748526658" lon="13.326884172265386"><ele>655.0</ele><time>2026-05-03T14:23:58.001Z</time></trkpt><trkpt lat="42.35515859732274" lon="13.326689189631944"><ele>655.0</ele><time>2026-05-03T14:23:59.001Z</time></trkpt><trkpt lat="42.3550172761832" lon="13.326436134396404"><ele>655.0</ele><time>2026-05-03T14:24:00.001Z</time></trkpt><trkpt lat="42.35486701209478" lon="13.3261502152679"><ele>655.0</ele><time>2026-05-03T14:24:01.001Z</time></trkpt><trkpt lat="42.35474132979268" lon="13.325858731917561"><ele>655.0</ele><time>2026-05-03T14:24:02.001Z</time></trkpt><trkpt lat="42.35461679515228" lon="13.325615078757856"><ele>655.6666666666667</ele><time>2026-05-03T14:24:03.001Z</time></trkpt><trkpt lat="42.35448904391315" lon="13.325403608213954"><ele>656.3333333333334</ele><time>2026-05-03T14:24:04.001Z</time></trkpt><trkpt lat="42.354354666374746" lon="13.325174454078407"><ele>657.0</ele><time>2026-05-03T14:24:05.001Z</time></trkpt><trkpt lat="42.354226000608165" lon="13.3249169310784"><ele>659.0</ele><time>2026-05-03T14:24:06.001Z</time></trkpt><trkpt lat="42.354102571663745" lon="13.32463623427619"><ele>661.0</ele><time>2026-05-03T14:24:07.001Z</time></trkpt><trkpt lat="42.35398944629073" lon="13.324368565015812"><ele>661.0</ele><time>2026-05-03T14:24:08.001Z</time></trkpt><trkpt lat="42.35387839940597" lon="13.324126744425271"><ele>661.0</ele><time>2026-05-03T14:24:09.001Z</time></trkpt><trkpt lat="42.3537698430853" lon="13.323897360584033"><ele>661.0</ele><time>2026-05-03T14:24:10.001Z</time></trkpt><trkpt lat="42.353665837799184" lon="13.323676086431574"><ele>661.25</ele><time>2026-05-03T14:24:11.001Z</time></trkpt><trkpt lat="42.35357698312993" lon="13.323482324468577"><ele>661.5</ele><time>2026-05-03T14:24:12.001Z</time></trkpt><trkpt lat="42.353508255172756" lon="13.323325054325464"><ele>661.75</ele><time>2026-05-03T14:24:13.001Z</time></trkpt><trkpt lat="42.353454663527785" lon="13.323190916616639"><ele>662.0</ele><time>2026-05-03T14:24:14.001Z</time></trkpt><trkpt lat="42.35341312433825" lon="13.323083405173266"><ele>662.5</ele><time>2026-05-03T14:24:15.001Z</time></trkpt><trkpt lat="42.35338023426167" lon="13.322982006332666"><ele>663.0</ele><time>2026-05-03T14:24:16.001Z</time></trkpt><trkpt lat="42.35335744311132" lon="13.322887344763107"><ele>663.5</ele><time>2026-05-03T14:24:17.001Z</time></trkpt><trkpt lat="42.353333095894875" lon="13.322805136331173"><ele>664.0</ele><time>2026-05-03T14:24:18.001Z</time></trkpt><trkpt lat="42.35327939891353" lon="13.322758387191143"><ele>664.5</ele><time>2026-05-03T14:24:19.001Z</time></trkpt><trkpt lat="42.353200590310074" lon="13.322752719398308"><ele>665.0</ele><time>2026-05-03T14:24:20.001Z</time></trkpt><trkpt lat="42.353085128530964" lon="13.322797779114458"><ele>665.6666666666666</ele><time>2026-05-03T14:24:21.001Z</time></trkpt><trkpt lat="42.35294684863918" lon="13.322814868301379"><ele>666.3333333333334</ele><time>2026-05-03T14:24:22Z</time></trkpt><trkpt lat="42.35275847225287" lon="13.322774097534868"><ele>667.0</ele><time>2026-05-03T14:24:23Z</time></trkpt><trkpt lat="42.35256186926397" lon="13.322720049537615"><ele>667.0</ele><time>2026-05-03T14:24:24Z</time></trkpt><trkpt lat="42.352386473578896" lon="13.322662357599661"><ele>667.0</ele><time>2026-05-03T14:24:25Z</time></trkpt><trkpt lat="42.352223122800716" lon="13.3225834481033"><ele>667.0</ele><time>2026-05-03T14:24:26Z</time></trkpt><trkpt lat="42.35206347549039" lon="13.322476109961276"><ele>667.6666666666667</ele><time>2026-05-03T14:24:27Z</time></trkpt><trkpt lat="42.35191126969574" lon="13.322336096515656"><ele>668.3333333333334</ele><time>2026-05-03T14:24:28Z</time></trkpt><trkpt lat="42.35176094926033" lon="13.322183965845044"><ele>669.0</ele><time>2026-05-03T14:24:29Z</time></trkpt><trkpt lat="42.351592854110834" lon="13.322003515480047"><ele>671.0</ele><time>2026-05-03T14:24:30Z</time></trkpt><trkpt lat="42.351405550917555" lon="13.321774085614459"><ele>673.0</ele><time>2026-05-03T14:24:31Z</time></trkpt><trkpt lat="42.35122304274654" lon="13.321521851470413"><ele>675.0</ele><time>2026-05-03T14:24:32Z</time></trkpt><trkpt lat="42.35106654582478" lon="13.321303449845425"><ele>677.0</ele><time>2026-05-03T14:24:33Z</time></trkpt><trkpt lat="42.35093170124441" lon="13.321100963242866"><ele>679.0</ele><time>2026-05-03T14:24:34Z</time></trkpt><trkpt lat="42.35080550949275" lon="13.32087113814218"><ele>679.0</ele><time>2026-05-03T14:24:35Z</time></trkpt><trkpt lat="42.35070401872254" lon="13.320634169954966"><ele>679.0</ele><time>2026-05-03T14:24:36Z</time></trkpt><trkpt lat="42.350619304473994" lon="13.320386824600158"><ele>679.0</ele><time>2026-05-03T14:24:37Z</time></trkpt><trkpt lat="42.350572761773535" lon="13.320165432949173"><ele>679.0</ele><time>2026-05-03T14:24:38Z</time></trkpt><trkpt lat="42.35054013828158" lon="13.319969442763465"><ele>679.0</ele><time>2026-05-03T14:24:39Z</time></trkpt><trkpt lat="42.35048528723507" lon="13.319797708066716"><ele>679.0</ele><time>2026-05-03T14:24:40Z</time></trkpt><trkpt lat="42.35037272386844" lon="13.319652229107964"><ele>679.0</ele><time>2026-05-03T14:24:41Z</time></trkpt><trkpt lat="42.35019842316151" lon="13.319506430087493"><ele>681.5</ele><time>2026-05-03T14:24:42Z</time></trkpt><trkpt lat="42.349960468450334" lon="13.319359648578876"><ele>684.0</ele><time>2026-05-03T14:24:43Z</time></trkpt><trkpt lat="42.34971545413151" lon="13.319203899713223"><ele>685.0</ele><time>2026-05-03T14:24:44Z</time></trkpt><trkpt lat="42.349470816658844" lon="13.319023536119973"><ele>686.0</ele><time>2026-05-03T14:24:45Z</time></trkpt><trkpt lat="42.349226244601844" lon="13.318852733715616"><ele>690.6666666666666</ele><time>2026-05-03T14:24:46Z</time></trkpt><trkpt lat="42.34900378335971" lon="13.318758466580986"><ele>695.3333333333334</ele><time>2026-05-03T14:24:47Z</time></trkpt><trkpt lat="42.3487997987229" lon="13.318705304152584"><ele>700.0</ele><time>2026-05-03T14:24:48Z</time></trkpt><trkpt lat="42.34861185203951" lon="13.318667576332093"><ele>701.0</ele><time>2026-05-03T14:24:49Z</time></trkpt><trkpt lat="42.34843170298062" lon="13.318645504328614"><ele>702.0</ele><time>2026-05-03T14:24:50Z</time></trkpt><trkpt lat="42.34826942783344" lon="13.318656478341667"><ele>703.0</ele><time>2026-05-03T14:24:51Z</time></trkpt><trkpt lat="42.348118105313674" lon="13.318686691168311"><ele>702.2</ele><time>2026-05-03T14:24:52Z</time></trkpt><trkpt lat="42.34798189205385" lon="13.318720090183083"><ele>701.4</ele><time>2026-05-03T14:24:53Z</time></trkpt><trkpt lat="42.34786893470585" lon="13.318746157186016"><ele>700.6</ele><time>2026-05-03T14:24:54Z</time></trkpt><trkpt lat="42.34777613097162" lon="13.318757569048335"><ele>699.8000000000001</ele><time>2026-05-03T14:24:55Z</time></trkpt><trkpt lat="42.347695595376585" lon="13.31875184971259"><ele>699.0</ele><time>2026-05-03T14:24:56Z</time></trkpt><trkpt lat="42.347619996821486" lon="13.318731940199116"><ele>699.0</ele><time>2026-05-03T14:24:57Z</time></trkpt><trkpt lat="42.34754475355433" lon="13.31868837916371"><ele>699.0</ele><time>2026-05-03T14:24:58Z</time></trkpt><trkpt lat="42.3474625958976" lon="13.318609112694007"><ele>699.0</ele><time>2026-05-03T14:24:59Z</time></trkpt><trkpt lat="42.347393307072224" lon="13.318489549200729"><ele>699.0</ele><time>2026-05-03T14:25:00Z</time></trkpt><trkpt lat="42.347348522187644" lon="13.318341154162358"><ele>699.0</ele><time>2026-05-03T14:25:01Z</time></trkpt><trkpt lat="42.34731303632295" lon="13.318204289697555"><ele>699.0</ele><time>2026-05-03T14:25:02Z</time></trkpt><trkpt lat="42.34727736322522" lon="13.318062380175947"><ele>699.0</ele><time>2026-05-03T14:25:03Z</time></trkpt><trkpt lat="42.34724193467732" lon="13.31792695317923"><ele>699.0</ele><time>2026-05-03T14:25:04Z</time></trkpt><trkpt lat="42.3471950158115" lon="13.317794979524933"><ele>699.0</ele><time>2026-05-03T14:25:05Z</time></trkpt><trkpt lat="42.34713199713481" lon="13.317663650626988"><ele>699.0</ele><time>2026-05-03T14:25:06Z</time></trkpt><trkpt lat="42.347051441606375" lon="13.317566791608568"><ele>699.0</ele><time>2026-05-03T14:25:07Z</time></trkpt><trkpt lat="42.346939039876936" lon="13.317492435929216"><ele>699.0</ele><time>2026-05-03T14:25:08Z</time></trkpt><trkpt lat="42.34682439051712" lon="13.317474263275866"><ele>699.0</ele><time>2026-05-03T14:25:09Z</time></trkpt><trkpt lat="42.34671063757392" lon="13.317476958105454"><ele>699.0</ele><time>2026-05-03T14:25:10Z</time></trkpt><trkpt lat="42.34661020046045" lon="13.31748935630117"><ele>699.0</ele><time>2026-05-03T14:25:11Z</time></trkpt><trkpt lat="42.34651851273735" lon="13.317478997964969"><ele>699.0</ele><time>2026-05-03T14:25:12Z</time></trkpt><trkpt lat="42.346412087074306" lon="13.317487456754002"><ele>699.0</ele><time>2026-05-03T14:25:13Z</time></trkpt><trkpt lat="42.34632167363815" lon="13.317457131782932"><ele>699.0</ele><time>2026-05-03T14:25:14Z</time></trkpt><trkpt lat="42.3462451908304" lon="13.31739831379111"><ele>699.0</ele><time>2026-05-03T14:25:15Z</time></trkpt><trkpt lat="42.346162195167906" lon="13.317315815228241"><ele>700.4000000000001</ele><time>2026-05-03T14:25:16Z</time></trkpt><trkpt lat="42.34609418664531" lon="13.317257161073172"><ele>701.8</ele><time>2026-05-03T14:25:17Z</time></trkpt><trkpt lat="42.34601432268734" lon="13.317223284709561"><ele>703.2</ele><time>2026-05-03T14:25:18Z</time></trkpt><trkpt lat="42.34591510083595" lon="13.31723313707018"><ele>704.5999999999999</ele><time>2026-05-03T14:25:19Z</time></trkpt><trkpt lat="42.34581771121742" lon="13.317289669657011"><ele>706.0</ele><time>2026-05-03T14:25:20Z</time></trkpt><trkpt lat="42.345758551291766" lon="13.317371282334872"><ele>706.0</ele><time>2026-05-03T14:25:21Z</time></trkpt><trkpt lat="42.34569098880674" lon="13.317453405898261"><ele>706.0</ele><time>2026-05-03T14:25:22Z</time></trkpt><trkpt lat="42.345613811918085" lon="13.317552534444859"><ele>706.0</ele><time>2026-05-03T14:25:23Z</time></trkpt><trkpt lat="42.34556437535409" lon="13.317657129669152"><ele>706.0</ele><time>2026-05-03T14:25:24Z</time></trkpt><trkpt lat="42.34555082460845" lon="13.317781951718699"><ele>706.0</ele><time>2026-05-03T14:25:25Z</time></trkpt><trkpt lat="42.34551643815049" lon="13.317900304109235"><ele>707.5</ele><time>2026-05-03T14:25:26Z</time></trkpt><trkpt lat="42.34549811299052" lon="13.318007267097196"><ele>709.0</ele><time>2026-05-03T14:25:27Z</time></trkpt><trkpt lat="42.34546998273343" lon="13.318105676779126"><ele>710.5</ele><time>2026-05-03T14:25:28Z</time></trkpt><trkpt lat="42.345400106174175" lon="13.318180439121903"><ele>712.0</ele><time>2026-05-03T14:25:29Z</time></trkpt><trkpt lat="42.34532198302239" lon="13.318225930096508"><ele>713.5</ele><time>2026-05-03T14:25:30Z</time></trkpt><trkpt lat="42.3452506200623" lon="13.318257502428677"><ele>715.0</ele><time>2026-05-03T14:25:31Z</time></trkpt><trkpt lat="42.34516980094966" lon="13.318323022280643"><ele>715.0</ele><time>2026-05-03T14:25:32Z</time></trkpt><trkpt lat="42.34509430647537" lon="13.318406449973281"><ele>715.0</ele><time>2026-05-03T14:25:33Z</time></trkpt><trkpt lat="42.3450334098183" lon="13.318488134733347"><ele>715.0</ele><time>2026-05-03T14:25:34Z</time></trkpt><trkpt lat="42.34498230686978" lon="13.318574439940063"><ele>715.0</ele><time>2026-05-03T14:25:35Z</time></trkpt><trkpt lat="42.344938690526654" lon="13.318684458148274"><ele>715.0</ele><time>2026-05-03T14:25:36Z</time></trkpt><trkpt lat="42.3449040029736" lon="13.318797523888906"><ele>715.0</ele><time>2026-05-03T14:25:37Z</time></trkpt><trkpt lat="42.344872931981534" lon="13.318904392928482"><ele>715.4</ele><time>2026-05-03T14:25:38Z</time></trkpt><trkpt lat="42.3448314088033" lon="13.319012324632812"><ele>715.8</ele><time>2026-05-03T14:25:39Z</time></trkpt><trkpt lat="42.34475169297635" lon="13.319096980746528"><ele>716.2</ele><time>2026-05-03T14:25:40Z</time></trkpt><trkpt lat="42.34464869669022" lon="13.31916596437048"><ele>716.6</ele><time>2026-05-03T14:25:41Z</time></trkpt><trkpt lat="42.34454547544272" lon="13.31916338624427"><ele>717.0</ele><time>2026-05-03T14:25:42Z</time></trkpt><trkpt lat="42.34446412479775" lon="13.319164988008554"><ele>717.8</ele><time>2026-05-03T14:25:43Z</time></trkpt><trkpt lat="42.344347741533774" lon="13.31917005619687"><ele>718.6</ele><time>2026-05-03T14:25:44Z</time></trkpt><trkpt lat="42.34425242987652" lon="13.319178162285334"><ele>719.4</ele><time>2026-05-03T14:25:45Z</time></trkpt><trkpt lat="42.34414051391211" lon="13.319189717320302"><ele>720.1999999999999</ele><time>2026-05-03T14:25:46Z</time></trkpt><trkpt lat="42.34404697463474" lon="13.319215158450515"><ele>721.0</ele><time>2026-05-03T14:25:47Z</time></trkpt><trkpt lat="42.34396965929729" lon="13.31928785207001"><ele>721.0</ele><time>2026-05-03T14:25:48Z</time></trkpt><trkpt lat="42.343898326405025" lon="13.319386258340336"><ele>721.0</ele><time>2026-05-03T14:25:49Z</time></trkpt><trkpt lat="42.34385171338527" lon="13.319488277341373"><ele>721.0</ele><time>2026-05-03T14:25:50Z</time></trkpt><trkpt lat="42.34381141913521" lon="13.31959790168166"><ele>721.0</ele><time>2026-05-03T14:25:51Z</time></trkpt><trkpt lat="42.34377691939513" lon="13.31969476174629"><ele>721.0</ele><time>2026-05-03T14:25:52Z</time></trkpt><trkpt lat="42.34374104109695" lon="13.319785693889203"><ele>721.0</ele><time>2026-05-03T14:25:53Z</time></trkpt><trkpt lat="42.34368984830398" lon="13.319880042454669"><ele>720.75</ele><time>2026-05-03T14:25:54Z</time></trkpt><trkpt lat="42.34362598105741" lon="13.319950401237373"><ele>720.5</ele><time>2026-05-03T14:25:55Z</time></trkpt><trkpt lat="42.34352498965034" lon="13.319978607212027"><ele>720.25</ele><time>2026-05-03T14:25:56Z</time></trkpt><trkpt lat="42.343388294119315" lon="13.31997277485547"><ele>720.0</ele><time>2026-05-03T14:25:57Z</time></trkpt><trkpt lat="42.34320634683566" lon="13.319916459524208"><ele>720.3333333333334</ele><time>2026-05-03T14:25:58Z</time></trkpt><trkpt lat="42.342998885651355" lon="13.319867845147284"><ele>720.6666666666667</ele><time>2026-05-03T14:25:59Z</time></trkpt><trkpt lat="42.342778544804155" lon="13.319814779376747"><ele>721.0</ele><time>2026-05-03T14:26:00Z</time></trkpt><trkpt lat="42.342559869649946" lon="13.319752015874972"><ele>720.3333333333334</ele><time>2026-05-03T14:26:01Z</time></trkpt><trkpt lat="42.34236866915464" lon="13.319722562857844"><ele>719.6666666666666</ele><time>2026-05-03T14:26:02Z</time></trkpt><trkpt lat="42.34218157420721" lon="13.31973089124361"><ele>719.0</ele><time>2026-05-03T14:26:03Z</time></trkpt><trkpt lat="42.341985001922474" lon="13.319756080757633"><ele>718.0</ele><time>2026-05-03T14:26:04.001Z</time></trkpt><trkpt lat="42.34179331158639" lon="13.31967029983152"><ele>717.0</ele><time>2026-05-03T14:26:05.001Z</time></trkpt><trkpt lat="42.341586979298626" lon="13.319585690130646"><ele>716.0</ele><time>2026-05-03T14:26:06.001Z</time></trkpt><trkpt lat="42.34137417646498" lon="13.31951535510303"><ele>716.0</ele><time>2026-05-03T14:26:07.001Z</time></trkpt><trkpt lat="42.34113255656191" lon="13.319515557453688"><ele>716.0</ele><time>2026-05-03T14:26:08.001Z</time></trkpt><trkpt lat="42.34091710678496" lon="13.31951247427809"><ele>716.0</ele><time>2026-05-03T14:26:09.001Z</time></trkpt><trkpt lat="42.34072692659938" lon="13.319411643643093"><ele>716.0</ele><time>2026-05-03T14:26:10.001Z</time></trkpt><trkpt lat="42.34047846326548" lon="13.319290321748815"><ele>719.5</ele><time>2026-05-03T14:26:11.001Z</time></trkpt><trkpt lat="42.340225455685925" lon="13.319131989265028"><ele>723.0</ele><time>2026-05-03T14:26:12.001Z</time></trkpt><trkpt lat="42.34000184384975" lon="13.318997550987119"><ele>721.6666666666666</ele><time>2026-05-03T14:26:13.001Z</time></trkpt><trkpt lat="42.339808931919734" lon="13.318885224979665"><ele>720.3333333333333</ele><time>2026-05-03T14:26:14.001Z</time></trkpt><trkpt lat="42.33958254386808" lon="13.318800408721028"><ele>719.0</ele><time>2026-05-03T14:26:15.001Z</time></trkpt><trkpt lat="42.33931375448574" lon="13.318754533123396"><ele>719.0</ele><time>2026-05-03T14:26:16.001Z</time></trkpt><trkpt lat="42.3390234531941" lon="13.31872462267953"><ele>719.0</ele><time>2026-05-03T14:26:17.001Z</time></trkpt><trkpt lat="42.33877231866937" lon="13.318718013235591"><ele>720.3333333333333</ele><time>2026-05-03T14:26:18.001Z</time></trkpt><trkpt lat="42.33855474335841" lon="13.318719267506077"><ele>721.6666666666666</ele><time>2026-05-03T14:26:19.001Z</time></trkpt><trkpt lat="42.338369523503765" lon="13.318714373510534"><ele>723.0</ele><time>2026-05-03T14:26:20.001Z</time></trkpt><trkpt lat="42.33819316441319" lon="13.318730755821814"><ele>723.6666666666666</ele><time>2026-05-03T14:26:21.001Z</time></trkpt><trkpt lat="42.338018885863995" lon="13.318851539559098"><ele>724.3333333333333</ele><time>2026-05-03T14:26:22.001Z</time></trkpt><trkpt lat="42.337811241495416" lon="13.318968970920954"><ele>725.0</ele><time>2026-05-03T14:26:23.001Z</time></trkpt><trkpt lat="42.33762265198528" lon="13.319115617975063"><ele>725.3333333333333</ele><time>2026-05-03T14:26:24.001Z</time></trkpt><trkpt lat="42.337477550756816" lon="13.319320503644974"><ele>725.6666666666666</ele><time>2026-05-03T14:26:25.001Z</time></trkpt><trkpt lat="42.33732528776896" lon="13.319508188423676"><ele>726.0</ele><time>2026-05-03T14:26:26.001Z</time></trkpt><trkpt lat="42.337185925896065" lon="13.319701838823901"><ele>727.3333333333334</ele><time>2026-05-03T14:26:27.001Z</time></trkpt><trkpt lat="42.337012447149675" lon="13.319840885789443"><ele>728.6666666666667</ele><time>2026-05-03T14:26:28.001Z</time></trkpt><trkpt lat="42.336789025368965" lon="13.31992709919973"><ele>730.0</ele><time>2026-05-03T14:26:29.001Z</time></trkpt><trkpt lat="42.336534011488894" lon="13.32001047113847"><ele>728.0</ele><time>2026-05-03T14:26:30.001Z</time></trkpt><trkpt lat="42.33626149808896" lon="13.320169374430472"><ele>726.0</ele><time>2026-05-03T14:26:31.001Z</time></trkpt><trkpt lat="42.33598308970482" lon="13.320337382428047"><ele>726.0</ele><time>2026-05-03T14:26:32.001Z</time></trkpt><trkpt lat="42.33567904796003" lon="13.320526802700567"><ele>726.0</ele><time>2026-05-03T14:26:33.001Z</time></trkpt><trkpt lat="42.335356141333875" lon="13.320709824179739"><ele>730.5</ele><time>2026-05-03T14:26:34.001Z</time></trkpt><trkpt lat="42.33502488200541" lon="13.320899506811203"><ele>735.0</ele><time>2026-05-03T14:26:35.001Z</time></trkpt><trkpt lat="42.334721976795116" lon="13.321074020448302"><ele>733.0</ele><time>2026-05-03T14:26:36Z</time></trkpt><trkpt lat="42.33445002285981" lon="13.321231184731209"><ele>731.0</ele><time>2026-05-03T14:26:37Z</time></trkpt><trkpt lat="42.33419941637861" lon="13.321373843606242"><ele>731.5</ele><time>2026-05-03T14:26:38Z</time></trkpt><trkpt lat="42.33397743438192" lon="13.32152211772503"><ele>732.0</ele><time>2026-05-03T14:26:39Z</time></trkpt><trkpt lat="42.33376524302214" lon="13.32166138675157"><ele>732.0</ele><time>2026-05-03T14:26:40Z</time></trkpt><trkpt lat="42.33355475127767" lon="13.321773369986321"><ele>732.0</ele><time>2026-05-03T14:26:41Z</time></trkpt><trkpt lat="42.3333054934125" lon="13.321853122221267"><ele>734.5</ele><time>2026-05-03T14:26:42Z</time></trkpt><trkpt lat="42.33303248572447" lon="13.321917894943224"><ele>737.0</ele><time>2026-05-03T14:26:43Z</time></trkpt><trkpt lat="42.33274932260909" lon="13.321970638586478"><ele>737.0</ele><time>2026-05-03T14:26:44Z</time></trkpt><trkpt lat="42.3324375551031" lon="13.322015601470703"><ele>737.0</ele><time>2026-05-03T14:26:45Z</time></trkpt><trkpt lat="42.33214574825957" lon="13.322063939071466"><ele>738.0</ele><time>2026-05-03T14:26:46Z</time></trkpt><trkpt lat="42.33188681205439" lon="13.322104800265452"><ele>739.0</ele><time>2026-05-03T14:26:47Z</time></trkpt><trkpt lat="42.33165071629551" lon="13.322135662669515"><ele>739.0</ele><time>2026-05-03T14:26:48Z</time></trkpt><trkpt lat="42.33142836866716" lon="13.322175546117272"><ele>739.0</ele><time>2026-05-03T14:26:49Z</time></trkpt><trkpt lat="42.331218967987525" lon="13.322204051102108"><ele>739.0</ele><time>2026-05-03T14:26:50Z</time></trkpt><trkpt lat="42.330989569823224" lon="13.322162863976827"><ele>739.5</ele><time>2026-05-03T14:26:51Z</time></trkpt><trkpt lat="42.33074768086937" lon="13.32207395861714"><ele>740.0</ele><time>2026-05-03T14:26:52Z</time></trkpt><trkpt lat="42.330537959458674" lon="13.321983540282886"><ele>741.3333333333333</ele><time>2026-05-03T14:26:53Z</time></trkpt><trkpt lat="42.330345373984336" lon="13.321914479871579"><ele>742.6666666666666</ele><time>2026-05-03T14:26:54Z</time></trkpt><trkpt lat="42.3301433059886" lon="13.321863387248758"><ele>744.0</ele><time>2026-05-03T14:26:55Z</time></trkpt><trkpt lat="42.32989417039241" lon="13.321857097382335"><ele>747.0</ele><time>2026-05-03T14:26:56Z</time></trkpt><trkpt lat="42.32961249124106" lon="13.321891728215947"><ele>750.0</ele><time>2026-05-03T14:26:57Z</time></trkpt><trkpt lat="42.32931347669193" lon="13.321896125116785"><ele>750.0</ele><time>2026-05-03T14:26:58Z</time></trkpt><trkpt lat="42.32903462700355" lon="13.32184274591694"><ele>750.0</ele><time>2026-05-03T14:26:59Z</time></trkpt><trkpt lat="42.32877571746582" lon="13.321831756490512"><ele>750.0</ele><time>2026-05-03T14:27:00Z</time></trkpt><trkpt lat="42.328502492684606" lon="13.32185874388553"><ele>750.0</ele><time>2026-05-03T14:27:01Z</time></trkpt><trkpt lat="42.32825947970422" lon="13.321918358019381"><ele>750.6666666666666</ele><time>2026-05-03T14:27:02Z</time></trkpt><trkpt lat="42.328035892420026" lon="13.321967621822463"><ele>751.3333333333333</ele><time>2026-05-03T14:27:03Z</time></trkpt><trkpt lat="42.327855313397826" lon="13.322042893746978"><ele>752.0</ele><time>2026-05-03T14:27:04Z</time></trkpt><trkpt lat="42.327704153640255" lon="13.32215084538973"><ele>755.0</ele><time>2026-05-03T14:27:05Z</time></trkpt><trkpt lat="42.32757699066277" lon="13.322265467084817"><ele>758.0</ele><time>2026-05-03T14:27:06Z</time></trkpt><trkpt lat="42.327463398601175" lon="13.322334265565496"><ele>761.0</ele><time>2026-05-03T14:27:07Z</time></trkpt><trkpt lat="42.3273587073641" lon="13.322325341196168"><ele>764.0</ele><time>2026-05-03T14:27:08Z</time></trkpt><trkpt lat="42.32724399543791" lon="13.322242629015058"><ele>763.6666666666666</ele><time>2026-05-03T14:27:09Z</time></trkpt><trkpt lat="42.32711505681161" lon="13.322109774262694"><ele>763.3333333333334</ele><time>2026-05-03T14:27:10Z</time></trkpt><trkpt lat="42.326917570550194" lon="13.321892349317796"><ele>763.0</ele><time>2026-05-03T14:27:11Z</time></trkpt><trkpt lat="42.326720378778234" lon="13.321750701555532"><ele>763.0</ele><time>2026-05-03T14:27:12Z</time></trkpt><trkpt lat="42.32654507902361" lon="13.321634283786691"><ele>763.0</ele><time>2026-05-03T14:27:13Z</time></trkpt><trkpt lat="42.326433971540034" lon="13.321481986747735"><ele>763.0</ele><time>2026-05-03T14:27:14Z</time></trkpt><trkpt lat="42.32633873577746" lon="13.321294811927578"><ele>762.5999999999999</ele><time>2026-05-03T14:27:15Z</time></trkpt><trkpt lat="42.32629632413825" lon="13.321157171868661"><ele>762.1999999999999</ele><time>2026-05-03T14:27:16Z</time></trkpt><trkpt lat="42.326238827218425" lon="13.321042132901576"><ele>761.8</ele><time>2026-05-03T14:27:17Z</time></trkpt><trkpt lat="42.3261621303774" lon="13.320938584838707"><ele>761.4</ele><time>2026-05-03T14:27:18Z</time></trkpt><trkpt lat="42.326064823399804" lon="13.32090142227226"><ele>761.0</ele><time>2026-05-03T14:27:19Z</time></trkpt><trkpt lat="42.325957970956836" lon="13.320925280180587"><ele>761.0</ele><time>2026-05-03T14:27:20Z</time></trkpt><trkpt lat="42.325845976086825" lon="13.321008132146032"><ele>761.0</ele><time>2026-05-03T14:27:21Z</time></trkpt><trkpt lat="42.325733372883334" lon="13.321147737940136"><ele>761.0</ele><time>2026-05-03T14:27:22Z</time></trkpt><trkpt lat="42.32560543212564" lon="13.32128861058647"><ele>761.0</ele><time>2026-05-03T14:27:23Z</time></trkpt><trkpt lat="42.3254368928587" lon="13.321437057395004"><ele>763.3333333333333</ele><time>2026-05-03T14:27:24Z</time></trkpt><trkpt lat="42.3252912271912" lon="13.321570167640273"><ele>765.6666666666666</ele><time>2026-05-03T14:27:25Z</time></trkpt><trkpt lat="42.325175491270684" lon="13.321697353140642"><ele>768.0</ele><time>2026-05-03T14:27:26Z</time></trkpt><trkpt lat="42.32507607657208" lon="13.321825029898957"><ele>768.0</ele><time>2026-05-03T14:27:27Z</time></trkpt><trkpt lat="42.324991383565894" lon="13.321960168786179"><ele>768.0</ele><time>2026-05-03T14:27:28Z</time></trkpt><trkpt lat="42.32490535217835" lon="13.322091227785412"><ele>768.0</ele><time>2026-05-03T14:27:29Z</time></trkpt><trkpt lat="42.324771816531815" lon="13.322193857248974"><ele>768.0</ele><time>2026-05-03T14:27:30Z</time></trkpt><trkpt lat="42.32460266737354" lon="13.322306324676713"><ele>773.5</ele><time>2026-05-03T14:27:31Z</time></trkpt><trkpt lat="42.324395587988874" lon="13.322440892944806"><ele>779.0</ele><time>2026-05-03T14:27:32Z</time></trkpt><trkpt lat="42.324179714013745" lon="13.322566454511241"><ele>779.0</ele><time>2026-05-03T14:27:33Z</time></trkpt><trkpt lat="42.32397844597974" lon="13.32266131230545"><ele>779.0</ele><time>2026-05-03T14:27:34Z</time></trkpt><trkpt lat="42.323795598476735" lon="13.322717469283134"><ele>779.0</ele><time>2026-05-03T14:27:35Z</time></trkpt><trkpt lat="42.32363474517886" lon="13.32276865580591"><ele>777.3333333333334</ele><time>2026-05-03T14:27:36Z</time></trkpt><trkpt lat="42.32343741689681" lon="13.322772270574966"><ele>775.6666666666667</ele><time>2026-05-03T14:27:37Z</time></trkpt><trkpt lat="42.323202351282895" lon="13.322722517297843"><ele>774.0</ele><time>2026-05-03T14:27:38Z</time></trkpt><trkpt lat="42.32296291227627" lon="13.32269294968994"><ele>773.5</ele><time>2026-05-03T14:27:39Z</time></trkpt><trkpt lat="42.3227238702671" lon="13.322694109458075"><ele>773.0</ele><time>2026-05-03T14:27:40Z</time></trkpt><trkpt lat="42.322461445477245" lon="13.322734406910374"><ele>774.5</ele><time>2026-05-03T14:27:41Z</time></trkpt><trkpt lat="42.32217606772937" lon="13.322788324348485"><ele>776.0</ele><time>2026-05-03T14:27:42Z</time></trkpt><trkpt lat="42.32188304534611" lon="13.322859378518352"><ele>776.0</ele><time>2026-05-03T14:27:43Z</time></trkpt><trkpt lat="42.32160416368167" lon="13.32292507560594"><ele>776.0</ele><time>2026-05-03T14:27:44Z</time></trkpt><trkpt lat="42.32137403074333" lon="13.32302547241155"><ele>781.6666666666667</ele><time>2026-05-03T14:27:45Z</time></trkpt><trkpt lat="42.32115158068618" lon="13.32310009470099"><ele>787.3333333333333</ele><time>2026-05-03T14:27:46Z</time></trkpt><trkpt lat="42.320943567414936" lon="13.32315129804177"><ele>793.0</ele><time>2026-05-03T14:27:47Z</time></trkpt><trkpt lat="42.32079729803344" lon="13.323269199255563"><ele>793.0</ele><time>2026-05-03T14:27:48Z</time></trkpt><trkpt lat="42.32066421247887" lon="13.323366321341842"><ele>793.0</ele><time>2026-05-03T14:27:49Z</time></trkpt><trkpt lat="42.320535168138406" lon="13.323394244602088"><ele>793.0</ele><time>2026-05-03T14:27:50Z</time></trkpt><trkpt lat="42.32039381063601" lon="13.323396480572349"><ele>793.0</ele><time>2026-05-03T14:27:51Z</time></trkpt><trkpt lat="42.32023606244159" lon="13.323356392946385"><ele>792.3333333333333</ele><time>2026-05-03T14:27:52Z</time></trkpt><trkpt lat="42.32007555380638" lon="13.32339806259036"><ele>791.6666666666667</ele><time>2026-05-03T14:27:53Z</time></trkpt><trkpt lat="42.31991290612232" lon="13.323490356168202"><ele>791.0</ele><time>2026-05-03T14:27:54Z</time></trkpt><trkpt lat="42.319735291599194" lon="13.323532840381091"><ele>793.0</ele><time>2026-05-03T14:27:55Z</time></trkpt><trkpt lat="42.31954996321628" lon="13.323525816214303"><ele>795.0</ele><time>2026-05-03T14:27:56Z</time></trkpt><trkpt lat="42.31939240242706" lon="13.323502161024582"><ele>797.0</ele><time>2026-05-03T14:27:57Z</time></trkpt><trkpt lat="42.3192461533917" lon="13.323485497067503"><ele>797.0</ele><time>2026-05-03T14:27:58Z</time></trkpt><trkpt lat="42.31913034105443" lon="13.323459417989207"><ele>797.0</ele><time>2026-05-03T14:27:59Z</time></trkpt><trkpt lat="42.31903085681099" lon="13.32335009362238"><ele>797.0</ele><time>2026-05-03T14:28:00Z</time></trkpt><trkpt lat="42.31892867056351" lon="13.323305591400787"><ele>797.0</ele><time>2026-05-03T14:28:01Z</time></trkpt><trkpt lat="42.31880548968069" lon="13.323296425428678"><ele>797.3333333333334</ele><time>2026-05-03T14:28:02Z</time></trkpt><trkpt lat="42.31865590309243" lon="13.323369374443562"><ele>797.6666666666667</ele><time>2026-05-03T14:28:03Z</time></trkpt><trkpt lat="42.31847601338441" lon="13.323504005743567"><ele>798.0</ele><time>2026-05-03T14:28:04Z</time></trkpt><trkpt lat="42.31825291089271" lon="13.323609559425657"><ele>794.0</ele><time>2026-05-03T14:28:05Z</time></trkpt><trkpt lat="42.318010109945305" lon="13.323734867135036"><ele>790.0</ele><time>2026-05-03T14:28:06Z</time></trkpt><trkpt lat="42.31778483392733" lon="13.323795028911785"><ele>790.0</ele><time>2026-05-03T14:28:07Z</time></trkpt><trkpt lat="42.31758235901187" lon="13.323879983695509"><ele>790.0</ele><time>2026-05-03T14:28:08Z</time></trkpt><trkpt lat="42.31738331403974" lon="13.323981981745199"><ele>790.0</ele><time>2026-05-03T14:28:09Z</time></trkpt><trkpt lat="42.3171866290502" lon="13.32409038374605"><ele>795.5</ele><time>2026-05-03T14:28:10.001Z</time></trkpt><trkpt lat="42.31695901431449" lon="13.324258165992138"><ele>801.0</ele><time>2026-05-03T14:28:11.001Z</time></trkpt><trkpt lat="42.31673830349538" lon="13.324482438524168"><ele>801.0</ele><time>2026-05-03T14:28:12.001Z</time></trkpt><trkpt lat="42.316552867318464" lon="13.32463260302408"><ele>801.0</ele><time>2026-05-03T14:28:13.001Z</time></trkpt><trkpt lat="42.31639388275907" lon="13.324796426914727"><ele>801.0</ele><time>2026-05-03T14:28:14.001Z</time></trkpt><trkpt lat="42.31628117218125" lon="13.324974764451277"><ele>804.0</ele><time>2026-05-03T14:28:15.001Z</time></trkpt><trkpt lat="42.31620446289897" lon="13.325146661650125"><ele>807.0</ele><time>2026-05-03T14:28:16.001Z</time></trkpt><trkpt lat="42.31608777654806" lon="13.325245400426011"><ele>810.0</ele><time>2026-05-03T14:28:17.001Z</time></trkpt><trkpt lat="42.31593772123865" lon="13.325358577809812"><ele>810.0</ele><time>2026-05-03T14:28:18.001Z</time></trkpt><trkpt lat="42.31572680980689" lon="13.325422368822895"><ele>810.0</ele><time>2026-05-03T14:28:19.001Z</time></trkpt><trkpt lat="42.31551235503534" lon="13.325597736253064"><ele>817.0</ele><time>2026-05-03T14:28:20.001Z</time></trkpt><trkpt lat="42.315297024006746" lon="13.325748167749442"><ele>824.0</ele><time>2026-05-03T14:28:21.001Z</time></trkpt><trkpt lat="42.31510557123845" lon="13.325915225365168"><ele>824.0</ele><time>2026-05-03T14:28:22.001Z</time></trkpt><trkpt lat="42.314970534693245" lon="13.326033810578014"><ele>824.0</ele><time>2026-05-03T14:28:23.001Z</time></trkpt><trkpt lat="42.314829695480185" lon="13.326179989366668"><ele>824.0</ele><time>2026-05-03T14:28:24.001Z</time></trkpt><trkpt lat="42.31464761707783" lon="13.32624341276377"><ele>827.0</ele><time>2026-05-03T14:28:25.001Z</time></trkpt><trkpt lat="42.31445744822255" lon="13.326311955949265"><ele>830.0</ele><time>2026-05-03T14:28:26.001Z</time></trkpt><trkpt lat="42.314235434563535" lon="13.326360718187807"><ele>833.0</ele><time>2026-05-03T14:28:27.001Z</time></trkpt><trkpt lat="42.31403657539927" lon="13.326503422459123"><ele>826.5</ele><time>2026-05-03T14:28:28.001Z</time></trkpt><trkpt lat="42.313838276706115" lon="13.326644902026604"><ele>820.0</ele><time>2026-05-03T14:28:29.001Z</time></trkpt><trkpt lat="42.31362409827957" lon="13.326802994085343"><ele>820.0</ele><time>2026-05-03T14:28:30.001Z</time></trkpt><trkpt lat="42.31344170669948" lon="13.326883314410308"><ele>820.0</ele><time>2026-05-03T14:28:31.001Z</time></trkpt><trkpt lat="42.313291005323414" lon="13.326975269380991"><ele>820.0</ele><time>2026-05-03T14:28:32.001Z</time></trkpt><trkpt lat="42.313165367995154" lon="13.327077283038559"><ele>822.3333333333333</ele><time>2026-05-03T14:28:33.001Z</time></trkpt><trkpt lat="42.313045545863844" lon="13.327233989235072"><ele>824.6666666666667</ele><time>2026-05-03T14:28:34.001Z</time></trkpt><trkpt lat="42.31295031611913" lon="13.327476897746026"><ele>827.0</ele><time>2026-05-03T14:28:35.001Z</time></trkpt><trkpt lat="42.31284857416312" lon="13.327689501632765"><ele>827.0</ele><time>2026-05-03T14:28:36.001Z</time></trkpt><trkpt lat="42.31272346869322" lon="13.327817685765911"><ele>827.0</ele><time>2026-05-03T14:28:37.001Z</time></trkpt><trkpt lat="42.312571890868256" lon="13.327863231989323"><ele>827.0</ele><time>2026-05-03T14:28:38.001Z</time></trkpt><trkpt lat="42.31241659310028" lon="13.327873195706712"><ele>824.3333333333334</ele><time>2026-05-03T14:28:39.001Z</time></trkpt><trkpt lat="42.31223694834474" lon="13.327812316265213"><ele>821.6666666666667</ele><time>2026-05-03T14:28:40.001Z</time></trkpt><trkpt lat="42.312072780951524" lon="13.327760634347241"><ele>819.0</ele><time>2026-05-03T14:28:41.001Z</time></trkpt><trkpt lat="42.31191649373766" lon="13.327814803430334"><ele>819.0</ele><time>2026-05-03T14:28:42.001Z</time></trkpt><trkpt lat="42.31174125483412" lon="13.327898328279842"><ele>819.0</ele><time>2026-05-03T14:28:43.001Z</time></trkpt><trkpt lat="42.311601168931816" lon="13.32804322611267"><ele>819.0</ele><time>2026-05-03T14:28:44Z</time></trkpt><trkpt lat="42.31149249664008" lon="13.3282124013268"><ele>820.0</ele><time>2026-05-03T14:28:45Z</time></trkpt><trkpt lat="42.31140056997698" lon="13.328446967447448"><ele>821.0</ele><time>2026-05-03T14:28:46Z</time></trkpt><trkpt lat="42.31132355672393" lon="13.328761759503875"><ele>822.0</ele><time>2026-05-03T14:28:47Z</time></trkpt><trkpt lat="42.31125383590028" lon="13.329067446815056"><ele>826.6666666666667</ele><time>2026-05-03T14:28:48Z</time></trkpt><trkpt lat="42.31119865250222" lon="13.329326301685688"><ele>831.3333333333334</ele><time>2026-05-03T14:28:49Z</time></trkpt><trkpt lat="42.311173258778354" lon="13.32955054181314"><ele>836.0</ele><time>2026-05-03T14:28:50Z</time></trkpt><trkpt lat="42.31114175070291" lon="13.329740686343344"><ele>837.5999999999999</ele><time>2026-05-03T14:28:51Z</time></trkpt><trkpt lat="42.31109220825831" lon="13.329909885511677"><ele>839.2</ele><time>2026-05-03T14:28:52Z</time></trkpt><trkpt lat="42.31103861896905" lon="13.330049964291474"><ele>840.8</ele><time>2026-05-03T14:28:53Z</time></trkpt><trkpt lat="42.310994303573736" lon="13.33014440551218"><ele>842.4000000000001</ele><time>2026-05-03T14:28:54Z</time></trkpt><trkpt lat="42.3109413433156" lon="13.33021311490988"><ele>844.0</ele><time>2026-05-03T14:28:55Z</time></trkpt><trkpt lat="42.310877761829" lon="13.330229659183221"><ele>844.0</ele><time>2026-05-03T14:28:56Z</time></trkpt><trkpt lat="42.31080751114075" lon="13.330199682360083"><ele>844.0</ele><time>2026-05-03T14:28:57Z</time></trkpt><trkpt lat="42.31074310787434" lon="13.330119921901359"><ele>844.0</ele><time>2026-05-03T14:28:58Z</time></trkpt><trkpt lat="42.31069731914317" lon="13.329995549622046"><ele>844.0</ele><time>2026-05-03T14:28:59Z</time></trkpt><trkpt lat="42.31066988919701" lon="13.329818516231411"><ele>844.0</ele><time>2026-05-03T14:29:00Z</time></trkpt><trkpt lat="42.31063086426464" lon="13.329615530936952"><ele>842.5</ele><time>2026-05-03T14:29:01Z</time></trkpt><trkpt lat="42.310567764313774" lon="13.329426991153934"><ele>841.0</ele><time>2026-05-03T14:29:02Z</time></trkpt><trkpt lat="42.310500974254815" lon="13.329282326626137"><ele>839.5</ele><time>2026-05-03T14:29:03Z</time></trkpt><trkpt lat="42.31041458496889" lon="13.32919146234818"><ele>838.0</ele><time>2026-05-03T14:29:04Z</time></trkpt><trkpt lat="42.31030415030292" lon="13.329152344145427"><ele>838.0</ele><time>2026-05-03T14:29:05Z</time></trkpt><trkpt lat="42.31017691504556" lon="13.329168940925967"><ele>838.0</ele><time>2026-05-03T14:29:06Z</time></trkpt><trkpt lat="42.31003956636535" lon="13.329254182775518"><ele>838.0</ele><time>2026-05-03T14:29:07Z</time></trkpt><trkpt lat="42.30991534445077" lon="13.329363022358391"><ele>838.0</ele><time>2026-05-03T14:29:08Z</time></trkpt><trkpt lat="42.309807137948255" lon="13.329488731819351"><ele>834.6666666666666</ele><time>2026-05-03T14:29:09Z</time></trkpt><trkpt lat="42.30968413066591" lon="13.329571468251162"><ele>831.3333333333333</ele><time>2026-05-03T14:29:10Z</time></trkpt><trkpt lat="42.30953056006982" lon="13.329587947156618"><ele>828.0</ele><time>2026-05-03T14:29:11Z</time></trkpt><trkpt lat="42.309354942818935" lon="13.32962042793618"><ele>828.0</ele><time>2026-05-03T14:29:12Z</time></trkpt><trkpt lat="42.309191409228646" lon="13.329621012731277"><ele>828.0</ele><time>2026-05-03T14:29:13Z</time></trkpt><trkpt lat="42.30904857196592" lon="13.329632602780753"><ele>828.0</ele><time>2026-05-03T14:29:14Z</time></trkpt><trkpt lat="42.308923721051016" lon="13.32966691621836"><ele>828.0</ele><time>2026-05-03T14:29:15Z</time></trkpt><trkpt lat="42.30881522689487" lon="13.32976159772227"><ele>832.0</ele><time>2026-05-03T14:29:16Z</time></trkpt><trkpt lat="42.30871745295025" lon="13.329918357823129"><ele>836.0</ele><time>2026-05-03T14:29:17Z</time></trkpt><trkpt lat="42.308639058086996" lon="13.330108704634485"><ele>840.0</ele><time>2026-05-03T14:29:18Z</time></trkpt><trkpt lat="42.30857011641411" lon="13.33027130437635"><ele>840.0</ele><time>2026-05-03T14:29:19Z</time></trkpt><trkpt lat="42.30846403383622" lon="13.330397729790583"><ele>840.0</ele><time>2026-05-03T14:29:20Z</time></trkpt><trkpt lat="42.308324469293794" lon="13.330485450487505"><ele>840.0</ele><time>2026-05-03T14:29:21Z</time></trkpt><trkpt lat="42.30820536300269" lon="13.330584358903772"><ele>840.0</ele><time>2026-05-03T14:29:22Z</time></trkpt><trkpt lat="42.30814538320846" lon="13.330709040927522"><ele>843.0</ele><time>2026-05-03T14:29:23Z</time></trkpt><trkpt lat="42.30809244672354" lon="13.330868204349272"><ele>846.0</ele><time>2026-05-03T14:29:24Z</time></trkpt><trkpt lat="42.308023002923925" lon="13.331022379145654"><ele>849.0</ele><time>2026-05-03T14:29:25Z</time></trkpt><trkpt lat="42.307957187652555" lon="13.331151078242291"><ele>852.0</ele><time>2026-05-03T14:29:26Z</time></trkpt><trkpt lat="42.30789081381279" lon="13.33124114558037"><ele>852.75</ele><time>2026-05-03T14:29:27Z</time></trkpt><trkpt lat="42.3078007717111" lon="13.331294663719461"><ele>853.5</ele><time>2026-05-03T14:29:28Z</time></trkpt><trkpt lat="42.30770261660675" lon="13.331252893799808"><ele>854.25</ele><time>2026-05-03T14:29:29Z</time></trkpt><trkpt lat="42.30761914650516" lon="13.331120400881236"><ele>855.0</ele><time>2026-05-03T14:29:30Z</time></trkpt><trkpt lat="42.307530442906334" lon="13.330959073697981"><ele>855.0</ele><time>2026-05-03T14:29:31Z</time></trkpt><trkpt lat="42.30740729163742" lon="13.330784080181484"><ele>855.0</ele><time>2026-05-03T14:29:32Z</time></trkpt><trkpt lat="42.30728243434228" lon="13.330597988286021"><ele>855.0</ele><time>2026-05-03T14:29:33Z</time></trkpt><trkpt lat="42.30717146525208" lon="13.330482751991395"><ele>854.3333333333333</ele><time>2026-05-03T14:29:34Z</time></trkpt><trkpt lat="42.307072226065124" lon="13.330375828516614"><ele>853.6666666666666</ele><time>2026-05-03T14:29:35Z</time></trkpt><trkpt lat="42.30692474445854" lon="13.330318294603009"><ele>853.0</ele><time>2026-05-03T14:29:36Z</time></trkpt><trkpt lat="42.30672006746596" lon="13.33028188241905"><ele>853.0</ele><time>2026-05-03T14:29:37Z</time></trkpt><trkpt lat="42.30648006737262" lon="13.330249564121704"><ele>853.0</ele><time>2026-05-03T14:29:38Z</time></trkpt><trkpt lat="42.30626936464681" lon="13.330211901407461"><ele>852.6666666666666</ele><time>2026-05-03T14:29:39Z</time></trkpt><trkpt lat="42.30609475730233" lon="13.330185272143813"><ele>852.3333333333333</ele><time>2026-05-03T14:29:40Z</time></trkpt><trkpt lat="42.30593451356303" lon="13.330185875741291"><ele>852.0</ele><time>2026-05-03T14:29:41Z</time></trkpt><trkpt lat="42.3057928208405" lon="13.330225406478153"><ele>852.0</ele><time>2026-05-03T14:29:42Z</time></trkpt><trkpt lat="42.305651616757196" lon="13.330308771703127"><ele>852.0</ele><time>2026-05-03T14:29:43Z</time></trkpt><trkpt lat="42.30550387178674" lon="13.330464457982758"><ele>852.0</ele><time>2026-05-03T14:29:44Z</time></trkpt><trkpt lat="42.30533802406048" lon="13.330633088725307"><ele>859.3333333333333</ele><time>2026-05-03T14:29:45Z</time></trkpt><trkpt lat="42.30519544452697" lon="13.330749832588717"><ele>866.6666666666666</ele><time>2026-05-03T14:29:46Z</time></trkpt><trkpt lat="42.30503541044196" lon="13.330823275167823"><ele>874.0</ele><time>2026-05-03T14:29:47Z</time></trkpt><trkpt lat="42.30488218695358" lon="13.33083735583801"><ele>874.0</ele><time>2026-05-03T14:29:48Z</time></trkpt><trkpt lat="42.304754853192335" lon="13.330841445395233"><ele>874.0</ele><time>2026-05-03T14:29:49Z</time></trkpt><trkpt lat="42.30463637579822" lon="13.330775095296218"><ele>874.0</ele><time>2026-05-03T14:29:50Z</time></trkpt><trkpt lat="42.30450865171368" lon="13.33070344915277"><ele>874.0</ele><time>2026-05-03T14:29:51Z</time></trkpt><trkpt lat="42.30441898343404" lon="13.330643275965176"><ele>873.25</ele><time>2026-05-03T14:29:52Z</time></trkpt><trkpt lat="42.304313359043405" lon="13.33069339661429"><ele>872.5</ele><time>2026-05-03T14:29:53Z</time></trkpt><trkpt lat="42.304228087569825" lon="13.330808145622903"><ele>871.75</ele><time>2026-05-03T14:29:54Z</time></trkpt><trkpt lat="42.304157281179855" lon="13.33098177282908"><ele>871.0</ele><time>2026-05-03T14:29:55Z</time></trkpt><trkpt lat="42.30412204061078" lon="13.331189181275324"><ele>874.75</ele><time>2026-05-03T14:29:56Z</time></trkpt><trkpt lat="42.30411721203183" lon="13.331418228954123"><ele>878.5</ele><time>2026-05-03T14:29:57Z</time></trkpt><trkpt lat="42.304118283076235" lon="13.331598928267626"><ele>882.25</ele><time>2026-05-03T14:29:58Z</time></trkpt><trkpt lat="42.30407351374922" lon="13.33172113175268"><ele>886.0</ele><time>2026-05-03T14:29:59Z</time></trkpt><trkpt lat="42.30396613790102" lon="13.33179395352727"><ele>884.6666666666666</ele><time>2026-05-03T14:30:00Z</time></trkpt><trkpt lat="42.30381384212066" lon="13.331812934509564"><ele>883.3333333333333</ele><time>2026-05-03T14:30:01Z</time></trkpt><trkpt lat="42.30362142521031" lon="13.331804454683546"><ele>882.0</ele><time>2026-05-03T14:30:02Z</time></trkpt><trkpt lat="42.30340549920545" lon="13.3318129611131"><ele>882.0</ele><time>2026-05-03T14:30:03Z</time></trkpt><trkpt lat="42.30320955835785" lon="13.331862796728517"><ele>882.0</ele><time>2026-05-03T14:30:04Z</time></trkpt><trkpt lat="42.30305584953106" lon="13.331863551727858"><ele>882.0</ele><time>2026-05-03T14:30:05Z</time></trkpt><trkpt lat="42.30290705861985" lon="13.331812575038745"><ele>880.3333333333333</ele><time>2026-05-03T14:30:06Z</time></trkpt><trkpt lat="42.30277198095721" lon="13.331786578652821"><ele>878.6666666666666</ele><time>2026-05-03T14:30:07Z</time></trkpt><trkpt lat="42.30262406997986" lon="13.331828761099992"><ele>877.0</ele><time>2026-05-03T14:30:08Z</time></trkpt><trkpt lat="42.30242829467522" lon="13.33197183309253"><ele>873.0</ele><time>2026-05-03T14:30:09Z</time></trkpt><trkpt lat="42.3022269428836" lon="13.332103607714897"><ele>869.0</ele><time>2026-05-03T14:30:10Z</time></trkpt><trkpt lat="42.30204457050667" lon="13.332192982298494"><ele>865.0</ele><time>2026-05-03T14:30:11Z</time></trkpt><trkpt lat="42.30190094255588" lon="13.332301016401962"><ele>873.0</ele><time>2026-05-03T14:30:12Z</time></trkpt><trkpt lat="42.301786911891504" lon="13.33245079503747"><ele>881.0</ele><time>2026-05-03T14:30:13Z</time></trkpt><trkpt lat="42.30168650536905" lon="13.332608405071742"><ele>889.0</ele><time>2026-05-03T14:30:14Z</time></trkpt><trkpt lat="42.30155895927082" lon="13.332676798897902"><ele>886.6666666666666</ele><time>2026-05-03T14:30:15Z</time></trkpt><trkpt lat="42.30141363519949" lon="13.33266204557618"><ele>884.3333333333333</ele><time>2026-05-03T14:30:16.001Z</time></trkpt><trkpt lat="42.301222238248315" lon="13.3326722723195"><ele>882.0</ele><time>2026-05-03T14:30:17.001Z</time></trkpt><trkpt lat="42.30101408236942" lon="13.332743951404979"><ele>882.0</ele><time>2026-05-03T14:30:18.001Z</time></trkpt><trkpt lat="42.300794693733046" lon="13.33286531644819"><ele>882.0</ele><time>2026-05-03T14:30:19.001Z</time></trkpt><trkpt lat="42.30062412307881" lon="13.332975143558892"><ele>882.0</ele><time>2026-05-03T14:30:20.001Z</time></trkpt><trkpt lat="42.300486903765524" lon="13.333061176042897"><ele>882.75</ele><time>2026-05-03T14:30:21.001Z</time></trkpt><trkpt lat="42.30038124997805" lon="13.33313969274808"><ele>883.5</ele><time>2026-05-03T14:30:22.001Z</time></trkpt><trkpt lat="42.300305917235775" lon="13.333282587479601"><ele>884.25</ele><time>2026-05-03T14:30:23.001Z</time></trkpt><trkpt lat="42.30027230413573" lon="13.333516262261982"><ele>885.0</ele><time>2026-05-03T14:30:24.001Z</time></trkpt><trkpt lat="42.30028246024704" lon="13.333796815975253"><ele>888.6666666666667</ele><time>2026-05-03T14:30:25.001Z</time></trkpt><trkpt lat="42.30027924109442" lon="13.334095113135099"><ele>892.3333333333334</ele><time>2026-05-03T14:30:26.001Z</time></trkpt><trkpt lat="42.30026347005516" lon="13.334313659689576"><ele>896.0</ele><time>2026-05-03T14:30:27.001Z</time></trkpt><trkpt lat="42.30029609718644" lon="13.334507989027058"><ele>896.0</ele><time>2026-05-03T14:30:28.001Z</time></trkpt><trkpt lat="42.30031635558338" lon="13.334680945038043"><ele>896.0</ele><time>2026-05-03T14:30:29.001Z</time></trkpt><trkpt lat="42.30028340807629" lon="13.334819806961702"><ele>896.0</ele><time>2026-05-03T14:30:30.001Z</time></trkpt><trkpt lat="42.3001948337544" lon="13.334915819381663"><ele>896.0</ele><time>2026-05-03T14:30:31.001Z</time></trkpt><trkpt lat="42.300078710418624" lon="13.334964394962155"><ele>900.3333333333334</ele><time>2026-05-03T14:30:32.001Z</time></trkpt><trkpt lat="42.29991479818584" lon="13.334957681993586"><ele>904.6666666666667</ele><time>2026-05-03T14:30:33.001Z</time></trkpt><trkpt lat="42.29969793564967" lon="13.334991906696422"><ele>909.0</ele><time>2026-05-03T14:30:34.001Z</time></trkpt><trkpt lat="42.299525196209906" lon="13.335041838186182"><ele>909.0</ele><time>2026-05-03T14:30:35.001Z</time></trkpt><trkpt lat="42.2993891200491" lon="13.335095208085932"><ele>909.0</ele><time>2026-05-03T14:30:36.001Z</time></trkpt><trkpt lat="42.299212477828114" lon="13.335043852746566"><ele>909.0</ele><time>2026-05-03T14:30:37.001Z</time></trkpt><trkpt lat="42.29905049533789" lon="13.33495789053037"><ele>909.0</ele><time>2026-05-03T14:30:38.001Z</time></trkpt><trkpt lat="42.29892073334043" lon="13.334890319560818"><ele>909.0</ele><time>2026-05-03T14:30:39.001Z</time></trkpt><trkpt lat="42.29879685310978" lon="13.334880329281553"><ele>909.0</ele><time>2026-05-03T14:30:40.001Z</time></trkpt><trkpt lat="42.29865313263951" lon="13.334976071277572"><ele>909.0</ele><time>2026-05-03T14:30:41.001Z</time></trkpt><trkpt lat="42.29848028516169" lon="13.335110092448737"><ele>908.75</ele><time>2026-05-03T14:30:42.001Z</time></trkpt><trkpt lat="42.29832545963422" lon="13.335227071805834"><ele>908.5</ele><time>2026-05-03T14:30:43.001Z</time></trkpt><trkpt lat="42.29823909653914" lon="13.335366942928625"><ele>908.25</ele><time>2026-05-03T14:30:44.001Z</time></trkpt><trkpt lat="42.29818353288591" lon="13.335504410967523"><ele>908.0</ele><time>2026-05-03T14:30:45.001Z</time></trkpt><trkpt lat="42.29815789527809" lon="13.335687648557855"><ele>911.25</ele><time>2026-05-03T14:30:46Z</time></trkpt><trkpt lat="42.29816445514443" lon="13.335920403191226"><ele>914.5</ele><time>2026-05-03T14:30:47Z</time></trkpt><trkpt lat="42.298203666850064" lon="13.336120319841152"><ele>917.75</ele><time>2026-05-03T14:30:48Z</time></trkpt><trkpt lat="42.29819175129052" lon="13.33628359793232"><ele>921.0</ele><time>2026-05-03T14:30:49Z</time></trkpt><trkpt lat="42.29813792744045" lon="13.336426968987363"><ele>921.6666666666667</ele><time>2026-05-03T14:30:50Z</time></trkpt><trkpt lat="42.29802916266339" lon="13.33650437125351"><ele>922.3333333333334</ele><time>2026-05-03T14:30:51Z</time></trkpt><trkpt lat="42.2978778117339" lon="13.336494437083159"><ele>923.0</ele><time>2026-05-03T14:30:52Z</time></trkpt><trkpt lat="42.297692894447074" lon="13.336533173143474"><ele>923.0</ele><time>2026-05-03T14:30:53Z</time></trkpt><trkpt lat="42.297502701615656" lon="13.336539278258465"><ele>923.0</ele><time>2026-05-03T14:30:54Z</time></trkpt><trkpt lat="42.29733731970494" lon="13.336532313187321"><ele>923.0</ele><time>2026-05-03T14:30:55Z</time></trkpt><trkpt lat="42.297179956057256" lon="13.336577758382402"><ele>920.6666666666667</ele><time>2026-05-03T14:30:56Z</time></trkpt><trkpt lat="42.29699479619756" lon="13.336665964783194"><ele>918.3333333333333</ele><time>2026-05-03T14:30:57Z</time></trkpt><trkpt lat="42.29681278201139" lon="13.336849866745217"><ele>916.0</ele><time>2026-05-03T14:30:58Z</time></trkpt><trkpt lat="42.296586279261994" lon="13.337031835564327"><ele>921.5</ele><time>2026-05-03T14:30:59Z</time></trkpt><trkpt lat="42.29635584109528" lon="13.33720568540275"><ele>927.0</ele><time>2026-05-03T14:31:00Z</time></trkpt><trkpt lat="42.29615134518984" lon="13.33735450187438"><ele>927.0</ele><time>2026-05-03T14:31:01Z</time></trkpt><trkpt lat="42.29597255955641" lon="13.337484947861725"><ele>927.0</ele><time>2026-05-03T14:31:02Z</time></trkpt><trkpt lat="42.29582558805395" lon="13.337594895352483"><ele>927.0</ele><time>2026-05-03T14:31:03Z</time></trkpt><trkpt lat="42.29569869045694" lon="13.337682830083954"><ele>927.0</ele><time>2026-05-03T14:31:04Z</time></trkpt><trkpt lat="42.2955948935835" lon="13.337769426121207"><ele>927.0</ele><time>2026-05-03T14:31:05Z</time></trkpt><trkpt lat="42.295527806922635" lon="13.337888907680842"><ele>927.0</ele><time>2026-05-03T14:31:06Z</time></trkpt><trkpt lat="42.29551886822879" lon="13.338064161603477"><ele>927.0</ele><time>2026-05-03T14:31:07Z</time></trkpt><trkpt lat="42.29552353203524" lon="13.338311702810659"><ele>925.3333333333333</ele><time>2026-05-03T14:31:08Z</time></trkpt><trkpt lat="42.295527078497905" lon="13.338562985298843"><ele>923.6666666666666</ele><time>2026-05-03T14:31:09Z</time></trkpt><trkpt lat="42.295503741910565" lon="13.33887055931868"><ele>922.0</ele><time>2026-05-03T14:31:10Z</time></trkpt><trkpt lat="42.295498417629844" lon="13.339146856367028"><ele>922.0</ele><time>2026-05-03T14:31:11Z</time></trkpt><trkpt lat="42.29549331052721" lon="13.33940573737902"><ele>922.0</ele><time>2026-05-03T14:31:12Z</time></trkpt><trkpt lat="42.295482262328" lon="13.339655144745974"><ele>922.0</ele><time>2026-05-03T14:31:13Z</time></trkpt><trkpt lat="42.29541875664099" lon="13.339870537073876"><ele>925.25</ele><time>2026-05-03T14:31:14Z</time></trkpt><trkpt lat="42.29537919965606" lon="13.340064316018474"><ele>928.5</ele><time>2026-05-03T14:31:15Z</time></trkpt><trkpt lat="42.295342054521655" lon="13.340224302442481"><ele>931.75</ele><time>2026-05-03T14:31:16Z</time></trkpt><trkpt lat="42.29530772278655" lon="13.34035104737087"><ele>935.0</ele><time>2026-05-03T14:31:17Z</time></trkpt><trkpt lat="42.29525885209835" lon="13.34046098540247"><ele>935.0</ele><time>2026-05-03T14:31:18Z</time></trkpt><trkpt lat="42.29516465217149" lon="13.34048244279585"><ele>935.0</ele><time>2026-05-03T14:31:19Z</time></trkpt><trkpt lat="42.29507715333373" lon="13.340435903731763"><ele>935.0</ele><time>2026-05-03T14:31:20Z</time></trkpt><trkpt lat="42.29496882822238" lon="13.340286096916078"><ele>935.0</ele><time>2026-05-03T14:31:21Z</time></trkpt><trkpt lat="42.29484007121928" lon="13.340107941708906"><ele>933.3333333333334</ele><time>2026-05-03T14:31:22Z</time></trkpt><trkpt lat="42.29470480024186" lon="13.33990732169438"><ele>931.6666666666667</ele><time>2026-05-03T14:31:23Z</time></trkpt><trkpt lat="42.29456488287628" lon="13.339725879434733"><ele>930.0</ele><time>2026-05-03T14:31:24Z</time></trkpt><trkpt lat="42.294434903794915" lon="13.339557156846105"><ele>930.0</ele><time>2026-05-03T14:31:25Z</time></trkpt><trkpt lat="42.294287146911174" lon="13.339441246242044"><ele>930.0</ele><time>2026-05-03T14:31:26Z</time></trkpt><trkpt lat="42.29413467946611" lon="13.339361725775591"><ele>930.0</ele><time>2026-05-03T14:31:27Z</time></trkpt><trkpt lat="42.29398253984649" lon="13.339318212375616"><ele>930.6666666666667</ele><time>2026-05-03T14:31:28Z</time></trkpt><trkpt lat="42.2938458422061" lon="13.339348419236421"><ele>931.3333333333334</ele><time>2026-05-03T14:31:29Z</time></trkpt><trkpt lat="42.293704652690735" lon="13.339493422389937"><ele>932.0</ele><time>2026-05-03T14:31:30Z</time></trkpt><trkpt lat="42.293553637014774" lon="13.339646923809585"><ele>937.6666666666667</ele><time>2026-05-03T14:31:31Z</time></trkpt><trkpt lat="42.29340565778512" lon="13.33972942465817"><ele>943.3333333333333</ele><time>2026-05-03T14:31:32Z</time></trkpt><trkpt lat="42.29322471915913" lon="13.339741902832554"><ele>949.0</ele><time>2026-05-03T14:31:33Z</time></trkpt><trkpt lat="42.2930459945081" lon="13.339727302019998"><ele>949.0</ele><time>2026-05-03T14:31:34Z</time></trkpt><trkpt lat="42.29288289777645" lon="13.339712445020307"><ele>949.0</ele><time>2026-05-03T14:31:35Z</time></trkpt><trkpt lat="42.29273838860365" lon="13.3396711035267"><ele>949.0</ele><time>2026-05-03T14:31:36Z</time></trkpt><trkpt lat="42.29262408765283" lon="13.33957972631321"><ele>949.0</ele><time>2026-05-03T14:31:37Z</time></trkpt><trkpt lat="42.292490396797604" lon="13.33943369487978"><ele>949.0</ele><time>2026-05-03T14:31:38Z</time></trkpt><trkpt lat="42.29240390350497" lon="13.339227462875455"><ele>949.0</ele><time>2026-05-03T14:31:39Z</time></trkpt><trkpt lat="42.29230774925529" lon="13.339053429758055"><ele>949.0</ele><time>2026-05-03T14:31:40Z</time></trkpt><trkpt lat="42.29224235169128" lon="13.338869315963153"><ele>950.3333333333333</ele><time>2026-05-03T14:31:41Z</time></trkpt><trkpt lat="42.292123372567154" lon="13.338699526901792"><ele>951.6666666666667</ele><time>2026-05-03T14:31:42Z</time></trkpt><trkpt lat="42.291984279085824" lon="13.338537924857043"><ele>953.0</ele><time>2026-05-03T14:31:43Z</time></trkpt><trkpt lat="42.29187386085376" lon="13.338386782588223"><ele>953.0</ele><time>2026-05-03T14:31:44Z</time></trkpt><trkpt lat="42.29177764624054" lon="13.33826165222106"><ele>953.0</ele><time>2026-05-03T14:31:45Z</time></trkpt><trkpt lat="42.291686193782525" lon="13.33816825770497"><ele>953.0</ele><time>2026-05-03T14:31:46Z</time></trkpt><trkpt lat="42.29160224348591" lon="13.338122081612054"><ele>953.0</ele><time>2026-05-03T14:31:47Z</time></trkpt><trkpt lat="42.291513606009595" lon="13.33811294082693"><ele>953.0</ele><time>2026-05-03T14:31:48Z</time></trkpt><trkpt lat="42.29141407618767" lon="13.338147381361846"><ele>953.2</ele><time>2026-05-03T14:31:49Z</time></trkpt><trkpt lat="42.291301134071816" lon="13.33820809290977"><ele>953.4</ele><time>2026-05-03T14:31:50Z</time></trkpt><trkpt lat="42.29119299438212" lon="13.338254774038022"><ele>953.6000000000001</ele><time>2026-05-03T14:31:51Z</time></trkpt><trkpt lat="42.29109760887937" lon="13.338309812769605"><ele>953.8000000000001</ele><time>2026-05-03T14:31:52Z</time></trkpt><trkpt lat="42.29101485474816" lon="13.338373197482209"><ele>954.0</ele><time>2026-05-03T14:31:53Z</time></trkpt><trkpt lat="42.29092825896756" lon="13.33842630809904"><ele>954.0</ele><time>2026-05-03T14:31:54Z</time></trkpt><trkpt lat="42.290847446836224" lon="13.338486456118648"><ele>954.0</ele><time>2026-05-03T14:31:55Z</time></trkpt><trkpt lat="42.290799513413965" lon="13.338554835753516"><ele>954.0</ele><time>2026-05-03T14:31:56Z</time></trkpt><trkpt lat="42.29075825905056" lon="13.33863447595622"><ele>954.0</ele><time>2026-05-03T14:31:57Z</time></trkpt><trkpt lat="42.29074268566656" lon="13.338760423838542"><ele>954.0</ele><time>2026-05-03T14:31:58Z</time></trkpt><trkpt lat="42.29077672486575" lon="13.338915425160007"><ele>954.0</ele><time>2026-05-03T14:31:59Z</time></trkpt><trkpt lat="42.29084739516538" lon="13.339110789140562"><ele>953.6666666666667</ele><time>2026-05-03T14:32:00Z</time></trkpt><trkpt lat="42.29092174245466" lon="13.339357564450303"><ele>953.3333333333334</ele><time>2026-05-03T14:32:01Z</time></trkpt><trkpt lat="42.29098596067502" lon="13.339612381496089"><ele>953.0</ele><time>2026-05-03T14:32:02Z</time></trkpt><trkpt lat="42.29104558328533" lon="13.339822270829464"><ele>953.5</ele><time>2026-05-03T14:32:03Z</time></trkpt><trkpt lat="42.29109220197546" lon="13.33999955884071"><ele>954.0</ele><time>2026-05-03T14:32:04Z</time></trkpt><trkpt lat="42.291130254163534" lon="13.340158239106453"><ele>954.5</ele><time>2026-05-03T14:32:05Z</time></trkpt><trkpt lat="42.2911371473731" lon="13.340322128082024"><ele>955.0</ele><time>2026-05-03T14:32:06Z</time></trkpt><trkpt lat="42.29109469756396" lon="13.340495693699346"><ele>958.0</ele><time>2026-05-03T14:32:07Z</time></trkpt><trkpt lat="42.29099858469458" lon="13.340651454498763"><ele>961.0</ele><time>2026-05-03T14:32:08Z</time></trkpt><trkpt lat="42.290867262328874" lon="13.340847876538565"><ele>964.0</ele><time>2026-05-03T14:32:09Z</time></trkpt><trkpt lat="42.29073033508049" lon="13.341044225030592"><ele>967.0</ele><time>2026-05-03T14:32:10Z</time></trkpt><trkpt lat="42.290581560270546" lon="13.341183148428003"><ele>970.0</ele><time>2026-05-03T14:32:11Z</time></trkpt><trkpt lat="42.290344896697206" lon="13.341342775177731"><ele>973.0</ele><time>2026-05-03T14:32:12Z</time></trkpt><trkpt lat="42.290131271454015" lon="13.341513910870582"><ele>973.0</ele><time>2026-05-03T14:32:13Z</time></trkpt><trkpt lat="42.28996992742545" lon="13.341689829629273"><ele>973.0</ele><time>2026-05-03T14:32:14Z</time></trkpt><trkpt lat="42.28979499192808" lon="13.341808293221584"><ele>973.0</ele><time>2026-05-03T14:32:15Z</time></trkpt><trkpt lat="42.28961320263592" lon="13.341899304251998"><ele>975.3333333333333</ele><time>2026-05-03T14:32:16Z</time></trkpt><trkpt lat="42.2894424302114" lon="13.34199972493689"><ele>977.6666666666667</ele><time>2026-05-03T14:32:17Z</time></trkpt><trkpt lat="42.289297527197505" lon="13.34211670342667"><ele>980.0</ele><time>2026-05-03T14:32:18Z</time></trkpt><trkpt lat="42.28913787461668" lon="13.34230065041663"><ele>980.0</ele><time>2026-05-03T14:32:19Z</time></trkpt><trkpt lat="42.28897065991015" lon="13.342528770601493"><ele>980.0</ele><time>2026-05-03T14:32:20Z</time></trkpt><trkpt lat="42.288794896996755" lon="13.342831563765408"><ele>977.5</ele><time>2026-05-03T14:32:21.001Z</time></trkpt><trkpt lat="42.28862942910792" lon="13.343154874233633"><ele>975.0</ele><time>2026-05-03T14:32:22.001Z</time></trkpt><trkpt lat="42.28846850862209" lon="13.343459657097302"><ele>975.0</ele><time>2026-05-03T14:32:23.001Z</time></trkpt><trkpt lat="42.288265333940785" lon="13.343816675837266"><ele>975.0</ele><time>2026-05-03T14:32:24.001Z</time></trkpt><trkpt lat="42.28807709048908" lon="13.344117911539838"><ele>975.5</ele><time>2026-05-03T14:32:25.001Z</time></trkpt><trkpt lat="42.287898298422384" lon="13.344371977378522"><ele>976.0</ele><time>2026-05-03T14:32:26.001Z</time></trkpt><trkpt lat="42.287748127353105" lon="13.34464261439018"><ele>983.5</ele><time>2026-05-03T14:32:27.001Z</time></trkpt><trkpt lat="42.287587248987116" lon="13.344882449787594"><ele>991.0</ele><time>2026-05-03T14:32:28.001Z</time></trkpt><trkpt lat="42.2874214989267" lon="13.345161604483474"><ele>991.0</ele><time>2026-05-03T14:32:29.001Z</time></trkpt><trkpt lat="42.287293625280945" lon="13.345414088700515"><ele>991.0</ele><time>2026-05-03T14:32:30.001Z</time></trkpt><trkpt lat="42.28718583753267" lon="13.34562955791543"><ele>991.0</ele><time>2026-05-03T14:32:31.001Z</time></trkpt><trkpt lat="42.28710667161608" lon="13.345845000404392"><ele>992.0</ele><time>2026-05-03T14:32:32.001Z</time></trkpt><trkpt lat="42.28704866150041" lon="13.346063858739425"><ele>993.0</ele><time>2026-05-03T14:32:33.001Z</time></trkpt><trkpt lat="42.28701355871314" lon="13.346300816787094"><ele>994.0</ele><time>2026-05-03T14:32:34.001Z</time></trkpt><trkpt lat="42.28698581302791" lon="13.346516659743859"><ele>994.0</ele><time>2026-05-03T14:32:35.001Z</time></trkpt><trkpt lat="42.286972972256756" lon="13.346708254149476"><ele>994.0</ele><time>2026-05-03T14:32:36.001Z</time></trkpt><trkpt lat="42.28695643610866" lon="13.346860814775685"><ele>994.0</ele><time>2026-05-03T14:32:37.001Z</time></trkpt><trkpt lat="42.286899317140346" lon="13.346997054983113"><ele>994.0</ele><time>2026-05-03T14:32:38.001Z</time></trkpt><trkpt lat="42.28677971487993" lon="13.347047650192412"><ele>994.0</ele><time>2026-05-03T14:32:39.001Z</time></trkpt><trkpt lat="42.286635261977864" lon="13.347083186664168"><ele>994.0</ele><time>2026-05-03T14:32:40.001Z</time></trkpt><trkpt lat="42.28642635712149" lon="13.347124979566333"><ele>994.0</ele><time>2026-05-03T14:32:41.001Z</time></trkpt><trkpt lat="42.286236151633425" lon="13.347174027290636"><ele>996.5</ele><time>2026-05-03T14:32:42.001Z</time></trkpt><trkpt lat="42.28604338168535" lon="13.34729511203492"><ele>999.0</ele><time>2026-05-03T14:32:43.001Z</time></trkpt><trkpt lat="42.285837646762346" lon="13.347486786333786"><ele>999.0</ele><time>2026-05-03T14:32:44.001Z</time></trkpt><trkpt lat="42.28561666807337" lon="13.34771957833284"><ele>999.0</ele><time>2026-05-03T14:32:45.001Z</time></trkpt><trkpt lat="42.28540719450417" lon="13.34795844698928"><ele>1000.6666666666667</ele><time>2026-05-03T14:32:46Z</time></trkpt><trkpt lat="42.285243166984365" lon="13.348177049428095"><ele>1002.3333333333334</ele><time>2026-05-03T14:32:47Z</time></trkpt><trkpt lat="42.2850986076774" lon="13.348365652983816"><ele>1004.0</ele><time>2026-05-03T14:32:48Z</time></trkpt><trkpt lat="42.28495545663191" lon="13.348562171696019"><ele>1004.0</ele><time>2026-05-03T14:32:49Z</time></trkpt><trkpt lat="42.284831700154776" lon="13.348764617844115"><ele>1004.0</ele><time>2026-05-03T14:32:50Z</time></trkpt><trkpt lat="42.28473079517591" lon="13.348961809209987"><ele>1004.0</ele><time>2026-05-03T14:32:51Z</time></trkpt><trkpt lat="42.284650172759775" lon="13.349152116420607"><ele>1003.6666666666667</ele><time>2026-05-03T14:32:52Z</time></trkpt><trkpt lat="42.28462696954953" lon="13.349362606154074"><ele>1003.3333333333333</ele><time>2026-05-03T14:32:53Z</time></trkpt><trkpt lat="42.28461018859356" lon="13.349588303323081"><ele>1003.0</ele><time>2026-05-03T14:32:54Z</time></trkpt><trkpt lat="42.28462660769593" lon="13.349769906052725"><ele>1006.25</ele><time>2026-05-03T14:32:55Z</time></trkpt><trkpt lat="42.28461280386879" lon="13.349903832597892"><ele>1009.5</ele><time>2026-05-03T14:32:56Z</time></trkpt><trkpt lat="42.284531719784056" lon="13.350007078263557"><ele>1012.75</ele><time>2026-05-03T14:32:57Z</time></trkpt><trkpt lat="42.28441320120242" lon="13.35005385815561"><ele>1016.0</ele><time>2026-05-03T14:32:58Z</time></trkpt><trkpt lat="42.28424262280812" lon="13.350126013493734"><ele>1016.0</ele><time>2026-05-03T14:32:59Z</time></trkpt><trkpt lat="42.284018379876095" lon="13.35018031617637"><ele>1016.0</ele><time>2026-05-03T14:33:00Z</time></trkpt><trkpt lat="42.28383273497808" lon="13.35024235189004"><ele>1016.0</ele><time>2026-05-03T14:33:01Z</time></trkpt><trkpt lat="42.283670025029195" lon="13.350303264216002"><ele>1018.0</ele><time>2026-05-03T14:33:02Z</time></trkpt><trkpt lat="42.28353175749599" lon="13.350455433241866"><ele>1020.0</ele><time>2026-05-03T14:33:03Z</time></trkpt><trkpt lat="42.28339536882486" lon="13.350653605120613"><ele>1022.0</ele><time>2026-05-03T14:33:04Z</time></trkpt><trkpt lat="42.28324645464133" lon="13.350901933274223"><ele>1022.5</ele><time>2026-05-03T14:33:05Z</time></trkpt><trkpt lat="42.283090777934035" lon="13.351194318469792"><ele>1023.0</ele><time>2026-05-03T14:33:06Z</time></trkpt><trkpt lat="42.28294865073731" lon="13.351457254224004"><ele>1023.0</ele><time>2026-05-03T14:33:07Z</time></trkpt><trkpt lat="42.28281749879193" lon="13.351680748280389"><ele>1023.0</ele><time>2026-05-03T14:33:08Z</time></trkpt><trkpt lat="42.28270010659415" lon="13.351886638490804"><ele>1023.0</ele><time>2026-05-03T14:33:09Z</time></trkpt><trkpt lat="42.28258225886781" lon="13.352064899438249"><ele>1027.6666666666667</ele><time>2026-05-03T14:33:10Z</time></trkpt><trkpt lat="42.28244367305525" lon="13.352211588171322"><ele>1032.3333333333335</ele><time>2026-05-03T14:33:11Z</time></trkpt><trkpt lat="42.28229663122916" lon="13.352314343454875"><ele>1037.0</ele><time>2026-05-03T14:33:12Z</time></trkpt><trkpt lat="42.2821675210833" lon="13.352382264740879"><ele>1037.0</ele><time>2026-05-03T14:33:13Z</time></trkpt><trkpt lat="42.282050691960144" lon="13.352401647176338"><ele>1037.0</ele><time>2026-05-03T14:33:14Z</time></trkpt><trkpt lat="42.28192032694337" lon="13.35235815459474"><ele>1037.0</ele><time>2026-05-03T14:33:15Z</time></trkpt><trkpt lat="42.281755445099776" lon="13.352265508957643"><ele>1037.0</ele><time>2026-05-03T14:33:16Z</time></trkpt><trkpt lat="42.28157952333892" lon="13.352182509558705"><ele>1037.0</ele><time>2026-05-03T14:33:17Z</time></trkpt><trkpt lat="42.28142558202005" lon="13.352217179635256"><ele>1037.0</ele><time>2026-05-03T14:33:18Z</time></trkpt><trkpt lat="42.28126030424567" lon="13.35229864970138"><ele>1037.0</ele><time>2026-05-03T14:33:19Z</time></trkpt><trkpt lat="42.28106838518861" lon="13.35244689819244"><ele>1037.0</ele><time>2026-05-03T14:33:20Z</time></trkpt><trkpt lat="42.28088178123828" lon="13.352637408721588"><ele>1037.0</ele><time>2026-05-03T14:33:21Z</time></trkpt><trkpt lat="42.28071258822989" lon="13.352767771821643"><ele>1037.0</ele><time>2026-05-03T14:33:22Z</time></trkpt><trkpt lat="42.280558860538136" lon="13.352840153542724"><ele>1037.75</ele><time>2026-05-03T14:33:23Z</time></trkpt><trkpt lat="42.280424253124316" lon="13.352888116490515"><ele>1038.5</ele><time>2026-05-03T14:33:24Z</time></trkpt><trkpt lat="42.2803162999202" lon="13.352955774546093"><ele>1039.25</ele><time>2026-05-03T14:33:25Z</time></trkpt><trkpt lat="42.28023449183854" lon="13.353068856241356"><ele>1040.0</ele><time>2026-05-03T14:33:26Z</time></trkpt><trkpt lat="42.280215750419714" lon="13.35324578513454"><ele>1040.0</ele><time>2026-05-03T14:33:27Z</time></trkpt><trkpt lat="42.28020235800997" lon="13.353454743200388"><ele>1040.0</ele><time>2026-05-03T14:33:28Z</time></trkpt><trkpt lat="42.28019018193007" lon="13.353702877554841"><ele>1040.0</ele><time>2026-05-03T14:33:29Z</time></trkpt><trkpt lat="42.28010251483206" lon="13.353974759773495"><ele>1042.0</ele><time>2026-05-03T14:33:30Z</time></trkpt><trkpt lat="42.27997515163253" lon="13.354190814954087"><ele>1044.0</ele><time>2026-05-03T14:33:31Z</time></trkpt><trkpt lat="42.279902357388906" lon="13.3543545155311"><ele>1046.0</ele><time>2026-05-03T14:33:32Z</time></trkpt><trkpt lat="42.27981625138216" lon="13.354478347542395"><ele>1046.0</ele><time>2026-05-03T14:33:33Z</time></trkpt><trkpt lat="42.27976953798625" lon="13.354599465612027"><ele>1046.0</ele><time>2026-05-03T14:33:34Z</time></trkpt><trkpt lat="42.279762149994" lon="13.354761253519415"><ele>1046.0</ele><time>2026-05-03T14:33:35Z</time></trkpt><trkpt lat="42.27983680572092" lon="13.354991298287425"><ele>1046.0</ele><time>2026-05-03T14:33:36Z</time></trkpt><trkpt lat="42.27991260615765" lon="13.355189641333768"><ele>1048.25</ele><time>2026-05-03T14:33:37Z</time></trkpt><trkpt lat="42.27997104919886" lon="13.355333276281385"><ele>1050.5</ele><time>2026-05-03T14:33:38Z</time></trkpt><trkpt lat="42.28003911969937" lon="13.355436056021528"><ele>1052.75</ele><time>2026-05-03T14:33:39Z</time></trkpt><trkpt lat="42.28015351809124" lon="13.355459721880898"><ele>1055.0</ele><time>2026-05-03T14:33:40Z</time></trkpt><trkpt lat="42.28028716133104" lon="13.355409155868031"><ele>1055.0</ele><time>2026-05-03T14:33:41Z</time></trkpt><trkpt lat="42.28044809302698" lon="13.355295357741099"><ele>1055.0</ele><time>2026-05-03T14:33:42Z</time></trkpt><trkpt lat="42.28059244713377" lon="13.355166580897826"><ele>1055.0</ele><time>2026-05-03T14:33:43Z</time></trkpt><trkpt lat="42.280687184048496" lon="13.355118040237462"><ele>1057.2</ele><time>2026-05-03T14:33:44Z</time></trkpt><trkpt lat="42.280763055297705" lon="13.355086389210383"><ele>1059.4</ele><time>2026-05-03T14:33:45Z</time></trkpt><trkpt lat="42.28083033033082" lon="13.355110379616939"><ele>1061.6</ele><time>2026-05-03T14:33:46Z</time></trkpt><trkpt lat="42.28087568941268" lon="13.355249618092797"><ele>1063.8</ele><time>2026-05-03T14:33:47Z</time></trkpt><trkpt lat="42.28086172460472" lon="13.355425302092915"><ele>1066.0</ele><time>2026-05-03T14:33:48Z</time></trkpt><trkpt lat="42.280801648955006" lon="13.355647753702293"><ele>1064.6666666666665</ele><time>2026-05-03T14:33:49Z</time></trkpt><trkpt lat="42.28069626602698" lon="13.355896050310543"><ele>1063.3333333333333</ele><time>2026-05-03T14:33:50Z</time></trkpt><trkpt lat="42.2805572967673" lon="13.356099515404269"><ele>1062.0</ele><time>2026-05-03T14:33:51Z</time></trkpt><trkpt lat="42.280476083423366" lon="13.35629482130752"><ele>1065.6666666666667</ele><time>2026-05-03T14:33:52Z</time></trkpt><trkpt lat="42.280410476260286" lon="13.35647061947881"><ele>1069.3333333333335</ele><time>2026-05-03T14:33:53Z</time></trkpt><trkpt lat="42.28040763305927" lon="13.35669192234857"><ele>1073.0</ele><time>2026-05-03T14:33:54Z</time></trkpt><trkpt lat="42.280392113194445" lon="13.356901139713372"><ele>1073.0</ele><time>2026-05-03T14:33:55Z</time></trkpt><trkpt lat="42.280333709381246" lon="13.357031613819057"><ele>1073.0</ele><time>2026-05-03T14:33:56Z</time></trkpt><trkpt lat="42.28021718179832" lon="13.357103507502531"><ele>1073.0</ele><time>2026-05-03T14:33:57Z</time></trkpt><trkpt lat="42.280038798762995" lon="13.357192348117977"><ele>1073.0</ele><time>2026-05-03T14:33:58Z</time></trkpt><trkpt lat="42.279827935033836" lon="13.357295582791297"><ele>1079.3333333333335</ele><time>2026-05-03T14:33:59Z</time></trkpt><trkpt lat="42.279628708316636" lon="13.357321250414994"><ele>1085.6666666666667</ele><time>2026-05-03T14:34:00Z</time></trkpt><trkpt lat="42.27940638225088" lon="13.357323739747294"><ele>1092.0</ele><time>2026-05-03T14:34:01Z</time></trkpt><trkpt lat="42.27920356651943" lon="13.35732994000404"><ele>1092.0</ele><time>2026-05-03T14:34:02Z</time></trkpt><trkpt lat="42.2790552045834" lon="13.35736001688694"><ele>1092.0</ele><time>2026-05-03T14:34:03Z</time></trkpt><trkpt lat="42.27892393024653" lon="13.357420346144027"><ele>1092.0</ele><time>2026-05-03T14:34:04Z</time></trkpt><trkpt lat="42.27880195342609" lon="13.357550906561912"><ele>1092.0</ele><time>2026-05-03T14:34:05Z</time></trkpt><trkpt lat="42.27865730922002" lon="13.357774043636056"><ele>1093.0</ele><time>2026-05-03T14:34:06Z</time></trkpt><trkpt lat="42.278504403880184" lon="13.35797203783808"><ele>1094.0</ele><time>2026-05-03T14:34:07Z</time></trkpt><trkpt lat="42.278375730909765" lon="13.35812130681367"><ele>1095.0</ele><time>2026-05-03T14:34:08Z</time></trkpt><trkpt lat="42.278277100089014" lon="13.358273660545441"><ele>1095.0</ele><time>2026-05-03T14:34:09Z</time></trkpt><trkpt lat="42.27822474857277" lon="13.358463507290992"><ele>1095.0</ele><time>2026-05-03T14:34:10Z</time></trkpt><trkpt lat="42.27821471375495" lon="13.358657926965561"><ele>1095.0</ele><time>2026-05-03T14:34:11Z</time></trkpt><trkpt lat="42.278222853426534" lon="13.358832406444572"><ele>1095.0</ele><time>2026-05-03T14:34:12Z</time></trkpt><trkpt lat="42.278199272659286" lon="13.359034400994766"><ele>1095.0</ele><time>2026-05-03T14:34:13Z</time></trkpt><trkpt lat="42.27815103519442" lon="13.359255222984595"><ele>1095.0</ele><time>2026-05-03T14:34:14Z</time></trkpt><trkpt lat="42.27804135203366" lon="13.359410804394486"><ele>1095.0</ele><time>2026-05-03T14:34:15Z</time></trkpt><trkpt lat="42.27789341217273" lon="13.359532087470523"><ele>1095.0</ele><time>2026-05-03T14:34:15.999Z</time></trkpt><trkpt lat="42.27773445195949" lon="13.35957113032134"><ele>1095.0</ele><time>2026-05-03T14:34:16.999Z</time></trkpt><trkpt lat="42.27754646520472" lon="13.35959237434708"><ele>1095.0</ele><time>2026-05-03T14:34:17.999Z</time></trkpt><trkpt lat="42.27737956890626" lon="13.359671242526861"><ele>1100.0</ele><time>2026-05-03T14:34:18.999Z</time></trkpt><trkpt lat="42.277217412220494" lon="13.359749077814984"><ele>1105.0</ele><time>2026-05-03T14:34:19.999Z</time></trkpt><trkpt lat="42.2770722177407" lon="13.359948443691739"><ele>1110.0</ele><time>2026-05-03T14:34:20.999Z</time></trkpt><trkpt lat="42.276915085048266" lon="13.360132465370455"><ele>1110.0</ele><time>2026-05-03T14:34:21.999Z</time></trkpt><trkpt lat="42.27676226894507" lon="13.360283419484414"><ele>1110.0</ele><time>2026-05-03T14:34:22.999Z</time></trkpt><trkpt lat="42.27662186564381" lon="13.36037184791789"><ele>1110.0</ele><time>2026-05-03T14:34:23.999Z</time></trkpt><trkpt lat="42.276505010492215" lon="13.36048101134089"><ele>1108.6666666666667</ele><time>2026-05-03T14:34:24.999Z</time></trkpt><trkpt lat="42.27648442043441" lon="13.360669140122607"><ele>1107.3333333333335</ele><time>2026-05-03T14:34:25.999Z</time></trkpt><trkpt lat="42.27638932932633" lon="13.360913128795213"><ele>1106.0</ele><time>2026-05-03T14:34:27.001Z</time></trkpt><trkpt lat="42.2762342165355" lon="13.361209127565637"><ele>1113.0</ele><time>2026-05-03T14:34:28.001Z</time></trkpt><trkpt lat="42.276100391210655" lon="13.361458105013126"><ele>1120.0</ele><time>2026-05-03T14:34:29.001Z</time></trkpt><trkpt lat="42.275967679993826" lon="13.361688221287334"><ele>1127.0</ele><time>2026-05-03T14:34:30.001Z</time></trkpt><trkpt lat="42.27583223126314" lon="13.361872390114783"><ele>1127.0</ele><time>2026-05-03T14:34:31.001Z</time></trkpt><trkpt lat="42.27568472451152" lon="13.362049501145119"><ele>1127.0</ele><time>2026-05-03T14:34:32.001Z</time></trkpt><trkpt lat="42.275485706144664" lon="13.362183393473515"><ele>1127.0</ele><time>2026-05-03T14:34:33.001Z</time></trkpt><trkpt lat="42.27526112490759" lon="13.362311954834995"><ele>1130.6666666666667</ele><time>2026-05-03T14:34:34.001Z</time></trkpt><trkpt lat="42.275063294389916" lon="13.362493512534943"><ele>1134.3333333333333</ele><time>2026-05-03T14:34:35.001Z</time></trkpt><trkpt lat="42.2748875136154" lon="13.362616625799912"><ele>1138.0</ele><time>2026-05-03T14:34:36.001Z</time></trkpt><trkpt lat="42.27473908049989" lon="13.362812080300195"><ele>1140.0</ele><time>2026-05-03T14:34:37.001Z</time></trkpt><trkpt lat="42.27457120361644" lon="13.3630709504919"><ele>1142.0</ele><time>2026-05-03T14:34:38.001Z</time></trkpt><trkpt lat="42.27436493073501" lon="13.363327876005382"><ele>1142.0</ele><time>2026-05-03T14:34:39.001Z</time></trkpt><trkpt lat="42.27415440276667" lon="13.363562907254225"><ele>1142.0</ele><time>2026-05-03T14:34:40.001Z</time></trkpt><trkpt lat="42.27398686410222" lon="13.363772814599336"><ele>1143.6666666666667</ele><time>2026-05-03T14:34:41.001Z</time></trkpt><trkpt lat="42.273854713053375" lon="13.363968933096857"><ele>1145.3333333333333</ele><time>2026-05-03T14:34:42.001Z</time></trkpt><trkpt lat="42.27372125191834" lon="13.364142533396045"><ele>1147.0</ele><time>2026-05-03T14:34:43.001Z</time></trkpt><trkpt lat="42.27353924882759" lon="13.364247112508853"><ele>1147.0</ele><time>2026-05-03T14:34:44Z</time></trkpt><trkpt lat="42.27335034189204" lon="13.364364308756347"><ele>1147.0</ele><time>2026-05-03T14:34:45Z</time></trkpt><trkpt lat="42.27320022069772" lon="13.364575406717018"><ele>1147.0</ele><time>2026-05-03T14:34:46Z</time></trkpt><trkpt lat="42.27308270263997" lon="13.364808042520995"><ele>1150.3333333333333</ele><time>2026-05-03T14:34:47Z</time></trkpt><trkpt lat="42.272983189771196" lon="13.365015846402772"><ele>1153.6666666666667</ele><time>2026-05-03T14:34:48Z</time></trkpt><trkpt lat="42.272881318828254" lon="13.36516977206064"><ele>1157.0</ele><time>2026-05-03T14:34:49Z</time></trkpt><trkpt lat="42.272754251109276" lon="13.36525575343005"><ele>1157.0</ele><time>2026-05-03T14:34:50Z</time></trkpt><trkpt lat="42.272584154766434" lon="13.365330073324682"><ele>1157.0</ele><time>2026-05-03T14:34:51Z</time></trkpt><trkpt lat="42.27238244509671" lon="13.365440063509253"><ele>1157.0</ele><time>2026-05-03T14:34:52Z</time></trkpt><trkpt lat="42.27214985415073" lon="13.365552351806855"><ele>1161.0</ele><time>2026-05-03T14:34:53Z</time></trkpt><trkpt lat="42.27197126841442" lon="13.365779232443781"><ele>1165.0</ele><time>2026-05-03T14:34:54Z</time></trkpt><trkpt lat="42.2717927101773" lon="13.366001902675738"><ele>1165.0</ele><time>2026-05-03T14:34:55Z</time></trkpt><trkpt lat="42.27167499574336" lon="13.366207425028005"><ele>1165.0</ele><time>2026-05-03T14:34:56Z</time></trkpt><trkpt lat="42.27161270576311" lon="13.366408989967384"><ele>1165.0</ele><time>2026-05-03T14:34:57Z</time></trkpt><trkpt lat="42.27154279449352" lon="13.36665506467208"><ele>1164.3333333333333</ele><time>2026-05-03T14:34:58Z</time></trkpt><trkpt lat="42.27146374158736" lon="13.366885975639297"><ele>1163.6666666666667</ele><time>2026-05-03T14:34:59Z</time></trkpt><trkpt lat="42.27133085674426" lon="13.367120918465082"><ele>1163.0</ele><time>2026-05-03T14:35:00Z</time></trkpt><trkpt lat="42.27114650361947" lon="13.367364506489018"><ele>1173.0</ele><time>2026-05-03T14:35:01Z</time></trkpt><trkpt lat="42.27095298347112" lon="13.367597561786237"><ele>1183.0</ele><time>2026-05-03T14:35:02Z</time></trkpt><trkpt lat="42.2707708529558" lon="13.3677821165319"><ele>1183.0</ele><time>2026-05-03T14:35:03Z</time></trkpt><trkpt lat="42.27060804789992" lon="13.367922746765368"><ele>1183.0</ele><time>2026-05-03T14:35:04Z</time></trkpt><trkpt lat="42.270485609037365" lon="13.36810333916264"><ele>1183.0</ele><time>2026-05-03T14:35:05Z</time></trkpt><trkpt lat="42.270400755330634" lon="13.368336887850681"><ele>1179.5</ele><time>2026-05-03T14:35:06Z</time></trkpt><trkpt lat="42.270326371361065" lon="13.368647757926876"><ele>1176.0</ele><time>2026-05-03T14:35:07Z</time></trkpt><trkpt lat="42.27024454264384" lon="13.368967345286611"><ele>1180.6666666666667</ele><time>2026-05-03T14:35:08Z</time></trkpt><trkpt lat="42.270175002214444" lon="13.36924336721366"><ele>1185.3333333333335</ele><time>2026-05-03T14:35:09Z</time></trkpt><trkpt lat="42.27014765688923" lon="13.36951365596367"><ele>1190.0</ele><time>2026-05-03T14:35:10Z</time></trkpt><trkpt lat="42.270134318561034" lon="13.369783632195901"><ele>1195.0</ele><time>2026-05-03T14:35:11Z</time></trkpt><trkpt lat="42.27007506039106" lon="13.370015621897043"><ele>1200.0</ele><time>2026-05-03T14:35:12Z</time></trkpt><trkpt lat="42.26997160925473" lon="13.370223242039687"><ele>1205.0</ele><time>2026-05-03T14:35:13Z</time></trkpt><trkpt lat="42.269830988481694" lon="13.370419804033379"><ele>1202.6666666666667</ele><time>2026-05-03T14:35:14Z</time></trkpt><trkpt lat="42.26965195366718" lon="13.370566426074639"><ele>1200.3333333333333</ele><time>2026-05-03T14:35:15Z</time></trkpt><trkpt lat="42.26950463293081" lon="13.370691369471611"><ele>1198.0</ele><time>2026-05-03T14:35:16Z</time></trkpt><trkpt lat="42.26938992320112" lon="13.370819600722825"><ele>1198.0</ele><time>2026-05-03T14:35:17Z</time></trkpt><trkpt lat="42.2693049049896" lon="13.37101504130026"><ele>1198.0</ele><time>2026-05-03T14:35:18Z</time></trkpt><trkpt lat="42.26925608120887" lon="13.371279832276825"><ele>1198.0</ele><time>2026-05-03T14:35:19Z</time></trkpt><trkpt lat="42.26922440121022" lon="13.371568368821876"><ele>1204.6666666666665</ele><time>2026-05-03T14:35:20Z</time></trkpt><trkpt lat="42.2691800214882" lon="13.37180177354757"><ele>1211.3333333333333</ele><time>2026-05-03T14:35:21Z</time></trkpt><trkpt lat="42.269109061838776" lon="13.37200610886387"><ele>1218.0</ele><time>2026-05-03T14:35:22Z</time></trkpt><trkpt lat="42.268974287079395" lon="13.372199851461199"><ele>1213.5</ele><time>2026-05-03T14:35:23Z</time></trkpt><trkpt lat="42.26880258721013" lon="13.372408513324396"><ele>1209.0</ele><time>2026-05-03T14:35:24Z</time></trkpt><trkpt lat="42.26863475233149" lon="13.372648252400202"><ele>1209.0</ele><time>2026-05-03T14:35:25Z</time></trkpt><trkpt lat="42.26849064531911" lon="13.372869051071943"><ele>1209.0</ele><time>2026-05-03T14:35:26Z</time></trkpt><trkpt lat="42.26837962115622" lon="13.373088204208353"><ele>1209.0</ele><time>2026-05-03T14:35:27Z</time></trkpt><trkpt lat="42.26830169973667" lon="13.37334837140062"><ele>1218.0</ele><time>2026-05-03T14:35:28Z</time></trkpt><trkpt lat="42.26823945226915" lon="13.373642959747654"><ele>1227.0</ele><time>2026-05-03T14:35:29Z</time></trkpt><trkpt lat="42.268204488232705" lon="13.373961694705226"><ele>1233.0</ele><time>2026-05-03T14:35:30Z</time></trkpt><trkpt lat="42.268188601212096" lon="13.374297456854213"><ele>1239.0</ele><time>2026-05-03T14:35:31Z</time></trkpt><trkpt lat="42.26812200526004" lon="13.37463909496366"><ele>1231.0</ele><time>2026-05-03T14:35:32Z</time></trkpt><trkpt lat="42.26800858778218" lon="13.37498392489403"><ele>1223.0</ele><time>2026-05-03T14:35:33Z</time></trkpt><trkpt lat="42.26790288214251" lon="13.375283774761256"><ele>1229.3333333333335</ele><time>2026-05-03T14:35:34Z</time></trkpt><trkpt lat="42.26781341337346" lon="13.37554688928533"><ele>1235.6666666666667</ele><time>2026-05-03T14:35:35Z</time></trkpt><trkpt lat="42.267704676547645" lon="13.375812706946219"><ele>1242.0</ele><time>2026-05-03T14:35:36Z</time></trkpt><trkpt lat="42.26755604254855" lon="13.37606357916018"><ele>1242.0</ele><time>2026-05-03T14:35:37Z</time></trkpt><trkpt lat="42.2673855172098" lon="13.376297126634041"><ele>1242.0</ele><time>2026-05-03T14:35:38Z</time></trkpt><trkpt lat="42.26722021253073" lon="13.376573887242326"><ele>1241.5</ele><time>2026-05-03T14:35:39Z</time></trkpt><trkpt lat="42.26706795769991" lon="13.376838321401749"><ele>1241.0</ele><time>2026-05-03T14:35:40Z</time></trkpt><trkpt lat="42.26692342631448" lon="13.377046956711595"><ele>1246.6666666666667</ele><time>2026-05-03T14:35:41Z</time></trkpt><trkpt lat="42.26679912669362" lon="13.37719877545195"><ele>1252.3333333333333</ele><time>2026-05-03T14:35:42Z</time></trkpt><trkpt lat="42.266703947368335" lon="13.37735479605499"><ele>1258.0</ele><time>2026-05-03T14:35:43Z</time></trkpt><trkpt lat="42.26664869744147" lon="13.377595966377537"><ele>1258.0</ele><time>2026-05-03T14:35:44Z</time></trkpt><trkpt lat="42.2666423925807" lon="13.377909440507242"><ele>1258.0</ele><time>2026-05-03T14:35:45Z</time></trkpt><trkpt lat="42.266619771744715" lon="13.378270380760824"><ele>1263.0</ele><time>2026-05-03T14:35:46Z</time></trkpt><trkpt lat="42.2665807207827" lon="13.378646765415377"><ele>1268.0</ele><time>2026-05-03T14:35:47Z</time></trkpt><trkpt lat="42.266542534467234" lon="13.379031773080543"><ele>1271.5</ele><time>2026-05-03T14:35:48Z</time></trkpt><trkpt lat="42.26651263374078" lon="13.379365779827252"><ele>1275.0</ele><time>2026-05-03T14:35:49Z</time></trkpt><trkpt lat="42.266488168843296" lon="13.37966128352012"><ele>1278.0</ele><time>2026-05-03T14:35:50Z</time></trkpt><trkpt lat="42.26645898838086" lon="13.379938063014096"><ele>1281.0</ele><time>2026-05-03T14:35:51Z</time></trkpt><trkpt lat="42.26638558264403" lon="13.38021798574546"><ele>1284.0</ele><time>2026-05-03T14:35:52Z</time></trkpt><trkpt lat="42.26627372992848" lon="13.38048936598024"><ele>1279.0</ele><time>2026-05-03T14:35:53Z</time></trkpt><trkpt lat="42.26620531703611" lon="13.38077812849801"><ele>1274.0</ele><time>2026-05-03T14:35:54Z</time></trkpt><trkpt lat="42.266185780872206" lon="13.381047992612574"><ele>1269.0</ele><time>2026-05-03T14:35:55Z</time></trkpt><trkpt lat="42.266159057380605" lon="13.38126642878222"><ele>1271.25</ele><time>2026-05-03T14:35:56Z</time></trkpt><trkpt lat="42.26611011473432" lon="13.381440798674866"><ele>1273.5</ele><time>2026-05-03T14:35:57Z</time></trkpt><trkpt lat="42.26602248195078" lon="13.381566864002702"><ele>1275.75</ele><time>2026-05-03T14:35:58Z</time></trkpt><trkpt lat="42.26590926575265" lon="13.38164879504378"><ele>1278.0</ele><time>2026-05-03T14:35:59Z</time></trkpt><trkpt lat="42.26585467822936" lon="13.381778676039165"><ele>1278.0</ele><time>2026-05-03T14:36:00Z</time></trkpt><trkpt lat="42.26588385733488" lon="13.3819743583658"><ele>1278.0</ele><time>2026-05-03T14:36:01Z</time></trkpt><trkpt lat="42.265988582357096" lon="13.382193540759575"><ele>1278.0</ele><time>2026-05-03T14:36:02Z</time></trkpt><trkpt lat="42.26607301585143" lon="13.382369937943578"><ele>1279.6666666666667</ele><time>2026-05-03T14:36:03Z</time></trkpt><trkpt lat="42.26608099720827" lon="13.382536007648417"><ele>1281.3333333333335</ele><time>2026-05-03T14:36:03.999Z</time></trkpt><trkpt lat="42.26601491949968" lon="13.382738473742577"><ele>1283.0</ele><time>2026-05-03T14:36:04.999Z</time></trkpt><trkpt lat="42.26589445716101" lon="13.382947312737825"><ele>1282.5</ele><time>2026-05-03T14:36:05.999Z</time></trkpt><trkpt lat="42.26573297590476" lon="13.38316254747249"><ele>1282.0</ele><time>2026-05-03T14:36:06.999Z</time></trkpt><trkpt lat="42.26553600630546" lon="13.383393585303285"><ele>1282.0</ele><time>2026-05-03T14:36:07.999Z</time></trkpt><trkpt lat="42.265366330044905" lon="13.383561055830752"><ele>1282.0</ele><time>2026-05-03T14:36:08.999Z</time></trkpt><trkpt lat="42.265207177160846" lon="13.38369039323622"><ele>1282.0</ele><time>2026-05-03T14:36:09.999Z</time></trkpt><trkpt lat="42.26507522970625" lon="13.383802297210716"><ele>1288.6666666666665</ele><time>2026-05-03T14:36:10.999Z</time></trkpt><trkpt lat="42.264986797778974" lon="13.383942447017484"><ele>1295.3333333333333</ele><time>2026-05-03T14:36:11.999Z</time></trkpt><trkpt lat="42.264945149354745" lon="13.384162635857356"><ele>1302.0</ele><time>2026-05-03T14:36:12.999Z</time></trkpt><trkpt lat="42.26490889343018" lon="13.384407898195036"><ele>1302.0</ele><time>2026-05-03T14:36:13.999Z</time></trkpt><trkpt lat="42.26482359668546" lon="13.384605461121145"><ele>1302.0</ele><time>2026-05-03T14:36:14.999Z</time></trkpt><trkpt lat="42.26469223617764" lon="13.384688506259758"><ele>1302.0</ele><time>2026-05-03T14:36:15.999Z</time></trkpt><trkpt lat="42.26459047386983" lon="13.384763095375579"><ele>1302.0</ele><time>2026-05-03T14:36:16.999Z</time></trkpt><trkpt lat="42.26456192736995" lon="13.384920495843527"><ele>1300.75</ele><time>2026-05-03T14:36:17.999Z</time></trkpt><trkpt lat="42.26461161088413" lon="13.385101292761544"><ele>1299.5</ele><time>2026-05-03T14:36:18.999Z</time></trkpt><trkpt lat="42.264622751678054" lon="13.385262579415778"><ele>1298.25</ele><time>2026-05-03T14:36:19.999Z</time></trkpt><trkpt lat="42.2645763679233" lon="13.38540083367391"><ele>1297.0</ele><time>2026-05-03T14:36:20.999Z</time></trkpt><trkpt lat="42.26442774235731" lon="13.385516932639407"><ele>1302.0</ele><time>2026-05-03T14:36:21.999Z</time></trkpt><trkpt lat="42.2642968229632" lon="13.385689700271483"><ele>1307.0</ele><time>2026-05-03T14:36:22.999Z</time></trkpt><trkpt lat="42.264179705405894" lon="13.38594077365695"><ele>1312.0</ele><time>2026-05-03T14:36:23.999Z</time></trkpt><trkpt lat="42.26401107792749" lon="13.386189938705709"><ele>1312.0</ele><time>2026-05-03T14:36:24.999Z</time></trkpt><trkpt lat="42.26384369283494" lon="13.38640672889932"><ele>1312.0</ele><time>2026-05-03T14:36:25.999Z</time></trkpt><trkpt lat="42.263726924915034" lon="13.386626415182286"><ele>1312.0</ele><time>2026-05-03T14:36:26.999Z</time></trkpt><trkpt lat="42.26363810146489" lon="13.386866164723406"><ele>1312.0</ele><time>2026-05-03T14:36:27.999Z</time></trkpt><trkpt lat="42.26350667520709" lon="13.387116700500943"><ele>1312.0</ele><time>2026-05-03T14:36:28.999Z</time></trkpt><trkpt lat="42.263320926541766" lon="13.38734441970995"><ele>1312.5</ele><time>2026-05-03T14:36:29.999Z</time></trkpt><trkpt lat="42.263112973193564" lon="13.387611627983334"><ele>1313.0</ele><time>2026-05-03T14:36:30.999Z</time></trkpt><trkpt lat="42.262922844017595" lon="13.38788155108618"><ele>1319.6666666666667</ele><time>2026-05-03T14:36:31.999Z</time></trkpt><trkpt lat="42.26276495897498" lon="13.388117744356549"><ele>1326.3333333333333</ele><time>2026-05-03T14:36:33Z</time></trkpt><trkpt lat="42.262622469352515" lon="13.388330029356604"><ele>1333.0</ele><time>2026-05-03T14:36:34Z</time></trkpt><trkpt lat="42.26250588087321" lon="13.388525446513967"><ele>1333.0</ele><time>2026-05-03T14:36:35Z</time></trkpt><trkpt lat="42.262410630940856" lon="13.388712217771857"><ele>1333.0</ele><time>2026-05-03T14:36:36Z</time></trkpt><trkpt lat="42.2623573062326" lon="13.388905619726417"><ele>1333.0</ele><time>2026-05-03T14:36:37Z</time></trkpt><trkpt lat="42.26235282347512" lon="13.389117401257785"><ele>1336.3333333333333</ele><time>2026-05-03T14:36:38Z</time></trkpt><trkpt lat="42.26236840377711" lon="13.389330447372688"><ele>1339.6666666666667</ele><time>2026-05-03T14:36:39Z</time></trkpt><trkpt lat="42.26233410859213" lon="13.38953785783708"><ele>1343.0</ele><time>2026-05-03T14:36:40Z</time></trkpt><trkpt lat="42.262240424743524" lon="13.389768397006174"><ele>1343.0</ele><time>2026-05-03T14:36:41Z</time></trkpt><trkpt lat="42.262144934661364" lon="13.389972607215903"><ele>1343.0</ele><time>2026-05-03T14:36:42Z</time></trkpt><trkpt lat="42.26201732671442" lon="13.3901351052522"><ele>1343.0</ele><time>2026-05-03T14:36:43Z</time></trkpt><trkpt lat="42.26187120045427" lon="13.390319341333049"><ele>1343.0</ele><time>2026-05-03T14:36:44Z</time></trkpt><trkpt lat="42.2617117973076" lon="13.390465290946466"><ele>1343.0</ele><time>2026-05-03T14:36:45Z</time></trkpt><trkpt lat="42.26156527081914" lon="13.390560129282381"><ele>1343.0</ele><time>2026-05-03T14:36:46Z</time></trkpt><trkpt lat="42.261438367241986" lon="13.390629333007022"><ele>1343.75</ele><time>2026-05-03T14:36:47Z</time></trkpt><trkpt lat="42.26134748756711" lon="13.390705164629631"><ele>1344.5</ele><time>2026-05-03T14:36:48Z</time></trkpt><trkpt lat="42.26128174362187" lon="13.390836217358714"><ele>1345.25</ele><time>2026-05-03T14:36:49Z</time></trkpt><trkpt lat="42.26127818183873" lon="13.391015462736945"><ele>1346.0</ele><time>2026-05-03T14:36:50Z</time></trkpt><trkpt lat="42.261331321555" lon="13.391208494600638"><ele>1347.3333333333335</ele><time>2026-05-03T14:36:51Z</time></trkpt><trkpt lat="42.26142377567969" lon="13.391431611575593"><ele>1348.6666666666667</ele><time>2026-05-03T14:36:52Z</time></trkpt><trkpt lat="42.26151125553081" lon="13.391645403689505"><ele>1350.0</ele><time>2026-05-03T14:36:53Z</time></trkpt><trkpt lat="42.26154946912916" lon="13.39183098185552"><ele>1353.25</ele><time>2026-05-03T14:36:54Z</time></trkpt><trkpt lat="42.261508396472436" lon="13.39199106993796"><ele>1356.5</ele><time>2026-05-03T14:36:55Z</time></trkpt><trkpt lat="42.261456267027555" lon="13.392167203464892"><ele>1359.75</ele><time>2026-05-03T14:36:56Z</time></trkpt><trkpt lat="42.26132461304097" lon="13.392296317159431"><ele>1363.0</ele><time>2026-05-03T14:36:57Z</time></trkpt><trkpt lat="42.26115792360697" lon="13.392411596071014"><ele>1363.0</ele><time>2026-05-03T14:36:58Z</time></trkpt><trkpt lat="42.26100501679705" lon="13.392521906387225"><ele>1363.0</ele><time>2026-05-03T14:36:59Z</time></trkpt><trkpt lat="42.260910205363594" lon="13.39262493059705"><ele>1363.0</ele><time>2026-05-03T14:37:00Z</time></trkpt><trkpt lat="42.260857056653414" lon="13.392750430183451"><ele>1363.0</ele><time>2026-05-03T14:37:01Z</time></trkpt><trkpt lat="42.26082127772837" lon="13.392949623430193"><ele>1365.6666666666665</ele><time>2026-05-03T14:37:02Z</time></trkpt><trkpt lat="42.26079477163926" lon="13.39319942179252"><ele>1368.3333333333333</ele><time>2026-05-03T14:37:03Z</time></trkpt><trkpt lat="42.26075140727114" lon="13.39346547010165"><ele>1371.0</ele><time>2026-05-03T14:37:04Z</time></trkpt><trkpt lat="42.26065437744675" lon="13.39371680708077"><ele>1371.6666666666667</ele><time>2026-05-03T14:37:05Z</time></trkpt><trkpt lat="42.26059137028204" lon="13.393955423868977"><ele>1372.3333333333335</ele><time>2026-05-03T14:37:06Z</time></trkpt><trkpt lat="42.26053706185065" lon="13.394187919173465"><ele>1373.0</ele><time>2026-05-03T14:37:07Z</time></trkpt><trkpt lat="42.26049577270083" lon="13.394381792844921"><ele>1373.0</ele><time>2026-05-03T14:37:08Z</time></trkpt><trkpt lat="42.26044502799598" lon="13.39455105137584"><ele>1373.0</ele><time>2026-05-03T14:37:09Z</time></trkpt><trkpt lat="42.26038396219339" lon="13.394707039514115"><ele>1373.0</ele><time>2026-05-03T14:37:10Z</time></trkpt><trkpt lat="42.26031134274534" lon="13.394837615878297"><ele>1373.0</ele><time>2026-05-03T14:37:11Z</time></trkpt><trkpt lat="42.260215473038855" lon="13.39493178658949"><ele>1373.5</ele><time>2026-05-03T14:37:12Z</time></trkpt><trkpt lat="42.26009932471099" lon="13.394941942521674"><ele>1374.0</ele><time>2026-05-03T14:37:13Z</time></trkpt><trkpt lat="42.25997592522859" lon="13.394903123835029"><ele>1374.5</ele><time>2026-05-03T14:37:14Z</time></trkpt><trkpt lat="42.25983235618042" lon="13.39484166358305"><ele>1375.0</ele><time>2026-05-03T14:37:15Z</time></trkpt><trkpt lat="42.259696791130146" lon="13.394746806760837"><ele>1381.0</ele><time>2026-05-03T14:37:16Z</time></trkpt><trkpt lat="42.259608158125886" lon="13.394614727708852"><ele>1387.0</ele><time>2026-05-03T14:37:17Z</time></trkpt><trkpt lat="42.25956429298533" lon="13.394447760915435"><ele>1393.0</ele><time>2026-05-03T14:37:18Z</time></trkpt><trkpt lat="42.259588254848964" lon="13.39423107830447"><ele>1399.0</ele><time>2026-05-03T14:37:19Z</time></trkpt><trkpt lat="42.25958973033578" lon="13.394012410333245"><ele>1401.0</ele><time>2026-05-03T14:37:20Z</time></trkpt><trkpt lat="42.259595538384" lon="13.393715591713923"><ele>1403.0</ele><time>2026-05-03T14:37:21Z</time></trkpt><trkpt lat="42.25959970457024" lon="13.393463664686307"><ele>1405.0</ele><time>2026-05-03T14:37:22Z</time></trkpt><trkpt lat="42.25960059235777" lon="13.393164587955757"><ele>1403.5</ele><time>2026-05-03T14:37:23Z</time></trkpt><trkpt lat="42.25959219452016" lon="13.39282072526866"><ele>1402.0</ele><time>2026-05-03T14:37:24Z</time></trkpt><trkpt lat="42.25958226452251" lon="13.392509012303012"><ele>1402.0</ele><time>2026-05-03T14:37:25Z</time></trkpt><trkpt lat="42.25957306851887" lon="13.392218695922088"><ele>1402.0</ele><time>2026-05-03T14:37:26Z</time></trkpt><trkpt lat="42.2595655359766" lon="13.392007714145056"><ele>1402.0</ele><time>2026-05-03T14:37:27Z</time></trkpt><trkpt lat="42.25955599853006" lon="13.39182913246248"><ele>1400.8333333333333</ele><time>2026-05-03T14:37:28Z</time></trkpt><trkpt lat="42.25954629828935" lon="13.391696181804328"><ele>1399.6666666666665</ele><time>2026-05-03T14:37:29Z</time></trkpt><trkpt lat="42.25952177113302" lon="13.391593757293924"><ele>1398.5</ele><time>2026-05-03T14:37:30Z</time></trkpt><trkpt lat="42.25950077989956" lon="13.391503000855696"><ele>1397.3333333333333</ele><time>2026-05-03T14:37:31Z</time></trkpt><trkpt lat="42.25944708434118" lon="13.391440746886307"><ele>1396.1666666666667</ele><time>2026-05-03T14:37:32Z</time></trkpt><trkpt lat="42.25938266862212" lon="13.39140824376655"><ele>1395.0</ele><time>2026-05-03T14:37:33Z</time></trkpt><trkpt lat="42.25928123918642" lon="13.391399784809607"><ele>1395.0</ele><time>2026-05-03T14:37:34Z</time></trkpt><trkpt lat="42.25917515994534" lon="13.391360262291855"><ele>1395.0</ele><time>2026-05-03T14:37:35Z</time></trkpt><trkpt lat="42.259070309049584" lon="13.391326857308831"><ele>1395.0</ele><time>2026-05-03T14:37:36Z</time></trkpt><trkpt lat="42.25898346071827" lon="13.391324820938353"><ele>1395.0</ele><time>2026-05-03T14:37:37Z</time></trkpt><trkpt lat="42.258903738865286" lon="13.391329381045303"><ele>1395.0</ele><time>2026-05-03T14:37:38Z</time></trkpt><trkpt lat="42.258832147197374" lon="13.3913177169108"><ele>1394.4</ele><time>2026-05-03T14:37:39Z</time></trkpt><trkpt lat="42.258744807348684" lon="13.391329874039066"><ele>1393.8</ele><time>2026-05-03T14:37:40Z</time></trkpt><trkpt lat="42.25867406713652" lon="13.391363724746707"><ele>1393.1999999999998</ele><time>2026-05-03T14:37:41Z</time></trkpt><trkpt lat="42.25860049621582" lon="13.391399804374625"><ele>1392.6</ele><time>2026-05-03T14:37:42Z</time></trkpt><trkpt lat="42.25853403261842" lon="13.3914684873976"><ele>1392.0</ele><time>2026-05-03T14:37:43Z</time></trkpt><trkpt lat="42.25843781622071" lon="13.391581838871199"><ele>1392.0</ele><time>2026-05-03T14:37:44Z</time></trkpt><trkpt lat="42.258359390523054" lon="13.391664310021708"><ele>1392.0</ele><time>2026-05-03T14:37:45Z</time></trkpt><trkpt lat="42.2583147403667" lon="13.391749514603681"><ele>1392.0</ele><time>2026-05-03T14:37:46Z</time></trkpt><trkpt lat="42.258251975353375" lon="13.391818060208164"><ele>1392.0</ele><time>2026-05-03T14:37:47Z</time></trkpt><trkpt lat="42.25819679062504" lon="13.391953910081904"><ele>1392.0</ele><time>2026-05-03T14:37:48Z</time></trkpt><trkpt lat="42.258125929382004" lon="13.392089610148163"><ele>1395.6666666666667</ele><time>2026-05-03T14:37:49Z</time></trkpt><trkpt lat="42.25804765260488" lon="13.392254393388738"><ele>1399.3333333333335</ele><time>2026-05-03T14:37:50Z</time></trkpt><trkpt lat="42.25796565833564" lon="13.392443063513829"><ele>1403.0</ele><time>2026-05-03T14:37:51Z</time></trkpt><trkpt lat="42.25788384617605" lon="13.392609282547335"><ele>1403.0</ele><time>2026-05-03T14:37:52Z</time></trkpt><trkpt lat="42.25780812468361" lon="13.39273909340079"><ele>1403.0</ele><time>2026-05-03T14:37:53Z</time></trkpt><trkpt lat="42.2577222031262" lon="13.392831667603206"><ele>1403.0</ele><time>2026-05-03T14:37:54Z</time></trkpt><trkpt lat="42.25761786525295" lon="13.392868926140522"><ele>1403.0</ele><time>2026-05-03T14:37:55Z</time></trkpt><trkpt lat="42.2575078955455" lon="13.392832106164727"><ele>1403.0</ele><time>2026-05-03T14:37:56Z</time></trkpt><trkpt lat="42.25742216728123" lon="13.392743854635844"><ele>1403.0</ele><time>2026-05-03T14:37:57Z</time></trkpt><trkpt lat="42.25734190360689" lon="13.392597884757839"><ele>1403.0</ele><time>2026-05-03T14:37:58Z</time></trkpt><trkpt lat="42.2572540881495" lon="13.392405894475125"><ele>1403.0</ele><time>2026-05-03T14:37:59Z</time></trkpt><trkpt lat="42.25714604389131" lon="13.392234717924788"><ele>1403.8000000000002</ele><time>2026-05-03T14:38:00Z</time></trkpt><trkpt lat="42.257067365009014" lon="13.392081071762592"><ele>1404.6</ele><time>2026-05-03T14:38:00.999Z</time></trkpt><trkpt lat="42.25701710307494" lon="13.391939898511811"><ele>1405.4</ele><time>2026-05-03T14:38:01.999Z</time></trkpt><trkpt lat="42.256987804929736" lon="13.39182230428556"><ele>1406.1999999999998</ele><time>2026-05-03T14:38:02.999Z</time></trkpt><trkpt lat="42.256913387627094" lon="13.391760073961299"><ele>1407.0</ele><time>2026-05-03T14:38:03.999Z</time></trkpt><trkpt lat="42.256803321028634" lon="13.391789183368994"><ele>1407.0</ele><time>2026-05-03T14:38:04.999Z</time></trkpt><trkpt lat="42.2566686114237" lon="13.391899986781446"><ele>1407.0</ele><time>2026-05-03T14:38:05.999Z</time></trkpt><trkpt lat="42.25652614305991" lon="13.392067780543357"><ele>1407.0</ele><time>2026-05-03T14:38:06.999Z</time></trkpt><trkpt lat="42.25636033845434" lon="13.392228971029624"><ele>1409.6666666666667</ele><time>2026-05-03T14:38:07.999Z</time></trkpt><trkpt lat="42.25618070967316" lon="13.39237740726689"><ele>1412.3333333333335</ele><time>2026-05-03T14:38:08.999Z</time></trkpt><trkpt lat="42.25601479780684" lon="13.392475223061066"><ele>1415.0</ele><time>2026-05-03T14:38:09.999Z</time></trkpt><trkpt lat="42.25585792180423" lon="13.392522434074031"><ele>1415.0</ele><time>2026-05-03T14:38:10.999Z</time></trkpt><trkpt lat="42.25570869390161" lon="13.392636869075886"><ele>1415.0</ele><time>2026-05-03T14:38:11.999Z</time></trkpt><trkpt lat="42.2555775272515" lon="13.392816028121363"><ele>1415.0</ele><time>2026-05-03T14:38:12.999Z</time></trkpt><trkpt lat="42.2554576351876" lon="13.393074719122625"><ele>1412.5</ele><time>2026-05-03T14:38:13.999Z</time></trkpt><trkpt lat="42.25532954950361" lon="13.393367428307917"><ele>1410.0</ele><time>2026-05-03T14:38:14.999Z</time></trkpt><trkpt lat="42.2551460243854" lon="13.393627647226083"><ele>1407.5</ele><time>2026-05-03T14:38:15.999Z</time></trkpt><trkpt lat="42.25495126320474" lon="13.393926136790805"><ele>1405.0</ele><time>2026-05-03T14:38:16.999Z</time></trkpt><trkpt lat="42.254753935710035" lon="13.394227881948376"><ele>1405.0</ele><time>2026-05-03T14:38:17.999Z</time></trkpt><trkpt lat="42.254567796482426" lon="13.39460246784232"><ele>1405.0</ele><time>2026-05-03T14:38:18.999Z</time></trkpt><trkpt lat="42.2544008420358" lon="13.394971199102788"><ele>1415.0</ele><time>2026-05-03T14:38:19.999Z</time></trkpt><trkpt lat="42.254255424958544" lon="13.395300730588856"><ele>1425.0</ele><time>2026-05-03T14:38:20.999Z</time></trkpt><trkpt lat="42.254109035673366" lon="13.395598486986723"><ele>1424.0</ele><time>2026-05-03T14:38:21.999Z</time></trkpt><trkpt lat="42.253913230916964" lon="13.395857849735567"><ele>1423.0</ele><time>2026-05-03T14:38:22.999Z</time></trkpt><trkpt lat="42.25370676393647" lon="13.396153024962452"><ele>1434.5</ele><time>2026-05-03T14:38:23.999Z</time></trkpt><trkpt lat="42.253491786534255" lon="13.396435803979442"><ele>1446.0</ele><time>2026-05-03T14:38:24.999Z</time></trkpt><trkpt lat="42.25329614725313" lon="13.396728626048976"><ele>1442.5</ele><time>2026-05-03T14:38:25.999Z</time></trkpt><trkpt lat="42.25308640712938" lon="13.39705500015643"><ele>1439.0</ele><time>2026-05-03T14:38:26.999Z</time></trkpt><trkpt lat="42.25286127901333" lon="13.397408545560223"><ele>1439.0</ele><time>2026-05-03T14:38:27.999Z</time></trkpt><trkpt lat="42.25263732033027" lon="13.397783702390972"><ele>1439.0</ele><time>2026-05-03T14:38:28.999Z</time></trkpt><trkpt lat="42.25242192354492" lon="13.39818141549963"><ele>1443.5</ele><time>2026-05-03T14:38:29.999Z</time></trkpt><trkpt lat="42.2522298271277" lon="13.398597114759356"><ele>1448.0</ele><time>2026-05-03T14:38:30.999Z</time></trkpt><trkpt lat="42.25204848927545" lon="13.398978269232373"><ele>1448.0</ele><time>2026-05-03T14:38:31.999Z</time></trkpt><trkpt lat="42.25185285615319" lon="13.399357109180498"><ele>1448.0</ele><time>2026-05-03T14:38:32.999Z</time></trkpt><trkpt lat="42.251632156084916" lon="13.399713701271994"><ele>1446.0</ele><time>2026-05-03T14:38:33.999Z</time></trkpt><trkpt lat="42.25143200632073" lon="13.400042092017229"><ele>1444.0</ele><time>2026-05-03T14:38:34.999Z</time></trkpt><trkpt lat="42.251233758450255" lon="13.4003803126669"><ele>1455.5</ele><time>2026-05-03T14:38:35.999Z</time></trkpt><trkpt lat="42.251003868465986" lon="13.400717492493609"><ele>1467.0</ele><time>2026-05-03T14:38:36.999Z</time></trkpt><trkpt lat="42.25076112528322" lon="13.401033976663918"><ele>1467.0</ele><time>2026-05-03T14:38:37.999Z</time></trkpt><trkpt lat="42.25054392983764" lon="13.401331675601929"><ele>1467.0</ele><time>2026-05-03T14:38:39Z</time></trkpt><trkpt lat="42.250325572988544" lon="13.401619106450037"><ele>1467.0</ele><time>2026-05-03T14:38:40Z</time></trkpt><trkpt lat="42.250083719377606" lon="13.401886164385195"><ele>1467.0</ele><time>2026-05-03T14:38:41Z</time></trkpt><trkpt lat="42.2498462650839" lon="13.402185230096409"><ele>1465.0</ele><time>2026-05-03T14:38:42Z</time></trkpt><trkpt lat="42.249615899636126" lon="13.402507896607641"><ele>1463.0</ele><time>2026-05-03T14:38:43Z</time></trkpt><trkpt lat="42.24938491655247" lon="13.402852477825773"><ele>1477.5</ele><time>2026-05-03T14:38:44Z</time></trkpt><trkpt lat="42.249169354434805" lon="13.403160200263331"><ele>1492.0</ele><time>2026-05-03T14:38:45Z</time></trkpt><trkpt lat="42.24897687962169" lon="13.403450888421368"><ele>1491.0</ele><time>2026-05-03T14:38:46Z</time></trkpt><trkpt lat="42.24877693470938" lon="13.403742895582324"><ele>1490.0</ele><time>2026-05-03T14:38:47Z</time></trkpt><trkpt lat="42.24857377471982" lon="13.404021430669301"><ele>1490.0</ele><time>2026-05-03T14:38:48Z</time></trkpt><trkpt lat="42.24839269606773" lon="13.404279850232378"><ele>1490.0</ele><time>2026-05-03T14:38:49Z</time></trkpt><trkpt lat="42.248247748928485" lon="13.404525535135079"><ele>1487.5</ele><time>2026-05-03T14:38:50Z</time></trkpt><trkpt lat="42.24811204649831" lon="13.404776814985304"><ele>1485.0</ele><time>2026-05-03T14:38:51Z</time></trkpt><trkpt lat="42.24797152783662" lon="13.405018158042271"><ele>1485.0</ele><time>2026-05-03T14:38:52Z</time></trkpt><trkpt lat="42.24780727804224" lon="13.4052586108122"><ele>1485.0</ele><time>2026-05-03T14:38:53Z</time></trkpt><trkpt lat="42.24760759479837" lon="13.40548659973002"><ele>1489.5</ele><time>2026-05-03T14:38:54Z</time></trkpt><trkpt lat="42.247364005186114" lon="13.40570442675502"><ele>1494.0</ele><time>2026-05-03T14:38:55Z</time></trkpt><trkpt lat="42.24712112251353" lon="13.405947453436745"><ele>1494.0</ele><time>2026-05-03T14:38:56Z</time></trkpt><trkpt lat="42.2468640043253" lon="13.406169549128235"><ele>1494.0</ele><time>2026-05-03T14:38:57Z</time></trkpt><trkpt lat="42.24660213586826" lon="13.406366792929298"><ele>1498.5</ele><time>2026-05-03T14:38:58Z</time></trkpt><trkpt lat="42.246361934179326" lon="13.406631130940662"><ele>1503.0</ele><time>2026-05-03T14:38:59Z</time></trkpt><trkpt lat="42.24616165750477" lon="13.406893262197142"><ele>1503.0</ele><time>2026-05-03T14:39:00Z</time></trkpt><trkpt lat="42.245985271304875" lon="13.40709870864588"><ele>1503.0</ele><time>2026-05-03T14:39:01Z</time></trkpt><trkpt lat="42.245824910276944" lon="13.407279446262333"><ele>1503.0</ele><time>2026-05-03T14:39:02Z</time></trkpt><trkpt lat="42.245678478280006" lon="13.407452275658873"><ele>1503.6666666666667</ele><time>2026-05-03T14:39:03Z</time></trkpt><trkpt lat="42.24554226947832" lon="13.407653237008947"><ele>1504.3333333333335</ele><time>2026-05-03T14:39:04Z</time></trkpt><trkpt lat="42.24542733573526" lon="13.40793243592717"><ele>1505.0</ele><time>2026-05-03T14:39:05Z</time></trkpt><trkpt lat="42.245331540307305" lon="13.40827385910584"><ele>1508.5</ele><time>2026-05-03T14:39:06Z</time></trkpt><trkpt lat="42.24523090908853" lon="13.408633731609308"><ele>1512.0</ele><time>2026-05-03T14:39:07Z</time></trkpt><trkpt lat="42.24511566361738" lon="13.409006531501106"><ele>1518.0</ele><time>2026-05-03T14:39:08Z</time></trkpt><trkpt lat="42.24499461431857" lon="13.409387010010091"><ele>1524.0</ele><time>2026-05-03T14:39:09Z</time></trkpt><trkpt lat="42.24488055152617" lon="13.409745701146056"><ele>1523.0</ele><time>2026-05-03T14:39:10Z</time></trkpt><trkpt lat="42.24476941791973" lon="13.410063227932788"><ele>1522.0</ele><time>2026-05-03T14:39:11Z</time></trkpt><trkpt lat="42.24462751784636" lon="13.41036772388787"><ele>1529.5</ele><time>2026-05-03T14:39:12Z</time></trkpt><trkpt lat="42.24444452249585" lon="13.410660078048817"><ele>1537.0</ele><time>2026-05-03T14:39:13Z</time></trkpt><trkpt lat="42.24423774861381" lon="13.410952687014825"><ele>1537.0</ele><time>2026-05-03T14:39:14Z</time></trkpt><trkpt lat="42.24402004494728" lon="13.411265063111884"><ele>1537.0</ele><time>2026-05-03T14:39:15Z</time></trkpt><trkpt lat="42.243792938483445" lon="13.411599305594317"><ele>1538.5</ele><time>2026-05-03T14:39:16Z</time></trkpt><trkpt lat="42.243558967349635" lon="13.411946484781662"><ele>1540.0</ele><time>2026-05-03T14:39:17Z</time></trkpt><trkpt lat="42.243346038130056" lon="13.412258125125456"><ele>1540.5</ele><time>2026-05-03T14:39:18Z</time></trkpt><trkpt lat="42.243157938981184" lon="13.412532205918593"><ele>1541.0</ele><time>2026-05-03T14:39:19Z</time></trkpt><trkpt lat="42.24298719448397" lon="13.412785768332359"><ele>1546.5</ele><time>2026-05-03T14:39:20Z</time></trkpt><trkpt lat="42.24280469979486" lon="13.413034946726132"><ele>1552.0</ele><time>2026-05-03T14:39:21Z</time></trkpt><trkpt lat="42.242576169067476" lon="13.413265230820429"><ele>1552.0</ele><time>2026-05-03T14:39:22Z</time></trkpt><trkpt lat="42.242307934485154" lon="13.413474862592487"><ele>1552.0</ele><time>2026-05-03T14:39:23Z</time></trkpt><trkpt lat="42.24202461834364" lon="13.413692651788264"><ele>1556.5</ele><time>2026-05-03T14:39:24Z</time></trkpt><trkpt lat="42.2417332743054" lon="13.413930425681876"><ele>1561.0</ele><time>2026-05-03T14:39:25Z</time></trkpt><trkpt lat="42.241437266774575" lon="13.414177478111418"><ele>1562.5</ele><time>2026-05-03T14:39:26Z</time></trkpt><trkpt lat="42.24113831206803" lon="13.414429050834128"><ele>1564.0</ele><time>2026-05-03T14:39:27Z</time></trkpt><trkpt lat="42.24082638429471" lon="13.414686288859702"><ele>1563.5</ele><time>2026-05-03T14:39:28Z</time></trkpt><trkpt lat="42.240507105161434" lon="13.414953061379281"><ele>1563.0</ele><time>2026-05-03T14:39:29Z</time></trkpt><trkpt lat="42.24018061445631" lon="13.415224199693384"><ele>1563.5</ele><time>2026-05-03T14:39:30Z</time></trkpt><trkpt lat="42.239856561913264" lon="13.415491461793302"><ele>1564.0</ele><time>2026-05-03T14:39:31Z</time></trkpt><trkpt lat="42.23956419754826" lon="13.415727659266885"><ele>1564.0</ele><time>2026-05-03T14:39:32Z</time></trkpt><trkpt lat="42.2392800235814" lon="13.415962942460778"><ele>1564.0</ele><time>2026-05-03T14:39:33Z</time></trkpt><trkpt lat="42.238976259889874" lon="13.416211857267896"><ele>1559.5</ele><time>2026-05-03T14:39:34Z</time></trkpt><trkpt lat="42.23865864556554" lon="13.41647576243405"><ele>1555.0</ele><time>2026-05-03T14:39:35Z</time></trkpt><trkpt lat="42.23833754687655" lon="13.416745335769825"><ele>1555.0</ele><time>2026-05-03T14:39:36Z</time></trkpt><trkpt lat="42.23803589205707" lon="13.416994615485908"><ele>1555.0</ele><time>2026-05-03T14:39:37Z</time></trkpt><trkpt lat="42.23774983098427" lon="13.417230718848566"><ele>1549.5</ele><time>2026-05-03T14:39:38Z</time></trkpt><trkpt lat="42.237479483539765" lon="13.417453406927141"><ele>1544.0</ele><time>2026-05-03T14:39:39Z</time></trkpt><trkpt lat="42.237221649325875" lon="13.41766723645781"><ele>1544.0</ele><time>2026-05-03T14:39:40Z</time></trkpt><trkpt lat="42.23698518799919" lon="13.417861182101445"><ele>1544.0</ele><time>2026-05-03T14:39:41Z</time></trkpt><trkpt lat="42.236767577656984" lon="13.418040054977553"><ele>1543.5</ele><time>2026-05-03T14:39:42Z</time></trkpt><trkpt lat="42.23656039102236" lon="13.418207890121222"><ele>1543.0</ele><time>2026-05-03T14:39:43Z</time></trkpt><trkpt lat="42.23636415852367" lon="13.418365555510446"><ele>1543.0</ele><time>2026-05-03T14:39:44Z</time></trkpt><trkpt lat="42.236179355837734" lon="13.418505723785163"><ele>1543.0</ele><time>2026-05-03T14:39:45Z</time></trkpt><trkpt lat="42.23598219924306" lon="13.418635554264387"><ele>1543.0</ele><time>2026-05-03T14:39:46Z</time></trkpt><trkpt lat="42.2357674408142" lon="13.418738609422523"><ele>1543.0</ele><time>2026-05-03T14:39:47Z</time></trkpt><trkpt lat="42.23552851804809" lon="13.41880137488136"><ele>1543.0</ele><time>2026-05-03T14:39:48Z</time></trkpt><trkpt lat="42.235270219920835" lon="13.418835690643508"><ele>1543.0</ele><time>2026-05-03T14:39:49Z</time></trkpt><trkpt lat="42.235009328660816" lon="13.418820865054315"><ele>1543.0</ele><time>2026-05-03T14:39:50Z</time></trkpt><trkpt lat="42.23476933231548" lon="13.418781415087034"><ele>1545.0</ele><time>2026-05-03T14:39:51Z</time></trkpt><trkpt lat="42.2345394287743" lon="13.41870739845245"><ele>1547.0</ele><time>2026-05-03T14:39:52Z</time></trkpt><trkpt lat="42.23431122178833" lon="13.418603127317628"><ele>1547.0</ele><time>2026-05-03T14:39:53Z</time></trkpt><trkpt lat="42.23407885867348" lon="13.418444366286488"><ele>1547.0</ele><time>2026-05-03T14:39:54Z</time></trkpt><trkpt lat="42.23384370430507" lon="13.418229139727705"><ele>1550.0</ele><time>2026-05-03T14:39:55Z</time></trkpt><trkpt lat="42.233616596943094" lon="13.417967793156224"><ele>1553.0</ele><time>2026-05-03T14:39:56Z</time></trkpt><trkpt lat="42.23339974407186" lon="13.417659164863599"><ele>1553.0</ele><time>2026-05-03T14:39:57Z</time></trkpt><trkpt lat="42.23319670175312" lon="13.417317725475394"><ele>1553.0</ele><time>2026-05-03T14:39:58Z</time></trkpt><trkpt lat="42.23299708633694" lon="13.416951816241749"><ele>1555.5</ele><time>2026-05-03T14:39:58.999Z</time></trkpt><trkpt lat="42.23278928565348" lon="13.416604945292658"><ele>1558.0</ele><time>2026-05-03T14:39:59.999Z</time></trkpt><trkpt lat="42.23260445967903" lon="13.416296424847365"><ele>1558.5</ele><time>2026-05-03T14:40:00.999Z</time></trkpt><trkpt lat="42.23243732905995" lon="13.416037098250163"><ele>1559.0</ele><time>2026-05-03T14:40:01.999Z</time></trkpt><trkpt lat="42.23229472992948" lon="13.415780564495911"><ele>1559.3333333333333</ele><time>2026-05-03T14:40:02.999Z</time></trkpt><trkpt lat="42.232153642288715" lon="13.415539923652597"><ele>1559.6666666666665</ele><time>2026-05-03T14:40:03.999Z</time></trkpt><trkpt lat="42.23201506038694" lon="13.415307224932977"><ele>1560.0</ele><time>2026-05-03T14:40:04.999Z</time></trkpt><trkpt lat="42.23188496238975" lon="13.415072223418713"><ele>1560.0</ele><time>2026-05-03T14:40:05.999Z</time></trkpt><trkpt lat="42.23177531262383" lon="13.41478621651685"><ele>1560.0</ele><time>2026-05-03T14:40:06.999Z</time></trkpt><trkpt lat="42.23166421300841" lon="13.41446342601166"><ele>1561.5</ele><time>2026-05-03T14:40:07.999Z</time></trkpt><trkpt lat="42.23157898263581" lon="13.414094974681916"><ele>1563.0</ele><time>2026-05-03T14:40:08.999Z</time></trkpt><trkpt lat="42.2315133856106" lon="13.413680615745543"><ele>1565.5</ele><time>2026-05-03T14:40:09.999Z</time></trkpt><trkpt lat="42.23148555844576" lon="13.413246135544098"><ele>1568.0</ele><time>2026-05-03T14:40:10.999Z</time></trkpt><trkpt lat="42.23149737421665" lon="13.412813441153391"><ele>1568.0</ele><time>2026-05-03T14:40:11.999Z</time></trkpt><trkpt lat="42.23154629685037" lon="13.412400431069399"><ele>1568.0</ele><time>2026-05-03T14:40:12.999Z</time></trkpt><trkpt lat="42.2316275009752" lon="13.411990449940246"><ele>1566.0</ele><time>2026-05-03T14:40:13.999Z</time></trkpt><trkpt lat="42.23174663377495" lon="13.411596225061752"><ele>1564.0</ele><time>2026-05-03T14:40:14.999Z</time></trkpt><trkpt lat="42.23190159178007" lon="13.411189374618543"><ele>1562.0</ele><time>2026-05-03T14:40:15.999Z</time></trkpt><trkpt lat="42.23206258793156" lon="13.410771199634155"><ele>1560.0</ele><time>2026-05-03T14:40:16.999Z</time></trkpt><trkpt lat="42.23221742225427" lon="13.410335513293692"><ele>1563.5</ele><time>2026-05-03T14:40:17.999Z</time></trkpt><trkpt lat="42.2323860330304" lon="13.409905602176506"><ele>1567.0</ele><time>2026-05-03T14:40:18.999Z</time></trkpt><trkpt lat="42.23255494029202" lon="13.409475378833305"><ele>1567.0</ele><time>2026-05-03T14:40:19.999Z</time></trkpt><trkpt lat="42.232709883252966" lon="13.409080593687523"><ele>1567.0</ele><time>2026-05-03T14:40:20.999Z</time></trkpt><trkpt lat="42.23286350753613" lon="13.408687617375298"><ele>1564.0</ele><time>2026-05-03T14:40:21.999Z</time></trkpt><trkpt lat="42.23300489582737" lon="13.408268588817815"><ele>1561.0</ele><time>2026-05-03T14:40:22.999Z</time></trkpt><trkpt lat="42.23312570027898" lon="13.407837477361342"><ele>1573.5</ele><time>2026-05-03T14:40:23.999Z</time></trkpt><trkpt lat="42.23321797849761" lon="13.407417344780663"><ele>1586.0</ele><time>2026-05-03T14:40:24.999Z</time></trkpt><trkpt lat="42.23331166682843" lon="13.406998413453334"><ele>1586.0</ele><time>2026-05-03T14:40:25.999Z</time></trkpt><trkpt lat="42.23337588716882" lon="13.406567268382343"><ele>1586.0</ele><time>2026-05-03T14:40:26.999Z</time></trkpt><trkpt lat="42.23342071682698" lon="13.406113126689528"><ele>1584.0</ele><time>2026-05-03T14:40:27.999Z</time></trkpt><trkpt lat="42.233450354595895" lon="13.405642987757327"><ele>1582.0</ele><time>2026-05-03T14:40:28.999Z</time></trkpt><trkpt lat="42.23344995234553" lon="13.40516231858444"><ele>1582.0</ele><time>2026-05-03T14:40:29.999Z</time></trkpt><trkpt lat="42.23344035131894" lon="13.404675246474321"><ele>1582.0</ele><time>2026-05-03T14:40:30.999Z</time></trkpt><trkpt lat="42.23340458929419" lon="13.404174466691298"><ele>1583.5</ele><time>2026-05-03T14:40:31.999Z</time></trkpt><trkpt lat="42.23335461816117" lon="13.403679138221696"><ele>1585.0</ele><time>2026-05-03T14:40:32.999Z</time></trkpt><trkpt lat="42.23330678361589" lon="13.403172516490493"><ele>1588.5</ele><time>2026-05-03T14:40:33.999Z</time></trkpt><trkpt lat="42.2332683817164" lon="13.402688223545047"><ele>1592.0</ele><time>2026-05-03T14:40:34.999Z</time></trkpt><trkpt lat="42.233232638961724" lon="13.402239128270999"><ele>1595.5</ele><time>2026-05-03T14:40:35.999Z</time></trkpt><trkpt lat="42.23319244514473" lon="13.401789100915499"><ele>1599.0</ele><time>2026-05-03T14:40:36.999Z</time></trkpt><trkpt lat="42.23315245197485" lon="13.40135327999065"><ele>1579.5</ele><time>2026-05-03T14:40:37.999Z</time></trkpt><trkpt lat="42.23311591794345" lon="13.400918662149852"><ele>1560.0</ele><time>2026-05-03T14:40:38.999Z</time></trkpt><trkpt lat="42.23309115251479" lon="13.400539765311434"><ele>1560.0</ele><time>2026-05-03T14:40:39.999Z</time></trkpt><trkpt lat="42.23308295515084" lon="13.400176472675776"><ele>1560.0</ele><time>2026-05-03T14:40:40.999Z</time></trkpt><trkpt lat="42.23309879356842" lon="13.399838041714238"><ele>1578.5</ele><time>2026-05-03T14:40:41.999Z</time></trkpt><trkpt lat="42.23314204799844" lon="13.399489001400584"><ele>1597.0</ele><time>2026-05-03T14:40:42.999Z</time></trkpt><trkpt lat="42.23321508001852" lon="13.399122064457494"><ele>1591.0</ele><time>2026-05-03T14:40:43.999Z</time></trkpt><trkpt lat="42.23329827877316" lon="13.398758916796067"><ele>1585.0</ele><time>2026-05-03T14:40:45Z</time></trkpt><trkpt lat="42.23338452308208" lon="13.398355632723298"><ele>1580.5</ele><time>2026-05-03T14:40:46Z</time></trkpt><trkpt lat="42.23348737563482" lon="13.397941208408758"><ele>1576.0</ele><time>2026-05-03T14:40:47Z</time></trkpt><trkpt lat="42.23361122525353" lon="13.397541159677166"><ele>1576.0</ele><time>2026-05-03T14:40:48Z</time></trkpt><trkpt lat="42.23372325144161" lon="13.397183847167168"><ele>1576.0</ele><time>2026-05-03T14:40:49Z</time></trkpt><trkpt lat="42.23381019216338" lon="13.396832942858337"><ele>1574.5</ele><time>2026-05-03T14:40:50Z</time></trkpt><trkpt lat="42.233896057846245" lon="13.396481049860654"><ele>1573.0</ele><time>2026-05-03T14:40:51Z</time></trkpt><trkpt lat="42.233980546192946" lon="13.396088707221391"><ele>1590.5</ele><time>2026-05-03T14:40:52Z</time></trkpt><trkpt lat="42.23403025771853" lon="13.39567174539899"><ele>1608.0</ele><time>2026-05-03T14:40:53Z</time></trkpt><trkpt lat="42.23405934811819" lon="13.395233645792526"><ele>1608.0</ele><time>2026-05-03T14:40:54Z</time></trkpt><trkpt lat="42.23406569252462" lon="13.394770283559913"><ele>1608.0</ele><time>2026-05-03T14:40:55Z</time></trkpt><trkpt lat="42.234034564074115" lon="13.394284618359972"><ele>1609.5</ele><time>2026-05-03T14:40:56Z</time></trkpt><trkpt lat="42.23399067840972" lon="13.39380232157539"><ele>1611.0</ele><time>2026-05-03T14:40:57Z</time></trkpt><trkpt lat="42.23393772312315" lon="13.39331518348417"><ele>1594.5</ele><time>2026-05-03T14:40:58Z</time></trkpt><trkpt lat="42.23388311258079" lon="13.3928174236226"><ele>1578.0</ele><time>2026-05-03T14:40:59Z</time></trkpt><trkpt lat="42.233830317660434" lon="13.392323744568733"><ele>1582.0</ele><time>2026-05-03T14:41:00Z</time></trkpt><trkpt lat="42.233774792440876" lon="13.391822059136382"><ele>1586.0</ele><time>2026-05-03T14:41:01Z</time></trkpt><trkpt lat="42.233717245083845" lon="13.391314875751466"><ele>1590.5</ele><time>2026-05-03T14:41:02Z</time></trkpt><trkpt lat="42.23366266901844" lon="13.39080447180351"><ele>1595.0</ele><time>2026-05-03T14:41:03Z</time></trkpt><trkpt lat="42.233606700059376" lon="13.390286737669676"><ele>1597.5</ele><time>2026-05-03T14:41:04Z</time></trkpt><trkpt lat="42.23355162133276" lon="13.389760880956603"><ele>1600.0</ele><time>2026-05-03T14:41:05Z</time></trkpt><trkpt lat="42.23349555154561" lon="13.389231452439475"><ele>1604.5</ele><time>2026-05-03T14:41:06Z</time></trkpt><trkpt lat="42.23343837335508" lon="13.38870684860608"><ele>1609.0</ele><time>2026-05-03T14:41:07Z</time></trkpt><trkpt lat="42.23338014129096" lon="13.388200181375408"><ele>1612.5</ele><time>2026-05-03T14:41:08Z</time></trkpt><trkpt lat="42.23333035471082" lon="13.387719133038853"><ele>1616.0</ele><time>2026-05-03T14:41:09Z</time></trkpt><trkpt lat="42.23328523065671" lon="13.387281750595047"><ele>1618.0</ele><time>2026-05-03T14:41:10Z</time></trkpt><trkpt lat="42.23323842880027" lon="13.386855821397747"><ele>1620.0</ele><time>2026-05-03T14:41:11Z</time></trkpt><trkpt lat="42.23319838569075" lon="13.386418624241701"><ele>1621.0</ele><time>2026-05-03T14:41:12Z</time></trkpt><trkpt lat="42.233179314823126" lon="13.385954834008711"><ele>1622.0</ele><time>2026-05-03T14:41:13Z</time></trkpt><trkpt lat="42.233187157105796" lon="13.385488493985305"><ele>1623.0</ele><time>2026-05-03T14:41:14Z</time></trkpt><trkpt lat="42.233218352844396" lon="13.385060963457382"><ele>1624.0</ele><time>2026-05-03T14:41:15Z</time></trkpt><trkpt lat="42.23326307761416" lon="13.38465131146257"><ele>1621.5</ele><time>2026-05-03T14:41:16Z</time></trkpt><trkpt lat="42.23332138936883" lon="13.38422306906643"><ele>1619.0</ele><time>2026-05-03T14:41:17Z</time></trkpt><trkpt lat="42.233405529102356" lon="13.38379060110347"><ele>1614.5</ele><time>2026-05-03T14:41:18Z</time></trkpt><trkpt lat="42.2335127868431" lon="13.38335290310642"><ele>1610.0</ele><time>2026-05-03T14:41:19Z</time></trkpt><trkpt lat="42.23364184119731" lon="13.382936413509304"><ele>1606.0</ele><time>2026-05-03T14:41:20Z</time></trkpt><trkpt lat="42.233787282947226" lon="13.382516767178368"><ele>1602.0</ele><time>2026-05-03T14:41:21Z</time></trkpt><trkpt lat="42.23395370930099" lon="13.382096706354229"><ele>1604.0</ele><time>2026-05-03T14:41:22Z</time></trkpt><trkpt lat="42.23413499857932" lon="13.381681988465763"><ele>1606.0</ele><time>2026-05-03T14:41:23Z</time></trkpt><trkpt lat="42.23431501442296" lon="13.381273208440344"><ele>1606.0</ele><time>2026-05-03T14:41:24Z</time></trkpt><trkpt lat="42.234485938800276" lon="13.380861537130022"><ele>1606.0</ele><time>2026-05-03T14:41:25Z</time></trkpt><trkpt lat="42.23465543644303" lon="13.380448879694868"><ele>1609.5</ele><time>2026-05-03T14:41:26Z</time></trkpt><trkpt lat="42.23482608139454" lon="13.380030708272907"><ele>1613.0</ele><time>2026-05-03T14:41:27Z</time></trkpt><trkpt lat="42.234999201585715" lon="13.379604929142232"><ele>1613.0</ele><time>2026-05-03T14:41:28Z</time></trkpt><trkpt lat="42.2351752205689" lon="13.379170916558948"><ele>1613.0</ele><time>2026-05-03T14:41:29Z</time></trkpt><trkpt lat="42.23535533528127" lon="13.378744405795919"><ele>1608.5</ele><time>2026-05-03T14:41:30Z</time></trkpt><trkpt lat="42.23553920227507" lon="13.37831028302208"><ele>1604.0</ele><time>2026-05-03T14:41:31Z</time></trkpt><trkpt lat="42.23572605144891" lon="13.377879751624711"><ele>1609.5</ele><time>2026-05-03T14:41:32Z</time></trkpt><trkpt lat="42.23590537616908" lon="13.377457849320233"><ele>1615.0</ele><time>2026-05-03T14:41:33Z</time></trkpt><trkpt lat="42.23607741765283" lon="13.377045060701649"><ele>1615.0</ele><time>2026-05-03T14:41:34Z</time></trkpt><trkpt lat="42.2362436002182" lon="13.37664335473378"><ele>1615.0</ele><time>2026-05-03T14:41:35Z</time></trkpt><trkpt lat="42.23640571312073" lon="13.376247491041253"><ele>1620.0</ele><time>2026-05-03T14:41:36Z</time></trkpt><trkpt lat="42.2365666088394" lon="13.375842094397337"><ele>1625.0</ele><time>2026-05-03T14:41:37Z</time></trkpt><trkpt lat="42.2367125765514" lon="13.375414237641326"><ele>1625.0</ele><time>2026-05-03T14:41:38Z</time></trkpt><trkpt lat="42.23684066687443" lon="13.374966814686497"><ele>1625.0</ele><time>2026-05-03T14:41:39Z</time></trkpt><trkpt lat="42.236942883520335" lon="13.37450084390959"><ele>1623.0</ele><time>2026-05-03T14:41:40Z</time></trkpt><trkpt lat="42.237028965821544" lon="13.374021609558145"><ele>1621.0</ele><time>2026-05-03T14:41:41Z</time></trkpt><trkpt lat="42.237132797582916" lon="13.373532275620201"><ele>1618.0</ele><time>2026-05-03T14:41:42Z</time></trkpt><trkpt lat="42.237212333608504" lon="13.3730301674989"><ele>1615.0</ele><time>2026-05-03T14:41:43Z</time></trkpt><trkpt lat="42.23729158608029" lon="13.372533966011531"><ele>1623.5</ele><time>2026-05-03T14:41:44Z</time></trkpt><trkpt lat="42.23737060238925" lon="13.372042605888169"><ele>1632.0</ele><time>2026-05-03T14:41:45Z</time></trkpt><trkpt lat="42.23744888915601" lon="13.371555758522636"><ele>1634.0</ele><time>2026-05-03T14:41:46Z</time></trkpt><trkpt lat="42.23752676425007" lon="13.371071471067092"><ele>1636.0</ele><time>2026-05-03T14:41:47Z</time></trkpt><trkpt lat="42.23758540618044" lon="13.370584051748182"><ele>1633.0</ele><time>2026-05-03T14:41:48Z</time></trkpt><trkpt lat="42.23766863958125" lon="13.37009877578175"><ele>1630.0</ele><time>2026-05-03T14:41:49Z</time></trkpt><trkpt lat="42.237753154767496" lon="13.369607215277949"><ele>1630.5</ele><time>2026-05-03T14:41:50Z</time></trkpt><trkpt lat="42.23783892519789" lon="13.369106290055075"><ele>1631.0</ele><time>2026-05-03T14:41:51Z</time></trkpt><trkpt lat="42.23793604697098" lon="13.368605951870485"><ele>1631.0</ele><time>2026-05-03T14:41:52Z</time></trkpt><trkpt lat="42.238021770156834" lon="13.368104444022308"><ele>1631.0</ele><time>2026-05-03T14:41:53Z</time></trkpt><trkpt lat="42.238115469294904" lon="13.367625278352586"><ele>1638.5</ele><time>2026-05-03T14:41:54Z</time></trkpt><trkpt lat="42.23822360239835" lon="13.367163708689835"><ele>1646.0</ele><time>2026-05-03T14:41:55Z</time></trkpt><trkpt lat="42.238362239544514" lon="13.366708399772111"><ele>1653.0</ele><time>2026-05-03T14:41:56Z</time></trkpt><trkpt lat="42.23852871505227" lon="13.36625718261798"><ele>1660.0</ele><time>2026-05-03T14:41:57Z</time></trkpt><trkpt lat="42.23869849920266" lon="13.36580160277252"><ele>1655.5</ele><time>2026-05-03T14:41:57.999Z</time></trkpt><trkpt lat="42.238870583802544" lon="13.365340660383634"><ele>1651.0</ele><time>2026-05-03T14:41:58.999Z</time></trkpt><trkpt lat="42.239043393467306" lon="13.3648777758688"><ele>1655.5</ele><time>2026-05-03T14:41:59.999Z</time></trkpt><trkpt lat="42.239216199618184" lon="13.364417833021491"><ele>1660.0</ele><time>2026-05-03T14:42:00.999Z</time></trkpt><trkpt lat="42.23936889544032" lon="13.364011535616783"><ele>1661.0</ele><time>2026-05-03T14:42:01.999Z</time></trkpt><trkpt lat="42.23950849147711" lon="13.363640093779308"><ele>1662.0</ele><time>2026-05-03T14:42:02.999Z</time></trkpt><trkpt lat="42.23964304110076" lon="13.363282079629567"><ele>1656.5</ele><time>2026-05-03T14:42:03.999Z</time></trkpt><trkpt lat="42.23976593620548" lon="13.36292711714336"><ele>1651.0</ele><time>2026-05-03T14:42:04.999Z</time></trkpt><trkpt lat="42.23988660924088" lon="13.362606403642888"><ele>1648.0</ele><time>2026-05-03T14:42:05.999Z</time></trkpt><trkpt lat="42.24000258153023" lon="13.36230078066764"><ele>1645.0</ele><time>2026-05-03T14:42:06.999Z</time></trkpt><trkpt lat="42.24011542284779" lon="13.361994227636037"><ele>1637.0</ele><time>2026-05-03T14:42:07.999Z</time></trkpt><trkpt lat="42.240251417925975" lon="13.361664559809537"><ele>1629.0</ele><time>2026-05-03T14:42:08.999Z</time></trkpt><trkpt lat="42.24038854738523" lon="13.361296833702118"><ele>1627.5</ele><time>2026-05-03T14:42:09.999Z</time></trkpt><trkpt lat="42.24053302195548" lon="13.360910717384437"><ele>1626.0</ele><time>2026-05-03T14:42:10.999Z</time></trkpt><trkpt lat="42.24068483384558" lon="13.360508425639054"><ele>1626.0</ele><time>2026-05-03T14:42:11.999Z</time></trkpt><trkpt lat="42.24083585588512" lon="13.360079341707017"><ele>1626.0</ele><time>2026-05-03T14:42:12.999Z</time></trkpt><trkpt lat="42.24099487436224" lon="13.359671787791298"><ele>1618.5</ele><time>2026-05-03T14:42:13.999Z</time></trkpt><trkpt lat="42.241140539324654" lon="13.359290714393513"><ele>1611.0</ele><time>2026-05-03T14:42:14.999Z</time></trkpt><trkpt lat="42.241268589263356" lon="13.35893177656069"><ele>1606.5</ele><time>2026-05-03T14:42:15.999Z</time></trkpt><trkpt lat="42.24139510847745" lon="13.358586115002225"><ele>1602.0</ele><time>2026-05-03T14:42:16.999Z</time></trkpt><trkpt lat="42.24151955950042" lon="13.358259099388501"><ele>1605.5</ele><time>2026-05-03T14:42:17.999Z</time></trkpt><trkpt lat="42.241655683584" lon="13.35792155383014"><ele>1609.0</ele><time>2026-05-03T14:42:18.999Z</time></trkpt><trkpt lat="42.24181263884781" lon="13.357558741725994"><ele>1602.0</ele><time>2026-05-03T14:42:19.999Z</time></trkpt><trkpt lat="42.242007945110664" lon="13.357185287070857"><ele>1595.0</ele><time>2026-05-03T14:42:20.999Z</time></trkpt><trkpt lat="42.24222955195266" lon="13.356819290564305"><ele>1593.5</ele><time>2026-05-03T14:42:21.999Z</time></trkpt><trkpt lat="42.242482998158756" lon="13.356458906585774"><ele>1592.0</ele><time>2026-05-03T14:42:22.999Z</time></trkpt><trkpt lat="42.242755583147265" lon="13.35609269976183"><ele>1592.0</ele><time>2026-05-03T14:42:23.999Z</time></trkpt><trkpt lat="42.243038218240095" lon="13.355710274128633"><ele>1592.0</ele><time>2026-05-03T14:42:24.999Z</time></trkpt><trkpt lat="42.24333146417176" lon="13.355320095355578"><ele>1592.0</ele><time>2026-05-03T14:42:25.999Z</time></trkpt><trkpt lat="42.24363960836725" lon="13.35493937630784"><ele>1592.0</ele><time>2026-05-03T14:42:26.999Z</time></trkpt><trkpt lat="42.24393423409366" lon="13.354585926499345"><ele>1591.0</ele><time>2026-05-03T14:42:27.999Z</time></trkpt><trkpt lat="42.24421037219992" lon="13.354267866323612"><ele>1590.0</ele><time>2026-05-03T14:42:28.999Z</time></trkpt><trkpt lat="42.244467164550024" lon="13.353971859323657"><ele>1591.5</ele><time>2026-05-03T14:42:29.999Z</time></trkpt><trkpt lat="42.24471267890698" lon="13.353678544085781"><ele>1593.0</ele><time>2026-05-03T14:42:30.999Z</time></trkpt><trkpt lat="42.24496163334417" lon="13.35336415444497"><ele>1579.0</ele><time>2026-05-03T14:42:31.999Z</time></trkpt><trkpt lat="42.24521502637802" lon="13.35298614793302"><ele>1565.0</ele><time>2026-05-03T14:42:32.999Z</time></trkpt><trkpt lat="42.245442282930554" lon="13.352597080410792"><ele>1565.5</ele><time>2026-05-03T14:42:33.999Z</time></trkpt><trkpt lat="42.24566671310203" lon="13.35221665732714"><ele>1566.0</ele><time>2026-05-03T14:42:34.999Z</time></trkpt><trkpt lat="42.24591328816515" lon="13.351838953131999"><ele>1566.0</ele><time>2026-05-03T14:42:35.999Z</time></trkpt><trkpt lat="42.24618451055733" lon="13.351459181988428"><ele>1566.0</ele><time>2026-05-03T14:42:36.999Z</time></trkpt><trkpt lat="42.24647873252152" lon="13.351080479427647"><ele>1567.5</ele><time>2026-05-03T14:42:37.999Z</time></trkpt><trkpt lat="42.24678536396976" lon="13.350699406232346"><ele>1569.0</ele><time>2026-05-03T14:42:38.999Z</time></trkpt><trkpt lat="42.247085637242854" lon="13.35031621049633"><ele>1571.0</ele><time>2026-05-03T14:42:39.999Z</time></trkpt><trkpt lat="42.24735651220093" lon="13.349961081224532"><ele>1573.0</ele><time>2026-05-03T14:42:40.999Z</time></trkpt><trkpt lat="42.24762502050901" lon="13.349604497949256"><ele>1556.5</ele><time>2026-05-03T14:42:41.999Z</time></trkpt><trkpt lat="42.24790703128143" lon="13.3492358126873"><ele>1540.0</ele><time>2026-05-03T14:42:42.999Z</time></trkpt><trkpt lat="42.24820944829748" lon="13.348858716903282"><ele>1538.0</ele><time>2026-05-03T14:42:43.999Z</time></trkpt><trkpt lat="42.24851984468427" lon="13.348483567393776"><ele>1536.0</ele><time>2026-05-03T14:42:44.999Z</time></trkpt><trkpt lat="42.24884023735108" lon="13.348116907238039"><ele>1534.0</ele><time>2026-05-03T14:42:45.999Z</time></trkpt><trkpt lat="42.24915116235748" lon="13.347768258370559"><ele>1532.0</ele><time>2026-05-03T14:42:46.999Z</time></trkpt><trkpt lat="42.2494472496266" lon="13.347438621142917"><ele>1533.0</ele><time>2026-05-03T14:42:47.999Z</time></trkpt><trkpt lat="42.24973327193312" lon="13.347110469707074"><ele>1534.0</ele><time>2026-05-03T14:42:48.999Z</time></trkpt><trkpt lat="42.250010252517384" lon="13.34679484912612"><ele>1534.0</ele><time>2026-05-03T14:42:49.999Z</time></trkpt><trkpt lat="42.25026990058375" lon="13.346495023574093"><ele>1534.0</ele><time>2026-05-03T14:42:51Z</time></trkpt><trkpt lat="42.250546530484165" lon="13.346188442986227"><ele>1532.0</ele><time>2026-05-03T14:42:52Z</time></trkpt><trkpt lat="42.2508252380312" lon="13.345874620606446"><ele>1530.0</ele><time>2026-05-03T14:42:53Z</time></trkpt><trkpt lat="42.25108186855572" lon="13.345604332133163"><ele>1529.0</ele><time>2026-05-03T14:42:54Z</time></trkpt><trkpt lat="42.251329383024" lon="13.345368673381696"><ele>1528.0</ele><time>2026-05-03T14:42:55Z</time></trkpt><trkpt lat="42.251577209507126" lon="13.34517763372054"><ele>1528.0</ele><time>2026-05-03T14:42:56Z</time></trkpt><trkpt lat="42.25184566829905" lon="13.344998882033263"><ele>1528.0</ele><time>2026-05-03T14:42:57Z</time></trkpt><trkpt lat="42.252142963670174" lon="13.34482439675464"><ele>1518.5</ele><time>2026-05-03T14:42:58Z</time></trkpt><trkpt lat="42.25246274572842" lon="13.344644475441369"><ele>1509.0</ele><time>2026-05-03T14:42:59Z</time></trkpt><trkpt lat="42.25279385678278" lon="13.344458847947951"><ele>1514.5</ele><time>2026-05-03T14:43:00Z</time></trkpt><trkpt lat="42.253139491291385" lon="13.344281799094858"><ele>1520.0</ele><time>2026-05-03T14:43:01Z</time></trkpt><trkpt lat="42.25346830840456" lon="13.344112483779137"><ele>1520.0</ele><time>2026-05-03T14:43:02Z</time></trkpt><trkpt lat="42.253777101081" lon="13.343906504795495"><ele>1520.0</ele><time>2026-05-03T14:43:03Z</time></trkpt><trkpt lat="42.25408761526882" lon="13.34373920158781"><ele>1511.5</ele><time>2026-05-03T14:43:04Z</time></trkpt><trkpt lat="42.25438506126223" lon="13.34356942624831"><ele>1503.0</ele><time>2026-05-03T14:43:05Z</time></trkpt><trkpt lat="42.25469587338841" lon="13.343394215638074"><ele>1507.0</ele><time>2026-05-03T14:43:06Z</time></trkpt><trkpt lat="42.25501609289336" lon="13.343210966666364"><ele>1511.0</ele><time>2026-05-03T14:43:07Z</time></trkpt><trkpt lat="42.25534598842679" lon="13.343026909161646"><ele>1503.0</ele><time>2026-05-03T14:43:08Z</time></trkpt><trkpt lat="42.25568358662949" lon="13.342837465261912"><ele>1495.0</ele><time>2026-05-03T14:43:09Z</time></trkpt><trkpt lat="42.25602612986775" lon="13.342648445362741"><ele>1495.0</ele><time>2026-05-03T14:43:10Z</time></trkpt><trkpt lat="42.256355554750435" lon="13.342488471934564"><ele>1495.0</ele><time>2026-05-03T14:43:11Z</time></trkpt><trkpt lat="42.25665672454982" lon="13.34235156195392"><ele>1499.5</ele><time>2026-05-03T14:43:12Z</time></trkpt><trkpt lat="42.25695491299403" lon="13.342247041137442"><ele>1504.0</ele><time>2026-05-03T14:43:13Z</time></trkpt><trkpt lat="42.25724925398177" lon="13.342169457960651"><ele>1491.5</ele><time>2026-05-03T14:43:14Z</time></trkpt><trkpt lat="42.25753452276033" lon="13.342114730343743"><ele>1479.0</ele><time>2026-05-03T14:43:15Z</time></trkpt><trkpt lat="42.25780946991959" lon="13.342054010129273"><ele>1479.0</ele><time>2026-05-03T14:43:16Z</time></trkpt><trkpt lat="42.25809284985815" lon="13.34193904469666"><ele>1479.0</ele><time>2026-05-03T14:43:17Z</time></trkpt><trkpt lat="42.258381442325906" lon="13.34178198484341"><ele>1481.5</ele><time>2026-05-03T14:43:18Z</time></trkpt><trkpt lat="42.25867571608847" lon="13.341567314641203"><ele>1484.0</ele><time>2026-05-03T14:43:19Z</time></trkpt><trkpt lat="42.25896125433449" lon="13.341332910462286"><ele>1479.0</ele><time>2026-05-03T14:43:20Z</time></trkpt><trkpt lat="42.25922291173223" lon="13.341115128673879"><ele>1474.0</ele><time>2026-05-03T14:43:21Z</time></trkpt><trkpt lat="42.259491074870866" lon="13.340898434689015"><ele>1478.0</ele><time>2026-05-03T14:43:22Z</time></trkpt><trkpt lat="42.25978764952549" lon="13.340730482857884"><ele>1482.0</ele><time>2026-05-03T14:43:23Z</time></trkpt><trkpt lat="42.260065183041874" lon="13.340605113054844"><ele>1465.5</ele><time>2026-05-03T14:43:24Z</time></trkpt><trkpt lat="42.26032039540493" lon="13.340487247248587"><ele>1449.0</ele><time>2026-05-03T14:43:25Z</time></trkpt><trkpt lat="42.26056263300289" lon="13.340361330974929"><ele>1453.5</ele><time>2026-05-03T14:43:26Z</time></trkpt><trkpt lat="42.26079618407167" lon="13.34023563964145"><ele>1458.0</ele><time>2026-05-03T14:43:27Z</time></trkpt><trkpt lat="42.26101610075596" lon="13.340103108693004"><ele>1458.0</ele><time>2026-05-03T14:43:28Z</time></trkpt><trkpt lat="42.261230475305226" lon="13.339950347677936"><ele>1458.0</ele><time>2026-05-03T14:43:29Z</time></trkpt><trkpt lat="42.26145641044526" lon="13.339755295597838"><ele>1455.0</ele><time>2026-05-03T14:43:30Z</time></trkpt><trkpt lat="42.261685130670195" lon="13.339515656231018"><ele>1452.0</ele><time>2026-05-03T14:43:31Z</time></trkpt><trkpt lat="42.26191140658798" lon="13.339242418624842"><ele>1452.0</ele><time>2026-05-03T14:43:32Z</time></trkpt><trkpt lat="42.262128884176555" lon="13.338920849273077"><ele>1452.0</ele><time>2026-05-03T14:43:33Z</time></trkpt><trkpt lat="42.26233271389771" lon="13.338546748228977"><ele>1455.5</ele><time>2026-05-03T14:43:34Z</time></trkpt><trkpt lat="42.26251602908506" lon="13.338146291789082"><ele>1459.0</ele><time>2026-05-03T14:43:35Z</time></trkpt><trkpt lat="42.26269462236629" lon="13.337732381302079"><ele>1449.5</ele><time>2026-05-03T14:43:36Z</time></trkpt><trkpt lat="42.262885405683306" lon="13.337295364306277"><ele>1440.0</ele><time>2026-05-03T14:43:37Z</time></trkpt><trkpt lat="42.263085782434565" lon="13.336860210822215"><ele>1437.0</ele><time>2026-05-03T14:43:38Z</time></trkpt><trkpt lat="42.26327852096336" lon="13.3364366439263"><ele>1434.0</ele><time>2026-05-03T14:43:39Z</time></trkpt><trkpt lat="42.263448467878156" lon="13.336062615169405"><ele>1434.0</ele><time>2026-05-03T14:43:40Z</time></trkpt><trkpt lat="42.2636079193733" lon="13.335716970461915"><ele>1434.0</ele><time>2026-05-03T14:43:41Z</time></trkpt><trkpt lat="42.263762003552564" lon="13.335393345309924"><ele>1439.0</ele><time>2026-05-03T14:43:42Z</time></trkpt><trkpt lat="42.26392239840089" lon="13.335088178194031"><ele>1444.0</ele><time>2026-05-03T14:43:43Z</time></trkpt><trkpt lat="42.26408792807451" lon="13.334805530476688"><ele>1433.0</ele><time>2026-05-03T14:43:44Z</time></trkpt><trkpt lat="42.26425313677033" lon="13.334541116410398"><ele>1422.0</ele><time>2026-05-03T14:43:45Z</time></trkpt><trkpt lat="42.264413890150905" lon="13.334294776311634"><ele>1422.0</ele><time>2026-05-03T14:43:46Z</time></trkpt><trkpt lat="42.26457093657701" lon="13.334054691432643"><ele>1422.0</ele><time>2026-05-03T14:43:47Z</time></trkpt><trkpt lat="42.26472107140522" lon="13.333820459073111"><ele>1423.3333333333333</ele><time>2026-05-03T14:43:48Z</time></trkpt><trkpt lat="42.26486765852336" lon="13.333595881175196"><ele>1424.6666666666665</ele><time>2026-05-03T14:43:49Z</time></trkpt><trkpt lat="42.2650036808298" lon="13.333383850634736"><ele>1426.0</ele><time>2026-05-03T14:43:50Z</time></trkpt><trkpt lat="42.26513190051865" lon="13.33317866141649"><ele>1415.0</ele><time>2026-05-03T14:43:51Z</time></trkpt><trkpt lat="42.26527021836204" lon="13.333002225143465"><ele>1404.0</ele><time>2026-05-03T14:43:52Z</time></trkpt><trkpt lat="42.265402426158616" lon="13.332831873279897"><ele>1393.0</ele><time>2026-05-03T14:43:53Z</time></trkpt><trkpt lat="42.26553964463761" lon="13.332675102267933"><ele>1401.6666666666665</ele><time>2026-05-03T14:43:54Z</time></trkpt><trkpt lat="42.26569297881449" lon="13.33253375299177"><ele>1410.3333333333333</ele><time>2026-05-03T14:43:55Z</time></trkpt><trkpt lat="42.265864346212524" lon="13.332398115324393"><ele>1419.0</ele><time>2026-05-03T14:43:56Z</time></trkpt><trkpt lat="42.266045475987966" lon="13.332263616903932"><ele>1411.0</ele><time>2026-05-03T14:43:57Z</time></trkpt><trkpt lat="42.26622375928222" lon="13.332139743738239"><ele>1403.0</ele><time>2026-05-03T14:43:57.999Z</time></trkpt><trkpt lat="42.26640785797656" lon="13.332015204221559"><ele>1395.0</ele><time>2026-05-03T14:43:58.999Z</time></trkpt><trkpt lat="42.26657023367346" lon="13.331963438034848"><ele>1395.0</ele><time>2026-05-03T14:43:59.999Z</time></trkpt><trkpt lat="42.26675150452764" lon="13.331916745834432"><ele>1395.0</ele><time>2026-05-03T14:44:00.999Z</time></trkpt><trkpt lat="42.26695361109667" lon="13.331883311233426"><ele>1395.0</ele><time>2026-05-03T14:44:01.999Z</time></trkpt><trkpt lat="42.26716066564048" lon="13.331844311056235"><ele>1397.0</ele><time>2026-05-03T14:44:02.999Z</time></trkpt><trkpt lat="42.26736228004013" lon="13.331831478270585"><ele>1399.0</ele><time>2026-05-03T14:44:03.999Z</time></trkpt><trkpt lat="42.2675525855726" lon="13.331867182138367"><ele>1401.0</ele><time>2026-05-03T14:44:04.999Z</time></trkpt><trkpt lat="42.26775366846088" lon="13.331899715837608"><ele>1401.0</ele><time>2026-05-03T14:44:05.999Z</time></trkpt><trkpt lat="42.267959865597945" lon="13.331947472017779"><ele>1401.0</ele><time>2026-05-03T14:44:06.999Z</time></trkpt><trkpt lat="42.268155863790284" lon="13.331996707465745"><ele>1401.0</ele><time>2026-05-03T14:44:07.999Z</time></trkpt><trkpt lat="42.268341453348086" lon="13.332084111891387"><ele>1404.6666666666667</ele><time>2026-05-03T14:44:08.999Z</time></trkpt><trkpt lat="42.268528460842596" lon="13.332214612815958"><ele>1408.3333333333335</ele><time>2026-05-03T14:44:09.999Z</time></trkpt><trkpt lat="42.268721512406756" lon="13.332366844074592"><ele>1412.0</ele><time>2026-05-03T14:44:10.999Z</time></trkpt><trkpt lat="42.26888965750989" lon="13.332531991518374"><ele>1404.0</ele><time>2026-05-03T14:44:11.999Z</time></trkpt><trkpt lat="42.26904211987157" lon="13.332690915613739"><ele>1396.0</ele><time>2026-05-03T14:44:12.999Z</time></trkpt><trkpt lat="42.26918924254462" lon="13.332844272410442"><ele>1388.0</ele><time>2026-05-03T14:44:13.999Z</time></trkpt><trkpt lat="42.26934834511933" lon="13.332968553726477"><ele>1392.0</ele><time>2026-05-03T14:44:14.999Z</time></trkpt><trkpt lat="42.269486256858976" lon="13.333118490211753"><ele>1396.0</ele><time>2026-05-03T14:44:15.999Z</time></trkpt><trkpt lat="42.269699166748296" lon="13.333124023812479"><ele>1400.0</ele><time>2026-05-03T14:44:16.999Z</time></trkpt><trkpt lat="42.26989069027519" lon="13.333145472368875"><ele>1400.0</ele><time>2026-05-03T14:44:17.999Z</time></trkpt><trkpt lat="42.27008802990347" lon="13.333133672328534"><ele>1400.0</ele><time>2026-05-03T14:44:18.999Z</time></trkpt><trkpt lat="42.270296787227686" lon="13.33307680180106"><ele>1400.0</ele><time>2026-05-03T14:44:19.999Z</time></trkpt><trkpt lat="42.270523979952976" lon="13.332969506076376"><ele>1386.0</ele><time>2026-05-03T14:44:20.999Z</time></trkpt><trkpt lat="42.27077227262787" lon="13.332820304817263"><ele>1372.0</ele><time>2026-05-03T14:44:21.999Z</time></trkpt><trkpt lat="42.271042638252034" lon="13.332698719708223"><ele>1372.0</ele><time>2026-05-03T14:44:22.999Z</time></trkpt><trkpt lat="42.27133857693463" lon="13.332586591959286"><ele>1372.0</ele><time>2026-05-03T14:44:23.999Z</time></trkpt><trkpt lat="42.27164332004969" lon="13.33251103327201"><ele>1373.5</ele><time>2026-05-03T14:44:24.999Z</time></trkpt><trkpt lat="42.27192698266169" lon="13.33244935192768"><ele>1375.0</ele><time>2026-05-03T14:44:25.999Z</time></trkpt><trkpt lat="42.272256667208765" lon="13.33238064926454"><ele>1374.0</ele><time>2026-05-03T14:44:26.999Z</time></trkpt><trkpt lat="42.27255970581052" lon="13.332347992780035"><ele>1373.0</ele><time>2026-05-03T14:44:27.999Z</time></trkpt><trkpt lat="42.272845050971995" lon="13.332341960813748"><ele>1368.0</ele><time>2026-05-03T14:44:28.999Z</time></trkpt><trkpt lat="42.273122927355466" lon="13.332344052281401"><ele>1363.0</ele><time>2026-05-03T14:44:29.999Z</time></trkpt><trkpt lat="42.273369920200004" lon="13.332370631874314"><ele>1363.0</ele><time>2026-05-03T14:44:30.999Z</time></trkpt><trkpt lat="42.273591862088225" lon="13.332399310059138"><ele>1363.0</ele><time>2026-05-03T14:44:31.999Z</time></trkpt><trkpt lat="42.27379846010458" lon="13.332435683120286"><ele>1363.0</ele><time>2026-05-03T14:44:32.999Z</time></trkpt><trkpt lat="42.27399770002787" lon="13.332471800479976"><ele>1358.3333333333333</ele><time>2026-05-03T14:44:33.999Z</time></trkpt><trkpt lat="42.27418398027008" lon="13.332480186445876"><ele>1353.6666666666667</ele><time>2026-05-03T14:44:34.999Z</time></trkpt><trkpt lat="42.27436128076528" lon="13.332445900811114"><ele>1349.0</ele><time>2026-05-03T14:44:35.999Z</time></trkpt><trkpt lat="42.27452703623393" lon="13.33237360764767"><ele>1349.0</ele><time>2026-05-03T14:44:36.999Z</time></trkpt><trkpt lat="42.27467772505019" lon="13.332269029638644"><ele>1349.0</ele><time>2026-05-03T14:44:37.999Z</time></trkpt><trkpt lat="42.274817725979666" lon="13.33211115529904"><ele>1349.0</ele><time>2026-05-03T14:44:38.999Z</time></trkpt><trkpt lat="42.27494020534056" lon="13.331920296871663"><ele>1345.6666666666667</ele><time>2026-05-03T14:44:39.999Z</time></trkpt><trkpt lat="42.27502692076471" lon="13.331705861601497"><ele>1342.3333333333333</ele><time>2026-05-03T14:44:40.999Z</time></trkpt><trkpt lat="42.27508578517539" lon="13.331471893003938"><ele>1339.0</ele><time>2026-05-03T14:44:41.999Z</time></trkpt><trkpt lat="42.27510620980928" lon="13.331211499082986"><ele>1339.0</ele><time>2026-05-03T14:44:42.999Z</time></trkpt><trkpt lat="42.275086721781804" lon="13.330943651898126"><ele>1339.0</ele><time>2026-05-03T14:44:43.999Z</time></trkpt><trkpt lat="42.27502350900458" lon="13.33067893567614"><ele>1339.0</ele><time>2026-05-03T14:44:44.999Z</time></trkpt><trkpt lat="42.27491714677422" lon="13.330428200616401"><ele>1331.5</ele><time>2026-05-03T14:44:45.999Z</time></trkpt><trkpt lat="42.2747686739474" lon="13.33016360453932"><ele>1324.0</ele><time>2026-05-03T14:44:46.999Z</time></trkpt><trkpt lat="42.27463769677356" lon="13.32989097089001"><ele>1324.6666666666665</ele><time>2026-05-03T14:44:47.999Z</time></trkpt><trkpt lat="42.27454101452889" lon="13.32962285235162"><ele>1325.3333333333333</ele><time>2026-05-03T14:44:48.999Z</time></trkpt><trkpt lat="42.27445512999504" lon="13.329370061428968"><ele>1326.0</ele><time>2026-05-03T14:44:49.999Z</time></trkpt><trkpt lat="42.27435550781752" lon="13.329103939854658"><ele>1329.0</ele><time>2026-05-03T14:44:50.999Z</time></trkpt><trkpt lat="42.274220932488184" lon="13.328843801643467"><ele>1332.0</ele><time>2026-05-03T14:44:51.999Z</time></trkpt><trkpt lat="42.27403172741171" lon="13.328610179786404"><ele>1321.5</ele><time>2026-05-03T14:44:52.999Z</time></trkpt><trkpt lat="42.273801040475895" lon="13.328383062387388"><ele>1311.0</ele><time>2026-05-03T14:44:53.999Z</time></trkpt><trkpt lat="42.27358994434817" lon="13.328167288605204"><ele>1320.5</ele><time>2026-05-03T14:44:54.999Z</time></trkpt><trkpt lat="42.273392782190555" lon="13.32795374011919"><ele>1330.0</ele><time>2026-05-03T14:44:55.999Z</time></trkpt><trkpt lat="42.2732016127593" lon="13.32776020127039"><ele>1322.6666666666665</ele><time>2026-05-03T14:44:57Z</time></trkpt><trkpt lat="42.27302300012961" lon="13.32757887325373"><ele>1315.3333333333333</ele><time>2026-05-03T14:44:58Z</time></trkpt><trkpt lat="42.272851828087745" lon="13.327401845794617"><ele>1308.0</ele><time>2026-05-03T14:44:59Z</time></trkpt><trkpt lat="42.272690525723156" lon="13.327228710135294"><ele>1312.0</ele><time>2026-05-03T14:45:00Z</time></trkpt><trkpt lat="42.27253299151158" lon="13.327076883154666"><ele>1316.0</ele><time>2026-05-03T14:45:01Z</time></trkpt><trkpt lat="42.272377469301105" lon="13.326960735242775"><ele>1320.0</ele><time>2026-05-03T14:45:02Z</time></trkpt><trkpt lat="42.272209256949445" lon="13.326892649839158"><ele>1312.0</ele><time>2026-05-03T14:45:03Z</time></trkpt><trkpt lat="42.272028062978116" lon="13.326889083569695"><ele>1304.0</ele><time>2026-05-03T14:45:04Z</time></trkpt><trkpt lat="42.27184630683296" lon="13.326943465483449"><ele>1296.0</ele><time>2026-05-03T14:45:05Z</time></trkpt><trkpt lat="42.271666714674126" lon="13.32703969500278"><ele>1296.0</ele><time>2026-05-03T14:45:06Z</time></trkpt><trkpt lat="42.271494013816124" lon="13.327191044907586"><ele>1296.0</ele><time>2026-05-03T14:45:07Z</time></trkpt><trkpt lat="42.2713180515113" lon="13.327415948319404"><ele>1296.0</ele><time>2026-05-03T14:45:08Z</time></trkpt><trkpt lat="42.27115197240354" lon="13.327688856854053"><ele>1294.0</ele><time>2026-05-03T14:45:09Z</time></trkpt><trkpt lat="42.27101133570142" lon="13.327929619229083"><ele>1292.0</ele><time>2026-05-03T14:45:10Z</time></trkpt><trkpt lat="42.27088027845677" lon="13.328137977616842"><ele>1290.0</ele><time>2026-05-03T14:45:11Z</time></trkpt><trkpt lat="42.2707522396508" lon="13.328320182502075"><ele>1290.0</ele><time>2026-05-03T14:45:12Z</time></trkpt><trkpt lat="42.270619422782005" lon="13.32848761264729"><ele>1290.0</ele><time>2026-05-03T14:45:13Z</time></trkpt><trkpt lat="42.27047458834707" lon="13.328628978995692"><ele>1290.0</ele><time>2026-05-03T14:45:14Z</time></trkpt><trkpt lat="42.270303581229406" lon="13.328734433631283"><ele>1289.6666666666667</ele><time>2026-05-03T14:45:15Z</time></trkpt><trkpt lat="42.270107953077066" lon="13.328821772402458"><ele>1289.3333333333335</ele><time>2026-05-03T14:45:16Z</time></trkpt><trkpt lat="42.26989199843684" lon="13.328863409427244"><ele>1289.0</ele><time>2026-05-03T14:45:17Z</time></trkpt><trkpt lat="42.269670372127045" lon="13.328871023137374"><ele>1289.0</ele><time>2026-05-03T14:45:18Z</time></trkpt><trkpt lat="42.269434997438765" lon="13.328814300962796"><ele>1289.0</ele><time>2026-05-03T14:45:19Z</time></trkpt><trkpt lat="42.269180637022515" lon="13.328689735923913"><ele>1289.0</ele><time>2026-05-03T14:45:20Z</time></trkpt><trkpt lat="42.2689437809979" lon="13.328551992839111"><ele>1289.0</ele><time>2026-05-03T14:45:21Z</time></trkpt><trkpt lat="42.26872594774669" lon="13.32843280711566"><ele>1284.3333333333335</ele><time>2026-05-03T14:45:22Z</time></trkpt><trkpt lat="42.26851466002472" lon="13.32833084292902"><ele>1279.6666666666667</ele><time>2026-05-03T14:45:23Z</time></trkpt><trkpt lat="42.26830050177819" lon="13.328240702741285"><ele>1275.0</ele><time>2026-05-03T14:45:24Z</time></trkpt><trkpt lat="42.26808644805321" lon="13.328187338096152"><ele>1270.0</ele><time>2026-05-03T14:45:25Z</time></trkpt><trkpt lat="42.26783296844635" lon="13.328197286808024"><ele>1265.0</ele><time>2026-05-03T14:45:26Z</time></trkpt><trkpt lat="42.26754152709031" lon="13.328275866199197"><ele>1257.5</ele><time>2026-05-03T14:45:27Z</time></trkpt><trkpt lat="42.26724510105641" lon="13.328388385080741"><ele>1250.0</ele><time>2026-05-03T14:45:28Z</time></trkpt><trkpt lat="42.266932458642124" lon="13.328502990710426"><ele>1250.0</ele><time>2026-05-03T14:45:29Z</time></trkpt><trkpt lat="42.26664900039332" lon="13.328594155594228"><ele>1250.0</ele><time>2026-05-03T14:45:30Z</time></trkpt><trkpt lat="42.26638230882215" lon="13.328677727374828"><ele>1242.0</ele><time>2026-05-03T14:45:31Z</time></trkpt><trkpt lat="42.26612955097089" lon="13.328756795845095"><ele>1234.0</ele><time>2026-05-03T14:45:32Z</time></trkpt><trkpt lat="42.26589990927146" lon="13.32882811357944"><ele>1234.0</ele><time>2026-05-03T14:45:33Z</time></trkpt><trkpt lat="42.26569947702063" lon="13.328892323401098"><ele>1234.0</ele><time>2026-05-03T14:45:34Z</time></trkpt><trkpt lat="42.26551035799503" lon="13.328950746960865"><ele>1234.0</ele><time>2026-05-03T14:45:35Z</time></trkpt><trkpt lat="42.26532910527067" lon="13.32899234940147"><ele>1237.3333333333333</ele><time>2026-05-03T14:45:36Z</time></trkpt><trkpt lat="42.265146442420935" lon="13.328993301139839"><ele>1240.6666666666667</ele><time>2026-05-03T14:45:37Z</time></trkpt><trkpt lat="42.26494653866984" lon="13.328924313055929"><ele>1244.0</ele><time>2026-05-03T14:45:38Z</time></trkpt><trkpt lat="42.26474606499925" lon="13.328809904271882"><ele>1244.0</ele><time>2026-05-03T14:45:39Z</time></trkpt><trkpt lat="42.26456182270724" lon="13.328685894286295"><ele>1244.0</ele><time>2026-05-03T14:45:40Z</time></trkpt><trkpt lat="42.26439793143697" lon="13.328583180407541"><ele>1244.0</ele><time>2026-05-03T14:45:41Z</time></trkpt><trkpt lat="42.26425330944957" lon="13.3284644076738"><ele>1244.0</ele><time>2026-05-03T14:45:42Z</time></trkpt><trkpt lat="42.264141848749986" lon="13.328306688244274"><ele>1244.0</ele><time>2026-05-03T14:45:43Z</time></trkpt><trkpt lat="42.26404812159826" lon="13.328099112248658"><ele>1244.0</ele><time>2026-05-03T14:45:44Z</time></trkpt><trkpt lat="42.26397877116977" lon="13.327867671316048"><ele>1245.6666666666667</ele><time>2026-05-03T14:45:45Z</time></trkpt><trkpt lat="42.26393058128607" lon="13.327583162891589"><ele>1247.3333333333333</ele><time>2026-05-03T14:45:46Z</time></trkpt><trkpt lat="42.263896649300904" lon="13.327298633004835"><ele>1249.0</ele><time>2026-05-03T14:45:47Z</time></trkpt><trkpt lat="42.263809483199466" lon="13.327023459224822"><ele>1240.5</ele><time>2026-05-03T14:45:48Z</time></trkpt><trkpt lat="42.26365952594071" lon="13.326748943948322"><ele>1232.0</ele><time>2026-05-03T14:45:49Z</time></trkpt><trkpt lat="42.26352043542495" lon="13.3265048627398"><ele>1231.3333333333335</ele><time>2026-05-03T14:45:50Z</time></trkpt><trkpt lat="42.263400390538315" lon="13.326280758202614"><ele>1230.6666666666667</ele><time>2026-05-03T14:45:51Z</time></trkpt><trkpt lat="42.26327186987945" lon="13.326055897954797"><ele>1230.0</ele><time>2026-05-03T14:45:52Z</time></trkpt><trkpt lat="42.26309408430097" lon="13.325839082287505"><ele>1230.0</ele><time>2026-05-03T14:45:53Z</time></trkpt><trkpt lat="42.262888257575064" lon="13.325654384936731"><ele>1230.0</ele><time>2026-05-03T14:45:54Z</time></trkpt><trkpt lat="42.26269267700638" lon="13.325491688862575"><ele>1223.6666666666667</ele><time>2026-05-03T14:45:55Z</time></trkpt><trkpt lat="42.26251715216956" lon="13.325333997833324"><ele>1217.3333333333335</ele><time>2026-05-03T14:45:56Z</time></trkpt><trkpt lat="42.26233272927659" lon="13.325201705454479"><ele>1211.0</ele><time>2026-05-03T14:45:57Z</time></trkpt><trkpt lat="42.262132056971105" lon="13.325112679024402"><ele>1211.0</ele><time>2026-05-03T14:45:58Z</time></trkpt><trkpt lat="42.26189339589015" lon="13.325070238443821"><ele>1211.0</ele><time>2026-05-03T14:45:59Z</time></trkpt><trkpt lat="42.2616242056194" lon="13.32507502920335"><ele>1204.5</ele><time>2026-05-03T14:45:59.999Z</time></trkpt><trkpt lat="42.26134224856737" lon="13.325097415820773"><ele>1198.0</ele><time>2026-05-03T14:46:00.999Z</time></trkpt><trkpt lat="42.26110605242439" lon="13.325140150606984"><ele>1198.0</ele><time>2026-05-03T14:46:01.999Z</time></trkpt><trkpt lat="42.26088991971843" lon="13.325167579732582"><ele>1198.0</ele><time>2026-05-03T14:46:02.999Z</time></trkpt><trkpt lat="42.260683851343366" lon="13.32517472948245"><ele>1198.0</ele><time>2026-05-03T14:46:03.999Z</time></trkpt><trkpt lat="42.26048084728061" lon="13.32514230928291"><ele>1198.6666666666665</ele><time>2026-05-03T14:46:04.999Z</time></trkpt><trkpt lat="42.260287593564826" lon="13.325051793938794"><ele>1199.3333333333333</ele><time>2026-05-03T14:46:05.999Z</time></trkpt><trkpt lat="42.26007831241902" lon="13.324919219523785"><ele>1200.0</ele><time>2026-05-03T14:46:06.999Z</time></trkpt><trkpt lat="42.259845166707" lon="13.324729695979013"><ele>1193.0</ele><time>2026-05-03T14:46:07.999Z</time></trkpt><trkpt lat="42.25960036468651" lon="13.324533356226146"><ele>1186.0</ele><time>2026-05-03T14:46:08.999Z</time></trkpt><trkpt lat="42.25936629116707" lon="13.324354690588262"><ele>1186.0</ele><time>2026-05-03T14:46:09.999Z</time></trkpt><trkpt lat="42.25915768934556" lon="13.32419846726436"><ele>1186.0</ele><time>2026-05-03T14:46:10.999Z</time></trkpt><trkpt lat="42.25896711821709" lon="13.324059666778254"><ele>1186.3333333333333</ele><time>2026-05-03T14:46:11.999Z</time></trkpt><trkpt lat="42.25879045361294" lon="13.323962241856128"><ele>1186.6666666666667</ele><time>2026-05-03T14:46:12.999Z</time></trkpt><trkpt lat="42.25860027667162" lon="13.323917923955207"><ele>1187.0</ele><time>2026-05-03T14:46:13.999Z</time></trkpt><trkpt lat="42.25839672038316" lon="13.323933205933143"><ele>1187.0</ele><time>2026-05-03T14:46:14.999Z</time></trkpt><trkpt lat="42.25819154911212" lon="13.32402508431938"><ele>1187.0</ele><time>2026-05-03T14:46:15.999Z</time></trkpt><trkpt lat="42.25799756308005" lon="13.324167466593945"><ele>1187.0</ele><time>2026-05-03T14:46:16.999Z</time></trkpt><trkpt lat="42.25782544349647" lon="13.324330164473881"><ele>1179.6666666666667</ele><time>2026-05-03T14:46:17.999Z</time></trkpt><trkpt lat="42.25768413891513" lon="13.324473002277239"><ele>1172.3333333333333</ele><time>2026-05-03T14:46:18.999Z</time></trkpt><trkpt lat="42.257534887855265" lon="13.324592655892289"><ele>1165.0</ele><time>2026-05-03T14:46:19.999Z</time></trkpt><trkpt lat="42.25737964389092" lon="13.324672596008686"><ele>1162.3333333333333</ele><time>2026-05-03T14:46:20.999Z</time></trkpt><trkpt lat="42.25721764656973" lon="13.324703873392204"><ele>1159.6666666666667</ele><time>2026-05-03T14:46:21.999Z</time></trkpt><trkpt lat="42.2570377888344" lon="13.324683763918452"><ele>1157.0</ele><time>2026-05-03T14:46:22.999Z</time></trkpt><trkpt lat="42.25685437909512" lon="13.32463055728061"><ele>1157.0</ele><time>2026-05-03T14:46:23.999Z</time></trkpt><trkpt lat="42.256676253091165" lon="13.32451146897653"><ele>1157.0</ele><time>2026-05-03T14:46:24.999Z</time></trkpt><trkpt lat="42.25651634983628" lon="13.324329886833315"><ele>1157.0</ele><time>2026-05-03T14:46:25.999Z</time></trkpt><trkpt lat="42.2563663423077" lon="13.324074832974782"><ele>1156.0</ele><time>2026-05-03T14:46:26.999Z</time></trkpt><trkpt lat="42.256218088185584" lon="13.323784087448239"><ele>1155.0</ele><time>2026-05-03T14:46:27.999Z</time></trkpt><trkpt lat="42.25605441815306" lon="13.323526856801045"><ele>1155.0</ele><time>2026-05-03T14:46:28.999Z</time></trkpt><trkpt lat="42.25587712109762" lon="13.32334273549048"><ele>1155.0</ele><time>2026-05-03T14:46:29.999Z</time></trkpt><trkpt lat="42.25567254348847" lon="13.323184844855076"><ele>1157.5</ele><time>2026-05-03T14:46:30.999Z</time></trkpt><trkpt lat="42.255453897331584" lon="13.323070645791944"><ele>1160.0</ele><time>2026-05-03T14:46:31.999Z</time></trkpt><trkpt lat="42.25522127409531" lon="13.323010357047488"><ele>1143.5</ele><time>2026-05-03T14:46:32.999Z</time></trkpt><trkpt lat="42.25496861103382" lon="13.322998075588998"><ele>1127.0</ele><time>2026-05-03T14:46:33.999Z</time></trkpt><trkpt lat="42.25470352682158" lon="13.323038651497964"><ele>1141.5</ele><time>2026-05-03T14:46:34.999Z</time></trkpt><trkpt lat="42.25446502323169" lon="13.323093436371892"><ele>1156.0</ele><time>2026-05-03T14:46:35.999Z</time></trkpt><trkpt lat="42.25425035798018" lon="13.32309951866214"><ele>1156.0</ele><time>2026-05-03T14:46:36.999Z</time></trkpt><trkpt lat="42.254016763225025" lon="13.32308031502796"><ele>1156.0</ele><time>2026-05-03T14:46:37.999Z</time></trkpt><trkpt lat="42.25374977294598" lon="13.323024670787492"><ele>1144.0</ele><time>2026-05-03T14:46:38.999Z</time></trkpt><trkpt lat="42.25351487384037" lon="13.322954328714587"><ele>1132.0</ele><time>2026-05-03T14:46:39.999Z</time></trkpt><trkpt lat="42.253328675677956" lon="13.322892772654361"><ele>1120.0</ele><time>2026-05-03T14:46:40.999Z</time></trkpt><trkpt lat="42.25317187046035" lon="13.322849934073204"><ele>1119.6666666666665</ele><time>2026-05-03T14:46:41.999Z</time></trkpt><trkpt lat="42.25300258398611" lon="13.322800523552068"><ele>1119.3333333333333</ele><time>2026-05-03T14:46:42.999Z</time></trkpt><trkpt lat="42.25284049358176" lon="13.322753087215931"><ele>1119.0</ele><time>2026-05-03T14:46:43.999Z</time></trkpt><trkpt lat="42.25268501334048" lon="13.322716867593812"><ele>1119.0</ele><time>2026-05-03T14:46:44.999Z</time></trkpt><trkpt lat="42.25254310631161" lon="13.322713408649387"><ele>1119.0</ele><time>2026-05-03T14:46:45.999Z</time></trkpt><trkpt lat="42.252411916864716" lon="13.322772345966143"><ele>1119.0</ele><time>2026-05-03T14:46:46.999Z</time></trkpt><trkpt lat="42.252286231335084" lon="13.322845482254156"><ele>1119.0</ele><time>2026-05-03T14:46:47.999Z</time></trkpt><trkpt lat="42.252165899827084" lon="13.322929795219308"><ele>1116.25</ele><time>2026-05-03T14:46:48.999Z</time></trkpt><trkpt lat="42.25205432150697" lon="13.323033355733987"><ele>1113.5</ele><time>2026-05-03T14:46:49.999Z</time></trkpt><trkpt lat="42.25196576947315" lon="13.323165625620087"><ele>1110.75</ele><time>2026-05-03T14:46:50.999Z</time></trkpt><trkpt lat="42.25189077001258" lon="13.323325638489182"><ele>1108.0</ele><time>2026-05-03T14:46:51.999Z</time></trkpt><trkpt lat="42.251826468920065" lon="13.323507183301206"><ele>1108.0</ele><time>2026-05-03T14:46:52.999Z</time></trkpt><trkpt lat="42.251769796917245" lon="13.323674848440549"><ele>1108.0</ele><time>2026-05-03T14:46:53.999Z</time></trkpt><trkpt lat="42.251711170593005" lon="13.32383131776043"><ele>1108.0</ele><time>2026-05-03T14:46:54.999Z</time></trkpt><trkpt lat="42.25165259695806" lon="13.323975378875437"><ele>1108.0</ele><time>2026-05-03T14:46:55.999Z</time></trkpt><trkpt lat="42.25159474894508" lon="13.32412144514774"><ele>1107.25</ele><time>2026-05-03T14:46:56.999Z</time></trkpt><trkpt lat="42.25153579254995" lon="13.324276916919295"><ele>1106.5</ele><time>2026-05-03T14:46:57.999Z</time></trkpt><trkpt lat="42.25147576954232" lon="13.324431983336368"><ele>1105.75</ele><time>2026-05-03T14:46:58.999Z</time></trkpt><trkpt lat="42.251413882240435" lon="13.324590181493795"><ele>1105.0</ele><time>2026-05-03T14:46:59.999Z</time></trkpt><trkpt lat="42.25134973418003" lon="13.32474862488157"><ele>1105.0</ele><time>2026-05-03T14:47:00.999Z</time></trkpt><trkpt lat="42.25127852608348" lon="13.324919647974582"><ele>1105.0</ele><time>2026-05-03T14:47:01.999Z</time></trkpt><trkpt lat="42.25119180221578" lon="13.325062337519874"><ele>1105.0</ele><time>2026-05-03T14:47:03Z</time></trkpt><trkpt lat="42.251094992134504" lon="13.325185197941053"><ele>1105.0</ele><time>2026-05-03T14:47:04Z</time></trkpt><trkpt lat="42.25099427384137" lon="13.325294934475968"><ele>1105.0</ele><time>2026-05-03T14:47:05Z</time></trkpt><trkpt lat="42.25089393637732" lon="13.32537769001266"><ele>1105.0</ele><time>2026-05-03T14:47:06Z</time></trkpt><trkpt lat="42.25080486245253" lon="13.325461407176004"><ele>1105.0</ele><time>2026-05-03T14:47:07Z</time></trkpt><trkpt lat="42.2507297188692" lon="13.325565279935935"><ele>1105.0</ele><time>2026-05-03T14:47:08Z</time></trkpt><trkpt lat="42.25068054385141" lon="13.325687543812503"><ele>1105.0</ele><time>2026-05-03T14:47:09Z</time></trkpt><trkpt lat="42.25065043213246" lon="13.325808828503057"><ele>1107.4285714285713</ele><time>2026-05-03T14:47:10Z</time></trkpt><trkpt lat="42.250626250430116" lon="13.325914594183807"><ele>1109.857142857143</ele><time>2026-05-03T14:47:11Z</time></trkpt><trkpt lat="42.250594875845294" lon="13.326011936761915"><ele>1112.2857142857142</ele><time>2026-05-03T14:47:12Z</time></trkpt><trkpt lat="42.25054968987949" lon="13.326074031434084"><ele>1114.7142857142858</ele><time>2026-05-03T14:47:13Z</time></trkpt><trkpt lat="42.250472051285655" lon="13.326104467951284"><ele>1117.142857142857</ele><time>2026-05-03T14:47:14Z</time></trkpt><trkpt lat="42.25040581407495" lon="13.326105422729752"><ele>1119.5714285714284</ele><time>2026-05-03T14:47:15Z</time></trkpt><trkpt lat="42.250342000002234" lon="13.326070614658173"><ele>1122.0</ele><time>2026-05-03T14:47:16Z</time></trkpt><trkpt lat="42.25029856888208" lon="13.32598874817319"><ele>1124.0</ele><time>2026-05-03T14:47:17Z</time></trkpt><trkpt lat="42.250279425684354" lon="13.325897591797574"><ele>1126.0</ele><time>2026-05-03T14:47:18Z</time></trkpt><trkpt lat="42.25027899606995" lon="13.325803055461169"><ele>1128.0</ele><time>2026-05-03T14:47:19Z</time></trkpt><trkpt lat="42.25031231474852" lon="13.325729773338997"><ele>1130.0</ele><time>2026-05-03T14:47:20Z</time></trkpt><trkpt lat="42.25036616427475" lon="13.32562488440031"><ele>1132.0</ele><time>2026-05-03T14:47:21Z</time></trkpt><trkpt lat="42.250411898931176" lon="13.325465592829804"><ele>1134.0</ele><time>2026-05-03T14:47:22Z</time></trkpt><trkpt lat="42.250486727619844" lon="13.325238273073547"><ele>1135.3333333333333</ele><time>2026-05-03T14:47:23Z</time></trkpt><trkpt lat="42.250562472379215" lon="13.325003664896702"><ele>1136.6666666666665</ele><time>2026-05-03T14:47:24Z</time></trkpt><trkpt lat="42.250621937267255" lon="13.324811724459442"><ele>1138.0</ele><time>2026-05-03T14:47:25Z</time></trkpt><trkpt lat="42.25066014741019" lon="13.324647802383804"><ele>1130.2</ele><time>2026-05-03T14:47:26Z</time></trkpt><trkpt lat="42.25067055775987" lon="13.324498531369763"><ele>1122.4</ele><time>2026-05-03T14:47:27Z</time></trkpt><trkpt lat="42.25069817111381" lon="13.324366907959595"><ele>1114.6000000000001</ele><time>2026-05-03T14:47:28Z</time></trkpt><trkpt lat="42.250713791128305" lon="13.324245223014954"><ele>1106.8</ele><time>2026-05-03T14:47:29Z</time></trkpt><trkpt lat="42.25072777694502" lon="13.324133490261314"><ele>1099.0</ele><time>2026-05-03T14:47:30Z</time></trkpt><trkpt lat="42.25071154308602" lon="13.324035899677627"><ele>1099.0</ele><time>2026-05-03T14:47:31Z</time></trkpt><trkpt lat="42.250733795109895" lon="13.323904676916207"><ele>1099.0</ele><time>2026-05-03T14:47:33Z</time></trkpt><trkpt lat="42.2507629244738" lon="13.323818336557107"><ele>1099.0</ele><time>2026-05-03T14:47:35Z</time></trkpt><trkpt lat="42.25078169307217" lon="13.323674430791975"><ele>1099.0</ele><time>2026-05-03T14:47:55Z</time></trkpt><trkpt lat="42.25078680057254" lon="13.323428146418644"><ele>1098.5</ele><time>2026-05-03T14:47:57Z</time></trkpt><trkpt lat="42.250785921301166" lon="13.323247462730906"><ele>1098.0</ele><time>2026-05-03T14:47:58Z</time></trkpt><trkpt lat="42.250778556704375" lon="13.323047513770963"><ele>1097.5</ele><time>2026-05-03T14:47:59Z</time></trkpt><trkpt lat="42.25074221688208" lon="13.322887588799174"><ele>1097.0</ele><time>2026-05-03T14:48:00Z</time></trkpt><trkpt lat="42.25069883485571" lon="13.322763928537722"><ele>1095.4</ele><time>2026-05-03T14:48:01Z</time></trkpt><trkpt lat="42.25067101973008" lon="13.322636160889573"><ele>1093.8000000000002</ele><time>2026-05-03T14:48:02Z</time></trkpt><trkpt lat="42.250650323657744" lon="13.322513501902815"><ele>1092.2</ele><time>2026-05-03T14:48:03Z</time></trkpt><trkpt lat="42.25063048781624" lon="13.322389557397269"><ele>1090.6000000000001</ele><time>2026-05-03T14:48:03.999Z</time></trkpt><trkpt lat="42.25060919420461" lon="13.322260408080489"><ele>1089.0</ele><time>2026-05-03T14:48:04.999Z</time></trkpt><trkpt lat="42.250592441095314" lon="13.322114790892694"><ele>1091.0</ele><time>2026-05-03T14:48:05.999Z</time></trkpt><trkpt lat="42.25055201980735" lon="13.321961734265566"><ele>1093.0</ele><time>2026-05-03T14:48:06.999Z</time></trkpt><trkpt lat="42.25055834727544" lon="13.321783304301194"><ele>1095.0</ele><time>2026-05-03T14:48:07.999Z</time></trkpt><trkpt lat="42.25058747103756" lon="13.321582875530078"><ele>1097.0</ele><time>2026-05-03T14:48:08.999Z</time></trkpt><trkpt lat="42.250613639495164" lon="13.321362712610714"><ele>1089.3333333333335</ele><time>2026-05-03T14:48:09.999Z</time></trkpt><trkpt lat="42.25064312190867" lon="13.321114550888282"><ele>1081.6666666666667</ele><time>2026-05-03T14:48:10.999Z</time></trkpt><trkpt lat="42.250665249810986" lon="13.320893941138015"><ele>1074.0</ele><time>2026-05-03T14:48:11.999Z</time></trkpt><trkpt lat="42.25066292314615" lon="13.320693224044962"><ele>1075.25</ele><time>2026-05-03T14:48:12.999Z</time></trkpt><trkpt lat="42.25061121349601" lon="13.320494756644054"><ele>1076.5</ele><time>2026-05-03T14:48:13.999Z</time></trkpt><trkpt lat="42.25054413961605" lon="13.320343423790213"><ele>1077.75</ele><time>2026-05-03T14:48:14.999Z</time></trkpt><trkpt lat="42.25049553936396" lon="13.320243674167676"><ele>1079.0</ele><time>2026-05-03T14:48:15.999Z</time></trkpt><trkpt lat="42.250403090123726" lon="13.320193379880623"><ele>1079.0</ele><time>2026-05-03T14:48:16.999Z</time></trkpt><trkpt lat="42.25030417318203" lon="13.320171443180065"><ele>1079.0</ele><time>2026-05-03T14:48:17.999Z</time></trkpt><trkpt lat="42.250201446026686" lon="13.32022308061571"><ele>1079.0</ele><time>2026-05-03T14:48:18.999Z</time></trkpt><trkpt lat="42.250115783790086" lon="13.320277677988097"><ele>1079.0</ele><time>2026-05-03T14:48:19.999Z</time></trkpt><trkpt lat="42.25003890067819" lon="13.320358063052884"><ele>1079.0</ele><time>2026-05-03T14:48:20.999Z</time></trkpt><trkpt lat="42.24996297288801" lon="13.320461210752603"><ele>1083.5</ele><time>2026-05-03T14:48:21.999Z</time></trkpt><trkpt lat="42.24988403080382" lon="13.320573223626727"><ele>1088.0</ele><time>2026-05-03T14:48:22.999Z</time></trkpt><trkpt lat="42.24979324275212" lon="13.320685119033786"><ele>1092.5</ele><time>2026-05-03T14:48:23.999Z</time></trkpt><trkpt lat="42.24967568813919" lon="13.320783240699651"><ele>1097.0</ele><time>2026-05-03T14:48:24.999Z</time></trkpt><trkpt lat="42.24953694513582" lon="13.320821396740314"><ele>1098.75</ele><time>2026-05-03T14:48:25.999Z</time></trkpt><trkpt lat="42.2493923019822" lon="13.320836508711944"><ele>1100.5</ele><time>2026-05-03T14:48:26.999Z</time></trkpt><trkpt lat="42.24926032675367" lon="13.320811441924864"><ele>1102.25</ele><time>2026-05-03T14:48:27.999Z</time></trkpt><trkpt lat="42.24913003359287" lon="13.32076031549224"><ele>1104.0</ele><time>2026-05-03T14:48:28.999Z</time></trkpt><trkpt lat="42.24898025515684" lon="13.320709220698618"><ele>1104.6666666666667</ele><time>2026-05-03T14:48:29.999Z</time></trkpt><trkpt lat="42.24880743143305" lon="13.320659123508742"><ele>1105.3333333333335</ele><time>2026-05-03T14:48:30.999Z</time></trkpt><trkpt lat="42.24860247689454" lon="13.320606388371688"><ele>1106.0</ele><time>2026-05-03T14:48:31.999Z</time></trkpt><trkpt lat="42.24837243123006" lon="13.320536681250767"><ele>1108.0</ele><time>2026-05-03T14:48:32.999Z</time></trkpt><trkpt lat="42.24813023058787" lon="13.320456392203408"><ele>1110.0</ele><time>2026-05-03T14:48:33.999Z</time></trkpt><trkpt lat="42.24786077523111" lon="13.320345360691343"><ele>1121.0</ele><time>2026-05-03T14:48:34.999Z</time></trkpt><trkpt lat="42.24756601181422" lon="13.320220723475275"><ele>1132.0</ele><time>2026-05-03T14:48:35.999Z</time></trkpt><trkpt lat="42.247263124368146" lon="13.320073064038166"><ele>1149.0</ele><time>2026-05-03T14:48:36.999Z</time></trkpt><trkpt lat="42.246969115477896" lon="13.319932830818857"><ele>1166.0</ele><time>2026-05-03T14:48:37.999Z</time></trkpt><trkpt lat="42.24666896497127" lon="13.31978886481396"><ele>1187.0</ele><time>2026-05-03T14:48:38.999Z</time></trkpt><trkpt lat="42.24634751558205" lon="13.319641308281684"><ele>1208.0</ele><time>2026-05-03T14:48:40.06Z</time></trkpt><trkpt lat="42.24603008555991" lon="13.319511136479623"><ele>1208.0</ele><time>2026-05-03T14:48:41.063Z</time></trkpt><trkpt lat="42.245718110079565" lon="13.319362062195589"><ele>1208.0</ele><time>2026-05-03T14:48:42.06Z</time></trkpt><trkpt lat="42.245399076634094" lon="13.319240279199642"><ele>1320.0</ele><time>2026-05-03T14:48:43.054Z</time></trkpt><trkpt lat="42.24349419016942" lon="13.318317125052326"><ele>1372.0</ele><time>2026-05-03T14:48:46.472Z</time></trkpt><trkpt lat="42.24258991621515" lon="13.317774804524086"><ele>1320.0</ele><time>2026-05-03T14:48:47.472Z</time></trkpt><trkpt lat="42.24371111965711" lon="13.318392665122625"><ele>1320.0</ele><time>2026-05-03T14:48:48.472Z</time></trkpt><trkpt lat="42.243209668946506" lon="13.318112908996918"><ele>1577.0</ele><time>2026-05-03T14:48:49.472Z</time></trkpt><trkpt lat="42.236698151597984" lon="13.313894585948203"><ele>965.0</ele><time>2026-05-03T14:48:54.472Z</time></trkpt><trkpt lat="42.210677122546" lon="13.292158534932751"><ele>971.5</ele><time>2026-05-03T14:50:31Z</time></trkpt><trkpt lat="42.210430643079846" lon="13.291699320738044"><ele>978.0</ele><time>2026-05-03T14:50:32Z</time></trkpt><trkpt lat="42.21018962041603" lon="13.29124134138329"><ele>978.0</ele><time>2026-05-03T14:50:33Z</time></trkpt><trkpt lat="42.209941680346155" lon="13.290769115996676"><ele>978.0</ele><time>2026-05-03T14:50:34Z</time></trkpt><trkpt lat="42.20969490984214" lon="13.290284891361075"><ele>981.0</ele><time>2026-05-03T14:50:35Z</time></trkpt><trkpt lat="42.209445593211434" lon="13.289787466871866"><ele>984.0</ele><time>2026-05-03T14:50:36Z</time></trkpt><trkpt lat="42.2092130813233" lon="13.289311945724696"><ele>984.0</ele><time>2026-05-03T14:50:37Z</time></trkpt><trkpt lat="42.209003179576115" lon="13.288868945685895"><ele>984.0</ele><time>2026-05-03T14:50:38Z</time></trkpt><trkpt lat="42.208793540052326" lon="13.288458553623878"><ele>977.0</ele><time>2026-05-03T14:50:39Z</time></trkpt><trkpt lat="42.20856915063673" lon="13.288049968901834"><ele>970.0</ele><time>2026-05-03T14:50:40Z</time></trkpt><trkpt lat="42.20833692231443" lon="13.287653112293595"><ele>967.0</ele><time>2026-05-03T14:50:41Z</time></trkpt><trkpt lat="42.208094441287784" lon="13.28727339531672"><ele>964.0</ele><time>2026-05-03T14:50:42Z</time></trkpt><trkpt lat="42.20784160496898" lon="13.286906406951452"><ele>964.0</ele><time>2026-05-03T14:50:43Z</time></trkpt><trkpt lat="42.2075715456345" lon="13.286565456992417"><ele>964.0</ele><time>2026-05-03T14:50:44Z</time></trkpt><trkpt lat="42.20727769923651" lon="13.286240158549267"><ele>961.0</ele><time>2026-05-03T14:50:45Z</time></trkpt><trkpt lat="42.20696703548562" lon="13.285930718738827"><ele>958.0</ele><time>2026-05-03T14:50:46Z</time></trkpt><trkpt lat="42.20663170187781" lon="13.285635113400351"><ele>951.5</ele><time>2026-05-03T14:50:47Z</time></trkpt><trkpt lat="42.20627983580246" lon="13.28536018131914"><ele>945.0</ele><time>2026-05-03T14:50:48Z</time></trkpt><trkpt lat="42.205904081543004" lon="13.285118578361457"><ele>949.0</ele><time>2026-05-03T14:50:49Z</time></trkpt><trkpt lat="42.20550601407625" lon="13.284917631632414"><ele>953.0</ele><time>2026-05-03T14:50:50Z</time></trkpt><trkpt lat="42.205105799762315" lon="13.28474433481659"><ele>945.0</ele><time>2026-05-03T14:50:51Z</time></trkpt><trkpt lat="42.20471372005388" lon="13.284586506639583"><ele>937.0</ele><time>2026-05-03T14:50:52Z</time></trkpt><trkpt lat="42.20432668265684" lon="13.284431670109722"><ele>940.5</ele><time>2026-05-03T14:50:53Z</time></trkpt><trkpt lat="42.20393913023531" lon="13.284279947320467"><ele>944.0</ele><time>2026-05-03T14:50:54Z</time></trkpt><trkpt lat="42.20355254209056" lon="13.284138484928155"><ele>944.0</ele><time>2026-05-03T14:50:55Z</time></trkpt><trkpt lat="42.2031734279417" lon="13.28400304208643"><ele>944.0</ele><time>2026-05-03T14:50:56Z</time></trkpt><trkpt lat="42.2028020107405" lon="13.283868982349208"><ele>937.5</ele><time>2026-05-03T14:50:57Z</time></trkpt><trkpt lat="42.20243948402401" lon="13.283731793753539"><ele>931.0</ele><time>2026-05-03T14:50:58Z</time></trkpt><trkpt lat="42.202086889918185" lon="13.283589439481936"><ele>931.0</ele><time>2026-05-03T14:50:59Z</time></trkpt><trkpt lat="42.201737986189784" lon="13.28344476900192"><ele>931.0</ele><time>2026-05-03T14:51:00Z</time></trkpt><trkpt lat="42.20139044384051" lon="13.28330397398355"><ele>935.0</ele><time>2026-05-03T14:51:01Z</time></trkpt><trkpt lat="42.201044024113266" lon="13.283174433106579"><ele>939.0</ele><time>2026-05-03T14:51:02Z</time></trkpt><trkpt lat="42.20068988026384" lon="13.283046814680064"><ele>929.5</ele><time>2026-05-03T14:51:03Z</time></trkpt><trkpt lat="42.2003320517983" lon="13.282922653958225"><ele>920.0</ele><time>2026-05-03T14:51:04Z</time></trkpt><trkpt lat="42.199959516176904" lon="13.28280099048134"><ele>922.0</ele><time>2026-05-03T14:51:05Z</time></trkpt><trkpt lat="42.199574847007526" lon="13.282696496793607"><ele>924.0</ele><time>2026-05-03T14:51:06Z</time></trkpt><trkpt lat="42.19918446523197" lon="13.282628269190173"><ele>921.5</ele><time>2026-05-03T14:51:07Z</time></trkpt><trkpt lat="42.198787617770456" lon="13.28259856831005"><ele>919.0</ele><time>2026-05-03T14:51:08Z</time></trkpt><trkpt lat="42.19838307952104" lon="13.282611688287414"><ele>911.5</ele><time>2026-05-03T14:51:09Z</time></trkpt><trkpt lat="42.19797762883521" lon="13.282690304577637"><ele>904.0</ele><time>2026-05-03T14:51:10Z</time></trkpt><trkpt lat="42.19756689450644" lon="13.282812335853617"><ele>899.0</ele><time>2026-05-03T14:51:11Z</time></trkpt><trkpt lat="42.19715164293887" lon="13.282952988503796"><ele>894.0</ele><time>2026-05-03T14:51:12Z</time></trkpt><trkpt lat="42.19673154871825" lon="13.283087209180838"><ele>902.5</ele><time>2026-05-03T14:51:13Z</time></trkpt><trkpt lat="42.19631215310986" lon="13.283203905676581"><ele>911.0</ele><time>2026-05-03T14:51:14Z</time></trkpt><trkpt lat="42.195897246114995" lon="13.283335920767627"><ele>907.5</ele><time>2026-05-03T14:51:15Z</time></trkpt><trkpt lat="42.195492872553594" lon="13.283478421584986"><ele>904.0</ele><time>2026-05-03T14:51:16Z</time></trkpt><trkpt lat="42.195088549311286" lon="13.28361568320912"><ele>900.0</ele><time>2026-05-03T14:51:17Z</time></trkpt><trkpt lat="42.194684509790804" lon="13.28375223541527"><ele>896.0</ele><time>2026-05-03T14:51:18Z</time></trkpt><trkpt lat="42.19428296695292" lon="13.283890330577604"><ele>896.5</ele><time>2026-05-03T14:51:19Z</time></trkpt><trkpt lat="42.19388288497684" lon="13.284030638886982"><ele>897.0</ele><time>2026-05-03T14:51:20Z</time></trkpt><trkpt lat="42.19348535985458" lon="13.28416959739329"><ele>891.5</ele><time>2026-05-03T14:51:21Z</time></trkpt><trkpt lat="42.19308815590507" lon="13.284306676745992"><ele>886.0</ele><time>2026-05-03T14:51:22Z</time></trkpt><trkpt lat="42.19268896623446" lon="13.284444306486167"><ele>879.0</ele><time>2026-05-03T14:51:22.999Z</time></trkpt><trkpt lat="42.192285544649444" lon="13.284582314621941"><ele>872.0</ele><time>2026-05-03T14:51:23.999Z</time></trkpt><trkpt lat="42.19187415122989" lon="13.284715110480208"><ele>878.5</ele><time>2026-05-03T14:51:24.999Z</time></trkpt><trkpt lat="42.19146123472233" lon="13.284836655519127"><ele>885.0</ele><time>2026-05-03T14:51:25.999Z</time></trkpt><trkpt lat="42.191053505407844" lon="13.284943009205412"><ele>883.0</ele><time>2026-05-03T14:51:26.999Z</time></trkpt><trkpt lat="42.19064149843441" lon="13.28504033848496"><ele>881.0</ele><time>2026-05-03T14:51:27.999Z</time></trkpt><trkpt lat="42.19022767659758" lon="13.285132088370593"><ele>880.0</ele><time>2026-05-03T14:51:28.999Z</time></trkpt><trkpt lat="42.18981186355104" lon="13.285213995168691"><ele>879.0</ele><time>2026-05-03T14:51:29.999Z</time></trkpt><trkpt lat="42.18939555442383" lon="13.285291195056653"><ele>875.0</ele><time>2026-05-03T14:51:30.999Z</time></trkpt><trkpt lat="42.188979369349696" lon="13.285367207605166"><ele>871.0</ele><time>2026-05-03T14:51:31.999Z</time></trkpt><trkpt lat="42.1885647712061" lon="13.285439804366337"><ele>866.0</ele><time>2026-05-03T14:51:32.999Z</time></trkpt><trkpt lat="42.18815658622061" lon="13.28551344813879"><ele>861.0</ele><time>2026-05-03T14:51:33.999Z</time></trkpt><trkpt lat="42.18775646574177" lon="13.285587196216458"><ele>860.5</ele><time>2026-05-03T14:51:34.999Z</time></trkpt><trkpt lat="42.187360683737666" lon="13.285660267627753"><ele>860.0</ele><time>2026-05-03T14:51:35.999Z</time></trkpt><trkpt lat="42.186966908081786" lon="13.285733108575393"><ele>860.0</ele><time>2026-05-03T14:51:36.999Z</time></trkpt><trkpt lat="42.18657466170227" lon="13.28580439854326"><ele>860.0</ele><time>2026-05-03T14:51:37.999Z</time></trkpt><trkpt lat="42.18618434223465" lon="13.285872189458743"><ele>856.5</ele><time>2026-05-03T14:51:38.999Z</time></trkpt><trkpt lat="42.18579240384929" lon="13.285934868858396"><ele>853.0</ele><time>2026-05-03T14:51:39.999Z</time></trkpt><trkpt lat="42.185399383498336" lon="13.285988014418868"><ele>852.0</ele><time>2026-05-03T14:51:40.999Z</time></trkpt><trkpt lat="42.18500110014413" lon="13.286030437659429"><ele>851.0</ele><time>2026-05-03T14:51:41.999Z</time></trkpt><trkpt lat="42.184598121719695" lon="13.28605101788536"><ele>850.0</ele><time>2026-05-03T14:51:42.999Z</time></trkpt><trkpt lat="42.18419512384518" lon="13.28604780072408"><ele>849.0</ele><time>2026-05-03T14:51:43.999Z</time></trkpt><trkpt lat="42.18379531135976" lon="13.286024428586861"><ele>848.5</ele><time>2026-05-03T14:51:44.999Z</time></trkpt><trkpt lat="42.18339826970203" lon="13.28597543949389"><ele>848.0</ele><time>2026-05-03T14:51:45.999Z</time></trkpt><trkpt lat="42.183001795024616" lon="13.285905575411835"><ele>847.5</ele><time>2026-05-03T14:51:46.999Z</time></trkpt><trkpt lat="42.18260890870852" lon="13.28581134257526"><ele>847.0</ele><time>2026-05-03T14:51:47.999Z</time></trkpt><trkpt lat="42.182218851563704" lon="13.28569130523971"><ele>843.0</ele><time>2026-05-03T14:51:48.999Z</time></trkpt><trkpt lat="42.18184482711826" lon="13.285552915651335"><ele>839.0</ele><time>2026-05-03T14:51:49.999Z</time></trkpt><trkpt lat="42.18148629582908" lon="13.285399689258078"><ele>839.0</ele><time>2026-05-03T14:51:50.999Z</time></trkpt><trkpt lat="42.18114322595899" lon="13.285232900660152"><ele>839.0</ele><time>2026-05-03T14:51:51.999Z</time></trkpt><trkpt lat="42.18081474126119" lon="13.28505673053699"><ele>839.0</ele><time>2026-05-03T14:51:52.999Z</time></trkpt><trkpt lat="42.18050201061046" lon="13.28487416253387"><ele>839.0</ele><time>2026-05-03T14:51:53.999Z</time></trkpt><trkpt lat="42.18020813980638" lon="13.28469012040739"><ele>838.0</ele><time>2026-05-03T14:51:54.999Z</time></trkpt><trkpt lat="42.17992950752233" lon="13.284513014384498"><ele>837.0</ele><time>2026-05-03T14:51:55.999Z</time></trkpt><trkpt lat="42.179659341751695" lon="13.284338108538412"><ele>839.5</ele><time>2026-05-03T14:51:56.999Z</time></trkpt><trkpt lat="42.17939232219849" lon="13.284165320794752"><ele>842.0</ele><time>2026-05-03T14:51:57.999Z</time></trkpt><trkpt lat="42.17912878480176" lon="13.28399159951535"><ele>841.5</ele><time>2026-05-03T14:51:58.999Z</time></trkpt><trkpt lat="42.17886944171856" lon="13.283821805478938"><ele>841.0</ele><time>2026-05-03T14:51:59.999Z</time></trkpt><trkpt lat="42.17861269655647" lon="13.283654014912967"><ele>841.0</ele><time>2026-05-03T14:52:00.999Z</time></trkpt><trkpt lat="42.17835962324717" lon="13.283490508163045"><ele>841.0</ele><time>2026-05-03T14:52:01.999Z</time></trkpt><trkpt lat="42.17810923414961" lon="13.283326759259513"><ele>841.0</ele><time>2026-05-03T14:52:02.999Z</time></trkpt><trkpt lat="42.177858093582266" lon="13.28316378401856"><ele>841.0</ele><time>2026-05-03T14:52:03.999Z</time></trkpt><trkpt lat="42.177605823872334" lon="13.28299972930543"><ele>841.0</ele><time>2026-05-03T14:52:04.999Z</time></trkpt><trkpt lat="42.177352940090195" lon="13.282837212546335"><ele>841.0</ele><time>2026-05-03T14:52:05.999Z</time></trkpt><trkpt lat="42.17709700179891" lon="13.282675734001305"><ele>840.5</ele><time>2026-05-03T14:52:06.999Z</time></trkpt><trkpt lat="42.17684205489203" lon="13.282507111253544"><ele>840.0</ele><time>2026-05-03T14:52:07.999Z</time></trkpt><trkpt lat="42.17659063745079" lon="13.282333756772664"><ele>838.5</ele><time>2026-05-03T14:52:08.999Z</time></trkpt><trkpt lat="42.17635513853957" lon="13.282170609669041"><ele>837.0</ele><time>2026-05-03T14:52:09.999Z</time></trkpt><trkpt lat="42.176129303053465" lon="13.282017648477154"><ele>837.0</ele><time>2026-05-03T14:52:10.999Z</time></trkpt><trkpt lat="42.175909275492366" lon="13.281872000974257"><ele>837.0</ele><time>2026-05-03T14:52:11.999Z</time></trkpt><trkpt lat="42.175698083481" lon="13.28173208291453"><ele>837.0</ele><time>2026-05-03T14:52:12.999Z</time></trkpt><trkpt lat="42.17549565823085" lon="13.281598850764368"><ele>837.0</ele><time>2026-05-03T14:52:13.999Z</time></trkpt><trkpt lat="42.175300411836446" lon="13.281471806321104"><ele>837.0</ele><time>2026-05-03T14:52:14.999Z</time></trkpt><trkpt lat="42.175112726038705" lon="13.281350701533443"><ele>837.0</ele><time>2026-05-03T14:52:15.999Z</time></trkpt><trkpt lat="42.17493117074397" lon="13.281231296814095"><ele>837.0</ele><time>2026-05-03T14:52:16.999Z</time></trkpt><trkpt lat="42.17475542803579" lon="13.281115122839667"><ele>837.0</ele><time>2026-05-03T14:52:17.999Z</time></trkpt><trkpt lat="42.17458891601978" lon="13.281002700563672"><ele>835.6666666666667</ele><time>2026-05-03T14:52:18.999Z</time></trkpt><trkpt lat="42.174430089478015" lon="13.28088679507391"><ele>834.3333333333334</ele><time>2026-05-03T14:52:19.999Z</time></trkpt><trkpt lat="42.174281591238135" lon="13.280759782085623"><ele>833.0</ele><time>2026-05-03T14:52:20.999Z</time></trkpt><trkpt lat="42.174131153902735" lon="13.280603332838034"><ele>831.0</ele><time>2026-05-03T14:52:21.999Z</time></trkpt><trkpt lat="42.173999326852304" lon="13.280423466370394"><ele>829.0</ele><time>2026-05-03T14:52:22.999Z</time></trkpt><trkpt lat="42.17389265869564" lon="13.280236297892444"><ele>827.0</ele><time>2026-05-03T14:52:23.999Z</time></trkpt><trkpt lat="42.173674943967335" lon="13.280402170007054"><ele>827.0</ele><time>2026-05-03T14:52:24.999Z</time></trkpt><trkpt lat="42.17356868371046" lon="13.280316373816744"><ele>827.0</ele><time>2026-05-03T14:52:25.999Z</time></trkpt><trkpt lat="42.17349357729019" lon="13.2802402384646"><ele>827.0</ele><time>2026-05-03T14:52:27Z</time></trkpt><trkpt lat="42.17374493423904" lon="13.279328327088752"><ele>826.0</ele><time>2026-05-03T14:52:28Z</time></trkpt><trkpt lat="42.173788600763544" lon="13.279108561783863"><ele>825.0</ele><time>2026-05-03T14:52:29Z</time></trkpt><trkpt lat="42.173865536110334" lon="13.278896950305557"><ele>824.0</ele><time>2026-05-03T14:52:30Z</time></trkpt><trkpt lat="42.17398487540203" lon="13.278657963474071"><ele>827.0</ele><time>2026-05-03T14:52:31Z</time></trkpt><trkpt lat="42.174146372599566" lon="13.278407862079945"><ele>830.0</ele><time>2026-05-03T14:52:32Z</time></trkpt><trkpt lat="42.174342500719355" lon="13.278156125932343"><ele>830.0</ele><time>2026-05-03T14:52:33Z</time></trkpt><trkpt lat="42.17453505135464" lon="13.27794823613925"><ele>830.0</ele><time>2026-05-03T14:52:34Z</time></trkpt><trkpt lat="42.174719275686755" lon="13.277769098873886"><ele>830.5</ele><time>2026-05-03T14:52:35Z</time></trkpt><trkpt lat="42.174926563539145" lon="13.277592280705456"><ele>831.0</ele><time>2026-05-03T14:52:36Z</time></trkpt><trkpt lat="42.175153662877364" lon="13.277432684464786"><ele>831.0</ele><time>2026-05-03T14:52:37Z</time></trkpt><trkpt lat="42.175359351193116" lon="13.27730929579998"><ele>831.0</ele><time>2026-05-03T14:52:38Z</time></trkpt><trkpt lat="42.17555151791983" lon="13.27723181544453"><ele>831.0</ele><time>2026-05-03T14:52:39Z</time></trkpt><trkpt lat="42.17572932035099" lon="13.277200817582894"><ele>830.3333333333333</ele><time>2026-05-03T14:52:40Z</time></trkpt><trkpt lat="42.17590089591666" lon="13.27720089789602"><ele>829.6666666666666</ele><time>2026-05-03T14:52:41Z</time></trkpt><trkpt lat="42.176062271470464" lon="13.277239058305135"><ele>829.0</ele><time>2026-05-03T14:52:42Z</time></trkpt><trkpt lat="42.17622160055826" lon="13.277330116902718"><ele>828.6666666666666</ele><time>2026-05-03T14:52:43Z</time></trkpt><trkpt lat="42.17636630382258" lon="13.277472658061654"><ele>828.3333333333333</ele><time>2026-05-03T14:52:44Z</time></trkpt><trkpt lat="42.17649299794589" lon="13.277653452298434"><ele>828.0</ele><time>2026-05-03T14:52:45Z</time></trkpt><trkpt lat="42.176586036047254" lon="13.277841940964722"><ele>828.0</ele><time>2026-05-03T14:52:46Z</time></trkpt><trkpt lat="42.17666603950992" lon="13.277999940998885"><ele>828.0</ele><time>2026-05-03T14:52:47Z</time></trkpt><trkpt lat="42.17674617933124" lon="13.278126979249038"><ele>828.0</ele><time>2026-05-03T14:52:48Z</time></trkpt><trkpt lat="42.17682520584484" lon="13.278215721616782"><ele>828.0</ele><time>2026-05-03T14:52:49Z</time></trkpt><trkpt lat="42.176912448794994" lon="13.278273877467528"><ele>827.2</ele><time>2026-05-03T14:52:50Z</time></trkpt><trkpt lat="42.17700311718474" lon="13.278304335979131"><ele>826.4</ele><time>2026-05-03T14:52:51Z</time></trkpt><trkpt lat="42.17710028786009" lon="13.278304746873953"><ele>825.6</ele><time>2026-05-03T14:52:52Z</time></trkpt><trkpt lat="42.17719826059177" lon="13.278264774298481"><ele>824.8000000000001</ele><time>2026-05-03T14:52:53Z</time></trkpt><trkpt lat="42.177287208238056" lon="13.27820006406479"><ele>824.0</ele><time>2026-05-03T14:52:54Z</time></trkpt><trkpt lat="42.177358099736246" lon="13.278097940479357"><ele>824.0</ele><time>2026-05-03T14:52:55Z</time></trkpt><trkpt lat="42.17740824593907" lon="13.2779692151376"><ele>824.0</ele><time>2026-05-03T14:52:56Z</time></trkpt><trkpt lat="42.17742530137185" lon="13.277820060655015"><ele>824.0</ele><time>2026-05-03T14:52:57Z</time></trkpt><trkpt lat="42.177428856831376" lon="13.277669837168332"><ele>824.0</ele><time>2026-05-03T14:52:58Z</time></trkpt><trkpt lat="42.17742454797358" lon="13.277507748147881"><ele>824.0</ele><time>2026-05-03T14:52:59Z</time></trkpt><trkpt lat="42.17741491231314" lon="13.277329891853215"><ele>824.0</ele><time>2026-05-03T14:53:00Z</time></trkpt><trkpt lat="42.177405701291" lon="13.277161835148659"><ele>824.0</ele><time>2026-05-03T14:53:01Z</time></trkpt><trkpt lat="42.17740080782407" lon="13.277007943877312"><ele>824.0</ele><time>2026-05-03T14:53:02Z</time></trkpt><trkpt lat="42.177397668564794" lon="13.276866784828941"><ele>823.6</ele><time>2026-05-03T14:53:03Z</time></trkpt><trkpt lat="42.17739284529432" lon="13.27674785876165"><ele>823.2</ele><time>2026-05-03T14:53:04Z</time></trkpt><trkpt lat="42.17738922739325" lon="13.276649968799681"><ele>822.8000000000001</ele><time>2026-05-03T14:53:05Z</time></trkpt><trkpt lat="42.17740375766575" lon="13.276514434691228"><ele>822.4000000000001</ele><time>2026-05-03T14:53:07Z</time></trkpt><trkpt lat="42.17738858645552" lon="13.276431295326548"><ele>822.0</ele><time>2026-05-03T14:53:10Z</time></trkpt><trkpt lat="42.17739007242373" lon="13.276151645876682"><ele>821.6666666666666</ele><time>2026-05-03T14:53:55.999Z</time></trkpt><trkpt lat="42.177390838160655" lon="13.276044232601315"><ele>821.3333333333333</ele><time>2026-05-03T14:53:56.999Z</time></trkpt><trkpt lat="42.177390634131335" lon="13.27595041172961"><ele>821.0</ele><time>2026-05-03T14:53:57.999Z</time></trkpt><trkpt lat="42.17738102905583" lon="13.275796732656257"><ele>820.6666666666666</ele><time>2026-05-03T14:53:59.999Z</time></trkpt><trkpt lat="42.177379796028106" lon="13.275706569852934"><ele>820.3333333333333</ele><time>2026-05-03T14:54:00.999Z</time></trkpt><trkpt lat="42.177383893748896" lon="13.275589690658691"><ele>820.0</ele><time>2026-05-03T14:54:01.999Z</time></trkpt><trkpt lat="42.1773874434087" lon="13.275476801857769"><ele>819.8571428571429</ele><time>2026-05-03T14:54:02.999Z</time></trkpt><trkpt lat="42.17739183301794" lon="13.275374139049225"><ele>819.7142857142857</ele><time>2026-05-03T14:54:03.999Z</time></trkpt><trkpt lat="42.17739461982018" lon="13.275277594410607"><ele>819.5714285714286</ele><time>2026-05-03T14:54:04.999Z</time></trkpt><trkpt lat="42.17740278469144" lon="13.27518430971547"><ele>819.4285714285714</ele><time>2026-05-03T14:54:05.999Z</time></trkpt><trkpt lat="42.17742222860158" lon="13.275098217618897"><ele>819.2857142857142</ele><time>2026-05-03T14:54:06.999Z</time></trkpt><trkpt lat="42.17745736272732" lon="13.275020315180416"><ele>819.1428571428571</ele><time>2026-05-03T14:54:07.999Z</time></trkpt><trkpt lat="42.17750070001153" lon="13.274952014674023"><ele>819.0</ele><time>2026-05-03T14:54:08.999Z</time></trkpt><trkpt lat="42.17753539569618" lon="13.274800825929846"><ele>818.6</ele><time>2026-05-03T14:54:10.999Z</time></trkpt><trkpt lat="42.177462633067854" lon="13.274672834082923"><ele>818.2</ele><time>2026-05-03T14:54:12.999Z</time></trkpt><trkpt lat="42.177388260676864" lon="13.274649319223291"><ele>817.8000000000001</ele><time>2026-05-03T14:54:13.999Z</time></trkpt><trkpt lat="42.17730292345855" lon="13.274664762548124"><ele>817.4000000000001</ele><time>2026-05-03T14:54:14.999Z</time></trkpt><trkpt lat="42.17722394565208" lon="13.274743008318033"><ele>817.0</ele><time>2026-05-03T14:54:15.999Z</time></trkpt><trkpt lat="42.177150733328645" lon="13.274874620793762"><ele>818.6666666666666</ele><time>2026-05-03T14:54:16.999Z</time></trkpt><trkpt lat="42.177048926944245" lon="13.274985063473506"><ele>820.3333333333333</ele><time>2026-05-03T14:54:17.999Z</time></trkpt><trkpt lat="42.17689622300093" lon="13.27503984817395"><ele>822.0</ele><time>2026-05-03T14:54:18.999Z</time></trkpt><trkpt lat="42.17669784457069" lon="13.275087894700075"><ele>826.0</ele><time>2026-05-03T14:54:19.999Z</time></trkpt><trkpt lat="42.17647262706087" lon="13.275138988597606"><ele>830.0</ele><time>2026-05-03T14:54:20.999Z</time></trkpt><trkpt lat="42.17624140539469" lon="13.275204946870819"><ele>830.0</ele><time>2026-05-03T14:54:21.999Z</time></trkpt><trkpt lat="42.176049935971896" lon="13.275253961658644"><ele>830.0</ele><time>2026-05-03T14:54:22.999Z</time></trkpt><trkpt lat="42.17589232147895" lon="13.275297115342102"><ele>830.0</ele><time>2026-05-03T14:54:23.999Z</time></trkpt><trkpt lat="42.17576582567762" lon="13.275338494514077"><ele>830.0</ele><time>2026-05-03T14:54:24.999Z</time></trkpt><trkpt lat="42.17564798192817" lon="13.275396984692549"><ele>830.0</ele><time>2026-05-03T14:54:25.999Z</time></trkpt><trkpt lat="42.175556939314134" lon="13.27549995460187"><ele>830.0</ele><time>2026-05-03T14:54:26.999Z</time></trkpt><trkpt lat="42.17547158560754" lon="13.275672359312036"><ele>830.0</ele><time>2026-05-03T14:54:27.999Z</time></trkpt><trkpt lat="42.175375488643624" lon="13.275907541038274"><ele>830.0</ele><time>2026-05-03T14:54:28.999Z</time></trkpt><trkpt lat="42.17529306666609" lon="13.276121358833704"><ele>830.0</ele><time>2026-05-03T14:54:29.999Z</time></trkpt><trkpt lat="42.175212906119036" lon="13.276287513667887"><ele>830.0</ele><time>2026-05-03T14:54:30.999Z</time></trkpt><trkpt lat="42.17512667077025" lon="13.276434441787247"><ele>829.75</ele><time>2026-05-03T14:54:31.999Z</time></trkpt><trkpt lat="42.175018456818826" lon="13.276543280216648"><ele>829.5</ele><time>2026-05-03T14:54:33Z</time></trkpt><trkpt lat="42.17488559366895" lon="13.276602675360907"><ele>829.25</ele><time>2026-05-03T14:54:34Z</time></trkpt><trkpt lat="42.17474091260881" lon="13.276604281893492"><ele>829.0</ele><time>2026-05-03T14:54:35Z</time></trkpt><trkpt lat="42.17459930318992" lon="13.276507838378235"><ele>827.0</ele><time>2026-05-03T14:54:36Z</time></trkpt><trkpt lat="42.17444029079369" lon="13.276389983404218"><ele>825.0</ele><time>2026-05-03T14:54:37Z</time></trkpt><trkpt lat="42.174300855221745" lon="13.276245657591717"><ele>823.0</ele><time>2026-05-03T14:54:38Z</time></trkpt><trkpt lat="42.174170577964475" lon="13.276148911697316"><ele>823.0</ele><time>2026-05-03T14:54:39Z</time></trkpt><trkpt lat="42.17403014593874" lon="13.276117442740805"><ele>823.0</ele><time>2026-05-03T14:54:40Z</time></trkpt><trkpt lat="42.173873082358114" lon="13.276077794585285"><ele>823.0</ele><time>2026-05-03T14:54:41Z</time></trkpt><trkpt lat="42.17372025050817" lon="13.276244161741559"><ele>820.6666666666666</ele><time>2026-05-03T14:54:42Z</time></trkpt><trkpt lat="42.17358383593211" lon="13.276343881921465"><ele>818.3333333333333</ele><time>2026-05-03T14:54:43Z</time></trkpt><trkpt lat="42.173471433429334" lon="13.276469118405673"><ele>816.0</ele><time>2026-05-03T14:54:44Z</time></trkpt><trkpt lat="42.17337503152879" lon="13.276627139594389"><ele>816.0</ele><time>2026-05-03T14:54:45Z</time></trkpt><trkpt lat="42.173291237284424" lon="13.27682200036815"><ele>816.0</ele><time>2026-05-03T14:54:46Z</time></trkpt><trkpt lat="42.173221166200705" lon="13.277020735715528"><ele>816.0</ele><time>2026-05-03T14:54:47Z</time></trkpt><trkpt lat="42.1731532719064" lon="13.277218471446028"><ele>814.25</ele><time>2026-05-03T14:54:48Z</time></trkpt><trkpt lat="42.17309187045575" lon="13.277402965151547"><ele>812.5</ele><time>2026-05-03T14:54:49Z</time></trkpt><trkpt lat="42.17303381846109" lon="13.277565671409077"><ele>810.75</ele><time>2026-05-03T14:54:50Z</time></trkpt><trkpt lat="42.1729820826162" lon="13.27771391483123"><ele>809.0</ele><time>2026-05-03T14:54:51Z</time></trkpt><trkpt lat="42.17292565468962" lon="13.277860292721098"><ele>809.0</ele><time>2026-05-03T14:54:52Z</time></trkpt><trkpt lat="42.17287169521819" lon="13.278007344288541"><ele>809.0</ele><time>2026-05-03T14:54:53Z</time></trkpt><trkpt lat="42.17281714587715" lon="13.278144138202592"><ele>809.0</ele><time>2026-05-03T14:54:54Z</time></trkpt><trkpt lat="42.17274775501821" lon="13.278259710633469"><ele>809.0</ele><time>2026-05-03T14:54:55Z</time></trkpt><trkpt lat="42.172642912577224" lon="13.278314391112652"><ele>809.75</ele><time>2026-05-03T14:54:56Z</time></trkpt><trkpt lat="42.17253913641637" lon="13.278315055808143"><ele>810.5</ele><time>2026-05-03T14:54:57Z</time></trkpt><trkpt lat="42.17243966276609" lon="13.278257462988664"><ele>811.25</ele><time>2026-05-03T14:54:58Z</time></trkpt><trkpt lat="42.17235289634378" lon="13.278151302699095"><ele>812.0</ele><time>2026-05-03T14:54:59Z</time></trkpt><trkpt lat="42.172251321971615" lon="13.277992786687951"><ele>809.3333333333334</ele><time>2026-05-03T14:55:00Z</time></trkpt><trkpt lat="42.17212380198528" lon="13.277779232137995"><ele>806.6666666666667</ele><time>2026-05-03T14:55:01Z</time></trkpt><trkpt lat="42.171978959194526" lon="13.277560297292109"><ele>804.0</ele><time>2026-05-03T14:55:02Z</time></trkpt><trkpt lat="42.17186364225305" lon="13.277342803163613"><ele>803.6666666666667</ele><time>2026-05-03T14:55:03Z</time></trkpt><trkpt lat="42.17175454098939" lon="13.277146321282672"><ele>803.3333333333334</ele><time>2026-05-03T14:55:04Z</time></trkpt><trkpt lat="42.171646323434125" lon="13.276962258004664"><ele>803.0</ele><time>2026-05-03T14:55:05Z</time></trkpt><trkpt lat="42.171542523804256" lon="13.276786799424448"><ele>802.0</ele><time>2026-05-03T14:55:06Z</time></trkpt><trkpt lat="42.171440846468705" lon="13.276617225851284"><ele>801.0</ele><time>2026-05-03T14:55:07Z</time></trkpt><trkpt lat="42.17133113375553" lon="13.276440003503279"><ele>800.0</ele><time>2026-05-03T14:55:08Z</time></trkpt><trkpt lat="42.17118793115147" lon="13.276238434627539"><ele>800.0</ele><time>2026-05-03T14:55:09Z</time></trkpt><trkpt lat="42.17104610032373" lon="13.275970108815567"><ele>800.0</ele><time>2026-05-03T14:55:10Z</time></trkpt><trkpt lat="42.17086631243569" lon="13.275690830933307"><ele>798.5</ele><time>2026-05-03T14:55:11Z</time></trkpt><trkpt lat="42.17070687654894" lon="13.275380675633896"><ele>797.0</ele><time>2026-05-03T14:55:12Z</time></trkpt><trkpt lat="42.17054774154693" lon="13.275107503745206"><ele>795.0</ele><time>2026-05-03T14:55:13Z</time></trkpt><trkpt lat="42.17039995723639" lon="13.27486437146253"><ele>793.0</ele><time>2026-05-03T14:55:14Z</time></trkpt><trkpt lat="42.170251087013256" lon="13.274643196184643"><ele>792.0</ele><time>2026-05-03T14:55:15Z</time></trkpt><trkpt lat="42.170060625401604" lon="13.274466605581624"><ele>791.0</ele><time>2026-05-03T14:55:16Z</time></trkpt><trkpt lat="42.16981387621534" lon="13.27432565528274"><ele>789.5</ele><time>2026-05-03T14:55:17Z</time></trkpt><trkpt lat="42.16952333551072" lon="13.27418078225228"><ele>788.0</ele><time>2026-05-03T14:55:18Z</time></trkpt><trkpt lat="42.16921561413079" lon="13.274023752078696"><ele>787.0</ele><time>2026-05-03T14:55:19Z</time></trkpt><trkpt lat="42.16888961796055" lon="13.273850079869154"><ele>786.0</ele><time>2026-05-03T14:55:20Z</time></trkpt><trkpt lat="42.16855529974422" lon="13.273667752572115"><ele>786.0</ele><time>2026-05-03T14:55:21Z</time></trkpt><trkpt lat="42.16821364181445" lon="13.273483995894376"><ele>786.0</ele><time>2026-05-03T14:55:22Z</time></trkpt><trkpt lat="42.16787365304244" lon="13.273297585498339"><ele>784.5</ele><time>2026-05-03T14:55:23Z</time></trkpt><trkpt lat="42.16756352919745" lon="13.27313121220298"><ele>783.0</ele><time>2026-05-03T14:55:24Z</time></trkpt><trkpt lat="42.167275112326905" lon="13.27297047264535"><ele>781.0</ele><time>2026-05-03T14:55:25Z</time></trkpt><trkpt lat="42.16699765301356" lon="13.272820300643199"><ele>779.0</ele><time>2026-05-03T14:55:26Z</time></trkpt><trkpt lat="42.16673657599118" lon="13.272679059838044"><ele>776.0</ele><time>2026-05-03T14:55:27Z</time></trkpt><trkpt lat="42.1664873402687" lon="13.272541898097058"><ele>773.0</ele><time>2026-05-03T14:55:28Z</time></trkpt><trkpt lat="42.166248673134895" lon="13.272411045610873"><ele>773.0</ele><time>2026-05-03T14:55:29Z</time></trkpt><trkpt lat="42.16600456569066" lon="13.272277909189905"><ele>773.0</ele><time>2026-05-03T14:55:30Z</time></trkpt><trkpt lat="42.16575248695673" lon="13.272140577242917"><ele>772.0</ele><time>2026-05-03T14:55:31Z</time></trkpt><trkpt lat="42.16549467020139" lon="13.2720006219985"><ele>771.0</ele><time>2026-05-03T14:55:32Z</time></trkpt><trkpt lat="42.1652285706125" lon="13.271855208694234"><ele>771.0</ele><time>2026-05-03T14:55:32.999Z</time></trkpt><trkpt lat="42.16495101927353" lon="13.271705370625813"><ele>771.0</ele><time>2026-05-03T14:55:33.999Z</time></trkpt><trkpt lat="42.16466324921426" lon="13.271550690925714"><ele>769.0</ele><time>2026-05-03T14:55:34.999Z</time></trkpt><trkpt lat="42.164366449340605" lon="13.27139058014728"><ele>767.0</ele><time>2026-05-03T14:55:35.999Z</time></trkpt><trkpt lat="42.16405306180404" lon="13.271221808986706"><ele>767.0</ele><time>2026-05-03T14:55:36.999Z</time></trkpt><trkpt lat="42.163734542136574" lon="13.271048726739789"><ele>767.0</ele><time>2026-05-03T14:55:37.999Z</time></trkpt><trkpt lat="42.16344097393921" lon="13.270891422634431"><ele>765.0</ele><time>2026-05-03T14:55:38.999Z</time></trkpt><trkpt lat="42.16316642021654" lon="13.270740539412575"><ele>763.0</ele><time>2026-05-03T14:55:39.999Z</time></trkpt><trkpt lat="42.162904772288826" lon="13.270597967084782"><ele>762.0</ele><time>2026-05-03T14:55:40.999Z</time></trkpt><trkpt lat="42.16265424177394" lon="13.270459292341751"><ele>761.0</ele><time>2026-05-03T14:55:41.999Z</time></trkpt><trkpt lat="42.16241511895492" lon="13.27032820737308"><ele>759.0</ele><time>2026-05-03T14:55:42.999Z</time></trkpt><trkpt lat="42.16218721606267" lon="13.270203015189415"><ele>757.0</ele><time>2026-05-03T14:55:43.999Z</time></trkpt><trkpt lat="42.161970471714234" lon="13.270084311114969"><ele>757.0</ele><time>2026-05-03T14:55:44.999Z</time></trkpt><trkpt lat="42.161764384194484" lon="13.269972944925245"><ele>757.0</ele><time>2026-05-03T14:55:45.999Z</time></trkpt><trkpt lat="42.16156459493913" lon="13.269864081976962"><ele>757.0</ele><time>2026-05-03T14:55:46.999Z</time></trkpt><trkpt lat="42.161375268208424" lon="13.26976108805242"><ele>755.6666666666667</ele><time>2026-05-03T14:55:47.999Z</time></trkpt><trkpt lat="42.16119466938646" lon="13.269662638502453"><ele>754.3333333333334</ele><time>2026-05-03T14:55:48.999Z</time></trkpt><trkpt lat="42.161020612108025" lon="13.269564542024375"><ele>753.0</ele><time>2026-05-03T14:55:49.999Z</time></trkpt><trkpt lat="42.16085533852614" lon="13.269468442524337"><ele>752.3333333333334</ele><time>2026-05-03T14:55:50.999Z</time></trkpt><trkpt lat="42.160693448093355" lon="13.269382935349961"><ele>751.6666666666667</ele><time>2026-05-03T14:55:51.999Z</time></trkpt><trkpt lat="42.16051795818343" lon="13.269316253600232"><ele>751.0</ele><time>2026-05-03T14:55:52.999Z</time></trkpt><trkpt lat="42.16032944063532" lon="13.269304588086078"><ele>751.0</ele><time>2026-05-03T14:55:53.999Z</time></trkpt><trkpt lat="42.16015384299217" lon="13.269320112263939"><ele>751.0</ele><time>2026-05-03T14:55:54.999Z</time></trkpt><trkpt lat="42.15998153102956" lon="13.269362727277272"><ele>751.0</ele><time>2026-05-03T14:55:55.999Z</time></trkpt><trkpt lat="42.15980406658221" lon="13.269439830838046"><ele>750.3333333333334</ele><time>2026-05-03T14:55:56.999Z</time></trkpt><trkpt lat="42.15962464647554" lon="13.269564253066212"><ele>749.6666666666666</ele><time>2026-05-03T14:55:57.999Z</time></trkpt><trkpt lat="42.15946706568566" lon="13.269716061595886"><ele>749.0</ele><time>2026-05-03T14:55:58.999Z</time></trkpt><trkpt lat="42.159333815228" lon="13.269894853895234"><ele>748.6666666666666</ele><time>2026-05-03T14:55:59.999Z</time></trkpt><trkpt lat="42.15922067913919" lon="13.270118040023442"><ele>748.3333333333334</ele><time>2026-05-03T14:56:00.999Z</time></trkpt><trkpt lat="42.159122850995054" lon="13.2703996331373"><ele>748.0</ele><time>2026-05-03T14:56:01.999Z</time></trkpt><trkpt lat="42.158999841614396" lon="13.270711412475094"><ele>749.0</ele><time>2026-05-03T14:56:02.999Z</time></trkpt><trkpt lat="42.15882975652575" lon="13.271021045041572"><ele>750.0</ele><time>2026-05-03T14:56:03.999Z</time></trkpt><trkpt lat="42.158662175279794" lon="13.271264760523517"><ele>747.6666666666666</ele><time>2026-05-03T14:56:04.999Z</time></trkpt><trkpt lat="42.158523094186805" lon="13.271476563445637"><ele>745.3333333333333</ele><time>2026-05-03T14:56:05.999Z</time></trkpt><trkpt lat="42.15839202298761" lon="13.27167734848771"><ele>743.0</ele><time>2026-05-03T14:56:06.999Z</time></trkpt><trkpt lat="42.15825431533493" lon="13.271856395255275"><ele>744.3333333333333</ele><time>2026-05-03T14:56:07.999Z</time></trkpt><trkpt lat="42.158089486582696" lon="13.272008405614915"><ele>745.6666666666666</ele><time>2026-05-03T14:56:08.999Z</time></trkpt><trkpt lat="42.15788183453311" lon="13.272126247809238"><ele>747.0</ele><time>2026-05-03T14:56:09.999Z</time></trkpt><trkpt lat="42.15763329814903" lon="13.272242601295165"><ele>741.0</ele><time>2026-05-03T14:56:10.999Z</time></trkpt><trkpt lat="42.15734018682755" lon="13.272356225105371"><ele>735.0</ele><time>2026-05-03T14:56:11.999Z</time></trkpt><trkpt lat="42.157038331203985" lon="13.27248643261689"><ele>735.0</ele><time>2026-05-03T14:56:12.999Z</time></trkpt><trkpt lat="42.15675217575955" lon="13.272657186283446"><ele>735.0</ele><time>2026-05-03T14:56:13.999Z</time></trkpt><trkpt lat="42.15645676154864" lon="13.272797619220167"><ele>734.0</ele><time>2026-05-03T14:56:14.999Z</time></trkpt><trkpt lat="42.1561241636656" lon="13.272949223251723"><ele>733.0</ele><time>2026-05-03T14:56:15.999Z</time></trkpt><trkpt lat="42.15579090005281" lon="13.273098134549414"><ele>730.5</ele><time>2026-05-03T14:56:16.999Z</time></trkpt><trkpt lat="42.15546672231358" lon="13.273248843490183"><ele>728.0</ele><time>2026-05-03T14:56:17.999Z</time></trkpt><trkpt lat="42.15513223358683" lon="13.273412577449"><ele>724.5</ele><time>2026-05-03T14:56:18.999Z</time></trkpt><trkpt lat="42.15482439202678" lon="13.273561324259678"><ele>721.0</ele><time>2026-05-03T14:56:19.999Z</time></trkpt><trkpt lat="42.15451666384718" lon="13.273712045207809"><ele>721.0</ele><time>2026-05-03T14:56:20.999Z</time></trkpt><trkpt lat="42.15418917602667" lon="13.273871994032021"><ele>721.0</ele><time>2026-05-03T14:56:21.999Z</time></trkpt><trkpt lat="42.15385588518559" lon="13.274036878704111"><ele>724.0</ele><time>2026-05-03T14:56:22.999Z</time></trkpt><trkpt lat="42.15354744911271" lon="13.274187941971313"><ele>727.0</ele><time>2026-05-03T14:56:23.999Z</time></trkpt><trkpt lat="42.153240084022066" lon="13.274338465033034"><ele>728.5</ele><time>2026-05-03T14:56:24.999Z</time></trkpt><trkpt lat="42.152950632963744" lon="13.27447844985261"><ele>730.0</ele><time>2026-05-03T14:56:25.999Z</time></trkpt><trkpt lat="42.15268182679747" lon="13.274610556406554"><ele>730.0</ele><time>2026-05-03T14:56:26.999Z</time></trkpt><trkpt lat="42.15242671795695" lon="13.274734854279135"><ele>730.0</ele><time>2026-05-03T14:56:27.999Z</time></trkpt><trkpt lat="42.15219306835735" lon="13.274852294267989"><ele>729.0</ele><time>2026-05-03T14:56:28.999Z</time></trkpt><trkpt lat="42.15196676640953" lon="13.27496344454616"><ele>728.0</ele><time>2026-05-03T14:56:29.999Z</time></trkpt><trkpt lat="42.15176766003443" lon="13.275058928698073"><ele>728.0</ele><time>2026-05-03T14:56:30.999Z</time></trkpt><trkpt lat="42.15158704564262" lon="13.275143144750608"><ele>728.0</ele><time>2026-05-03T14:56:31.999Z</time></trkpt><trkpt lat="42.151413667463956" lon="13.275224358488606"><ele>728.0</ele><time>2026-05-03T14:56:32.999Z</time></trkpt><trkpt lat="42.151207646134246" lon="13.275323812158648"><ele>728.0</ele><time>2026-05-03T14:56:33.999Z</time></trkpt><trkpt lat="42.15097221473922" lon="13.275428708140042"><ele>728.0</ele><time>2026-05-03T14:56:34.999Z</time></trkpt><trkpt lat="42.15072258841047" lon="13.275542153864798"><ele>727.5</ele><time>2026-05-03T14:56:35.999Z</time></trkpt><trkpt lat="42.150495293813265" lon="13.275642012525864"><ele>727.0</ele><time>2026-05-03T14:56:36.999Z</time></trkpt><trkpt lat="42.150245202636555" lon="13.275710568074006"><ele>727.0</ele><time>2026-05-03T14:56:37.999Z</time></trkpt><trkpt lat="42.14994961614536" lon="13.275744705152668"><ele>727.0</ele><time>2026-05-03T14:56:39Z</time></trkpt><trkpt lat="42.14963225596596" lon="13.2757694859536"><ele>725.5</ele><time>2026-05-03T14:56:40Z</time></trkpt><trkpt lat="42.14932494847909" lon="13.275797627836253"><ele>724.0</ele><time>2026-05-03T14:56:41Z</time></trkpt><trkpt lat="42.14904706183205" lon="13.275827655532314"><ele>723.5</ele><time>2026-05-03T14:56:42Z</time></trkpt><trkpt lat="42.14878743285945" lon="13.275855359291276"><ele>723.0</ele><time>2026-05-03T14:56:43Z</time></trkpt><trkpt lat="42.14854065698029" lon="13.27588395316976"><ele>723.0</ele><time>2026-05-03T14:56:44Z</time></trkpt><trkpt lat="42.148309052836275" lon="13.27591027794647"><ele>723.0</ele><time>2026-05-03T14:56:45Z</time></trkpt><trkpt lat="42.14808364044312" lon="13.275933999522294"><ele>722.0</ele><time>2026-05-03T14:56:46Z</time></trkpt><trkpt lat="42.147871923301075" lon="13.275957139058093"><ele>721.0</ele><time>2026-05-03T14:56:47Z</time></trkpt><trkpt lat="42.14767235485099" lon="13.275982849276836"><ele>720.0</ele><time>2026-05-03T14:56:48Z</time></trkpt><trkpt lat="42.1474821192041" lon="13.276000504215883"><ele>719.3333333333334</ele><time>2026-05-03T14:56:49Z</time></trkpt><trkpt lat="42.147293303852145" lon="13.276005919939422"><ele>718.6666666666667</ele><time>2026-05-03T14:56:50Z</time></trkpt><trkpt lat="42.147090029159834" lon="13.275967072008607"><ele>718.0</ele><time>2026-05-03T14:56:51Z</time></trkpt><trkpt lat="42.146886569142396" lon="13.27584177573581"><ele>718.0</ele><time>2026-05-03T14:56:52Z</time></trkpt><trkpt lat="42.14666907387618" lon="13.275685694205857"><ele>718.0</ele><time>2026-05-03T14:56:53Z</time></trkpt><trkpt lat="42.1464205968514" lon="13.2754963852503"><ele>716.0</ele><time>2026-05-03T14:56:54Z</time></trkpt><trkpt lat="42.14614899795415" lon="13.275289646905831"><ele>714.0</ele><time>2026-05-03T14:56:55Z</time></trkpt><trkpt lat="42.14590346340559" lon="13.275081012719683"><ele>714.0</ele><time>2026-05-03T14:56:56Z</time></trkpt><trkpt lat="42.14568346807427" lon="13.274913600993806"><ele>714.0</ele><time>2026-05-03T14:56:57Z</time></trkpt><trkpt lat="42.14549279616269" lon="13.274765801676962"><ele>714.0</ele><time>2026-05-03T14:56:58Z</time></trkpt><trkpt lat="42.14532166504524" lon="13.27462382991588"><ele>714.0</ele><time>2026-05-03T14:56:59Z</time></trkpt><trkpt lat="42.145169677387166" lon="13.274502584364548"><ele>714.0</ele><time>2026-05-03T14:57:00Z</time></trkpt><trkpt lat="42.14500775634867" lon="13.27440446216453"><ele>711.0</ele><time>2026-05-03T14:57:01Z</time></trkpt><trkpt lat="42.14480146121486" lon="13.274364671965367"><ele>708.0</ele><time>2026-05-03T14:57:02Z</time></trkpt><trkpt lat="42.14455462988483" lon="13.274380117102508"><ele>708.0</ele><time>2026-05-03T14:57:03Z</time></trkpt><trkpt lat="42.14427981543432" lon="13.274426692066768"><ele>708.0</ele><time>2026-05-03T14:57:04Z</time></trkpt><trkpt lat="42.14398318985704" lon="13.27450362288146"><ele>706.5</ele><time>2026-05-03T14:57:05Z</time></trkpt><trkpt lat="42.14372015320718" lon="13.27460864286209"><ele>705.0</ele><time>2026-05-03T14:57:06Z</time></trkpt><trkpt lat="42.143488118540674" lon="13.2747150513366"><ele>706.5</ele><time>2026-05-03T14:57:07Z</time></trkpt><trkpt lat="42.143261286578486" lon="13.27481557847358"><ele>708.0</ele><time>2026-05-03T14:57:08Z</time></trkpt><trkpt lat="42.143020976078425" lon="13.27492446562277"><ele>708.0</ele><time>2026-05-03T14:57:09Z</time></trkpt><trkpt lat="42.14276528321804" lon="13.275014435396956"><ele>708.0</ele><time>2026-05-03T14:57:10Z</time></trkpt><trkpt lat="42.14250512220547" lon="13.275119051787117"><ele>705.0</ele><time>2026-05-03T14:57:11Z</time></trkpt><trkpt lat="42.14223228581237" lon="13.275228765229445"><ele>702.0</ele><time>2026-05-03T14:57:12Z</time></trkpt><trkpt lat="42.141921957983826" lon="13.27535268856499"><ele>702.0</ele><time>2026-05-03T14:57:13Z</time></trkpt><trkpt lat="42.14158175485859" lon="13.275487147009766"><ele>702.0</ele><time>2026-05-03T14:57:14Z</time></trkpt><trkpt lat="42.141225338479614" lon="13.275629513514023"><ele>701.5</ele><time>2026-05-03T14:57:15Z</time></trkpt><trkpt lat="42.140855231379305" lon="13.27578470582297"><ele>701.0</ele><time>2026-05-03T14:57:16Z</time></trkpt><trkpt lat="42.14050723818482" lon="13.275905429099941"><ele>701.0</ele><time>2026-05-03T14:57:17Z</time></trkpt><trkpt lat="42.140200241112936" lon="13.276024123435498"><ele>701.0</ele><time>2026-05-03T14:57:18Z</time></trkpt><trkpt lat="42.139923831869204" lon="13.276134077032308"><ele>699.0</ele><time>2026-05-03T14:57:19Z</time></trkpt><trkpt lat="42.139656162560584" lon="13.276239715521042"><ele>697.0</ele><time>2026-05-03T14:57:20Z</time></trkpt><trkpt lat="42.13937338436782" lon="13.276380356365689"><ele>697.5</ele><time>2026-05-03T14:57:21Z</time></trkpt><trkpt lat="42.139080512975" lon="13.27658585369878"><ele>698.0</ele><time>2026-05-03T14:57:22Z</time></trkpt><trkpt lat="42.13878714416023" lon="13.27683703290705"><ele>698.0</ele><time>2026-05-03T14:57:23Z</time></trkpt><trkpt lat="42.138491867288366" lon="13.277134328575155"><ele>698.0</ele><time>2026-05-03T14:57:24Z</time></trkpt><trkpt lat="42.13821728329861" lon="13.277419435758103"><ele>697.5</ele><time>2026-05-03T14:57:25Z</time></trkpt><trkpt lat="42.137967772931546" lon="13.277675522950696"><ele>697.0</ele><time>2026-05-03T14:57:26Z</time></trkpt><trkpt lat="42.137732157152236" lon="13.277911725951663"><ele>697.0</ele><time>2026-05-03T14:57:27Z</time></trkpt><trkpt lat="42.13750847500851" lon="13.2781311021435"><ele>697.0</ele><time>2026-05-03T14:57:28Z</time></trkpt><trkpt lat="42.13728597927833" lon="13.278344672329778"><ele>697.0</ele><time>2026-05-03T14:57:29Z</time></trkpt><trkpt lat="42.137022446069366" lon="13.278543859767597"><ele>697.0</ele><time>2026-05-03T14:57:30Z</time></trkpt><trkpt lat="42.1367101710209" lon="13.278714335861011"><ele>697.0</ele><time>2026-05-03T14:57:31Z</time></trkpt><trkpt lat="42.13636826308699" lon="13.278872761976155"><ele>697.0</ele><time>2026-05-03T14:57:32Z</time></trkpt><trkpt lat="42.13601358497135" lon="13.279039953211168"><ele>696.0</ele><time>2026-05-03T14:57:33Z</time></trkpt><trkpt lat="42.13565464504708" lon="13.27921502375998"><ele>695.0</ele><time>2026-05-03T14:57:34Z</time></trkpt><trkpt lat="42.135283182852795" lon="13.2794001598808"><ele>695.0</ele><time>2026-05-03T14:57:35Z</time></trkpt><trkpt lat="42.13491754318166" lon="13.279583215363152"><ele>695.0</ele><time>2026-05-03T14:57:36Z</time></trkpt><trkpt lat="42.1345855999185" lon="13.27974857736354"><ele>693.5</ele><time>2026-05-03T14:57:37Z</time></trkpt><trkpt lat="42.134285088316396" lon="13.279894086353055"><ele>692.0</ele><time>2026-05-03T14:57:37.999Z</time></trkpt><trkpt lat="42.13399556732656" lon="13.280032412091257"><ele>692.0</ele><time>2026-05-03T14:57:38.999Z</time></trkpt><trkpt lat="42.133729004696036" lon="13.280161358894958"><ele>692.0</ele><time>2026-05-03T14:57:39.999Z</time></trkpt><trkpt lat="42.13347986084773" lon="13.280281872361412"><ele>692.0</ele><time>2026-05-03T14:57:40.999Z</time></trkpt><trkpt lat="42.133243709456" lon="13.280396853347872"><ele>692.0</ele><time>2026-05-03T14:57:41.999Z</time></trkpt><trkpt lat="42.133021792071524" lon="13.28050238424166"><ele>691.6666666666666</ele><time>2026-05-03T14:57:42.999Z</time></trkpt><trkpt lat="42.13281346632709" lon="13.28060532936883"><ele>691.3333333333334</ele><time>2026-05-03T14:57:43.999Z</time></trkpt><trkpt lat="42.13260481445829" lon="13.280724235511775"><ele>691.0</ele><time>2026-05-03T14:57:44.999Z</time></trkpt><trkpt lat="42.132385549512726" lon="13.280869940703568"><ele>691.0</ele><time>2026-05-03T14:57:45.999Z</time></trkpt><trkpt lat="42.13215784153219" lon="13.281052324121752"><ele>691.0</ele><time>2026-05-03T14:57:46.999Z</time></trkpt><trkpt lat="42.131934401539155" lon="13.281253306144578"><ele>691.5</ele><time>2026-05-03T14:57:47.999Z</time></trkpt><trkpt lat="42.131737295038484" lon="13.281443515918117"><ele>692.0</ele><time>2026-05-03T14:57:48.999Z</time></trkpt><trkpt lat="42.131547186558024" lon="13.281652652345594"><ele>692.0</ele><time>2026-05-03T14:57:49.999Z</time></trkpt><trkpt lat="42.13136604687113" lon="13.28187355089162"><ele>692.0</ele><time>2026-05-03T14:57:50.999Z</time></trkpt><trkpt lat="42.13119712974752" lon="13.282110580819683"><ele>693.0</ele><time>2026-05-03T14:57:51.999Z</time></trkpt><trkpt lat="42.13103207306458" lon="13.282405898415444"><ele>694.0</ele><time>2026-05-03T14:57:52.999Z</time></trkpt><trkpt lat="42.13086695390495" lon="13.282761098850461"><ele>693.0</ele><time>2026-05-03T14:57:53.999Z</time></trkpt><trkpt lat="42.13068984640116" lon="13.283137975579454"><ele>692.0</ele><time>2026-05-03T14:57:54.999Z</time></trkpt><trkpt lat="42.13050024106304" lon="13.283520139305509"><ele>692.0</ele><time>2026-05-03T14:57:55.999Z</time></trkpt><trkpt lat="42.130302093266884" lon="13.283917651947617"><ele>692.0</ele><time>2026-05-03T14:57:56.999Z</time></trkpt><trkpt lat="42.13011996238412" lon="13.284283166355142"><ele>692.5</ele><time>2026-05-03T14:57:57.999Z</time></trkpt><trkpt lat="42.12994473618113" lon="13.284641807497854"><ele>693.0</ele><time>2026-05-03T14:57:58.999Z</time></trkpt><trkpt lat="42.12976199135272" lon="13.285025845082064"><ele>693.0</ele><time>2026-05-03T14:57:59.999Z</time></trkpt><trkpt lat="42.12956985878693" lon="13.285433165071504"><ele>693.0</ele><time>2026-05-03T14:58:00.999Z</time></trkpt><trkpt lat="42.12938358647787" lon="13.285831456620945"><ele>694.0</ele><time>2026-05-03T14:58:01.999Z</time></trkpt><trkpt lat="42.12920732258265" lon="13.286205191961484"><ele>695.0</ele><time>2026-05-03T14:58:02.999Z</time></trkpt><trkpt lat="42.12901802360893" lon="13.286601812020411"><ele>695.5</ele><time>2026-05-03T14:58:03.999Z</time></trkpt><trkpt lat="42.12882974941504" lon="13.286992280915593"><ele>696.0</ele><time>2026-05-03T14:58:04.999Z</time></trkpt><trkpt lat="42.12865855733625" lon="13.287341952091976"><ele>696.5</ele><time>2026-05-03T14:58:05.999Z</time></trkpt><trkpt lat="42.128506714068514" lon="13.287654065103915"><ele>697.0</ele><time>2026-05-03T14:58:06.999Z</time></trkpt><trkpt lat="42.12836435253797" lon="13.287945886775015"><ele>697.5</ele><time>2026-05-03T14:58:07.999Z</time></trkpt><trkpt lat="42.128230143852754" lon="13.28821902855246"><ele>698.0</ele><time>2026-05-03T14:58:08.999Z</time></trkpt><trkpt lat="42.12810823589385" lon="13.288479798120274"><ele>697.5</ele><time>2026-05-03T14:58:09.999Z</time></trkpt><trkpt lat="42.128000646879116" lon="13.288762592963742"><ele>697.0</ele><time>2026-05-03T14:58:10.999Z</time></trkpt><trkpt lat="42.12792072440907" lon="13.289070239501235"><ele>697.0</ele><time>2026-05-03T14:58:11.999Z</time></trkpt><trkpt lat="42.12787663108766" lon="13.289443973511535"><ele>697.0</ele><time>2026-05-03T14:58:12.999Z</time></trkpt><trkpt lat="42.127855314240776" lon="13.289853708276233"><ele>698.0</ele><time>2026-05-03T14:58:13.999Z</time></trkpt><trkpt lat="42.12783588045396" lon="13.290287618374844"><ele>699.0</ele><time>2026-05-03T14:58:14.999Z</time></trkpt><trkpt lat="42.127809822032596" lon="13.290716120161633"><ele>699.0</ele><time>2026-05-03T14:58:15.999Z</time></trkpt><trkpt lat="42.12779172112539" lon="13.291086347323565"><ele>699.0</ele><time>2026-05-03T14:58:16.999Z</time></trkpt><trkpt lat="42.127770474274" lon="13.291425729438085"><ele>699.0</ele><time>2026-05-03T14:58:17.999Z</time></trkpt><trkpt lat="42.127747116811115" lon="13.291732312386277"><ele>699.0</ele><time>2026-05-03T14:58:18.999Z</time></trkpt><trkpt lat="42.12770965573016" lon="13.292021128128484"><ele>699.0</ele><time>2026-05-03T14:58:19.999Z</time></trkpt><trkpt lat="42.12763381242072" lon="13.292301341485741"><ele>697.5</ele><time>2026-05-03T14:58:20.999Z</time></trkpt><trkpt lat="42.1275054443893" lon="13.292587741074769"><ele>696.0</ele><time>2026-05-03T14:58:21.999Z</time></trkpt><trkpt lat="42.12733610044002" lon="13.292904499062123"><ele>697.0</ele><time>2026-05-03T14:58:22.999Z</time></trkpt><trkpt lat="42.1271438545909" lon="13.293239831914297"><ele>698.0</ele><time>2026-05-03T14:58:23.999Z</time></trkpt><trkpt lat="42.12692245913835" lon="13.293574225390536"><ele>698.0</ele><time>2026-05-03T14:58:24.999Z</time></trkpt><trkpt lat="42.126666858980094" lon="13.293893964034966"><ele>698.0</ele><time>2026-05-03T14:58:25.999Z</time></trkpt><trkpt lat="42.12639728048974" lon="13.294218319582635"><ele>698.0</ele><time>2026-05-03T14:58:26.999Z</time></trkpt><trkpt lat="42.12612091333356" lon="13.29455625246782"><ele>698.0</ele><time>2026-05-03T14:58:27.999Z</time></trkpt><trkpt lat="42.12584184799298" lon="13.294904755985584"><ele>698.5</ele><time>2026-05-03T14:58:28.999Z</time></trkpt><trkpt lat="42.12556117040052" lon="13.295249239061507"><ele>699.0</ele><time>2026-05-03T14:58:29.999Z</time></trkpt><trkpt lat="42.12525605507359" lon="13.295603109321986"><ele>699.0</ele><time>2026-05-03T14:58:30.999Z</time></trkpt><trkpt lat="42.124955548536605" lon="13.295960247358945"><ele>699.0</ele><time>2026-05-03T14:58:31.999Z</time></trkpt><trkpt lat="42.12467592194484" lon="13.29634211896926"><ele>698.5</ele><time>2026-05-03T14:58:32.999Z</time></trkpt><trkpt lat="42.12441342998103" lon="13.296671771724569"><ele>698.0</ele><time>2026-05-03T14:58:33.999Z</time></trkpt><trkpt lat="42.12414803339321" lon="13.297001751459188"><ele>698.0</ele><time>2026-05-03T14:58:34.999Z</time></trkpt><trkpt lat="42.12388087585726" lon="13.29733988177095"><ele>698.0</ele><time>2026-05-03T14:58:35.999Z</time></trkpt><trkpt lat="42.12360736532451" lon="13.297683082418098"><ele>698.0</ele><time>2026-05-03T14:58:36.999Z</time></trkpt><trkpt lat="42.123326723965846" lon="13.298031973465408"><ele>698.0</ele><time>2026-05-03T14:58:37.999Z</time></trkpt><trkpt lat="42.12304539123062" lon="13.298385093096721"><ele>697.5</ele><time>2026-05-03T14:58:38.999Z</time></trkpt><trkpt lat="42.122783780523605" lon="13.298714604515682"><ele>697.0</ele><time>2026-05-03T14:58:39.999Z</time></trkpt><trkpt lat="42.12252713069535" lon="13.299028236195944"><ele>696.5</ele><time>2026-05-03T14:58:40.999Z</time></trkpt><trkpt lat="42.122292952862296" lon="13.299324897891251"><ele>696.0</ele><time>2026-05-03T14:58:41.999Z</time></trkpt><trkpt lat="42.12207065127463" lon="13.299595141920515"><ele>700.0</ele><time>2026-05-03T14:58:42.999Z</time></trkpt><trkpt lat="42.121868621708884" lon="13.29985121901381"><ele>704.0</ele><time>2026-05-03T14:58:43.999Z</time></trkpt><trkpt lat="42.121674015348326" lon="13.300085903304401"><ele>700.5</ele><time>2026-05-03T14:58:45Z</time></trkpt><trkpt lat="42.12149790781536" lon="13.300306682812948"><ele>697.0</ele><time>2026-05-03T14:58:46Z</time></trkpt><trkpt lat="42.12133407336206" lon="13.30051553738601"><ele>699.3333333333334</ele><time>2026-05-03T14:58:47Z</time></trkpt><trkpt lat="42.12118201892591" lon="13.300700833462315"><ele>701.6666666666666</ele><time>2026-05-03T14:58:48Z</time></trkpt><trkpt lat="42.12100533734225" lon="13.300904535209176"><ele>704.0</ele><time>2026-05-03T14:58:49Z</time></trkpt><trkpt lat="42.12076919438914" lon="13.301090811043395"><ele>700.5</ele><time>2026-05-03T14:58:50Z</time></trkpt><trkpt lat="42.12053029956014" lon="13.30122757121712"><ele>697.0</ele><time>2026-05-03T14:58:51Z</time></trkpt><trkpt lat="42.12033416879866" lon="13.301345646805936"><ele>701.6666666666667</ele><time>2026-05-03T14:58:52Z</time></trkpt><trkpt lat="42.12015678692557" lon="13.301451072325225"><ele>706.3333333333334</ele><time>2026-05-03T14:58:53Z</time></trkpt><trkpt lat="42.119994108871886" lon="13.301539597997508"><ele>711.0</ele><time>2026-05-03T14:58:54Z</time></trkpt><trkpt lat="42.1198237468201" lon="13.301568406711917"><ele>711.0</ele><time>2026-05-03T14:58:55Z</time></trkpt><trkpt lat="42.11962515445836" lon="13.301536014955008"><ele>711.0</ele><time>2026-05-03T14:58:56Z</time></trkpt><trkpt lat="42.119419557964136" lon="13.301443499664018"><ele>711.0</ele><time>2026-05-03T14:58:57Z</time></trkpt><trkpt lat="42.11921001839145" lon="13.30131941630873"><ele>706.5</ele><time>2026-05-03T14:58:58Z</time></trkpt><trkpt lat="42.11900598945216" lon="13.301226622409695"><ele>702.0</ele><time>2026-05-03T14:58:59Z</time></trkpt><trkpt lat="42.11876265617277" lon="13.301170499833713"><ele>702.0</ele><time>2026-05-03T14:59:00Z</time></trkpt><trkpt lat="42.118498895200865" lon="13.30116180097401"><ele>702.0</ele><time>2026-05-03T14:59:01Z</time></trkpt><trkpt lat="42.11827033414063" lon="13.301153377265697"><ele>701.3333333333334</ele><time>2026-05-03T14:59:02Z</time></trkpt><trkpt lat="42.11805775221729" lon="13.301137839478779"><ele>700.6666666666667</ele><time>2026-05-03T14:59:03Z</time></trkpt><trkpt lat="42.11784663707182" lon="13.301137366174062"><ele>700.0</ele><time>2026-05-03T14:59:04Z</time></trkpt><trkpt lat="42.11763650466715" lon="13.3011926158362"><ele>700.0</ele><time>2026-05-03T14:59:05Z</time></trkpt><trkpt lat="42.11741865205674" lon="13.301302906748019"><ele>700.0</ele><time>2026-05-03T14:59:06Z</time></trkpt><trkpt lat="42.117190949193116" lon="13.301480181751407"><ele>701.0</ele><time>2026-05-03T14:59:07Z</time></trkpt><trkpt lat="42.11696426971304" lon="13.301683020272424"><ele>702.0</ele><time>2026-05-03T14:59:08Z</time></trkpt><trkpt lat="42.11676283681528" lon="13.3018585902734"><ele>702.0</ele><time>2026-05-03T14:59:09Z</time></trkpt><trkpt lat="42.116589266878606" lon="13.302042352835773"><ele>702.0</ele><time>2026-05-03T14:59:10Z</time></trkpt><trkpt lat="42.11643220638005" lon="13.302274460409345"><ele>701.0</ele><time>2026-05-03T14:59:11Z</time></trkpt><trkpt lat="42.116302757138065" lon="13.30254336778283"><ele>700.0</ele><time>2026-05-03T14:59:12Z</time></trkpt><trkpt lat="42.11619781744337" lon="13.302849986598497"><ele>700.0</ele><time>2026-05-03T14:59:13Z</time></trkpt><trkpt lat="42.11612232017661" lon="13.303177766107451"><ele>700.0</ele><time>2026-05-03T14:59:14Z</time></trkpt><trkpt lat="42.116073712788435" lon="13.303556371786472"><ele>700.0</ele><time>2026-05-03T14:59:15Z</time></trkpt><trkpt lat="42.11605636521509" lon="13.303925175723945"><ele>700.0</ele><time>2026-05-03T14:59:16Z</time></trkpt><trkpt lat="42.11605116828423" lon="13.304253939294677"><ele>700.0</ele><time>2026-05-03T14:59:17Z</time></trkpt><trkpt lat="42.11602470245457" lon="13.30454508034025"><ele>700.0</ele><time>2026-05-03T14:59:18Z</time></trkpt><trkpt lat="42.11594971903665" lon="13.304838074671782"><ele>700.0</ele><time>2026-05-03T14:59:19Z</time></trkpt><trkpt lat="42.11588821721574" lon="13.30516749832227"><ele>699.0</ele><time>2026-05-03T14:59:20Z</time></trkpt><trkpt lat="42.11583152946524" lon="13.305523939461837"><ele>698.0</ele><time>2026-05-03T14:59:21Z</time></trkpt><trkpt lat="42.115451487338305" lon="13.305823808761767"><ele>698.0</ele><time>2026-05-03T14:59:22Z</time></trkpt><trkpt lat="42.11524890615202" lon="13.306203142189005"><ele>698.0</ele><time>2026-05-03T14:59:23Z</time></trkpt><trkpt lat="42.115027308388555" lon="13.306589759312821"><ele>698.5</ele><time>2026-05-03T14:59:24Z</time></trkpt><trkpt lat="42.114782433975165" lon="13.30696311472684"><ele>699.0</ele><time>2026-05-03T14:59:25Z</time></trkpt><trkpt lat="42.114518763511654" lon="13.307345546431462"><ele>699.0</ele><time>2026-05-03T14:59:26Z</time></trkpt><trkpt lat="42.11426842934443" lon="13.307734041893934"><ele>699.0</ele><time>2026-05-03T14:59:27Z</time></trkpt><trkpt lat="42.114040122777006" lon="13.308081244489879"><ele>697.5</ele><time>2026-05-03T14:59:28Z</time></trkpt><trkpt lat="42.11382862566593" lon="13.308407917654682"><ele>696.0</ele><time>2026-05-03T14:59:29Z</time></trkpt><trkpt lat="42.11363444439491" lon="13.30870923816411"><ele>699.5</ele><time>2026-05-03T14:59:30Z</time></trkpt><trkpt lat="42.11345922318106" lon="13.30898897306009"><ele>703.0</ele><time>2026-05-03T14:59:31Z</time></trkpt><trkpt lat="42.113296113735615" lon="13.309236847605325"><ele>701.6666666666667</ele><time>2026-05-03T14:59:32Z</time></trkpt><trkpt lat="42.113151231663736" lon="13.309465942434112"><ele>700.3333333333334</ele><time>2026-05-03T14:59:33Z</time></trkpt><trkpt lat="42.11300924265475" lon="13.309678711488417"><ele>699.0</ele><time>2026-05-03T14:59:34Z</time></trkpt><trkpt lat="42.11286701796637" lon="13.309885158185324"><ele>699.0</ele><time>2026-05-03T14:59:35Z</time></trkpt><trkpt lat="42.11269699789615" lon="13.31005899070405"><ele>699.0</ele><time>2026-05-03T14:59:36Z</time></trkpt><trkpt lat="42.11249622489236" lon="13.310203404392613"><ele>699.0</ele><time>2026-05-03T14:59:37Z</time></trkpt><trkpt lat="42.11227784372672" lon="13.310333655883895"><ele>698.0</ele><time>2026-05-03T14:59:38Z</time></trkpt><trkpt lat="42.112067285330156" lon="13.310485669265402"><ele>697.0</ele><time>2026-05-03T14:59:39Z</time></trkpt><trkpt lat="42.11187883821583" lon="13.310694432980346"><ele>696.0</ele><time>2026-05-03T14:59:40Z</time></trkpt><trkpt lat="42.11169058892191" lon="13.311005183901923"><ele>695.0</ele><time>2026-05-03T14:59:40.999Z</time></trkpt><trkpt lat="42.11148821313078" lon="13.31132855628756"><ele>696.5</ele><time>2026-05-03T14:59:41.999Z</time></trkpt><trkpt lat="42.111264631587495" lon="13.311684122755025"><ele>698.0</ele><time>2026-05-03T14:59:42.999Z</time></trkpt><trkpt lat="42.11105419241212" lon="13.312013328363003"><ele>697.0</ele><time>2026-05-03T14:59:43.999Z</time></trkpt><trkpt lat="42.11085992356877" lon="13.312313786700967"><ele>696.0</ele><time>2026-05-03T14:59:44.999Z</time></trkpt><trkpt lat="42.110679183322304" lon="13.312599215386582"><ele>696.0</ele><time>2026-05-03T14:59:45.999Z</time></trkpt><trkpt lat="42.110505683734395" lon="13.312912515724948"><ele>696.0</ele><time>2026-05-03T14:59:46.999Z</time></trkpt><trkpt lat="42.1103452935973" lon="13.313301580509444"><ele>696.5</ele><time>2026-05-03T14:59:47.999Z</time></trkpt><trkpt lat="42.110188000118214" lon="13.313733932961911"><ele>697.0</ele><time>2026-05-03T14:59:48.999Z</time></trkpt><trkpt lat="42.11001396611087" lon="13.314157525162386"><ele>697.0</ele><time>2026-05-03T14:59:49.999Z</time></trkpt><trkpt lat="42.109852297901185" lon="13.314531784082558"><ele>697.0</ele><time>2026-05-03T14:59:50.999Z</time></trkpt><trkpt lat="42.10969289191351" lon="13.314908279669188"><ele>697.0</ele><time>2026-05-03T14:59:51.999Z</time></trkpt><trkpt lat="42.109537445360054" lon="13.315286158679315"><ele>697.0</ele><time>2026-05-03T14:59:52.999Z</time></trkpt><trkpt lat="42.109398884070615" lon="13.31564182072613"><ele>698.5</ele><time>2026-05-03T14:59:53.999Z</time></trkpt><trkpt lat="42.10927126450033" lon="13.31597724477336"><ele>700.0</ele><time>2026-05-03T14:59:54.999Z</time></trkpt><trkpt lat="42.10916074594554" lon="13.31628129135111"><ele>698.5</ele><time>2026-05-03T14:59:55.999Z</time></trkpt><trkpt lat="42.10906949968557" lon="13.316576613650208"><ele>697.0</ele><time>2026-05-03T14:59:56.999Z</time></trkpt><trkpt lat="42.10900325313999" lon="13.316902933942389"><ele>695.5</ele><time>2026-05-03T14:59:57.999Z</time></trkpt><trkpt lat="42.10897142820214" lon="13.317279260963083"><ele>694.0</ele><time>2026-05-03T14:59:58.999Z</time></trkpt><trkpt lat="42.10894864489196" lon="13.317687176673429"><ele>695.0</ele><time>2026-05-03T14:59:59.999Z</time></trkpt><trkpt lat="42.10891557622911" lon="13.318123869030595"><ele>696.0</ele><time>2026-05-03T15:00:00.999Z</time></trkpt><trkpt lat="42.108879095266616" lon="13.318532608284178"><ele>696.0</ele><time>2026-05-03T15:00:01.999Z</time></trkpt><trkpt lat="42.10884580429479" lon="13.318895212615514"><ele>696.0</ele><time>2026-05-03T15:00:02.999Z</time></trkpt><trkpt lat="42.10881364564007" lon="13.319242208884342"><ele>697.0</ele><time>2026-05-03T15:00:03.999Z</time></trkpt><trkpt lat="42.10876842448858" lon="13.319612623909137"><ele>698.0</ele><time>2026-05-03T15:00:04.999Z</time></trkpt><trkpt lat="42.1086906583679" lon="13.320006041043474"><ele>698.0</ele><time>2026-05-03T15:00:05.999Z</time></trkpt><trkpt lat="42.10857591812974" lon="13.320402062362188"><ele>698.0</ele><time>2026-05-03T15:00:06.999Z</time></trkpt><trkpt lat="42.10844243669238" lon="13.320783817002372"><ele>698.0</ele><time>2026-05-03T15:00:07.999Z</time></trkpt><trkpt lat="42.10831323364449" lon="13.321129792746113"><ele>698.0</ele><time>2026-05-03T15:00:08.999Z</time></trkpt><trkpt lat="42.10819344351687" lon="13.321446131398059"><ele>697.5</ele><time>2026-05-03T15:00:09.999Z</time></trkpt><trkpt lat="42.108085919143626" lon="13.321748851282937"><ele>697.0</ele><time>2026-05-03T15:00:10.999Z</time></trkpt><trkpt lat="42.107987466709254" lon="13.322054570481079"><ele>697.0</ele><time>2026-05-03T15:00:11.999Z</time></trkpt><trkpt lat="42.10790523102298" lon="13.322414228585265"><ele>697.0</ele><time>2026-05-03T15:00:12.999Z</time></trkpt><trkpt lat="42.10784544623004" lon="13.322823726443302"><ele>697.5</ele><time>2026-05-03T15:00:13.999Z</time></trkpt><trkpt lat="42.10779788241664" lon="13.323238686474395"><ele>698.0</ele><time>2026-05-03T15:00:14.999Z</time></trkpt><trkpt lat="42.107745883599975" lon="13.32361771962831"><ele>698.5</ele><time>2026-05-03T15:00:15.999Z</time></trkpt><trkpt lat="42.10768765295178" lon="13.323982155592464"><ele>699.0</ele><time>2026-05-03T15:00:16.999Z</time></trkpt><trkpt lat="42.10763699062533" lon="13.324317647654713"><ele>699.0</ele><time>2026-05-03T15:00:17.999Z</time></trkpt><trkpt lat="42.107586848276085" lon="13.324641716119432"><ele>699.0</ele><time>2026-05-03T15:00:18.999Z</time></trkpt><trkpt lat="42.107549830552486" lon="13.324947371719654"><ele>699.0</ele><time>2026-05-03T15:00:19.999Z</time></trkpt><trkpt lat="42.107526382001474" lon="13.325246975151924"><ele>699.0</ele><time>2026-05-03T15:00:20.999Z</time></trkpt><trkpt lat="42.10752233291016" lon="13.3255462793647"><ele>699.0</ele><time>2026-05-03T15:00:21.999Z</time></trkpt><trkpt lat="42.10752361947674" lon="13.325836221617115"><ele>699.0</ele><time>2026-05-03T15:00:22.999Z</time></trkpt><trkpt lat="42.10752204261613" lon="13.326106987924026"><ele>699.0</ele><time>2026-05-03T15:00:23.999Z</time></trkpt><trkpt lat="42.10750688484611" lon="13.326376502477125"><ele>699.0</ele><time>2026-05-03T15:00:24.999Z</time></trkpt><trkpt lat="42.10744502874483" lon="13.326654563484711"><ele>698.5</ele><time>2026-05-03T15:00:25.999Z</time></trkpt><trkpt lat="42.10730387690101" lon="13.326924565019526"><ele>698.0</ele><time>2026-05-03T15:00:26.999Z</time></trkpt><trkpt lat="42.10715910640776" lon="13.327251115500935"><ele>698.0</ele><time>2026-05-03T15:00:27.999Z</time></trkpt><trkpt lat="42.107018282621" lon="13.32760556085618"><ele>698.0</ele><time>2026-05-03T15:00:28.999Z</time></trkpt><trkpt lat="42.106908097436246" lon="13.3280039506928"><ele>699.5</ele><time>2026-05-03T15:00:29.999Z</time></trkpt><trkpt lat="42.106824357621235" lon="13.328372494655072"><ele>701.0</ele><time>2026-05-03T15:00:30.999Z</time></trkpt><trkpt lat="42.10675056053265" lon="13.328661615850432"><ele>699.3333333333333</ele><time>2026-05-03T15:00:31.999Z</time></trkpt><trkpt lat="42.10667844264552" lon="13.328911300996063"><ele>697.6666666666666</ele><time>2026-05-03T15:00:32.999Z</time></trkpt><trkpt lat="42.106573167959105" lon="13.329118165876713"><ele>696.0</ele><time>2026-05-03T15:00:33.999Z</time></trkpt><trkpt lat="42.1064357518838" lon="13.329317755431934"><ele>696.0</ele><time>2026-05-03T15:00:34.999Z</time></trkpt><trkpt lat="42.10624027638922" lon="13.329523533308354"><ele>696.0</ele><time>2026-05-03T15:00:35.999Z</time></trkpt><trkpt lat="42.10602300327329" lon="13.32975561778677"><ele>697.0</ele><time>2026-05-03T15:00:36.999Z</time></trkpt><trkpt lat="42.10578752395199" lon="13.329989412835063"><ele>698.0</ele><time>2026-05-03T15:00:37.999Z</time></trkpt><trkpt lat="42.10558044027399" lon="13.33025068326719"><ele>698.0</ele><time>2026-05-03T15:00:38.999Z</time></trkpt><trkpt lat="42.10541249603415" lon="13.330487503471897"><ele>698.0</ele><time>2026-05-03T15:00:39.999Z</time></trkpt><trkpt lat="42.10526143766821" lon="13.330731613538703"><ele>699.5</ele><time>2026-05-03T15:00:40.999Z</time></trkpt><trkpt lat="42.105130415303826" lon="13.330998129603934"><ele>701.0</ele><time>2026-05-03T15:00:41.999Z</time></trkpt><trkpt lat="42.10502541500124" lon="13.331271408511322"><ele>702.5</ele><time>2026-05-03T15:00:42.999Z</time></trkpt><trkpt lat="42.104923506370085" lon="13.331594690177079"><ele>704.0</ele><time>2026-05-03T15:00:43.999Z</time></trkpt><trkpt lat="42.10482979952642" lon="13.331943527863906"><ele>700.0</ele><time>2026-05-03T15:00:44.999Z</time></trkpt><trkpt lat="42.104754255422925" lon="13.332259866205678"><ele>696.0</ele><time>2026-05-03T15:00:45.999Z</time></trkpt><trkpt lat="42.10467825334907" lon="13.33254462982851"><ele>696.0</ele><time>2026-05-03T15:00:46.999Z</time></trkpt><trkpt lat="42.104571297972306" lon="13.332823768024948"><ele>696.0</ele><time>2026-05-03T15:00:47.999Z</time></trkpt><trkpt lat="42.10442533087952" lon="13.333086445591723"><ele>697.0</ele><time>2026-05-03T15:00:48.999Z</time></trkpt><trkpt lat="42.104256937053535" lon="13.333351939327041"><ele>698.0</ele><time>2026-05-03T15:00:50Z</time></trkpt><trkpt lat="42.104054677419214" lon="13.333627996792183"><ele>699.0</ele><time>2026-05-03T15:00:51Z</time></trkpt><trkpt lat="42.10382484803643" lon="13.333911728887758"><ele>700.0</ele><time>2026-05-03T15:00:52Z</time></trkpt><trkpt lat="42.10356737274623" lon="13.334202824298375"><ele>700.0</ele><time>2026-05-03T15:00:53Z</time></trkpt><trkpt lat="42.103300466600714" lon="13.33451838313945"><ele>700.0</ele><time>2026-05-03T15:00:54Z</time></trkpt><trkpt lat="42.103029214841456" lon="13.334839964218684"><ele>698.0</ele><time>2026-05-03T15:00:55Z</time></trkpt><trkpt lat="42.10274472387069" lon="13.335178647660252"><ele>696.0</ele><time>2026-05-03T15:00:56Z</time></trkpt><trkpt lat="42.102453303727174" lon="13.335530778639324"><ele>697.5</ele><time>2026-05-03T15:00:57Z</time></trkpt><trkpt lat="42.10216025939466" lon="13.335882046060712"><ele>699.0</ele><time>2026-05-03T15:00:58Z</time></trkpt><trkpt lat="42.10186763563551" lon="13.336241355198544"><ele>697.5</ele><time>2026-05-03T15:00:59Z</time></trkpt><trkpt lat="42.10160030874873" lon="13.336576637350104"><ele>696.0</ele><time>2026-05-03T15:01:00Z</time></trkpt><trkpt lat="42.10135651182868" lon="13.336871306262141"><ele>696.0</ele><time>2026-05-03T15:01:01Z</time></trkpt><trkpt lat="42.10113182258148" lon="13.337145094354195"><ele>696.0</ele><time>2026-05-03T15:01:02Z</time></trkpt><trkpt lat="42.10093225954448" lon="13.337400974440799"><ele>697.0</ele><time>2026-05-03T15:01:03Z</time></trkpt><trkpt lat="42.10073955144419" lon="13.337645694808332"><ele>698.0</ele><time>2026-05-03T15:01:04Z</time></trkpt><trkpt lat="42.10055997797056" lon="13.337889534458338"><ele>698.5</ele><time>2026-05-03T15:01:05Z</time></trkpt><trkpt lat="42.1003741623339" lon="13.338182901587732"><ele>699.0</ele><time>2026-05-03T15:01:06Z</time></trkpt><trkpt lat="42.100209504031106" lon="13.33854963522815"><ele>697.0</ele><time>2026-05-03T15:01:07Z</time></trkpt><trkpt lat="42.100041636984635" lon="13.338952238355239"><ele>695.0</ele><time>2026-05-03T15:01:08Z</time></trkpt><trkpt lat="42.099863776038674" lon="13.339359315767755"><ele>698.0</ele><time>2026-05-03T15:01:09Z</time></trkpt><trkpt lat="42.09969433510451" lon="13.339732691841458"><ele>701.0</ele><time>2026-05-03T15:01:10Z</time></trkpt><trkpt lat="42.099544559635866" lon="13.340069202225422"><ele>701.0</ele><time>2026-05-03T15:01:11Z</time></trkpt><trkpt lat="42.099411267226294" lon="13.34038504643441"><ele>701.0</ele><time>2026-05-03T15:01:12Z</time></trkpt><trkpt lat="42.099295319842525" lon="13.340681230188588"><ele>704.5</ele><time>2026-05-03T15:01:13Z</time></trkpt><trkpt lat="42.099179780599364" lon="13.341010262972086"><ele>708.0</ele><time>2026-05-03T15:01:14Z</time></trkpt><trkpt lat="42.09909514286041" lon="13.34135167781374"><ele>705.0</ele><time>2026-05-03T15:01:15Z</time></trkpt><trkpt lat="42.09903532748768" lon="13.341734948691684"><ele>702.0</ele><time>2026-05-03T15:01:16Z</time></trkpt><trkpt lat="42.09900034408166" lon="13.342128257615064"><ele>702.0</ele><time>2026-05-03T15:01:17Z</time></trkpt><trkpt lat="42.09898041977908" lon="13.342487488639653"><ele>702.0</ele><time>2026-05-03T15:01:18Z</time></trkpt><trkpt lat="42.09896277066001" lon="13.342826143296081"><ele>700.0</ele><time>2026-05-03T15:01:19Z</time></trkpt><trkpt lat="42.09894692771807" lon="13.343135458151492"><ele>698.0</ele><time>2026-05-03T15:01:20Z</time></trkpt><trkpt lat="42.09892537254773" lon="13.343446155488666"><ele>698.0</ele><time>2026-05-03T15:01:21Z</time></trkpt><trkpt lat="42.09886639902647" lon="13.34377845196125"><ele>698.0</ele><time>2026-05-03T15:01:22Z</time></trkpt><trkpt lat="42.09874994133325" lon="13.344134650817399"><ele>699.5</ele><time>2026-05-03T15:01:23Z</time></trkpt><trkpt lat="42.09861174324579" lon="13.344508488607046"><ele>701.0</ele><time>2026-05-03T15:01:24Z</time></trkpt><trkpt lat="42.09846610205083" lon="13.34490625588432"><ele>702.5</ele><time>2026-05-03T15:01:25Z</time></trkpt><trkpt lat="42.09832221687593" lon="13.345318592291937"><ele>704.0</ele><time>2026-05-03T15:01:26Z</time></trkpt><trkpt lat="42.09817247096324" lon="13.345752924942405"><ele>704.0</ele><time>2026-05-03T15:01:27Z</time></trkpt><trkpt lat="42.09803299258152" lon="13.346149614885867"><ele>704.0</ele><time>2026-05-03T15:01:28Z</time></trkpt><trkpt lat="42.09789716156407" lon="13.346527530487919"><ele>704.5</ele><time>2026-05-03T15:01:29Z</time></trkpt><trkpt lat="42.097774097212515" lon="13.346866786982696"><ele>705.0</ele><time>2026-05-03T15:01:30Z</time></trkpt><trkpt lat="42.09767181885288" lon="13.347156396084271"><ele>704.6666666666666</ele><time>2026-05-03T15:01:31Z</time></trkpt><trkpt lat="42.09758168227063" lon="13.34741236410524"><ele>704.3333333333333</ele><time>2026-05-03T15:01:32Z</time></trkpt><trkpt lat="42.09749560189987" lon="13.347653411006803"><ele>704.0</ele><time>2026-05-03T15:01:33Z</time></trkpt><trkpt lat="42.09741259536731" lon="13.347882940593406"><ele>703.3333333333333</ele><time>2026-05-03T15:01:34Z</time></trkpt><trkpt lat="42.09733208739307" lon="13.348110503056532"><ele>702.6666666666666</ele><time>2026-05-03T15:01:35Z</time></trkpt><trkpt lat="42.09724923063908" lon="13.348357106133266"><ele>702.0</ele><time>2026-05-03T15:01:36Z</time></trkpt><trkpt lat="42.09714647838451" lon="13.348673225609058"><ele>701.5</ele><time>2026-05-03T15:01:37Z</time></trkpt><trkpt lat="42.097028898394605" lon="13.349025822503537"><ele>701.0</ele><time>2026-05-03T15:01:38Z</time></trkpt><trkpt lat="42.09688393495849" lon="13.349417077701832"><ele>700.5</ele><time>2026-05-03T15:01:39Z</time></trkpt><trkpt lat="42.09671900107219" lon="13.349824900670827"><ele>700.0</ele><time>2026-05-03T15:01:40Z</time></trkpt><trkpt lat="42.096553815240256" lon="13.35025999184238"><ele>699.5</ele><time>2026-05-03T15:01:41Z</time></trkpt><trkpt lat="42.096393654361854" lon="13.350706417754598"><ele>699.0</ele><time>2026-05-03T15:01:42Z</time></trkpt><trkpt lat="42.09624401922773" lon="13.351134166212562"><ele>699.0</ele><time>2026-05-03T15:01:42.999Z</time></trkpt><trkpt lat="42.09608199605058" lon="13.351586145798764"><ele>699.0</ele><time>2026-05-03T15:01:43.999Z</time></trkpt><trkpt lat="42.095913208217446" lon="13.35204687316436"><ele>699.0</ele><time>2026-05-03T15:01:44.999Z</time></trkpt><trkpt lat="42.09576082179087" lon="13.352467597537377"><ele>699.0</ele><time>2026-05-03T15:01:45.999Z</time></trkpt><trkpt lat="42.0956221436341" lon="13.35285965118666"><ele>699.5</ele><time>2026-05-03T15:01:46.999Z</time></trkpt><trkpt lat="42.09549495741791" lon="13.353219476086469"><ele>700.0</ele><time>2026-05-03T15:01:47.999Z</time></trkpt><trkpt lat="42.09538178628603" lon="13.35354075257035"><ele>700.0</ele><time>2026-05-03T15:01:48.999Z</time></trkpt><trkpt lat="42.09527906296691" lon="13.353824254663635"><ele>700.0</ele><time>2026-05-03T15:01:49.999Z</time></trkpt><trkpt lat="42.09518542549849" lon="13.354078778344215"><ele>700.0</ele><time>2026-05-03T15:01:50.999Z</time></trkpt><trkpt lat="42.09510276828763" lon="13.354308225707078"><ele>700.0</ele><time>2026-05-03T15:01:51.999Z</time></trkpt><trkpt lat="42.09502737696283" lon="13.354515531584902"><ele>700.0</ele><time>2026-05-03T15:01:52.999Z</time></trkpt><trkpt lat="42.0949571505326" lon="13.354708655803941"><ele>700.0</ele><time>2026-05-03T15:01:53.999Z</time></trkpt><trkpt lat="42.0948892839567" lon="13.354895347851922"><ele>700.0</ele><time>2026-05-03T15:01:54.999Z</time></trkpt><trkpt lat="42.09482646297097" lon="13.355070647714003"><ele>700.0</ele><time>2026-05-03T15:01:55.999Z</time></trkpt><trkpt lat="42.09476164309325" lon="13.355251027070274"><ele>700.0</ele><time>2026-05-03T15:01:56.999Z</time></trkpt><trkpt lat="42.09469196300577" lon="13.355445880750349"><ele>701.3333333333334</ele><time>2026-05-03T15:01:57.999Z</time></trkpt><trkpt lat="42.094624604964054" lon="13.35567054274133"><ele>702.6666666666666</ele><time>2026-05-03T15:01:58.999Z</time></trkpt><trkpt lat="42.09454310698481" lon="13.355942463254117"><ele>704.0</ele><time>2026-05-03T15:01:59.999Z</time></trkpt><trkpt lat="42.094441374377" lon="13.356214008259936"><ele>704.0</ele><time>2026-05-03T15:02:00.999Z</time></trkpt><trkpt lat="42.09431932361938" lon="13.356488475041616"><ele>704.0</ele><time>2026-05-03T15:02:01.999Z</time></trkpt><trkpt lat="42.09420410948542" lon="13.35674196336094"><ele>704.0</ele><time>2026-05-03T15:02:02.999Z</time></trkpt><trkpt lat="42.09409793417065" lon="13.35697639718573"><ele>704.0</ele><time>2026-05-03T15:02:03.999Z</time></trkpt><trkpt lat="42.09398696193832" lon="13.357188158187567"><ele>704.0</ele><time>2026-05-03T15:02:04.999Z</time></trkpt><trkpt lat="42.09386356464346" lon="13.357402720235179"><ele>705.0</ele><time>2026-05-03T15:02:05.999Z</time></trkpt><trkpt lat="42.093731151361936" lon="13.357638392749251"><ele>706.0</ele><time>2026-05-03T15:02:06.999Z</time></trkpt><trkpt lat="42.09360335687573" lon="13.357865902501514"><ele>707.0</ele><time>2026-05-03T15:02:07.999Z</time></trkpt><trkpt lat="42.09349124827663" lon="13.358055807309627"><ele>707.75</ele><time>2026-05-03T15:02:08.999Z</time></trkpt><trkpt lat="42.093396657485215" lon="13.358217901237305"><ele>708.5</ele><time>2026-05-03T15:02:09.999Z</time></trkpt><trkpt lat="42.09331049283744" lon="13.358370649393882"><ele>709.25</ele><time>2026-05-03T15:02:10.999Z</time></trkpt><trkpt lat="42.09322552804963" lon="13.358516448139275"><ele>710.0</ele><time>2026-05-03T15:02:11.999Z</time></trkpt><trkpt lat="42.09314651024518" lon="13.358655264932068"><ele>710.0</ele><time>2026-05-03T15:02:12.999Z</time></trkpt><trkpt lat="42.09307449596195" lon="13.358782600150297"><ele>710.0</ele><time>2026-05-03T15:02:13.999Z</time></trkpt><trkpt lat="42.09300570507127" lon="13.358924230183314"><ele>710.0</ele><time>2026-05-03T15:02:14.999Z</time></trkpt><trkpt lat="42.09293748162172" lon="13.359111022405239"><ele>710.0</ele><time>2026-05-03T15:02:15.999Z</time></trkpt><trkpt lat="42.09288328442898" lon="13.359324078260707"><ele>710.6666666666666</ele><time>2026-05-03T15:02:16.999Z</time></trkpt><trkpt lat="42.09282074895852" lon="13.359551137455997"><ele>711.3333333333334</ele><time>2026-05-03T15:02:17.999Z</time></trkpt><trkpt lat="42.09275903878075" lon="13.35975887654378"><ele>712.0</ele><time>2026-05-03T15:02:18.999Z</time></trkpt><trkpt lat="42.09270086904513" lon="13.359944645706838"><ele>713.0</ele><time>2026-05-03T15:02:19.999Z</time></trkpt><trkpt lat="42.09263613333164" lon="13.360137633291304"><ele>714.0</ele><time>2026-05-03T15:02:20.999Z</time></trkpt><trkpt lat="42.0925715238415" lon="13.360335864658598"><ele>715.0</ele><time>2026-05-03T15:02:21.999Z</time></trkpt><trkpt lat="42.0925084122035" lon="13.360550715574133"><ele>715.6666666666667</ele><time>2026-05-03T15:02:22.999Z</time></trkpt><trkpt lat="42.09244131031422" lon="13.360770254528036"><ele>716.3333333333334</ele><time>2026-05-03T15:02:23.999Z</time></trkpt><trkpt lat="42.09237349939094" lon="13.36099983166577"><ele>717.0</ele><time>2026-05-03T15:02:24.999Z</time></trkpt><trkpt lat="42.092313733542944" lon="13.361209430306062"><ele>717.5</ele><time>2026-05-03T15:02:25.999Z</time></trkpt><trkpt lat="42.092258682254624" lon="13.361397520874247"><ele>718.0</ele><time>2026-05-03T15:02:26.999Z</time></trkpt><trkpt lat="42.09221093296098" lon="13.36156762027867"><ele>718.5</ele><time>2026-05-03T15:02:27.999Z</time></trkpt><trkpt lat="42.092165644155656" lon="13.36171349120908"><ele>719.0</ele><time>2026-05-03T15:02:28.999Z</time></trkpt><trkpt lat="42.092132852303536" lon="13.361832900959497"><ele>719.0</ele><time>2026-05-03T15:02:29.999Z</time></trkpt><trkpt lat="42.09210778585413" lon="13.361932104794088"><ele>719.0</ele><time>2026-05-03T15:02:30.999Z</time></trkpt><trkpt lat="42.092059044923595" lon="13.362069722784994"><ele>719.0</ele><time>2026-05-03T15:02:32.999Z</time></trkpt><trkpt lat="42.09204996477638" lon="13.362205423473672"><ele>719.0</ele><time>2026-05-03T15:02:34.999Z</time></trkpt><trkpt lat="42.09205130044068" lon="13.362302685666961"><ele>719.0</ele><time>2026-05-03T15:02:35.999Z</time></trkpt><trkpt lat="42.09208286451381" lon="13.362409505326935"><ele>719.5</ele><time>2026-05-03T15:02:36.999Z</time></trkpt><trkpt lat="42.092091775740684" lon="13.362529188012122"><ele>720.0</ele><time>2026-05-03T15:02:37.999Z</time></trkpt><trkpt lat="42.09208105287823" lon="13.362642408411505"><ele>720.5</ele><time>2026-05-03T15:02:38.999Z</time></trkpt><trkpt lat="42.09206502287161" lon="13.362734428652706"><ele>721.0</ele><time>2026-05-03T15:02:39.999Z</time></trkpt><trkpt lat="42.09205572058538" lon="13.362821791286533"><ele>721.5</ele><time>2026-05-03T15:02:40.999Z</time></trkpt><trkpt lat="42.092052554794876" lon="13.362940043860018"><ele>722.0</ele><time>2026-05-03T15:02:41.999Z</time></trkpt><trkpt lat="42.09202683930112" lon="13.3630646176009"><ele>723.0</ele><time>2026-05-03T15:02:42.999Z</time></trkpt><trkpt lat="42.092021398593694" lon="13.363241122442396"><ele>724.0</ele><time>2026-05-03T15:02:43.999Z</time></trkpt><trkpt lat="42.0920054644781" lon="13.363463499500561"><ele>725.0</ele><time>2026-05-03T15:02:44.999Z</time></trkpt><trkpt lat="42.09198781274017" lon="13.36373749585715"><ele>725.3333333333333</ele><time>2026-05-03T15:02:45.999Z</time></trkpt><trkpt lat="42.09195743616317" lon="13.364044691287416"><ele>725.6666666666666</ele><time>2026-05-03T15:02:46.999Z</time></trkpt><trkpt lat="42.091933598701615" lon="13.364301122066443"><ele>726.0</ele><time>2026-05-03T15:02:47.999Z</time></trkpt><trkpt lat="42.09191843882143" lon="13.36449301987635"><ele>726.0</ele><time>2026-05-03T15:02:48.999Z</time></trkpt><trkpt lat="42.09190814990502" lon="13.364647851373192"><ele>726.0</ele><time>2026-05-03T15:02:49.999Z</time></trkpt><trkpt lat="42.09189076593195" lon="13.364780655581548"><ele>726.0</ele><time>2026-05-03T15:02:50.999Z</time></trkpt><trkpt lat="42.09186627828846" lon="13.364875372672147"><ele>726.0</ele><time>2026-05-03T15:02:51.999Z</time></trkpt><trkpt lat="42.09181987641033" lon="13.36499564804893"><ele>726.0</ele><time>2026-05-03T15:02:53.999Z</time></trkpt><trkpt lat="42.09178814748091" lon="13.365137283092267"><ele>726.75</ele><time>2026-05-03T15:02:54.999Z</time></trkpt><trkpt lat="42.09198676606334" lon="13.365053182152494"><ele>727.5</ele><time>2026-05-03T15:02:56Z</time></trkpt><trkpt lat="42.09207324837509" lon="13.3649890232445"><ele>728.25</ele><time>2026-05-03T15:02:57Z</time></trkpt><trkpt lat="42.09217712546824" lon="13.364877249345188"><ele>729.0</ele><time>2026-05-03T15:02:58Z</time></trkpt><trkpt lat="42.092304203681294" lon="13.364726986147016"><ele>729.2</ele><time>2026-05-03T15:02:59Z</time></trkpt><trkpt lat="42.09241003526684" lon="13.364598630322883"><ele>729.4000000000001</ele><time>2026-05-03T15:03:00Z</time></trkpt><trkpt lat="42.09248872717984" lon="13.364508455812917"><ele>729.6</ele><time>2026-05-03T15:03:01Z</time></trkpt><trkpt lat="42.092548062445864" lon="13.364441089775248"><ele>729.8</ele><time>2026-05-03T15:03:02Z</time></trkpt><trkpt lat="42.09260436106017" lon="13.36439638990376"><ele>730.0</ele><time>2026-05-03T15:03:03Z</time></trkpt><trkpt lat="42.092723302748915" lon="13.364477902749263"><ele>730.0</ele><time>2026-05-03T15:03:05Z</time></trkpt><trkpt lat="42.09279147694134" lon="13.364560631646485"><ele>730.0</ele><time>2026-05-03T15:03:06Z</time></trkpt><trkpt lat="42.09287494206555" lon="13.364670910142305"><ele>730.0</ele><time>2026-05-03T15:03:07Z</time></trkpt><trkpt lat="42.09299119964071" lon="13.36479908168041"><ele>730.0</ele><time>2026-05-03T15:03:08Z</time></trkpt><trkpt lat="42.09313651020972" lon="13.364930089828132"><ele>730.6666666666667</ele><time>2026-05-03T15:03:09Z</time></trkpt><trkpt lat="42.093270997901364" lon="13.36508737107315"><ele>731.3333333333334</ele><time>2026-05-03T15:03:10Z</time></trkpt><trkpt lat="42.09338968861538" lon="13.365211180885439"><ele>732.0</ele><time>2026-05-03T15:03:11Z</time></trkpt><trkpt lat="42.093497998697906" lon="13.365337629965753"><ele>732.0</ele><time>2026-05-03T15:03:12Z</time></trkpt><trkpt lat="42.09359052660098" lon="13.365460004526053"><ele>732.0</ele><time>2026-05-03T15:03:13Z</time></trkpt><trkpt lat="42.09368670551401" lon="13.365560344708408"><ele>732.0</ele><time>2026-05-03T15:03:14Z</time></trkpt><trkpt lat="42.09377752723668" lon="13.36565327172491"><ele>732.0</ele><time>2026-05-03T15:03:15Z</time></trkpt><trkpt lat="42.0938588773244" lon="13.365742881384707"><ele>731.8</ele><time>2026-05-03T15:03:16Z</time></trkpt><trkpt lat="42.09392891009851" lon="13.365829760047065"><ele>731.6</ele><time>2026-05-03T15:03:17Z</time></trkpt><trkpt lat="42.09397403281031" lon="13.365923410589678"><ele>731.4</ele><time>2026-05-03T15:03:18Z</time></trkpt><trkpt lat="42.094030278378426" lon="13.36597175653683"><ele>731.1999999999999</ele><time>2026-05-03T15:03:19Z</time></trkpt><trkpt lat="42.093988096177085" lon="13.366148793787834"><ele>731.0</ele><time>2026-05-03T15:03:20Z</time></trkpt><trkpt lat="42.09399055848451" lon="13.3662972420152"><ele>731.3333333333333</ele><time>2026-05-03T15:03:21Z</time></trkpt><trkpt lat="42.09399544442301" lon="13.366492479335786"><ele>731.6666666666666</ele><time>2026-05-03T15:03:22Z</time></trkpt><trkpt lat="42.09398661973449" lon="13.366715793948782"><ele>732.0</ele><time>2026-05-03T15:03:23Z</time></trkpt><trkpt lat="42.09399328760628" lon="13.36695121067177"><ele>732.3333333333334</ele><time>2026-05-03T15:03:24Z</time></trkpt><trkpt lat="42.094019154566325" lon="13.367226415277198"><ele>732.6666666666667</ele><time>2026-05-03T15:03:25Z</time></trkpt><trkpt lat="42.09402918701464" lon="13.367521440652169"><ele>733.0</ele><time>2026-05-03T15:03:26Z</time></trkpt><trkpt lat="42.09404787787455" lon="13.3678389299776"><ele>734.0</ele><time>2026-05-03T15:03:27Z</time></trkpt><trkpt lat="42.094075531414454" lon="13.368186652401247"><ele>735.0</ele><time>2026-05-03T15:03:28Z</time></trkpt><trkpt lat="42.09413731332255" lon="13.368521727157457"><ele>736.0</ele><time>2026-05-03T15:03:29Z</time></trkpt><trkpt lat="42.09418974995267" lon="13.368839930357423"><ele>737.0</ele><time>2026-05-03T15:03:30Z</time></trkpt><trkpt lat="42.094219472663546" lon="13.369164771402414"><ele>739.0</ele><time>2026-05-03T15:03:31Z</time></trkpt><trkpt lat="42.09423072380021" lon="13.36952101972347"><ele>741.0</ele><time>2026-05-03T15:03:32Z</time></trkpt><trkpt lat="42.09424135665286" lon="13.369897104318811"><ele>741.5</ele><time>2026-05-03T15:03:33Z</time></trkpt><trkpt lat="42.09425368079512" lon="13.370290922212003"><ele>742.0</ele><time>2026-05-03T15:03:34Z</time></trkpt><trkpt lat="42.09426167556832" lon="13.370717545701337"><ele>742.5</ele><time>2026-05-03T15:03:35Z</time></trkpt><trkpt lat="42.09427565915347" lon="13.371171330824174"><ele>743.0</ele><time>2026-05-03T15:03:36Z</time></trkpt><trkpt lat="42.09428662924729" lon="13.371642440814812"><ele>744.5</ele><time>2026-05-03T15:03:37Z</time></trkpt><trkpt lat="42.09430163461812" lon="13.372073391905852"><ele>746.0</ele><time>2026-05-03T15:03:38Z</time></trkpt><trkpt lat="42.09431212722172" lon="13.372457322502527"><ele>748.0</ele><time>2026-05-03T15:03:39Z</time></trkpt><trkpt lat="42.09432182005174" lon="13.37281198893189"><ele>750.0</ele><time>2026-05-03T15:03:40Z</time></trkpt><trkpt lat="42.09433071924701" lon="13.373137615750046"><ele>751.0</ele><time>2026-05-03T15:03:41Z</time></trkpt><trkpt lat="42.094341879741116" lon="13.373454584616143"><ele>752.0</ele><time>2026-05-03T15:03:42Z</time></trkpt><trkpt lat="42.09436367474027" lon="13.373792323057355"><ele>754.0</ele><time>2026-05-03T15:03:43Z</time></trkpt><trkpt lat="42.094423852777595" lon="13.374151672384562"><ele>756.0</ele><time>2026-05-03T15:03:43.999Z</time></trkpt><trkpt lat="42.0944986328042" lon="13.374539363082535"><ele>757.5</ele><time>2026-05-03T15:03:44.999Z</time></trkpt><trkpt lat="42.09459118040341" lon="13.37495063701143"><ele>759.0</ele><time>2026-05-03T15:03:45.999Z</time></trkpt><trkpt lat="42.09466623730425" lon="13.375380719564244"><ele>760.0</ele><time>2026-05-03T15:03:46.999Z</time></trkpt><trkpt lat="42.094773489390064" lon="13.375812806228694"><ele>761.0</ele><time>2026-05-03T15:03:47.999Z</time></trkpt><trkpt lat="42.0948676381143" lon="13.376268934465582"><ele>763.0</ele><time>2026-05-03T15:03:48.999Z</time></trkpt><trkpt lat="42.09496732693666" lon="13.37673146460636"><ele>765.0</ele><time>2026-05-03T15:03:49.999Z</time></trkpt><trkpt lat="42.09506707945022" lon="13.377204963084768"><ele>765.0</ele><time>2026-05-03T15:03:50.999Z</time></trkpt><trkpt lat="42.095165931846886" lon="13.377689863782459"><ele>765.0</ele><time>2026-05-03T15:03:51.999Z</time></trkpt><trkpt lat="42.09527072351537" lon="13.378184971679572"><ele>764.0</ele><time>2026-05-03T15:03:52.999Z</time></trkpt><trkpt lat="42.09538093845062" lon="13.378693039887978"><ele>763.0</ele><time>2026-05-03T15:03:53.999Z</time></trkpt><trkpt lat="42.095490038583414" lon="13.379205351672153"><ele>761.5</ele><time>2026-05-03T15:03:54.999Z</time></trkpt><trkpt lat="42.095600662115736" lon="13.379723257049298"><ele>760.0</ele><time>2026-05-03T15:03:55.999Z</time></trkpt><trkpt lat="42.095711880521804" lon="13.38025144678963"><ele>767.5</ele><time>2026-05-03T15:03:56.999Z</time></trkpt><trkpt lat="42.09582375310374" lon="13.380785300172771"><ele>775.0</ele><time>2026-05-03T15:03:57.999Z</time></trkpt><trkpt lat="42.09593740443004" lon="13.381316710510228"><ele>776.0</ele><time>2026-05-03T15:03:58.999Z</time></trkpt><trkpt lat="42.09605159867768" lon="13.381791021181602"><ele>777.0</ele><time>2026-05-03T15:03:59.999Z</time></trkpt><trkpt lat="42.096132886605176" lon="13.382232664985542"><ele>778.0</ele><time>2026-05-03T15:04:00.999Z</time></trkpt><trkpt lat="42.09626517461036" lon="13.382624426228649"><ele>779.0</ele><time>2026-05-03T15:04:01.999Z</time></trkpt><trkpt lat="42.096374711999644" lon="13.38299539782472"><ele>780.0</ele><time>2026-05-03T15:04:02.999Z</time></trkpt><trkpt lat="42.09648040333229" lon="13.38334413656973"><ele>781.0</ele><time>2026-05-03T15:04:03.999Z</time></trkpt><trkpt lat="42.096576432181514" lon="13.38366506913278"><ele>783.0</ele><time>2026-05-03T15:04:04.999Z</time></trkpt><trkpt lat="42.09666453087223" lon="13.383964332308706"><ele>785.0</ele><time>2026-05-03T15:04:05.999Z</time></trkpt><trkpt lat="42.0967463447287" lon="13.384247196577999"><ele>785.0</ele><time>2026-05-03T15:04:06.999Z</time></trkpt><trkpt lat="42.09681423041418" lon="13.384504892531062"><ele>785.0</ele><time>2026-05-03T15:04:07.999Z</time></trkpt><trkpt lat="42.096852181692526" lon="13.384769068805927"><ele>785.0</ele><time>2026-05-03T15:04:08.999Z</time></trkpt><trkpt lat="42.09685070640324" lon="13.385084845282213"><ele>785.5</ele><time>2026-05-03T15:04:09.999Z</time></trkpt><trkpt lat="42.09681702850681" lon="13.38545032928248"><ele>786.0</ele><time>2026-05-03T15:04:10.999Z</time></trkpt><trkpt lat="42.09676912019139" lon="13.385850231824348"><ele>787.5</ele><time>2026-05-03T15:04:11.999Z</time></trkpt><trkpt lat="42.09673382833885" lon="13.386262762829649"><ele>789.0</ele><time>2026-05-03T15:04:12.999Z</time></trkpt><trkpt lat="42.09673141632698" lon="13.386702657488364"><ele>790.5</ele><time>2026-05-03T15:04:13.999Z</time></trkpt><trkpt lat="42.09679170921104" lon="13.387159116080843"><ele>792.0</ele><time>2026-05-03T15:04:14.999Z</time></trkpt><trkpt lat="42.09686741907145" lon="13.387555348782954"><ele>796.0</ele><time>2026-05-03T15:04:15.999Z</time></trkpt><trkpt lat="42.09692352819236" lon="13.387893695412298"><ele>800.0</ele><time>2026-05-03T15:04:16.999Z</time></trkpt><trkpt lat="42.09696523861157" lon="13.388189348525302"><ele>801.0</ele><time>2026-05-03T15:04:17.999Z</time></trkpt><trkpt lat="42.097003481813346" lon="13.38846607333444"><ele>802.0</ele><time>2026-05-03T15:04:18.999Z</time></trkpt><trkpt lat="42.09705450036854" lon="13.388721114896555"><ele>803.0</ele><time>2026-05-03T15:04:19.999Z</time></trkpt><trkpt lat="42.09714151597202" lon="13.388959164336958"><ele>803.5</ele><time>2026-05-03T15:04:20.999Z</time></trkpt><trkpt lat="42.097297828829184" lon="13.389197764806282"><ele>804.0</ele><time>2026-05-03T15:04:21.999Z</time></trkpt><trkpt lat="42.097516227026055" lon="13.389434518119502"><ele>804.5</ele><time>2026-05-03T15:04:22.999Z</time></trkpt><trkpt lat="42.09776983600379" lon="13.389673439823328"><ele>805.0</ele><time>2026-05-03T15:04:23.999Z</time></trkpt><trkpt lat="42.098027827632336" lon="13.38993095631722"><ele>807.0</ele><time>2026-05-03T15:04:24.999Z</time></trkpt><trkpt lat="42.098293263455645" lon="13.390209733834228"><ele>809.0</ele><time>2026-05-03T15:04:25.999Z</time></trkpt><trkpt lat="42.09857378078405" lon="13.390505921287096"><ele>809.5</ele><time>2026-05-03T15:04:26.999Z</time></trkpt><trkpt lat="42.098859705242226" lon="13.39080174322456"><ele>810.0</ele><time>2026-05-03T15:04:27.999Z</time></trkpt><trkpt lat="42.09915254265792" lon="13.391107384509102"><ele>812.0</ele><time>2026-05-03T15:04:28.999Z</time></trkpt><trkpt lat="42.09942136379712" lon="13.391392209666565"><ele>814.0</ele><time>2026-05-03T15:04:29.999Z</time></trkpt><trkpt lat="42.09966658889501" lon="13.391645544331569"><ele>814.0</ele><time>2026-05-03T15:04:30.999Z</time></trkpt><trkpt lat="42.09992617882079" lon="13.391911622264699"><ele>814.0</ele><time>2026-05-03T15:04:31.999Z</time></trkpt><trkpt lat="42.100203890943014" lon="13.392201396519566"><ele>814.0</ele><time>2026-05-03T15:04:32.999Z</time></trkpt><trkpt lat="42.10049611094163" lon="13.392499656206084"><ele>814.0</ele><time>2026-05-03T15:04:33.999Z</time></trkpt><trkpt lat="42.100790109441995" lon="13.392809785291306"><ele>815.5</ele><time>2026-05-03T15:04:34.999Z</time></trkpt><trkpt lat="42.101057840391235" lon="13.393091630834764"><ele>817.0</ele><time>2026-05-03T15:04:35.999Z</time></trkpt><trkpt lat="42.10130210395289" lon="13.393346270226862"><ele>817.0</ele><time>2026-05-03T15:04:36.999Z</time></trkpt><trkpt lat="42.10153061809442" lon="13.393580146614472"><ele>817.0</ele><time>2026-05-03T15:04:37.999Z</time></trkpt><trkpt lat="42.10174398419761" lon="13.393805484061547"><ele>817.5</ele><time>2026-05-03T15:04:38.999Z</time></trkpt><trkpt lat="42.10194689547896" lon="13.394018188651064"><ele>818.0</ele><time>2026-05-03T15:04:39.999Z</time></trkpt><trkpt lat="42.10213644275112" lon="13.394215011927713"><ele>818.0</ele><time>2026-05-03T15:04:40.999Z</time></trkpt><trkpt lat="42.102312083289654" lon="13.39439601017207"><ele>818.0</ele><time>2026-05-03T15:04:41.999Z</time></trkpt><trkpt lat="42.102469771590584" lon="13.39456058494005"><ele>818.0</ele><time>2026-05-03T15:04:42.999Z</time></trkpt><trkpt lat="42.10261179215286" lon="13.394708502883153"><ele>818.5</ele><time>2026-05-03T15:04:43.999Z</time></trkpt><trkpt lat="42.102734592460095" lon="13.394838390446766"><ele>819.0</ele><time>2026-05-03T15:04:44.999Z</time></trkpt><trkpt lat="42.102841462501395" lon="13.394951003065023"><ele>819.5</ele><time>2026-05-03T15:04:45.999Z</time></trkpt><trkpt lat="42.10293848772132" lon="13.395057400903495"><ele>820.0</ele><time>2026-05-03T15:04:46.999Z</time></trkpt><trkpt lat="42.10302008722969" lon="13.395148476297795"><ele>820.0</ele><time>2026-05-03T15:04:47.999Z</time></trkpt><trkpt lat="42.10309618965398" lon="13.39522029813876"><ele>820.0</ele><time>2026-05-03T15:04:48.999Z</time></trkpt><trkpt lat="42.10318324543948" lon="13.395263189292585"><ele>820.0</ele><time>2026-05-03T15:04:49.999Z</time></trkpt><trkpt lat="42.103304566694334" lon="13.395262848408509"><ele>820.0</ele><time>2026-05-03T15:04:50.999Z</time></trkpt><trkpt lat="42.10348412127926" lon="13.395219723855599"><ele>821.0</ele><time>2026-05-03T15:04:51.999Z</time></trkpt><trkpt lat="42.103695936337616" lon="13.395148974291219"><ele>822.0</ele><time>2026-05-03T15:04:52.999Z</time></trkpt><trkpt lat="42.10391176867366" lon="13.395078402567448"><ele>823.0</ele><time>2026-05-03T15:04:53.999Z</time></trkpt><trkpt lat="42.10408826081139" lon="13.395025579464136"><ele>823.75</ele><time>2026-05-03T15:04:54.999Z</time></trkpt><trkpt lat="42.10424935933989" lon="13.394987708481079"><ele>824.5</ele><time>2026-05-03T15:04:55.999Z</time></trkpt><trkpt lat="42.10438861590243" lon="13.394946365960946"><ele>825.25</ele><time>2026-05-03T15:04:56.999Z</time></trkpt><trkpt lat="42.10451458898715" lon="13.394905630654751"><ele>826.0</ele><time>2026-05-03T15:04:57.999Z</time></trkpt><trkpt lat="42.10463717960487" lon="13.39485235939397"><ele>826.0</ele><time>2026-05-03T15:04:58.999Z</time></trkpt><trkpt lat="42.104755625599296" lon="13.394760722217965"><ele>826.0</ele><time>2026-05-03T15:04:59.999Z</time></trkpt><trkpt lat="42.104860777494196" lon="13.394626984224907"><ele>826.0</ele><time>2026-05-03T15:05:00.999Z</time></trkpt><trkpt lat="42.104945108560614" lon="13.394481418559018"><ele>826.0</ele><time>2026-05-03T15:05:02Z</time></trkpt><trkpt lat="42.10502672201076" lon="13.394362502544572"><ele>828.0</ele><time>2026-05-03T15:05:03Z</time></trkpt><trkpt lat="42.105110378993714" lon="13.394261766367586"><ele>830.0</ele><time>2026-05-03T15:05:04Z</time></trkpt><trkpt lat="42.10520062463746" lon="13.394159369094439"><ele>832.0</ele><time>2026-05-03T15:05:05Z</time></trkpt><trkpt lat="42.10529829307085" lon="13.394064376830997"><ele>834.0</ele><time>2026-05-03T15:05:06Z</time></trkpt><trkpt lat="42.105418473492044" lon="13.394003968670956"><ele>834.0</ele><time>2026-05-03T15:05:07Z</time></trkpt><trkpt lat="42.10554983530836" lon="13.393967803230243"><ele>834.0</ele><time>2026-05-03T15:05:08Z</time></trkpt><trkpt lat="42.10569214997269" lon="13.393932148610036"><ele>834.0</ele><time>2026-05-03T15:05:09Z</time></trkpt><trkpt lat="42.10583161595572" lon="13.3939179969443"><ele>834.0</ele><time>2026-05-03T15:05:10Z</time></trkpt><trkpt lat="42.10596567466019" lon="13.393909238086934"><ele>836.0</ele><time>2026-05-03T15:05:11Z</time></trkpt><trkpt lat="42.10609575035889" lon="13.393889328929333"><ele>838.0</ele><time>2026-05-03T15:05:12Z</time></trkpt><trkpt lat="42.10622186197484" lon="13.393871141655273"><ele>840.0</ele><time>2026-05-03T15:05:13Z</time></trkpt><trkpt lat="42.106341469201915" lon="13.393848603839148"><ele>842.0</ele><time>2026-05-03T15:05:14Z</time></trkpt><trkpt lat="42.10646160164819" lon="13.393824019742302"><ele>844.5</ele><time>2026-05-03T15:05:15Z</time></trkpt><trkpt lat="42.10659582811114" lon="13.39379457655034"><ele>847.0</ele><time>2026-05-03T15:05:16Z</time></trkpt><trkpt lat="42.10673168991007" lon="13.393750740243158"><ele>849.5</ele><time>2026-05-03T15:05:17Z</time></trkpt><trkpt lat="42.10686674311745" lon="13.393685794972043"><ele>852.0</ele><time>2026-05-03T15:05:18Z</time></trkpt><trkpt lat="42.107006217177414" lon="13.393598585399554"><ele>852.0</ele><time>2026-05-03T15:05:19Z</time></trkpt><trkpt lat="42.107148791522214" lon="13.393482188670324"><ele>852.0</ele><time>2026-05-03T15:05:20Z</time></trkpt><trkpt lat="42.107276825132075" lon="13.393377024950002"><ele>852.0</ele><time>2026-05-03T15:05:21Z</time></trkpt><trkpt lat="42.10738240779413" lon="13.393298978966884"><ele>852.0</ele><time>2026-05-03T15:05:22Z</time></trkpt><trkpt lat="42.10749044981062" lon="13.393225901943012"><ele>853.25</ele><time>2026-05-03T15:05:23Z</time></trkpt><trkpt lat="42.10760315709463" lon="13.393153693698201"><ele>854.5</ele><time>2026-05-03T15:05:24Z</time></trkpt><trkpt lat="42.10771897593039" lon="13.3930718163369"><ele>855.75</ele><time>2026-05-03T15:05:25Z</time></trkpt><trkpt lat="42.10782074819509" lon="13.393002644143964"><ele>857.0</ele><time>2026-05-03T15:05:26Z</time></trkpt><trkpt lat="42.107912217466726" lon="13.392945178042163"><ele>857.0000000000001</ele><time>2026-05-03T15:05:27Z</time></trkpt><trkpt lat="42.10799235173654" lon="13.3928986861036"><ele>857.0</ele><time>2026-05-03T15:05:28Z</time></trkpt><trkpt lat="42.1080492785526" lon="13.392852551581631"><ele>857.0</ele><time>2026-05-03T15:05:29Z</time></trkpt><trkpt lat="42.10812072274796" lon="13.392834554347445"><ele>857.0</ele><time>2026-05-03T15:05:31Z</time></trkpt><trkpt lat="42.108184441967595" lon="13.39295295262387"><ele>857.0000000000001</ele><time>2026-05-03T15:05:33Z</time></trkpt><trkpt lat="42.1082090771226" lon="13.3930475714711"><ele>857.0</ele><time>2026-05-03T15:05:35Z</time></trkpt><trkpt lat="42.10825860457125" lon="13.393112785315735"><ele>861.0</ele><time>2026-05-03T15:06:43.999Z</time></trkpt><trkpt lat="42.108197473256055" lon="13.393174966104837"><ele>857.0</ele><time>2026-05-03T15:07:47Z</time></trkpt><trkpt lat="42.10816481372803" lon="13.393098648389143"><ele>857.0</ele><time>2026-05-03T15:07:50Z</time></trkpt><trkpt lat="42.10819135382311" lon="13.393013222787427"><ele>857.0</ele><time>2026-05-03T15:07:53Z</time></trkpt></trkseg></trk></gpx>